<?xml version="1.0" encoding="UTF-8" standalone="no" ?>
<gpx xmlns="http://www.topografix.com/GPX/1/1" xmlns:xsi="http://www.w3.org/2001/XMLSchema-instance" xsi:schemaLocation="http://www.topografix.com/GPX/1/1 http://www.topografix.com/GPX/1/1/gpx.xsd" version="1.1" creator="VisuGPX - https://www.visugpx.com">
  <metadata>
    <name>Hainneville</name>
  </metadata>
  <trk>
    <name><![CDATA[Hainneville_1]]></name>
    <trkseg>
      <trkpt lat="49.73293" lon="2.34901">
        <ele>54.9</ele>
        <time>2022-10-05T11:59:23Z</time>
      </trkpt>
      <trkpt lat="49.73294" lon="2.34902">
        <ele>54.9</ele>
        <time>2022-10-05T11:59:24Z</time>
      </trkpt>
      <trkpt lat="49.73295" lon="2.34902">
        <ele>54.9</ele>
        <time>2022-10-05T11:59:25Z</time>
      </trkpt>
      <trkpt lat="49.73297" lon="2.34903">
        <ele>54.9</ele>
        <time>2022-10-05T11:59:26Z</time>
      </trkpt>
      <trkpt lat="49.73297" lon="2.34904">
        <ele>54.9</ele>
        <time>2022-10-05T11:59:27Z</time>
      </trkpt>
      <trkpt lat="49.73298" lon="2.34904">
        <ele>54.9</ele>
        <time>2022-10-05T11:59:28Z</time>
      </trkpt>
      <trkpt lat="49.733" lon="2.34905">
        <ele>54.8</ele>
        <time>2022-10-05T11:59:29Z</time>
      </trkpt>
      <trkpt lat="49.73301" lon="2.34905">
        <ele>54.8</ele>
        <time>2022-10-05T11:59:30Z</time>
      </trkpt>
      <trkpt lat="49.73302" lon="2.34906">
        <ele>54.8</ele>
        <time>2022-10-05T11:59:31Z</time>
      </trkpt>
      <trkpt lat="49.73304" lon="2.34907">
        <ele>54.8</ele>
        <time>2022-10-05T11:59:32Z</time>
      </trkpt>
      <trkpt lat="49.73305" lon="2.34907">
        <ele>54.8</ele>
        <time>2022-10-05T11:59:33Z</time>
      </trkpt>
      <trkpt lat="49.73307" lon="2.34909">
        <ele>54.8</ele>
        <time>2022-10-05T11:59:35Z</time>
      </trkpt>
      <trkpt lat="49.73308" lon="2.3491">
        <ele>54.8</ele>
        <time>2022-10-05T11:59:36Z</time>
      </trkpt>
      <trkpt lat="49.73309" lon="2.3491">
        <ele>54.8</ele>
        <time>2022-10-05T11:59:37Z</time>
      </trkpt>
      <trkpt lat="49.7331" lon="2.34913">
        <ele>54.8</ele>
        <time>2022-10-05T11:59:38Z</time>
      </trkpt>
      <trkpt lat="49.73311" lon="2.34914">
        <ele>54.8</ele>
        <time>2022-10-05T11:59:39Z</time>
      </trkpt>
      <trkpt lat="49.73312" lon="2.34915">
        <ele>54.8</ele>
        <time>2022-10-05T11:59:40Z</time>
      </trkpt>
      <trkpt lat="49.73313" lon="2.34916">
        <ele>54.8</ele>
        <time>2022-10-05T11:59:42Z</time>
      </trkpt>
      <trkpt lat="49.73313" lon="2.34918">
        <ele>54.8</ele>
        <time>2022-10-05T11:59:43Z</time>
      </trkpt>
      <trkpt lat="49.73314" lon="2.34919">
        <ele>54.8</ele>
        <time>2022-10-05T11:59:44Z</time>
      </trkpt>
      <trkpt lat="49.73314" lon="2.34919">
        <ele>54.8</ele>
        <time>2022-10-05T11:59:45Z</time>
      </trkpt>
      <trkpt lat="49.73315" lon="2.34919">
        <ele>54.8</ele>
        <time>2022-10-05T11:59:46Z</time>
      </trkpt>
      <trkpt lat="49.73315" lon="2.34919">
        <ele>54.8</ele>
        <time>2022-10-05T11:59:47Z</time>
      </trkpt>
      <trkpt lat="49.73316" lon="2.34919">
        <ele>54.8</ele>
        <time>2022-10-05T11:59:48Z</time>
      </trkpt>
      <trkpt lat="49.73317" lon="2.3492">
        <ele>54.8</ele>
        <time>2022-10-05T11:59:49Z</time>
      </trkpt>
      <trkpt lat="49.73317" lon="2.3492">
        <ele>54.8</ele>
        <time>2022-10-05T11:59:50Z</time>
      </trkpt>
      <trkpt lat="49.73319" lon="2.34923">
        <ele>54.8</ele>
        <time>2022-10-05T11:59:52Z</time>
      </trkpt>
      <trkpt lat="49.7332" lon="2.34924">
        <ele>54.8</ele>
        <time>2022-10-05T11:59:54Z</time>
      </trkpt>
      <trkpt lat="49.73321" lon="2.34924">
        <ele>54.8</ele>
        <time>2022-10-05T11:59:55Z</time>
      </trkpt>
      <trkpt lat="49.73322" lon="2.34925">
        <ele>54.8</ele>
        <time>2022-10-05T11:59:56Z</time>
      </trkpt>
      <trkpt lat="49.73322" lon="2.34926">
        <ele>54.8</ele>
        <time>2022-10-05T11:59:57Z</time>
      </trkpt>
      <trkpt lat="49.73323" lon="2.34927">
        <ele>54.8</ele>
        <time>2022-10-05T11:59:58Z</time>
      </trkpt>
      <trkpt lat="49.73324" lon="2.34929">
        <ele>54.8</ele>
        <time>2022-10-05T11:59:59Z</time>
      </trkpt>
      <trkpt lat="49.73326" lon="2.3493">
        <ele>54.8</ele>
        <time>2022-10-05T12:00:00Z</time>
      </trkpt>
      <trkpt lat="49.73327" lon="2.34931">
        <ele>54.8</ele>
        <time>2022-10-05T12:00:01Z</time>
      </trkpt>
      <trkpt lat="49.73328" lon="2.34932">
        <ele>54.8</ele>
        <time>2022-10-05T12:00:02Z</time>
      </trkpt>
      <trkpt lat="49.73329" lon="2.34933">
        <ele>54.8</ele>
        <time>2022-10-05T12:00:03Z</time>
      </trkpt>
      <trkpt lat="49.7333" lon="2.34934">
        <ele>54.8</ele>
        <time>2022-10-05T12:00:05Z</time>
      </trkpt>
      <trkpt lat="49.73332" lon="2.34937">
        <ele>54.8</ele>
        <time>2022-10-05T12:00:06Z</time>
      </trkpt>
      <trkpt lat="49.73332" lon="2.34938">
        <ele>54.8</ele>
        <time>2022-10-05T12:00:07Z</time>
      </trkpt>
      <trkpt lat="49.73333" lon="2.34939">
        <ele>54.8</ele>
        <time>2022-10-05T12:00:08Z</time>
      </trkpt>
      <trkpt lat="49.73334" lon="2.3494">
        <ele>54.8</ele>
        <time>2022-10-05T12:00:09Z</time>
      </trkpt>
      <trkpt lat="49.73334" lon="2.34942">
        <ele>54.8</ele>
        <time>2022-10-05T12:00:10Z</time>
      </trkpt>
      <trkpt lat="49.73335" lon="2.34943">
        <ele>54.8</ele>
        <time>2022-10-05T12:00:11Z</time>
      </trkpt>
      <trkpt lat="49.73336" lon="2.34945">
        <ele>54.8</ele>
        <time>2022-10-05T12:00:12Z</time>
      </trkpt>
      <trkpt lat="49.73337" lon="2.34946">
        <ele>54.8</ele>
        <time>2022-10-05T12:00:13Z</time>
      </trkpt>
      <trkpt lat="49.73338" lon="2.34947">
        <ele>54.8</ele>
        <time>2022-10-05T12:00:14Z</time>
      </trkpt>
      <trkpt lat="49.73339" lon="2.34949">
        <ele>54.8</ele>
        <time>2022-10-05T12:00:15Z</time>
      </trkpt>
      <trkpt lat="49.7334" lon="2.34951">
        <ele>54.8</ele>
        <time>2022-10-05T12:00:16Z</time>
      </trkpt>
      <trkpt lat="49.73341" lon="2.34952">
        <ele>54.8</ele>
        <time>2022-10-05T12:00:17Z</time>
      </trkpt>
      <trkpt lat="49.73342" lon="2.34953">
        <ele>54.8</ele>
        <time>2022-10-05T12:00:18Z</time>
      </trkpt>
      <trkpt lat="49.73342" lon="2.34955">
        <ele>54.8</ele>
        <time>2022-10-05T12:00:19Z</time>
      </trkpt>
      <trkpt lat="49.73343" lon="2.34956">
        <ele>54.8</ele>
        <time>2022-10-05T12:00:20Z</time>
      </trkpt>
      <trkpt lat="49.73344" lon="2.34957">
        <ele>54.8</ele>
        <time>2022-10-05T12:00:21Z</time>
      </trkpt>
      <trkpt lat="49.73345" lon="2.34958">
        <ele>54.8</ele>
        <time>2022-10-05T12:00:22Z</time>
      </trkpt>
      <trkpt lat="49.73345" lon="2.34959">
        <ele>54.8</ele>
        <time>2022-10-05T12:00:23Z</time>
      </trkpt>
      <trkpt lat="49.73346" lon="2.3496">
        <ele>54.8</ele>
        <time>2022-10-05T12:00:25Z</time>
      </trkpt>
      <trkpt lat="49.73347" lon="2.34961">
        <ele>54.8</ele>
        <time>2022-10-05T12:00:26Z</time>
      </trkpt>
      <trkpt lat="49.73348" lon="2.34962">
        <ele>54.7</ele>
        <time>2022-10-05T12:00:27Z</time>
      </trkpt>
      <trkpt lat="49.73349" lon="2.34964">
        <ele>54.7</ele>
        <time>2022-10-05T12:00:28Z</time>
      </trkpt>
      <trkpt lat="49.7335" lon="2.34965">
        <ele>54.7</ele>
        <time>2022-10-05T12:00:29Z</time>
      </trkpt>
      <trkpt lat="49.73351" lon="2.34966">
        <ele>54.7</ele>
        <time>2022-10-05T12:00:30Z</time>
      </trkpt>
      <trkpt lat="49.73352" lon="2.34967">
        <ele>54.7</ele>
        <time>2022-10-05T12:00:31Z</time>
      </trkpt>
      <trkpt lat="49.73353" lon="2.34968">
        <ele>54.7</ele>
        <time>2022-10-05T12:00:32Z</time>
      </trkpt>
      <trkpt lat="49.73354" lon="2.34968">
        <ele>54.7</ele>
        <time>2022-10-05T12:00:34Z</time>
      </trkpt>
      <trkpt lat="49.73355" lon="2.34969">
        <ele>54.7</ele>
        <time>2022-10-05T12:00:35Z</time>
      </trkpt>
      <trkpt lat="49.73357" lon="2.34969">
        <ele>54.7</ele>
        <time>2022-10-05T12:00:36Z</time>
      </trkpt>
      <trkpt lat="49.73358" lon="2.34969">
        <ele>54.7</ele>
        <time>2022-10-05T12:00:37Z</time>
      </trkpt>
      <trkpt lat="49.73359" lon="2.34969">
        <ele>54.7</ele>
        <time>2022-10-05T12:00:38Z</time>
      </trkpt>
      <trkpt lat="49.73361" lon="2.3497">
        <ele>54.7</ele>
        <time>2022-10-05T12:00:39Z</time>
      </trkpt>
      <trkpt lat="49.73362" lon="2.34971">
        <ele>54.7</ele>
        <time>2022-10-05T12:00:40Z</time>
      </trkpt>
      <trkpt lat="49.73363" lon="2.34972">
        <ele>54.7</ele>
        <time>2022-10-05T12:00:41Z</time>
      </trkpt>
      <trkpt lat="49.73364" lon="2.34973">
        <ele>54.6</ele>
        <time>2022-10-05T12:00:42Z</time>
      </trkpt>
      <trkpt lat="49.73365" lon="2.34974">
        <ele>54.6</ele>
        <time>2022-10-05T12:00:43Z</time>
      </trkpt>
      <trkpt lat="49.73367" lon="2.34975">
        <ele>54.6</ele>
        <time>2022-10-05T12:00:44Z</time>
      </trkpt>
      <trkpt lat="49.73368" lon="2.34976">
        <ele>54.6</ele>
        <time>2022-10-05T12:00:45Z</time>
      </trkpt>
      <trkpt lat="49.73369" lon="2.34976">
        <ele>54.6</ele>
        <time>2022-10-05T12:00:46Z</time>
      </trkpt>
      <trkpt lat="49.73371" lon="2.34978">
        <ele>54.6</ele>
        <time>2022-10-05T12:00:47Z</time>
      </trkpt>
      <trkpt lat="49.73371" lon="2.34978">
        <ele>54.6</ele>
        <time>2022-10-05T12:00:48Z</time>
      </trkpt>
      <trkpt lat="49.73372" lon="2.34979">
        <ele>54.6</ele>
        <time>2022-10-05T12:00:49Z</time>
      </trkpt>
      <trkpt lat="49.73374" lon="2.3498">
        <ele>54.6</ele>
        <time>2022-10-05T12:00:50Z</time>
      </trkpt>
      <trkpt lat="49.73375" lon="2.34981">
        <ele>54.6</ele>
        <time>2022-10-05T12:00:51Z</time>
      </trkpt>
      <trkpt lat="49.73376" lon="2.34981">
        <ele>54.6</ele>
        <time>2022-10-05T12:00:52Z</time>
      </trkpt>
      <trkpt lat="49.73378" lon="2.34983">
        <ele>54.6</ele>
        <time>2022-10-05T12:00:53Z</time>
      </trkpt>
      <trkpt lat="49.73379" lon="2.34984">
        <ele>54.5</ele>
        <time>2022-10-05T12:00:54Z</time>
      </trkpt>
      <trkpt lat="49.7338" lon="2.34985">
        <ele>54.5</ele>
        <time>2022-10-05T12:00:55Z</time>
      </trkpt>
      <trkpt lat="49.73381" lon="2.34986">
        <ele>54.5</ele>
        <time>2022-10-05T12:00:56Z</time>
      </trkpt>
      <trkpt lat="49.73383" lon="2.34987">
        <ele>54.5</ele>
        <time>2022-10-05T12:00:57Z</time>
      </trkpt>
      <trkpt lat="49.73384" lon="2.34988">
        <ele>54.5</ele>
        <time>2022-10-05T12:00:58Z</time>
      </trkpt>
      <trkpt lat="49.73385" lon="2.3499">
        <ele>54.5</ele>
        <time>2022-10-05T12:00:59Z</time>
      </trkpt>
      <trkpt lat="49.73386" lon="2.34991">
        <ele>54.5</ele>
        <time>2022-10-05T12:01:00Z</time>
      </trkpt>
      <trkpt lat="49.73388" lon="2.34992">
        <ele>54.5</ele>
        <time>2022-10-05T12:01:01Z</time>
      </trkpt>
      <trkpt lat="49.73389" lon="2.34994">
        <ele>54.5</ele>
        <time>2022-10-05T12:01:02Z</time>
      </trkpt>
      <trkpt lat="49.7339" lon="2.34995">
        <ele>54.5</ele>
        <time>2022-10-05T12:01:03Z</time>
      </trkpt>
      <trkpt lat="49.73393" lon="2.34999">
        <ele>54.5</ele>
        <time>2022-10-05T12:01:04Z</time>
      </trkpt>
      <trkpt lat="49.73393" lon="2.34999">
        <ele>54.5</ele>
        <time>2022-10-05T12:01:05Z</time>
      </trkpt>
      <trkpt lat="49.73395" lon="2.35001">
        <ele>54.5</ele>
        <time>2022-10-05T12:01:06Z</time>
      </trkpt>
      <trkpt lat="49.73396" lon="2.35003">
        <ele>54.5</ele>
        <time>2022-10-05T12:01:08Z</time>
      </trkpt>
      <trkpt lat="49.73398" lon="2.35004">
        <ele>54.5</ele>
        <time>2022-10-05T12:01:09Z</time>
      </trkpt>
      <trkpt lat="49.73399" lon="2.35006">
        <ele>54.5</ele>
        <time>2022-10-05T12:01:10Z</time>
      </trkpt>
      <trkpt lat="49.73401" lon="2.35008">
        <ele>54.5</ele>
        <time>2022-10-05T12:01:11Z</time>
      </trkpt>
      <trkpt lat="49.73402" lon="2.3501">
        <ele>54.5</ele>
        <time>2022-10-05T12:01:13Z</time>
      </trkpt>
      <trkpt lat="49.73404" lon="2.35012">
        <ele>54.5</ele>
        <time>2022-10-05T12:01:14Z</time>
      </trkpt>
      <trkpt lat="49.73405" lon="2.35014">
        <ele>54.5</ele>
        <time>2022-10-05T12:01:15Z</time>
      </trkpt>
      <trkpt lat="49.73407" lon="2.35016">
        <ele>54.5</ele>
        <time>2022-10-05T12:01:17Z</time>
      </trkpt>
      <trkpt lat="49.73408" lon="2.35018">
        <ele>54.5</ele>
        <time>2022-10-05T12:01:18Z</time>
      </trkpt>
      <trkpt lat="49.73409" lon="2.3502">
        <ele>54.5</ele>
        <time>2022-10-05T12:01:19Z</time>
      </trkpt>
      <trkpt lat="49.7341" lon="2.35022">
        <ele>54.5</ele>
        <time>2022-10-05T12:01:21Z</time>
      </trkpt>
      <trkpt lat="49.73411" lon="2.35024">
        <ele>54.5</ele>
        <time>2022-10-05T12:01:22Z</time>
      </trkpt>
      <trkpt lat="49.73412" lon="2.35025">
        <ele>54.5</ele>
        <time>2022-10-05T12:01:23Z</time>
      </trkpt>
      <trkpt lat="49.73413" lon="2.35027">
        <ele>54.5</ele>
        <time>2022-10-05T12:01:24Z</time>
      </trkpt>
      <trkpt lat="49.73414" lon="2.35029">
        <ele>54.5</ele>
        <time>2022-10-05T12:01:25Z</time>
      </trkpt>
      <trkpt lat="49.73415" lon="2.35031">
        <ele>54.6</ele>
        <time>2022-10-05T12:01:26Z</time>
      </trkpt>
      <trkpt lat="49.73416" lon="2.35035">
        <ele>54.6</ele>
        <time>2022-10-05T12:01:27Z</time>
      </trkpt>
      <trkpt lat="49.73417" lon="2.35036">
        <ele>54.6</ele>
        <time>2022-10-05T12:01:28Z</time>
      </trkpt>
      <trkpt lat="49.73417" lon="2.35037">
        <ele>54.6</ele>
        <time>2022-10-05T12:01:29Z</time>
      </trkpt>
      <trkpt lat="49.73418" lon="2.35038">
        <ele>54.6</ele>
        <time>2022-10-05T12:01:30Z</time>
      </trkpt>
      <trkpt lat="49.73419" lon="2.3504">
        <ele>54.6</ele>
        <time>2022-10-05T12:01:31Z</time>
      </trkpt>
      <trkpt lat="49.7342" lon="2.35041">
        <ele>54.7</ele>
        <time>2022-10-05T12:01:33Z</time>
      </trkpt>
      <trkpt lat="49.7342" lon="2.35043">
        <ele>54.7</ele>
        <time>2022-10-05T12:01:34Z</time>
      </trkpt>
      <trkpt lat="49.73421" lon="2.35044">
        <ele>54.7</ele>
        <time>2022-10-05T12:01:35Z</time>
      </trkpt>
      <trkpt lat="49.73422" lon="2.35046">
        <ele>54.7</ele>
        <time>2022-10-05T12:01:36Z</time>
      </trkpt>
      <trkpt lat="49.73422" lon="2.35046">
        <ele>54.8</ele>
        <time>2022-10-05T12:01:38Z</time>
      </trkpt>
      <trkpt lat="49.73423" lon="2.35047">
        <ele>54.8</ele>
        <time>2022-10-05T12:01:39Z</time>
      </trkpt>
      <trkpt lat="49.73423" lon="2.35048">
        <ele>54.8</ele>
        <time>2022-10-05T12:01:40Z</time>
      </trkpt>
      <trkpt lat="49.73424" lon="2.3505">
        <ele>54.8</ele>
        <time>2022-10-05T12:01:42Z</time>
      </trkpt>
      <trkpt lat="49.73424" lon="2.35051">
        <ele>54.8</ele>
        <time>2022-10-05T12:01:43Z</time>
      </trkpt>
      <trkpt lat="49.73424" lon="2.35052">
        <ele>54.8</ele>
        <time>2022-10-05T12:01:44Z</time>
      </trkpt>
      <trkpt lat="49.73424" lon="2.35053">
        <ele>54.8</ele>
        <time>2022-10-05T12:01:45Z</time>
      </trkpt>
      <trkpt lat="49.73424" lon="2.35054">
        <ele>54.9</ele>
        <time>2022-10-05T12:01:46Z</time>
      </trkpt>
      <trkpt lat="49.73423" lon="2.35054">
        <ele>54.9</ele>
        <time>2022-10-05T12:01:47Z</time>
      </trkpt>
      <trkpt lat="49.73423" lon="2.35055">
        <ele>54.9</ele>
        <time>2022-10-05T12:01:48Z</time>
      </trkpt>
      <trkpt lat="49.73423" lon="2.35056">
        <ele>54.9</ele>
        <time>2022-10-05T12:01:49Z</time>
      </trkpt>
      <trkpt lat="49.73422" lon="2.35056">
        <ele>54.9</ele>
        <time>2022-10-05T12:01:50Z</time>
      </trkpt>
      <trkpt lat="49.73422" lon="2.35056">
        <ele>54.9</ele>
        <time>2022-10-05T12:01:51Z</time>
      </trkpt>
      <trkpt lat="49.73421" lon="2.35056">
        <ele>54.9</ele>
        <time>2022-10-05T12:01:52Z</time>
      </trkpt>
      <trkpt lat="49.73421" lon="2.35056">
        <ele>55</ele>
        <time>2022-10-05T12:01:53Z</time>
      </trkpt>
      <trkpt lat="49.73421" lon="2.35056">
        <ele>55</ele>
        <time>2022-10-05T12:01:54Z</time>
      </trkpt>
      <trkpt lat="49.73421" lon="2.35056">
        <ele>55</ele>
        <time>2022-10-05T12:01:55Z</time>
      </trkpt>
      <trkpt lat="49.73421" lon="2.35055">
        <ele>55</ele>
        <time>2022-10-05T12:01:56Z</time>
      </trkpt>
      <trkpt lat="49.73421" lon="2.35055">
        <ele>55</ele>
        <time>2022-10-05T12:01:58Z</time>
      </trkpt>
      <trkpt lat="49.73421" lon="2.35055">
        <ele>55</ele>
        <time>2022-10-05T12:01:59Z</time>
      </trkpt>
      <trkpt lat="49.73421" lon="2.35055">
        <ele>55</ele>
        <time>2022-10-05T12:02:00Z</time>
      </trkpt>
      <trkpt lat="49.73421" lon="2.35055">
        <ele>55</ele>
        <time>2022-10-05T12:02:01Z</time>
      </trkpt>
      <trkpt lat="49.73421" lon="2.35055">
        <ele>55</ele>
        <time>2022-10-05T12:02:02Z</time>
      </trkpt>
      <trkpt lat="49.73421" lon="2.35053">
        <ele>55</ele>
        <time>2022-10-05T12:02:03Z</time>
      </trkpt>
      <trkpt lat="49.73421" lon="2.35052">
        <ele>55</ele>
        <time>2022-10-05T12:02:04Z</time>
      </trkpt>
      <trkpt lat="49.73422" lon="2.35051">
        <ele>55</ele>
        <time>2022-10-05T12:02:05Z</time>
      </trkpt>
      <trkpt lat="49.73423" lon="2.35047">
        <ele>55.1</ele>
        <time>2022-10-05T12:02:06Z</time>
      </trkpt>
      <trkpt lat="49.73425" lon="2.35043">
        <ele>55.2</ele>
        <time>2022-10-05T12:02:07Z</time>
      </trkpt>
      <trkpt lat="49.73425" lon="2.35041">
        <ele>55.3</ele>
        <time>2022-10-05T12:02:08Z</time>
      </trkpt>
      <trkpt lat="49.73424" lon="2.35043">
        <ele>55.3</ele>
        <time>2022-10-05T12:02:09Z</time>
      </trkpt>
      <trkpt lat="49.73424" lon="2.35044">
        <ele>55.3</ele>
        <time>2022-10-05T12:02:10Z</time>
      </trkpt>
      <trkpt lat="49.73424" lon="2.35043">
        <ele>55.4</ele>
        <time>2022-10-05T12:02:11Z</time>
      </trkpt>
      <trkpt lat="49.73425" lon="2.35041">
        <ele>55.4</ele>
        <time>2022-10-05T12:02:12Z</time>
      </trkpt>
      <trkpt lat="49.73425" lon="2.35041">
        <ele>55.4</ele>
        <time>2022-10-05T12:02:13Z</time>
      </trkpt>
      <trkpt lat="49.73425" lon="2.3504">
        <ele>55.4</ele>
        <time>2022-10-05T12:02:14Z</time>
      </trkpt>
      <trkpt lat="49.73426" lon="2.35039">
        <ele>55.5</ele>
        <time>2022-10-05T12:02:15Z</time>
      </trkpt>
      <trkpt lat="49.73426" lon="2.35039">
        <ele>55.5</ele>
        <time>2022-10-05T12:02:16Z</time>
      </trkpt>
      <trkpt lat="49.73427" lon="2.35038">
        <ele>55.5</ele>
        <time>2022-10-05T12:02:17Z</time>
      </trkpt>
      <trkpt lat="49.73427" lon="2.35038">
        <ele>55.5</ele>
        <time>2022-10-05T12:02:18Z</time>
      </trkpt>
      <trkpt lat="49.73428" lon="2.35038">
        <ele>55.5</ele>
        <time>2022-10-05T12:02:19Z</time>
      </trkpt>
      <trkpt lat="49.73428" lon="2.35037">
        <ele>55.5</ele>
        <time>2022-10-05T12:02:20Z</time>
      </trkpt>
      <trkpt lat="49.73428" lon="2.35037">
        <ele>55.6</ele>
        <time>2022-10-05T12:02:21Z</time>
      </trkpt>
      <trkpt lat="49.73428" lon="2.35036">
        <ele>55.6</ele>
        <time>2022-10-05T12:02:22Z</time>
      </trkpt>
      <trkpt lat="49.73428" lon="2.35036">
        <ele>55.6</ele>
        <time>2022-10-05T12:02:23Z</time>
      </trkpt>
      <trkpt lat="49.73429" lon="2.35036">
        <ele>55.6</ele>
        <time>2022-10-05T12:02:24Z</time>
      </trkpt>
      <trkpt lat="49.73429" lon="2.35036">
        <ele>55.6</ele>
        <time>2022-10-05T12:02:25Z</time>
      </trkpt>
      <trkpt lat="49.73429" lon="2.35035">
        <ele>55.6</ele>
        <time>2022-10-05T12:02:26Z</time>
      </trkpt>
      <trkpt lat="49.73429" lon="2.35035">
        <ele>55.6</ele>
        <time>2022-10-05T12:02:27Z</time>
      </trkpt>
      <trkpt lat="49.73429" lon="2.35035">
        <ele>55.6</ele>
        <time>2022-10-05T12:02:28Z</time>
      </trkpt>
      <trkpt lat="49.73429" lon="2.35035">
        <ele>55.6</ele>
        <time>2022-10-05T12:02:29Z</time>
      </trkpt>
      <trkpt lat="49.73429" lon="2.35034">
        <ele>55.6</ele>
        <time>2022-10-05T12:02:30Z</time>
      </trkpt>
      <trkpt lat="49.73429" lon="2.35034">
        <ele>55.6</ele>
        <time>2022-10-05T12:02:31Z</time>
      </trkpt>
      <trkpt lat="49.7343" lon="2.35033">
        <ele>55.6</ele>
        <time>2022-10-05T12:02:33Z</time>
      </trkpt>
      <trkpt lat="49.7343" lon="2.35032">
        <ele>55.7</ele>
        <time>2022-10-05T12:02:34Z</time>
      </trkpt>
      <trkpt lat="49.7343" lon="2.35032">
        <ele>55.7</ele>
        <time>2022-10-05T12:02:35Z</time>
      </trkpt>
      <trkpt lat="49.73431" lon="2.35031">
        <ele>55.7</ele>
        <time>2022-10-05T12:02:36Z</time>
      </trkpt>
      <trkpt lat="49.73431" lon="2.35031">
        <ele>55.7</ele>
        <time>2022-10-05T12:02:37Z</time>
      </trkpt>
      <trkpt lat="49.73431" lon="2.35029">
        <ele>55.7</ele>
        <time>2022-10-05T12:02:38Z</time>
      </trkpt>
      <trkpt lat="49.7343" lon="2.35029">
        <ele>55.9</ele>
        <time>2022-10-05T12:02:39Z</time>
      </trkpt>
      <trkpt lat="49.7343" lon="2.35028">
        <ele>55.9</ele>
        <time>2022-10-05T12:02:40Z</time>
      </trkpt>
      <trkpt lat="49.7343" lon="2.35026">
        <ele>55.9</ele>
        <time>2022-10-05T12:02:41Z</time>
      </trkpt>
      <trkpt lat="49.7343" lon="2.35025">
        <ele>55.9</ele>
        <time>2022-10-05T12:02:42Z</time>
      </trkpt>
      <trkpt lat="49.7343" lon="2.35024">
        <ele>55.9</ele>
        <time>2022-10-05T12:02:43Z</time>
      </trkpt>
      <trkpt lat="49.7343" lon="2.35024">
        <ele>55.9</ele>
        <time>2022-10-05T12:02:44Z</time>
      </trkpt>
      <trkpt lat="49.7343" lon="2.35024">
        <ele>55.9</ele>
        <time>2022-10-05T12:02:45Z</time>
      </trkpt>
      <trkpt lat="49.7343" lon="2.35024">
        <ele>55.9</ele>
        <time>2022-10-05T12:02:46Z</time>
      </trkpt>
      <trkpt lat="49.7343" lon="2.35024">
        <ele>55.9</ele>
        <time>2022-10-05T12:02:47Z</time>
      </trkpt>
      <trkpt lat="49.7343" lon="2.35024">
        <ele>55.9</ele>
        <time>2022-10-05T12:02:48Z</time>
      </trkpt>
      <trkpt lat="49.7343" lon="2.35024">
        <ele>55.9</ele>
        <time>2022-10-05T12:02:49Z</time>
      </trkpt>
      <trkpt lat="49.7343" lon="2.35024">
        <ele>55.9</ele>
        <time>2022-10-05T12:02:50Z</time>
      </trkpt>
      <trkpt lat="49.7343" lon="2.35024">
        <ele>55.9</ele>
        <time>2022-10-05T12:02:51Z</time>
      </trkpt>
      <trkpt lat="49.73429" lon="2.35023">
        <ele>55.9</ele>
        <time>2022-10-05T12:02:52Z</time>
      </trkpt>
      <trkpt lat="49.73428" lon="2.35022">
        <ele>55.9</ele>
        <time>2022-10-05T12:02:53Z</time>
      </trkpt>
      <trkpt lat="49.73428" lon="2.35021">
        <ele>55.9</ele>
        <time>2022-10-05T12:02:54Z</time>
      </trkpt>
      <trkpt lat="49.73428" lon="2.35021">
        <ele>55.9</ele>
        <time>2022-10-05T12:02:55Z</time>
      </trkpt>
      <trkpt lat="49.73429" lon="2.35022">
        <ele>55.9</ele>
        <time>2022-10-05T12:02:56Z</time>
      </trkpt>
      <trkpt lat="49.73429" lon="2.35022">
        <ele>55.9</ele>
        <time>2022-10-05T12:02:57Z</time>
      </trkpt>
      <trkpt lat="49.7343" lon="2.35023">
        <ele>55.9</ele>
        <time>2022-10-05T12:02:58Z</time>
      </trkpt>
      <trkpt lat="49.73431" lon="2.35024">
        <ele>55.9</ele>
        <time>2022-10-05T12:02:59Z</time>
      </trkpt>
      <trkpt lat="49.73431" lon="2.35024">
        <ele>55.9</ele>
        <time>2022-10-05T12:03:00Z</time>
      </trkpt>
      <trkpt lat="49.73431" lon="2.35024">
        <ele>55.9</ele>
        <time>2022-10-05T12:03:01Z</time>
      </trkpt>
      <trkpt lat="49.73431" lon="2.35024">
        <ele>55.9</ele>
        <time>2022-10-05T12:03:02Z</time>
      </trkpt>
      <trkpt lat="49.73431" lon="2.35025">
        <ele>55.9</ele>
        <time>2022-10-05T12:03:03Z</time>
      </trkpt>
      <trkpt lat="49.73431" lon="2.35025">
        <ele>55.9</ele>
        <time>2022-10-05T12:03:04Z</time>
      </trkpt>
      <trkpt lat="49.73431" lon="2.35025">
        <ele>55.9</ele>
        <time>2022-10-05T12:03:05Z</time>
      </trkpt>
      <trkpt lat="49.73431" lon="2.35025">
        <ele>55.9</ele>
        <time>2022-10-05T12:03:06Z</time>
      </trkpt>
      <trkpt lat="49.73431" lon="2.35025">
        <ele>55.9</ele>
        <time>2022-10-05T12:03:07Z</time>
      </trkpt>
      <trkpt lat="49.73431" lon="2.35025">
        <ele>55.9</ele>
        <time>2022-10-05T12:03:08Z</time>
      </trkpt>
      <trkpt lat="49.73431" lon="2.35025">
        <ele>55.9</ele>
        <time>2022-10-05T12:03:09Z</time>
      </trkpt>
      <trkpt lat="49.73431" lon="2.35025">
        <ele>55.9</ele>
        <time>2022-10-05T12:03:10Z</time>
      </trkpt>
      <trkpt lat="49.73431" lon="2.35025">
        <ele>55.9</ele>
        <time>2022-10-05T12:03:11Z</time>
      </trkpt>
      <trkpt lat="49.73431" lon="2.35025">
        <ele>55.9</ele>
        <time>2022-10-05T12:03:12Z</time>
      </trkpt>
      <trkpt lat="49.73431" lon="2.35025">
        <ele>55.9</ele>
        <time>2022-10-05T12:03:13Z</time>
      </trkpt>
      <trkpt lat="49.73431" lon="2.35025">
        <ele>55.9</ele>
        <time>2022-10-05T12:03:14Z</time>
      </trkpt>
      <trkpt lat="49.73431" lon="2.35025">
        <ele>55.9</ele>
        <time>2022-10-05T12:03:15Z</time>
      </trkpt>
      <trkpt lat="49.73431" lon="2.35025">
        <ele>55.9</ele>
        <time>2022-10-05T12:03:16Z</time>
      </trkpt>
      <trkpt lat="49.73431" lon="2.35025">
        <ele>55.9</ele>
        <time>2022-10-05T12:03:17Z</time>
      </trkpt>
      <trkpt lat="49.73431" lon="2.35025">
        <ele>55.9</ele>
        <time>2022-10-05T12:03:18Z</time>
      </trkpt>
      <trkpt lat="49.73431" lon="2.35025">
        <ele>55.9</ele>
        <time>2022-10-05T12:03:19Z</time>
      </trkpt>
      <trkpt lat="49.73431" lon="2.35025">
        <ele>55.9</ele>
        <time>2022-10-05T12:03:20Z</time>
      </trkpt>
      <trkpt lat="49.73431" lon="2.35025">
        <ele>55.9</ele>
        <time>2022-10-05T12:03:21Z</time>
      </trkpt>
      <trkpt lat="49.73431" lon="2.35025">
        <ele>55.9</ele>
        <time>2022-10-05T12:03:22Z</time>
      </trkpt>
      <trkpt lat="49.73429" lon="2.35025">
        <ele>55.9</ele>
        <time>2022-10-05T12:03:23Z</time>
      </trkpt>
      <trkpt lat="49.73431" lon="2.35024">
        <ele>55.9</ele>
        <time>2022-10-05T12:03:24Z</time>
      </trkpt>
      <trkpt lat="49.7343" lon="2.35024">
        <ele>55.9</ele>
        <time>2022-10-05T12:03:25Z</time>
      </trkpt>
      <trkpt lat="49.73429" lon="2.35024">
        <ele>55.9</ele>
        <time>2022-10-05T12:03:26Z</time>
      </trkpt>
      <trkpt lat="49.73429" lon="2.35024">
        <ele>55.9</ele>
        <time>2022-10-05T12:03:27Z</time>
      </trkpt>
      <trkpt lat="49.73429" lon="2.35024">
        <ele>55.9</ele>
        <time>2022-10-05T12:03:28Z</time>
      </trkpt>
      <trkpt lat="49.73428" lon="2.35024">
        <ele>55.9</ele>
        <time>2022-10-05T12:03:29Z</time>
      </trkpt>
      <trkpt lat="49.73428" lon="2.35025">
        <ele>55.9</ele>
        <time>2022-10-05T12:03:30Z</time>
      </trkpt>
      <trkpt lat="49.73428" lon="2.35025">
        <ele>55.9</ele>
        <time>2022-10-05T12:03:31Z</time>
      </trkpt>
      <trkpt lat="49.73428" lon="2.35025">
        <ele>55.9</ele>
        <time>2022-10-05T12:03:32Z</time>
      </trkpt>
      <trkpt lat="49.73426" lon="2.35025">
        <ele>55.9</ele>
        <time>2022-10-05T12:03:33Z</time>
      </trkpt>
      <trkpt lat="49.73426" lon="2.35025">
        <ele>55.9</ele>
        <time>2022-10-05T12:03:34Z</time>
      </trkpt>
      <trkpt lat="49.73426" lon="2.35025">
        <ele>55.9</ele>
        <time>2022-10-05T12:03:35Z</time>
      </trkpt>
      <trkpt lat="49.73426" lon="2.35025">
        <ele>55.9</ele>
        <time>2022-10-05T12:03:36Z</time>
      </trkpt>
      <trkpt lat="49.73426" lon="2.35025">
        <ele>55.9</ele>
        <time>2022-10-05T12:03:37Z</time>
      </trkpt>
      <trkpt lat="49.73426" lon="2.35025">
        <ele>55.9</ele>
        <time>2022-10-05T12:03:38Z</time>
      </trkpt>
      <trkpt lat="49.73426" lon="2.35025">
        <ele>55.9</ele>
        <time>2022-10-05T12:03:39Z</time>
      </trkpt>
      <trkpt lat="49.73426" lon="2.35025">
        <ele>55.9</ele>
        <time>2022-10-05T12:03:40Z</time>
      </trkpt>
      <trkpt lat="49.73426" lon="2.35025">
        <ele>55.9</ele>
        <time>2022-10-05T12:03:41Z</time>
      </trkpt>
      <trkpt lat="49.73426" lon="2.35025">
        <ele>55.9</ele>
        <time>2022-10-05T12:03:42Z</time>
      </trkpt>
      <trkpt lat="49.73425" lon="2.35024">
        <ele>55.9</ele>
        <time>2022-10-05T12:03:43Z</time>
      </trkpt>
      <trkpt lat="49.73424" lon="2.35022">
        <ele>55.9</ele>
        <time>2022-10-05T12:03:44Z</time>
      </trkpt>
      <trkpt lat="49.73424" lon="2.35022">
        <ele>55.9</ele>
        <time>2022-10-05T12:03:45Z</time>
      </trkpt>
      <trkpt lat="49.73424" lon="2.35021">
        <ele>55.9</ele>
        <time>2022-10-05T12:03:46Z</time>
      </trkpt>
      <trkpt lat="49.73424" lon="2.35021">
        <ele>55.9</ele>
        <time>2022-10-05T12:03:47Z</time>
      </trkpt>
      <trkpt lat="49.73424" lon="2.3502">
        <ele>55.9</ele>
        <time>2022-10-05T12:03:48Z</time>
      </trkpt>
      <trkpt lat="49.73423" lon="2.3502">
        <ele>55.9</ele>
        <time>2022-10-05T12:03:49Z</time>
      </trkpt>
      <trkpt lat="49.73423" lon="2.35019">
        <ele>55.9</ele>
        <time>2022-10-05T12:03:50Z</time>
      </trkpt>
      <trkpt lat="49.73423" lon="2.35019">
        <ele>55.9</ele>
        <time>2022-10-05T12:03:51Z</time>
      </trkpt>
      <trkpt lat="49.73423" lon="2.35017">
        <ele>55.9</ele>
        <time>2022-10-05T12:03:52Z</time>
      </trkpt>
      <trkpt lat="49.73421" lon="2.35015">
        <ele>55.9</ele>
        <time>2022-10-05T12:03:53Z</time>
      </trkpt>
      <trkpt lat="49.7342" lon="2.35013">
        <ele>55.9</ele>
        <time>2022-10-05T12:03:54Z</time>
      </trkpt>
      <trkpt lat="49.73419" lon="2.35013">
        <ele>56</ele>
        <time>2022-10-05T12:03:56Z</time>
      </trkpt>
      <trkpt lat="49.73418" lon="2.35013">
        <ele>56</ele>
        <time>2022-10-05T12:03:58Z</time>
      </trkpt>
      <trkpt lat="49.73416" lon="2.35012">
        <ele>56.1</ele>
        <time>2022-10-05T12:03:59Z</time>
      </trkpt>
      <trkpt lat="49.73416" lon="2.35012">
        <ele>56.1</ele>
        <time>2022-10-05T12:04:00Z</time>
      </trkpt>
      <trkpt lat="49.73416" lon="2.35011">
        <ele>56.1</ele>
        <time>2022-10-05T12:04:01Z</time>
      </trkpt>
      <trkpt lat="49.73416" lon="2.35011">
        <ele>56.1</ele>
        <time>2022-10-05T12:04:02Z</time>
      </trkpt>
      <trkpt lat="49.73416" lon="2.3501">
        <ele>56.1</ele>
        <time>2022-10-05T12:04:03Z</time>
      </trkpt>
      <trkpt lat="49.73416" lon="2.3501">
        <ele>56.1</ele>
        <time>2022-10-05T12:04:04Z</time>
      </trkpt>
      <trkpt lat="49.73416" lon="2.3501">
        <ele>56.1</ele>
        <time>2022-10-05T12:04:05Z</time>
      </trkpt>
      <trkpt lat="49.73416" lon="2.3501">
        <ele>56.1</ele>
        <time>2022-10-05T12:04:06Z</time>
      </trkpt>
      <trkpt lat="49.73416" lon="2.3501">
        <ele>56.1</ele>
        <time>2022-10-05T12:04:07Z</time>
      </trkpt>
      <trkpt lat="49.73416" lon="2.3501">
        <ele>56.1</ele>
        <time>2022-10-05T12:04:08Z</time>
      </trkpt>
      <trkpt lat="49.73416" lon="2.3501">
        <ele>56.1</ele>
        <time>2022-10-05T12:04:09Z</time>
      </trkpt>
      <trkpt lat="49.73416" lon="2.35011">
        <ele>56.1</ele>
        <time>2022-10-05T12:04:10Z</time>
      </trkpt>
      <trkpt lat="49.73416" lon="2.35011">
        <ele>56.1</ele>
        <time>2022-10-05T12:04:11Z</time>
      </trkpt>
      <trkpt lat="49.73416" lon="2.35011">
        <ele>56.2</ele>
        <time>2022-10-05T12:04:12Z</time>
      </trkpt>
      <trkpt lat="49.73417" lon="2.35011">
        <ele>56.2</ele>
        <time>2022-10-05T12:04:13Z</time>
      </trkpt>
      <trkpt lat="49.73417" lon="2.35012">
        <ele>56.2</ele>
        <time>2022-10-05T12:04:14Z</time>
      </trkpt>
      <trkpt lat="49.73417" lon="2.35012">
        <ele>56.2</ele>
        <time>2022-10-05T12:04:15Z</time>
      </trkpt>
      <trkpt lat="49.73417" lon="2.35012">
        <ele>56.2</ele>
        <time>2022-10-05T12:04:16Z</time>
      </trkpt>
      <trkpt lat="49.73417" lon="2.35012">
        <ele>56.2</ele>
        <time>2022-10-05T12:04:17Z</time>
      </trkpt>
      <trkpt lat="49.73417" lon="2.35012">
        <ele>56.2</ele>
        <time>2022-10-05T12:04:18Z</time>
      </trkpt>
      <trkpt lat="49.73417" lon="2.35012">
        <ele>56.2</ele>
        <time>2022-10-05T12:04:19Z</time>
      </trkpt>
      <trkpt lat="49.73417" lon="2.35012">
        <ele>56.2</ele>
        <time>2022-10-05T12:04:20Z</time>
      </trkpt>
      <trkpt lat="49.73417" lon="2.35012">
        <ele>56.2</ele>
        <time>2022-10-05T12:04:21Z</time>
      </trkpt>
      <trkpt lat="49.73417" lon="2.35012">
        <ele>56.2</ele>
        <time>2022-10-05T12:04:22Z</time>
      </trkpt>
      <trkpt lat="49.73417" lon="2.35012">
        <ele>56.2</ele>
        <time>2022-10-05T12:04:23Z</time>
      </trkpt>
      <trkpt lat="49.73417" lon="2.35012">
        <ele>56.2</ele>
        <time>2022-10-05T12:04:24Z</time>
      </trkpt>
      <trkpt lat="49.73417" lon="2.35012">
        <ele>56.2</ele>
        <time>2022-10-05T12:04:25Z</time>
      </trkpt>
      <trkpt lat="49.73417" lon="2.35012">
        <ele>56.2</ele>
        <time>2022-10-05T12:04:26Z</time>
      </trkpt>
      <trkpt lat="49.73417" lon="2.35012">
        <ele>56.2</ele>
        <time>2022-10-05T12:04:27Z</time>
      </trkpt>
      <trkpt lat="49.73417" lon="2.35011">
        <ele>56.2</ele>
        <time>2022-10-05T12:04:28Z</time>
      </trkpt>
      <trkpt lat="49.73418" lon="2.35011">
        <ele>56.2</ele>
        <time>2022-10-05T12:04:29Z</time>
      </trkpt>
      <trkpt lat="49.73419" lon="2.3501">
        <ele>56.2</ele>
        <time>2022-10-05T12:04:30Z</time>
      </trkpt>
      <trkpt lat="49.73417" lon="2.35011">
        <ele>56.3</ele>
        <time>2022-10-05T12:04:31Z</time>
      </trkpt>
      <trkpt lat="49.73416" lon="2.35011">
        <ele>56.3</ele>
        <time>2022-10-05T12:04:32Z</time>
      </trkpt>
      <trkpt lat="49.73416" lon="2.35011">
        <ele>56.3</ele>
        <time>2022-10-05T12:04:33Z</time>
      </trkpt>
      <trkpt lat="49.73416" lon="2.35012">
        <ele>56.3</ele>
        <time>2022-10-05T12:04:34Z</time>
      </trkpt>
      <trkpt lat="49.73417" lon="2.35012">
        <ele>56.3</ele>
        <time>2022-10-05T12:04:35Z</time>
      </trkpt>
      <trkpt lat="49.73417" lon="2.35012">
        <ele>56.4</ele>
        <time>2022-10-05T12:04:36Z</time>
      </trkpt>
      <trkpt lat="49.73417" lon="2.35012">
        <ele>56.4</ele>
        <time>2022-10-05T12:04:37Z</time>
      </trkpt>
      <trkpt lat="49.73417" lon="2.35012">
        <ele>56.4</ele>
        <time>2022-10-05T12:04:38Z</time>
      </trkpt>
      <trkpt lat="49.73417" lon="2.35012">
        <ele>56.4</ele>
        <time>2022-10-05T12:04:39Z</time>
      </trkpt>
      <trkpt lat="49.73417" lon="2.35012">
        <ele>56.4</ele>
        <time>2022-10-05T12:04:40Z</time>
      </trkpt>
      <trkpt lat="49.73418" lon="2.35013">
        <ele>56.4</ele>
        <time>2022-10-05T12:04:41Z</time>
      </trkpt>
      <trkpt lat="49.73418" lon="2.35013">
        <ele>56.4</ele>
        <time>2022-10-05T12:04:42Z</time>
      </trkpt>
      <trkpt lat="49.73419" lon="2.35013">
        <ele>56.4</ele>
        <time>2022-10-05T12:04:43Z</time>
      </trkpt>
      <trkpt lat="49.73419" lon="2.35014">
        <ele>56.4</ele>
        <time>2022-10-05T12:04:44Z</time>
      </trkpt>
      <trkpt lat="49.7342" lon="2.35014">
        <ele>56.5</ele>
        <time>2022-10-05T12:04:45Z</time>
      </trkpt>
      <trkpt lat="49.73421" lon="2.35014">
        <ele>56.5</ele>
        <time>2022-10-05T12:04:46Z</time>
      </trkpt>
      <trkpt lat="49.73421" lon="2.35014">
        <ele>56.5</ele>
        <time>2022-10-05T12:04:47Z</time>
      </trkpt>
      <trkpt lat="49.73422" lon="2.35014">
        <ele>56.5</ele>
        <time>2022-10-05T12:04:48Z</time>
      </trkpt>
      <trkpt lat="49.73422" lon="2.35014">
        <ele>56.5</ele>
        <time>2022-10-05T12:04:49Z</time>
      </trkpt>
      <trkpt lat="49.73423" lon="2.35014">
        <ele>56.6</ele>
        <time>2022-10-05T12:04:50Z</time>
      </trkpt>
      <trkpt lat="49.73423" lon="2.35014">
        <ele>56.6</ele>
        <time>2022-10-05T12:04:51Z</time>
      </trkpt>
      <trkpt lat="49.73423" lon="2.35014">
        <ele>56.6</ele>
        <time>2022-10-05T12:04:52Z</time>
      </trkpt>
      <trkpt lat="49.73423" lon="2.35014">
        <ele>56.6</ele>
        <time>2022-10-05T12:04:53Z</time>
      </trkpt>
      <trkpt lat="49.73423" lon="2.35014">
        <ele>56.6</ele>
        <time>2022-10-05T12:04:54Z</time>
      </trkpt>
      <trkpt lat="49.73423" lon="2.35014">
        <ele>56.6</ele>
        <time>2022-10-05T12:04:55Z</time>
      </trkpt>
      <trkpt lat="49.73423" lon="2.35014">
        <ele>56.6</ele>
        <time>2022-10-05T12:04:56Z</time>
      </trkpt>
      <trkpt lat="49.73423" lon="2.35014">
        <ele>56.6</ele>
        <time>2022-10-05T12:04:57Z</time>
      </trkpt>
      <trkpt lat="49.73423" lon="2.35014">
        <ele>56.6</ele>
        <time>2022-10-05T12:04:58Z</time>
      </trkpt>
      <trkpt lat="49.73423" lon="2.35014">
        <ele>56.6</ele>
        <time>2022-10-05T12:04:59Z</time>
      </trkpt>
      <trkpt lat="49.73423" lon="2.35014">
        <ele>56.6</ele>
        <time>2022-10-05T12:05:00Z</time>
      </trkpt>
      <trkpt lat="49.73423" lon="2.35014">
        <ele>56.6</ele>
        <time>2022-10-05T12:05:01Z</time>
      </trkpt>
      <trkpt lat="49.73423" lon="2.35014">
        <ele>56.6</ele>
        <time>2022-10-05T12:05:02Z</time>
      </trkpt>
      <trkpt lat="49.73423" lon="2.35014">
        <ele>56.6</ele>
        <time>2022-10-05T12:05:03Z</time>
      </trkpt>
      <trkpt lat="49.73423" lon="2.35014">
        <ele>56.6</ele>
        <time>2022-10-05T12:05:04Z</time>
      </trkpt>
      <trkpt lat="49.73423" lon="2.35014">
        <ele>56.6</ele>
        <time>2022-10-05T12:05:05Z</time>
      </trkpt>
      <trkpt lat="49.73423" lon="2.35014">
        <ele>56.6</ele>
        <time>2022-10-05T12:05:06Z</time>
      </trkpt>
      <trkpt lat="49.73423" lon="2.35014">
        <ele>56.6</ele>
        <time>2022-10-05T12:05:07Z</time>
      </trkpt>
      <trkpt lat="49.73423" lon="2.35014">
        <ele>56.6</ele>
        <time>2022-10-05T12:05:08Z</time>
      </trkpt>
      <trkpt lat="49.73423" lon="2.35014">
        <ele>56.6</ele>
        <time>2022-10-05T12:05:09Z</time>
      </trkpt>
      <trkpt lat="49.73423" lon="2.35014">
        <ele>56.6</ele>
        <time>2022-10-05T12:05:10Z</time>
      </trkpt>
      <trkpt lat="49.73423" lon="2.35014">
        <ele>56.6</ele>
        <time>2022-10-05T12:05:11Z</time>
      </trkpt>
      <trkpt lat="49.73423" lon="2.35014">
        <ele>56.6</ele>
        <time>2022-10-05T12:05:12Z</time>
      </trkpt>
      <trkpt lat="49.73423" lon="2.35014">
        <ele>56.6</ele>
        <time>2022-10-05T12:05:13Z</time>
      </trkpt>
      <trkpt lat="49.73423" lon="2.35015">
        <ele>56.6</ele>
        <time>2022-10-05T12:05:14Z</time>
      </trkpt>
      <trkpt lat="49.73423" lon="2.35015">
        <ele>56.6</ele>
        <time>2022-10-05T12:05:15Z</time>
      </trkpt>
      <trkpt lat="49.73423" lon="2.35015">
        <ele>56.6</ele>
        <time>2022-10-05T12:05:16Z</time>
      </trkpt>
      <trkpt lat="49.73423" lon="2.35015">
        <ele>56.6</ele>
        <time>2022-10-05T12:05:17Z</time>
      </trkpt>
      <trkpt lat="49.73423" lon="2.35015">
        <ele>56.6</ele>
        <time>2022-10-05T12:05:18Z</time>
      </trkpt>
      <trkpt lat="49.73423" lon="2.35015">
        <ele>56.6</ele>
        <time>2022-10-05T12:05:19Z</time>
      </trkpt>
      <trkpt lat="49.73423" lon="2.35015">
        <ele>56.6</ele>
        <time>2022-10-05T12:05:20Z</time>
      </trkpt>
      <trkpt lat="49.73423" lon="2.35015">
        <ele>56.6</ele>
        <time>2022-10-05T12:05:21Z</time>
      </trkpt>
      <trkpt lat="49.73423" lon="2.35015">
        <ele>56.6</ele>
        <time>2022-10-05T12:05:22Z</time>
      </trkpt>
      <trkpt lat="49.73423" lon="2.35015">
        <ele>56.6</ele>
        <time>2022-10-05T12:05:23Z</time>
      </trkpt>
      <trkpt lat="49.73423" lon="2.35015">
        <ele>56.6</ele>
        <time>2022-10-05T12:05:24Z</time>
      </trkpt>
      <trkpt lat="49.73423" lon="2.35015">
        <ele>56.6</ele>
        <time>2022-10-05T12:05:25Z</time>
      </trkpt>
      <trkpt lat="49.73423" lon="2.35015">
        <ele>56.6</ele>
        <time>2022-10-05T12:05:26Z</time>
      </trkpt>
      <trkpt lat="49.73423" lon="2.35015">
        <ele>56.6</ele>
        <time>2022-10-05T12:05:27Z</time>
      </trkpt>
      <trkpt lat="49.73423" lon="2.35015">
        <ele>56.6</ele>
        <time>2022-10-05T12:05:28Z</time>
      </trkpt>
      <trkpt lat="49.73423" lon="2.35015">
        <ele>56.6</ele>
        <time>2022-10-05T12:05:29Z</time>
      </trkpt>
      <trkpt lat="49.73423" lon="2.35015">
        <ele>56.6</ele>
        <time>2022-10-05T12:05:30Z</time>
      </trkpt>
      <trkpt lat="49.73423" lon="2.35015">
        <ele>56.6</ele>
        <time>2022-10-05T12:05:31Z</time>
      </trkpt>
      <trkpt lat="49.73423" lon="2.35015">
        <ele>56.6</ele>
        <time>2022-10-05T12:05:32Z</time>
      </trkpt>
      <trkpt lat="49.73423" lon="2.35015">
        <ele>56.6</ele>
        <time>2022-10-05T12:05:33Z</time>
      </trkpt>
      <trkpt lat="49.73423" lon="2.35015">
        <ele>56.6</ele>
        <time>2022-10-05T12:05:34Z</time>
      </trkpt>
      <trkpt lat="49.73423" lon="2.35015">
        <ele>56.6</ele>
        <time>2022-10-05T12:05:35Z</time>
      </trkpt>
      <trkpt lat="49.73423" lon="2.35015">
        <ele>56.6</ele>
        <time>2022-10-05T12:05:36Z</time>
      </trkpt>
      <trkpt lat="49.73423" lon="2.35015">
        <ele>56.6</ele>
        <time>2022-10-05T12:05:37Z</time>
      </trkpt>
      <trkpt lat="49.73423" lon="2.35015">
        <ele>56.6</ele>
        <time>2022-10-05T12:05:38Z</time>
      </trkpt>
      <trkpt lat="49.73423" lon="2.35015">
        <ele>56.6</ele>
        <time>2022-10-05T12:05:39Z</time>
      </trkpt>
      <trkpt lat="49.73423" lon="2.35015">
        <ele>56.6</ele>
        <time>2022-10-05T12:05:40Z</time>
      </trkpt>
      <trkpt lat="49.73423" lon="2.35015">
        <ele>56.6</ele>
        <time>2022-10-05T12:05:41Z</time>
      </trkpt>
      <trkpt lat="49.73423" lon="2.35015">
        <ele>56.6</ele>
        <time>2022-10-05T12:05:42Z</time>
      </trkpt>
      <trkpt lat="49.73423" lon="2.35015">
        <ele>56.6</ele>
        <time>2022-10-05T12:05:43Z</time>
      </trkpt>
      <trkpt lat="49.73423" lon="2.35015">
        <ele>56.6</ele>
        <time>2022-10-05T12:05:44Z</time>
      </trkpt>
      <trkpt lat="49.73423" lon="2.35015">
        <ele>56.6</ele>
        <time>2022-10-05T12:05:45Z</time>
      </trkpt>
      <trkpt lat="49.73423" lon="2.35015">
        <ele>56.6</ele>
        <time>2022-10-05T12:05:46Z</time>
      </trkpt>
      <trkpt lat="49.73423" lon="2.35015">
        <ele>56.6</ele>
        <time>2022-10-05T12:05:47Z</time>
      </trkpt>
      <trkpt lat="49.73423" lon="2.35015">
        <ele>56.6</ele>
        <time>2022-10-05T12:05:48Z</time>
      </trkpt>
      <trkpt lat="49.73423" lon="2.35015">
        <ele>56.6</ele>
        <time>2022-10-05T12:05:49Z</time>
      </trkpt>
      <trkpt lat="49.73423" lon="2.35015">
        <ele>56.6</ele>
        <time>2022-10-05T12:05:50Z</time>
      </trkpt>
      <trkpt lat="49.73423" lon="2.35015">
        <ele>56.6</ele>
        <time>2022-10-05T12:05:51Z</time>
      </trkpt>
      <trkpt lat="49.73423" lon="2.35015">
        <ele>56.6</ele>
        <time>2022-10-05T12:05:52Z</time>
      </trkpt>
      <trkpt lat="49.73423" lon="2.35015">
        <ele>56.6</ele>
        <time>2022-10-05T12:05:53Z</time>
      </trkpt>
      <trkpt lat="49.73423" lon="2.35015">
        <ele>56.6</ele>
        <time>2022-10-05T12:05:54Z</time>
      </trkpt>
      <trkpt lat="49.73423" lon="2.35015">
        <ele>56.6</ele>
        <time>2022-10-05T12:05:55Z</time>
      </trkpt>
      <trkpt lat="49.73423" lon="2.35016">
        <ele>56.6</ele>
        <time>2022-10-05T12:05:56Z</time>
      </trkpt>
      <trkpt lat="49.73423" lon="2.35016">
        <ele>56.6</ele>
        <time>2022-10-05T12:05:57Z</time>
      </trkpt>
      <trkpt lat="49.73423" lon="2.35016">
        <ele>56.6</ele>
        <time>2022-10-05T12:05:58Z</time>
      </trkpt>
      <trkpt lat="49.73423" lon="2.35016">
        <ele>56.6</ele>
        <time>2022-10-05T12:05:59Z</time>
      </trkpt>
      <trkpt lat="49.73423" lon="2.35016">
        <ele>56.6</ele>
        <time>2022-10-05T12:06:00Z</time>
      </trkpt>
      <trkpt lat="49.73423" lon="2.35016">
        <ele>56.6</ele>
        <time>2022-10-05T12:06:01Z</time>
      </trkpt>
      <trkpt lat="49.73423" lon="2.35016">
        <ele>56.6</ele>
        <time>2022-10-05T12:06:02Z</time>
      </trkpt>
      <trkpt lat="49.73423" lon="2.35016">
        <ele>56.6</ele>
        <time>2022-10-05T12:06:03Z</time>
      </trkpt>
      <trkpt lat="49.73423" lon="2.35016">
        <ele>56.6</ele>
        <time>2022-10-05T12:06:04Z</time>
      </trkpt>
      <trkpt lat="49.73423" lon="2.35016">
        <ele>56.6</ele>
        <time>2022-10-05T12:06:05Z</time>
      </trkpt>
      <trkpt lat="49.73423" lon="2.35016">
        <ele>56.6</ele>
        <time>2022-10-05T12:06:06Z</time>
      </trkpt>
      <trkpt lat="49.73423" lon="2.35016">
        <ele>56.6</ele>
        <time>2022-10-05T12:06:07Z</time>
      </trkpt>
      <trkpt lat="49.73423" lon="2.35016">
        <ele>56.6</ele>
        <time>2022-10-05T12:06:08Z</time>
      </trkpt>
      <trkpt lat="49.73423" lon="2.35016">
        <ele>56.6</ele>
        <time>2022-10-05T12:06:09Z</time>
      </trkpt>
      <trkpt lat="49.73423" lon="2.35016">
        <ele>56.6</ele>
        <time>2022-10-05T12:06:10Z</time>
      </trkpt>
      <trkpt lat="49.73423" lon="2.35016">
        <ele>56.6</ele>
        <time>2022-10-05T12:06:11Z</time>
      </trkpt>
      <trkpt lat="49.73423" lon="2.35016">
        <ele>56.6</ele>
        <time>2022-10-05T12:06:12Z</time>
      </trkpt>
      <trkpt lat="49.73423" lon="2.35016">
        <ele>56.6</ele>
        <time>2022-10-05T12:06:13Z</time>
      </trkpt>
      <trkpt lat="49.73423" lon="2.35016">
        <ele>56.6</ele>
        <time>2022-10-05T12:06:14Z</time>
      </trkpt>
      <trkpt lat="49.73423" lon="2.35016">
        <ele>56.6</ele>
        <time>2022-10-05T12:06:15Z</time>
      </trkpt>
      <trkpt lat="49.73423" lon="2.35016">
        <ele>56.6</ele>
        <time>2022-10-05T12:06:16Z</time>
      </trkpt>
      <trkpt lat="49.73423" lon="2.35016">
        <ele>56.6</ele>
        <time>2022-10-05T12:06:17Z</time>
      </trkpt>
      <trkpt lat="49.73423" lon="2.35016">
        <ele>56.6</ele>
        <time>2022-10-05T12:06:18Z</time>
      </trkpt>
      <trkpt lat="49.73423" lon="2.35016">
        <ele>56.6</ele>
        <time>2022-10-05T12:06:19Z</time>
      </trkpt>
      <trkpt lat="49.73423" lon="2.35016">
        <ele>56.6</ele>
        <time>2022-10-05T12:06:20Z</time>
      </trkpt>
      <trkpt lat="49.73423" lon="2.35016">
        <ele>56.6</ele>
        <time>2022-10-05T12:06:21Z</time>
      </trkpt>
      <trkpt lat="49.73423" lon="2.35016">
        <ele>56.6</ele>
        <time>2022-10-05T12:06:22Z</time>
      </trkpt>
      <trkpt lat="49.73423" lon="2.35016">
        <ele>56.6</ele>
        <time>2022-10-05T12:06:23Z</time>
      </trkpt>
      <trkpt lat="49.73423" lon="2.35016">
        <ele>56.6</ele>
        <time>2022-10-05T12:06:24Z</time>
      </trkpt>
      <trkpt lat="49.73423" lon="2.35016">
        <ele>56.6</ele>
        <time>2022-10-05T12:06:25Z</time>
      </trkpt>
      <trkpt lat="49.73423" lon="2.35016">
        <ele>56.6</ele>
        <time>2022-10-05T12:06:26Z</time>
      </trkpt>
      <trkpt lat="49.73423" lon="2.35016">
        <ele>56.6</ele>
        <time>2022-10-05T12:06:27Z</time>
      </trkpt>
      <trkpt lat="49.73423" lon="2.35016">
        <ele>56.6</ele>
        <time>2022-10-05T12:06:28Z</time>
      </trkpt>
      <trkpt lat="49.73423" lon="2.35016">
        <ele>56.6</ele>
        <time>2022-10-05T12:06:29Z</time>
      </trkpt>
      <trkpt lat="49.73423" lon="2.35016">
        <ele>56.6</ele>
        <time>2022-10-05T12:06:30Z</time>
      </trkpt>
      <trkpt lat="49.73423" lon="2.35016">
        <ele>56.6</ele>
        <time>2022-10-05T12:06:31Z</time>
      </trkpt>
      <trkpt lat="49.73423" lon="2.35016">
        <ele>56.6</ele>
        <time>2022-10-05T12:06:32Z</time>
      </trkpt>
      <trkpt lat="49.73423" lon="2.35016">
        <ele>56.6</ele>
        <time>2022-10-05T12:06:33Z</time>
      </trkpt>
      <trkpt lat="49.73423" lon="2.35016">
        <ele>56.6</ele>
        <time>2022-10-05T12:06:34Z</time>
      </trkpt>
      <trkpt lat="49.73423" lon="2.35016">
        <ele>56.6</ele>
        <time>2022-10-05T12:06:35Z</time>
      </trkpt>
      <trkpt lat="49.73423" lon="2.35016">
        <ele>56.6</ele>
        <time>2022-10-05T12:06:36Z</time>
      </trkpt>
      <trkpt lat="49.73423" lon="2.35017">
        <ele>56.6</ele>
        <time>2022-10-05T12:06:37Z</time>
      </trkpt>
      <trkpt lat="49.73423" lon="2.35017">
        <ele>56.6</ele>
        <time>2022-10-05T12:06:38Z</time>
      </trkpt>
      <trkpt lat="49.73423" lon="2.35017">
        <ele>56.6</ele>
        <time>2022-10-05T12:06:39Z</time>
      </trkpt>
      <trkpt lat="49.73423" lon="2.35017">
        <ele>56.6</ele>
        <time>2022-10-05T12:06:40Z</time>
      </trkpt>
      <trkpt lat="49.73423" lon="2.35017">
        <ele>56.6</ele>
        <time>2022-10-05T12:06:41Z</time>
      </trkpt>
      <trkpt lat="49.73423" lon="2.35017">
        <ele>56.6</ele>
        <time>2022-10-05T12:06:42Z</time>
      </trkpt>
      <trkpt lat="49.73423" lon="2.35017">
        <ele>56.6</ele>
        <time>2022-10-05T12:06:43Z</time>
      </trkpt>
      <trkpt lat="49.73423" lon="2.35017">
        <ele>56.6</ele>
        <time>2022-10-05T12:06:44Z</time>
      </trkpt>
      <trkpt lat="49.73423" lon="2.35017">
        <ele>56.6</ele>
        <time>2022-10-05T12:06:45Z</time>
      </trkpt>
      <trkpt lat="49.73423" lon="2.35017">
        <ele>56.6</ele>
        <time>2022-10-05T12:06:46Z</time>
      </trkpt>
      <trkpt lat="49.73423" lon="2.35017">
        <ele>56.6</ele>
        <time>2022-10-05T12:06:47Z</time>
      </trkpt>
      <trkpt lat="49.73423" lon="2.35017">
        <ele>56.6</ele>
        <time>2022-10-05T12:06:48Z</time>
      </trkpt>
      <trkpt lat="49.73423" lon="2.35017">
        <ele>56.6</ele>
        <time>2022-10-05T12:06:49Z</time>
      </trkpt>
      <trkpt lat="49.73423" lon="2.35017">
        <ele>56.6</ele>
        <time>2022-10-05T12:06:50Z</time>
      </trkpt>
      <trkpt lat="49.73423" lon="2.35017">
        <ele>56.6</ele>
        <time>2022-10-05T12:06:51Z</time>
      </trkpt>
      <trkpt lat="49.73423" lon="2.35017">
        <ele>56.6</ele>
        <time>2022-10-05T12:06:52Z</time>
      </trkpt>
      <trkpt lat="49.73423" lon="2.35017">
        <ele>56.6</ele>
        <time>2022-10-05T12:06:53Z</time>
      </trkpt>
      <trkpt lat="49.73423" lon="2.35017">
        <ele>56.6</ele>
        <time>2022-10-05T12:06:54Z</time>
      </trkpt>
      <trkpt lat="49.73423" lon="2.35017">
        <ele>56.6</ele>
        <time>2022-10-05T12:06:55Z</time>
      </trkpt>
      <trkpt lat="49.73423" lon="2.35017">
        <ele>56.6</ele>
        <time>2022-10-05T12:06:56Z</time>
      </trkpt>
      <trkpt lat="49.73423" lon="2.35017">
        <ele>56.6</ele>
        <time>2022-10-05T12:06:57Z</time>
      </trkpt>
      <trkpt lat="49.73423" lon="2.35017">
        <ele>56.6</ele>
        <time>2022-10-05T12:06:58Z</time>
      </trkpt>
      <trkpt lat="49.73423" lon="2.35017">
        <ele>56.6</ele>
        <time>2022-10-05T12:06:59Z</time>
      </trkpt>
      <trkpt lat="49.73423" lon="2.35017">
        <ele>56.6</ele>
        <time>2022-10-05T12:07:00Z</time>
      </trkpt>
      <trkpt lat="49.73423" lon="2.35017">
        <ele>56.6</ele>
        <time>2022-10-05T12:07:01Z</time>
      </trkpt>
      <trkpt lat="49.73423" lon="2.35017">
        <ele>56.6</ele>
        <time>2022-10-05T12:07:02Z</time>
      </trkpt>
      <trkpt lat="49.73423" lon="2.35017">
        <ele>56.6</ele>
        <time>2022-10-05T12:07:03Z</time>
      </trkpt>
      <trkpt lat="49.73423" lon="2.35017">
        <ele>56.6</ele>
        <time>2022-10-05T12:07:04Z</time>
      </trkpt>
      <trkpt lat="49.73423" lon="2.35017">
        <ele>56.6</ele>
        <time>2022-10-05T12:07:05Z</time>
      </trkpt>
      <trkpt lat="49.73423" lon="2.35017">
        <ele>56.6</ele>
        <time>2022-10-05T12:07:06Z</time>
      </trkpt>
      <trkpt lat="49.73423" lon="2.35017">
        <ele>56.7</ele>
        <time>2022-10-05T12:07:07Z</time>
      </trkpt>
      <trkpt lat="49.73423" lon="2.35017">
        <ele>56.7</ele>
        <time>2022-10-05T12:07:08Z</time>
      </trkpt>
      <trkpt lat="49.73423" lon="2.35017">
        <ele>56.7</ele>
        <time>2022-10-05T12:07:09Z</time>
      </trkpt>
      <trkpt lat="49.73423" lon="2.35017">
        <ele>56.7</ele>
        <time>2022-10-05T12:07:10Z</time>
      </trkpt>
      <trkpt lat="49.73423" lon="2.35017">
        <ele>56.7</ele>
        <time>2022-10-05T12:07:11Z</time>
      </trkpt>
      <trkpt lat="49.73423" lon="2.35017">
        <ele>56.7</ele>
        <time>2022-10-05T12:07:12Z</time>
      </trkpt>
      <trkpt lat="49.73423" lon="2.35017">
        <ele>56.7</ele>
        <time>2022-10-05T12:07:13Z</time>
      </trkpt>
      <trkpt lat="49.73423" lon="2.35017">
        <ele>56.7</ele>
        <time>2022-10-05T12:07:14Z</time>
      </trkpt>
      <trkpt lat="49.73423" lon="2.35017">
        <ele>56.7</ele>
        <time>2022-10-05T12:07:15Z</time>
      </trkpt>
      <trkpt lat="49.73423" lon="2.35017">
        <ele>56.7</ele>
        <time>2022-10-05T12:07:16Z</time>
      </trkpt>
      <trkpt lat="49.73423" lon="2.35017">
        <ele>56.7</ele>
        <time>2022-10-05T12:07:17Z</time>
      </trkpt>
      <trkpt lat="49.73423" lon="2.35017">
        <ele>56.7</ele>
        <time>2022-10-05T12:07:18Z</time>
      </trkpt>
      <trkpt lat="49.73423" lon="2.35018">
        <ele>56.7</ele>
        <time>2022-10-05T12:07:19Z</time>
      </trkpt>
      <trkpt lat="49.73423" lon="2.35018">
        <ele>56.7</ele>
        <time>2022-10-05T12:07:20Z</time>
      </trkpt>
      <trkpt lat="49.73423" lon="2.35018">
        <ele>56.7</ele>
        <time>2022-10-05T12:07:21Z</time>
      </trkpt>
      <trkpt lat="49.73423" lon="2.35018">
        <ele>56.7</ele>
        <time>2022-10-05T12:07:22Z</time>
      </trkpt>
      <trkpt lat="49.73423" lon="2.35018">
        <ele>56.7</ele>
        <time>2022-10-05T12:07:23Z</time>
      </trkpt>
      <trkpt lat="49.73423" lon="2.35018">
        <ele>56.7</ele>
        <time>2022-10-05T12:07:24Z</time>
      </trkpt>
      <trkpt lat="49.73423" lon="2.35018">
        <ele>56.7</ele>
        <time>2022-10-05T12:07:25Z</time>
      </trkpt>
      <trkpt lat="49.73423" lon="2.35018">
        <ele>56.7</ele>
        <time>2022-10-05T12:07:26Z</time>
      </trkpt>
      <trkpt lat="49.73423" lon="2.35018">
        <ele>56.7</ele>
        <time>2022-10-05T12:07:27Z</time>
      </trkpt>
      <trkpt lat="49.73423" lon="2.35018">
        <ele>56.7</ele>
        <time>2022-10-05T12:07:28Z</time>
      </trkpt>
      <trkpt lat="49.73423" lon="2.35018">
        <ele>56.7</ele>
        <time>2022-10-05T12:07:29Z</time>
      </trkpt>
      <trkpt lat="49.73423" lon="2.35018">
        <ele>56.7</ele>
        <time>2022-10-05T12:07:30Z</time>
      </trkpt>
      <trkpt lat="49.73422" lon="2.35018">
        <ele>56.7</ele>
        <time>2022-10-05T12:07:31Z</time>
      </trkpt>
      <trkpt lat="49.73422" lon="2.35018">
        <ele>56.7</ele>
        <time>2022-10-05T12:07:32Z</time>
      </trkpt>
      <trkpt lat="49.73422" lon="2.35018">
        <ele>56.7</ele>
        <time>2022-10-05T12:07:33Z</time>
      </trkpt>
      <trkpt lat="49.73422" lon="2.35018">
        <ele>56.7</ele>
        <time>2022-10-05T12:07:34Z</time>
      </trkpt>
      <trkpt lat="49.73422" lon="2.35018">
        <ele>56.7</ele>
        <time>2022-10-05T12:07:35Z</time>
      </trkpt>
      <trkpt lat="49.73422" lon="2.35018">
        <ele>56.7</ele>
        <time>2022-10-05T12:07:36Z</time>
      </trkpt>
      <trkpt lat="49.73422" lon="2.35018">
        <ele>56.7</ele>
        <time>2022-10-05T12:07:37Z</time>
      </trkpt>
      <trkpt lat="49.73422" lon="2.35018">
        <ele>56.7</ele>
        <time>2022-10-05T12:07:38Z</time>
      </trkpt>
      <trkpt lat="49.73422" lon="2.35018">
        <ele>56.7</ele>
        <time>2022-10-05T12:07:39Z</time>
      </trkpt>
      <trkpt lat="49.73422" lon="2.35018">
        <ele>56.7</ele>
        <time>2022-10-05T12:07:40Z</time>
      </trkpt>
      <trkpt lat="49.73422" lon="2.35018">
        <ele>56.7</ele>
        <time>2022-10-05T12:07:41Z</time>
      </trkpt>
      <trkpt lat="49.73422" lon="2.35018">
        <ele>56.7</ele>
        <time>2022-10-05T12:07:42Z</time>
      </trkpt>
      <trkpt lat="49.73422" lon="2.35018">
        <ele>56.7</ele>
        <time>2022-10-05T12:07:43Z</time>
      </trkpt>
      <trkpt lat="49.73422" lon="2.35018">
        <ele>56.7</ele>
        <time>2022-10-05T12:07:44Z</time>
      </trkpt>
      <trkpt lat="49.73422" lon="2.35018">
        <ele>56.7</ele>
        <time>2022-10-05T12:07:45Z</time>
      </trkpt>
      <trkpt lat="49.73422" lon="2.35018">
        <ele>56.7</ele>
        <time>2022-10-05T12:07:46Z</time>
      </trkpt>
      <trkpt lat="49.73422" lon="2.35018">
        <ele>56.7</ele>
        <time>2022-10-05T12:07:47Z</time>
      </trkpt>
      <trkpt lat="49.73422" lon="2.35018">
        <ele>56.7</ele>
        <time>2022-10-05T12:07:48Z</time>
      </trkpt>
      <trkpt lat="49.73422" lon="2.35018">
        <ele>56.7</ele>
        <time>2022-10-05T12:07:49Z</time>
      </trkpt>
      <trkpt lat="49.73422" lon="2.35018">
        <ele>56.7</ele>
        <time>2022-10-05T12:07:50Z</time>
      </trkpt>
      <trkpt lat="49.73422" lon="2.35018">
        <ele>56.7</ele>
        <time>2022-10-05T12:07:51Z</time>
      </trkpt>
      <trkpt lat="49.73422" lon="2.35018">
        <ele>56.7</ele>
        <time>2022-10-05T12:07:52Z</time>
      </trkpt>
      <trkpt lat="49.73422" lon="2.35018">
        <ele>56.7</ele>
        <time>2022-10-05T12:07:53Z</time>
      </trkpt>
      <trkpt lat="49.73422" lon="2.35018">
        <ele>56.7</ele>
        <time>2022-10-05T12:07:54Z</time>
      </trkpt>
      <trkpt lat="49.73422" lon="2.35018">
        <ele>56.7</ele>
        <time>2022-10-05T12:07:55Z</time>
      </trkpt>
      <trkpt lat="49.73422" lon="2.35018">
        <ele>56.7</ele>
        <time>2022-10-05T12:07:56Z</time>
      </trkpt>
      <trkpt lat="49.73422" lon="2.35018">
        <ele>56.7</ele>
        <time>2022-10-05T12:07:57Z</time>
      </trkpt>
      <trkpt lat="49.73422" lon="2.35018">
        <ele>56.7</ele>
        <time>2022-10-05T12:07:58Z</time>
      </trkpt>
      <trkpt lat="49.73422" lon="2.35018">
        <ele>56.7</ele>
        <time>2022-10-05T12:07:59Z</time>
      </trkpt>
      <trkpt lat="49.73422" lon="2.35018">
        <ele>56.7</ele>
        <time>2022-10-05T12:08:00Z</time>
      </trkpt>
      <trkpt lat="49.73422" lon="2.35019">
        <ele>56.7</ele>
        <time>2022-10-05T12:08:01Z</time>
      </trkpt>
      <trkpt lat="49.73422" lon="2.35019">
        <ele>56.7</ele>
        <time>2022-10-05T12:08:02Z</time>
      </trkpt>
      <trkpt lat="49.73422" lon="2.35019">
        <ele>56.7</ele>
        <time>2022-10-05T12:08:03Z</time>
      </trkpt>
      <trkpt lat="49.73422" lon="2.35019">
        <ele>56.7</ele>
        <time>2022-10-05T12:08:04Z</time>
      </trkpt>
      <trkpt lat="49.73422" lon="2.35019">
        <ele>56.7</ele>
        <time>2022-10-05T12:08:05Z</time>
      </trkpt>
      <trkpt lat="49.73422" lon="2.35019">
        <ele>56.7</ele>
        <time>2022-10-05T12:08:06Z</time>
      </trkpt>
      <trkpt lat="49.73422" lon="2.35019">
        <ele>56.7</ele>
        <time>2022-10-05T12:08:07Z</time>
      </trkpt>
      <trkpt lat="49.73422" lon="2.35019">
        <ele>56.7</ele>
        <time>2022-10-05T12:08:08Z</time>
      </trkpt>
      <trkpt lat="49.73422" lon="2.35019">
        <ele>56.7</ele>
        <time>2022-10-05T12:08:09Z</time>
      </trkpt>
      <trkpt lat="49.73422" lon="2.35019">
        <ele>56.7</ele>
        <time>2022-10-05T12:08:10Z</time>
      </trkpt>
      <trkpt lat="49.73422" lon="2.35019">
        <ele>56.7</ele>
        <time>2022-10-05T12:08:11Z</time>
      </trkpt>
      <trkpt lat="49.73422" lon="2.35019">
        <ele>56.7</ele>
        <time>2022-10-05T12:08:12Z</time>
      </trkpt>
      <trkpt lat="49.73422" lon="2.35019">
        <ele>56.7</ele>
        <time>2022-10-05T12:08:13Z</time>
      </trkpt>
      <trkpt lat="49.73422" lon="2.35019">
        <ele>56.7</ele>
        <time>2022-10-05T12:08:14Z</time>
      </trkpt>
      <trkpt lat="49.73422" lon="2.35019">
        <ele>56.7</ele>
        <time>2022-10-05T12:08:15Z</time>
      </trkpt>
      <trkpt lat="49.73422" lon="2.35019">
        <ele>56.7</ele>
        <time>2022-10-05T12:08:16Z</time>
      </trkpt>
      <trkpt lat="49.73422" lon="2.35019">
        <ele>56.7</ele>
        <time>2022-10-05T12:08:17Z</time>
      </trkpt>
      <trkpt lat="49.73422" lon="2.35019">
        <ele>56.7</ele>
        <time>2022-10-05T12:08:18Z</time>
      </trkpt>
      <trkpt lat="49.73422" lon="2.35019">
        <ele>56.7</ele>
        <time>2022-10-05T12:08:19Z</time>
      </trkpt>
      <trkpt lat="49.73422" lon="2.35019">
        <ele>56.7</ele>
        <time>2022-10-05T12:08:20Z</time>
      </trkpt>
      <trkpt lat="49.73422" lon="2.35019">
        <ele>56.7</ele>
        <time>2022-10-05T12:08:21Z</time>
      </trkpt>
      <trkpt lat="49.73422" lon="2.35019">
        <ele>56.7</ele>
        <time>2022-10-05T12:08:22Z</time>
      </trkpt>
      <trkpt lat="49.73422" lon="2.35019">
        <ele>56.7</ele>
        <time>2022-10-05T12:08:23Z</time>
      </trkpt>
      <trkpt lat="49.73422" lon="2.35019">
        <ele>56.7</ele>
        <time>2022-10-05T12:08:24Z</time>
      </trkpt>
      <trkpt lat="49.73422" lon="2.35019">
        <ele>56.7</ele>
        <time>2022-10-05T12:08:25Z</time>
      </trkpt>
      <trkpt lat="49.73422" lon="2.35019">
        <ele>56.7</ele>
        <time>2022-10-05T12:08:26Z</time>
      </trkpt>
      <trkpt lat="49.73422" lon="2.35019">
        <ele>56.7</ele>
        <time>2022-10-05T12:08:27Z</time>
      </trkpt>
      <trkpt lat="49.73422" lon="2.35019">
        <ele>56.7</ele>
        <time>2022-10-05T12:08:28Z</time>
      </trkpt>
      <trkpt lat="49.73422" lon="2.35019">
        <ele>56.7</ele>
        <time>2022-10-05T12:08:29Z</time>
      </trkpt>
      <trkpt lat="49.73422" lon="2.35019">
        <ele>56.7</ele>
        <time>2022-10-05T12:08:30Z</time>
      </trkpt>
      <trkpt lat="49.73422" lon="2.35019">
        <ele>56.7</ele>
        <time>2022-10-05T12:08:31Z</time>
      </trkpt>
      <trkpt lat="49.73422" lon="2.35019">
        <ele>56.7</ele>
        <time>2022-10-05T12:08:32Z</time>
      </trkpt>
      <trkpt lat="49.73422" lon="2.35019">
        <ele>56.7</ele>
        <time>2022-10-05T12:08:33Z</time>
      </trkpt>
      <trkpt lat="49.73422" lon="2.35019">
        <ele>56.7</ele>
        <time>2022-10-05T12:08:34Z</time>
      </trkpt>
      <trkpt lat="49.73422" lon="2.35019">
        <ele>56.7</ele>
        <time>2022-10-05T12:08:35Z</time>
      </trkpt>
      <trkpt lat="49.73422" lon="2.35019">
        <ele>56.7</ele>
        <time>2022-10-05T12:08:36Z</time>
      </trkpt>
      <trkpt lat="49.73422" lon="2.35019">
        <ele>56.7</ele>
        <time>2022-10-05T12:08:37Z</time>
      </trkpt>
      <trkpt lat="49.73422" lon="2.35019">
        <ele>56.7</ele>
        <time>2022-10-05T12:08:38Z</time>
      </trkpt>
      <trkpt lat="49.73422" lon="2.35019">
        <ele>56.7</ele>
        <time>2022-10-05T12:08:39Z</time>
      </trkpt>
      <trkpt lat="49.73422" lon="2.35019">
        <ele>56.7</ele>
        <time>2022-10-05T12:08:40Z</time>
      </trkpt>
      <trkpt lat="49.73422" lon="2.35019">
        <ele>56.7</ele>
        <time>2022-10-05T12:08:41Z</time>
      </trkpt>
      <trkpt lat="49.73422" lon="2.35019">
        <ele>56.7</ele>
        <time>2022-10-05T12:08:42Z</time>
      </trkpt>
      <trkpt lat="49.73422" lon="2.3502">
        <ele>56.7</ele>
        <time>2022-10-05T12:08:43Z</time>
      </trkpt>
      <trkpt lat="49.73422" lon="2.3502">
        <ele>56.7</ele>
        <time>2022-10-05T12:08:44Z</time>
      </trkpt>
      <trkpt lat="49.73422" lon="2.3502">
        <ele>56.7</ele>
        <time>2022-10-05T12:08:45Z</time>
      </trkpt>
      <trkpt lat="49.73422" lon="2.3502">
        <ele>56.7</ele>
        <time>2022-10-05T12:08:46Z</time>
      </trkpt>
      <trkpt lat="49.73422" lon="2.3502">
        <ele>56.7</ele>
        <time>2022-10-05T12:08:47Z</time>
      </trkpt>
      <trkpt lat="49.73422" lon="2.3502">
        <ele>56.7</ele>
        <time>2022-10-05T12:08:48Z</time>
      </trkpt>
      <trkpt lat="49.73422" lon="2.3502">
        <ele>56.7</ele>
        <time>2022-10-05T12:08:49Z</time>
      </trkpt>
      <trkpt lat="49.73422" lon="2.3502">
        <ele>56.7</ele>
        <time>2022-10-05T12:08:50Z</time>
      </trkpt>
      <trkpt lat="49.73422" lon="2.3502">
        <ele>56.7</ele>
        <time>2022-10-05T12:08:51Z</time>
      </trkpt>
      <trkpt lat="49.73422" lon="2.3502">
        <ele>56.7</ele>
        <time>2022-10-05T12:08:52Z</time>
      </trkpt>
      <trkpt lat="49.73422" lon="2.3502">
        <ele>56.7</ele>
        <time>2022-10-05T12:08:53Z</time>
      </trkpt>
      <trkpt lat="49.73422" lon="2.3502">
        <ele>56.7</ele>
        <time>2022-10-05T12:08:54Z</time>
      </trkpt>
      <trkpt lat="49.73422" lon="2.3502">
        <ele>56.7</ele>
        <time>2022-10-05T12:08:55Z</time>
      </trkpt>
      <trkpt lat="49.73422" lon="2.3502">
        <ele>56.7</ele>
        <time>2022-10-05T12:08:56Z</time>
      </trkpt>
      <trkpt lat="49.73422" lon="2.3502">
        <ele>56.7</ele>
        <time>2022-10-05T12:08:57Z</time>
      </trkpt>
      <trkpt lat="49.73422" lon="2.3502">
        <ele>56.7</ele>
        <time>2022-10-05T12:08:58Z</time>
      </trkpt>
      <trkpt lat="49.73422" lon="2.3502">
        <ele>56.7</ele>
        <time>2022-10-05T12:08:59Z</time>
      </trkpt>
      <trkpt lat="49.73422" lon="2.3502">
        <ele>56.7</ele>
        <time>2022-10-05T12:09:00Z</time>
      </trkpt>
      <trkpt lat="49.73422" lon="2.3502">
        <ele>56.7</ele>
        <time>2022-10-05T12:09:01Z</time>
      </trkpt>
      <trkpt lat="49.73422" lon="2.3502">
        <ele>56.7</ele>
        <time>2022-10-05T12:09:02Z</time>
      </trkpt>
      <trkpt lat="49.73422" lon="2.3502">
        <ele>56.7</ele>
        <time>2022-10-05T12:09:03Z</time>
      </trkpt>
      <trkpt lat="49.73422" lon="2.3502">
        <ele>56.7</ele>
        <time>2022-10-05T12:09:04Z</time>
      </trkpt>
      <trkpt lat="49.73422" lon="2.3502">
        <ele>56.7</ele>
        <time>2022-10-05T12:09:05Z</time>
      </trkpt>
      <trkpt lat="49.73422" lon="2.3502">
        <ele>56.7</ele>
        <time>2022-10-05T12:09:06Z</time>
      </trkpt>
      <trkpt lat="49.73422" lon="2.3502">
        <ele>56.7</ele>
        <time>2022-10-05T12:09:07Z</time>
      </trkpt>
      <trkpt lat="49.73422" lon="2.3502">
        <ele>56.7</ele>
        <time>2022-10-05T12:09:08Z</time>
      </trkpt>
      <trkpt lat="49.73422" lon="2.3502">
        <ele>56.7</ele>
        <time>2022-10-05T12:09:09Z</time>
      </trkpt>
      <trkpt lat="49.73422" lon="2.3502">
        <ele>56.7</ele>
        <time>2022-10-05T12:09:10Z</time>
      </trkpt>
      <trkpt lat="49.73422" lon="2.3502">
        <ele>56.7</ele>
        <time>2022-10-05T12:09:11Z</time>
      </trkpt>
      <trkpt lat="49.73422" lon="2.3502">
        <ele>56.7</ele>
        <time>2022-10-05T12:09:12Z</time>
      </trkpt>
      <trkpt lat="49.73422" lon="2.3502">
        <ele>56.7</ele>
        <time>2022-10-05T12:09:13Z</time>
      </trkpt>
      <trkpt lat="49.73422" lon="2.3502">
        <ele>56.7</ele>
        <time>2022-10-05T12:09:14Z</time>
      </trkpt>
      <trkpt lat="49.73422" lon="2.3502">
        <ele>56.7</ele>
        <time>2022-10-05T12:09:15Z</time>
      </trkpt>
      <trkpt lat="49.73422" lon="2.3502">
        <ele>56.7</ele>
        <time>2022-10-05T12:09:16Z</time>
      </trkpt>
      <trkpt lat="49.73422" lon="2.3502">
        <ele>56.7</ele>
        <time>2022-10-05T12:09:17Z</time>
      </trkpt>
      <trkpt lat="49.73422" lon="2.3502">
        <ele>56.7</ele>
        <time>2022-10-05T12:09:18Z</time>
      </trkpt>
      <trkpt lat="49.73422" lon="2.3502">
        <ele>56.7</ele>
        <time>2022-10-05T12:09:19Z</time>
      </trkpt>
      <trkpt lat="49.73422" lon="2.3502">
        <ele>56.7</ele>
        <time>2022-10-05T12:09:20Z</time>
      </trkpt>
      <trkpt lat="49.73422" lon="2.3502">
        <ele>56.7</ele>
        <time>2022-10-05T12:09:21Z</time>
      </trkpt>
      <trkpt lat="49.73422" lon="2.3502">
        <ele>56.7</ele>
        <time>2022-10-05T12:09:22Z</time>
      </trkpt>
      <trkpt lat="49.73422" lon="2.3502">
        <ele>56.7</ele>
        <time>2022-10-05T12:09:23Z</time>
      </trkpt>
      <trkpt lat="49.73422" lon="2.35021">
        <ele>56.7</ele>
        <time>2022-10-05T12:09:24Z</time>
      </trkpt>
      <trkpt lat="49.73422" lon="2.35021">
        <ele>56.7</ele>
        <time>2022-10-05T12:09:25Z</time>
      </trkpt>
      <trkpt lat="49.73422" lon="2.35021">
        <ele>56.7</ele>
        <time>2022-10-05T12:09:26Z</time>
      </trkpt>
      <trkpt lat="49.73422" lon="2.35021">
        <ele>56.7</ele>
        <time>2022-10-05T12:09:27Z</time>
      </trkpt>
      <trkpt lat="49.73422" lon="2.35021">
        <ele>56.7</ele>
        <time>2022-10-05T12:09:28Z</time>
      </trkpt>
      <trkpt lat="49.73422" lon="2.35021">
        <ele>56.7</ele>
        <time>2022-10-05T12:09:29Z</time>
      </trkpt>
      <trkpt lat="49.73422" lon="2.35021">
        <ele>56.7</ele>
        <time>2022-10-05T12:09:30Z</time>
      </trkpt>
      <trkpt lat="49.73422" lon="2.35021">
        <ele>56.7</ele>
        <time>2022-10-05T12:09:31Z</time>
      </trkpt>
      <trkpt lat="49.73422" lon="2.35021">
        <ele>56.7</ele>
        <time>2022-10-05T12:09:32Z</time>
      </trkpt>
      <trkpt lat="49.73422" lon="2.35021">
        <ele>56.7</ele>
        <time>2022-10-05T12:09:33Z</time>
      </trkpt>
      <trkpt lat="49.73422" lon="2.35021">
        <ele>56.7</ele>
        <time>2022-10-05T12:09:34Z</time>
      </trkpt>
      <trkpt lat="49.73422" lon="2.35021">
        <ele>56.7</ele>
        <time>2022-10-05T12:09:35Z</time>
      </trkpt>
      <trkpt lat="49.73422" lon="2.35021">
        <ele>56.7</ele>
        <time>2022-10-05T12:09:36Z</time>
      </trkpt>
      <trkpt lat="49.73422" lon="2.35021">
        <ele>56.7</ele>
        <time>2022-10-05T12:09:37Z</time>
      </trkpt>
      <trkpt lat="49.73422" lon="2.35021">
        <ele>56.7</ele>
        <time>2022-10-05T12:09:38Z</time>
      </trkpt>
      <trkpt lat="49.73422" lon="2.35021">
        <ele>56.7</ele>
        <time>2022-10-05T12:09:39Z</time>
      </trkpt>
      <trkpt lat="49.73422" lon="2.35021">
        <ele>56.7</ele>
        <time>2022-10-05T12:09:40Z</time>
      </trkpt>
      <trkpt lat="49.73422" lon="2.35023">
        <ele>56.8</ele>
        <time>2022-10-05T12:09:41Z</time>
      </trkpt>
      <trkpt lat="49.73421" lon="2.35027">
        <ele>56.9</ele>
        <time>2022-10-05T12:09:43Z</time>
      </trkpt>
      <trkpt lat="49.73419" lon="2.3503">
        <ele>57</ele>
        <time>2022-10-05T12:09:44Z</time>
      </trkpt>
      <trkpt lat="49.73417" lon="2.35034">
        <ele>57.2</ele>
        <time>2022-10-05T12:09:45Z</time>
      </trkpt>
      <trkpt lat="49.73414" lon="2.35037">
        <ele>57.3</ele>
        <time>2022-10-05T12:09:46Z</time>
      </trkpt>
      <trkpt lat="49.73412" lon="2.3504">
        <ele>57.5</ele>
        <time>2022-10-05T12:09:48Z</time>
      </trkpt>
      <trkpt lat="49.73411" lon="2.3504">
        <ele>57.5</ele>
        <time>2022-10-05T12:09:49Z</time>
      </trkpt>
      <trkpt lat="49.7341" lon="2.35041">
        <ele>57.6</ele>
        <time>2022-10-05T12:09:50Z</time>
      </trkpt>
      <trkpt lat="49.73408" lon="2.35042">
        <ele>57.7</ele>
        <time>2022-10-05T12:09:51Z</time>
      </trkpt>
      <trkpt lat="49.73406" lon="2.35042">
        <ele>57.8</ele>
        <time>2022-10-05T12:09:53Z</time>
      </trkpt>
      <trkpt lat="49.73405" lon="2.35042">
        <ele>57.8</ele>
        <time>2022-10-05T12:09:54Z</time>
      </trkpt>
      <trkpt lat="49.73401" lon="2.3504">
        <ele>58</ele>
        <time>2022-10-05T12:09:55Z</time>
      </trkpt>
      <trkpt lat="49.73399" lon="2.35038">
        <ele>58.1</ele>
        <time>2022-10-05T12:09:56Z</time>
      </trkpt>
      <trkpt lat="49.73398" lon="2.35037">
        <ele>58.2</ele>
        <time>2022-10-05T12:09:57Z</time>
      </trkpt>
      <trkpt lat="49.73396" lon="2.35037">
        <ele>58.3</ele>
        <time>2022-10-05T12:09:58Z</time>
      </trkpt>
      <trkpt lat="49.73394" lon="2.35037">
        <ele>58.4</ele>
        <time>2022-10-05T12:09:59Z</time>
      </trkpt>
      <trkpt lat="49.73393" lon="2.35037">
        <ele>58.5</ele>
        <time>2022-10-05T12:10:01Z</time>
      </trkpt>
      <trkpt lat="49.73392" lon="2.35037">
        <ele>58.5</ele>
        <time>2022-10-05T12:10:02Z</time>
      </trkpt>
      <trkpt lat="49.73391" lon="2.35037">
        <ele>58.6</ele>
        <time>2022-10-05T12:10:03Z</time>
      </trkpt>
      <trkpt lat="49.7339" lon="2.35038">
        <ele>58.7</ele>
        <time>2022-10-05T12:10:04Z</time>
      </trkpt>
      <trkpt lat="49.73389" lon="2.35038">
        <ele>58.7</ele>
        <time>2022-10-05T12:10:05Z</time>
      </trkpt>
      <trkpt lat="49.73388" lon="2.35039">
        <ele>58.8</ele>
        <time>2022-10-05T12:10:06Z</time>
      </trkpt>
      <trkpt lat="49.73387" lon="2.35039">
        <ele>58.8</ele>
        <time>2022-10-05T12:10:07Z</time>
      </trkpt>
      <trkpt lat="49.73386" lon="2.3504">
        <ele>58.9</ele>
        <time>2022-10-05T12:10:08Z</time>
      </trkpt>
      <trkpt lat="49.73385" lon="2.35041">
        <ele>59</ele>
        <time>2022-10-05T12:10:09Z</time>
      </trkpt>
      <trkpt lat="49.73383" lon="2.35042">
        <ele>59.1</ele>
        <time>2022-10-05T12:10:10Z</time>
      </trkpt>
      <trkpt lat="49.73382" lon="2.35044">
        <ele>59.1</ele>
        <time>2022-10-05T12:10:11Z</time>
      </trkpt>
      <trkpt lat="49.73381" lon="2.35045">
        <ele>59.2</ele>
        <time>2022-10-05T12:10:12Z</time>
      </trkpt>
      <trkpt lat="49.73379" lon="2.35047">
        <ele>59.4</ele>
        <time>2022-10-05T12:10:14Z</time>
      </trkpt>
      <trkpt lat="49.73378" lon="2.35048">
        <ele>59.4</ele>
        <time>2022-10-05T12:10:15Z</time>
      </trkpt>
      <trkpt lat="49.73375" lon="2.3505">
        <ele>59.6</ele>
        <time>2022-10-05T12:10:16Z</time>
      </trkpt>
      <trkpt lat="49.73374" lon="2.35052">
        <ele>59.7</ele>
        <time>2022-10-05T12:10:18Z</time>
      </trkpt>
      <trkpt lat="49.73373" lon="2.35054">
        <ele>59.9</ele>
        <time>2022-10-05T12:10:19Z</time>
      </trkpt>
      <trkpt lat="49.73371" lon="2.35056">
        <ele>60</ele>
        <time>2022-10-05T12:10:21Z</time>
      </trkpt>
      <trkpt lat="49.7337" lon="2.35059">
        <ele>60.1</ele>
        <time>2022-10-05T12:10:22Z</time>
      </trkpt>
      <trkpt lat="49.73369" lon="2.3506">
        <ele>60.2</ele>
        <time>2022-10-05T12:10:23Z</time>
      </trkpt>
      <trkpt lat="49.73369" lon="2.35061">
        <ele>60.2</ele>
        <time>2022-10-05T12:10:24Z</time>
      </trkpt>
      <trkpt lat="49.73367" lon="2.35064">
        <ele>60.4</ele>
        <time>2022-10-05T12:10:25Z</time>
      </trkpt>
      <trkpt lat="49.73367" lon="2.35065">
        <ele>60.5</ele>
        <time>2022-10-05T12:10:26Z</time>
      </trkpt>
      <trkpt lat="49.73365" lon="2.35068">
        <ele>60.7</ele>
        <time>2022-10-05T12:10:27Z</time>
      </trkpt>
      <trkpt lat="49.73365" lon="2.35069">
        <ele>60.7</ele>
        <time>2022-10-05T12:10:28Z</time>
      </trkpt>
      <trkpt lat="49.73365" lon="2.3507">
        <ele>60.8</ele>
        <time>2022-10-05T12:10:29Z</time>
      </trkpt>
      <trkpt lat="49.73364" lon="2.35072">
        <ele>60.9</ele>
        <time>2022-10-05T12:10:30Z</time>
      </trkpt>
      <trkpt lat="49.73363" lon="2.35076">
        <ele>61.1</ele>
        <time>2022-10-05T12:10:32Z</time>
      </trkpt>
      <trkpt lat="49.73363" lon="2.35079">
        <ele>61.3</ele>
        <time>2022-10-05T12:10:33Z</time>
      </trkpt>
      <trkpt lat="49.73363" lon="2.3508">
        <ele>61.3</ele>
        <time>2022-10-05T12:10:34Z</time>
      </trkpt>
      <trkpt lat="49.73363" lon="2.35082">
        <ele>61.4</ele>
        <time>2022-10-05T12:10:35Z</time>
      </trkpt>
      <trkpt lat="49.73362" lon="2.35086">
        <ele>61.6</ele>
        <time>2022-10-05T12:10:37Z</time>
      </trkpt>
      <trkpt lat="49.73361" lon="2.35088">
        <ele>61.7</ele>
        <time>2022-10-05T12:10:39Z</time>
      </trkpt>
      <trkpt lat="49.73361" lon="2.3509">
        <ele>61.8</ele>
        <time>2022-10-05T12:10:40Z</time>
      </trkpt>
      <trkpt lat="49.73361" lon="2.35091">
        <ele>61.9</ele>
        <time>2022-10-05T12:10:41Z</time>
      </trkpt>
      <trkpt lat="49.7336" lon="2.35093">
        <ele>62</ele>
        <time>2022-10-05T12:10:42Z</time>
      </trkpt>
      <trkpt lat="49.7336" lon="2.35096">
        <ele>62.2</ele>
        <time>2022-10-05T12:10:43Z</time>
      </trkpt>
      <trkpt lat="49.7336" lon="2.35097">
        <ele>62.3</ele>
        <time>2022-10-05T12:10:45Z</time>
      </trkpt>
      <trkpt lat="49.73359" lon="2.35098">
        <ele>62.3</ele>
        <time>2022-10-05T12:10:46Z</time>
      </trkpt>
      <trkpt lat="49.73359" lon="2.351">
        <ele>62.4</ele>
        <time>2022-10-05T12:10:47Z</time>
      </trkpt>
      <trkpt lat="49.73358" lon="2.35101">
        <ele>62.5</ele>
        <time>2022-10-05T12:10:48Z</time>
      </trkpt>
      <trkpt lat="49.73357" lon="2.35103">
        <ele>62.6</ele>
        <time>2022-10-05T12:10:49Z</time>
      </trkpt>
      <trkpt lat="49.73356" lon="2.35105">
        <ele>62.8</ele>
        <time>2022-10-05T12:10:50Z</time>
      </trkpt>
      <trkpt lat="49.73356" lon="2.35106">
        <ele>62.9</ele>
        <time>2022-10-05T12:10:51Z</time>
      </trkpt>
      <trkpt lat="49.73355" lon="2.35107">
        <ele>63</ele>
        <time>2022-10-05T12:10:53Z</time>
      </trkpt>
      <trkpt lat="49.73354" lon="2.35109">
        <ele>63</ele>
        <time>2022-10-05T12:10:54Z</time>
      </trkpt>
      <trkpt lat="49.73354" lon="2.3511">
        <ele>63.1</ele>
        <time>2022-10-05T12:10:55Z</time>
      </trkpt>
      <trkpt lat="49.73354" lon="2.35111">
        <ele>63.2</ele>
        <time>2022-10-05T12:10:56Z</time>
      </trkpt>
      <trkpt lat="49.73353" lon="2.35113">
        <ele>63.3</ele>
        <time>2022-10-05T12:10:57Z</time>
      </trkpt>
      <trkpt lat="49.73353" lon="2.35115">
        <ele>63.4</ele>
        <time>2022-10-05T12:10:58Z</time>
      </trkpt>
      <trkpt lat="49.73352" lon="2.35117">
        <ele>63.5</ele>
        <time>2022-10-05T12:10:59Z</time>
      </trkpt>
      <trkpt lat="49.73351" lon="2.35118">
        <ele>63.6</ele>
        <time>2022-10-05T12:11:01Z</time>
      </trkpt>
      <trkpt lat="49.73351" lon="2.3512">
        <ele>63.7</ele>
        <time>2022-10-05T12:11:02Z</time>
      </trkpt>
      <trkpt lat="49.7335" lon="2.35121">
        <ele>63.7</ele>
        <time>2022-10-05T12:11:03Z</time>
      </trkpt>
      <trkpt lat="49.7335" lon="2.35122">
        <ele>63.8</ele>
        <time>2022-10-05T12:11:04Z</time>
      </trkpt>
      <trkpt lat="49.73349" lon="2.35123">
        <ele>63.9</ele>
        <time>2022-10-05T12:11:05Z</time>
      </trkpt>
      <trkpt lat="49.73348" lon="2.35124">
        <ele>64</ele>
        <time>2022-10-05T12:11:06Z</time>
      </trkpt>
      <trkpt lat="49.73347" lon="2.35128">
        <ele>64.2</ele>
        <time>2022-10-05T12:11:08Z</time>
      </trkpt>
      <trkpt lat="49.73346" lon="2.35129">
        <ele>64.3</ele>
        <time>2022-10-05T12:11:09Z</time>
      </trkpt>
      <trkpt lat="49.73345" lon="2.3513">
        <ele>64.4</ele>
        <time>2022-10-05T12:11:10Z</time>
      </trkpt>
      <trkpt lat="49.73344" lon="2.35132">
        <ele>64.5</ele>
        <time>2022-10-05T12:11:11Z</time>
      </trkpt>
      <trkpt lat="49.73344" lon="2.35133">
        <ele>64.6</ele>
        <time>2022-10-05T12:11:12Z</time>
      </trkpt>
      <trkpt lat="49.73343" lon="2.35135">
        <ele>64.7</ele>
        <time>2022-10-05T12:11:13Z</time>
      </trkpt>
      <trkpt lat="49.73342" lon="2.35136">
        <ele>64.8</ele>
        <time>2022-10-05T12:11:15Z</time>
      </trkpt>
      <trkpt lat="49.73341" lon="2.35138">
        <ele>64.9</ele>
        <time>2022-10-05T12:11:16Z</time>
      </trkpt>
      <trkpt lat="49.73341" lon="2.3514">
        <ele>65</ele>
        <time>2022-10-05T12:11:17Z</time>
      </trkpt>
      <trkpt lat="49.73339" lon="2.35142">
        <ele>65.1</ele>
        <time>2022-10-05T12:11:19Z</time>
      </trkpt>
      <trkpt lat="49.73338" lon="2.35145">
        <ele>65.3</ele>
        <time>2022-10-05T12:11:20Z</time>
      </trkpt>
      <trkpt lat="49.73337" lon="2.35146">
        <ele>65.4</ele>
        <time>2022-10-05T12:11:21Z</time>
      </trkpt>
      <trkpt lat="49.73337" lon="2.35147">
        <ele>65.4</ele>
        <time>2022-10-05T12:11:22Z</time>
      </trkpt>
      <trkpt lat="49.73336" lon="2.35148">
        <ele>65.5</ele>
        <time>2022-10-05T12:11:23Z</time>
      </trkpt>
      <trkpt lat="49.73335" lon="2.3515">
        <ele>65.6</ele>
        <time>2022-10-05T12:11:24Z</time>
      </trkpt>
      <trkpt lat="49.73334" lon="2.35151">
        <ele>65.7</ele>
        <time>2022-10-05T12:11:25Z</time>
      </trkpt>
      <trkpt lat="49.73333" lon="2.35154">
        <ele>65.9</ele>
        <time>2022-10-05T12:11:27Z</time>
      </trkpt>
      <trkpt lat="49.73332" lon="2.35155">
        <ele>65.9</ele>
        <time>2022-10-05T12:11:28Z</time>
      </trkpt>
      <trkpt lat="49.73332" lon="2.35156">
        <ele>66</ele>
        <time>2022-10-05T12:11:29Z</time>
      </trkpt>
      <trkpt lat="49.73331" lon="2.35157">
        <ele>66.1</ele>
        <time>2022-10-05T12:11:30Z</time>
      </trkpt>
      <trkpt lat="49.73331" lon="2.35158">
        <ele>66.1</ele>
        <time>2022-10-05T12:11:31Z</time>
      </trkpt>
      <trkpt lat="49.7333" lon="2.3516">
        <ele>66.2</ele>
        <time>2022-10-05T12:11:32Z</time>
      </trkpt>
      <trkpt lat="49.73329" lon="2.35161">
        <ele>66.3</ele>
        <time>2022-10-05T12:11:33Z</time>
      </trkpt>
      <trkpt lat="49.73328" lon="2.35163">
        <ele>66.4</ele>
        <time>2022-10-05T12:11:34Z</time>
      </trkpt>
      <trkpt lat="49.73327" lon="2.35165">
        <ele>66.5</ele>
        <time>2022-10-05T12:11:36Z</time>
      </trkpt>
      <trkpt lat="49.73326" lon="2.35167">
        <ele>66.7</ele>
        <time>2022-10-05T12:11:37Z</time>
      </trkpt>
      <trkpt lat="49.73326" lon="2.35168">
        <ele>66.7</ele>
        <time>2022-10-05T12:11:38Z</time>
      </trkpt>
      <trkpt lat="49.73325" lon="2.35169">
        <ele>66.8</ele>
        <time>2022-10-05T12:11:39Z</time>
      </trkpt>
      <trkpt lat="49.73324" lon="2.35171">
        <ele>66.9</ele>
        <time>2022-10-05T12:11:40Z</time>
      </trkpt>
      <trkpt lat="49.73323" lon="2.35172">
        <ele>67</ele>
        <time>2022-10-05T12:11:41Z</time>
      </trkpt>
      <trkpt lat="49.73322" lon="2.35174">
        <ele>67.1</ele>
        <time>2022-10-05T12:11:42Z</time>
      </trkpt>
      <trkpt lat="49.73322" lon="2.35175">
        <ele>67.1</ele>
        <time>2022-10-05T12:11:43Z</time>
      </trkpt>
      <trkpt lat="49.73321" lon="2.35176">
        <ele>67.2</ele>
        <time>2022-10-05T12:11:45Z</time>
      </trkpt>
      <trkpt lat="49.7332" lon="2.35177">
        <ele>67.3</ele>
        <time>2022-10-05T12:11:46Z</time>
      </trkpt>
      <trkpt lat="49.73319" lon="2.35179">
        <ele>67.4</ele>
        <time>2022-10-05T12:11:47Z</time>
      </trkpt>
      <trkpt lat="49.73318" lon="2.35179">
        <ele>67.5</ele>
        <time>2022-10-05T12:11:48Z</time>
      </trkpt>
      <trkpt lat="49.73317" lon="2.3518">
        <ele>67.5</ele>
        <time>2022-10-05T12:11:49Z</time>
      </trkpt>
      <trkpt lat="49.73316" lon="2.35182">
        <ele>67.7</ele>
        <time>2022-10-05T12:11:50Z</time>
      </trkpt>
      <trkpt lat="49.73315" lon="2.35183">
        <ele>67.8</ele>
        <time>2022-10-05T12:11:51Z</time>
      </trkpt>
      <trkpt lat="49.73314" lon="2.35184">
        <ele>67.8</ele>
        <time>2022-10-05T12:11:52Z</time>
      </trkpt>
      <trkpt lat="49.73313" lon="2.35185">
        <ele>67.9</ele>
        <time>2022-10-05T12:11:54Z</time>
      </trkpt>
      <trkpt lat="49.73312" lon="2.35186">
        <ele>68</ele>
        <time>2022-10-05T12:11:55Z</time>
      </trkpt>
      <trkpt lat="49.73312" lon="2.35187">
        <ele>68.1</ele>
        <time>2022-10-05T12:11:56Z</time>
      </trkpt>
      <trkpt lat="49.7331" lon="2.35188">
        <ele>68.2</ele>
        <time>2022-10-05T12:11:57Z</time>
      </trkpt>
      <trkpt lat="49.7331" lon="2.35189">
        <ele>68.2</ele>
        <time>2022-10-05T12:11:58Z</time>
      </trkpt>
      <trkpt lat="49.73309" lon="2.3519">
        <ele>68.3</ele>
        <time>2022-10-05T12:11:59Z</time>
      </trkpt>
      <trkpt lat="49.73308" lon="2.35191">
        <ele>68.4</ele>
        <time>2022-10-05T12:12:01Z</time>
      </trkpt>
      <trkpt lat="49.73308" lon="2.35193">
        <ele>68.5</ele>
        <time>2022-10-05T12:12:02Z</time>
      </trkpt>
      <trkpt lat="49.73307" lon="2.35194">
        <ele>68.5</ele>
        <time>2022-10-05T12:12:03Z</time>
      </trkpt>
      <trkpt lat="49.73307" lon="2.35195">
        <ele>68.6</ele>
        <time>2022-10-05T12:12:04Z</time>
      </trkpt>
      <trkpt lat="49.73306" lon="2.35196">
        <ele>68.7</ele>
        <time>2022-10-05T12:12:05Z</time>
      </trkpt>
      <trkpt lat="49.73305" lon="2.35198">
        <ele>68.8</ele>
        <time>2022-10-05T12:12:06Z</time>
      </trkpt>
      <trkpt lat="49.73304" lon="2.35199">
        <ele>68.9</ele>
        <time>2022-10-05T12:12:08Z</time>
      </trkpt>
      <trkpt lat="49.73303" lon="2.352">
        <ele>69</ele>
        <time>2022-10-05T12:12:09Z</time>
      </trkpt>
      <trkpt lat="49.73303" lon="2.35201">
        <ele>69</ele>
        <time>2022-10-05T12:12:10Z</time>
      </trkpt>
      <trkpt lat="49.73302" lon="2.35203">
        <ele>69.1</ele>
        <time>2022-10-05T12:12:11Z</time>
      </trkpt>
      <trkpt lat="49.73302" lon="2.35205">
        <ele>69.2</ele>
        <time>2022-10-05T12:12:12Z</time>
      </trkpt>
      <trkpt lat="49.73301" lon="2.35206">
        <ele>69.3</ele>
        <time>2022-10-05T12:12:13Z</time>
      </trkpt>
      <trkpt lat="49.73301" lon="2.35207">
        <ele>69.4</ele>
        <time>2022-10-05T12:12:14Z</time>
      </trkpt>
      <trkpt lat="49.733" lon="2.35209">
        <ele>69.5</ele>
        <time>2022-10-05T12:12:15Z</time>
      </trkpt>
      <trkpt lat="49.73299" lon="2.3521">
        <ele>69.6</ele>
        <time>2022-10-05T12:12:17Z</time>
      </trkpt>
      <trkpt lat="49.73299" lon="2.35212">
        <ele>69.6</ele>
        <time>2022-10-05T12:12:18Z</time>
      </trkpt>
      <trkpt lat="49.73298" lon="2.35213">
        <ele>69.7</ele>
        <time>2022-10-05T12:12:19Z</time>
      </trkpt>
      <trkpt lat="49.73297" lon="2.35215">
        <ele>69.8</ele>
        <time>2022-10-05T12:12:21Z</time>
      </trkpt>
      <trkpt lat="49.73296" lon="2.35217">
        <ele>70</ele>
        <time>2022-10-05T12:12:22Z</time>
      </trkpt>
      <trkpt lat="49.73296" lon="2.35218">
        <ele>70</ele>
        <time>2022-10-05T12:12:23Z</time>
      </trkpt>
      <trkpt lat="49.73294" lon="2.35221">
        <ele>70.2</ele>
        <time>2022-10-05T12:12:24Z</time>
      </trkpt>
      <trkpt lat="49.73294" lon="2.35222">
        <ele>70.3</ele>
        <time>2022-10-05T12:12:25Z</time>
      </trkpt>
      <trkpt lat="49.73293" lon="2.35223">
        <ele>70.3</ele>
        <time>2022-10-05T12:12:26Z</time>
      </trkpt>
      <trkpt lat="49.73292" lon="2.35224">
        <ele>70.4</ele>
        <time>2022-10-05T12:12:27Z</time>
      </trkpt>
      <trkpt lat="49.73292" lon="2.35225">
        <ele>70.5</ele>
        <time>2022-10-05T12:12:28Z</time>
      </trkpt>
      <trkpt lat="49.73291" lon="2.35227">
        <ele>70.6</ele>
        <time>2022-10-05T12:12:30Z</time>
      </trkpt>
      <trkpt lat="49.7329" lon="2.35228">
        <ele>70.7</ele>
        <time>2022-10-05T12:12:31Z</time>
      </trkpt>
      <trkpt lat="49.73289" lon="2.3523">
        <ele>70.8</ele>
        <time>2022-10-05T12:12:32Z</time>
      </trkpt>
      <trkpt lat="49.73288" lon="2.35231">
        <ele>70.9</ele>
        <time>2022-10-05T12:12:33Z</time>
      </trkpt>
      <trkpt lat="49.73287" lon="2.35233">
        <ele>71</ele>
        <time>2022-10-05T12:12:34Z</time>
      </trkpt>
      <trkpt lat="49.73287" lon="2.35234">
        <ele>71</ele>
        <time>2022-10-05T12:12:35Z</time>
      </trkpt>
      <trkpt lat="49.73285" lon="2.35237">
        <ele>71.2</ele>
        <time>2022-10-05T12:12:36Z</time>
      </trkpt>
      <trkpt lat="49.73285" lon="2.35238">
        <ele>71.3</ele>
        <time>2022-10-05T12:12:38Z</time>
      </trkpt>
      <trkpt lat="49.73284" lon="2.35239">
        <ele>71.4</ele>
        <time>2022-10-05T12:12:39Z</time>
      </trkpt>
      <trkpt lat="49.73283" lon="2.35242">
        <ele>71.5</ele>
        <time>2022-10-05T12:12:41Z</time>
      </trkpt>
      <trkpt lat="49.73283" lon="2.35243">
        <ele>71.6</ele>
        <time>2022-10-05T12:12:42Z</time>
      </trkpt>
      <trkpt lat="49.73282" lon="2.35244">
        <ele>71.6</ele>
        <time>2022-10-05T12:12:43Z</time>
      </trkpt>
      <trkpt lat="49.73281" lon="2.35246">
        <ele>71.8</ele>
        <time>2022-10-05T12:12:44Z</time>
      </trkpt>
      <trkpt lat="49.7328" lon="2.35247">
        <ele>71.8</ele>
        <time>2022-10-05T12:12:45Z</time>
      </trkpt>
      <trkpt lat="49.7328" lon="2.35248">
        <ele>71.9</ele>
        <time>2022-10-05T12:12:46Z</time>
      </trkpt>
      <trkpt lat="49.73279" lon="2.3525">
        <ele>72</ele>
        <time>2022-10-05T12:12:47Z</time>
      </trkpt>
      <trkpt lat="49.73278" lon="2.35251">
        <ele>72.1</ele>
        <time>2022-10-05T12:12:48Z</time>
      </trkpt>
      <trkpt lat="49.73277" lon="2.35253">
        <ele>72.2</ele>
        <time>2022-10-05T12:12:50Z</time>
      </trkpt>
      <trkpt lat="49.73277" lon="2.35254">
        <ele>72.3</ele>
        <time>2022-10-05T12:12:51Z</time>
      </trkpt>
      <trkpt lat="49.73276" lon="2.35255">
        <ele>72.3</ele>
        <time>2022-10-05T12:12:52Z</time>
      </trkpt>
      <trkpt lat="49.73275" lon="2.35257">
        <ele>72.5</ele>
        <time>2022-10-05T12:12:53Z</time>
      </trkpt>
      <trkpt lat="49.73274" lon="2.35258">
        <ele>72.6</ele>
        <time>2022-10-05T12:12:54Z</time>
      </trkpt>
      <trkpt lat="49.73274" lon="2.35259">
        <ele>72.6</ele>
        <time>2022-10-05T12:12:55Z</time>
      </trkpt>
      <trkpt lat="49.73273" lon="2.35261">
        <ele>72.7</ele>
        <time>2022-10-05T12:12:56Z</time>
      </trkpt>
      <trkpt lat="49.73272" lon="2.35263">
        <ele>72.9</ele>
        <time>2022-10-05T12:12:58Z</time>
      </trkpt>
      <trkpt lat="49.73271" lon="2.35264">
        <ele>72.9</ele>
        <time>2022-10-05T12:12:59Z</time>
      </trkpt>
      <trkpt lat="49.73271" lon="2.35265">
        <ele>73</ele>
        <time>2022-10-05T12:13:00Z</time>
      </trkpt>
      <trkpt lat="49.7327" lon="2.35265">
        <ele>73.1</ele>
        <time>2022-10-05T12:13:01Z</time>
      </trkpt>
      <trkpt lat="49.73269" lon="2.35267">
        <ele>73.3</ele>
        <time>2022-10-05T12:13:02Z</time>
      </trkpt>
      <trkpt lat="49.73268" lon="2.35268">
        <ele>73.3</ele>
        <time>2022-10-05T12:13:03Z</time>
      </trkpt>
      <trkpt lat="49.73267" lon="2.35269">
        <ele>73.4</ele>
        <time>2022-10-05T12:13:04Z</time>
      </trkpt>
      <trkpt lat="49.73266" lon="2.3527">
        <ele>73.5</ele>
        <time>2022-10-05T12:13:06Z</time>
      </trkpt>
      <trkpt lat="49.73265" lon="2.35273">
        <ele>73.7</ele>
        <time>2022-10-05T12:13:08Z</time>
      </trkpt>
      <trkpt lat="49.73264" lon="2.35274">
        <ele>73.8</ele>
        <time>2022-10-05T12:13:09Z</time>
      </trkpt>
      <trkpt lat="49.73264" lon="2.35275">
        <ele>73.8</ele>
        <time>2022-10-05T12:13:10Z</time>
      </trkpt>
      <trkpt lat="49.73263" lon="2.35276">
        <ele>74</ele>
        <time>2022-10-05T12:13:11Z</time>
      </trkpt>
      <trkpt lat="49.73262" lon="2.35279">
        <ele>74.1</ele>
        <time>2022-10-05T12:13:13Z</time>
      </trkpt>
      <trkpt lat="49.73261" lon="2.3528">
        <ele>74.2</ele>
        <time>2022-10-05T12:13:14Z</time>
      </trkpt>
      <trkpt lat="49.73261" lon="2.35281">
        <ele>74.3</ele>
        <time>2022-10-05T12:13:15Z</time>
      </trkpt>
      <trkpt lat="49.7326" lon="2.35282">
        <ele>74.4</ele>
        <time>2022-10-05T12:13:16Z</time>
      </trkpt>
      <trkpt lat="49.73259" lon="2.35283">
        <ele>74.5</ele>
        <time>2022-10-05T12:13:17Z</time>
      </trkpt>
      <trkpt lat="49.73259" lon="2.35285">
        <ele>74.6</ele>
        <time>2022-10-05T12:13:18Z</time>
      </trkpt>
      <trkpt lat="49.73258" lon="2.35286">
        <ele>74.7</ele>
        <time>2022-10-05T12:13:19Z</time>
      </trkpt>
      <trkpt lat="49.73257" lon="2.35288">
        <ele>74.8</ele>
        <time>2022-10-05T12:13:20Z</time>
      </trkpt>
      <trkpt lat="49.73256" lon="2.3529">
        <ele>74.9</ele>
        <time>2022-10-05T12:13:21Z</time>
      </trkpt>
      <trkpt lat="49.73256" lon="2.35291">
        <ele>75</ele>
        <time>2022-10-05T12:13:22Z</time>
      </trkpt>
      <trkpt lat="49.73255" lon="2.35292">
        <ele>75.1</ele>
        <time>2022-10-05T12:13:24Z</time>
      </trkpt>
      <trkpt lat="49.73255" lon="2.35293">
        <ele>75.2</ele>
        <time>2022-10-05T12:13:25Z</time>
      </trkpt>
      <trkpt lat="49.73254" lon="2.35294">
        <ele>75.3</ele>
        <time>2022-10-05T12:13:26Z</time>
      </trkpt>
      <trkpt lat="49.73252" lon="2.35297">
        <ele>75.5</ele>
        <time>2022-10-05T12:13:27Z</time>
      </trkpt>
      <trkpt lat="49.73252" lon="2.35298">
        <ele>75.5</ele>
        <time>2022-10-05T12:13:28Z</time>
      </trkpt>
      <trkpt lat="49.73251" lon="2.35299">
        <ele>75.6</ele>
        <time>2022-10-05T12:13:29Z</time>
      </trkpt>
      <trkpt lat="49.7325" lon="2.35301">
        <ele>75.8</ele>
        <time>2022-10-05T12:13:31Z</time>
      </trkpt>
      <trkpt lat="49.7325" lon="2.35302">
        <ele>75.9</ele>
        <time>2022-10-05T12:13:32Z</time>
      </trkpt>
      <trkpt lat="49.73249" lon="2.35303">
        <ele>75.9</ele>
        <time>2022-10-05T12:13:33Z</time>
      </trkpt>
      <trkpt lat="49.73248" lon="2.35305">
        <ele>76</ele>
        <time>2022-10-05T12:13:34Z</time>
      </trkpt>
      <trkpt lat="49.73248" lon="2.35306">
        <ele>76.2</ele>
        <time>2022-10-05T12:13:35Z</time>
      </trkpt>
      <trkpt lat="49.73247" lon="2.35308">
        <ele>76.3</ele>
        <time>2022-10-05T12:13:36Z</time>
      </trkpt>
      <trkpt lat="49.73246" lon="2.35311">
        <ele>76.5</ele>
        <time>2022-10-05T12:13:38Z</time>
      </trkpt>
      <trkpt lat="49.73245" lon="2.35313">
        <ele>76.6</ele>
        <time>2022-10-05T12:13:39Z</time>
      </trkpt>
      <trkpt lat="49.73245" lon="2.35313">
        <ele>76.6</ele>
        <time>2022-10-05T12:13:40Z</time>
      </trkpt>
      <trkpt lat="49.73245" lon="2.35314">
        <ele>76.7</ele>
        <time>2022-10-05T12:13:41Z</time>
      </trkpt>
      <trkpt lat="49.73244" lon="2.35316">
        <ele>76.7</ele>
        <time>2022-10-05T12:13:42Z</time>
      </trkpt>
      <trkpt lat="49.73244" lon="2.35317">
        <ele>76.8</ele>
        <time>2022-10-05T12:13:43Z</time>
      </trkpt>
      <trkpt lat="49.73243" lon="2.35321">
        <ele>77</ele>
        <time>2022-10-05T12:13:44Z</time>
      </trkpt>
      <trkpt lat="49.73243" lon="2.35322">
        <ele>77.1</ele>
        <time>2022-10-05T12:13:45Z</time>
      </trkpt>
      <trkpt lat="49.73243" lon="2.35323">
        <ele>77.1</ele>
        <time>2022-10-05T12:13:46Z</time>
      </trkpt>
      <trkpt lat="49.73243" lon="2.35325">
        <ele>77.3</ele>
        <time>2022-10-05T12:13:47Z</time>
      </trkpt>
      <trkpt lat="49.73243" lon="2.35328">
        <ele>77.4</ele>
        <time>2022-10-05T12:13:48Z</time>
      </trkpt>
      <trkpt lat="49.73243" lon="2.3533">
        <ele>77.4</ele>
        <time>2022-10-05T12:13:49Z</time>
      </trkpt>
      <trkpt lat="49.73243" lon="2.35331">
        <ele>77.5</ele>
        <time>2022-10-05T12:13:50Z</time>
      </trkpt>
      <trkpt lat="49.73243" lon="2.35333">
        <ele>77.5</ele>
        <time>2022-10-05T12:13:51Z</time>
      </trkpt>
      <trkpt lat="49.73243" lon="2.35336">
        <ele>77.6</ele>
        <time>2022-10-05T12:13:53Z</time>
      </trkpt>
      <trkpt lat="49.73243" lon="2.35338">
        <ele>77.6</ele>
        <time>2022-10-05T12:13:54Z</time>
      </trkpt>
      <trkpt lat="49.73243" lon="2.35341">
        <ele>77.7</ele>
        <time>2022-10-05T12:13:55Z</time>
      </trkpt>
      <trkpt lat="49.73243" lon="2.35343">
        <ele>77.8</ele>
        <time>2022-10-05T12:13:56Z</time>
      </trkpt>
      <trkpt lat="49.73242" lon="2.35346">
        <ele>77.8</ele>
        <time>2022-10-05T12:13:58Z</time>
      </trkpt>
      <trkpt lat="49.73242" lon="2.35347">
        <ele>77.8</ele>
        <time>2022-10-05T12:13:59Z</time>
      </trkpt>
      <trkpt lat="49.73242" lon="2.35348">
        <ele>77.9</ele>
        <time>2022-10-05T12:14:00Z</time>
      </trkpt>
      <trkpt lat="49.73242" lon="2.35352">
        <ele>77.9</ele>
        <time>2022-10-05T12:14:01Z</time>
      </trkpt>
      <trkpt lat="49.73242" lon="2.35353">
        <ele>77.9</ele>
        <time>2022-10-05T12:14:02Z</time>
      </trkpt>
      <trkpt lat="49.73242" lon="2.35355">
        <ele>78</ele>
        <time>2022-10-05T12:14:03Z</time>
      </trkpt>
      <trkpt lat="49.73242" lon="2.35358">
        <ele>78</ele>
        <time>2022-10-05T12:14:04Z</time>
      </trkpt>
      <trkpt lat="49.73242" lon="2.35359">
        <ele>78</ele>
        <time>2022-10-05T12:14:06Z</time>
      </trkpt>
      <trkpt lat="49.73242" lon="2.3536">
        <ele>78.1</ele>
        <time>2022-10-05T12:14:07Z</time>
      </trkpt>
      <trkpt lat="49.73242" lon="2.35363">
        <ele>78.1</ele>
        <time>2022-10-05T12:14:08Z</time>
      </trkpt>
      <trkpt lat="49.73242" lon="2.35365">
        <ele>78.1</ele>
        <time>2022-10-05T12:14:09Z</time>
      </trkpt>
      <trkpt lat="49.73242" lon="2.35369">
        <ele>78.2</ele>
        <time>2022-10-05T12:14:10Z</time>
      </trkpt>
      <trkpt lat="49.73242" lon="2.3537">
        <ele>78.3</ele>
        <time>2022-10-05T12:14:12Z</time>
      </trkpt>
      <trkpt lat="49.73242" lon="2.35372">
        <ele>78.3</ele>
        <time>2022-10-05T12:14:13Z</time>
      </trkpt>
      <trkpt lat="49.73241" lon="2.35374">
        <ele>78.4</ele>
        <time>2022-10-05T12:14:14Z</time>
      </trkpt>
      <trkpt lat="49.73241" lon="2.35375">
        <ele>78.4</ele>
        <time>2022-10-05T12:14:15Z</time>
      </trkpt>
      <trkpt lat="49.73241" lon="2.35377">
        <ele>78.5</ele>
        <time>2022-10-05T12:14:16Z</time>
      </trkpt>
      <trkpt lat="49.73241" lon="2.35378">
        <ele>78.5</ele>
        <time>2022-10-05T12:14:17Z</time>
      </trkpt>
      <trkpt lat="49.7324" lon="2.3538">
        <ele>78.6</ele>
        <time>2022-10-05T12:14:18Z</time>
      </trkpt>
      <trkpt lat="49.7324" lon="2.35382">
        <ele>78.7</ele>
        <time>2022-10-05T12:14:19Z</time>
      </trkpt>
      <trkpt lat="49.7324" lon="2.35383">
        <ele>78.7</ele>
        <time>2022-10-05T12:14:20Z</time>
      </trkpt>
      <trkpt lat="49.7324" lon="2.35384">
        <ele>78.7</ele>
        <time>2022-10-05T12:14:21Z</time>
      </trkpt>
      <trkpt lat="49.73239" lon="2.35386">
        <ele>78.8</ele>
        <time>2022-10-05T12:14:22Z</time>
      </trkpt>
      <trkpt lat="49.73238" lon="2.3539">
        <ele>78.9</ele>
        <time>2022-10-05T12:14:23Z</time>
      </trkpt>
      <trkpt lat="49.73238" lon="2.35391">
        <ele>79</ele>
        <time>2022-10-05T12:14:25Z</time>
      </trkpt>
      <trkpt lat="49.73238" lon="2.35393">
        <ele>79</ele>
        <time>2022-10-05T12:14:26Z</time>
      </trkpt>
      <trkpt lat="49.73237" lon="2.35395">
        <ele>79.1</ele>
        <time>2022-10-05T12:14:27Z</time>
      </trkpt>
      <trkpt lat="49.73237" lon="2.35396">
        <ele>79.1</ele>
        <time>2022-10-05T12:14:28Z</time>
      </trkpt>
      <trkpt lat="49.73237" lon="2.35398">
        <ele>79.2</ele>
        <time>2022-10-05T12:14:29Z</time>
      </trkpt>
      <trkpt lat="49.73236" lon="2.354">
        <ele>79.3</ele>
        <time>2022-10-05T12:14:30Z</time>
      </trkpt>
      <trkpt lat="49.73236" lon="2.35402">
        <ele>79.3</ele>
        <time>2022-10-05T12:14:32Z</time>
      </trkpt>
      <trkpt lat="49.73235" lon="2.35405">
        <ele>79.4</ele>
        <time>2022-10-05T12:14:33Z</time>
      </trkpt>
      <trkpt lat="49.73235" lon="2.35406">
        <ele>79.5</ele>
        <time>2022-10-05T12:14:34Z</time>
      </trkpt>
      <trkpt lat="49.73234" lon="2.35407">
        <ele>79.5</ele>
        <time>2022-10-05T12:14:35Z</time>
      </trkpt>
      <trkpt lat="49.73234" lon="2.35408">
        <ele>79.6</ele>
        <time>2022-10-05T12:14:36Z</time>
      </trkpt>
      <trkpt lat="49.73233" lon="2.3541">
        <ele>79.6</ele>
        <time>2022-10-05T12:14:37Z</time>
      </trkpt>
      <trkpt lat="49.73233" lon="2.35412">
        <ele>79.7</ele>
        <time>2022-10-05T12:14:38Z</time>
      </trkpt>
      <trkpt lat="49.73233" lon="2.35413">
        <ele>79.7</ele>
        <time>2022-10-05T12:14:39Z</time>
      </trkpt>
      <trkpt lat="49.73232" lon="2.35415">
        <ele>79.8</ele>
        <time>2022-10-05T12:14:40Z</time>
      </trkpt>
      <trkpt lat="49.73232" lon="2.35416">
        <ele>79.8</ele>
        <time>2022-10-05T12:14:41Z</time>
      </trkpt>
      <trkpt lat="49.73231" lon="2.35419">
        <ele>79.9</ele>
        <time>2022-10-05T12:14:43Z</time>
      </trkpt>
      <trkpt lat="49.7323" lon="2.3542">
        <ele>80</ele>
        <time>2022-10-05T12:14:44Z</time>
      </trkpt>
      <trkpt lat="49.7323" lon="2.35422">
        <ele>80</ele>
        <time>2022-10-05T12:14:45Z</time>
      </trkpt>
      <trkpt lat="49.73229" lon="2.35423">
        <ele>80.1</ele>
        <time>2022-10-05T12:14:46Z</time>
      </trkpt>
      <trkpt lat="49.73229" lon="2.35425">
        <ele>80.2</ele>
        <time>2022-10-05T12:14:47Z</time>
      </trkpt>
      <trkpt lat="49.73228" lon="2.35428">
        <ele>80.3</ele>
        <time>2022-10-05T12:14:48Z</time>
      </trkpt>
      <trkpt lat="49.73227" lon="2.35429">
        <ele>80.3</ele>
        <time>2022-10-05T12:14:49Z</time>
      </trkpt>
      <trkpt lat="49.73227" lon="2.35431">
        <ele>80.4</ele>
        <time>2022-10-05T12:14:50Z</time>
      </trkpt>
      <trkpt lat="49.73226" lon="2.35433">
        <ele>80.5</ele>
        <time>2022-10-05T12:14:51Z</time>
      </trkpt>
      <trkpt lat="49.73225" lon="2.35437">
        <ele>80.6</ele>
        <time>2022-10-05T12:14:53Z</time>
      </trkpt>
      <trkpt lat="49.73225" lon="2.35438">
        <ele>80.6</ele>
        <time>2022-10-05T12:14:54Z</time>
      </trkpt>
      <trkpt lat="49.73225" lon="2.3544">
        <ele>80.7</ele>
        <time>2022-10-05T12:14:55Z</time>
      </trkpt>
      <trkpt lat="49.73224" lon="2.35442">
        <ele>80.8</ele>
        <time>2022-10-05T12:14:56Z</time>
      </trkpt>
      <trkpt lat="49.73223" lon="2.35447">
        <ele>80.9</ele>
        <time>2022-10-05T12:14:58Z</time>
      </trkpt>
      <trkpt lat="49.73223" lon="2.35447">
        <ele>81</ele>
        <time>2022-10-05T12:14:59Z</time>
      </trkpt>
      <trkpt lat="49.73223" lon="2.35449">
        <ele>81</ele>
        <time>2022-10-05T12:15:00Z</time>
      </trkpt>
      <trkpt lat="49.73223" lon="2.3545">
        <ele>81.1</ele>
        <time>2022-10-05T12:15:01Z</time>
      </trkpt>
      <trkpt lat="49.73223" lon="2.35452">
        <ele>81.1</ele>
        <time>2022-10-05T12:15:02Z</time>
      </trkpt>
      <trkpt lat="49.73222" lon="2.35455">
        <ele>81.2</ele>
        <time>2022-10-05T12:15:03Z</time>
      </trkpt>
      <trkpt lat="49.73222" lon="2.35457">
        <ele>81.3</ele>
        <time>2022-10-05T12:15:04Z</time>
      </trkpt>
      <trkpt lat="49.73222" lon="2.35458">
        <ele>81.4</ele>
        <time>2022-10-05T12:15:05Z</time>
      </trkpt>
      <trkpt lat="49.73222" lon="2.3546">
        <ele>81.4</ele>
        <time>2022-10-05T12:15:06Z</time>
      </trkpt>
      <trkpt lat="49.73221" lon="2.35462">
        <ele>81.5</ele>
        <time>2022-10-05T12:15:07Z</time>
      </trkpt>
      <trkpt lat="49.73221" lon="2.35464">
        <ele>81.6</ele>
        <time>2022-10-05T12:15:08Z</time>
      </trkpt>
      <trkpt lat="49.73221" lon="2.35466">
        <ele>81.6</ele>
        <time>2022-10-05T12:15:09Z</time>
      </trkpt>
      <trkpt lat="49.7322" lon="2.35468">
        <ele>81.7</ele>
        <time>2022-10-05T12:15:11Z</time>
      </trkpt>
      <trkpt lat="49.7322" lon="2.35469">
        <ele>81.7</ele>
        <time>2022-10-05T12:15:12Z</time>
      </trkpt>
      <trkpt lat="49.73219" lon="2.35473">
        <ele>81.8</ele>
        <time>2022-10-05T12:15:13Z</time>
      </trkpt>
      <trkpt lat="49.73219" lon="2.35475">
        <ele>81.9</ele>
        <time>2022-10-05T12:15:15Z</time>
      </trkpt>
      <trkpt lat="49.73218" lon="2.35476">
        <ele>82</ele>
        <time>2022-10-05T12:15:16Z</time>
      </trkpt>
      <trkpt lat="49.73218" lon="2.35478">
        <ele>82</ele>
        <time>2022-10-05T12:15:17Z</time>
      </trkpt>
      <trkpt lat="49.73217" lon="2.35481">
        <ele>82.1</ele>
        <time>2022-10-05T12:15:18Z</time>
      </trkpt>
      <trkpt lat="49.73217" lon="2.35482">
        <ele>82.1</ele>
        <time>2022-10-05T12:15:19Z</time>
      </trkpt>
      <trkpt lat="49.73216" lon="2.35483">
        <ele>82.2</ele>
        <time>2022-10-05T12:15:20Z</time>
      </trkpt>
      <trkpt lat="49.73216" lon="2.35484">
        <ele>82.2</ele>
        <time>2022-10-05T12:15:21Z</time>
      </trkpt>
      <trkpt lat="49.73215" lon="2.35486">
        <ele>82.3</ele>
        <time>2022-10-05T12:15:22Z</time>
      </trkpt>
      <trkpt lat="49.73214" lon="2.35489">
        <ele>82.4</ele>
        <time>2022-10-05T12:15:24Z</time>
      </trkpt>
      <trkpt lat="49.73213" lon="2.35492">
        <ele>82.5</ele>
        <time>2022-10-05T12:15:25Z</time>
      </trkpt>
      <trkpt lat="49.73213" lon="2.35493">
        <ele>82.5</ele>
        <time>2022-10-05T12:15:26Z</time>
      </trkpt>
      <trkpt lat="49.73212" lon="2.35494">
        <ele>82.6</ele>
        <time>2022-10-05T12:15:27Z</time>
      </trkpt>
      <trkpt lat="49.73211" lon="2.35497">
        <ele>82.7</ele>
        <time>2022-10-05T12:15:28Z</time>
      </trkpt>
      <trkpt lat="49.73211" lon="2.35498">
        <ele>82.7</ele>
        <time>2022-10-05T12:15:29Z</time>
      </trkpt>
      <trkpt lat="49.7321" lon="2.35501">
        <ele>82.8</ele>
        <time>2022-10-05T12:15:31Z</time>
      </trkpt>
      <trkpt lat="49.73209" lon="2.35502">
        <ele>82.9</ele>
        <time>2022-10-05T12:15:32Z</time>
      </trkpt>
      <trkpt lat="49.73209" lon="2.35504">
        <ele>82.9</ele>
        <time>2022-10-05T12:15:33Z</time>
      </trkpt>
      <trkpt lat="49.73208" lon="2.35505">
        <ele>83</ele>
        <time>2022-10-05T12:15:34Z</time>
      </trkpt>
      <trkpt lat="49.73208" lon="2.35506">
        <ele>83</ele>
        <time>2022-10-05T12:15:35Z</time>
      </trkpt>
      <trkpt lat="49.73208" lon="2.35508">
        <ele>83.1</ele>
        <time>2022-10-05T12:15:36Z</time>
      </trkpt>
      <trkpt lat="49.73207" lon="2.3551">
        <ele>83.1</ele>
        <time>2022-10-05T12:15:37Z</time>
      </trkpt>
      <trkpt lat="49.73206" lon="2.35512">
        <ele>83.2</ele>
        <time>2022-10-05T12:15:38Z</time>
      </trkpt>
      <trkpt lat="49.73206" lon="2.35514">
        <ele>83.3</ele>
        <time>2022-10-05T12:15:39Z</time>
      </trkpt>
      <trkpt lat="49.73205" lon="2.35515">
        <ele>83.3</ele>
        <time>2022-10-05T12:15:40Z</time>
      </trkpt>
      <trkpt lat="49.73205" lon="2.35517">
        <ele>83.4</ele>
        <time>2022-10-05T12:15:42Z</time>
      </trkpt>
      <trkpt lat="49.73204" lon="2.35519">
        <ele>83.5</ele>
        <time>2022-10-05T12:15:43Z</time>
      </trkpt>
      <trkpt lat="49.73203" lon="2.35521">
        <ele>83.6</ele>
        <time>2022-10-05T12:15:44Z</time>
      </trkpt>
      <trkpt lat="49.73203" lon="2.35522">
        <ele>83.6</ele>
        <time>2022-10-05T12:15:45Z</time>
      </trkpt>
      <trkpt lat="49.73203" lon="2.35524">
        <ele>83.7</ele>
        <time>2022-10-05T12:15:46Z</time>
      </trkpt>
      <trkpt lat="49.73202" lon="2.35526">
        <ele>83.7</ele>
        <time>2022-10-05T12:15:47Z</time>
      </trkpt>
      <trkpt lat="49.73202" lon="2.3553">
        <ele>83.9</ele>
        <time>2022-10-05T12:15:48Z</time>
      </trkpt>
      <trkpt lat="49.73202" lon="2.35532">
        <ele>84</ele>
        <time>2022-10-05T12:15:50Z</time>
      </trkpt>
      <trkpt lat="49.73202" lon="2.35533">
        <ele>84</ele>
        <time>2022-10-05T12:15:51Z</time>
      </trkpt>
      <trkpt lat="49.73202" lon="2.35535">
        <ele>84.1</ele>
        <time>2022-10-05T12:15:52Z</time>
      </trkpt>
      <trkpt lat="49.73202" lon="2.35537">
        <ele>84.2</ele>
        <time>2022-10-05T12:15:53Z</time>
      </trkpt>
      <trkpt lat="49.73202" lon="2.3554">
        <ele>84.3</ele>
        <time>2022-10-05T12:15:55Z</time>
      </trkpt>
      <trkpt lat="49.73202" lon="2.35541">
        <ele>84.3</ele>
        <time>2022-10-05T12:15:56Z</time>
      </trkpt>
      <trkpt lat="49.73202" lon="2.35542">
        <ele>84.4</ele>
        <time>2022-10-05T12:15:57Z</time>
      </trkpt>
      <trkpt lat="49.73202" lon="2.35545">
        <ele>84.4</ele>
        <time>2022-10-05T12:15:59Z</time>
      </trkpt>
      <trkpt lat="49.73201" lon="2.35545">
        <ele>84.5</ele>
        <time>2022-10-05T12:16:00Z</time>
      </trkpt>
      <trkpt lat="49.73201" lon="2.35547">
        <ele>84.5</ele>
        <time>2022-10-05T12:16:01Z</time>
      </trkpt>
      <trkpt lat="49.73201" lon="2.35548">
        <ele>84.6</ele>
        <time>2022-10-05T12:16:02Z</time>
      </trkpt>
      <trkpt lat="49.73201" lon="2.3555">
        <ele>84.6</ele>
        <time>2022-10-05T12:16:03Z</time>
      </trkpt>
      <trkpt lat="49.732" lon="2.35551">
        <ele>84.7</ele>
        <time>2022-10-05T12:16:04Z</time>
      </trkpt>
      <trkpt lat="49.732" lon="2.35553">
        <ele>84.8</ele>
        <time>2022-10-05T12:16:06Z</time>
      </trkpt>
      <trkpt lat="49.732" lon="2.35554">
        <ele>84.8</ele>
        <time>2022-10-05T12:16:07Z</time>
      </trkpt>
      <trkpt lat="49.73199" lon="2.35556">
        <ele>84.9</ele>
        <time>2022-10-05T12:16:08Z</time>
      </trkpt>
      <trkpt lat="49.73199" lon="2.35558">
        <ele>85</ele>
        <time>2022-10-05T12:16:09Z</time>
      </trkpt>
      <trkpt lat="49.73198" lon="2.3556">
        <ele>85</ele>
        <time>2022-10-05T12:16:10Z</time>
      </trkpt>
      <trkpt lat="49.73197" lon="2.35563">
        <ele>85.2</ele>
        <time>2022-10-05T12:16:11Z</time>
      </trkpt>
      <trkpt lat="49.73197" lon="2.35565">
        <ele>85.2</ele>
        <time>2022-10-05T12:16:12Z</time>
      </trkpt>
      <trkpt lat="49.73197" lon="2.35567">
        <ele>85.3</ele>
        <time>2022-10-05T12:16:13Z</time>
      </trkpt>
      <trkpt lat="49.73197" lon="2.35568">
        <ele>85.3</ele>
        <time>2022-10-05T12:16:14Z</time>
      </trkpt>
      <trkpt lat="49.73196" lon="2.35569">
        <ele>85.4</ele>
        <time>2022-10-05T12:16:16Z</time>
      </trkpt>
      <trkpt lat="49.73196" lon="2.35571">
        <ele>85.5</ele>
        <time>2022-10-05T12:16:17Z</time>
      </trkpt>
      <trkpt lat="49.73195" lon="2.35573">
        <ele>85.5</ele>
        <time>2022-10-05T12:16:18Z</time>
      </trkpt>
      <trkpt lat="49.73195" lon="2.35576">
        <ele>85.6</ele>
        <time>2022-10-05T12:16:19Z</time>
      </trkpt>
      <trkpt lat="49.73194" lon="2.35579">
        <ele>85.8</ele>
        <time>2022-10-05T12:16:20Z</time>
      </trkpt>
      <trkpt lat="49.73194" lon="2.3558">
        <ele>85.8</ele>
        <time>2022-10-05T12:16:21Z</time>
      </trkpt>
      <trkpt lat="49.73193" lon="2.35582">
        <ele>85.9</ele>
        <time>2022-10-05T12:16:22Z</time>
      </trkpt>
      <trkpt lat="49.73193" lon="2.35585">
        <ele>86</ele>
        <time>2022-10-05T12:16:24Z</time>
      </trkpt>
      <trkpt lat="49.73193" lon="2.35587">
        <ele>86.1</ele>
        <time>2022-10-05T12:16:25Z</time>
      </trkpt>
      <trkpt lat="49.73192" lon="2.35589">
        <ele>86.2</ele>
        <time>2022-10-05T12:16:26Z</time>
      </trkpt>
      <trkpt lat="49.73191" lon="2.35591">
        <ele>86.3</ele>
        <time>2022-10-05T12:16:27Z</time>
      </trkpt>
      <trkpt lat="49.73191" lon="2.35595">
        <ele>86.4</ele>
        <time>2022-10-05T12:16:28Z</time>
      </trkpt>
      <trkpt lat="49.7319" lon="2.35596">
        <ele>86.5</ele>
        <time>2022-10-05T12:16:29Z</time>
      </trkpt>
      <trkpt lat="49.7319" lon="2.35598">
        <ele>86.6</ele>
        <time>2022-10-05T12:16:31Z</time>
      </trkpt>
      <trkpt lat="49.73189" lon="2.35601">
        <ele>86.7</ele>
        <time>2022-10-05T12:16:32Z</time>
      </trkpt>
      <trkpt lat="49.73189" lon="2.35604">
        <ele>86.8</ele>
        <time>2022-10-05T12:16:33Z</time>
      </trkpt>
      <trkpt lat="49.73189" lon="2.35605">
        <ele>86.8</ele>
        <time>2022-10-05T12:16:34Z</time>
      </trkpt>
      <trkpt lat="49.73188" lon="2.35606">
        <ele>86.9</ele>
        <time>2022-10-05T12:16:36Z</time>
      </trkpt>
      <trkpt lat="49.73188" lon="2.35608">
        <ele>86.9</ele>
        <time>2022-10-05T12:16:37Z</time>
      </trkpt>
      <trkpt lat="49.73188" lon="2.3561">
        <ele>87</ele>
        <time>2022-10-05T12:16:38Z</time>
      </trkpt>
      <trkpt lat="49.73187" lon="2.35612">
        <ele>87.1</ele>
        <time>2022-10-05T12:16:39Z</time>
      </trkpt>
      <trkpt lat="49.73187" lon="2.35614">
        <ele>87.2</ele>
        <time>2022-10-05T12:16:40Z</time>
      </trkpt>
      <trkpt lat="49.73186" lon="2.35615">
        <ele>87.2</ele>
        <time>2022-10-05T12:16:42Z</time>
      </trkpt>
      <trkpt lat="49.73185" lon="2.35617">
        <ele>87.3</ele>
        <time>2022-10-05T12:16:43Z</time>
      </trkpt>
      <trkpt lat="49.73185" lon="2.35618">
        <ele>87.4</ele>
        <time>2022-10-05T12:16:44Z</time>
      </trkpt>
      <trkpt lat="49.73184" lon="2.35619">
        <ele>87.4</ele>
        <time>2022-10-05T12:16:45Z</time>
      </trkpt>
      <trkpt lat="49.73184" lon="2.3562">
        <ele>87.4</ele>
        <time>2022-10-05T12:16:46Z</time>
      </trkpt>
      <trkpt lat="49.73184" lon="2.35621">
        <ele>87.5</ele>
        <time>2022-10-05T12:16:47Z</time>
      </trkpt>
      <trkpt lat="49.73183" lon="2.35623">
        <ele>87.6</ele>
        <time>2022-10-05T12:16:49Z</time>
      </trkpt>
      <trkpt lat="49.73183" lon="2.35625">
        <ele>87.6</ele>
        <time>2022-10-05T12:16:50Z</time>
      </trkpt>
      <trkpt lat="49.73183" lon="2.35627">
        <ele>87.7</ele>
        <time>2022-10-05T12:16:51Z</time>
      </trkpt>
      <trkpt lat="49.73182" lon="2.35629">
        <ele>87.7</ele>
        <time>2022-10-05T12:16:52Z</time>
      </trkpt>
      <trkpt lat="49.73181" lon="2.35632">
        <ele>87.8</ele>
        <time>2022-10-05T12:16:53Z</time>
      </trkpt>
      <trkpt lat="49.73181" lon="2.35633">
        <ele>87.9</ele>
        <time>2022-10-05T12:16:55Z</time>
      </trkpt>
      <trkpt lat="49.7318" lon="2.35634">
        <ele>87.9</ele>
        <time>2022-10-05T12:16:56Z</time>
      </trkpt>
      <trkpt lat="49.73179" lon="2.35636">
        <ele>88</ele>
        <time>2022-10-05T12:16:57Z</time>
      </trkpt>
      <trkpt lat="49.73179" lon="2.35637">
        <ele>88</ele>
        <time>2022-10-05T12:16:58Z</time>
      </trkpt>
      <trkpt lat="49.73178" lon="2.35638">
        <ele>88.1</ele>
        <time>2022-10-05T12:16:59Z</time>
      </trkpt>
      <trkpt lat="49.73178" lon="2.3564">
        <ele>88.1</ele>
        <time>2022-10-05T12:17:01Z</time>
      </trkpt>
      <trkpt lat="49.73177" lon="2.35643">
        <ele>88.2</ele>
        <time>2022-10-05T12:17:02Z</time>
      </trkpt>
      <trkpt lat="49.73177" lon="2.35645">
        <ele>88.2</ele>
        <time>2022-10-05T12:17:03Z</time>
      </trkpt>
      <trkpt lat="49.73176" lon="2.35647">
        <ele>88.3</ele>
        <time>2022-10-05T12:17:05Z</time>
      </trkpt>
      <trkpt lat="49.73176" lon="2.35649">
        <ele>88.4</ele>
        <time>2022-10-05T12:17:06Z</time>
      </trkpt>
      <trkpt lat="49.73175" lon="2.35652">
        <ele>88.4</ele>
        <time>2022-10-05T12:17:07Z</time>
      </trkpt>
      <trkpt lat="49.73175" lon="2.35654">
        <ele>88.5</ele>
        <time>2022-10-05T12:17:08Z</time>
      </trkpt>
      <trkpt lat="49.73175" lon="2.35656">
        <ele>88.5</ele>
        <time>2022-10-05T12:17:09Z</time>
      </trkpt>
      <trkpt lat="49.73174" lon="2.35657">
        <ele>88.6</ele>
        <time>2022-10-05T12:17:10Z</time>
      </trkpt>
      <trkpt lat="49.73174" lon="2.3566">
        <ele>88.6</ele>
        <time>2022-10-05T12:17:11Z</time>
      </trkpt>
      <trkpt lat="49.73173" lon="2.35663">
        <ele>88.7</ele>
        <time>2022-10-05T12:17:13Z</time>
      </trkpt>
      <trkpt lat="49.73172" lon="2.35666">
        <ele>88.8</ele>
        <time>2022-10-05T12:17:14Z</time>
      </trkpt>
      <trkpt lat="49.73172" lon="2.35668">
        <ele>88.8</ele>
        <time>2022-10-05T12:17:15Z</time>
      </trkpt>
      <trkpt lat="49.73172" lon="2.3567">
        <ele>88.9</ele>
        <time>2022-10-05T12:17:16Z</time>
      </trkpt>
      <trkpt lat="49.73171" lon="2.35672">
        <ele>88.9</ele>
        <time>2022-10-05T12:17:17Z</time>
      </trkpt>
      <trkpt lat="49.73171" lon="2.35674">
        <ele>89</ele>
        <time>2022-10-05T12:17:19Z</time>
      </trkpt>
      <trkpt lat="49.73171" lon="2.35675">
        <ele>89</ele>
        <time>2022-10-05T12:17:20Z</time>
      </trkpt>
      <trkpt lat="49.7317" lon="2.35677">
        <ele>89</ele>
        <time>2022-10-05T12:17:21Z</time>
      </trkpt>
      <trkpt lat="49.7317" lon="2.35679">
        <ele>89.1</ele>
        <time>2022-10-05T12:17:22Z</time>
      </trkpt>
      <trkpt lat="49.7317" lon="2.35681">
        <ele>89.1</ele>
        <time>2022-10-05T12:17:23Z</time>
      </trkpt>
      <trkpt lat="49.73169" lon="2.35683">
        <ele>89.2</ele>
        <time>2022-10-05T12:17:24Z</time>
      </trkpt>
      <trkpt lat="49.73169" lon="2.35686">
        <ele>89.2</ele>
        <time>2022-10-05T12:17:26Z</time>
      </trkpt>
      <trkpt lat="49.73168" lon="2.35689">
        <ele>89.3</ele>
        <time>2022-10-05T12:17:27Z</time>
      </trkpt>
      <trkpt lat="49.73168" lon="2.35691">
        <ele>89.3</ele>
        <time>2022-10-05T12:17:28Z</time>
      </trkpt>
      <trkpt lat="49.73167" lon="2.35694">
        <ele>89.4</ele>
        <time>2022-10-05T12:17:29Z</time>
      </trkpt>
      <trkpt lat="49.73167" lon="2.35696">
        <ele>89.4</ele>
        <time>2022-10-05T12:17:31Z</time>
      </trkpt>
      <trkpt lat="49.73167" lon="2.35697">
        <ele>89.5</ele>
        <time>2022-10-05T12:17:32Z</time>
      </trkpt>
      <trkpt lat="49.73166" lon="2.35699">
        <ele>89.5</ele>
        <time>2022-10-05T12:17:33Z</time>
      </trkpt>
      <trkpt lat="49.73166" lon="2.357">
        <ele>89.6</ele>
        <time>2022-10-05T12:17:34Z</time>
      </trkpt>
      <trkpt lat="49.73166" lon="2.35702">
        <ele>89.6</ele>
        <time>2022-10-05T12:17:35Z</time>
      </trkpt>
      <trkpt lat="49.73166" lon="2.35705">
        <ele>89.7</ele>
        <time>2022-10-05T12:17:37Z</time>
      </trkpt>
      <trkpt lat="49.73165" lon="2.35706">
        <ele>89.7</ele>
        <time>2022-10-05T12:17:38Z</time>
      </trkpt>
      <trkpt lat="49.73165" lon="2.35708">
        <ele>89.8</ele>
        <time>2022-10-05T12:17:39Z</time>
      </trkpt>
      <trkpt lat="49.73165" lon="2.3571">
        <ele>89.8</ele>
        <time>2022-10-05T12:17:40Z</time>
      </trkpt>
      <trkpt lat="49.73165" lon="2.35712">
        <ele>89.9</ele>
        <time>2022-10-05T12:17:41Z</time>
      </trkpt>
      <trkpt lat="49.73165" lon="2.35714">
        <ele>89.9</ele>
        <time>2022-10-05T12:17:42Z</time>
      </trkpt>
      <trkpt lat="49.73165" lon="2.35716">
        <ele>90</ele>
        <time>2022-10-05T12:17:43Z</time>
      </trkpt>
      <trkpt lat="49.73166" lon="2.35718">
        <ele>90</ele>
        <time>2022-10-05T12:17:44Z</time>
      </trkpt>
      <trkpt lat="49.73166" lon="2.35719">
        <ele>90.1</ele>
        <time>2022-10-05T12:17:45Z</time>
      </trkpt>
      <trkpt lat="49.73166" lon="2.35722">
        <ele>90.2</ele>
        <time>2022-10-05T12:17:47Z</time>
      </trkpt>
      <trkpt lat="49.73166" lon="2.35724">
        <ele>90.2</ele>
        <time>2022-10-05T12:17:48Z</time>
      </trkpt>
      <trkpt lat="49.73166" lon="2.35726">
        <ele>90.3</ele>
        <time>2022-10-05T12:17:49Z</time>
      </trkpt>
      <trkpt lat="49.73165" lon="2.35729">
        <ele>90.4</ele>
        <time>2022-10-05T12:17:50Z</time>
      </trkpt>
      <trkpt lat="49.73165" lon="2.35732">
        <ele>90.5</ele>
        <time>2022-10-05T12:17:52Z</time>
      </trkpt>
      <trkpt lat="49.73166" lon="2.35734">
        <ele>90.5</ele>
        <time>2022-10-05T12:17:53Z</time>
      </trkpt>
      <trkpt lat="49.73166" lon="2.35735">
        <ele>90.6</ele>
        <time>2022-10-05T12:17:54Z</time>
      </trkpt>
      <trkpt lat="49.73166" lon="2.35737">
        <ele>90.6</ele>
        <time>2022-10-05T12:17:55Z</time>
      </trkpt>
      <trkpt lat="49.73166" lon="2.35737">
        <ele>90.7</ele>
        <time>2022-10-05T12:17:56Z</time>
      </trkpt>
      <trkpt lat="49.73166" lon="2.35739">
        <ele>90.7</ele>
        <time>2022-10-05T12:17:57Z</time>
      </trkpt>
      <trkpt lat="49.73166" lon="2.35741">
        <ele>90.8</ele>
        <time>2022-10-05T12:17:58Z</time>
      </trkpt>
      <trkpt lat="49.73166" lon="2.35744">
        <ele>90.9</ele>
        <time>2022-10-05T12:17:59Z</time>
      </trkpt>
      <trkpt lat="49.73166" lon="2.35745">
        <ele>90.9</ele>
        <time>2022-10-05T12:18:00Z</time>
      </trkpt>
      <trkpt lat="49.73165" lon="2.35748">
        <ele>91</ele>
        <time>2022-10-05T12:18:01Z</time>
      </trkpt>
      <trkpt lat="49.73165" lon="2.35749">
        <ele>91</ele>
        <time>2022-10-05T12:18:03Z</time>
      </trkpt>
      <trkpt lat="49.73165" lon="2.3575">
        <ele>91.1</ele>
        <time>2022-10-05T12:18:04Z</time>
      </trkpt>
      <trkpt lat="49.73165" lon="2.35752">
        <ele>91.1</ele>
        <time>2022-10-05T12:18:05Z</time>
      </trkpt>
      <trkpt lat="49.73164" lon="2.35753">
        <ele>91.2</ele>
        <time>2022-10-05T12:18:06Z</time>
      </trkpt>
      <trkpt lat="49.73164" lon="2.35756">
        <ele>91.3</ele>
        <time>2022-10-05T12:18:07Z</time>
      </trkpt>
      <trkpt lat="49.73164" lon="2.35757">
        <ele>91.3</ele>
        <time>2022-10-05T12:18:08Z</time>
      </trkpt>
      <trkpt lat="49.73163" lon="2.35759">
        <ele>91.4</ele>
        <time>2022-10-05T12:18:09Z</time>
      </trkpt>
      <trkpt lat="49.73163" lon="2.3576">
        <ele>91.4</ele>
        <time>2022-10-05T12:18:10Z</time>
      </trkpt>
      <trkpt lat="49.73163" lon="2.35762">
        <ele>91.5</ele>
        <time>2022-10-05T12:18:11Z</time>
      </trkpt>
      <trkpt lat="49.73163" lon="2.35764">
        <ele>91.5</ele>
        <time>2022-10-05T12:18:12Z</time>
      </trkpt>
      <trkpt lat="49.73163" lon="2.35765">
        <ele>91.6</ele>
        <time>2022-10-05T12:18:14Z</time>
      </trkpt>
      <trkpt lat="49.73162" lon="2.35767">
        <ele>91.6</ele>
        <time>2022-10-05T12:18:15Z</time>
      </trkpt>
      <trkpt lat="49.73162" lon="2.35768">
        <ele>91.7</ele>
        <time>2022-10-05T12:18:16Z</time>
      </trkpt>
      <trkpt lat="49.73162" lon="2.3577">
        <ele>91.7</ele>
        <time>2022-10-05T12:18:17Z</time>
      </trkpt>
      <trkpt lat="49.73161" lon="2.35772">
        <ele>91.8</ele>
        <time>2022-10-05T12:18:18Z</time>
      </trkpt>
      <trkpt lat="49.73161" lon="2.35774">
        <ele>91.9</ele>
        <time>2022-10-05T12:18:19Z</time>
      </trkpt>
      <trkpt lat="49.7316" lon="2.35775">
        <ele>91.9</ele>
        <time>2022-10-05T12:18:20Z</time>
      </trkpt>
      <trkpt lat="49.7316" lon="2.35776">
        <ele>92</ele>
        <time>2022-10-05T12:18:21Z</time>
      </trkpt>
      <trkpt lat="49.73159" lon="2.35778">
        <ele>92.1</ele>
        <time>2022-10-05T12:18:22Z</time>
      </trkpt>
      <trkpt lat="49.73158" lon="2.35779">
        <ele>92.1</ele>
        <time>2022-10-05T12:18:24Z</time>
      </trkpt>
      <trkpt lat="49.73158" lon="2.35781">
        <ele>92.2</ele>
        <time>2022-10-05T12:18:25Z</time>
      </trkpt>
      <trkpt lat="49.73157" lon="2.35782">
        <ele>92.2</ele>
        <time>2022-10-05T12:18:26Z</time>
      </trkpt>
      <trkpt lat="49.73157" lon="2.35785">
        <ele>92.3</ele>
        <time>2022-10-05T12:18:28Z</time>
      </trkpt>
      <trkpt lat="49.73156" lon="2.35786">
        <ele>92.4</ele>
        <time>2022-10-05T12:18:29Z</time>
      </trkpt>
      <trkpt lat="49.73156" lon="2.35788">
        <ele>92.4</ele>
        <time>2022-10-05T12:18:30Z</time>
      </trkpt>
      <trkpt lat="49.73155" lon="2.35789">
        <ele>92.5</ele>
        <time>2022-10-05T12:18:31Z</time>
      </trkpt>
      <trkpt lat="49.73155" lon="2.35792">
        <ele>92.6</ele>
        <time>2022-10-05T12:18:32Z</time>
      </trkpt>
      <trkpt lat="49.73154" lon="2.35793">
        <ele>92.6</ele>
        <time>2022-10-05T12:18:33Z</time>
      </trkpt>
      <trkpt lat="49.73154" lon="2.35797">
        <ele>92.7</ele>
        <time>2022-10-05T12:18:35Z</time>
      </trkpt>
      <trkpt lat="49.73153" lon="2.35798">
        <ele>92.8</ele>
        <time>2022-10-05T12:18:36Z</time>
      </trkpt>
      <trkpt lat="49.73153" lon="2.35799">
        <ele>92.8</ele>
        <time>2022-10-05T12:18:37Z</time>
      </trkpt>
      <trkpt lat="49.73151" lon="2.35803">
        <ele>93</ele>
        <time>2022-10-05T12:18:38Z</time>
      </trkpt>
      <trkpt lat="49.73151" lon="2.35804">
        <ele>93</ele>
        <time>2022-10-05T12:18:39Z</time>
      </trkpt>
      <trkpt lat="49.7315" lon="2.35806">
        <ele>93.1</ele>
        <time>2022-10-05T12:18:40Z</time>
      </trkpt>
      <trkpt lat="49.7315" lon="2.35808">
        <ele>93.1</ele>
        <time>2022-10-05T12:18:42Z</time>
      </trkpt>
      <trkpt lat="49.73149" lon="2.35809">
        <ele>93.2</ele>
        <time>2022-10-05T12:18:43Z</time>
      </trkpt>
      <trkpt lat="49.73149" lon="2.35811">
        <ele>93.3</ele>
        <time>2022-10-05T12:18:44Z</time>
      </trkpt>
      <trkpt lat="49.73148" lon="2.35812">
        <ele>93.3</ele>
        <time>2022-10-05T12:18:45Z</time>
      </trkpt>
      <trkpt lat="49.73148" lon="2.35814">
        <ele>93.4</ele>
        <time>2022-10-05T12:18:46Z</time>
      </trkpt>
      <trkpt lat="49.73147" lon="2.35815">
        <ele>93.4</ele>
        <time>2022-10-05T12:18:47Z</time>
      </trkpt>
      <trkpt lat="49.73146" lon="2.35817">
        <ele>93.5</ele>
        <time>2022-10-05T12:18:49Z</time>
      </trkpt>
      <trkpt lat="49.73146" lon="2.35818">
        <ele>93.5</ele>
        <time>2022-10-05T12:18:50Z</time>
      </trkpt>
      <trkpt lat="49.73146" lon="2.3582">
        <ele>93.6</ele>
        <time>2022-10-05T12:18:51Z</time>
      </trkpt>
      <trkpt lat="49.73145" lon="2.35821">
        <ele>93.7</ele>
        <time>2022-10-05T12:18:52Z</time>
      </trkpt>
      <trkpt lat="49.73144" lon="2.35822">
        <ele>93.7</ele>
        <time>2022-10-05T12:18:53Z</time>
      </trkpt>
      <trkpt lat="49.73144" lon="2.35824">
        <ele>93.8</ele>
        <time>2022-10-05T12:18:55Z</time>
      </trkpt>
      <trkpt lat="49.73143" lon="2.35825">
        <ele>93.8</ele>
        <time>2022-10-05T12:18:56Z</time>
      </trkpt>
      <trkpt lat="49.73142" lon="2.35829">
        <ele>93.9</ele>
        <time>2022-10-05T12:18:57Z</time>
      </trkpt>
      <trkpt lat="49.73142" lon="2.3583">
        <ele>94</ele>
        <time>2022-10-05T12:18:58Z</time>
      </trkpt>
      <trkpt lat="49.73142" lon="2.35831">
        <ele>94</ele>
        <time>2022-10-05T12:18:59Z</time>
      </trkpt>
      <trkpt lat="49.73141" lon="2.35832">
        <ele>94.1</ele>
        <time>2022-10-05T12:19:00Z</time>
      </trkpt>
      <trkpt lat="49.73141" lon="2.35834">
        <ele>94.1</ele>
        <time>2022-10-05T12:19:01Z</time>
      </trkpt>
      <trkpt lat="49.73141" lon="2.35835">
        <ele>94.2</ele>
        <time>2022-10-05T12:19:02Z</time>
      </trkpt>
      <trkpt lat="49.7314" lon="2.35837">
        <ele>94.3</ele>
        <time>2022-10-05T12:19:04Z</time>
      </trkpt>
      <trkpt lat="49.73139" lon="2.3584">
        <ele>94.3</ele>
        <time>2022-10-05T12:19:05Z</time>
      </trkpt>
      <trkpt lat="49.73139" lon="2.35842">
        <ele>94.4</ele>
        <time>2022-10-05T12:19:06Z</time>
      </trkpt>
      <trkpt lat="49.73138" lon="2.35843">
        <ele>94.5</ele>
        <time>2022-10-05T12:19:07Z</time>
      </trkpt>
      <trkpt lat="49.73138" lon="2.35844">
        <ele>94.5</ele>
        <time>2022-10-05T12:19:08Z</time>
      </trkpt>
      <trkpt lat="49.73137" lon="2.35847">
        <ele>94.6</ele>
        <time>2022-10-05T12:19:10Z</time>
      </trkpt>
      <trkpt lat="49.73137" lon="2.35848">
        <ele>94.7</ele>
        <time>2022-10-05T12:19:11Z</time>
      </trkpt>
      <trkpt lat="49.73136" lon="2.35849">
        <ele>94.7</ele>
        <time>2022-10-05T12:19:12Z</time>
      </trkpt>
      <trkpt lat="49.73136" lon="2.3585">
        <ele>94.8</ele>
        <time>2022-10-05T12:19:13Z</time>
      </trkpt>
      <trkpt lat="49.73136" lon="2.35851">
        <ele>94.8</ele>
        <time>2022-10-05T12:19:14Z</time>
      </trkpt>
      <trkpt lat="49.73135" lon="2.35853">
        <ele>94.9</ele>
        <time>2022-10-05T12:19:15Z</time>
      </trkpt>
      <trkpt lat="49.73134" lon="2.35855">
        <ele>94.9</ele>
        <time>2022-10-05T12:19:16Z</time>
      </trkpt>
      <trkpt lat="49.73134" lon="2.35855">
        <ele>95</ele>
        <time>2022-10-05T12:19:17Z</time>
      </trkpt>
      <trkpt lat="49.73134" lon="2.35857">
        <ele>95</ele>
        <time>2022-10-05T12:19:18Z</time>
      </trkpt>
      <trkpt lat="49.73133" lon="2.3586">
        <ele>95.2</ele>
        <time>2022-10-05T12:19:19Z</time>
      </trkpt>
      <trkpt lat="49.73132" lon="2.35862">
        <ele>95.2</ele>
        <time>2022-10-05T12:19:21Z</time>
      </trkpt>
      <trkpt lat="49.73132" lon="2.35863">
        <ele>95.3</ele>
        <time>2022-10-05T12:19:22Z</time>
      </trkpt>
      <trkpt lat="49.73132" lon="2.35865">
        <ele>95.3</ele>
        <time>2022-10-05T12:19:23Z</time>
      </trkpt>
      <trkpt lat="49.73131" lon="2.35866">
        <ele>95.4</ele>
        <time>2022-10-05T12:19:24Z</time>
      </trkpt>
      <trkpt lat="49.73131" lon="2.35869">
        <ele>95.5</ele>
        <time>2022-10-05T12:19:26Z</time>
      </trkpt>
      <trkpt lat="49.7313" lon="2.35871">
        <ele>95.6</ele>
        <time>2022-10-05T12:19:27Z</time>
      </trkpt>
      <trkpt lat="49.7313" lon="2.35874">
        <ele>95.7</ele>
        <time>2022-10-05T12:19:28Z</time>
      </trkpt>
      <trkpt lat="49.73129" lon="2.35875">
        <ele>95.7</ele>
        <time>2022-10-05T12:19:29Z</time>
      </trkpt>
      <trkpt lat="49.73128" lon="2.35878">
        <ele>95.8</ele>
        <time>2022-10-05T12:19:31Z</time>
      </trkpt>
      <trkpt lat="49.73128" lon="2.35879">
        <ele>95.9</ele>
        <time>2022-10-05T12:19:32Z</time>
      </trkpt>
      <trkpt lat="49.73127" lon="2.35881">
        <ele>96</ele>
        <time>2022-10-05T12:19:33Z</time>
      </trkpt>
      <trkpt lat="49.73126" lon="2.35883">
        <ele>96.1</ele>
        <time>2022-10-05T12:19:34Z</time>
      </trkpt>
      <trkpt lat="49.73126" lon="2.35885">
        <ele>96.2</ele>
        <time>2022-10-05T12:19:35Z</time>
      </trkpt>
      <trkpt lat="49.73125" lon="2.35887">
        <ele>96.3</ele>
        <time>2022-10-05T12:19:36Z</time>
      </trkpt>
      <trkpt lat="49.73124" lon="2.35889">
        <ele>96.4</ele>
        <time>2022-10-05T12:19:37Z</time>
      </trkpt>
      <trkpt lat="49.73124" lon="2.35891">
        <ele>96.5</ele>
        <time>2022-10-05T12:19:38Z</time>
      </trkpt>
      <trkpt lat="49.73123" lon="2.35893">
        <ele>96.5</ele>
        <time>2022-10-05T12:19:40Z</time>
      </trkpt>
      <trkpt lat="49.73122" lon="2.35895">
        <ele>96.6</ele>
        <time>2022-10-05T12:19:41Z</time>
      </trkpt>
      <trkpt lat="49.73121" lon="2.35896">
        <ele>96.7</ele>
        <time>2022-10-05T12:19:42Z</time>
      </trkpt>
      <trkpt lat="49.73121" lon="2.35897">
        <ele>96.8</ele>
        <time>2022-10-05T12:19:43Z</time>
      </trkpt>
      <trkpt lat="49.7312" lon="2.35899">
        <ele>96.8</ele>
        <time>2022-10-05T12:19:44Z</time>
      </trkpt>
      <trkpt lat="49.7312" lon="2.35901">
        <ele>96.9</ele>
        <time>2022-10-05T12:19:46Z</time>
      </trkpt>
      <trkpt lat="49.73119" lon="2.35904">
        <ele>97</ele>
        <time>2022-10-05T12:19:47Z</time>
      </trkpt>
      <trkpt lat="49.73118" lon="2.35905">
        <ele>97.1</ele>
        <time>2022-10-05T12:19:48Z</time>
      </trkpt>
      <trkpt lat="49.73118" lon="2.35908">
        <ele>97.2</ele>
        <time>2022-10-05T12:19:49Z</time>
      </trkpt>
      <trkpt lat="49.73118" lon="2.3591">
        <ele>97.3</ele>
        <time>2022-10-05T12:19:50Z</time>
      </trkpt>
      <trkpt lat="49.73117" lon="2.35912">
        <ele>97.4</ele>
        <time>2022-10-05T12:19:52Z</time>
      </trkpt>
      <trkpt lat="49.73117" lon="2.35914">
        <ele>97.5</ele>
        <time>2022-10-05T12:19:53Z</time>
      </trkpt>
      <trkpt lat="49.73117" lon="2.35917">
        <ele>97.6</ele>
        <time>2022-10-05T12:19:54Z</time>
      </trkpt>
      <trkpt lat="49.73117" lon="2.35919">
        <ele>97.7</ele>
        <time>2022-10-05T12:19:55Z</time>
      </trkpt>
      <trkpt lat="49.73117" lon="2.3592">
        <ele>97.7</ele>
        <time>2022-10-05T12:19:56Z</time>
      </trkpt>
      <trkpt lat="49.73116" lon="2.35923">
        <ele>97.9</ele>
        <time>2022-10-05T12:19:57Z</time>
      </trkpt>
      <trkpt lat="49.73115" lon="2.35924">
        <ele>97.9</ele>
        <time>2022-10-05T12:19:58Z</time>
      </trkpt>
      <trkpt lat="49.73115" lon="2.35926">
        <ele>98</ele>
        <time>2022-10-05T12:19:59Z</time>
      </trkpt>
      <trkpt lat="49.73114" lon="2.35929">
        <ele>98.1</ele>
        <time>2022-10-05T12:20:00Z</time>
      </trkpt>
      <trkpt lat="49.73114" lon="2.3593">
        <ele>98.2</ele>
        <time>2022-10-05T12:20:02Z</time>
      </trkpt>
      <trkpt lat="49.73113" lon="2.35931">
        <ele>98.2</ele>
        <time>2022-10-05T12:20:03Z</time>
      </trkpt>
      <trkpt lat="49.73112" lon="2.35933">
        <ele>98.3</ele>
        <time>2022-10-05T12:20:04Z</time>
      </trkpt>
      <trkpt lat="49.73111" lon="2.35934">
        <ele>98.4</ele>
        <time>2022-10-05T12:20:05Z</time>
      </trkpt>
      <trkpt lat="49.7311" lon="2.35935">
        <ele>98.5</ele>
        <time>2022-10-05T12:20:06Z</time>
      </trkpt>
      <trkpt lat="49.73109" lon="2.35936">
        <ele>98.5</ele>
        <time>2022-10-05T12:20:07Z</time>
      </trkpt>
      <trkpt lat="49.73109" lon="2.35938">
        <ele>98.6</ele>
        <time>2022-10-05T12:20:08Z</time>
      </trkpt>
      <trkpt lat="49.73107" lon="2.35941">
        <ele>98.8</ele>
        <time>2022-10-05T12:20:10Z</time>
      </trkpt>
      <trkpt lat="49.73107" lon="2.35942">
        <ele>98.8</ele>
        <time>2022-10-05T12:20:11Z</time>
      </trkpt>
      <trkpt lat="49.73106" lon="2.35945">
        <ele>98.9</ele>
        <time>2022-10-05T12:20:12Z</time>
      </trkpt>
      <trkpt lat="49.73106" lon="2.35946">
        <ele>99</ele>
        <time>2022-10-05T12:20:13Z</time>
      </trkpt>
      <trkpt lat="49.73105" lon="2.35947">
        <ele>99</ele>
        <time>2022-10-05T12:20:14Z</time>
      </trkpt>
      <trkpt lat="49.73105" lon="2.35948">
        <ele>99.1</ele>
        <time>2022-10-05T12:20:15Z</time>
      </trkpt>
      <trkpt lat="49.73104" lon="2.35949">
        <ele>99.1</ele>
        <time>2022-10-05T12:20:16Z</time>
      </trkpt>
      <trkpt lat="49.73104" lon="2.35951">
        <ele>99.2</ele>
        <time>2022-10-05T12:20:17Z</time>
      </trkpt>
      <trkpt lat="49.73103" lon="2.35953">
        <ele>99.3</ele>
        <time>2022-10-05T12:20:18Z</time>
      </trkpt>
      <trkpt lat="49.73102" lon="2.35955">
        <ele>99.4</ele>
        <time>2022-10-05T12:20:20Z</time>
      </trkpt>
      <trkpt lat="49.73102" lon="2.35955">
        <ele>99.4</ele>
        <time>2022-10-05T12:20:21Z</time>
      </trkpt>
      <trkpt lat="49.73101" lon="2.35955">
        <ele>99.4</ele>
        <time>2022-10-05T12:20:22Z</time>
      </trkpt>
      <trkpt lat="49.73101" lon="2.35956">
        <ele>99.5</ele>
        <time>2022-10-05T12:20:23Z</time>
      </trkpt>
      <trkpt lat="49.73101" lon="2.35957">
        <ele>99.5</ele>
        <time>2022-10-05T12:20:24Z</time>
      </trkpt>
      <trkpt lat="49.731" lon="2.3596">
        <ele>99.6</ele>
        <time>2022-10-05T12:20:26Z</time>
      </trkpt>
      <trkpt lat="49.73099" lon="2.35961">
        <ele>99.7</ele>
        <time>2022-10-05T12:20:27Z</time>
      </trkpt>
      <trkpt lat="49.73099" lon="2.35962">
        <ele>99.7</ele>
        <time>2022-10-05T12:20:28Z</time>
      </trkpt>
      <trkpt lat="49.73098" lon="2.35964">
        <ele>99.8</ele>
        <time>2022-10-05T12:20:29Z</time>
      </trkpt>
      <trkpt lat="49.73098" lon="2.35967">
        <ele>99.9</ele>
        <time>2022-10-05T12:20:30Z</time>
      </trkpt>
      <trkpt lat="49.73098" lon="2.35968">
        <ele>100</ele>
        <time>2022-10-05T12:20:31Z</time>
      </trkpt>
      <trkpt lat="49.73097" lon="2.3597">
        <ele>100</ele>
        <time>2022-10-05T12:20:33Z</time>
      </trkpt>
      <trkpt lat="49.73097" lon="2.35972">
        <ele>100</ele>
        <time>2022-10-05T12:20:34Z</time>
      </trkpt>
      <trkpt lat="49.73096" lon="2.35975">
        <ele>100.2</ele>
        <time>2022-10-05T12:20:35Z</time>
      </trkpt>
      <trkpt lat="49.73095" lon="2.35977">
        <ele>100.2</ele>
        <time>2022-10-05T12:20:37Z</time>
      </trkpt>
      <trkpt lat="49.73095" lon="2.35978">
        <ele>100.3</ele>
        <time>2022-10-05T12:20:38Z</time>
      </trkpt>
      <trkpt lat="49.73094" lon="2.35979">
        <ele>100.4</ele>
        <time>2022-10-05T12:20:39Z</time>
      </trkpt>
      <trkpt lat="49.73094" lon="2.35981">
        <ele>100.4</ele>
        <time>2022-10-05T12:20:40Z</time>
      </trkpt>
      <trkpt lat="49.73093" lon="2.35983">
        <ele>100.5</ele>
        <time>2022-10-05T12:20:41Z</time>
      </trkpt>
      <trkpt lat="49.73092" lon="2.35985">
        <ele>100.6</ele>
        <time>2022-10-05T12:20:42Z</time>
      </trkpt>
      <trkpt lat="49.73091" lon="2.35987">
        <ele>100.7</ele>
        <time>2022-10-05T12:20:43Z</time>
      </trkpt>
      <trkpt lat="49.73091" lon="2.35989">
        <ele>100.7</ele>
        <time>2022-10-05T12:20:44Z</time>
      </trkpt>
      <trkpt lat="49.7309" lon="2.35991">
        <ele>100.9</ele>
        <time>2022-10-05T12:20:46Z</time>
      </trkpt>
      <trkpt lat="49.73089" lon="2.35993">
        <ele>100.9</ele>
        <time>2022-10-05T12:20:47Z</time>
      </trkpt>
      <trkpt lat="49.73089" lon="2.35994">
        <ele>101</ele>
        <time>2022-10-05T12:20:48Z</time>
      </trkpt>
      <trkpt lat="49.73088" lon="2.35996">
        <ele>101</ele>
        <time>2022-10-05T12:20:49Z</time>
      </trkpt>
      <trkpt lat="49.73087" lon="2.35999">
        <ele>101.1</ele>
        <time>2022-10-05T12:20:50Z</time>
      </trkpt>
      <trkpt lat="49.73087" lon="2.36">
        <ele>101.2</ele>
        <time>2022-10-05T12:20:51Z</time>
      </trkpt>
      <trkpt lat="49.73086" lon="2.36001">
        <ele>101.2</ele>
        <time>2022-10-05T12:20:52Z</time>
      </trkpt>
      <trkpt lat="49.73086" lon="2.36003">
        <ele>101.2</ele>
        <time>2022-10-05T12:20:53Z</time>
      </trkpt>
      <trkpt lat="49.73085" lon="2.36005">
        <ele>101.3</ele>
        <time>2022-10-05T12:20:55Z</time>
      </trkpt>
      <trkpt lat="49.73084" lon="2.36008">
        <ele>101.4</ele>
        <time>2022-10-05T12:20:56Z</time>
      </trkpt>
      <trkpt lat="49.73084" lon="2.3601">
        <ele>101.5</ele>
        <time>2022-10-05T12:20:57Z</time>
      </trkpt>
      <trkpt lat="49.73083" lon="2.36011">
        <ele>101.5</ele>
        <time>2022-10-05T12:20:58Z</time>
      </trkpt>
      <trkpt lat="49.73082" lon="2.36012">
        <ele>101.6</ele>
        <time>2022-10-05T12:20:59Z</time>
      </trkpt>
      <trkpt lat="49.73082" lon="2.36014">
        <ele>101.7</ele>
        <time>2022-10-05T12:21:00Z</time>
      </trkpt>
      <trkpt lat="49.73082" lon="2.36014">
        <ele>101.7</ele>
        <time>2022-10-05T12:21:01Z</time>
      </trkpt>
      <trkpt lat="49.73082" lon="2.36015">
        <ele>101.7</ele>
        <time>2022-10-05T12:21:03Z</time>
      </trkpt>
      <trkpt lat="49.73081" lon="2.36017">
        <ele>101.8</ele>
        <time>2022-10-05T12:21:04Z</time>
      </trkpt>
      <trkpt lat="49.73081" lon="2.36019">
        <ele>101.8</ele>
        <time>2022-10-05T12:21:05Z</time>
      </trkpt>
      <trkpt lat="49.7308" lon="2.36021">
        <ele>101.9</ele>
        <time>2022-10-05T12:21:06Z</time>
      </trkpt>
      <trkpt lat="49.7308" lon="2.36023">
        <ele>101.9</ele>
        <time>2022-10-05T12:21:07Z</time>
      </trkpt>
      <trkpt lat="49.73079" lon="2.36026">
        <ele>102</ele>
        <time>2022-10-05T12:21:08Z</time>
      </trkpt>
      <trkpt lat="49.73079" lon="2.36028">
        <ele>102.1</ele>
        <time>2022-10-05T12:21:10Z</time>
      </trkpt>
      <trkpt lat="49.73078" lon="2.3603">
        <ele>102.2</ele>
        <time>2022-10-05T12:21:11Z</time>
      </trkpt>
      <trkpt lat="49.73078" lon="2.36032">
        <ele>102.2</ele>
        <time>2022-10-05T12:21:12Z</time>
      </trkpt>
      <trkpt lat="49.73077" lon="2.36035">
        <ele>102.3</ele>
        <time>2022-10-05T12:21:13Z</time>
      </trkpt>
      <trkpt lat="49.73077" lon="2.36037">
        <ele>102.4</ele>
        <time>2022-10-05T12:21:14Z</time>
      </trkpt>
      <trkpt lat="49.73077" lon="2.36039">
        <ele>102.5</ele>
        <time>2022-10-05T12:21:15Z</time>
      </trkpt>
      <trkpt lat="49.73076" lon="2.36041">
        <ele>102.5</ele>
        <time>2022-10-05T12:21:16Z</time>
      </trkpt>
      <trkpt lat="49.73076" lon="2.36043">
        <ele>102.6</ele>
        <time>2022-10-05T12:21:18Z</time>
      </trkpt>
      <trkpt lat="49.73076" lon="2.36046">
        <ele>102.7</ele>
        <time>2022-10-05T12:21:19Z</time>
      </trkpt>
      <trkpt lat="49.73076" lon="2.36048">
        <ele>102.8</ele>
        <time>2022-10-05T12:21:20Z</time>
      </trkpt>
      <trkpt lat="49.73076" lon="2.36049">
        <ele>102.8</ele>
        <time>2022-10-05T12:21:21Z</time>
      </trkpt>
      <trkpt lat="49.73075" lon="2.36051">
        <ele>102.9</ele>
        <time>2022-10-05T12:21:22Z</time>
      </trkpt>
      <trkpt lat="49.73075" lon="2.36054">
        <ele>103</ele>
        <time>2022-10-05T12:21:23Z</time>
      </trkpt>
      <trkpt lat="49.73075" lon="2.36056">
        <ele>103.1</ele>
        <time>2022-10-05T12:21:25Z</time>
      </trkpt>
      <trkpt lat="49.73074" lon="2.36059">
        <ele>103.2</ele>
        <time>2022-10-05T12:21:26Z</time>
      </trkpt>
      <trkpt lat="49.73073" lon="2.36062">
        <ele>103.3</ele>
        <time>2022-10-05T12:21:27Z</time>
      </trkpt>
      <trkpt lat="49.73073" lon="2.36063">
        <ele>103.3</ele>
        <time>2022-10-05T12:21:28Z</time>
      </trkpt>
      <trkpt lat="49.73073" lon="2.36064">
        <ele>103.3</ele>
        <time>2022-10-05T12:21:29Z</time>
      </trkpt>
      <trkpt lat="49.73071" lon="2.36067">
        <ele>103.5</ele>
        <time>2022-10-05T12:21:30Z</time>
      </trkpt>
      <trkpt lat="49.73071" lon="2.36069">
        <ele>103.5</ele>
        <time>2022-10-05T12:21:32Z</time>
      </trkpt>
      <trkpt lat="49.7307" lon="2.3607">
        <ele>103.6</ele>
        <time>2022-10-05T12:21:33Z</time>
      </trkpt>
      <trkpt lat="49.7307" lon="2.36072">
        <ele>103.7</ele>
        <time>2022-10-05T12:21:34Z</time>
      </trkpt>
      <trkpt lat="49.73069" lon="2.36073">
        <ele>103.7</ele>
        <time>2022-10-05T12:21:35Z</time>
      </trkpt>
      <trkpt lat="49.73069" lon="2.36075">
        <ele>103.8</ele>
        <time>2022-10-05T12:21:36Z</time>
      </trkpt>
      <trkpt lat="49.73068" lon="2.36076">
        <ele>103.9</ele>
        <time>2022-10-05T12:21:38Z</time>
      </trkpt>
      <trkpt lat="49.73068" lon="2.36075">
        <ele>103.9</ele>
        <time>2022-10-05T12:21:39Z</time>
      </trkpt>
      <trkpt lat="49.73067" lon="2.36076">
        <ele>103.9</ele>
        <time>2022-10-05T12:21:40Z</time>
      </trkpt>
      <trkpt lat="49.73067" lon="2.36077">
        <ele>103.9</ele>
        <time>2022-10-05T12:21:41Z</time>
      </trkpt>
      <trkpt lat="49.73066" lon="2.36077">
        <ele>104</ele>
        <time>2022-10-05T12:21:42Z</time>
      </trkpt>
      <trkpt lat="49.73066" lon="2.36078">
        <ele>104</ele>
        <time>2022-10-05T12:21:43Z</time>
      </trkpt>
      <trkpt lat="49.73065" lon="2.3608">
        <ele>104.1</ele>
        <time>2022-10-05T12:21:44Z</time>
      </trkpt>
      <trkpt lat="49.73065" lon="2.36081">
        <ele>104.2</ele>
        <time>2022-10-05T12:21:45Z</time>
      </trkpt>
      <trkpt lat="49.73064" lon="2.36083">
        <ele>104.3</ele>
        <time>2022-10-05T12:21:46Z</time>
      </trkpt>
      <trkpt lat="49.73063" lon="2.36085">
        <ele>104.3</ele>
        <time>2022-10-05T12:21:47Z</time>
      </trkpt>
      <trkpt lat="49.73062" lon="2.36087">
        <ele>104.5</ele>
        <time>2022-10-05T12:21:48Z</time>
      </trkpt>
      <trkpt lat="49.73061" lon="2.36088">
        <ele>104.5</ele>
        <time>2022-10-05T12:21:49Z</time>
      </trkpt>
      <trkpt lat="49.7306" lon="2.36088">
        <ele>104.5</ele>
        <time>2022-10-05T12:21:50Z</time>
      </trkpt>
      <trkpt lat="49.73059" lon="2.36089">
        <ele>104.6</ele>
        <time>2022-10-05T12:21:51Z</time>
      </trkpt>
      <trkpt lat="49.73058" lon="2.36091">
        <ele>104.6</ele>
        <time>2022-10-05T12:21:53Z</time>
      </trkpt>
      <trkpt lat="49.73058" lon="2.36092">
        <ele>104.7</ele>
        <time>2022-10-05T12:21:54Z</time>
      </trkpt>
      <trkpt lat="49.73057" lon="2.36092">
        <ele>104.8</ele>
        <time>2022-10-05T12:21:55Z</time>
      </trkpt>
      <trkpt lat="49.73056" lon="2.36093">
        <ele>104.8</ele>
        <time>2022-10-05T12:21:56Z</time>
      </trkpt>
      <trkpt lat="49.73055" lon="2.36093">
        <ele>104.9</ele>
        <time>2022-10-05T12:21:57Z</time>
      </trkpt>
      <trkpt lat="49.73054" lon="2.36094">
        <ele>105</ele>
        <time>2022-10-05T12:21:58Z</time>
      </trkpt>
      <trkpt lat="49.73053" lon="2.36092">
        <ele>105.1</ele>
        <time>2022-10-05T12:21:59Z</time>
      </trkpt>
      <trkpt lat="49.73052" lon="2.36091">
        <ele>105.1</ele>
        <time>2022-10-05T12:22:00Z</time>
      </trkpt>
      <trkpt lat="49.73051" lon="2.36092">
        <ele>105.2</ele>
        <time>2022-10-05T12:22:02Z</time>
      </trkpt>
      <trkpt lat="49.7305" lon="2.36094">
        <ele>105.2</ele>
        <time>2022-10-05T12:22:03Z</time>
      </trkpt>
      <trkpt lat="49.73049" lon="2.36095">
        <ele>105.3</ele>
        <time>2022-10-05T12:22:04Z</time>
      </trkpt>
      <trkpt lat="49.73048" lon="2.36098">
        <ele>105.4</ele>
        <time>2022-10-05T12:22:05Z</time>
      </trkpt>
      <trkpt lat="49.73047" lon="2.36099">
        <ele>105.5</ele>
        <time>2022-10-05T12:22:06Z</time>
      </trkpt>
      <trkpt lat="49.73047" lon="2.36101">
        <ele>105.6</ele>
        <time>2022-10-05T12:22:07Z</time>
      </trkpt>
      <trkpt lat="49.73046" lon="2.36102">
        <ele>105.7</ele>
        <time>2022-10-05T12:22:08Z</time>
      </trkpt>
      <trkpt lat="49.73045" lon="2.36104">
        <ele>105.8</ele>
        <time>2022-10-05T12:22:10Z</time>
      </trkpt>
      <trkpt lat="49.73044" lon="2.36106">
        <ele>105.8</ele>
        <time>2022-10-05T12:22:11Z</time>
      </trkpt>
      <trkpt lat="49.73044" lon="2.36108">
        <ele>105.9</ele>
        <time>2022-10-05T12:22:12Z</time>
      </trkpt>
      <trkpt lat="49.73043" lon="2.3611">
        <ele>105.9</ele>
        <time>2022-10-05T12:22:13Z</time>
      </trkpt>
      <trkpt lat="49.73042" lon="2.36113">
        <ele>106.1</ele>
        <time>2022-10-05T12:22:14Z</time>
      </trkpt>
      <trkpt lat="49.73041" lon="2.36114">
        <ele>106.1</ele>
        <time>2022-10-05T12:22:15Z</time>
      </trkpt>
      <trkpt lat="49.73041" lon="2.36115">
        <ele>106.2</ele>
        <time>2022-10-05T12:22:16Z</time>
      </trkpt>
      <trkpt lat="49.73041" lon="2.36116">
        <ele>106.2</ele>
        <time>2022-10-05T12:22:17Z</time>
      </trkpt>
      <trkpt lat="49.7304" lon="2.36118">
        <ele>106.3</ele>
        <time>2022-10-05T12:22:19Z</time>
      </trkpt>
      <trkpt lat="49.7304" lon="2.36119">
        <ele>106.4</ele>
        <time>2022-10-05T12:22:20Z</time>
      </trkpt>
      <trkpt lat="49.73039" lon="2.36122">
        <ele>106.5</ele>
        <time>2022-10-05T12:22:21Z</time>
      </trkpt>
      <trkpt lat="49.73038" lon="2.36123">
        <ele>106.6</ele>
        <time>2022-10-05T12:22:22Z</time>
      </trkpt>
      <trkpt lat="49.73038" lon="2.36124">
        <ele>106.7</ele>
        <time>2022-10-05T12:22:23Z</time>
      </trkpt>
      <trkpt lat="49.73037" lon="2.36126">
        <ele>106.8</ele>
        <time>2022-10-05T12:22:24Z</time>
      </trkpt>
      <trkpt lat="49.73036" lon="2.36128">
        <ele>106.8</ele>
        <time>2022-10-05T12:22:25Z</time>
      </trkpt>
      <trkpt lat="49.73035" lon="2.3613">
        <ele>107</ele>
        <time>2022-10-05T12:22:26Z</time>
      </trkpt>
      <trkpt lat="49.73034" lon="2.36132">
        <ele>107</ele>
        <time>2022-10-05T12:22:28Z</time>
      </trkpt>
      <trkpt lat="49.73034" lon="2.36133">
        <ele>107.1</ele>
        <time>2022-10-05T12:22:29Z</time>
      </trkpt>
      <trkpt lat="49.73033" lon="2.36136">
        <ele>107.3</ele>
        <time>2022-10-05T12:22:30Z</time>
      </trkpt>
      <trkpt lat="49.73033" lon="2.36137">
        <ele>107.3</ele>
        <time>2022-10-05T12:22:31Z</time>
      </trkpt>
      <trkpt lat="49.73032" lon="2.36138">
        <ele>107.4</ele>
        <time>2022-10-05T12:22:32Z</time>
      </trkpt>
      <trkpt lat="49.73032" lon="2.3614">
        <ele>107.5</ele>
        <time>2022-10-05T12:22:33Z</time>
      </trkpt>
      <trkpt lat="49.73031" lon="2.36142">
        <ele>107.6</ele>
        <time>2022-10-05T12:22:35Z</time>
      </trkpt>
      <trkpt lat="49.7303" lon="2.36145">
        <ele>107.7</ele>
        <time>2022-10-05T12:22:36Z</time>
      </trkpt>
      <trkpt lat="49.7303" lon="2.36147">
        <ele>107.8</ele>
        <time>2022-10-05T12:22:37Z</time>
      </trkpt>
      <trkpt lat="49.73029" lon="2.3615">
        <ele>107.9</ele>
        <time>2022-10-05T12:22:38Z</time>
      </trkpt>
      <trkpt lat="49.73029" lon="2.36152">
        <ele>108</ele>
        <time>2022-10-05T12:22:39Z</time>
      </trkpt>
      <trkpt lat="49.73028" lon="2.36154">
        <ele>108.2</ele>
        <time>2022-10-05T12:22:40Z</time>
      </trkpt>
      <trkpt lat="49.73028" lon="2.36156">
        <ele>108.3</ele>
        <time>2022-10-05T12:22:41Z</time>
      </trkpt>
      <trkpt lat="49.73027" lon="2.36158">
        <ele>108.4</ele>
        <time>2022-10-05T12:22:43Z</time>
      </trkpt>
      <trkpt lat="49.73026" lon="2.3616">
        <ele>108.5</ele>
        <time>2022-10-05T12:22:44Z</time>
      </trkpt>
      <trkpt lat="49.73026" lon="2.36162">
        <ele>108.6</ele>
        <time>2022-10-05T12:22:45Z</time>
      </trkpt>
      <trkpt lat="49.73025" lon="2.36165">
        <ele>108.7</ele>
        <time>2022-10-05T12:22:46Z</time>
      </trkpt>
      <trkpt lat="49.73024" lon="2.36167">
        <ele>108.8</ele>
        <time>2022-10-05T12:22:47Z</time>
      </trkpt>
      <trkpt lat="49.73024" lon="2.36168">
        <ele>108.9</ele>
        <time>2022-10-05T12:22:48Z</time>
      </trkpt>
      <trkpt lat="49.73023" lon="2.36169">
        <ele>109</ele>
        <time>2022-10-05T12:22:50Z</time>
      </trkpt>
      <trkpt lat="49.73023" lon="2.36171">
        <ele>109</ele>
        <time>2022-10-05T12:22:51Z</time>
      </trkpt>
      <trkpt lat="49.73022" lon="2.36172">
        <ele>109.1</ele>
        <time>2022-10-05T12:22:52Z</time>
      </trkpt>
      <trkpt lat="49.73022" lon="2.36173">
        <ele>109.2</ele>
        <time>2022-10-05T12:22:53Z</time>
      </trkpt>
      <trkpt lat="49.73021" lon="2.36175">
        <ele>109.3</ele>
        <time>2022-10-05T12:22:54Z</time>
      </trkpt>
      <trkpt lat="49.7302" lon="2.36177">
        <ele>109.4</ele>
        <time>2022-10-05T12:22:55Z</time>
      </trkpt>
      <trkpt lat="49.7302" lon="2.36178">
        <ele>109.4</ele>
        <time>2022-10-05T12:22:57Z</time>
      </trkpt>
      <trkpt lat="49.7302" lon="2.36177">
        <ele>109.5</ele>
        <time>2022-10-05T12:22:58Z</time>
      </trkpt>
      <trkpt lat="49.7302" lon="2.36178">
        <ele>109.5</ele>
        <time>2022-10-05T12:22:59Z</time>
      </trkpt>
      <trkpt lat="49.73019" lon="2.3618">
        <ele>109.6</ele>
        <time>2022-10-05T12:23:00Z</time>
      </trkpt>
      <trkpt lat="49.73018" lon="2.36182">
        <ele>109.7</ele>
        <time>2022-10-05T12:23:01Z</time>
      </trkpt>
      <trkpt lat="49.73018" lon="2.36183">
        <ele>109.8</ele>
        <time>2022-10-05T12:23:02Z</time>
      </trkpt>
      <trkpt lat="49.73017" lon="2.36185">
        <ele>109.9</ele>
        <time>2022-10-05T12:23:03Z</time>
      </trkpt>
      <trkpt lat="49.73017" lon="2.36186">
        <ele>109.9</ele>
        <time>2022-10-05T12:23:05Z</time>
      </trkpt>
      <trkpt lat="49.73017" lon="2.36187">
        <ele>110</ele>
        <time>2022-10-05T12:23:06Z</time>
      </trkpt>
      <trkpt lat="49.73016" lon="2.36188">
        <ele>110</ele>
        <time>2022-10-05T12:23:07Z</time>
      </trkpt>
      <trkpt lat="49.73016" lon="2.3619">
        <ele>110.1</ele>
        <time>2022-10-05T12:23:08Z</time>
      </trkpt>
      <trkpt lat="49.73015" lon="2.36193">
        <ele>110.3</ele>
        <time>2022-10-05T12:23:09Z</time>
      </trkpt>
      <trkpt lat="49.73014" lon="2.36195">
        <ele>110.4</ele>
        <time>2022-10-05T12:23:10Z</time>
      </trkpt>
      <trkpt lat="49.73013" lon="2.36197">
        <ele>110.5</ele>
        <time>2022-10-05T12:23:11Z</time>
      </trkpt>
      <trkpt lat="49.73013" lon="2.36199">
        <ele>110.6</ele>
        <time>2022-10-05T12:23:13Z</time>
      </trkpt>
      <trkpt lat="49.73012" lon="2.36201">
        <ele>110.7</ele>
        <time>2022-10-05T12:23:14Z</time>
      </trkpt>
      <trkpt lat="49.73011" lon="2.36203">
        <ele>110.8</ele>
        <time>2022-10-05T12:23:15Z</time>
      </trkpt>
      <trkpt lat="49.7301" lon="2.36205">
        <ele>110.9</ele>
        <time>2022-10-05T12:23:16Z</time>
      </trkpt>
      <trkpt lat="49.73009" lon="2.36206">
        <ele>111</ele>
        <time>2022-10-05T12:23:17Z</time>
      </trkpt>
      <trkpt lat="49.73009" lon="2.36208">
        <ele>111.1</ele>
        <time>2022-10-05T12:23:18Z</time>
      </trkpt>
      <trkpt lat="49.73008" lon="2.36211">
        <ele>111.3</ele>
        <time>2022-10-05T12:23:20Z</time>
      </trkpt>
      <trkpt lat="49.73007" lon="2.36212">
        <ele>111.4</ele>
        <time>2022-10-05T12:23:21Z</time>
      </trkpt>
      <trkpt lat="49.73006" lon="2.36214">
        <ele>111.5</ele>
        <time>2022-10-05T12:23:22Z</time>
      </trkpt>
      <trkpt lat="49.73005" lon="2.36217">
        <ele>111.6</ele>
        <time>2022-10-05T12:23:23Z</time>
      </trkpt>
      <trkpt lat="49.73004" lon="2.36218">
        <ele>111.7</ele>
        <time>2022-10-05T12:23:24Z</time>
      </trkpt>
      <trkpt lat="49.73004" lon="2.36219">
        <ele>111.7</ele>
        <time>2022-10-05T12:23:25Z</time>
      </trkpt>
      <trkpt lat="49.73004" lon="2.3622">
        <ele>111.8</ele>
        <time>2022-10-05T12:23:27Z</time>
      </trkpt>
      <trkpt lat="49.73003" lon="2.3622">
        <ele>111.9</ele>
        <time>2022-10-05T12:23:28Z</time>
      </trkpt>
      <trkpt lat="49.73004" lon="2.36219">
        <ele>111.9</ele>
        <time>2022-10-05T12:23:29Z</time>
      </trkpt>
      <trkpt lat="49.73003" lon="2.3622">
        <ele>111.9</ele>
        <time>2022-10-05T12:23:30Z</time>
      </trkpt>
      <trkpt lat="49.73003" lon="2.36221">
        <ele>112</ele>
        <time>2022-10-05T12:23:32Z</time>
      </trkpt>
      <trkpt lat="49.73002" lon="2.36223">
        <ele>112.1</ele>
        <time>2022-10-05T12:23:33Z</time>
      </trkpt>
      <trkpt lat="49.73002" lon="2.36225">
        <ele>112.2</ele>
        <time>2022-10-05T12:23:34Z</time>
      </trkpt>
      <trkpt lat="49.73001" lon="2.36226">
        <ele>112.3</ele>
        <time>2022-10-05T12:23:35Z</time>
      </trkpt>
      <trkpt lat="49.72999" lon="2.3623">
        <ele>112.5</ele>
        <time>2022-10-05T12:23:36Z</time>
      </trkpt>
      <trkpt lat="49.72999" lon="2.36231">
        <ele>112.6</ele>
        <time>2022-10-05T12:23:37Z</time>
      </trkpt>
      <trkpt lat="49.72998" lon="2.36233">
        <ele>112.7</ele>
        <time>2022-10-05T12:23:39Z</time>
      </trkpt>
      <trkpt lat="49.72997" lon="2.36235">
        <ele>112.8</ele>
        <time>2022-10-05T12:23:40Z</time>
      </trkpt>
      <trkpt lat="49.72996" lon="2.36236">
        <ele>112.9</ele>
        <time>2022-10-05T12:23:41Z</time>
      </trkpt>
      <trkpt lat="49.72996" lon="2.36237">
        <ele>112.9</ele>
        <time>2022-10-05T12:23:42Z</time>
      </trkpt>
      <trkpt lat="49.72995" lon="2.36237">
        <ele>112.9</ele>
        <time>2022-10-05T12:23:43Z</time>
      </trkpt>
      <trkpt lat="49.72995" lon="2.36236">
        <ele>113</ele>
        <time>2022-10-05T12:23:44Z</time>
      </trkpt>
      <trkpt lat="49.72995" lon="2.36237">
        <ele>113</ele>
        <time>2022-10-05T12:23:45Z</time>
      </trkpt>
      <trkpt lat="49.72994" lon="2.36238">
        <ele>113.1</ele>
        <time>2022-10-05T12:23:47Z</time>
      </trkpt>
      <trkpt lat="49.72994" lon="2.3624">
        <ele>113.2</ele>
        <time>2022-10-05T12:23:48Z</time>
      </trkpt>
      <trkpt lat="49.72993" lon="2.36242">
        <ele>113.3</ele>
        <time>2022-10-05T12:23:49Z</time>
      </trkpt>
      <trkpt lat="49.72993" lon="2.36244">
        <ele>113.3</ele>
        <time>2022-10-05T12:23:50Z</time>
      </trkpt>
      <trkpt lat="49.72992" lon="2.36245">
        <ele>113.4</ele>
        <time>2022-10-05T12:23:51Z</time>
      </trkpt>
      <trkpt lat="49.72992" lon="2.36247">
        <ele>113.5</ele>
        <time>2022-10-05T12:23:52Z</time>
      </trkpt>
      <trkpt lat="49.72991" lon="2.36248">
        <ele>113.5</ele>
        <time>2022-10-05T12:23:53Z</time>
      </trkpt>
      <trkpt lat="49.72991" lon="2.36249">
        <ele>113.6</ele>
        <time>2022-10-05T12:23:55Z</time>
      </trkpt>
      <trkpt lat="49.7299" lon="2.3625">
        <ele>113.7</ele>
        <time>2022-10-05T12:23:56Z</time>
      </trkpt>
      <trkpt lat="49.7299" lon="2.36251">
        <ele>113.7</ele>
        <time>2022-10-05T12:23:57Z</time>
      </trkpt>
      <trkpt lat="49.7299" lon="2.36252">
        <ele>113.8</ele>
        <time>2022-10-05T12:23:58Z</time>
      </trkpt>
      <trkpt lat="49.72989" lon="2.36254">
        <ele>113.9</ele>
        <time>2022-10-05T12:23:59Z</time>
      </trkpt>
      <trkpt lat="49.72988" lon="2.36255">
        <ele>113.9</ele>
        <time>2022-10-05T12:24:00Z</time>
      </trkpt>
      <trkpt lat="49.72987" lon="2.36256">
        <ele>114</ele>
        <time>2022-10-05T12:24:01Z</time>
      </trkpt>
      <trkpt lat="49.72987" lon="2.36257">
        <ele>114</ele>
        <time>2022-10-05T12:24:03Z</time>
      </trkpt>
      <trkpt lat="49.72986" lon="2.36258">
        <ele>114.1</ele>
        <time>2022-10-05T12:24:04Z</time>
      </trkpt>
      <trkpt lat="49.72986" lon="2.36259">
        <ele>114.1</ele>
        <time>2022-10-05T12:24:05Z</time>
      </trkpt>
      <trkpt lat="49.72985" lon="2.36261">
        <ele>114.2</ele>
        <time>2022-10-05T12:24:06Z</time>
      </trkpt>
      <trkpt lat="49.72984" lon="2.36263">
        <ele>114.3</ele>
        <time>2022-10-05T12:24:08Z</time>
      </trkpt>
      <trkpt lat="49.72983" lon="2.36263">
        <ele>114.4</ele>
        <time>2022-10-05T12:24:09Z</time>
      </trkpt>
      <trkpt lat="49.72982" lon="2.36264">
        <ele>114.4</ele>
        <time>2022-10-05T12:24:10Z</time>
      </trkpt>
      <trkpt lat="49.72981" lon="2.36265">
        <ele>114.5</ele>
        <time>2022-10-05T12:24:11Z</time>
      </trkpt>
      <trkpt lat="49.7298" lon="2.36268">
        <ele>114.6</ele>
        <time>2022-10-05T12:24:12Z</time>
      </trkpt>
      <trkpt lat="49.72979" lon="2.36269">
        <ele>114.7</ele>
        <time>2022-10-05T12:24:14Z</time>
      </trkpt>
      <trkpt lat="49.72979" lon="2.36271">
        <ele>114.8</ele>
        <time>2022-10-05T12:24:15Z</time>
      </trkpt>
      <trkpt lat="49.72978" lon="2.36274">
        <ele>114.9</ele>
        <time>2022-10-05T12:24:16Z</time>
      </trkpt>
      <trkpt lat="49.72977" lon="2.36275">
        <ele>115</ele>
        <time>2022-10-05T12:24:17Z</time>
      </trkpt>
      <trkpt lat="49.72976" lon="2.36276">
        <ele>115</ele>
        <time>2022-10-05T12:24:18Z</time>
      </trkpt>
      <trkpt lat="49.72976" lon="2.36278">
        <ele>115.1</ele>
        <time>2022-10-05T12:24:19Z</time>
      </trkpt>
      <trkpt lat="49.72975" lon="2.36279">
        <ele>115.2</ele>
        <time>2022-10-05T12:24:20Z</time>
      </trkpt>
      <trkpt lat="49.72974" lon="2.3628">
        <ele>115.2</ele>
        <time>2022-10-05T12:24:22Z</time>
      </trkpt>
      <trkpt lat="49.72974" lon="2.36282">
        <ele>115.3</ele>
        <time>2022-10-05T12:24:23Z</time>
      </trkpt>
      <trkpt lat="49.72973" lon="2.36283">
        <ele>115.4</ele>
        <time>2022-10-05T12:24:24Z</time>
      </trkpt>
      <trkpt lat="49.72972" lon="2.36286">
        <ele>115.5</ele>
        <time>2022-10-05T12:24:26Z</time>
      </trkpt>
      <trkpt lat="49.72971" lon="2.36288">
        <ele>115.6</ele>
        <time>2022-10-05T12:24:27Z</time>
      </trkpt>
      <trkpt lat="49.72971" lon="2.3629">
        <ele>115.6</ele>
        <time>2022-10-05T12:24:28Z</time>
      </trkpt>
      <trkpt lat="49.7297" lon="2.36292">
        <ele>115.7</ele>
        <time>2022-10-05T12:24:29Z</time>
      </trkpt>
      <trkpt lat="49.72969" lon="2.36295">
        <ele>115.8</ele>
        <time>2022-10-05T12:24:30Z</time>
      </trkpt>
      <trkpt lat="49.72968" lon="2.36297">
        <ele>115.9</ele>
        <time>2022-10-05T12:24:31Z</time>
      </trkpt>
      <trkpt lat="49.72967" lon="2.36299">
        <ele>116</ele>
        <time>2022-10-05T12:24:32Z</time>
      </trkpt>
      <trkpt lat="49.72967" lon="2.36302">
        <ele>116.1</ele>
        <time>2022-10-05T12:24:34Z</time>
      </trkpt>
      <trkpt lat="49.72966" lon="2.36303">
        <ele>116.2</ele>
        <time>2022-10-05T12:24:35Z</time>
      </trkpt>
      <trkpt lat="49.72965" lon="2.36306">
        <ele>116.3</ele>
        <time>2022-10-05T12:24:36Z</time>
      </trkpt>
      <trkpt lat="49.72965" lon="2.36308">
        <ele>116.4</ele>
        <time>2022-10-05T12:24:37Z</time>
      </trkpt>
      <trkpt lat="49.72964" lon="2.3631">
        <ele>116.5</ele>
        <time>2022-10-05T12:24:38Z</time>
      </trkpt>
      <trkpt lat="49.72964" lon="2.36311">
        <ele>116.5</ele>
        <time>2022-10-05T12:24:39Z</time>
      </trkpt>
      <trkpt lat="49.72963" lon="2.36313">
        <ele>116.6</ele>
        <time>2022-10-05T12:24:40Z</time>
      </trkpt>
      <trkpt lat="49.72963" lon="2.36313">
        <ele>116.6</ele>
        <time>2022-10-05T12:24:41Z</time>
      </trkpt>
      <trkpt lat="49.72963" lon="2.36314">
        <ele>116.6</ele>
        <time>2022-10-05T12:24:43Z</time>
      </trkpt>
      <trkpt lat="49.72963" lon="2.36316">
        <ele>116.7</ele>
        <time>2022-10-05T12:24:44Z</time>
      </trkpt>
      <trkpt lat="49.72963" lon="2.36318">
        <ele>116.8</ele>
        <time>2022-10-05T12:24:45Z</time>
      </trkpt>
      <trkpt lat="49.72962" lon="2.3632">
        <ele>116.9</ele>
        <time>2022-10-05T12:24:47Z</time>
      </trkpt>
      <trkpt lat="49.72961" lon="2.36322">
        <ele>117</ele>
        <time>2022-10-05T12:24:48Z</time>
      </trkpt>
      <trkpt lat="49.72961" lon="2.36325">
        <ele>117.1</ele>
        <time>2022-10-05T12:24:49Z</time>
      </trkpt>
      <trkpt lat="49.7296" lon="2.36327">
        <ele>117.1</ele>
        <time>2022-10-05T12:24:50Z</time>
      </trkpt>
      <trkpt lat="49.72959" lon="2.36329">
        <ele>117.2</ele>
        <time>2022-10-05T12:24:51Z</time>
      </trkpt>
      <trkpt lat="49.72959" lon="2.3633">
        <ele>117.3</ele>
        <time>2022-10-05T12:24:52Z</time>
      </trkpt>
      <trkpt lat="49.72958" lon="2.36332">
        <ele>117.4</ele>
        <time>2022-10-05T12:24:54Z</time>
      </trkpt>
      <trkpt lat="49.72957" lon="2.36334">
        <ele>117.5</ele>
        <time>2022-10-05T12:24:55Z</time>
      </trkpt>
      <trkpt lat="49.72957" lon="2.36336">
        <ele>117.6</ele>
        <time>2022-10-05T12:24:56Z</time>
      </trkpt>
      <trkpt lat="49.72956" lon="2.36338">
        <ele>117.6</ele>
        <time>2022-10-05T12:24:57Z</time>
      </trkpt>
      <trkpt lat="49.72956" lon="2.36338">
        <ele>117.7</ele>
        <time>2022-10-05T12:24:58Z</time>
      </trkpt>
      <trkpt lat="49.72955" lon="2.36337">
        <ele>117.8</ele>
        <time>2022-10-05T12:25:00Z</time>
      </trkpt>
      <trkpt lat="49.72954" lon="2.36337">
        <ele>117.8</ele>
        <time>2022-10-05T12:25:01Z</time>
      </trkpt>
      <trkpt lat="49.72954" lon="2.36338">
        <ele>117.8</ele>
        <time>2022-10-05T12:25:02Z</time>
      </trkpt>
      <trkpt lat="49.72953" lon="2.3634">
        <ele>117.9</ele>
        <time>2022-10-05T12:25:03Z</time>
      </trkpt>
      <trkpt lat="49.72953" lon="2.36341">
        <ele>118</ele>
        <time>2022-10-05T12:25:04Z</time>
      </trkpt>
      <trkpt lat="49.72952" lon="2.36346">
        <ele>118.1</ele>
        <time>2022-10-05T12:25:05Z</time>
      </trkpt>
      <trkpt lat="49.72951" lon="2.36349">
        <ele>118.3</ele>
        <time>2022-10-05T12:25:06Z</time>
      </trkpt>
      <trkpt lat="49.72951" lon="2.3635">
        <ele>118.4</ele>
        <time>2022-10-05T12:25:07Z</time>
      </trkpt>
      <trkpt lat="49.72951" lon="2.3635">
        <ele>118.4</ele>
        <time>2022-10-05T12:25:08Z</time>
      </trkpt>
      <trkpt lat="49.72951" lon="2.36352">
        <ele>118.4</ele>
        <time>2022-10-05T12:25:10Z</time>
      </trkpt>
      <trkpt lat="49.72951" lon="2.36353">
        <ele>118.5</ele>
        <time>2022-10-05T12:25:11Z</time>
      </trkpt>
      <trkpt lat="49.7295" lon="2.36355">
        <ele>118.6</ele>
        <time>2022-10-05T12:25:12Z</time>
      </trkpt>
      <trkpt lat="49.7295" lon="2.36359">
        <ele>118.7</ele>
        <time>2022-10-05T12:25:13Z</time>
      </trkpt>
      <trkpt lat="49.7295" lon="2.36361">
        <ele>118.8</ele>
        <time>2022-10-05T12:25:14Z</time>
      </trkpt>
      <trkpt lat="49.72949" lon="2.36362">
        <ele>118.9</ele>
        <time>2022-10-05T12:25:16Z</time>
      </trkpt>
      <trkpt lat="49.72949" lon="2.36364">
        <ele>119</ele>
        <time>2022-10-05T12:25:17Z</time>
      </trkpt>
      <trkpt lat="49.72949" lon="2.36366">
        <ele>119</ele>
        <time>2022-10-05T12:25:18Z</time>
      </trkpt>
      <trkpt lat="49.72948" lon="2.36371">
        <ele>119.3</ele>
        <time>2022-10-05T12:25:19Z</time>
      </trkpt>
      <trkpt lat="49.72948" lon="2.36373">
        <ele>119.3</ele>
        <time>2022-10-05T12:25:21Z</time>
      </trkpt>
      <trkpt lat="49.72948" lon="2.36375">
        <ele>119.4</ele>
        <time>2022-10-05T12:25:22Z</time>
      </trkpt>
      <trkpt lat="49.72948" lon="2.36376">
        <ele>119.5</ele>
        <time>2022-10-05T12:25:23Z</time>
      </trkpt>
      <trkpt lat="49.72948" lon="2.36378">
        <ele>119.6</ele>
        <time>2022-10-05T12:25:24Z</time>
      </trkpt>
      <trkpt lat="49.72948" lon="2.36379">
        <ele>119.6</ele>
        <time>2022-10-05T12:25:26Z</time>
      </trkpt>
      <trkpt lat="49.72947" lon="2.36381">
        <ele>119.7</ele>
        <time>2022-10-05T12:25:27Z</time>
      </trkpt>
      <trkpt lat="49.72947" lon="2.36382">
        <ele>119.8</ele>
        <time>2022-10-05T12:25:28Z</time>
      </trkpt>
      <trkpt lat="49.72947" lon="2.36384">
        <ele>119.9</ele>
        <time>2022-10-05T12:25:29Z</time>
      </trkpt>
      <trkpt lat="49.72947" lon="2.36387">
        <ele>120</ele>
        <time>2022-10-05T12:25:30Z</time>
      </trkpt>
      <trkpt lat="49.72946" lon="2.36391">
        <ele>120.2</ele>
        <time>2022-10-05T12:25:32Z</time>
      </trkpt>
      <trkpt lat="49.72946" lon="2.36392">
        <ele>120.2</ele>
        <time>2022-10-05T12:25:33Z</time>
      </trkpt>
      <trkpt lat="49.72945" lon="2.36394">
        <ele>120.3</ele>
        <time>2022-10-05T12:25:34Z</time>
      </trkpt>
      <trkpt lat="49.72945" lon="2.36396">
        <ele>120.4</ele>
        <time>2022-10-05T12:25:35Z</time>
      </trkpt>
      <trkpt lat="49.72944" lon="2.36397">
        <ele>120.5</ele>
        <time>2022-10-05T12:25:36Z</time>
      </trkpt>
      <trkpt lat="49.72942" lon="2.36397">
        <ele>120.6</ele>
        <time>2022-10-05T12:25:38Z</time>
      </trkpt>
      <trkpt lat="49.72941" lon="2.36399">
        <ele>120.7</ele>
        <time>2022-10-05T12:25:39Z</time>
      </trkpt>
      <trkpt lat="49.7294" lon="2.364">
        <ele>120.8</ele>
        <time>2022-10-05T12:25:41Z</time>
      </trkpt>
      <trkpt lat="49.7294" lon="2.36402">
        <ele>120.9</ele>
        <time>2022-10-05T12:25:42Z</time>
      </trkpt>
      <trkpt lat="49.72939" lon="2.36405">
        <ele>121</ele>
        <time>2022-10-05T12:25:43Z</time>
      </trkpt>
      <trkpt lat="49.72939" lon="2.36406">
        <ele>121.1</ele>
        <time>2022-10-05T12:25:44Z</time>
      </trkpt>
      <trkpt lat="49.72938" lon="2.36407">
        <ele>121.1</ele>
        <time>2022-10-05T12:25:45Z</time>
      </trkpt>
      <trkpt lat="49.72938" lon="2.36409">
        <ele>121.2</ele>
        <time>2022-10-05T12:25:46Z</time>
      </trkpt>
      <trkpt lat="49.72937" lon="2.36412">
        <ele>121.4</ele>
        <time>2022-10-05T12:25:47Z</time>
      </trkpt>
      <trkpt lat="49.72935" lon="2.36414">
        <ele>121.5</ele>
        <time>2022-10-05T12:25:49Z</time>
      </trkpt>
      <trkpt lat="49.72935" lon="2.36415">
        <ele>121.5</ele>
        <time>2022-10-05T12:25:50Z</time>
      </trkpt>
      <trkpt lat="49.72934" lon="2.36416">
        <ele>121.6</ele>
        <time>2022-10-05T12:25:51Z</time>
      </trkpt>
      <trkpt lat="49.72933" lon="2.36417">
        <ele>121.7</ele>
        <time>2022-10-05T12:25:52Z</time>
      </trkpt>
      <trkpt lat="49.72933" lon="2.36416">
        <ele>121.8</ele>
        <time>2022-10-05T12:25:53Z</time>
      </trkpt>
      <trkpt lat="49.72932" lon="2.36415">
        <ele>121.8</ele>
        <time>2022-10-05T12:25:55Z</time>
      </trkpt>
      <trkpt lat="49.72931" lon="2.36416">
        <ele>121.9</ele>
        <time>2022-10-05T12:25:56Z</time>
      </trkpt>
      <trkpt lat="49.72931" lon="2.36416">
        <ele>121.9</ele>
        <time>2022-10-05T12:25:57Z</time>
      </trkpt>
      <trkpt lat="49.7293" lon="2.36418">
        <ele>122</ele>
        <time>2022-10-05T12:25:58Z</time>
      </trkpt>
      <trkpt lat="49.72929" lon="2.36419">
        <ele>122.1</ele>
        <time>2022-10-05T12:25:59Z</time>
      </trkpt>
      <trkpt lat="49.72928" lon="2.36422">
        <ele>122.2</ele>
        <time>2022-10-05T12:26:00Z</time>
      </trkpt>
      <trkpt lat="49.72927" lon="2.36423">
        <ele>122.2</ele>
        <time>2022-10-05T12:26:02Z</time>
      </trkpt>
      <trkpt lat="49.72927" lon="2.36424">
        <ele>122.3</ele>
        <time>2022-10-05T12:26:03Z</time>
      </trkpt>
      <trkpt lat="49.72926" lon="2.36425">
        <ele>122.4</ele>
        <time>2022-10-05T12:26:04Z</time>
      </trkpt>
      <trkpt lat="49.72926" lon="2.36427">
        <ele>122.4</ele>
        <time>2022-10-05T12:26:06Z</time>
      </trkpt>
      <trkpt lat="49.72925" lon="2.36428">
        <ele>122.5</ele>
        <time>2022-10-05T12:26:07Z</time>
      </trkpt>
      <trkpt lat="49.72924" lon="2.36429">
        <ele>122.6</ele>
        <time>2022-10-05T12:26:08Z</time>
      </trkpt>
      <trkpt lat="49.72923" lon="2.36431">
        <ele>122.7</ele>
        <time>2022-10-05T12:26:09Z</time>
      </trkpt>
      <trkpt lat="49.72923" lon="2.36432">
        <ele>122.7</ele>
        <time>2022-10-05T12:26:10Z</time>
      </trkpt>
      <trkpt lat="49.72921" lon="2.36434">
        <ele>122.8</ele>
        <time>2022-10-05T12:26:11Z</time>
      </trkpt>
      <trkpt lat="49.72921" lon="2.36435">
        <ele>122.9</ele>
        <time>2022-10-05T12:26:12Z</time>
      </trkpt>
      <trkpt lat="49.72921" lon="2.36436">
        <ele>122.9</ele>
        <time>2022-10-05T12:26:13Z</time>
      </trkpt>
      <trkpt lat="49.7292" lon="2.36438">
        <ele>123</ele>
        <time>2022-10-05T12:26:15Z</time>
      </trkpt>
      <trkpt lat="49.7292" lon="2.36439">
        <ele>123</ele>
        <time>2022-10-05T12:26:16Z</time>
      </trkpt>
      <trkpt lat="49.72919" lon="2.36441">
        <ele>123.1</ele>
        <time>2022-10-05T12:26:17Z</time>
      </trkpt>
      <trkpt lat="49.72918" lon="2.36443">
        <ele>123.2</ele>
        <time>2022-10-05T12:26:18Z</time>
      </trkpt>
      <trkpt lat="49.72918" lon="2.36444">
        <ele>123.3</ele>
        <time>2022-10-05T12:26:19Z</time>
      </trkpt>
      <trkpt lat="49.72918" lon="2.36446">
        <ele>123.3</ele>
        <time>2022-10-05T12:26:20Z</time>
      </trkpt>
      <trkpt lat="49.72917" lon="2.36448">
        <ele>123.4</ele>
        <time>2022-10-05T12:26:21Z</time>
      </trkpt>
      <trkpt lat="49.72917" lon="2.3645">
        <ele>123.5</ele>
        <time>2022-10-05T12:26:23Z</time>
      </trkpt>
      <trkpt lat="49.72916" lon="2.36453">
        <ele>123.5</ele>
        <time>2022-10-05T12:26:24Z</time>
      </trkpt>
      <trkpt lat="49.72916" lon="2.36455">
        <ele>123.6</ele>
        <time>2022-10-05T12:26:25Z</time>
      </trkpt>
      <trkpt lat="49.72916" lon="2.36459">
        <ele>123.7</ele>
        <time>2022-10-05T12:26:26Z</time>
      </trkpt>
      <trkpt lat="49.72916" lon="2.36461">
        <ele>123.8</ele>
        <time>2022-10-05T12:26:27Z</time>
      </trkpt>
      <trkpt lat="49.72916" lon="2.36463">
        <ele>123.9</ele>
        <time>2022-10-05T12:26:28Z</time>
      </trkpt>
      <trkpt lat="49.72916" lon="2.36466">
        <ele>124</ele>
        <time>2022-10-05T12:26:30Z</time>
      </trkpt>
      <trkpt lat="49.72916" lon="2.36467">
        <ele>124</ele>
        <time>2022-10-05T12:26:31Z</time>
      </trkpt>
      <trkpt lat="49.72916" lon="2.36469">
        <ele>124</ele>
        <time>2022-10-05T12:26:32Z</time>
      </trkpt>
      <trkpt lat="49.72916" lon="2.36472">
        <ele>124.2</ele>
        <time>2022-10-05T12:26:33Z</time>
      </trkpt>
      <trkpt lat="49.72916" lon="2.36474">
        <ele>124.2</ele>
        <time>2022-10-05T12:26:34Z</time>
      </trkpt>
      <trkpt lat="49.72916" lon="2.36476">
        <ele>124.3</ele>
        <time>2022-10-05T12:26:35Z</time>
      </trkpt>
      <trkpt lat="49.72916" lon="2.36478">
        <ele>124.4</ele>
        <time>2022-10-05T12:26:36Z</time>
      </trkpt>
      <trkpt lat="49.72916" lon="2.36481">
        <ele>124.4</ele>
        <time>2022-10-05T12:26:37Z</time>
      </trkpt>
      <trkpt lat="49.72916" lon="2.36484">
        <ele>124.6</ele>
        <time>2022-10-05T12:26:39Z</time>
      </trkpt>
      <trkpt lat="49.72915" lon="2.36487">
        <ele>124.7</ele>
        <time>2022-10-05T12:26:40Z</time>
      </trkpt>
      <trkpt lat="49.72915" lon="2.36489">
        <ele>124.7</ele>
        <time>2022-10-05T12:26:41Z</time>
      </trkpt>
      <trkpt lat="49.72915" lon="2.3649">
        <ele>124.8</ele>
        <time>2022-10-05T12:26:42Z</time>
      </trkpt>
      <trkpt lat="49.72915" lon="2.36494">
        <ele>124.9</ele>
        <time>2022-10-05T12:26:43Z</time>
      </trkpt>
      <trkpt lat="49.72915" lon="2.36495">
        <ele>124.9</ele>
        <time>2022-10-05T12:26:44Z</time>
      </trkpt>
      <trkpt lat="49.72914" lon="2.36498">
        <ele>125.1</ele>
        <time>2022-10-05T12:26:45Z</time>
      </trkpt>
      <trkpt lat="49.72914" lon="2.36499">
        <ele>125.1</ele>
        <time>2022-10-05T12:26:47Z</time>
      </trkpt>
      <trkpt lat="49.72914" lon="2.36501">
        <ele>125.1</ele>
        <time>2022-10-05T12:26:48Z</time>
      </trkpt>
      <trkpt lat="49.72913" lon="2.36503">
        <ele>125.2</ele>
        <time>2022-10-05T12:26:49Z</time>
      </trkpt>
      <trkpt lat="49.72913" lon="2.36505">
        <ele>125.3</ele>
        <time>2022-10-05T12:26:50Z</time>
      </trkpt>
      <trkpt lat="49.72913" lon="2.36508">
        <ele>125.4</ele>
        <time>2022-10-05T12:26:51Z</time>
      </trkpt>
      <trkpt lat="49.72912" lon="2.36509">
        <ele>125.5</ele>
        <time>2022-10-05T12:26:52Z</time>
      </trkpt>
      <trkpt lat="49.72912" lon="2.3651">
        <ele>125.5</ele>
        <time>2022-10-05T12:26:53Z</time>
      </trkpt>
      <trkpt lat="49.72911" lon="2.36512">
        <ele>125.6</ele>
        <time>2022-10-05T12:26:55Z</time>
      </trkpt>
      <trkpt lat="49.72911" lon="2.36513">
        <ele>125.6</ele>
        <time>2022-10-05T12:26:56Z</time>
      </trkpt>
      <trkpt lat="49.7291" lon="2.36514">
        <ele>125.7</ele>
        <time>2022-10-05T12:26:57Z</time>
      </trkpt>
      <trkpt lat="49.7291" lon="2.36516">
        <ele>125.7</ele>
        <time>2022-10-05T12:26:58Z</time>
      </trkpt>
      <trkpt lat="49.72909" lon="2.36517">
        <ele>125.8</ele>
        <time>2022-10-05T12:27:00Z</time>
      </trkpt>
      <trkpt lat="49.72909" lon="2.36519">
        <ele>125.8</ele>
        <time>2022-10-05T12:27:01Z</time>
      </trkpt>
      <trkpt lat="49.72909" lon="2.3652">
        <ele>125.9</ele>
        <time>2022-10-05T12:27:02Z</time>
      </trkpt>
      <trkpt lat="49.72909" lon="2.36521">
        <ele>125.9</ele>
        <time>2022-10-05T12:27:03Z</time>
      </trkpt>
      <trkpt lat="49.72908" lon="2.36524">
        <ele>126</ele>
        <time>2022-10-05T12:27:04Z</time>
      </trkpt>
      <trkpt lat="49.72908" lon="2.36525">
        <ele>126</ele>
        <time>2022-10-05T12:27:05Z</time>
      </trkpt>
      <trkpt lat="49.72908" lon="2.36526">
        <ele>126.1</ele>
        <time>2022-10-05T12:27:06Z</time>
      </trkpt>
      <trkpt lat="49.72907" lon="2.36528">
        <ele>126.1</ele>
        <time>2022-10-05T12:27:07Z</time>
      </trkpt>
      <trkpt lat="49.72907" lon="2.3653">
        <ele>126.2</ele>
        <time>2022-10-05T12:27:08Z</time>
      </trkpt>
      <trkpt lat="49.72906" lon="2.36531">
        <ele>126.2</ele>
        <time>2022-10-05T12:27:09Z</time>
      </trkpt>
      <trkpt lat="49.72906" lon="2.36532">
        <ele>126.3</ele>
        <time>2022-10-05T12:27:11Z</time>
      </trkpt>
      <trkpt lat="49.72906" lon="2.36533">
        <ele>126.3</ele>
        <time>2022-10-05T12:27:12Z</time>
      </trkpt>
      <trkpt lat="49.72906" lon="2.36534">
        <ele>126.3</ele>
        <time>2022-10-05T12:27:13Z</time>
      </trkpt>
      <trkpt lat="49.72905" lon="2.36537">
        <ele>126.4</ele>
        <time>2022-10-05T12:27:14Z</time>
      </trkpt>
      <trkpt lat="49.72905" lon="2.36538">
        <ele>126.5</ele>
        <time>2022-10-05T12:27:15Z</time>
      </trkpt>
      <trkpt lat="49.72905" lon="2.36539">
        <ele>126.5</ele>
        <time>2022-10-05T12:27:16Z</time>
      </trkpt>
      <trkpt lat="49.72905" lon="2.36541">
        <ele>126.5</ele>
        <time>2022-10-05T12:27:17Z</time>
      </trkpt>
      <trkpt lat="49.72904" lon="2.36544">
        <ele>126.6</ele>
        <time>2022-10-05T12:27:18Z</time>
      </trkpt>
      <trkpt lat="49.72904" lon="2.36545">
        <ele>126.6</ele>
        <time>2022-10-05T12:27:20Z</time>
      </trkpt>
      <trkpt lat="49.72904" lon="2.36546">
        <ele>126.7</ele>
        <time>2022-10-05T12:27:21Z</time>
      </trkpt>
      <trkpt lat="49.72904" lon="2.36548">
        <ele>126.7</ele>
        <time>2022-10-05T12:27:22Z</time>
      </trkpt>
      <trkpt lat="49.72904" lon="2.36549">
        <ele>126.8</ele>
        <time>2022-10-05T12:27:23Z</time>
      </trkpt>
      <trkpt lat="49.72905" lon="2.36553">
        <ele>126.9</ele>
        <time>2022-10-05T12:27:25Z</time>
      </trkpt>
      <trkpt lat="49.72905" lon="2.36555">
        <ele>126.9</ele>
        <time>2022-10-05T12:27:26Z</time>
      </trkpt>
      <trkpt lat="49.72905" lon="2.36557">
        <ele>127</ele>
        <time>2022-10-05T12:27:27Z</time>
      </trkpt>
      <trkpt lat="49.72905" lon="2.36559">
        <ele>127</ele>
        <time>2022-10-05T12:27:28Z</time>
      </trkpt>
      <trkpt lat="49.72905" lon="2.36562">
        <ele>127.1</ele>
        <time>2022-10-05T12:27:29Z</time>
      </trkpt>
      <trkpt lat="49.72905" lon="2.36563">
        <ele>127.1</ele>
        <time>2022-10-05T12:27:30Z</time>
      </trkpt>
      <trkpt lat="49.72905" lon="2.36564">
        <ele>127.2</ele>
        <time>2022-10-05T12:27:31Z</time>
      </trkpt>
      <trkpt lat="49.72905" lon="2.36567">
        <ele>127.2</ele>
        <time>2022-10-05T12:27:32Z</time>
      </trkpt>
      <trkpt lat="49.72905" lon="2.3657">
        <ele>127.3</ele>
        <time>2022-10-05T12:27:33Z</time>
      </trkpt>
      <trkpt lat="49.72905" lon="2.36572">
        <ele>127.3</ele>
        <time>2022-10-05T12:27:34Z</time>
      </trkpt>
      <trkpt lat="49.72906" lon="2.36574">
        <ele>127.4</ele>
        <time>2022-10-05T12:27:35Z</time>
      </trkpt>
      <trkpt lat="49.72906" lon="2.36576">
        <ele>127.4</ele>
        <time>2022-10-05T12:27:37Z</time>
      </trkpt>
      <trkpt lat="49.72906" lon="2.36578">
        <ele>127.5</ele>
        <time>2022-10-05T12:27:38Z</time>
      </trkpt>
      <trkpt lat="49.72907" lon="2.3658">
        <ele>127.6</ele>
        <time>2022-10-05T12:27:39Z</time>
      </trkpt>
      <trkpt lat="49.72907" lon="2.36582">
        <ele>127.6</ele>
        <time>2022-10-05T12:27:40Z</time>
      </trkpt>
      <trkpt lat="49.72907" lon="2.36584">
        <ele>127.7</ele>
        <time>2022-10-05T12:27:41Z</time>
      </trkpt>
      <trkpt lat="49.72908" lon="2.36586">
        <ele>127.7</ele>
        <time>2022-10-05T12:27:42Z</time>
      </trkpt>
      <trkpt lat="49.72908" lon="2.36588">
        <ele>127.8</ele>
        <time>2022-10-05T12:27:43Z</time>
      </trkpt>
      <trkpt lat="49.72909" lon="2.3659">
        <ele>127.8</ele>
        <time>2022-10-05T12:27:45Z</time>
      </trkpt>
      <trkpt lat="49.72909" lon="2.36591">
        <ele>127.9</ele>
        <time>2022-10-05T12:27:46Z</time>
      </trkpt>
      <trkpt lat="49.72909" lon="2.36593">
        <ele>127.9</ele>
        <time>2022-10-05T12:27:47Z</time>
      </trkpt>
      <trkpt lat="49.7291" lon="2.36595">
        <ele>127.9</ele>
        <time>2022-10-05T12:27:48Z</time>
      </trkpt>
      <trkpt lat="49.72911" lon="2.36598">
        <ele>128</ele>
        <time>2022-10-05T12:27:49Z</time>
      </trkpt>
      <trkpt lat="49.72911" lon="2.36599">
        <ele>128.1</ele>
        <time>2022-10-05T12:27:50Z</time>
      </trkpt>
      <trkpt lat="49.72911" lon="2.366">
        <ele>128.1</ele>
        <time>2022-10-05T12:27:51Z</time>
      </trkpt>
      <trkpt lat="49.72912" lon="2.36601">
        <ele>128.1</ele>
        <time>2022-10-05T12:27:52Z</time>
      </trkpt>
      <trkpt lat="49.72912" lon="2.36604">
        <ele>128.2</ele>
        <time>2022-10-05T12:27:53Z</time>
      </trkpt>
      <trkpt lat="49.72913" lon="2.36606">
        <ele>128.2</ele>
        <time>2022-10-05T12:27:55Z</time>
      </trkpt>
      <trkpt lat="49.72913" lon="2.36607">
        <ele>128.3</ele>
        <time>2022-10-05T12:27:56Z</time>
      </trkpt>
      <trkpt lat="49.72914" lon="2.36608">
        <ele>128.3</ele>
        <time>2022-10-05T12:27:57Z</time>
      </trkpt>
      <trkpt lat="49.72914" lon="2.36609">
        <ele>128.3</ele>
        <time>2022-10-05T12:27:58Z</time>
      </trkpt>
      <trkpt lat="49.72914" lon="2.36611">
        <ele>128.4</ele>
        <time>2022-10-05T12:27:59Z</time>
      </trkpt>
      <trkpt lat="49.72915" lon="2.36612">
        <ele>128.4</ele>
        <time>2022-10-05T12:28:01Z</time>
      </trkpt>
      <trkpt lat="49.72915" lon="2.36613">
        <ele>128.4</ele>
        <time>2022-10-05T12:28:02Z</time>
      </trkpt>
      <trkpt lat="49.72915" lon="2.36614">
        <ele>128.4</ele>
        <time>2022-10-05T12:28:03Z</time>
      </trkpt>
      <trkpt lat="49.72915" lon="2.36616">
        <ele>128.5</ele>
        <time>2022-10-05T12:28:04Z</time>
      </trkpt>
      <trkpt lat="49.72915" lon="2.36617">
        <ele>128.5</ele>
        <time>2022-10-05T12:28:06Z</time>
      </trkpt>
      <trkpt lat="49.72915" lon="2.36618">
        <ele>128.5</ele>
        <time>2022-10-05T12:28:07Z</time>
      </trkpt>
      <trkpt lat="49.72916" lon="2.36619">
        <ele>128.5</ele>
        <time>2022-10-05T12:28:09Z</time>
      </trkpt>
      <trkpt lat="49.72915" lon="2.3662">
        <ele>128.5</ele>
        <time>2022-10-05T12:28:10Z</time>
      </trkpt>
      <trkpt lat="49.72913" lon="2.36617">
        <ele>128.6</ele>
        <time>2022-10-05T12:28:12Z</time>
      </trkpt>
      <trkpt lat="49.72913" lon="2.36617">
        <ele>128.6</ele>
        <time>2022-10-05T12:28:13Z</time>
      </trkpt>
      <trkpt lat="49.72912" lon="2.36616">
        <ele>128.6</ele>
        <time>2022-10-05T12:28:14Z</time>
      </trkpt>
      <trkpt lat="49.72912" lon="2.36616">
        <ele>128.6</ele>
        <time>2022-10-05T12:28:15Z</time>
      </trkpt>
      <trkpt lat="49.72912" lon="2.36616">
        <ele>128.7</ele>
        <time>2022-10-05T12:28:16Z</time>
      </trkpt>
      <trkpt lat="49.72911" lon="2.36616">
        <ele>128.7</ele>
        <time>2022-10-05T12:28:17Z</time>
      </trkpt>
      <trkpt lat="49.72911" lon="2.36616">
        <ele>128.7</ele>
        <time>2022-10-05T12:28:18Z</time>
      </trkpt>
      <trkpt lat="49.72911" lon="2.36615">
        <ele>128.7</ele>
        <time>2022-10-05T12:28:20Z</time>
      </trkpt>
      <trkpt lat="49.72911" lon="2.36615">
        <ele>128.7</ele>
        <time>2022-10-05T12:28:21Z</time>
      </trkpt>
      <trkpt lat="49.7291" lon="2.36615">
        <ele>128.7</ele>
        <time>2022-10-05T12:28:22Z</time>
      </trkpt>
      <trkpt lat="49.7291" lon="2.36613">
        <ele>128.7</ele>
        <time>2022-10-05T12:28:23Z</time>
      </trkpt>
      <trkpt lat="49.72909" lon="2.36612">
        <ele>128.7</ele>
        <time>2022-10-05T12:28:24Z</time>
      </trkpt>
      <trkpt lat="49.72909" lon="2.36612">
        <ele>128.7</ele>
        <time>2022-10-05T12:28:25Z</time>
      </trkpt>
      <trkpt lat="49.72909" lon="2.36612">
        <ele>128.7</ele>
        <time>2022-10-05T12:28:26Z</time>
      </trkpt>
      <trkpt lat="49.72909" lon="2.36612">
        <ele>128.7</ele>
        <time>2022-10-05T12:28:27Z</time>
      </trkpt>
      <trkpt lat="49.72909" lon="2.36612">
        <ele>128.7</ele>
        <time>2022-10-05T12:28:28Z</time>
      </trkpt>
      <trkpt lat="49.72909" lon="2.36611">
        <ele>128.8</ele>
        <time>2022-10-05T12:28:29Z</time>
      </trkpt>
      <trkpt lat="49.72909" lon="2.36611">
        <ele>128.8</ele>
        <time>2022-10-05T12:28:30Z</time>
      </trkpt>
      <trkpt lat="49.72909" lon="2.36611">
        <ele>128.8</ele>
        <time>2022-10-05T12:28:31Z</time>
      </trkpt>
      <trkpt lat="49.72909" lon="2.36611">
        <ele>128.8</ele>
        <time>2022-10-05T12:28:32Z</time>
      </trkpt>
      <trkpt lat="49.72909" lon="2.36611">
        <ele>128.8</ele>
        <time>2022-10-05T12:28:33Z</time>
      </trkpt>
      <trkpt lat="49.72909" lon="2.3661">
        <ele>128.8</ele>
        <time>2022-10-05T12:28:34Z</time>
      </trkpt>
      <trkpt lat="49.72909" lon="2.3661">
        <ele>128.8</ele>
        <time>2022-10-05T12:28:35Z</time>
      </trkpt>
      <trkpt lat="49.72909" lon="2.3661">
        <ele>128.8</ele>
        <time>2022-10-05T12:28:36Z</time>
      </trkpt>
      <trkpt lat="49.72909" lon="2.3661">
        <ele>128.8</ele>
        <time>2022-10-05T12:28:37Z</time>
      </trkpt>
      <trkpt lat="49.72909" lon="2.3661">
        <ele>128.8</ele>
        <time>2022-10-05T12:28:38Z</time>
      </trkpt>
      <trkpt lat="49.72909" lon="2.3661">
        <ele>128.8</ele>
        <time>2022-10-05T12:28:39Z</time>
      </trkpt>
      <trkpt lat="49.72909" lon="2.3661">
        <ele>128.8</ele>
        <time>2022-10-05T12:28:40Z</time>
      </trkpt>
      <trkpt lat="49.72909" lon="2.3661">
        <ele>128.8</ele>
        <time>2022-10-05T12:28:41Z</time>
      </trkpt>
      <trkpt lat="49.72909" lon="2.3661">
        <ele>128.8</ele>
        <time>2022-10-05T12:28:42Z</time>
      </trkpt>
      <trkpt lat="49.72909" lon="2.3661">
        <ele>128.8</ele>
        <time>2022-10-05T12:28:43Z</time>
      </trkpt>
      <trkpt lat="49.72909" lon="2.3661">
        <ele>128.8</ele>
        <time>2022-10-05T12:28:44Z</time>
      </trkpt>
      <trkpt lat="49.72909" lon="2.3661">
        <ele>128.8</ele>
        <time>2022-10-05T12:28:45Z</time>
      </trkpt>
      <trkpt lat="49.72909" lon="2.3661">
        <ele>128.8</ele>
        <time>2022-10-05T12:28:46Z</time>
      </trkpt>
      <trkpt lat="49.72909" lon="2.3661">
        <ele>128.8</ele>
        <time>2022-10-05T12:28:47Z</time>
      </trkpt>
      <trkpt lat="49.72909" lon="2.3661">
        <ele>128.8</ele>
        <time>2022-10-05T12:28:48Z</time>
      </trkpt>
      <trkpt lat="49.72909" lon="2.3661">
        <ele>128.8</ele>
        <time>2022-10-05T12:28:49Z</time>
      </trkpt>
      <trkpt lat="49.72909" lon="2.3661">
        <ele>128.8</ele>
        <time>2022-10-05T12:28:50Z</time>
      </trkpt>
      <trkpt lat="49.72909" lon="2.3661">
        <ele>128.8</ele>
        <time>2022-10-05T12:28:51Z</time>
      </trkpt>
      <trkpt lat="49.72909" lon="2.3661">
        <ele>128.8</ele>
        <time>2022-10-05T12:28:52Z</time>
      </trkpt>
      <trkpt lat="49.72909" lon="2.3661">
        <ele>128.8</ele>
        <time>2022-10-05T12:28:53Z</time>
      </trkpt>
      <trkpt lat="49.72909" lon="2.3661">
        <ele>128.8</ele>
        <time>2022-10-05T12:28:54Z</time>
      </trkpt>
      <trkpt lat="49.72909" lon="2.3661">
        <ele>128.8</ele>
        <time>2022-10-05T12:28:55Z</time>
      </trkpt>
      <trkpt lat="49.72909" lon="2.3661">
        <ele>128.8</ele>
        <time>2022-10-05T12:28:56Z</time>
      </trkpt>
      <trkpt lat="49.72909" lon="2.3661">
        <ele>128.8</ele>
        <time>2022-10-05T12:28:57Z</time>
      </trkpt>
      <trkpt lat="49.72909" lon="2.3661">
        <ele>128.8</ele>
        <time>2022-10-05T12:28:58Z</time>
      </trkpt>
      <trkpt lat="49.72909" lon="2.3661">
        <ele>128.8</ele>
        <time>2022-10-05T12:28:59Z</time>
      </trkpt>
      <trkpt lat="49.72909" lon="2.3661">
        <ele>128.8</ele>
        <time>2022-10-05T12:29:00Z</time>
      </trkpt>
      <trkpt lat="49.72909" lon="2.3661">
        <ele>128.8</ele>
        <time>2022-10-05T12:29:01Z</time>
      </trkpt>
      <trkpt lat="49.72909" lon="2.3661">
        <ele>128.8</ele>
        <time>2022-10-05T12:29:02Z</time>
      </trkpt>
      <trkpt lat="49.72909" lon="2.3661">
        <ele>128.8</ele>
        <time>2022-10-05T12:29:03Z</time>
      </trkpt>
      <trkpt lat="49.72909" lon="2.3661">
        <ele>128.8</ele>
        <time>2022-10-05T12:29:04Z</time>
      </trkpt>
      <trkpt lat="49.72909" lon="2.3661">
        <ele>128.8</ele>
        <time>2022-10-05T12:29:05Z</time>
      </trkpt>
      <trkpt lat="49.72909" lon="2.3661">
        <ele>128.8</ele>
        <time>2022-10-05T12:29:06Z</time>
      </trkpt>
      <trkpt lat="49.72909" lon="2.3661">
        <ele>128.8</ele>
        <time>2022-10-05T12:29:07Z</time>
      </trkpt>
      <trkpt lat="49.72909" lon="2.3661">
        <ele>128.8</ele>
        <time>2022-10-05T12:29:08Z</time>
      </trkpt>
      <trkpt lat="49.72909" lon="2.3661">
        <ele>128.8</ele>
        <time>2022-10-05T12:29:09Z</time>
      </trkpt>
      <trkpt lat="49.72909" lon="2.3661">
        <ele>128.8</ele>
        <time>2022-10-05T12:29:10Z</time>
      </trkpt>
      <trkpt lat="49.72909" lon="2.3661">
        <ele>128.8</ele>
        <time>2022-10-05T12:29:11Z</time>
      </trkpt>
      <trkpt lat="49.72909" lon="2.3661">
        <ele>128.8</ele>
        <time>2022-10-05T12:29:12Z</time>
      </trkpt>
      <trkpt lat="49.72909" lon="2.3661">
        <ele>128.8</ele>
        <time>2022-10-05T12:29:13Z</time>
      </trkpt>
      <trkpt lat="49.72909" lon="2.3661">
        <ele>128.8</ele>
        <time>2022-10-05T12:29:14Z</time>
      </trkpt>
      <trkpt lat="49.72909" lon="2.3661">
        <ele>128.8</ele>
        <time>2022-10-05T12:29:15Z</time>
      </trkpt>
      <trkpt lat="49.72909" lon="2.3661">
        <ele>128.8</ele>
        <time>2022-10-05T12:29:16Z</time>
      </trkpt>
      <trkpt lat="49.72909" lon="2.3661">
        <ele>128.8</ele>
        <time>2022-10-05T12:29:17Z</time>
      </trkpt>
      <trkpt lat="49.72909" lon="2.3661">
        <ele>128.8</ele>
        <time>2022-10-05T12:29:18Z</time>
      </trkpt>
      <trkpt lat="49.72909" lon="2.3661">
        <ele>128.8</ele>
        <time>2022-10-05T12:29:19Z</time>
      </trkpt>
      <trkpt lat="49.72909" lon="2.3661">
        <ele>128.8</ele>
        <time>2022-10-05T12:29:20Z</time>
      </trkpt>
      <trkpt lat="49.72909" lon="2.3661">
        <ele>128.8</ele>
        <time>2022-10-05T12:29:21Z</time>
      </trkpt>
      <trkpt lat="49.72909" lon="2.3661">
        <ele>128.8</ele>
        <time>2022-10-05T12:29:22Z</time>
      </trkpt>
      <trkpt lat="49.72909" lon="2.3661">
        <ele>128.8</ele>
        <time>2022-10-05T12:29:23Z</time>
      </trkpt>
      <trkpt lat="49.72909" lon="2.3661">
        <ele>128.8</ele>
        <time>2022-10-05T12:29:24Z</time>
      </trkpt>
      <trkpt lat="49.72909" lon="2.3661">
        <ele>128.8</ele>
        <time>2022-10-05T12:29:25Z</time>
      </trkpt>
      <trkpt lat="49.72909" lon="2.3661">
        <ele>128.8</ele>
        <time>2022-10-05T12:29:26Z</time>
      </trkpt>
      <trkpt lat="49.72909" lon="2.3661">
        <ele>128.8</ele>
        <time>2022-10-05T12:29:27Z</time>
      </trkpt>
      <trkpt lat="49.72909" lon="2.3661">
        <ele>128.8</ele>
        <time>2022-10-05T12:29:28Z</time>
      </trkpt>
      <trkpt lat="49.72909" lon="2.3661">
        <ele>128.8</ele>
        <time>2022-10-05T12:29:29Z</time>
      </trkpt>
      <trkpt lat="49.72908" lon="2.36612">
        <ele>128.8</ele>
        <time>2022-10-05T12:29:30Z</time>
      </trkpt>
      <trkpt lat="49.72907" lon="2.36613">
        <ele>128.8</ele>
        <time>2022-10-05T12:29:31Z</time>
      </trkpt>
      <trkpt lat="49.72906" lon="2.36613">
        <ele>128.9</ele>
        <time>2022-10-05T12:29:32Z</time>
      </trkpt>
      <trkpt lat="49.72906" lon="2.36613">
        <ele>128.9</ele>
        <time>2022-10-05T12:29:33Z</time>
      </trkpt>
      <trkpt lat="49.72906" lon="2.36613">
        <ele>128.9</ele>
        <time>2022-10-05T12:29:34Z</time>
      </trkpt>
      <trkpt lat="49.72905" lon="2.36614">
        <ele>128.9</ele>
        <time>2022-10-05T12:29:35Z</time>
      </trkpt>
      <trkpt lat="49.72905" lon="2.36614">
        <ele>128.9</ele>
        <time>2022-10-05T12:29:36Z</time>
      </trkpt>
      <trkpt lat="49.72905" lon="2.36614">
        <ele>128.9</ele>
        <time>2022-10-05T12:29:37Z</time>
      </trkpt>
      <trkpt lat="49.72905" lon="2.36614">
        <ele>128.9</ele>
        <time>2022-10-05T12:29:39Z</time>
      </trkpt>
      <trkpt lat="49.72905" lon="2.36614">
        <ele>128.9</ele>
        <time>2022-10-05T12:29:40Z</time>
      </trkpt>
      <trkpt lat="49.72905" lon="2.36614">
        <ele>128.9</ele>
        <time>2022-10-05T12:29:41Z</time>
      </trkpt>
      <trkpt lat="49.72905" lon="2.36614">
        <ele>128.9</ele>
        <time>2022-10-05T12:29:42Z</time>
      </trkpt>
      <trkpt lat="49.72905" lon="2.36614">
        <ele>128.9</ele>
        <time>2022-10-05T12:29:43Z</time>
      </trkpt>
      <trkpt lat="49.72905" lon="2.36615">
        <ele>128.9</ele>
        <time>2022-10-05T12:29:44Z</time>
      </trkpt>
      <trkpt lat="49.72905" lon="2.36615">
        <ele>128.9</ele>
        <time>2022-10-05T12:29:45Z</time>
      </trkpt>
      <trkpt lat="49.72905" lon="2.36615">
        <ele>128.9</ele>
        <time>2022-10-05T12:29:46Z</time>
      </trkpt>
      <trkpt lat="49.72905" lon="2.36615">
        <ele>128.9</ele>
        <time>2022-10-05T12:29:47Z</time>
      </trkpt>
      <trkpt lat="49.72905" lon="2.36614">
        <ele>128.9</ele>
        <time>2022-10-05T12:29:48Z</time>
      </trkpt>
      <trkpt lat="49.72905" lon="2.36614">
        <ele>128.9</ele>
        <time>2022-10-05T12:29:49Z</time>
      </trkpt>
      <trkpt lat="49.72905" lon="2.36614">
        <ele>128.9</ele>
        <time>2022-10-05T12:29:50Z</time>
      </trkpt>
      <trkpt lat="49.72905" lon="2.36615">
        <ele>128.9</ele>
        <time>2022-10-05T12:29:51Z</time>
      </trkpt>
      <trkpt lat="49.72904" lon="2.36615">
        <ele>129</ele>
        <time>2022-10-05T12:29:52Z</time>
      </trkpt>
      <trkpt lat="49.72904" lon="2.36615">
        <ele>129</ele>
        <time>2022-10-05T12:29:53Z</time>
      </trkpt>
      <trkpt lat="49.72904" lon="2.36615">
        <ele>129</ele>
        <time>2022-10-05T12:29:54Z</time>
      </trkpt>
      <trkpt lat="49.72904" lon="2.36615">
        <ele>129</ele>
        <time>2022-10-05T12:29:55Z</time>
      </trkpt>
      <trkpt lat="49.72904" lon="2.36615">
        <ele>129</ele>
        <time>2022-10-05T12:29:56Z</time>
      </trkpt>
      <trkpt lat="49.72904" lon="2.36615">
        <ele>129</ele>
        <time>2022-10-05T12:29:57Z</time>
      </trkpt>
      <trkpt lat="49.72904" lon="2.36615">
        <ele>129</ele>
        <time>2022-10-05T12:29:58Z</time>
      </trkpt>
      <trkpt lat="49.72904" lon="2.36615">
        <ele>129</ele>
        <time>2022-10-05T12:29:59Z</time>
      </trkpt>
      <trkpt lat="49.72904" lon="2.36615">
        <ele>129</ele>
        <time>2022-10-05T12:30:00Z</time>
      </trkpt>
      <trkpt lat="49.72904" lon="2.36615">
        <ele>129</ele>
        <time>2022-10-05T12:30:01Z</time>
      </trkpt>
      <trkpt lat="49.72904" lon="2.36615">
        <ele>129</ele>
        <time>2022-10-05T12:30:02Z</time>
      </trkpt>
      <trkpt lat="49.72904" lon="2.36615">
        <ele>129</ele>
        <time>2022-10-05T12:30:03Z</time>
      </trkpt>
      <trkpt lat="49.72904" lon="2.36615">
        <ele>129</ele>
        <time>2022-10-05T12:30:04Z</time>
      </trkpt>
      <trkpt lat="49.72904" lon="2.36615">
        <ele>129</ele>
        <time>2022-10-05T12:30:05Z</time>
      </trkpt>
      <trkpt lat="49.72904" lon="2.36615">
        <ele>129</ele>
        <time>2022-10-05T12:30:06Z</time>
      </trkpt>
      <trkpt lat="49.72904" lon="2.36615">
        <ele>129</ele>
        <time>2022-10-05T12:30:07Z</time>
      </trkpt>
      <trkpt lat="49.72904" lon="2.36615">
        <ele>129</ele>
        <time>2022-10-05T12:30:08Z</time>
      </trkpt>
      <trkpt lat="49.72904" lon="2.36615">
        <ele>129</ele>
        <time>2022-10-05T12:30:09Z</time>
      </trkpt>
      <trkpt lat="49.72904" lon="2.36615">
        <ele>129</ele>
        <time>2022-10-05T12:30:10Z</time>
      </trkpt>
      <trkpt lat="49.72904" lon="2.36615">
        <ele>129</ele>
        <time>2022-10-05T12:30:11Z</time>
      </trkpt>
      <trkpt lat="49.72904" lon="2.36615">
        <ele>129</ele>
        <time>2022-10-05T12:30:12Z</time>
      </trkpt>
      <trkpt lat="49.72904" lon="2.36615">
        <ele>129</ele>
        <time>2022-10-05T12:30:13Z</time>
      </trkpt>
      <trkpt lat="49.72904" lon="2.36615">
        <ele>129</ele>
        <time>2022-10-05T12:30:14Z</time>
      </trkpt>
      <trkpt lat="49.72904" lon="2.36615">
        <ele>129</ele>
        <time>2022-10-05T12:30:15Z</time>
      </trkpt>
      <trkpt lat="49.72904" lon="2.36615">
        <ele>129</ele>
        <time>2022-10-05T12:30:16Z</time>
      </trkpt>
      <trkpt lat="49.72904" lon="2.36615">
        <ele>129</ele>
        <time>2022-10-05T12:30:17Z</time>
      </trkpt>
      <trkpt lat="49.72904" lon="2.36615">
        <ele>129</ele>
        <time>2022-10-05T12:30:18Z</time>
      </trkpt>
      <trkpt lat="49.72904" lon="2.36615">
        <ele>129</ele>
        <time>2022-10-05T12:30:19Z</time>
      </trkpt>
      <trkpt lat="49.72904" lon="2.36615">
        <ele>129</ele>
        <time>2022-10-05T12:30:20Z</time>
      </trkpt>
      <trkpt lat="49.72904" lon="2.36615">
        <ele>129</ele>
        <time>2022-10-05T12:30:21Z</time>
      </trkpt>
      <trkpt lat="49.72904" lon="2.36615">
        <ele>129</ele>
        <time>2022-10-05T12:30:22Z</time>
      </trkpt>
      <trkpt lat="49.72904" lon="2.36615">
        <ele>129</ele>
        <time>2022-10-05T12:30:23Z</time>
      </trkpt>
      <trkpt lat="49.72904" lon="2.36615">
        <ele>129</ele>
        <time>2022-10-05T12:30:24Z</time>
      </trkpt>
      <trkpt lat="49.72904" lon="2.36615">
        <ele>129</ele>
        <time>2022-10-05T12:30:25Z</time>
      </trkpt>
      <trkpt lat="49.72904" lon="2.36615">
        <ele>129</ele>
        <time>2022-10-05T12:30:26Z</time>
      </trkpt>
      <trkpt lat="49.72904" lon="2.36615">
        <ele>129</ele>
        <time>2022-10-05T12:30:27Z</time>
      </trkpt>
      <trkpt lat="49.72904" lon="2.36615">
        <ele>129</ele>
        <time>2022-10-05T12:30:28Z</time>
      </trkpt>
      <trkpt lat="49.72904" lon="2.36615">
        <ele>129</ele>
        <time>2022-10-05T12:30:29Z</time>
      </trkpt>
      <trkpt lat="49.72904" lon="2.36615">
        <ele>129</ele>
        <time>2022-10-05T12:30:30Z</time>
      </trkpt>
      <trkpt lat="49.72904" lon="2.36615">
        <ele>129</ele>
        <time>2022-10-05T12:30:31Z</time>
      </trkpt>
      <trkpt lat="49.72904" lon="2.36615">
        <ele>129</ele>
        <time>2022-10-05T12:30:32Z</time>
      </trkpt>
      <trkpt lat="49.72904" lon="2.36615">
        <ele>129</ele>
        <time>2022-10-05T12:30:33Z</time>
      </trkpt>
      <trkpt lat="49.72904" lon="2.36615">
        <ele>129</ele>
        <time>2022-10-05T12:30:34Z</time>
      </trkpt>
      <trkpt lat="49.72904" lon="2.36615">
        <ele>129</ele>
        <time>2022-10-05T12:30:35Z</time>
      </trkpt>
      <trkpt lat="49.72904" lon="2.36615">
        <ele>129</ele>
        <time>2022-10-05T12:30:36Z</time>
      </trkpt>
      <trkpt lat="49.72904" lon="2.36615">
        <ele>129</ele>
        <time>2022-10-05T12:30:37Z</time>
      </trkpt>
      <trkpt lat="49.72904" lon="2.36615">
        <ele>129</ele>
        <time>2022-10-05T12:30:38Z</time>
      </trkpt>
      <trkpt lat="49.72905" lon="2.36615">
        <ele>129</ele>
        <time>2022-10-05T12:30:39Z</time>
      </trkpt>
      <trkpt lat="49.72906" lon="2.36614">
        <ele>129</ele>
        <time>2022-10-05T12:30:40Z</time>
      </trkpt>
      <trkpt lat="49.72907" lon="2.36613">
        <ele>129</ele>
        <time>2022-10-05T12:30:41Z</time>
      </trkpt>
      <trkpt lat="49.72907" lon="2.36613">
        <ele>129</ele>
        <time>2022-10-05T12:30:42Z</time>
      </trkpt>
      <trkpt lat="49.72907" lon="2.36614">
        <ele>129</ele>
        <time>2022-10-05T12:30:43Z</time>
      </trkpt>
      <trkpt lat="49.72907" lon="2.36614">
        <ele>129</ele>
        <time>2022-10-05T12:30:44Z</time>
      </trkpt>
      <trkpt lat="49.72907" lon="2.36615">
        <ele>129</ele>
        <time>2022-10-05T12:30:45Z</time>
      </trkpt>
      <trkpt lat="49.72908" lon="2.36615">
        <ele>129.1</ele>
        <time>2022-10-05T12:30:46Z</time>
      </trkpt>
      <trkpt lat="49.72907" lon="2.36615">
        <ele>129.1</ele>
        <time>2022-10-05T12:30:47Z</time>
      </trkpt>
      <trkpt lat="49.72907" lon="2.36615">
        <ele>129.1</ele>
        <time>2022-10-05T12:30:48Z</time>
      </trkpt>
      <trkpt lat="49.72907" lon="2.36614">
        <ele>129.1</ele>
        <time>2022-10-05T12:30:49Z</time>
      </trkpt>
      <trkpt lat="49.72907" lon="2.36614">
        <ele>129.1</ele>
        <time>2022-10-05T12:30:50Z</time>
      </trkpt>
      <trkpt lat="49.72907" lon="2.36614">
        <ele>129.1</ele>
        <time>2022-10-05T12:30:51Z</time>
      </trkpt>
      <trkpt lat="49.72907" lon="2.36614">
        <ele>129.1</ele>
        <time>2022-10-05T12:30:52Z</time>
      </trkpt>
      <trkpt lat="49.72907" lon="2.36614">
        <ele>129.1</ele>
        <time>2022-10-05T12:30:53Z</time>
      </trkpt>
      <trkpt lat="49.72907" lon="2.36614">
        <ele>129.1</ele>
        <time>2022-10-05T12:30:54Z</time>
      </trkpt>
      <trkpt lat="49.72907" lon="2.36614">
        <ele>129.1</ele>
        <time>2022-10-05T12:30:55Z</time>
      </trkpt>
      <trkpt lat="49.72907" lon="2.36615">
        <ele>129.1</ele>
        <time>2022-10-05T12:30:56Z</time>
      </trkpt>
      <trkpt lat="49.72907" lon="2.36615">
        <ele>129.1</ele>
        <time>2022-10-05T12:30:57Z</time>
      </trkpt>
      <trkpt lat="49.72907" lon="2.36615">
        <ele>129.1</ele>
        <time>2022-10-05T12:30:58Z</time>
      </trkpt>
      <trkpt lat="49.72907" lon="2.36615">
        <ele>129.1</ele>
        <time>2022-10-05T12:30:59Z</time>
      </trkpt>
      <trkpt lat="49.72907" lon="2.36615">
        <ele>129.1</ele>
        <time>2022-10-05T12:31:00Z</time>
      </trkpt>
      <trkpt lat="49.72907" lon="2.36615">
        <ele>129.1</ele>
        <time>2022-10-05T12:31:01Z</time>
      </trkpt>
      <trkpt lat="49.72906" lon="2.36615">
        <ele>129.1</ele>
        <time>2022-10-05T12:31:02Z</time>
      </trkpt>
      <trkpt lat="49.72906" lon="2.36615">
        <ele>129.1</ele>
        <time>2022-10-05T12:31:03Z</time>
      </trkpt>
      <trkpt lat="49.72906" lon="2.36615">
        <ele>129.1</ele>
        <time>2022-10-05T12:31:04Z</time>
      </trkpt>
      <trkpt lat="49.72907" lon="2.36615">
        <ele>129.1</ele>
        <time>2022-10-05T12:31:05Z</time>
      </trkpt>
      <trkpt lat="49.72907" lon="2.36615">
        <ele>129.1</ele>
        <time>2022-10-05T12:31:06Z</time>
      </trkpt>
      <trkpt lat="49.72907" lon="2.36616">
        <ele>129.1</ele>
        <time>2022-10-05T12:31:07Z</time>
      </trkpt>
      <trkpt lat="49.72908" lon="2.36616">
        <ele>129.1</ele>
        <time>2022-10-05T12:31:08Z</time>
      </trkpt>
      <trkpt lat="49.72907" lon="2.36617">
        <ele>129.1</ele>
        <time>2022-10-05T12:31:09Z</time>
      </trkpt>
      <trkpt lat="49.72908" lon="2.36618">
        <ele>129.2</ele>
        <time>2022-10-05T12:31:10Z</time>
      </trkpt>
      <trkpt lat="49.72908" lon="2.36618">
        <ele>129.2</ele>
        <time>2022-10-05T12:31:11Z</time>
      </trkpt>
      <trkpt lat="49.72908" lon="2.36618">
        <ele>129.2</ele>
        <time>2022-10-05T12:31:12Z</time>
      </trkpt>
      <trkpt lat="49.72908" lon="2.36618">
        <ele>129.2</ele>
        <time>2022-10-05T12:31:13Z</time>
      </trkpt>
      <trkpt lat="49.72908" lon="2.36618">
        <ele>129.2</ele>
        <time>2022-10-05T12:31:14Z</time>
      </trkpt>
      <trkpt lat="49.72908" lon="2.36618">
        <ele>129.2</ele>
        <time>2022-10-05T12:31:15Z</time>
      </trkpt>
      <trkpt lat="49.72908" lon="2.36618">
        <ele>129.2</ele>
        <time>2022-10-05T12:31:16Z</time>
      </trkpt>
      <trkpt lat="49.72908" lon="2.36618">
        <ele>129.2</ele>
        <time>2022-10-05T12:31:17Z</time>
      </trkpt>
      <trkpt lat="49.72908" lon="2.36618">
        <ele>129.2</ele>
        <time>2022-10-05T12:31:18Z</time>
      </trkpt>
      <trkpt lat="49.72908" lon="2.36618">
        <ele>129.2</ele>
        <time>2022-10-05T12:31:19Z</time>
      </trkpt>
      <trkpt lat="49.72908" lon="2.36618">
        <ele>129.2</ele>
        <time>2022-10-05T12:31:20Z</time>
      </trkpt>
      <trkpt lat="49.72908" lon="2.36618">
        <ele>129.2</ele>
        <time>2022-10-05T12:31:21Z</time>
      </trkpt>
      <trkpt lat="49.72908" lon="2.36618">
        <ele>129.2</ele>
        <time>2022-10-05T12:31:22Z</time>
      </trkpt>
      <trkpt lat="49.72908" lon="2.36618">
        <ele>129.2</ele>
        <time>2022-10-05T12:31:23Z</time>
      </trkpt>
      <trkpt lat="49.72908" lon="2.36618">
        <ele>129.2</ele>
        <time>2022-10-05T12:31:24Z</time>
      </trkpt>
      <trkpt lat="49.72908" lon="2.36618">
        <ele>129.2</ele>
        <time>2022-10-05T12:31:25Z</time>
      </trkpt>
      <trkpt lat="49.72908" lon="2.36618">
        <ele>129.2</ele>
        <time>2022-10-05T12:31:26Z</time>
      </trkpt>
      <trkpt lat="49.72908" lon="2.36618">
        <ele>129.2</ele>
        <time>2022-10-05T12:31:27Z</time>
      </trkpt>
      <trkpt lat="49.72908" lon="2.36618">
        <ele>129.2</ele>
        <time>2022-10-05T12:31:28Z</time>
      </trkpt>
      <trkpt lat="49.72908" lon="2.36618">
        <ele>129.2</ele>
        <time>2022-10-05T12:31:29Z</time>
      </trkpt>
      <trkpt lat="49.72908" lon="2.36618">
        <ele>129.2</ele>
        <time>2022-10-05T12:31:30Z</time>
      </trkpt>
      <trkpt lat="49.72908" lon="2.36618">
        <ele>129.2</ele>
        <time>2022-10-05T12:31:31Z</time>
      </trkpt>
      <trkpt lat="49.72908" lon="2.36618">
        <ele>129.2</ele>
        <time>2022-10-05T12:31:32Z</time>
      </trkpt>
      <trkpt lat="49.72908" lon="2.36618">
        <ele>129.2</ele>
        <time>2022-10-05T12:31:33Z</time>
      </trkpt>
      <trkpt lat="49.72908" lon="2.36618">
        <ele>129.2</ele>
        <time>2022-10-05T12:31:34Z</time>
      </trkpt>
      <trkpt lat="49.72909" lon="2.36619">
        <ele>129.2</ele>
        <time>2022-10-05T12:31:35Z</time>
      </trkpt>
      <trkpt lat="49.72909" lon="2.36619">
        <ele>129.2</ele>
        <time>2022-10-05T12:31:36Z</time>
      </trkpt>
      <trkpt lat="49.7291" lon="2.3662">
        <ele>129.2</ele>
        <time>2022-10-05T12:31:37Z</time>
      </trkpt>
      <trkpt lat="49.72911" lon="2.3662">
        <ele>129.2</ele>
        <time>2022-10-05T12:31:38Z</time>
      </trkpt>
      <trkpt lat="49.72913" lon="2.36621">
        <ele>129.3</ele>
        <time>2022-10-05T12:31:39Z</time>
      </trkpt>
      <trkpt lat="49.72914" lon="2.36622">
        <ele>129.3</ele>
        <time>2022-10-05T12:31:41Z</time>
      </trkpt>
      <trkpt lat="49.72915" lon="2.36622">
        <ele>129.3</ele>
        <time>2022-10-05T12:31:42Z</time>
      </trkpt>
      <trkpt lat="49.72917" lon="2.36624">
        <ele>129.3</ele>
        <time>2022-10-05T12:31:43Z</time>
      </trkpt>
      <trkpt lat="49.72917" lon="2.36625">
        <ele>129.3</ele>
        <time>2022-10-05T12:31:44Z</time>
      </trkpt>
      <trkpt lat="49.72918" lon="2.36626">
        <ele>129.3</ele>
        <time>2022-10-05T12:31:45Z</time>
      </trkpt>
      <trkpt lat="49.72919" lon="2.36627">
        <ele>129.4</ele>
        <time>2022-10-05T12:31:46Z</time>
      </trkpt>
      <trkpt lat="49.7292" lon="2.36628">
        <ele>129.4</ele>
        <time>2022-10-05T12:31:47Z</time>
      </trkpt>
      <trkpt lat="49.72921" lon="2.36629">
        <ele>129.4</ele>
        <time>2022-10-05T12:31:49Z</time>
      </trkpt>
      <trkpt lat="49.72922" lon="2.36631">
        <ele>129.4</ele>
        <time>2022-10-05T12:31:50Z</time>
      </trkpt>
      <trkpt lat="49.72923" lon="2.36633">
        <ele>129.4</ele>
        <time>2022-10-05T12:31:51Z</time>
      </trkpt>
      <trkpt lat="49.72923" lon="2.36634">
        <ele>129.4</ele>
        <time>2022-10-05T12:31:52Z</time>
      </trkpt>
      <trkpt lat="49.72923" lon="2.36635">
        <ele>129.4</ele>
        <time>2022-10-05T12:31:53Z</time>
      </trkpt>
      <trkpt lat="49.72923" lon="2.36636">
        <ele>129.5</ele>
        <time>2022-10-05T12:31:54Z</time>
      </trkpt>
      <trkpt lat="49.72923" lon="2.36639">
        <ele>129.5</ele>
        <time>2022-10-05T12:31:56Z</time>
      </trkpt>
      <trkpt lat="49.72922" lon="2.3664">
        <ele>129.5</ele>
        <time>2022-10-05T12:31:57Z</time>
      </trkpt>
      <trkpt lat="49.72922" lon="2.36642">
        <ele>129.5</ele>
        <time>2022-10-05T12:31:58Z</time>
      </trkpt>
      <trkpt lat="49.72922" lon="2.36644">
        <ele>129.5</ele>
        <time>2022-10-05T12:31:59Z</time>
      </trkpt>
      <trkpt lat="49.72921" lon="2.36647">
        <ele>129.5</ele>
        <time>2022-10-05T12:32:00Z</time>
      </trkpt>
      <trkpt lat="49.7292" lon="2.36649">
        <ele>129.5</ele>
        <time>2022-10-05T12:32:01Z</time>
      </trkpt>
      <trkpt lat="49.7292" lon="2.36651">
        <ele>129.5</ele>
        <time>2022-10-05T12:32:02Z</time>
      </trkpt>
      <trkpt lat="49.7292" lon="2.36653">
        <ele>129.5</ele>
        <time>2022-10-05T12:32:03Z</time>
      </trkpt>
      <trkpt lat="49.7292" lon="2.36656">
        <ele>129.5</ele>
        <time>2022-10-05T12:32:05Z</time>
      </trkpt>
      <trkpt lat="49.7292" lon="2.36658">
        <ele>129.5</ele>
        <time>2022-10-05T12:32:06Z</time>
      </trkpt>
      <trkpt lat="49.72919" lon="2.36659">
        <ele>129.5</ele>
        <time>2022-10-05T12:32:07Z</time>
      </trkpt>
      <trkpt lat="49.72919" lon="2.3666">
        <ele>129.5</ele>
        <time>2022-10-05T12:32:08Z</time>
      </trkpt>
      <trkpt lat="49.72919" lon="2.36662">
        <ele>129.5</ele>
        <time>2022-10-05T12:32:09Z</time>
      </trkpt>
      <trkpt lat="49.72919" lon="2.36664">
        <ele>129.5</ele>
        <time>2022-10-05T12:32:10Z</time>
      </trkpt>
      <trkpt lat="49.72919" lon="2.36666">
        <ele>129.5</ele>
        <time>2022-10-05T12:32:11Z</time>
      </trkpt>
      <trkpt lat="49.7292" lon="2.36668">
        <ele>129.5</ele>
        <time>2022-10-05T12:32:12Z</time>
      </trkpt>
      <trkpt lat="49.7292" lon="2.3667">
        <ele>129.5</ele>
        <time>2022-10-05T12:32:13Z</time>
      </trkpt>
      <trkpt lat="49.7292" lon="2.36673">
        <ele>129.5</ele>
        <time>2022-10-05T12:32:15Z</time>
      </trkpt>
      <trkpt lat="49.7292" lon="2.36675">
        <ele>129.5</ele>
        <time>2022-10-05T12:32:16Z</time>
      </trkpt>
      <trkpt lat="49.7292" lon="2.36676">
        <ele>129.5</ele>
        <time>2022-10-05T12:32:17Z</time>
      </trkpt>
      <trkpt lat="49.72921" lon="2.36678">
        <ele>129.5</ele>
        <time>2022-10-05T12:32:18Z</time>
      </trkpt>
      <trkpt lat="49.72921" lon="2.36679">
        <ele>129.5</ele>
        <time>2022-10-05T12:32:19Z</time>
      </trkpt>
      <trkpt lat="49.72921" lon="2.36681">
        <ele>129.5</ele>
        <time>2022-10-05T12:32:20Z</time>
      </trkpt>
      <trkpt lat="49.7292" lon="2.36683">
        <ele>129.5</ele>
        <time>2022-10-05T12:32:21Z</time>
      </trkpt>
      <trkpt lat="49.7292" lon="2.36686">
        <ele>129.5</ele>
        <time>2022-10-05T12:32:23Z</time>
      </trkpt>
      <trkpt lat="49.7292" lon="2.36688">
        <ele>129.5</ele>
        <time>2022-10-05T12:32:24Z</time>
      </trkpt>
      <trkpt lat="49.7292" lon="2.36691">
        <ele>129.5</ele>
        <time>2022-10-05T12:32:25Z</time>
      </trkpt>
      <trkpt lat="49.7292" lon="2.36693">
        <ele>129.5</ele>
        <time>2022-10-05T12:32:26Z</time>
      </trkpt>
      <trkpt lat="49.72919" lon="2.36696">
        <ele>129.5</ele>
        <time>2022-10-05T12:32:27Z</time>
      </trkpt>
      <trkpt lat="49.72919" lon="2.36698">
        <ele>129.5</ele>
        <time>2022-10-05T12:32:29Z</time>
      </trkpt>
      <trkpt lat="49.72919" lon="2.36701">
        <ele>129.5</ele>
        <time>2022-10-05T12:32:30Z</time>
      </trkpt>
      <trkpt lat="49.72918" lon="2.36702">
        <ele>129.5</ele>
        <time>2022-10-05T12:32:31Z</time>
      </trkpt>
      <trkpt lat="49.72918" lon="2.36704">
        <ele>129.5</ele>
        <time>2022-10-05T12:32:32Z</time>
      </trkpt>
      <trkpt lat="49.72919" lon="2.36706">
        <ele>129.5</ele>
        <time>2022-10-05T12:32:33Z</time>
      </trkpt>
      <trkpt lat="49.72919" lon="2.36708">
        <ele>129.5</ele>
        <time>2022-10-05T12:32:35Z</time>
      </trkpt>
      <trkpt lat="49.72919" lon="2.36712">
        <ele>129.5</ele>
        <time>2022-10-05T12:32:36Z</time>
      </trkpt>
      <trkpt lat="49.72919" lon="2.36713">
        <ele>129.5</ele>
        <time>2022-10-05T12:32:37Z</time>
      </trkpt>
      <trkpt lat="49.72919" lon="2.36714">
        <ele>129.5</ele>
        <time>2022-10-05T12:32:38Z</time>
      </trkpt>
      <trkpt lat="49.72919" lon="2.36716">
        <ele>129.5</ele>
        <time>2022-10-05T12:32:39Z</time>
      </trkpt>
      <trkpt lat="49.72919" lon="2.3672">
        <ele>129.5</ele>
        <time>2022-10-05T12:32:41Z</time>
      </trkpt>
      <trkpt lat="49.7292" lon="2.36721">
        <ele>129.5</ele>
        <time>2022-10-05T12:32:42Z</time>
      </trkpt>
      <trkpt lat="49.7292" lon="2.36722">
        <ele>129.5</ele>
        <time>2022-10-05T12:32:43Z</time>
      </trkpt>
      <trkpt lat="49.7292" lon="2.36724">
        <ele>129.5</ele>
        <time>2022-10-05T12:32:44Z</time>
      </trkpt>
      <trkpt lat="49.72921" lon="2.36727">
        <ele>129.4</ele>
        <time>2022-10-05T12:32:45Z</time>
      </trkpt>
      <trkpt lat="49.72922" lon="2.36728">
        <ele>129.4</ele>
        <time>2022-10-05T12:32:46Z</time>
      </trkpt>
      <trkpt lat="49.72923" lon="2.36731">
        <ele>129.4</ele>
        <time>2022-10-05T12:32:47Z</time>
      </trkpt>
      <trkpt lat="49.72923" lon="2.36732">
        <ele>129.4</ele>
        <time>2022-10-05T12:32:48Z</time>
      </trkpt>
      <trkpt lat="49.72924" lon="2.36734">
        <ele>129.4</ele>
        <time>2022-10-05T12:32:50Z</time>
      </trkpt>
      <trkpt lat="49.72924" lon="2.36735">
        <ele>129.4</ele>
        <time>2022-10-05T12:32:51Z</time>
      </trkpt>
      <trkpt lat="49.72925" lon="2.36736">
        <ele>129.4</ele>
        <time>2022-10-05T12:32:52Z</time>
      </trkpt>
      <trkpt lat="49.72925" lon="2.36738">
        <ele>129.4</ele>
        <time>2022-10-05T12:32:53Z</time>
      </trkpt>
      <trkpt lat="49.72926" lon="2.36739">
        <ele>129.4</ele>
        <time>2022-10-05T12:32:54Z</time>
      </trkpt>
      <trkpt lat="49.72927" lon="2.36743">
        <ele>129.4</ele>
        <time>2022-10-05T12:32:56Z</time>
      </trkpt>
      <trkpt lat="49.72927" lon="2.36744">
        <ele>129.4</ele>
        <time>2022-10-05T12:32:57Z</time>
      </trkpt>
      <trkpt lat="49.72927" lon="2.36746">
        <ele>129.4</ele>
        <time>2022-10-05T12:32:58Z</time>
      </trkpt>
      <trkpt lat="49.72928" lon="2.36748">
        <ele>129.4</ele>
        <time>2022-10-05T12:32:59Z</time>
      </trkpt>
      <trkpt lat="49.72928" lon="2.36752">
        <ele>129.3</ele>
        <time>2022-10-05T12:33:00Z</time>
      </trkpt>
      <trkpt lat="49.72929" lon="2.36753">
        <ele>129.3</ele>
        <time>2022-10-05T12:33:01Z</time>
      </trkpt>
      <trkpt lat="49.72929" lon="2.36755">
        <ele>129.3</ele>
        <time>2022-10-05T12:33:03Z</time>
      </trkpt>
      <trkpt lat="49.72929" lon="2.36756">
        <ele>129.3</ele>
        <time>2022-10-05T12:33:04Z</time>
      </trkpt>
      <trkpt lat="49.72929" lon="2.36758">
        <ele>129.3</ele>
        <time>2022-10-05T12:33:05Z</time>
      </trkpt>
      <trkpt lat="49.7293" lon="2.3676">
        <ele>129.3</ele>
        <time>2022-10-05T12:33:06Z</time>
      </trkpt>
      <trkpt lat="49.7293" lon="2.36761">
        <ele>129.3</ele>
        <time>2022-10-05T12:33:07Z</time>
      </trkpt>
      <trkpt lat="49.7293" lon="2.36763">
        <ele>129.3</ele>
        <time>2022-10-05T12:33:08Z</time>
      </trkpt>
      <trkpt lat="49.7293" lon="2.36765">
        <ele>129.3</ele>
        <time>2022-10-05T12:33:09Z</time>
      </trkpt>
      <trkpt lat="49.72931" lon="2.36768">
        <ele>129.2</ele>
        <time>2022-10-05T12:33:10Z</time>
      </trkpt>
      <trkpt lat="49.72932" lon="2.36769">
        <ele>129.2</ele>
        <time>2022-10-05T12:33:11Z</time>
      </trkpt>
      <trkpt lat="49.72932" lon="2.36771">
        <ele>129.2</ele>
        <time>2022-10-05T12:33:12Z</time>
      </trkpt>
      <trkpt lat="49.72932" lon="2.36773">
        <ele>129.2</ele>
        <time>2022-10-05T12:33:13Z</time>
      </trkpt>
      <trkpt lat="49.72933" lon="2.36774">
        <ele>129.2</ele>
        <time>2022-10-05T12:33:14Z</time>
      </trkpt>
      <trkpt lat="49.72933" lon="2.36778">
        <ele>129.2</ele>
        <time>2022-10-05T12:33:15Z</time>
      </trkpt>
      <trkpt lat="49.72933" lon="2.36779">
        <ele>129.2</ele>
        <time>2022-10-05T12:33:16Z</time>
      </trkpt>
      <trkpt lat="49.72934" lon="2.36781">
        <ele>129.2</ele>
        <time>2022-10-05T12:33:18Z</time>
      </trkpt>
      <trkpt lat="49.72934" lon="2.36782">
        <ele>129.1</ele>
        <time>2022-10-05T12:33:19Z</time>
      </trkpt>
      <trkpt lat="49.72934" lon="2.36785">
        <ele>129.1</ele>
        <time>2022-10-05T12:33:20Z</time>
      </trkpt>
      <trkpt lat="49.72935" lon="2.36788">
        <ele>129.1</ele>
        <time>2022-10-05T12:33:21Z</time>
      </trkpt>
      <trkpt lat="49.72935" lon="2.36791">
        <ele>129.1</ele>
        <time>2022-10-05T12:33:22Z</time>
      </trkpt>
      <trkpt lat="49.72935" lon="2.36792">
        <ele>129.1</ele>
        <time>2022-10-05T12:33:23Z</time>
      </trkpt>
      <trkpt lat="49.72935" lon="2.36793">
        <ele>129.1</ele>
        <time>2022-10-05T12:33:24Z</time>
      </trkpt>
      <trkpt lat="49.72936" lon="2.36798">
        <ele>129.1</ele>
        <time>2022-10-05T12:33:25Z</time>
      </trkpt>
      <trkpt lat="49.72936" lon="2.36799">
        <ele>129.1</ele>
        <time>2022-10-05T12:33:26Z</time>
      </trkpt>
      <trkpt lat="49.72936" lon="2.36801">
        <ele>129</ele>
        <time>2022-10-05T12:33:27Z</time>
      </trkpt>
      <trkpt lat="49.72937" lon="2.36804">
        <ele>129</ele>
        <time>2022-10-05T12:33:29Z</time>
      </trkpt>
      <trkpt lat="49.72937" lon="2.36806">
        <ele>129</ele>
        <time>2022-10-05T12:33:30Z</time>
      </trkpt>
      <trkpt lat="49.72938" lon="2.36809">
        <ele>129</ele>
        <time>2022-10-05T12:33:31Z</time>
      </trkpt>
      <trkpt lat="49.72938" lon="2.36812">
        <ele>129</ele>
        <time>2022-10-05T12:33:32Z</time>
      </trkpt>
      <trkpt lat="49.72938" lon="2.36814">
        <ele>129</ele>
        <time>2022-10-05T12:33:33Z</time>
      </trkpt>
      <trkpt lat="49.72939" lon="2.36819">
        <ele>129</ele>
        <time>2022-10-05T12:33:35Z</time>
      </trkpt>
      <trkpt lat="49.72939" lon="2.36821">
        <ele>129</ele>
        <time>2022-10-05T12:33:36Z</time>
      </trkpt>
      <trkpt lat="49.72939" lon="2.36823">
        <ele>128.9</ele>
        <time>2022-10-05T12:33:37Z</time>
      </trkpt>
      <trkpt lat="49.7294" lon="2.36825">
        <ele>128.9</ele>
        <time>2022-10-05T12:33:38Z</time>
      </trkpt>
      <trkpt lat="49.7294" lon="2.36828">
        <ele>128.9</ele>
        <time>2022-10-05T12:33:39Z</time>
      </trkpt>
      <trkpt lat="49.7294" lon="2.36831">
        <ele>128.9</ele>
        <time>2022-10-05T12:33:41Z</time>
      </trkpt>
      <trkpt lat="49.7294" lon="2.36834">
        <ele>128.9</ele>
        <time>2022-10-05T12:33:42Z</time>
      </trkpt>
      <trkpt lat="49.7294" lon="2.36836">
        <ele>128.9</ele>
        <time>2022-10-05T12:33:43Z</time>
      </trkpt>
      <trkpt lat="49.7294" lon="2.36837">
        <ele>128.9</ele>
        <time>2022-10-05T12:33:44Z</time>
      </trkpt>
      <trkpt lat="49.7294" lon="2.36839">
        <ele>128.9</ele>
        <time>2022-10-05T12:33:45Z</time>
      </trkpt>
      <trkpt lat="49.72941" lon="2.36841">
        <ele>128.8</ele>
        <time>2022-10-05T12:33:46Z</time>
      </trkpt>
      <trkpt lat="49.72941" lon="2.36845">
        <ele>128.8</ele>
        <time>2022-10-05T12:33:47Z</time>
      </trkpt>
      <trkpt lat="49.72941" lon="2.36846">
        <ele>128.8</ele>
        <time>2022-10-05T12:33:48Z</time>
      </trkpt>
      <trkpt lat="49.72941" lon="2.36847">
        <ele>128.8</ele>
        <time>2022-10-05T12:33:49Z</time>
      </trkpt>
      <trkpt lat="49.72941" lon="2.36849">
        <ele>128.8</ele>
        <time>2022-10-05T12:33:50Z</time>
      </trkpt>
      <trkpt lat="49.72941" lon="2.36853">
        <ele>128.8</ele>
        <time>2022-10-05T12:33:52Z</time>
      </trkpt>
      <trkpt lat="49.72942" lon="2.36854">
        <ele>128.7</ele>
        <time>2022-10-05T12:33:53Z</time>
      </trkpt>
      <trkpt lat="49.72942" lon="2.36856">
        <ele>128.7</ele>
        <time>2022-10-05T12:33:54Z</time>
      </trkpt>
      <trkpt lat="49.72942" lon="2.36858">
        <ele>128.7</ele>
        <time>2022-10-05T12:33:55Z</time>
      </trkpt>
      <trkpt lat="49.72943" lon="2.36862">
        <ele>128.7</ele>
        <time>2022-10-05T12:33:56Z</time>
      </trkpt>
      <trkpt lat="49.72943" lon="2.36863">
        <ele>128.7</ele>
        <time>2022-10-05T12:33:57Z</time>
      </trkpt>
      <trkpt lat="49.72943" lon="2.36864">
        <ele>128.7</ele>
        <time>2022-10-05T12:33:58Z</time>
      </trkpt>
      <trkpt lat="49.72943" lon="2.36866">
        <ele>128.6</ele>
        <time>2022-10-05T12:33:59Z</time>
      </trkpt>
      <trkpt lat="49.72944" lon="2.36869">
        <ele>128.6</ele>
        <time>2022-10-05T12:34:01Z</time>
      </trkpt>
      <trkpt lat="49.72944" lon="2.3687">
        <ele>128.6</ele>
        <time>2022-10-05T12:34:02Z</time>
      </trkpt>
      <trkpt lat="49.72944" lon="2.36872">
        <ele>128.6</ele>
        <time>2022-10-05T12:34:03Z</time>
      </trkpt>
      <trkpt lat="49.72945" lon="2.36873">
        <ele>128.6</ele>
        <time>2022-10-05T12:34:04Z</time>
      </trkpt>
      <trkpt lat="49.72945" lon="2.36876">
        <ele>128.6</ele>
        <time>2022-10-05T12:34:05Z</time>
      </trkpt>
      <trkpt lat="49.72946" lon="2.36878">
        <ele>128.5</ele>
        <time>2022-10-05T12:34:06Z</time>
      </trkpt>
      <trkpt lat="49.72946" lon="2.36879">
        <ele>128.5</ele>
        <time>2022-10-05T12:34:07Z</time>
      </trkpt>
      <trkpt lat="49.72946" lon="2.36881">
        <ele>128.5</ele>
        <time>2022-10-05T12:34:08Z</time>
      </trkpt>
      <trkpt lat="49.72947" lon="2.36883">
        <ele>128.5</ele>
        <time>2022-10-05T12:34:09Z</time>
      </trkpt>
      <trkpt lat="49.72948" lon="2.36885">
        <ele>128.5</ele>
        <time>2022-10-05T12:34:11Z</time>
      </trkpt>
      <trkpt lat="49.72948" lon="2.36887">
        <ele>128.5</ele>
        <time>2022-10-05T12:34:12Z</time>
      </trkpt>
      <trkpt lat="49.72949" lon="2.36888">
        <ele>128.5</ele>
        <time>2022-10-05T12:34:13Z</time>
      </trkpt>
      <trkpt lat="49.72949" lon="2.3689">
        <ele>128.4</ele>
        <time>2022-10-05T12:34:14Z</time>
      </trkpt>
      <trkpt lat="49.72951" lon="2.36893">
        <ele>128.4</ele>
        <time>2022-10-05T12:34:15Z</time>
      </trkpt>
      <trkpt lat="49.72951" lon="2.36895">
        <ele>128.4</ele>
        <time>2022-10-05T12:34:16Z</time>
      </trkpt>
      <trkpt lat="49.72952" lon="2.36896">
        <ele>128.4</ele>
        <time>2022-10-05T12:34:17Z</time>
      </trkpt>
      <trkpt lat="49.72952" lon="2.36897">
        <ele>128.4</ele>
        <time>2022-10-05T12:34:18Z</time>
      </trkpt>
      <trkpt lat="49.72952" lon="2.36899">
        <ele>128.4</ele>
        <time>2022-10-05T12:34:19Z</time>
      </trkpt>
      <trkpt lat="49.72953" lon="2.36901">
        <ele>128.3</ele>
        <time>2022-10-05T12:34:20Z</time>
      </trkpt>
      <trkpt lat="49.72953" lon="2.36904">
        <ele>128.3</ele>
        <time>2022-10-05T12:34:21Z</time>
      </trkpt>
      <trkpt lat="49.72954" lon="2.36907">
        <ele>128.3</ele>
        <time>2022-10-05T12:34:22Z</time>
      </trkpt>
      <trkpt lat="49.72954" lon="2.36908">
        <ele>128.3</ele>
        <time>2022-10-05T12:34:24Z</time>
      </trkpt>
      <trkpt lat="49.72955" lon="2.3691">
        <ele>128.3</ele>
        <time>2022-10-05T12:34:25Z</time>
      </trkpt>
      <trkpt lat="49.72955" lon="2.36913">
        <ele>128.3</ele>
        <time>2022-10-05T12:34:26Z</time>
      </trkpt>
      <trkpt lat="49.72955" lon="2.36914">
        <ele>128.3</ele>
        <time>2022-10-05T12:34:27Z</time>
      </trkpt>
      <trkpt lat="49.72955" lon="2.36915">
        <ele>128.3</ele>
        <time>2022-10-05T12:34:28Z</time>
      </trkpt>
      <trkpt lat="49.72956" lon="2.36917">
        <ele>128.2</ele>
        <time>2022-10-05T12:34:29Z</time>
      </trkpt>
      <trkpt lat="49.72956" lon="2.36919">
        <ele>128.2</ele>
        <time>2022-10-05T12:34:30Z</time>
      </trkpt>
      <trkpt lat="49.72957" lon="2.36923">
        <ele>128.2</ele>
        <time>2022-10-05T12:34:31Z</time>
      </trkpt>
      <trkpt lat="49.72958" lon="2.36925">
        <ele>128.2</ele>
        <time>2022-10-05T12:34:33Z</time>
      </trkpt>
      <trkpt lat="49.72958" lon="2.36927">
        <ele>128.2</ele>
        <time>2022-10-05T12:34:34Z</time>
      </trkpt>
      <trkpt lat="49.72959" lon="2.36928">
        <ele>128.2</ele>
        <time>2022-10-05T12:34:35Z</time>
      </trkpt>
      <trkpt lat="49.7296" lon="2.36931">
        <ele>128.2</ele>
        <time>2022-10-05T12:34:37Z</time>
      </trkpt>
      <trkpt lat="49.7296" lon="2.36932">
        <ele>128.2</ele>
        <time>2022-10-05T12:34:38Z</time>
      </trkpt>
      <trkpt lat="49.72961" lon="2.36934">
        <ele>128.1</ele>
        <time>2022-10-05T12:34:39Z</time>
      </trkpt>
      <trkpt lat="49.72961" lon="2.36936">
        <ele>128.1</ele>
        <time>2022-10-05T12:34:40Z</time>
      </trkpt>
      <trkpt lat="49.72962" lon="2.3694">
        <ele>128.1</ele>
        <time>2022-10-05T12:34:41Z</time>
      </trkpt>
      <trkpt lat="49.72963" lon="2.36941">
        <ele>128.1</ele>
        <time>2022-10-05T12:34:42Z</time>
      </trkpt>
      <trkpt lat="49.72963" lon="2.36944">
        <ele>128.1</ele>
        <time>2022-10-05T12:34:44Z</time>
      </trkpt>
      <trkpt lat="49.72963" lon="2.36946">
        <ele>128.1</ele>
        <time>2022-10-05T12:34:45Z</time>
      </trkpt>
      <trkpt lat="49.72964" lon="2.36947">
        <ele>128.1</ele>
        <time>2022-10-05T12:34:46Z</time>
      </trkpt>
      <trkpt lat="49.72964" lon="2.3695">
        <ele>128</ele>
        <time>2022-10-05T12:34:47Z</time>
      </trkpt>
      <trkpt lat="49.72964" lon="2.36951">
        <ele>128</ele>
        <time>2022-10-05T12:34:48Z</time>
      </trkpt>
      <trkpt lat="49.72964" lon="2.36953">
        <ele>128</ele>
        <time>2022-10-05T12:34:49Z</time>
      </trkpt>
      <trkpt lat="49.72964" lon="2.36955">
        <ele>128</ele>
        <time>2022-10-05T12:34:50Z</time>
      </trkpt>
      <trkpt lat="49.72965" lon="2.36957">
        <ele>128</ele>
        <time>2022-10-05T12:34:51Z</time>
      </trkpt>
      <trkpt lat="49.72965" lon="2.3696">
        <ele>128</ele>
        <time>2022-10-05T12:34:53Z</time>
      </trkpt>
      <trkpt lat="49.72965" lon="2.36962">
        <ele>128</ele>
        <time>2022-10-05T12:34:54Z</time>
      </trkpt>
      <trkpt lat="49.72965" lon="2.36964">
        <ele>128</ele>
        <time>2022-10-05T12:34:55Z</time>
      </trkpt>
      <trkpt lat="49.72966" lon="2.36967">
        <ele>127.9</ele>
        <time>2022-10-05T12:34:56Z</time>
      </trkpt>
      <trkpt lat="49.72966" lon="2.36968">
        <ele>127.9</ele>
        <time>2022-10-05T12:34:57Z</time>
      </trkpt>
      <trkpt lat="49.72967" lon="2.3697">
        <ele>127.9</ele>
        <time>2022-10-05T12:34:58Z</time>
      </trkpt>
      <trkpt lat="49.72967" lon="2.36971">
        <ele>127.9</ele>
        <time>2022-10-05T12:34:59Z</time>
      </trkpt>
      <trkpt lat="49.72968" lon="2.36975">
        <ele>127.9</ele>
        <time>2022-10-05T12:35:00Z</time>
      </trkpt>
      <trkpt lat="49.72968" lon="2.36976">
        <ele>127.9</ele>
        <time>2022-10-05T12:35:01Z</time>
      </trkpt>
      <trkpt lat="49.72968" lon="2.36978">
        <ele>127.9</ele>
        <time>2022-10-05T12:35:02Z</time>
      </trkpt>
      <trkpt lat="49.72969" lon="2.3698">
        <ele>127.9</ele>
        <time>2022-10-05T12:35:03Z</time>
      </trkpt>
      <trkpt lat="49.72969" lon="2.36983">
        <ele>127.8</ele>
        <time>2022-10-05T12:35:05Z</time>
      </trkpt>
      <trkpt lat="49.72969" lon="2.36988">
        <ele>127.8</ele>
        <time>2022-10-05T12:35:06Z</time>
      </trkpt>
      <trkpt lat="49.72969" lon="2.36989">
        <ele>127.8</ele>
        <time>2022-10-05T12:35:07Z</time>
      </trkpt>
      <trkpt lat="49.7297" lon="2.36992">
        <ele>127.8</ele>
        <time>2022-10-05T12:35:08Z</time>
      </trkpt>
      <trkpt lat="49.7297" lon="2.36994">
        <ele>127.8</ele>
        <time>2022-10-05T12:35:09Z</time>
      </trkpt>
      <trkpt lat="49.7297" lon="2.36995">
        <ele>127.7</ele>
        <time>2022-10-05T12:35:10Z</time>
      </trkpt>
      <trkpt lat="49.7297" lon="2.36998">
        <ele>127.7</ele>
        <time>2022-10-05T12:35:11Z</time>
      </trkpt>
      <trkpt lat="49.72971" lon="2.37">
        <ele>127.7</ele>
        <time>2022-10-05T12:35:12Z</time>
      </trkpt>
      <trkpt lat="49.72971" lon="2.37003">
        <ele>127.7</ele>
        <time>2022-10-05T12:35:13Z</time>
      </trkpt>
      <trkpt lat="49.72972" lon="2.37005">
        <ele>127.7</ele>
        <time>2022-10-05T12:35:14Z</time>
      </trkpt>
      <trkpt lat="49.72972" lon="2.37006">
        <ele>127.7</ele>
        <time>2022-10-05T12:35:15Z</time>
      </trkpt>
      <trkpt lat="49.72973" lon="2.3701">
        <ele>127.6</ele>
        <time>2022-10-05T12:35:16Z</time>
      </trkpt>
      <trkpt lat="49.72973" lon="2.37012">
        <ele>127.6</ele>
        <time>2022-10-05T12:35:18Z</time>
      </trkpt>
      <trkpt lat="49.72973" lon="2.37013">
        <ele>127.6</ele>
        <time>2022-10-05T12:35:19Z</time>
      </trkpt>
      <trkpt lat="49.72974" lon="2.37015">
        <ele>127.6</ele>
        <time>2022-10-05T12:35:20Z</time>
      </trkpt>
      <trkpt lat="49.72974" lon="2.37016">
        <ele>127.6</ele>
        <time>2022-10-05T12:35:21Z</time>
      </trkpt>
      <trkpt lat="49.72975" lon="2.37019">
        <ele>127.6</ele>
        <time>2022-10-05T12:35:22Z</time>
      </trkpt>
      <trkpt lat="49.72975" lon="2.37021">
        <ele>127.6</ele>
        <time>2022-10-05T12:35:23Z</time>
      </trkpt>
      <trkpt lat="49.72975" lon="2.37022">
        <ele>127.6</ele>
        <time>2022-10-05T12:35:24Z</time>
      </trkpt>
      <trkpt lat="49.72976" lon="2.37024">
        <ele>127.6</ele>
        <time>2022-10-05T12:35:25Z</time>
      </trkpt>
      <trkpt lat="49.72976" lon="2.37026">
        <ele>127.6</ele>
        <time>2022-10-05T12:35:26Z</time>
      </trkpt>
      <trkpt lat="49.72977" lon="2.37028">
        <ele>127.6</ele>
        <time>2022-10-05T12:35:27Z</time>
      </trkpt>
      <trkpt lat="49.72978" lon="2.3703">
        <ele>127.5</ele>
        <time>2022-10-05T12:35:28Z</time>
      </trkpt>
      <trkpt lat="49.72979" lon="2.37033">
        <ele>127.5</ele>
        <time>2022-10-05T12:35:29Z</time>
      </trkpt>
      <trkpt lat="49.7298" lon="2.37034">
        <ele>127.5</ele>
        <time>2022-10-05T12:35:30Z</time>
      </trkpt>
      <trkpt lat="49.7298" lon="2.37036">
        <ele>127.5</ele>
        <time>2022-10-05T12:35:31Z</time>
      </trkpt>
      <trkpt lat="49.7298" lon="2.37037">
        <ele>127.5</ele>
        <time>2022-10-05T12:35:32Z</time>
      </trkpt>
      <trkpt lat="49.72981" lon="2.37038">
        <ele>127.5</ele>
        <time>2022-10-05T12:35:33Z</time>
      </trkpt>
      <trkpt lat="49.72981" lon="2.3704">
        <ele>127.5</ele>
        <time>2022-10-05T12:35:34Z</time>
      </trkpt>
      <trkpt lat="49.72981" lon="2.37042">
        <ele>127.5</ele>
        <time>2022-10-05T12:35:35Z</time>
      </trkpt>
      <trkpt lat="49.72981" lon="2.37044">
        <ele>127.5</ele>
        <time>2022-10-05T12:35:36Z</time>
      </trkpt>
      <trkpt lat="49.72981" lon="2.37046">
        <ele>127.5</ele>
        <time>2022-10-05T12:35:37Z</time>
      </trkpt>
      <trkpt lat="49.72981" lon="2.37047">
        <ele>127.5</ele>
        <time>2022-10-05T12:35:39Z</time>
      </trkpt>
      <trkpt lat="49.72981" lon="2.37049">
        <ele>127.5</ele>
        <time>2022-10-05T12:35:40Z</time>
      </trkpt>
      <trkpt lat="49.72981" lon="2.37052">
        <ele>127.5</ele>
        <time>2022-10-05T12:35:41Z</time>
      </trkpt>
      <trkpt lat="49.72981" lon="2.37051">
        <ele>127.5</ele>
        <time>2022-10-05T12:35:43Z</time>
      </trkpt>
      <trkpt lat="49.7298" lon="2.37051">
        <ele>127.5</ele>
        <time>2022-10-05T12:35:44Z</time>
      </trkpt>
      <trkpt lat="49.7298" lon="2.37051">
        <ele>127.5</ele>
        <time>2022-10-05T12:35:46Z</time>
      </trkpt>
      <trkpt lat="49.72979" lon="2.37051">
        <ele>127.5</ele>
        <time>2022-10-05T12:35:47Z</time>
      </trkpt>
      <trkpt lat="49.72979" lon="2.37051">
        <ele>127.5</ele>
        <time>2022-10-05T12:35:48Z</time>
      </trkpt>
      <trkpt lat="49.72979" lon="2.37051">
        <ele>127.5</ele>
        <time>2022-10-05T12:35:49Z</time>
      </trkpt>
      <trkpt lat="49.72979" lon="2.37052">
        <ele>127.5</ele>
        <time>2022-10-05T12:35:50Z</time>
      </trkpt>
      <trkpt lat="49.7298" lon="2.37053">
        <ele>127.5</ele>
        <time>2022-10-05T12:35:51Z</time>
      </trkpt>
      <trkpt lat="49.7298" lon="2.37054">
        <ele>127.5</ele>
        <time>2022-10-05T12:35:52Z</time>
      </trkpt>
      <trkpt lat="49.7298" lon="2.37055">
        <ele>127.5</ele>
        <time>2022-10-05T12:35:54Z</time>
      </trkpt>
      <trkpt lat="49.72981" lon="2.37057">
        <ele>127.5</ele>
        <time>2022-10-05T12:35:55Z</time>
      </trkpt>
      <trkpt lat="49.72981" lon="2.37058">
        <ele>127.5</ele>
        <time>2022-10-05T12:35:56Z</time>
      </trkpt>
      <trkpt lat="49.72982" lon="2.3706">
        <ele>127.5</ele>
        <time>2022-10-05T12:35:57Z</time>
      </trkpt>
      <trkpt lat="49.72983" lon="2.37062">
        <ele>127.5</ele>
        <time>2022-10-05T12:35:58Z</time>
      </trkpt>
      <trkpt lat="49.72983" lon="2.37064">
        <ele>127.5</ele>
        <time>2022-10-05T12:35:59Z</time>
      </trkpt>
      <trkpt lat="49.72984" lon="2.37065">
        <ele>127.5</ele>
        <time>2022-10-05T12:36:00Z</time>
      </trkpt>
      <trkpt lat="49.72985" lon="2.37068">
        <ele>127.5</ele>
        <time>2022-10-05T12:36:02Z</time>
      </trkpt>
      <trkpt lat="49.72985" lon="2.3707">
        <ele>127.5</ele>
        <time>2022-10-05T12:36:03Z</time>
      </trkpt>
      <trkpt lat="49.72986" lon="2.37073">
        <ele>127.4</ele>
        <time>2022-10-05T12:36:04Z</time>
      </trkpt>
      <trkpt lat="49.72986" lon="2.37074">
        <ele>127.4</ele>
        <time>2022-10-05T12:36:05Z</time>
      </trkpt>
      <trkpt lat="49.72987" lon="2.37075">
        <ele>127.4</ele>
        <time>2022-10-05T12:36:06Z</time>
      </trkpt>
      <trkpt lat="49.72987" lon="2.37078">
        <ele>127.4</ele>
        <time>2022-10-05T12:36:07Z</time>
      </trkpt>
      <trkpt lat="49.72987" lon="2.3708">
        <ele>127.4</ele>
        <time>2022-10-05T12:36:08Z</time>
      </trkpt>
      <trkpt lat="49.72988" lon="2.37084">
        <ele>127.4</ele>
        <time>2022-10-05T12:36:09Z</time>
      </trkpt>
      <trkpt lat="49.72988" lon="2.37085">
        <ele>127.4</ele>
        <time>2022-10-05T12:36:10Z</time>
      </trkpt>
      <trkpt lat="49.72988" lon="2.37086">
        <ele>127.4</ele>
        <time>2022-10-05T12:36:11Z</time>
      </trkpt>
      <trkpt lat="49.72988" lon="2.37091">
        <ele>127.4</ele>
        <time>2022-10-05T12:36:12Z</time>
      </trkpt>
      <trkpt lat="49.72989" lon="2.37093">
        <ele>127.4</ele>
        <time>2022-10-05T12:36:13Z</time>
      </trkpt>
      <trkpt lat="49.72989" lon="2.37095">
        <ele>127.4</ele>
        <time>2022-10-05T12:36:15Z</time>
      </trkpt>
      <trkpt lat="49.72989" lon="2.37098">
        <ele>127.4</ele>
        <time>2022-10-05T12:36:16Z</time>
      </trkpt>
      <trkpt lat="49.72989" lon="2.37101">
        <ele>127.4</ele>
        <time>2022-10-05T12:36:17Z</time>
      </trkpt>
      <trkpt lat="49.72989" lon="2.37103">
        <ele>127.4</ele>
        <time>2022-10-05T12:36:18Z</time>
      </trkpt>
      <trkpt lat="49.7299" lon="2.37106">
        <ele>127.4</ele>
        <time>2022-10-05T12:36:19Z</time>
      </trkpt>
      <trkpt lat="49.7299" lon="2.37108">
        <ele>127.4</ele>
        <time>2022-10-05T12:36:20Z</time>
      </trkpt>
      <trkpt lat="49.7299" lon="2.37109">
        <ele>127.4</ele>
        <time>2022-10-05T12:36:21Z</time>
      </trkpt>
      <trkpt lat="49.7299" lon="2.37113">
        <ele>127.4</ele>
        <time>2022-10-05T12:36:22Z</time>
      </trkpt>
      <trkpt lat="49.7299" lon="2.37114">
        <ele>127.4</ele>
        <time>2022-10-05T12:36:23Z</time>
      </trkpt>
      <trkpt lat="49.7299" lon="2.37116">
        <ele>127.4</ele>
        <time>2022-10-05T12:36:24Z</time>
      </trkpt>
      <trkpt lat="49.72991" lon="2.37118">
        <ele>127.4</ele>
        <time>2022-10-05T12:36:25Z</time>
      </trkpt>
      <trkpt lat="49.72991" lon="2.37122">
        <ele>127.3</ele>
        <time>2022-10-05T12:36:27Z</time>
      </trkpt>
      <trkpt lat="49.72992" lon="2.37126">
        <ele>127.3</ele>
        <time>2022-10-05T12:36:28Z</time>
      </trkpt>
      <trkpt lat="49.72993" lon="2.37128">
        <ele>127.3</ele>
        <time>2022-10-05T12:36:30Z</time>
      </trkpt>
      <trkpt lat="49.72993" lon="2.37129">
        <ele>127.3</ele>
        <time>2022-10-05T12:36:31Z</time>
      </trkpt>
      <trkpt lat="49.72993" lon="2.37131">
        <ele>127.3</ele>
        <time>2022-10-05T12:36:32Z</time>
      </trkpt>
      <trkpt lat="49.72994" lon="2.37133">
        <ele>127.3</ele>
        <time>2022-10-05T12:36:33Z</time>
      </trkpt>
      <trkpt lat="49.72994" lon="2.37134">
        <ele>127.3</ele>
        <time>2022-10-05T12:36:34Z</time>
      </trkpt>
      <trkpt lat="49.72994" lon="2.37135">
        <ele>127.3</ele>
        <time>2022-10-05T12:36:35Z</time>
      </trkpt>
      <trkpt lat="49.72994" lon="2.37137">
        <ele>127.3</ele>
        <time>2022-10-05T12:36:36Z</time>
      </trkpt>
      <trkpt lat="49.72994" lon="2.37141">
        <ele>127.3</ele>
        <time>2022-10-05T12:36:37Z</time>
      </trkpt>
      <trkpt lat="49.72994" lon="2.37143">
        <ele>127.3</ele>
        <time>2022-10-05T12:36:39Z</time>
      </trkpt>
      <trkpt lat="49.72994" lon="2.37144">
        <ele>127.3</ele>
        <time>2022-10-05T12:36:40Z</time>
      </trkpt>
      <trkpt lat="49.72994" lon="2.37146">
        <ele>127.3</ele>
        <time>2022-10-05T12:36:41Z</time>
      </trkpt>
      <trkpt lat="49.72994" lon="2.37147">
        <ele>127.3</ele>
        <time>2022-10-05T12:36:42Z</time>
      </trkpt>
      <trkpt lat="49.72995" lon="2.3715">
        <ele>127.3</ele>
        <time>2022-10-05T12:36:43Z</time>
      </trkpt>
      <trkpt lat="49.72995" lon="2.37151">
        <ele>127.3</ele>
        <time>2022-10-05T12:36:44Z</time>
      </trkpt>
      <trkpt lat="49.72995" lon="2.37152">
        <ele>127.3</ele>
        <time>2022-10-05T12:36:45Z</time>
      </trkpt>
      <trkpt lat="49.72995" lon="2.37153">
        <ele>127.3</ele>
        <time>2022-10-05T12:36:46Z</time>
      </trkpt>
      <trkpt lat="49.72996" lon="2.37155">
        <ele>127.3</ele>
        <time>2022-10-05T12:36:47Z</time>
      </trkpt>
      <trkpt lat="49.72996" lon="2.37157">
        <ele>127.3</ele>
        <time>2022-10-05T12:36:49Z</time>
      </trkpt>
      <trkpt lat="49.72996" lon="2.37158">
        <ele>127.3</ele>
        <time>2022-10-05T12:36:50Z</time>
      </trkpt>
      <trkpt lat="49.72996" lon="2.37159">
        <ele>127.3</ele>
        <time>2022-10-05T12:36:51Z</time>
      </trkpt>
      <trkpt lat="49.72996" lon="2.37162">
        <ele>127.2</ele>
        <time>2022-10-05T12:36:52Z</time>
      </trkpt>
      <trkpt lat="49.72997" lon="2.37163">
        <ele>127.2</ele>
        <time>2022-10-05T12:36:53Z</time>
      </trkpt>
      <trkpt lat="49.72997" lon="2.37165">
        <ele>127.2</ele>
        <time>2022-10-05T12:36:54Z</time>
      </trkpt>
      <trkpt lat="49.72998" lon="2.37167">
        <ele>127.2</ele>
        <time>2022-10-05T12:36:56Z</time>
      </trkpt>
      <trkpt lat="49.72998" lon="2.37164">
        <ele>127.2</ele>
        <time>2022-10-05T12:36:57Z</time>
      </trkpt>
      <trkpt lat="49.72998" lon="2.37162">
        <ele>127.2</ele>
        <time>2022-10-05T12:36:59Z</time>
      </trkpt>
      <trkpt lat="49.72999" lon="2.37162">
        <ele>127.2</ele>
        <time>2022-10-05T12:37:00Z</time>
      </trkpt>
      <trkpt lat="49.72999" lon="2.37162">
        <ele>127.2</ele>
        <time>2022-10-05T12:37:01Z</time>
      </trkpt>
      <trkpt lat="49.72999" lon="2.37162">
        <ele>127.2</ele>
        <time>2022-10-05T12:37:02Z</time>
      </trkpt>
      <trkpt lat="49.73" lon="2.37162">
        <ele>127.2</ele>
        <time>2022-10-05T12:37:03Z</time>
      </trkpt>
      <trkpt lat="49.73" lon="2.37162">
        <ele>127.2</ele>
        <time>2022-10-05T12:37:04Z</time>
      </trkpt>
      <trkpt lat="49.73" lon="2.37162">
        <ele>127.2</ele>
        <time>2022-10-05T12:37:05Z</time>
      </trkpt>
      <trkpt lat="49.73" lon="2.37162">
        <ele>127.2</ele>
        <time>2022-10-05T12:37:06Z</time>
      </trkpt>
      <trkpt lat="49.73" lon="2.37162">
        <ele>127.2</ele>
        <time>2022-10-05T12:37:07Z</time>
      </trkpt>
      <trkpt lat="49.72999" lon="2.37162">
        <ele>127.2</ele>
        <time>2022-10-05T12:37:08Z</time>
      </trkpt>
      <trkpt lat="49.72999" lon="2.37162">
        <ele>127.2</ele>
        <time>2022-10-05T12:37:09Z</time>
      </trkpt>
      <trkpt lat="49.72999" lon="2.37163">
        <ele>127.2</ele>
        <time>2022-10-05T12:37:10Z</time>
      </trkpt>
      <trkpt lat="49.72999" lon="2.37163">
        <ele>127.2</ele>
        <time>2022-10-05T12:37:11Z</time>
      </trkpt>
      <trkpt lat="49.72998" lon="2.37165">
        <ele>127.2</ele>
        <time>2022-10-05T12:37:13Z</time>
      </trkpt>
      <trkpt lat="49.72998" lon="2.37167">
        <ele>127.2</ele>
        <time>2022-10-05T12:37:14Z</time>
      </trkpt>
      <trkpt lat="49.72998" lon="2.37169">
        <ele>127.2</ele>
        <time>2022-10-05T12:37:15Z</time>
      </trkpt>
      <trkpt lat="49.72998" lon="2.37171">
        <ele>127.2</ele>
        <time>2022-10-05T12:37:16Z</time>
      </trkpt>
      <trkpt lat="49.72998" lon="2.37176">
        <ele>127.3</ele>
        <time>2022-10-05T12:37:18Z</time>
      </trkpt>
      <trkpt lat="49.72998" lon="2.37178">
        <ele>127.3</ele>
        <time>2022-10-05T12:37:19Z</time>
      </trkpt>
      <trkpt lat="49.72997" lon="2.37182">
        <ele>127.3</ele>
        <time>2022-10-05T12:37:20Z</time>
      </trkpt>
      <trkpt lat="49.72997" lon="2.37183">
        <ele>127.3</ele>
        <time>2022-10-05T12:37:21Z</time>
      </trkpt>
      <trkpt lat="49.72997" lon="2.37185">
        <ele>127.3</ele>
        <time>2022-10-05T12:37:22Z</time>
      </trkpt>
      <trkpt lat="49.72997" lon="2.37187">
        <ele>127.3</ele>
        <time>2022-10-05T12:37:23Z</time>
      </trkpt>
      <trkpt lat="49.72998" lon="2.37189">
        <ele>127.3</ele>
        <time>2022-10-05T12:37:24Z</time>
      </trkpt>
      <trkpt lat="49.72998" lon="2.37191">
        <ele>127.3</ele>
        <time>2022-10-05T12:37:25Z</time>
      </trkpt>
      <trkpt lat="49.72998" lon="2.37193">
        <ele>127.3</ele>
        <time>2022-10-05T12:37:26Z</time>
      </trkpt>
      <trkpt lat="49.72998" lon="2.37197">
        <ele>127.3</ele>
        <time>2022-10-05T12:37:27Z</time>
      </trkpt>
      <trkpt lat="49.72998" lon="2.372">
        <ele>127.3</ele>
        <time>2022-10-05T12:37:29Z</time>
      </trkpt>
      <trkpt lat="49.72999" lon="2.37204">
        <ele>127.3</ele>
        <time>2022-10-05T12:37:30Z</time>
      </trkpt>
      <trkpt lat="49.72999" lon="2.37205">
        <ele>127.3</ele>
        <time>2022-10-05T12:37:31Z</time>
      </trkpt>
      <trkpt lat="49.72999" lon="2.37207">
        <ele>127.3</ele>
        <time>2022-10-05T12:37:32Z</time>
      </trkpt>
      <trkpt lat="49.72999" lon="2.37209">
        <ele>127.3</ele>
        <time>2022-10-05T12:37:33Z</time>
      </trkpt>
      <trkpt lat="49.72999" lon="2.37211">
        <ele>127.3</ele>
        <time>2022-10-05T12:37:34Z</time>
      </trkpt>
      <trkpt lat="49.72999" lon="2.37212">
        <ele>127.3</ele>
        <time>2022-10-05T12:37:35Z</time>
      </trkpt>
      <trkpt lat="49.72999" lon="2.37214">
        <ele>127.3</ele>
        <time>2022-10-05T12:37:36Z</time>
      </trkpt>
      <trkpt lat="49.72999" lon="2.37216">
        <ele>127.3</ele>
        <time>2022-10-05T12:37:37Z</time>
      </trkpt>
      <trkpt lat="49.72999" lon="2.37218">
        <ele>127.3</ele>
        <time>2022-10-05T12:37:38Z</time>
      </trkpt>
      <trkpt lat="49.72999" lon="2.37221">
        <ele>127.3</ele>
        <time>2022-10-05T12:37:39Z</time>
      </trkpt>
      <trkpt lat="49.72999" lon="2.37224">
        <ele>127.3</ele>
        <time>2022-10-05T12:37:40Z</time>
      </trkpt>
      <trkpt lat="49.72999" lon="2.37226">
        <ele>127.3</ele>
        <time>2022-10-05T12:37:42Z</time>
      </trkpt>
      <trkpt lat="49.72999" lon="2.37227">
        <ele>127.3</ele>
        <time>2022-10-05T12:37:43Z</time>
      </trkpt>
      <trkpt lat="49.72998" lon="2.3723">
        <ele>127.3</ele>
        <time>2022-10-05T12:37:44Z</time>
      </trkpt>
      <trkpt lat="49.72998" lon="2.37232">
        <ele>127.3</ele>
        <time>2022-10-05T12:37:45Z</time>
      </trkpt>
      <trkpt lat="49.72998" lon="2.37235">
        <ele>127.3</ele>
        <time>2022-10-05T12:37:46Z</time>
      </trkpt>
      <trkpt lat="49.72998" lon="2.37236">
        <ele>127.3</ele>
        <time>2022-10-05T12:37:47Z</time>
      </trkpt>
      <trkpt lat="49.72998" lon="2.37238">
        <ele>127.3</ele>
        <time>2022-10-05T12:37:48Z</time>
      </trkpt>
      <trkpt lat="49.72998" lon="2.37241">
        <ele>127.3</ele>
        <time>2022-10-05T12:37:49Z</time>
      </trkpt>
      <trkpt lat="49.72997" lon="2.37242">
        <ele>127.3</ele>
        <time>2022-10-05T12:37:50Z</time>
      </trkpt>
      <trkpt lat="49.72997" lon="2.37244">
        <ele>127.3</ele>
        <time>2022-10-05T12:37:51Z</time>
      </trkpt>
      <trkpt lat="49.72997" lon="2.37248">
        <ele>127.3</ele>
        <time>2022-10-05T12:37:52Z</time>
      </trkpt>
      <trkpt lat="49.72997" lon="2.37249">
        <ele>127.3</ele>
        <time>2022-10-05T12:37:53Z</time>
      </trkpt>
      <trkpt lat="49.72996" lon="2.37251">
        <ele>127.3</ele>
        <time>2022-10-05T12:37:54Z</time>
      </trkpt>
      <trkpt lat="49.72996" lon="2.37253">
        <ele>127.3</ele>
        <time>2022-10-05T12:37:55Z</time>
      </trkpt>
      <trkpt lat="49.72996" lon="2.37254">
        <ele>127.3</ele>
        <time>2022-10-05T12:37:56Z</time>
      </trkpt>
      <trkpt lat="49.72996" lon="2.37258">
        <ele>127.3</ele>
        <time>2022-10-05T12:37:57Z</time>
      </trkpt>
      <trkpt lat="49.72997" lon="2.37259">
        <ele>127.3</ele>
        <time>2022-10-05T12:37:58Z</time>
      </trkpt>
      <trkpt lat="49.72997" lon="2.37261">
        <ele>127.3</ele>
        <time>2022-10-05T12:37:59Z</time>
      </trkpt>
      <trkpt lat="49.72997" lon="2.37264">
        <ele>127.3</ele>
        <time>2022-10-05T12:38:01Z</time>
      </trkpt>
      <trkpt lat="49.72998" lon="2.37266">
        <ele>127.3</ele>
        <time>2022-10-05T12:38:03Z</time>
      </trkpt>
      <trkpt lat="49.72998" lon="2.37269">
        <ele>127.3</ele>
        <time>2022-10-05T12:38:04Z</time>
      </trkpt>
      <trkpt lat="49.72999" lon="2.37271">
        <ele>127.3</ele>
        <time>2022-10-05T12:38:06Z</time>
      </trkpt>
      <trkpt lat="49.72999" lon="2.37272">
        <ele>127.3</ele>
        <time>2022-10-05T12:38:07Z</time>
      </trkpt>
      <trkpt lat="49.73" lon="2.37274">
        <ele>127.3</ele>
        <time>2022-10-05T12:38:08Z</time>
      </trkpt>
      <trkpt lat="49.73" lon="2.37276">
        <ele>127.3</ele>
        <time>2022-10-05T12:38:09Z</time>
      </trkpt>
      <trkpt lat="49.73" lon="2.37279">
        <ele>127.3</ele>
        <time>2022-10-05T12:38:10Z</time>
      </trkpt>
      <trkpt lat="49.73001" lon="2.3728">
        <ele>127.3</ele>
        <time>2022-10-05T12:38:11Z</time>
      </trkpt>
      <trkpt lat="49.73001" lon="2.37282">
        <ele>127.3</ele>
        <time>2022-10-05T12:38:12Z</time>
      </trkpt>
      <trkpt lat="49.73002" lon="2.37284">
        <ele>127.3</ele>
        <time>2022-10-05T12:38:13Z</time>
      </trkpt>
      <trkpt lat="49.73003" lon="2.37288">
        <ele>127.3</ele>
        <time>2022-10-05T12:38:15Z</time>
      </trkpt>
      <trkpt lat="49.73003" lon="2.37291">
        <ele>127.3</ele>
        <time>2022-10-05T12:38:16Z</time>
      </trkpt>
      <trkpt lat="49.73003" lon="2.37292">
        <ele>127.3</ele>
        <time>2022-10-05T12:38:17Z</time>
      </trkpt>
      <trkpt lat="49.73003" lon="2.37293">
        <ele>127.2</ele>
        <time>2022-10-05T12:38:18Z</time>
      </trkpt>
      <trkpt lat="49.73003" lon="2.37297">
        <ele>127.2</ele>
        <time>2022-10-05T12:38:20Z</time>
      </trkpt>
      <trkpt lat="49.73003" lon="2.37299">
        <ele>127.2</ele>
        <time>2022-10-05T12:38:21Z</time>
      </trkpt>
      <trkpt lat="49.73003" lon="2.37301">
        <ele>127.2</ele>
        <time>2022-10-05T12:38:22Z</time>
      </trkpt>
      <trkpt lat="49.73003" lon="2.37303">
        <ele>127.2</ele>
        <time>2022-10-05T12:38:23Z</time>
      </trkpt>
      <trkpt lat="49.73003" lon="2.37305">
        <ele>127.2</ele>
        <time>2022-10-05T12:38:24Z</time>
      </trkpt>
      <trkpt lat="49.73004" lon="2.37307">
        <ele>127.2</ele>
        <time>2022-10-05T12:38:25Z</time>
      </trkpt>
      <trkpt lat="49.73004" lon="2.37309">
        <ele>127.2</ele>
        <time>2022-10-05T12:38:26Z</time>
      </trkpt>
      <trkpt lat="49.73004" lon="2.37311">
        <ele>127.2</ele>
        <time>2022-10-05T12:38:27Z</time>
      </trkpt>
      <trkpt lat="49.73004" lon="2.37312">
        <ele>127.2</ele>
        <time>2022-10-05T12:38:28Z</time>
      </trkpt>
      <trkpt lat="49.73004" lon="2.37314">
        <ele>127.2</ele>
        <time>2022-10-05T12:38:29Z</time>
      </trkpt>
      <trkpt lat="49.73004" lon="2.37317">
        <ele>127.2</ele>
        <time>2022-10-05T12:38:30Z</time>
      </trkpt>
      <trkpt lat="49.73004" lon="2.37318">
        <ele>127.2</ele>
        <time>2022-10-05T12:38:31Z</time>
      </trkpt>
      <trkpt lat="49.73004" lon="2.3732">
        <ele>127.2</ele>
        <time>2022-10-05T12:38:32Z</time>
      </trkpt>
      <trkpt lat="49.73004" lon="2.37322">
        <ele>127.2</ele>
        <time>2022-10-05T12:38:33Z</time>
      </trkpt>
      <trkpt lat="49.73004" lon="2.37324">
        <ele>127.2</ele>
        <time>2022-10-05T12:38:34Z</time>
      </trkpt>
      <trkpt lat="49.73004" lon="2.37327">
        <ele>127.2</ele>
        <time>2022-10-05T12:38:35Z</time>
      </trkpt>
      <trkpt lat="49.73004" lon="2.37329">
        <ele>127.2</ele>
        <time>2022-10-05T12:38:36Z</time>
      </trkpt>
      <trkpt lat="49.73004" lon="2.37331">
        <ele>127.2</ele>
        <time>2022-10-05T12:38:38Z</time>
      </trkpt>
      <trkpt lat="49.73004" lon="2.37332">
        <ele>127.1</ele>
        <time>2022-10-05T12:38:39Z</time>
      </trkpt>
      <trkpt lat="49.73004" lon="2.37335">
        <ele>127.1</ele>
        <time>2022-10-05T12:38:40Z</time>
      </trkpt>
      <trkpt lat="49.73004" lon="2.37337">
        <ele>127.1</ele>
        <time>2022-10-05T12:38:42Z</time>
      </trkpt>
      <trkpt lat="49.73004" lon="2.37339">
        <ele>127.1</ele>
        <time>2022-10-05T12:38:43Z</time>
      </trkpt>
      <trkpt lat="49.73004" lon="2.3734">
        <ele>127.1</ele>
        <time>2022-10-05T12:38:44Z</time>
      </trkpt>
      <trkpt lat="49.73004" lon="2.37343">
        <ele>127.1</ele>
        <time>2022-10-05T12:38:45Z</time>
      </trkpt>
      <trkpt lat="49.73004" lon="2.37344">
        <ele>127.1</ele>
        <time>2022-10-05T12:38:46Z</time>
      </trkpt>
      <trkpt lat="49.73004" lon="2.37345">
        <ele>127.1</ele>
        <time>2022-10-05T12:38:47Z</time>
      </trkpt>
      <trkpt lat="49.73004" lon="2.37347">
        <ele>127.1</ele>
        <time>2022-10-05T12:38:48Z</time>
      </trkpt>
      <trkpt lat="49.73004" lon="2.37349">
        <ele>127.1</ele>
        <time>2022-10-05T12:38:49Z</time>
      </trkpt>
      <trkpt lat="49.73004" lon="2.37351">
        <ele>127.1</ele>
        <time>2022-10-05T12:38:50Z</time>
      </trkpt>
      <trkpt lat="49.73004" lon="2.37352">
        <ele>127.1</ele>
        <time>2022-10-05T12:38:51Z</time>
      </trkpt>
      <trkpt lat="49.73005" lon="2.37356">
        <ele>127.1</ele>
        <time>2022-10-05T12:38:52Z</time>
      </trkpt>
      <trkpt lat="49.73005" lon="2.37357">
        <ele>127.1</ele>
        <time>2022-10-05T12:38:53Z</time>
      </trkpt>
      <trkpt lat="49.73005" lon="2.37359">
        <ele>127.1</ele>
        <time>2022-10-05T12:38:54Z</time>
      </trkpt>
      <trkpt lat="49.73005" lon="2.37361">
        <ele>127.1</ele>
        <time>2022-10-05T12:38:55Z</time>
      </trkpt>
      <trkpt lat="49.73005" lon="2.37363">
        <ele>127.1</ele>
        <time>2022-10-05T12:38:56Z</time>
      </trkpt>
      <trkpt lat="49.73004" lon="2.37365">
        <ele>127.1</ele>
        <time>2022-10-05T12:38:58Z</time>
      </trkpt>
      <trkpt lat="49.73004" lon="2.37367">
        <ele>127.1</ele>
        <time>2022-10-05T12:38:59Z</time>
      </trkpt>
      <trkpt lat="49.73005" lon="2.37369">
        <ele>127.1</ele>
        <time>2022-10-05T12:39:00Z</time>
      </trkpt>
      <trkpt lat="49.73005" lon="2.37372">
        <ele>127.1</ele>
        <time>2022-10-05T12:39:02Z</time>
      </trkpt>
      <trkpt lat="49.73005" lon="2.37374">
        <ele>127.1</ele>
        <time>2022-10-05T12:39:03Z</time>
      </trkpt>
      <trkpt lat="49.73005" lon="2.37377">
        <ele>127.1</ele>
        <time>2022-10-05T12:39:04Z</time>
      </trkpt>
      <trkpt lat="49.73005" lon="2.37379">
        <ele>127.1</ele>
        <time>2022-10-05T12:39:05Z</time>
      </trkpt>
      <trkpt lat="49.73005" lon="2.37381">
        <ele>127.1</ele>
        <time>2022-10-05T12:39:06Z</time>
      </trkpt>
      <trkpt lat="49.73006" lon="2.37383">
        <ele>127.1</ele>
        <time>2022-10-05T12:39:07Z</time>
      </trkpt>
      <trkpt lat="49.73006" lon="2.37387">
        <ele>127.2</ele>
        <time>2022-10-05T12:39:08Z</time>
      </trkpt>
      <trkpt lat="49.73006" lon="2.37388">
        <ele>127.2</ele>
        <time>2022-10-05T12:39:09Z</time>
      </trkpt>
      <trkpt lat="49.73006" lon="2.37389">
        <ele>127.2</ele>
        <time>2022-10-05T12:39:10Z</time>
      </trkpt>
      <trkpt lat="49.73007" lon="2.37392">
        <ele>127.2</ele>
        <time>2022-10-05T12:39:11Z</time>
      </trkpt>
      <trkpt lat="49.73007" lon="2.37394">
        <ele>127.2</ele>
        <time>2022-10-05T12:39:12Z</time>
      </trkpt>
      <trkpt lat="49.73007" lon="2.37396">
        <ele>127.2</ele>
        <time>2022-10-05T12:39:13Z</time>
      </trkpt>
      <trkpt lat="49.73007" lon="2.37398">
        <ele>127.2</ele>
        <time>2022-10-05T12:39:14Z</time>
      </trkpt>
      <trkpt lat="49.73008" lon="2.37403">
        <ele>127.2</ele>
        <time>2022-10-05T12:39:15Z</time>
      </trkpt>
      <trkpt lat="49.73008" lon="2.37405">
        <ele>127.2</ele>
        <time>2022-10-05T12:39:16Z</time>
      </trkpt>
      <trkpt lat="49.73008" lon="2.37408">
        <ele>127.2</ele>
        <time>2022-10-05T12:39:17Z</time>
      </trkpt>
      <trkpt lat="49.73009" lon="2.37409">
        <ele>127.3</ele>
        <time>2022-10-05T12:39:18Z</time>
      </trkpt>
      <trkpt lat="49.73009" lon="2.37411">
        <ele>127.3</ele>
        <time>2022-10-05T12:39:19Z</time>
      </trkpt>
      <trkpt lat="49.73009" lon="2.37413">
        <ele>127.3</ele>
        <time>2022-10-05T12:39:21Z</time>
      </trkpt>
      <trkpt lat="49.73009" lon="2.37415">
        <ele>127.3</ele>
        <time>2022-10-05T12:39:22Z</time>
      </trkpt>
      <trkpt lat="49.73009" lon="2.37418">
        <ele>127.3</ele>
        <time>2022-10-05T12:39:23Z</time>
      </trkpt>
      <trkpt lat="49.73009" lon="2.3742">
        <ele>127.3</ele>
        <time>2022-10-05T12:39:24Z</time>
      </trkpt>
      <trkpt lat="49.73009" lon="2.37423">
        <ele>127.3</ele>
        <time>2022-10-05T12:39:26Z</time>
      </trkpt>
      <trkpt lat="49.7301" lon="2.37425">
        <ele>127.3</ele>
        <time>2022-10-05T12:39:27Z</time>
      </trkpt>
      <trkpt lat="49.7301" lon="2.37429">
        <ele>127.4</ele>
        <time>2022-10-05T12:39:28Z</time>
      </trkpt>
      <trkpt lat="49.7301" lon="2.37431">
        <ele>127.4</ele>
        <time>2022-10-05T12:39:29Z</time>
      </trkpt>
      <trkpt lat="49.73011" lon="2.37434">
        <ele>127.4</ele>
        <time>2022-10-05T12:39:30Z</time>
      </trkpt>
      <trkpt lat="49.73011" lon="2.37435">
        <ele>127.4</ele>
        <time>2022-10-05T12:39:31Z</time>
      </trkpt>
      <trkpt lat="49.73011" lon="2.37437">
        <ele>127.4</ele>
        <time>2022-10-05T12:39:32Z</time>
      </trkpt>
      <trkpt lat="49.73011" lon="2.37439">
        <ele>127.4</ele>
        <time>2022-10-05T12:39:33Z</time>
      </trkpt>
      <trkpt lat="49.7301" lon="2.37441">
        <ele>127.4</ele>
        <time>2022-10-05T12:39:34Z</time>
      </trkpt>
      <trkpt lat="49.7301" lon="2.37444">
        <ele>127.5</ele>
        <time>2022-10-05T12:39:36Z</time>
      </trkpt>
      <trkpt lat="49.7301" lon="2.37445">
        <ele>127.5</ele>
        <time>2022-10-05T12:39:37Z</time>
      </trkpt>
      <trkpt lat="49.7301" lon="2.37447">
        <ele>127.5</ele>
        <time>2022-10-05T12:39:38Z</time>
      </trkpt>
      <trkpt lat="49.73009" lon="2.37449">
        <ele>127.5</ele>
        <time>2022-10-05T12:39:39Z</time>
      </trkpt>
      <trkpt lat="49.73009" lon="2.3745">
        <ele>127.5</ele>
        <time>2022-10-05T12:39:40Z</time>
      </trkpt>
      <trkpt lat="49.73009" lon="2.37451">
        <ele>127.5</ele>
        <time>2022-10-05T12:39:41Z</time>
      </trkpt>
      <trkpt lat="49.73008" lon="2.37455">
        <ele>127.5</ele>
        <time>2022-10-05T12:39:42Z</time>
      </trkpt>
      <trkpt lat="49.73008" lon="2.37457">
        <ele>127.5</ele>
        <time>2022-10-05T12:39:43Z</time>
      </trkpt>
      <trkpt lat="49.73008" lon="2.37459">
        <ele>127.5</ele>
        <time>2022-10-05T12:39:44Z</time>
      </trkpt>
      <trkpt lat="49.73008" lon="2.3746">
        <ele>127.6</ele>
        <time>2022-10-05T12:39:45Z</time>
      </trkpt>
      <trkpt lat="49.73008" lon="2.37462">
        <ele>127.6</ele>
        <time>2022-10-05T12:39:46Z</time>
      </trkpt>
      <trkpt lat="49.73008" lon="2.37464">
        <ele>127.6</ele>
        <time>2022-10-05T12:39:47Z</time>
      </trkpt>
      <trkpt lat="49.73007" lon="2.37468">
        <ele>127.6</ele>
        <time>2022-10-05T12:39:48Z</time>
      </trkpt>
      <trkpt lat="49.73007" lon="2.3747">
        <ele>127.6</ele>
        <time>2022-10-05T12:39:50Z</time>
      </trkpt>
      <trkpt lat="49.73007" lon="2.37471">
        <ele>127.6</ele>
        <time>2022-10-05T12:39:51Z</time>
      </trkpt>
      <trkpt lat="49.73007" lon="2.37473">
        <ele>127.6</ele>
        <time>2022-10-05T12:39:52Z</time>
      </trkpt>
      <trkpt lat="49.73006" lon="2.37474">
        <ele>127.6</ele>
        <time>2022-10-05T12:39:53Z</time>
      </trkpt>
      <trkpt lat="49.73006" lon="2.37475">
        <ele>127.6</ele>
        <time>2022-10-05T12:39:54Z</time>
      </trkpt>
      <trkpt lat="49.73006" lon="2.37477">
        <ele>127.6</ele>
        <time>2022-10-05T12:39:55Z</time>
      </trkpt>
      <trkpt lat="49.73005" lon="2.37478">
        <ele>127.6</ele>
        <time>2022-10-05T12:39:56Z</time>
      </trkpt>
      <trkpt lat="49.73005" lon="2.37483">
        <ele>127.6</ele>
        <time>2022-10-05T12:39:57Z</time>
      </trkpt>
      <trkpt lat="49.73004" lon="2.37484">
        <ele>127.6</ele>
        <time>2022-10-05T12:39:58Z</time>
      </trkpt>
      <trkpt lat="49.73004" lon="2.37485">
        <ele>127.7</ele>
        <time>2022-10-05T12:40:00Z</time>
      </trkpt>
      <trkpt lat="49.73004" lon="2.37487">
        <ele>127.7</ele>
        <time>2022-10-05T12:40:01Z</time>
      </trkpt>
      <trkpt lat="49.73003" lon="2.37489">
        <ele>127.7</ele>
        <time>2022-10-05T12:40:02Z</time>
      </trkpt>
      <trkpt lat="49.73003" lon="2.37491">
        <ele>127.7</ele>
        <time>2022-10-05T12:40:03Z</time>
      </trkpt>
      <trkpt lat="49.73002" lon="2.37493">
        <ele>127.7</ele>
        <time>2022-10-05T12:40:04Z</time>
      </trkpt>
      <trkpt lat="49.73001" lon="2.37496">
        <ele>127.7</ele>
        <time>2022-10-05T12:40:05Z</time>
      </trkpt>
      <trkpt lat="49.73001" lon="2.37497">
        <ele>127.7</ele>
        <time>2022-10-05T12:40:06Z</time>
      </trkpt>
      <trkpt lat="49.73001" lon="2.37499">
        <ele>127.7</ele>
        <time>2022-10-05T12:40:07Z</time>
      </trkpt>
      <trkpt lat="49.73" lon="2.37503">
        <ele>127.8</ele>
        <time>2022-10-05T12:40:08Z</time>
      </trkpt>
      <trkpt lat="49.73" lon="2.37504">
        <ele>127.8</ele>
        <time>2022-10-05T12:40:09Z</time>
      </trkpt>
      <trkpt lat="49.72999" lon="2.37506">
        <ele>127.8</ele>
        <time>2022-10-05T12:40:10Z</time>
      </trkpt>
      <trkpt lat="49.72999" lon="2.37508">
        <ele>127.8</ele>
        <time>2022-10-05T12:40:12Z</time>
      </trkpt>
      <trkpt lat="49.72998" lon="2.3751">
        <ele>127.8</ele>
        <time>2022-10-05T12:40:13Z</time>
      </trkpt>
      <trkpt lat="49.72997" lon="2.37513">
        <ele>127.8</ele>
        <time>2022-10-05T12:40:14Z</time>
      </trkpt>
      <trkpt lat="49.72997" lon="2.37515">
        <ele>127.9</ele>
        <time>2022-10-05T12:40:15Z</time>
      </trkpt>
      <trkpt lat="49.72996" lon="2.37516">
        <ele>127.9</ele>
        <time>2022-10-05T12:40:16Z</time>
      </trkpt>
      <trkpt lat="49.72995" lon="2.37519">
        <ele>127.9</ele>
        <time>2022-10-05T12:40:18Z</time>
      </trkpt>
      <trkpt lat="49.72994" lon="2.37522">
        <ele>127.9</ele>
        <time>2022-10-05T12:40:19Z</time>
      </trkpt>
      <trkpt lat="49.72994" lon="2.37523">
        <ele>128</ele>
        <time>2022-10-05T12:40:20Z</time>
      </trkpt>
      <trkpt lat="49.72993" lon="2.37524">
        <ele>128</ele>
        <time>2022-10-05T12:40:21Z</time>
      </trkpt>
      <trkpt lat="49.72993" lon="2.37526">
        <ele>128</ele>
        <time>2022-10-05T12:40:22Z</time>
      </trkpt>
      <trkpt lat="49.72992" lon="2.37528">
        <ele>128</ele>
        <time>2022-10-05T12:40:23Z</time>
      </trkpt>
      <trkpt lat="49.72991" lon="2.37531">
        <ele>128.1</ele>
        <time>2022-10-05T12:40:25Z</time>
      </trkpt>
      <trkpt lat="49.72991" lon="2.37533">
        <ele>128.1</ele>
        <time>2022-10-05T12:40:27Z</time>
      </trkpt>
      <trkpt lat="49.7299" lon="2.37535">
        <ele>128.1</ele>
        <time>2022-10-05T12:40:28Z</time>
      </trkpt>
      <trkpt lat="49.72989" lon="2.37537">
        <ele>128.2</ele>
        <time>2022-10-05T12:40:29Z</time>
      </trkpt>
      <trkpt lat="49.72988" lon="2.37538">
        <ele>128.2</ele>
        <time>2022-10-05T12:40:30Z</time>
      </trkpt>
      <trkpt lat="49.72988" lon="2.37539">
        <ele>128.2</ele>
        <time>2022-10-05T12:40:31Z</time>
      </trkpt>
      <trkpt lat="49.72987" lon="2.37541">
        <ele>128.2</ele>
        <time>2022-10-05T12:40:32Z</time>
      </trkpt>
      <trkpt lat="49.72987" lon="2.37543">
        <ele>128.3</ele>
        <time>2022-10-05T12:40:33Z</time>
      </trkpt>
      <trkpt lat="49.72986" lon="2.37545">
        <ele>128.3</ele>
        <time>2022-10-05T12:40:34Z</time>
      </trkpt>
      <trkpt lat="49.72986" lon="2.37546">
        <ele>128.3</ele>
        <time>2022-10-05T12:40:35Z</time>
      </trkpt>
      <trkpt lat="49.72986" lon="2.37547">
        <ele>128.3</ele>
        <time>2022-10-05T12:40:36Z</time>
      </trkpt>
      <trkpt lat="49.72985" lon="2.37549">
        <ele>128.4</ele>
        <time>2022-10-05T12:40:37Z</time>
      </trkpt>
      <trkpt lat="49.72984" lon="2.37552">
        <ele>128.4</ele>
        <time>2022-10-05T12:40:39Z</time>
      </trkpt>
      <trkpt lat="49.72983" lon="2.37554">
        <ele>128.4</ele>
        <time>2022-10-05T12:40:40Z</time>
      </trkpt>
      <trkpt lat="49.72983" lon="2.37557">
        <ele>128.5</ele>
        <time>2022-10-05T12:40:41Z</time>
      </trkpt>
      <trkpt lat="49.72982" lon="2.37558">
        <ele>128.5</ele>
        <time>2022-10-05T12:40:42Z</time>
      </trkpt>
      <trkpt lat="49.72982" lon="2.37559">
        <ele>128.5</ele>
        <time>2022-10-05T12:40:43Z</time>
      </trkpt>
      <trkpt lat="49.72981" lon="2.3756">
        <ele>128.5</ele>
        <time>2022-10-05T12:40:44Z</time>
      </trkpt>
      <trkpt lat="49.72981" lon="2.37562">
        <ele>128.6</ele>
        <time>2022-10-05T12:40:45Z</time>
      </trkpt>
      <trkpt lat="49.7298" lon="2.37563">
        <ele>128.6</ele>
        <time>2022-10-05T12:40:46Z</time>
      </trkpt>
      <trkpt lat="49.7298" lon="2.37565">
        <ele>128.6</ele>
        <time>2022-10-05T12:40:48Z</time>
      </trkpt>
      <trkpt lat="49.72979" lon="2.37567">
        <ele>128.7</ele>
        <time>2022-10-05T12:40:49Z</time>
      </trkpt>
      <trkpt lat="49.72978" lon="2.37569">
        <ele>128.7</ele>
        <time>2022-10-05T12:40:50Z</time>
      </trkpt>
      <trkpt lat="49.72977" lon="2.37571">
        <ele>128.7</ele>
        <time>2022-10-05T12:40:51Z</time>
      </trkpt>
      <trkpt lat="49.72976" lon="2.37575">
        <ele>128.8</ele>
        <time>2022-10-05T12:40:53Z</time>
      </trkpt>
      <trkpt lat="49.72976" lon="2.37576">
        <ele>128.8</ele>
        <time>2022-10-05T12:40:54Z</time>
      </trkpt>
      <trkpt lat="49.72975" lon="2.37578">
        <ele>128.9</ele>
        <time>2022-10-05T12:40:55Z</time>
      </trkpt>
      <trkpt lat="49.72975" lon="2.37579">
        <ele>128.9</ele>
        <time>2022-10-05T12:40:56Z</time>
      </trkpt>
      <trkpt lat="49.72974" lon="2.37581">
        <ele>128.9</ele>
        <time>2022-10-05T12:40:57Z</time>
      </trkpt>
      <trkpt lat="49.72973" lon="2.37583">
        <ele>129</ele>
        <time>2022-10-05T12:40:58Z</time>
      </trkpt>
      <trkpt lat="49.72972" lon="2.37585">
        <ele>129</ele>
        <time>2022-10-05T12:40:59Z</time>
      </trkpt>
      <trkpt lat="49.72972" lon="2.37587">
        <ele>129.1</ele>
        <time>2022-10-05T12:41:00Z</time>
      </trkpt>
      <trkpt lat="49.72971" lon="2.37589">
        <ele>129.1</ele>
        <time>2022-10-05T12:41:01Z</time>
      </trkpt>
      <trkpt lat="49.72969" lon="2.37592">
        <ele>129.2</ele>
        <time>2022-10-05T12:41:02Z</time>
      </trkpt>
      <trkpt lat="49.72969" lon="2.37593">
        <ele>129.2</ele>
        <time>2022-10-05T12:41:04Z</time>
      </trkpt>
      <trkpt lat="49.72968" lon="2.37595">
        <ele>129.2</ele>
        <time>2022-10-05T12:41:05Z</time>
      </trkpt>
      <trkpt lat="49.72967" lon="2.37596">
        <ele>129.3</ele>
        <time>2022-10-05T12:41:06Z</time>
      </trkpt>
      <trkpt lat="49.72967" lon="2.37597">
        <ele>129.3</ele>
        <time>2022-10-05T12:41:07Z</time>
      </trkpt>
      <trkpt lat="49.72966" lon="2.376">
        <ele>129.3</ele>
        <time>2022-10-05T12:41:09Z</time>
      </trkpt>
      <trkpt lat="49.72965" lon="2.37602">
        <ele>129.4</ele>
        <time>2022-10-05T12:41:10Z</time>
      </trkpt>
      <trkpt lat="49.72964" lon="2.37605">
        <ele>129.5</ele>
        <time>2022-10-05T12:41:11Z</time>
      </trkpt>
      <trkpt lat="49.72964" lon="2.37607">
        <ele>129.5</ele>
        <time>2022-10-05T12:41:12Z</time>
      </trkpt>
      <trkpt lat="49.72963" lon="2.37611">
        <ele>129.6</ele>
        <time>2022-10-05T12:41:13Z</time>
      </trkpt>
      <trkpt lat="49.72962" lon="2.37613">
        <ele>129.6</ele>
        <time>2022-10-05T12:41:15Z</time>
      </trkpt>
      <trkpt lat="49.72961" lon="2.37617">
        <ele>129.7</ele>
        <time>2022-10-05T12:41:16Z</time>
      </trkpt>
      <trkpt lat="49.72961" lon="2.37619">
        <ele>129.7</ele>
        <time>2022-10-05T12:41:17Z</time>
      </trkpt>
      <trkpt lat="49.7296" lon="2.37621">
        <ele>129.8</ele>
        <time>2022-10-05T12:41:18Z</time>
      </trkpt>
      <trkpt lat="49.7296" lon="2.37623">
        <ele>129.8</ele>
        <time>2022-10-05T12:41:19Z</time>
      </trkpt>
      <trkpt lat="49.72959" lon="2.37626">
        <ele>129.9</ele>
        <time>2022-10-05T12:41:20Z</time>
      </trkpt>
      <trkpt lat="49.72958" lon="2.37627">
        <ele>129.9</ele>
        <time>2022-10-05T12:41:21Z</time>
      </trkpt>
      <trkpt lat="49.72958" lon="2.37629">
        <ele>129.9</ele>
        <time>2022-10-05T12:41:22Z</time>
      </trkpt>
      <trkpt lat="49.72957" lon="2.37631">
        <ele>130</ele>
        <time>2022-10-05T12:41:23Z</time>
      </trkpt>
      <trkpt lat="49.72957" lon="2.37633">
        <ele>130</ele>
        <time>2022-10-05T12:41:24Z</time>
      </trkpt>
      <trkpt lat="49.72956" lon="2.37635">
        <ele>130.1</ele>
        <time>2022-10-05T12:41:25Z</time>
      </trkpt>
      <trkpt lat="49.72956" lon="2.37638">
        <ele>130.2</ele>
        <time>2022-10-05T12:41:26Z</time>
      </trkpt>
      <trkpt lat="49.72955" lon="2.3764">
        <ele>130.2</ele>
        <time>2022-10-05T12:41:27Z</time>
      </trkpt>
      <trkpt lat="49.72955" lon="2.37641">
        <ele>130.3</ele>
        <time>2022-10-05T12:41:28Z</time>
      </trkpt>
      <trkpt lat="49.72954" lon="2.37643">
        <ele>130.3</ele>
        <time>2022-10-05T12:41:30Z</time>
      </trkpt>
      <trkpt lat="49.72954" lon="2.37645">
        <ele>130.3</ele>
        <time>2022-10-05T12:41:31Z</time>
      </trkpt>
      <trkpt lat="49.72954" lon="2.37646">
        <ele>130.4</ele>
        <time>2022-10-05T12:41:32Z</time>
      </trkpt>
      <trkpt lat="49.72954" lon="2.37648">
        <ele>130.4</ele>
        <time>2022-10-05T12:41:33Z</time>
      </trkpt>
      <trkpt lat="49.72954" lon="2.37648">
        <ele>130.4</ele>
        <time>2022-10-05T12:41:34Z</time>
      </trkpt>
      <trkpt lat="49.72954" lon="2.37649">
        <ele>130.5</ele>
        <time>2022-10-05T12:41:35Z</time>
      </trkpt>
      <trkpt lat="49.72954" lon="2.37651">
        <ele>130.5</ele>
        <time>2022-10-05T12:41:36Z</time>
      </trkpt>
      <trkpt lat="49.72953" lon="2.37653">
        <ele>130.6</ele>
        <time>2022-10-05T12:41:37Z</time>
      </trkpt>
      <trkpt lat="49.72953" lon="2.37655">
        <ele>130.6</ele>
        <time>2022-10-05T12:41:38Z</time>
      </trkpt>
      <trkpt lat="49.72952" lon="2.37658">
        <ele>130.7</ele>
        <time>2022-10-05T12:41:40Z</time>
      </trkpt>
      <trkpt lat="49.72952" lon="2.37659">
        <ele>130.7</ele>
        <time>2022-10-05T12:41:41Z</time>
      </trkpt>
      <trkpt lat="49.72951" lon="2.37661">
        <ele>130.8</ele>
        <time>2022-10-05T12:41:42Z</time>
      </trkpt>
      <trkpt lat="49.72951" lon="2.37662">
        <ele>130.8</ele>
        <time>2022-10-05T12:41:43Z</time>
      </trkpt>
      <trkpt lat="49.7295" lon="2.37664">
        <ele>130.8</ele>
        <time>2022-10-05T12:41:44Z</time>
      </trkpt>
      <trkpt lat="49.7295" lon="2.37665">
        <ele>130.8</ele>
        <time>2022-10-05T12:41:45Z</time>
      </trkpt>
      <trkpt lat="49.7295" lon="2.37666">
        <ele>130.9</ele>
        <time>2022-10-05T12:41:46Z</time>
      </trkpt>
      <trkpt lat="49.7295" lon="2.37668">
        <ele>130.9</ele>
        <time>2022-10-05T12:41:47Z</time>
      </trkpt>
      <trkpt lat="49.72949" lon="2.3767">
        <ele>131</ele>
        <time>2022-10-05T12:41:48Z</time>
      </trkpt>
      <trkpt lat="49.72948" lon="2.37672">
        <ele>131</ele>
        <time>2022-10-05T12:41:50Z</time>
      </trkpt>
      <trkpt lat="49.72947" lon="2.37675">
        <ele>131.1</ele>
        <time>2022-10-05T12:41:51Z</time>
      </trkpt>
      <trkpt lat="49.72947" lon="2.37677">
        <ele>131.1</ele>
        <time>2022-10-05T12:41:52Z</time>
      </trkpt>
      <trkpt lat="49.72946" lon="2.37678">
        <ele>131.2</ele>
        <time>2022-10-05T12:41:53Z</time>
      </trkpt>
      <trkpt lat="49.72945" lon="2.3768">
        <ele>131.2</ele>
        <time>2022-10-05T12:41:54Z</time>
      </trkpt>
      <trkpt lat="49.72945" lon="2.37682">
        <ele>131.3</ele>
        <time>2022-10-05T12:41:55Z</time>
      </trkpt>
      <trkpt lat="49.72944" lon="2.37683">
        <ele>131.3</ele>
        <time>2022-10-05T12:41:56Z</time>
      </trkpt>
      <trkpt lat="49.72944" lon="2.37685">
        <ele>131.4</ele>
        <time>2022-10-05T12:41:58Z</time>
      </trkpt>
      <trkpt lat="49.72943" lon="2.37687">
        <ele>131.4</ele>
        <time>2022-10-05T12:41:59Z</time>
      </trkpt>
      <trkpt lat="49.72943" lon="2.37689">
        <ele>131.4</ele>
        <time>2022-10-05T12:42:00Z</time>
      </trkpt>
      <trkpt lat="49.72942" lon="2.37691">
        <ele>131.5</ele>
        <time>2022-10-05T12:42:01Z</time>
      </trkpt>
      <trkpt lat="49.72941" lon="2.37694">
        <ele>131.6</ele>
        <time>2022-10-05T12:42:02Z</time>
      </trkpt>
      <trkpt lat="49.72941" lon="2.37695">
        <ele>131.6</ele>
        <time>2022-10-05T12:42:03Z</time>
      </trkpt>
      <trkpt lat="49.7294" lon="2.37696">
        <ele>131.6</ele>
        <time>2022-10-05T12:42:04Z</time>
      </trkpt>
      <trkpt lat="49.72939" lon="2.37698">
        <ele>131.7</ele>
        <time>2022-10-05T12:42:05Z</time>
      </trkpt>
      <trkpt lat="49.72938" lon="2.37699">
        <ele>131.7</ele>
        <time>2022-10-05T12:42:07Z</time>
      </trkpt>
      <trkpt lat="49.72937" lon="2.37701">
        <ele>131.7</ele>
        <time>2022-10-05T12:42:08Z</time>
      </trkpt>
      <trkpt lat="49.72936" lon="2.37702">
        <ele>131.8</ele>
        <time>2022-10-05T12:42:09Z</time>
      </trkpt>
      <trkpt lat="49.72935" lon="2.37705">
        <ele>131.8</ele>
        <time>2022-10-05T12:42:10Z</time>
      </trkpt>
      <trkpt lat="49.72934" lon="2.37707">
        <ele>131.9</ele>
        <time>2022-10-05T12:42:11Z</time>
      </trkpt>
      <trkpt lat="49.72934" lon="2.37709">
        <ele>131.9</ele>
        <time>2022-10-05T12:42:13Z</time>
      </trkpt>
      <trkpt lat="49.72933" lon="2.37711">
        <ele>131.9</ele>
        <time>2022-10-05T12:42:14Z</time>
      </trkpt>
      <trkpt lat="49.72932" lon="2.37713">
        <ele>132</ele>
        <time>2022-10-05T12:42:15Z</time>
      </trkpt>
      <trkpt lat="49.72931" lon="2.37715">
        <ele>132</ele>
        <time>2022-10-05T12:42:16Z</time>
      </trkpt>
      <trkpt lat="49.72931" lon="2.37716">
        <ele>132</ele>
        <time>2022-10-05T12:42:17Z</time>
      </trkpt>
      <trkpt lat="49.7293" lon="2.37719">
        <ele>132.1</ele>
        <time>2022-10-05T12:42:18Z</time>
      </trkpt>
      <trkpt lat="49.7293" lon="2.3772">
        <ele>132.1</ele>
        <time>2022-10-05T12:42:19Z</time>
      </trkpt>
      <trkpt lat="49.72929" lon="2.37721">
        <ele>132.1</ele>
        <time>2022-10-05T12:42:20Z</time>
      </trkpt>
      <trkpt lat="49.72928" lon="2.37725">
        <ele>132.2</ele>
        <time>2022-10-05T12:42:22Z</time>
      </trkpt>
      <trkpt lat="49.72928" lon="2.37727">
        <ele>132.2</ele>
        <time>2022-10-05T12:42:23Z</time>
      </trkpt>
      <trkpt lat="49.72928" lon="2.37728">
        <ele>132.2</ele>
        <time>2022-10-05T12:42:24Z</time>
      </trkpt>
      <trkpt lat="49.72928" lon="2.3773">
        <ele>132.2</ele>
        <time>2022-10-05T12:42:25Z</time>
      </trkpt>
      <trkpt lat="49.72927" lon="2.37731">
        <ele>132.2</ele>
        <time>2022-10-05T12:42:26Z</time>
      </trkpt>
      <trkpt lat="49.72927" lon="2.37733">
        <ele>132.3</ele>
        <time>2022-10-05T12:42:27Z</time>
      </trkpt>
      <trkpt lat="49.72926" lon="2.37736">
        <ele>132.3</ele>
        <time>2022-10-05T12:42:28Z</time>
      </trkpt>
      <trkpt lat="49.72926" lon="2.37737">
        <ele>132.3</ele>
        <time>2022-10-05T12:42:29Z</time>
      </trkpt>
      <trkpt lat="49.72925" lon="2.3774">
        <ele>132.4</ele>
        <time>2022-10-05T12:42:31Z</time>
      </trkpt>
      <trkpt lat="49.72926" lon="2.37742">
        <ele>132.4</ele>
        <time>2022-10-05T12:42:32Z</time>
      </trkpt>
      <trkpt lat="49.72926" lon="2.37744">
        <ele>132.4</ele>
        <time>2022-10-05T12:42:33Z</time>
      </trkpt>
      <trkpt lat="49.72925" lon="2.37746">
        <ele>132.4</ele>
        <time>2022-10-05T12:42:34Z</time>
      </trkpt>
      <trkpt lat="49.72925" lon="2.37748">
        <ele>132.5</ele>
        <time>2022-10-05T12:42:35Z</time>
      </trkpt>
      <trkpt lat="49.72925" lon="2.37749">
        <ele>132.5</ele>
        <time>2022-10-05T12:42:36Z</time>
      </trkpt>
      <trkpt lat="49.72924" lon="2.37752">
        <ele>132.5</ele>
        <time>2022-10-05T12:42:38Z</time>
      </trkpt>
      <trkpt lat="49.72922" lon="2.37754">
        <ele>132.6</ele>
        <time>2022-10-05T12:42:40Z</time>
      </trkpt>
      <trkpt lat="49.72921" lon="2.37757">
        <ele>132.6</ele>
        <time>2022-10-05T12:42:41Z</time>
      </trkpt>
      <trkpt lat="49.7292" lon="2.37758">
        <ele>132.6</ele>
        <time>2022-10-05T12:42:42Z</time>
      </trkpt>
      <trkpt lat="49.7292" lon="2.37759">
        <ele>132.6</ele>
        <time>2022-10-05T12:42:43Z</time>
      </trkpt>
      <trkpt lat="49.72919" lon="2.37761">
        <ele>132.7</ele>
        <time>2022-10-05T12:42:44Z</time>
      </trkpt>
      <trkpt lat="49.72918" lon="2.37763">
        <ele>132.7</ele>
        <time>2022-10-05T12:42:45Z</time>
      </trkpt>
      <trkpt lat="49.72917" lon="2.37765">
        <ele>132.7</ele>
        <time>2022-10-05T12:42:46Z</time>
      </trkpt>
      <trkpt lat="49.72917" lon="2.37766">
        <ele>132.7</ele>
        <time>2022-10-05T12:42:47Z</time>
      </trkpt>
      <trkpt lat="49.72916" lon="2.37768">
        <ele>132.8</ele>
        <time>2022-10-05T12:42:48Z</time>
      </trkpt>
      <trkpt lat="49.72916" lon="2.37769">
        <ele>132.8</ele>
        <time>2022-10-05T12:42:49Z</time>
      </trkpt>
      <trkpt lat="49.72915" lon="2.37772">
        <ele>132.8</ele>
        <time>2022-10-05T12:42:51Z</time>
      </trkpt>
      <trkpt lat="49.72914" lon="2.37773">
        <ele>132.8</ele>
        <time>2022-10-05T12:42:52Z</time>
      </trkpt>
      <trkpt lat="49.72914" lon="2.37774">
        <ele>132.8</ele>
        <time>2022-10-05T12:42:53Z</time>
      </trkpt>
      <trkpt lat="49.72913" lon="2.37775">
        <ele>132.8</ele>
        <time>2022-10-05T12:42:54Z</time>
      </trkpt>
      <trkpt lat="49.72912" lon="2.3778">
        <ele>132.8</ele>
        <time>2022-10-05T12:42:55Z</time>
      </trkpt>
      <trkpt lat="49.72911" lon="2.37781">
        <ele>132.8</ele>
        <time>2022-10-05T12:42:57Z</time>
      </trkpt>
      <trkpt lat="49.72911" lon="2.37783">
        <ele>132.9</ele>
        <time>2022-10-05T12:42:58Z</time>
      </trkpt>
      <trkpt lat="49.72911" lon="2.37784">
        <ele>132.9</ele>
        <time>2022-10-05T12:42:59Z</time>
      </trkpt>
      <trkpt lat="49.7291" lon="2.37786">
        <ele>132.9</ele>
        <time>2022-10-05T12:43:00Z</time>
      </trkpt>
      <trkpt lat="49.72909" lon="2.37789">
        <ele>132.9</ele>
        <time>2022-10-05T12:43:01Z</time>
      </trkpt>
      <trkpt lat="49.72909" lon="2.3779">
        <ele>133</ele>
        <time>2022-10-05T12:43:02Z</time>
      </trkpt>
      <trkpt lat="49.72909" lon="2.37791">
        <ele>133</ele>
        <time>2022-10-05T12:43:03Z</time>
      </trkpt>
      <trkpt lat="49.72907" lon="2.37795">
        <ele>133</ele>
        <time>2022-10-05T12:43:04Z</time>
      </trkpt>
      <trkpt lat="49.72907" lon="2.37796">
        <ele>133.1</ele>
        <time>2022-10-05T12:43:05Z</time>
      </trkpt>
      <trkpt lat="49.72906" lon="2.37798">
        <ele>133.1</ele>
        <time>2022-10-05T12:43:06Z</time>
      </trkpt>
      <trkpt lat="49.72905" lon="2.378">
        <ele>133.1</ele>
        <time>2022-10-05T12:43:07Z</time>
      </trkpt>
      <trkpt lat="49.72904" lon="2.37804">
        <ele>133.2</ele>
        <time>2022-10-05T12:43:09Z</time>
      </trkpt>
      <trkpt lat="49.72904" lon="2.37805">
        <ele>133.2</ele>
        <time>2022-10-05T12:43:10Z</time>
      </trkpt>
      <trkpt lat="49.72903" lon="2.37807">
        <ele>133.2</ele>
        <time>2022-10-05T12:43:11Z</time>
      </trkpt>
      <trkpt lat="49.72902" lon="2.37809">
        <ele>133.3</ele>
        <time>2022-10-05T12:43:12Z</time>
      </trkpt>
      <trkpt lat="49.72902" lon="2.3781">
        <ele>133.3</ele>
        <time>2022-10-05T12:43:13Z</time>
      </trkpt>
      <trkpt lat="49.72901" lon="2.37813">
        <ele>133.3</ele>
        <time>2022-10-05T12:43:14Z</time>
      </trkpt>
      <trkpt lat="49.729" lon="2.37815">
        <ele>133.4</ele>
        <time>2022-10-05T12:43:15Z</time>
      </trkpt>
      <trkpt lat="49.72899" lon="2.37816">
        <ele>133.4</ele>
        <time>2022-10-05T12:43:16Z</time>
      </trkpt>
      <trkpt lat="49.72899" lon="2.37818">
        <ele>133.4</ele>
        <time>2022-10-05T12:43:18Z</time>
      </trkpt>
      <trkpt lat="49.72898" lon="2.37819">
        <ele>133.4</ele>
        <time>2022-10-05T12:43:19Z</time>
      </trkpt>
      <trkpt lat="49.72898" lon="2.37821">
        <ele>133.5</ele>
        <time>2022-10-05T12:43:20Z</time>
      </trkpt>
      <trkpt lat="49.72897" lon="2.37824">
        <ele>133.4</ele>
        <time>2022-10-05T12:43:21Z</time>
      </trkpt>
      <trkpt lat="49.72897" lon="2.37825">
        <ele>133.5</ele>
        <time>2022-10-05T12:43:22Z</time>
      </trkpt>
      <trkpt lat="49.72896" lon="2.37826">
        <ele>133.5</ele>
        <time>2022-10-05T12:43:23Z</time>
      </trkpt>
      <trkpt lat="49.72896" lon="2.37827">
        <ele>133.5</ele>
        <time>2022-10-05T12:43:24Z</time>
      </trkpt>
      <trkpt lat="49.72895" lon="2.37829">
        <ele>133.5</ele>
        <time>2022-10-05T12:43:25Z</time>
      </trkpt>
      <trkpt lat="49.72895" lon="2.37832">
        <ele>133.5</ele>
        <time>2022-10-05T12:43:26Z</time>
      </trkpt>
      <trkpt lat="49.72895" lon="2.37833">
        <ele>133.6</ele>
        <time>2022-10-05T12:43:27Z</time>
      </trkpt>
      <trkpt lat="49.72894" lon="2.37834">
        <ele>133.6</ele>
        <time>2022-10-05T12:43:28Z</time>
      </trkpt>
      <trkpt lat="49.72894" lon="2.37836">
        <ele>133.6</ele>
        <time>2022-10-05T12:43:29Z</time>
      </trkpt>
      <trkpt lat="49.72893" lon="2.37839">
        <ele>133.6</ele>
        <time>2022-10-05T12:43:30Z</time>
      </trkpt>
      <trkpt lat="49.72893" lon="2.3784">
        <ele>133.7</ele>
        <time>2022-10-05T12:43:31Z</time>
      </trkpt>
      <trkpt lat="49.72892" lon="2.37842">
        <ele>133.7</ele>
        <time>2022-10-05T12:43:32Z</time>
      </trkpt>
      <trkpt lat="49.72892" lon="2.37844">
        <ele>133.7</ele>
        <time>2022-10-05T12:43:34Z</time>
      </trkpt>
      <trkpt lat="49.72891" lon="2.37846">
        <ele>133.7</ele>
        <time>2022-10-05T12:43:35Z</time>
      </trkpt>
      <trkpt lat="49.7289" lon="2.37849">
        <ele>133.7</ele>
        <time>2022-10-05T12:43:36Z</time>
      </trkpt>
      <trkpt lat="49.7289" lon="2.3785">
        <ele>133.8</ele>
        <time>2022-10-05T12:43:37Z</time>
      </trkpt>
      <trkpt lat="49.72889" lon="2.37853">
        <ele>133.8</ele>
        <time>2022-10-05T12:43:39Z</time>
      </trkpt>
      <trkpt lat="49.72888" lon="2.37854">
        <ele>133.8</ele>
        <time>2022-10-05T12:43:40Z</time>
      </trkpt>
      <trkpt lat="49.72887" lon="2.37857">
        <ele>133.8</ele>
        <time>2022-10-05T12:43:41Z</time>
      </trkpt>
      <trkpt lat="49.72887" lon="2.37859">
        <ele>133.9</ele>
        <time>2022-10-05T12:43:42Z</time>
      </trkpt>
      <trkpt lat="49.72886" lon="2.3786">
        <ele>133.9</ele>
        <time>2022-10-05T12:43:43Z</time>
      </trkpt>
      <trkpt lat="49.72886" lon="2.37862">
        <ele>133.9</ele>
        <time>2022-10-05T12:43:44Z</time>
      </trkpt>
      <trkpt lat="49.72885" lon="2.37865">
        <ele>133.9</ele>
        <time>2022-10-05T12:43:45Z</time>
      </trkpt>
      <trkpt lat="49.72885" lon="2.37866">
        <ele>134</ele>
        <time>2022-10-05T12:43:46Z</time>
      </trkpt>
      <trkpt lat="49.72884" lon="2.37867">
        <ele>134</ele>
        <time>2022-10-05T12:43:47Z</time>
      </trkpt>
      <trkpt lat="49.72884" lon="2.37869">
        <ele>134</ele>
        <time>2022-10-05T12:43:48Z</time>
      </trkpt>
      <trkpt lat="49.72883" lon="2.37871">
        <ele>134</ele>
        <time>2022-10-05T12:43:49Z</time>
      </trkpt>
      <trkpt lat="49.72882" lon="2.37874">
        <ele>134.1</ele>
        <time>2022-10-05T12:43:51Z</time>
      </trkpt>
      <trkpt lat="49.72882" lon="2.37876">
        <ele>134.1</ele>
        <time>2022-10-05T12:43:52Z</time>
      </trkpt>
      <trkpt lat="49.72881" lon="2.37878">
        <ele>134.1</ele>
        <time>2022-10-05T12:43:53Z</time>
      </trkpt>
      <trkpt lat="49.72881" lon="2.3788">
        <ele>134.1</ele>
        <time>2022-10-05T12:43:54Z</time>
      </trkpt>
      <trkpt lat="49.72881" lon="2.37882">
        <ele>134.2</ele>
        <time>2022-10-05T12:43:55Z</time>
      </trkpt>
      <trkpt lat="49.7288" lon="2.37885">
        <ele>134.2</ele>
        <time>2022-10-05T12:43:56Z</time>
      </trkpt>
      <trkpt lat="49.72879" lon="2.37888">
        <ele>134.2</ele>
        <time>2022-10-05T12:43:57Z</time>
      </trkpt>
      <trkpt lat="49.72879" lon="2.37889">
        <ele>134.3</ele>
        <time>2022-10-05T12:43:59Z</time>
      </trkpt>
      <trkpt lat="49.72879" lon="2.3789">
        <ele>134.3</ele>
        <time>2022-10-05T12:44:00Z</time>
      </trkpt>
      <trkpt lat="49.72878" lon="2.37893">
        <ele>134.3</ele>
        <time>2022-10-05T12:44:01Z</time>
      </trkpt>
      <trkpt lat="49.72877" lon="2.37894">
        <ele>134.3</ele>
        <time>2022-10-05T12:44:02Z</time>
      </trkpt>
      <trkpt lat="49.72877" lon="2.37895">
        <ele>134.3</ele>
        <time>2022-10-05T12:44:03Z</time>
      </trkpt>
      <trkpt lat="49.72877" lon="2.37899">
        <ele>134.4</ele>
        <time>2022-10-05T12:44:04Z</time>
      </trkpt>
      <trkpt lat="49.72876" lon="2.37901">
        <ele>134.4</ele>
        <time>2022-10-05T12:44:05Z</time>
      </trkpt>
      <trkpt lat="49.72876" lon="2.37904">
        <ele>134.4</ele>
        <time>2022-10-05T12:44:06Z</time>
      </trkpt>
      <trkpt lat="49.72876" lon="2.37906">
        <ele>134.5</ele>
        <time>2022-10-05T12:44:08Z</time>
      </trkpt>
      <trkpt lat="49.72876" lon="2.37907">
        <ele>134.5</ele>
        <time>2022-10-05T12:44:09Z</time>
      </trkpt>
      <trkpt lat="49.72875" lon="2.37909">
        <ele>134.5</ele>
        <time>2022-10-05T12:44:10Z</time>
      </trkpt>
      <trkpt lat="49.72875" lon="2.37911">
        <ele>134.5</ele>
        <time>2022-10-05T12:44:11Z</time>
      </trkpt>
      <trkpt lat="49.72874" lon="2.37915">
        <ele>134.6</ele>
        <time>2022-10-05T12:44:13Z</time>
      </trkpt>
      <trkpt lat="49.72873" lon="2.37916">
        <ele>134.6</ele>
        <time>2022-10-05T12:44:14Z</time>
      </trkpt>
      <trkpt lat="49.72873" lon="2.37917">
        <ele>134.6</ele>
        <time>2022-10-05T12:44:15Z</time>
      </trkpt>
      <trkpt lat="49.72872" lon="2.3792">
        <ele>134.6</ele>
        <time>2022-10-05T12:44:16Z</time>
      </trkpt>
      <trkpt lat="49.72872" lon="2.37921">
        <ele>134.6</ele>
        <time>2022-10-05T12:44:17Z</time>
      </trkpt>
      <trkpt lat="49.72871" lon="2.37922">
        <ele>134.7</ele>
        <time>2022-10-05T12:44:18Z</time>
      </trkpt>
      <trkpt lat="49.7287" lon="2.37924">
        <ele>134.7</ele>
        <time>2022-10-05T12:44:20Z</time>
      </trkpt>
      <trkpt lat="49.7287" lon="2.37925">
        <ele>134.7</ele>
        <time>2022-10-05T12:44:21Z</time>
      </trkpt>
      <trkpt lat="49.72869" lon="2.37927">
        <ele>134.7</ele>
        <time>2022-10-05T12:44:22Z</time>
      </trkpt>
      <trkpt lat="49.72869" lon="2.37928">
        <ele>134.7</ele>
        <time>2022-10-05T12:44:23Z</time>
      </trkpt>
      <trkpt lat="49.72869" lon="2.37929">
        <ele>134.7</ele>
        <time>2022-10-05T12:44:24Z</time>
      </trkpt>
      <trkpt lat="49.72868" lon="2.37931">
        <ele>134.8</ele>
        <time>2022-10-05T12:44:25Z</time>
      </trkpt>
      <trkpt lat="49.72867" lon="2.37933">
        <ele>134.8</ele>
        <time>2022-10-05T12:44:26Z</time>
      </trkpt>
      <trkpt lat="49.72867" lon="2.37934">
        <ele>134.8</ele>
        <time>2022-10-05T12:44:27Z</time>
      </trkpt>
      <trkpt lat="49.72866" lon="2.37938">
        <ele>134.9</ele>
        <time>2022-10-05T12:44:28Z</time>
      </trkpt>
      <trkpt lat="49.72865" lon="2.37939">
        <ele>134.9</ele>
        <time>2022-10-05T12:44:29Z</time>
      </trkpt>
      <trkpt lat="49.72865" lon="2.3794">
        <ele>134.9</ele>
        <time>2022-10-05T12:44:30Z</time>
      </trkpt>
      <trkpt lat="49.72865" lon="2.37941">
        <ele>134.9</ele>
        <time>2022-10-05T12:44:31Z</time>
      </trkpt>
      <trkpt lat="49.72865" lon="2.37943">
        <ele>134.9</ele>
        <time>2022-10-05T12:44:33Z</time>
      </trkpt>
      <trkpt lat="49.72864" lon="2.37945">
        <ele>134.9</ele>
        <time>2022-10-05T12:44:34Z</time>
      </trkpt>
      <trkpt lat="49.72864" lon="2.37947">
        <ele>135</ele>
        <time>2022-10-05T12:44:35Z</time>
      </trkpt>
      <trkpt lat="49.72863" lon="2.37949">
        <ele>135</ele>
        <time>2022-10-05T12:44:36Z</time>
      </trkpt>
      <trkpt lat="49.72863" lon="2.3795">
        <ele>135</ele>
        <time>2022-10-05T12:44:37Z</time>
      </trkpt>
      <trkpt lat="49.72863" lon="2.37953">
        <ele>135</ele>
        <time>2022-10-05T12:44:38Z</time>
      </trkpt>
      <trkpt lat="49.72862" lon="2.37954">
        <ele>135</ele>
        <time>2022-10-05T12:44:40Z</time>
      </trkpt>
      <trkpt lat="49.72862" lon="2.37957">
        <ele>135.1</ele>
        <time>2022-10-05T12:44:41Z</time>
      </trkpt>
      <trkpt lat="49.72862" lon="2.37959">
        <ele>135.1</ele>
        <time>2022-10-05T12:44:42Z</time>
      </trkpt>
      <trkpt lat="49.72861" lon="2.37962">
        <ele>135.1</ele>
        <time>2022-10-05T12:44:43Z</time>
      </trkpt>
      <trkpt lat="49.72861" lon="2.37963">
        <ele>135.1</ele>
        <time>2022-10-05T12:44:44Z</time>
      </trkpt>
      <trkpt lat="49.72861" lon="2.37964">
        <ele>135.1</ele>
        <time>2022-10-05T12:44:45Z</time>
      </trkpt>
      <trkpt lat="49.72861" lon="2.37967">
        <ele>135.2</ele>
        <time>2022-10-05T12:44:46Z</time>
      </trkpt>
      <trkpt lat="49.72861" lon="2.37969">
        <ele>135.2</ele>
        <time>2022-10-05T12:44:47Z</time>
      </trkpt>
      <trkpt lat="49.72861" lon="2.37971">
        <ele>135.2</ele>
        <time>2022-10-05T12:44:48Z</time>
      </trkpt>
      <trkpt lat="49.72861" lon="2.37973">
        <ele>135.2</ele>
        <time>2022-10-05T12:44:49Z</time>
      </trkpt>
      <trkpt lat="49.7286" lon="2.37975">
        <ele>135.2</ele>
        <time>2022-10-05T12:44:51Z</time>
      </trkpt>
      <trkpt lat="49.7286" lon="2.37976">
        <ele>135.2</ele>
        <time>2022-10-05T12:44:52Z</time>
      </trkpt>
      <trkpt lat="49.72859" lon="2.37979">
        <ele>135.2</ele>
        <time>2022-10-05T12:44:54Z</time>
      </trkpt>
      <trkpt lat="49.72859" lon="2.37979">
        <ele>135.3</ele>
        <time>2022-10-05T12:44:55Z</time>
      </trkpt>
      <trkpt lat="49.72859" lon="2.37981">
        <ele>135.3</ele>
        <time>2022-10-05T12:44:56Z</time>
      </trkpt>
      <trkpt lat="49.72859" lon="2.37981">
        <ele>135.3</ele>
        <time>2022-10-05T12:44:57Z</time>
      </trkpt>
      <trkpt lat="49.72859" lon="2.37982">
        <ele>135.3</ele>
        <time>2022-10-05T12:44:58Z</time>
      </trkpt>
      <trkpt lat="49.72859" lon="2.37982">
        <ele>135.3</ele>
        <time>2022-10-05T12:44:59Z</time>
      </trkpt>
      <trkpt lat="49.72859" lon="2.37982">
        <ele>135.3</ele>
        <time>2022-10-05T12:45:00Z</time>
      </trkpt>
      <trkpt lat="49.72859" lon="2.37983">
        <ele>135.3</ele>
        <time>2022-10-05T12:45:01Z</time>
      </trkpt>
      <trkpt lat="49.72859" lon="2.37983">
        <ele>135.3</ele>
        <time>2022-10-05T12:45:02Z</time>
      </trkpt>
      <trkpt lat="49.72859" lon="2.37983">
        <ele>135.3</ele>
        <time>2022-10-05T12:45:03Z</time>
      </trkpt>
      <trkpt lat="49.72859" lon="2.37983">
        <ele>135.3</ele>
        <time>2022-10-05T12:45:04Z</time>
      </trkpt>
      <trkpt lat="49.72859" lon="2.37984">
        <ele>135.3</ele>
        <time>2022-10-05T12:45:05Z</time>
      </trkpt>
      <trkpt lat="49.72859" lon="2.37984">
        <ele>135.3</ele>
        <time>2022-10-05T12:45:06Z</time>
      </trkpt>
      <trkpt lat="49.72859" lon="2.37984">
        <ele>135.3</ele>
        <time>2022-10-05T12:45:07Z</time>
      </trkpt>
      <trkpt lat="49.72859" lon="2.37985">
        <ele>135.3</ele>
        <time>2022-10-05T12:45:08Z</time>
      </trkpt>
      <trkpt lat="49.72859" lon="2.37985">
        <ele>135.3</ele>
        <time>2022-10-05T12:45:10Z</time>
      </trkpt>
      <trkpt lat="49.72859" lon="2.37985">
        <ele>135.3</ele>
        <time>2022-10-05T12:45:11Z</time>
      </trkpt>
      <trkpt lat="49.72859" lon="2.37988">
        <ele>135.3</ele>
        <time>2022-10-05T12:45:12Z</time>
      </trkpt>
      <trkpt lat="49.72859" lon="2.3799">
        <ele>135.3</ele>
        <time>2022-10-05T12:45:13Z</time>
      </trkpt>
      <trkpt lat="49.72859" lon="2.37991">
        <ele>135.3</ele>
        <time>2022-10-05T12:45:14Z</time>
      </trkpt>
      <trkpt lat="49.72858" lon="2.37994">
        <ele>135.3</ele>
        <time>2022-10-05T12:45:15Z</time>
      </trkpt>
      <trkpt lat="49.72858" lon="2.37996">
        <ele>135.4</ele>
        <time>2022-10-05T12:45:17Z</time>
      </trkpt>
      <trkpt lat="49.72858" lon="2.37998">
        <ele>135.4</ele>
        <time>2022-10-05T12:45:18Z</time>
      </trkpt>
      <trkpt lat="49.72857" lon="2.38">
        <ele>135.4</ele>
        <time>2022-10-05T12:45:19Z</time>
      </trkpt>
      <trkpt lat="49.72857" lon="2.38002">
        <ele>135.4</ele>
        <time>2022-10-05T12:45:20Z</time>
      </trkpt>
      <trkpt lat="49.72857" lon="2.38004">
        <ele>135.4</ele>
        <time>2022-10-05T12:45:21Z</time>
      </trkpt>
      <trkpt lat="49.72857" lon="2.38007">
        <ele>135.4</ele>
        <time>2022-10-05T12:45:23Z</time>
      </trkpt>
      <trkpt lat="49.72856" lon="2.38009">
        <ele>135.4</ele>
        <time>2022-10-05T12:45:24Z</time>
      </trkpt>
      <trkpt lat="49.72856" lon="2.38012">
        <ele>135.5</ele>
        <time>2022-10-05T12:45:25Z</time>
      </trkpt>
      <trkpt lat="49.72856" lon="2.38014">
        <ele>135.5</ele>
        <time>2022-10-05T12:45:26Z</time>
      </trkpt>
      <trkpt lat="49.72856" lon="2.38016">
        <ele>135.5</ele>
        <time>2022-10-05T12:45:27Z</time>
      </trkpt>
      <trkpt lat="49.72855" lon="2.38018">
        <ele>135.5</ele>
        <time>2022-10-05T12:45:29Z</time>
      </trkpt>
      <trkpt lat="49.72855" lon="2.38019">
        <ele>135.5</ele>
        <time>2022-10-05T12:45:30Z</time>
      </trkpt>
      <trkpt lat="49.72855" lon="2.38021">
        <ele>135.5</ele>
        <time>2022-10-05T12:45:31Z</time>
      </trkpt>
      <trkpt lat="49.72855" lon="2.38023">
        <ele>135.5</ele>
        <time>2022-10-05T12:45:33Z</time>
      </trkpt>
      <trkpt lat="49.72855" lon="2.38024">
        <ele>135.5</ele>
        <time>2022-10-05T12:45:34Z</time>
      </trkpt>
      <trkpt lat="49.72855" lon="2.38026">
        <ele>135.5</ele>
        <time>2022-10-05T12:45:35Z</time>
      </trkpt>
      <trkpt lat="49.72855" lon="2.38025">
        <ele>135.5</ele>
        <time>2022-10-05T12:45:36Z</time>
      </trkpt>
      <trkpt lat="49.72855" lon="2.38025">
        <ele>135.5</ele>
        <time>2022-10-05T12:45:37Z</time>
      </trkpt>
      <trkpt lat="49.72855" lon="2.38025">
        <ele>135.5</ele>
        <time>2022-10-05T12:45:38Z</time>
      </trkpt>
      <trkpt lat="49.72855" lon="2.38025">
        <ele>135.5</ele>
        <time>2022-10-05T12:45:39Z</time>
      </trkpt>
      <trkpt lat="49.72855" lon="2.38025">
        <ele>135.5</ele>
        <time>2022-10-05T12:45:40Z</time>
      </trkpt>
      <trkpt lat="49.72855" lon="2.38025">
        <ele>135.5</ele>
        <time>2022-10-05T12:45:41Z</time>
      </trkpt>
      <trkpt lat="49.72855" lon="2.38025">
        <ele>135.5</ele>
        <time>2022-10-05T12:45:42Z</time>
      </trkpt>
      <trkpt lat="49.72855" lon="2.38025">
        <ele>135.5</ele>
        <time>2022-10-05T12:45:43Z</time>
      </trkpt>
      <trkpt lat="49.72855" lon="2.38025">
        <ele>135.5</ele>
        <time>2022-10-05T12:45:44Z</time>
      </trkpt>
      <trkpt lat="49.72855" lon="2.38025">
        <ele>135.5</ele>
        <time>2022-10-05T12:45:45Z</time>
      </trkpt>
      <trkpt lat="49.72855" lon="2.38025">
        <ele>135.5</ele>
        <time>2022-10-05T12:45:46Z</time>
      </trkpt>
      <trkpt lat="49.72855" lon="2.38025">
        <ele>135.5</ele>
        <time>2022-10-05T12:45:47Z</time>
      </trkpt>
      <trkpt lat="49.72855" lon="2.38024">
        <ele>135.5</ele>
        <time>2022-10-05T12:45:48Z</time>
      </trkpt>
      <trkpt lat="49.72855" lon="2.38024">
        <ele>135.5</ele>
        <time>2022-10-05T12:45:49Z</time>
      </trkpt>
      <trkpt lat="49.72855" lon="2.38024">
        <ele>135.5</ele>
        <time>2022-10-05T12:45:50Z</time>
      </trkpt>
      <trkpt lat="49.72855" lon="2.38024">
        <ele>135.5</ele>
        <time>2022-10-05T12:45:51Z</time>
      </trkpt>
      <trkpt lat="49.72855" lon="2.38024">
        <ele>135.6</ele>
        <time>2022-10-05T12:45:52Z</time>
      </trkpt>
      <trkpt lat="49.72855" lon="2.38024">
        <ele>135.6</ele>
        <time>2022-10-05T12:45:53Z</time>
      </trkpt>
      <trkpt lat="49.72855" lon="2.38024">
        <ele>135.6</ele>
        <time>2022-10-05T12:45:54Z</time>
      </trkpt>
      <trkpt lat="49.72855" lon="2.38024">
        <ele>135.6</ele>
        <time>2022-10-05T12:45:55Z</time>
      </trkpt>
      <trkpt lat="49.72855" lon="2.38024">
        <ele>135.6</ele>
        <time>2022-10-05T12:45:56Z</time>
      </trkpt>
      <trkpt lat="49.72855" lon="2.38024">
        <ele>135.6</ele>
        <time>2022-10-05T12:45:57Z</time>
      </trkpt>
      <trkpt lat="49.72855" lon="2.38024">
        <ele>135.6</ele>
        <time>2022-10-05T12:45:58Z</time>
      </trkpt>
      <trkpt lat="49.72855" lon="2.38023">
        <ele>135.6</ele>
        <time>2022-10-05T12:45:59Z</time>
      </trkpt>
      <trkpt lat="49.72855" lon="2.38023">
        <ele>135.6</ele>
        <time>2022-10-05T12:46:00Z</time>
      </trkpt>
      <trkpt lat="49.72855" lon="2.38023">
        <ele>135.6</ele>
        <time>2022-10-05T12:46:01Z</time>
      </trkpt>
      <trkpt lat="49.72855" lon="2.38023">
        <ele>135.6</ele>
        <time>2022-10-05T12:46:02Z</time>
      </trkpt>
      <trkpt lat="49.72855" lon="2.38023">
        <ele>135.6</ele>
        <time>2022-10-05T12:46:03Z</time>
      </trkpt>
      <trkpt lat="49.72855" lon="2.38023">
        <ele>135.6</ele>
        <time>2022-10-05T12:46:04Z</time>
      </trkpt>
      <trkpt lat="49.72855" lon="2.38023">
        <ele>135.6</ele>
        <time>2022-10-05T12:46:05Z</time>
      </trkpt>
      <trkpt lat="49.72855" lon="2.38023">
        <ele>135.6</ele>
        <time>2022-10-05T12:46:06Z</time>
      </trkpt>
      <trkpt lat="49.72855" lon="2.38023">
        <ele>135.6</ele>
        <time>2022-10-05T12:46:07Z</time>
      </trkpt>
      <trkpt lat="49.72855" lon="2.38023">
        <ele>135.6</ele>
        <time>2022-10-05T12:46:08Z</time>
      </trkpt>
      <trkpt lat="49.72855" lon="2.38023">
        <ele>135.6</ele>
        <time>2022-10-05T12:46:09Z</time>
      </trkpt>
      <trkpt lat="49.72855" lon="2.38022">
        <ele>135.6</ele>
        <time>2022-10-05T12:46:10Z</time>
      </trkpt>
      <trkpt lat="49.72855" lon="2.38022">
        <ele>135.6</ele>
        <time>2022-10-05T12:46:11Z</time>
      </trkpt>
      <trkpt lat="49.72855" lon="2.38022">
        <ele>135.6</ele>
        <time>2022-10-05T12:46:12Z</time>
      </trkpt>
      <trkpt lat="49.72855" lon="2.38022">
        <ele>135.6</ele>
        <time>2022-10-05T12:46:13Z</time>
      </trkpt>
      <trkpt lat="49.72855" lon="2.38022">
        <ele>135.6</ele>
        <time>2022-10-05T12:46:14Z</time>
      </trkpt>
      <trkpt lat="49.72855" lon="2.38022">
        <ele>135.6</ele>
        <time>2022-10-05T12:46:15Z</time>
      </trkpt>
      <trkpt lat="49.72855" lon="2.38022">
        <ele>135.6</ele>
        <time>2022-10-05T12:46:16Z</time>
      </trkpt>
      <trkpt lat="49.72855" lon="2.38022">
        <ele>135.6</ele>
        <time>2022-10-05T12:46:17Z</time>
      </trkpt>
      <trkpt lat="49.72855" lon="2.38022">
        <ele>135.6</ele>
        <time>2022-10-05T12:46:18Z</time>
      </trkpt>
      <trkpt lat="49.72855" lon="2.38022">
        <ele>135.6</ele>
        <time>2022-10-05T12:46:19Z</time>
      </trkpt>
      <trkpt lat="49.72855" lon="2.38022">
        <ele>135.6</ele>
        <time>2022-10-05T12:46:20Z</time>
      </trkpt>
      <trkpt lat="49.72855" lon="2.38022">
        <ele>135.6</ele>
        <time>2022-10-05T12:46:21Z</time>
      </trkpt>
      <trkpt lat="49.72855" lon="2.38021">
        <ele>135.6</ele>
        <time>2022-10-05T12:46:22Z</time>
      </trkpt>
      <trkpt lat="49.72855" lon="2.38021">
        <ele>135.6</ele>
        <time>2022-10-05T12:46:23Z</time>
      </trkpt>
      <trkpt lat="49.72855" lon="2.38021">
        <ele>135.6</ele>
        <time>2022-10-05T12:46:24Z</time>
      </trkpt>
      <trkpt lat="49.72855" lon="2.38021">
        <ele>135.6</ele>
        <time>2022-10-05T12:46:25Z</time>
      </trkpt>
      <trkpt lat="49.72855" lon="2.38021">
        <ele>135.6</ele>
        <time>2022-10-05T12:46:26Z</time>
      </trkpt>
      <trkpt lat="49.72855" lon="2.38021">
        <ele>135.6</ele>
        <time>2022-10-05T12:46:27Z</time>
      </trkpt>
      <trkpt lat="49.72855" lon="2.38021">
        <ele>135.6</ele>
        <time>2022-10-05T12:46:28Z</time>
      </trkpt>
      <trkpt lat="49.72855" lon="2.38021">
        <ele>135.6</ele>
        <time>2022-10-05T12:46:29Z</time>
      </trkpt>
      <trkpt lat="49.72855" lon="2.38021">
        <ele>135.6</ele>
        <time>2022-10-05T12:46:30Z</time>
      </trkpt>
      <trkpt lat="49.72855" lon="2.38021">
        <ele>135.6</ele>
        <time>2022-10-05T12:46:31Z</time>
      </trkpt>
      <trkpt lat="49.72855" lon="2.38021">
        <ele>135.6</ele>
        <time>2022-10-05T12:46:32Z</time>
      </trkpt>
      <trkpt lat="49.72855" lon="2.3802">
        <ele>135.6</ele>
        <time>2022-10-05T12:46:33Z</time>
      </trkpt>
      <trkpt lat="49.72855" lon="2.3802">
        <ele>135.6</ele>
        <time>2022-10-05T12:46:34Z</time>
      </trkpt>
      <trkpt lat="49.72855" lon="2.3802">
        <ele>135.6</ele>
        <time>2022-10-05T12:46:35Z</time>
      </trkpt>
      <trkpt lat="49.72855" lon="2.3802">
        <ele>135.6</ele>
        <time>2022-10-05T12:46:36Z</time>
      </trkpt>
      <trkpt lat="49.72855" lon="2.3802">
        <ele>135.6</ele>
        <time>2022-10-05T12:46:37Z</time>
      </trkpt>
      <trkpt lat="49.72855" lon="2.3802">
        <ele>135.6</ele>
        <time>2022-10-05T12:46:38Z</time>
      </trkpt>
      <trkpt lat="49.72855" lon="2.3802">
        <ele>135.6</ele>
        <time>2022-10-05T12:46:39Z</time>
      </trkpt>
      <trkpt lat="49.72855" lon="2.3802">
        <ele>135.6</ele>
        <time>2022-10-05T12:46:40Z</time>
      </trkpt>
      <trkpt lat="49.72855" lon="2.3802">
        <ele>135.6</ele>
        <time>2022-10-05T12:46:41Z</time>
      </trkpt>
      <trkpt lat="49.72855" lon="2.3802">
        <ele>135.6</ele>
        <time>2022-10-05T12:46:42Z</time>
      </trkpt>
      <trkpt lat="49.72855" lon="2.3802">
        <ele>135.6</ele>
        <time>2022-10-05T12:46:43Z</time>
      </trkpt>
      <trkpt lat="49.72855" lon="2.38019">
        <ele>135.6</ele>
        <time>2022-10-05T12:46:44Z</time>
      </trkpt>
      <trkpt lat="49.72855" lon="2.38019">
        <ele>135.6</ele>
        <time>2022-10-05T12:46:45Z</time>
      </trkpt>
      <trkpt lat="49.72855" lon="2.38019">
        <ele>135.6</ele>
        <time>2022-10-05T12:46:46Z</time>
      </trkpt>
      <trkpt lat="49.72855" lon="2.38019">
        <ele>135.6</ele>
        <time>2022-10-05T12:46:47Z</time>
      </trkpt>
      <trkpt lat="49.72855" lon="2.38019">
        <ele>135.6</ele>
        <time>2022-10-05T12:46:48Z</time>
      </trkpt>
      <trkpt lat="49.72854" lon="2.38019">
        <ele>135.6</ele>
        <time>2022-10-05T12:46:49Z</time>
      </trkpt>
      <trkpt lat="49.72854" lon="2.38019">
        <ele>135.6</ele>
        <time>2022-10-05T12:46:50Z</time>
      </trkpt>
      <trkpt lat="49.72854" lon="2.38019">
        <ele>135.6</ele>
        <time>2022-10-05T12:46:51Z</time>
      </trkpt>
      <trkpt lat="49.72854" lon="2.38019">
        <ele>135.6</ele>
        <time>2022-10-05T12:46:52Z</time>
      </trkpt>
      <trkpt lat="49.72854" lon="2.38019">
        <ele>135.6</ele>
        <time>2022-10-05T12:46:53Z</time>
      </trkpt>
      <trkpt lat="49.72854" lon="2.38019">
        <ele>135.6</ele>
        <time>2022-10-05T12:46:54Z</time>
      </trkpt>
      <trkpt lat="49.72854" lon="2.38019">
        <ele>135.6</ele>
        <time>2022-10-05T12:46:55Z</time>
      </trkpt>
      <trkpt lat="49.72854" lon="2.38018">
        <ele>135.6</ele>
        <time>2022-10-05T12:46:56Z</time>
      </trkpt>
      <trkpt lat="49.72854" lon="2.38018">
        <ele>135.6</ele>
        <time>2022-10-05T12:46:57Z</time>
      </trkpt>
      <trkpt lat="49.72854" lon="2.38018">
        <ele>135.6</ele>
        <time>2022-10-05T12:46:58Z</time>
      </trkpt>
      <trkpt lat="49.72854" lon="2.38018">
        <ele>135.6</ele>
        <time>2022-10-05T12:46:59Z</time>
      </trkpt>
      <trkpt lat="49.72854" lon="2.38018">
        <ele>135.6</ele>
        <time>2022-10-05T12:47:00Z</time>
      </trkpt>
      <trkpt lat="49.72854" lon="2.38018">
        <ele>135.6</ele>
        <time>2022-10-05T12:47:01Z</time>
      </trkpt>
      <trkpt lat="49.72854" lon="2.38019">
        <ele>135.6</ele>
        <time>2022-10-05T12:47:02Z</time>
      </trkpt>
      <trkpt lat="49.72853" lon="2.3802">
        <ele>135.6</ele>
        <time>2022-10-05T12:47:03Z</time>
      </trkpt>
      <trkpt lat="49.72853" lon="2.38023">
        <ele>135.6</ele>
        <time>2022-10-05T12:47:04Z</time>
      </trkpt>
      <trkpt lat="49.72853" lon="2.38024">
        <ele>135.6</ele>
        <time>2022-10-05T12:47:05Z</time>
      </trkpt>
      <trkpt lat="49.72853" lon="2.38025">
        <ele>135.6</ele>
        <time>2022-10-05T12:47:07Z</time>
      </trkpt>
      <trkpt lat="49.72852" lon="2.38027">
        <ele>135.7</ele>
        <time>2022-10-05T12:47:08Z</time>
      </trkpt>
      <trkpt lat="49.72851" lon="2.38032">
        <ele>135.7</ele>
        <time>2022-10-05T12:47:09Z</time>
      </trkpt>
      <trkpt lat="49.7285" lon="2.38034">
        <ele>135.7</ele>
        <time>2022-10-05T12:47:10Z</time>
      </trkpt>
      <trkpt lat="49.72849" lon="2.38035">
        <ele>135.7</ele>
        <time>2022-10-05T12:47:11Z</time>
      </trkpt>
      <trkpt lat="49.72848" lon="2.38037">
        <ele>135.8</ele>
        <time>2022-10-05T12:47:12Z</time>
      </trkpt>
      <trkpt lat="49.72847" lon="2.38039">
        <ele>135.8</ele>
        <time>2022-10-05T12:47:13Z</time>
      </trkpt>
      <trkpt lat="49.72846" lon="2.38041">
        <ele>135.8</ele>
        <time>2022-10-05T12:47:14Z</time>
      </trkpt>
      <trkpt lat="49.72845" lon="2.38043">
        <ele>135.8</ele>
        <time>2022-10-05T12:47:15Z</time>
      </trkpt>
      <trkpt lat="49.72844" lon="2.38045">
        <ele>135.8</ele>
        <time>2022-10-05T12:47:16Z</time>
      </trkpt>
      <trkpt lat="49.72843" lon="2.38046">
        <ele>135.8</ele>
        <time>2022-10-05T12:47:17Z</time>
      </trkpt>
      <trkpt lat="49.72842" lon="2.38048">
        <ele>135.8</ele>
        <time>2022-10-05T12:47:18Z</time>
      </trkpt>
      <trkpt lat="49.7284" lon="2.38053">
        <ele>135.9</ele>
        <time>2022-10-05T12:47:20Z</time>
      </trkpt>
      <trkpt lat="49.7284" lon="2.38053">
        <ele>135.9</ele>
        <time>2022-10-05T12:47:21Z</time>
      </trkpt>
      <trkpt lat="49.72839" lon="2.38056">
        <ele>135.9</ele>
        <time>2022-10-05T12:47:23Z</time>
      </trkpt>
      <trkpt lat="49.72838" lon="2.38057">
        <ele>135.9</ele>
        <time>2022-10-05T12:47:24Z</time>
      </trkpt>
      <trkpt lat="49.72837" lon="2.3806">
        <ele>135.9</ele>
        <time>2022-10-05T12:47:25Z</time>
      </trkpt>
      <trkpt lat="49.72836" lon="2.38061">
        <ele>135.9</ele>
        <time>2022-10-05T12:47:26Z</time>
      </trkpt>
      <trkpt lat="49.72835" lon="2.38064">
        <ele>136</ele>
        <time>2022-10-05T12:47:27Z</time>
      </trkpt>
      <trkpt lat="49.72835" lon="2.38065">
        <ele>136</ele>
        <time>2022-10-05T12:47:28Z</time>
      </trkpt>
      <trkpt lat="49.72834" lon="2.38066">
        <ele>136</ele>
        <time>2022-10-05T12:47:29Z</time>
      </trkpt>
      <trkpt lat="49.72833" lon="2.38069">
        <ele>136</ele>
        <time>2022-10-05T12:47:30Z</time>
      </trkpt>
      <trkpt lat="49.72832" lon="2.3807">
        <ele>136</ele>
        <time>2022-10-05T12:47:31Z</time>
      </trkpt>
      <trkpt lat="49.7283" lon="2.38072">
        <ele>136</ele>
        <time>2022-10-05T12:47:32Z</time>
      </trkpt>
      <trkpt lat="49.72829" lon="2.38073">
        <ele>136</ele>
        <time>2022-10-05T12:47:34Z</time>
      </trkpt>
      <trkpt lat="49.72828" lon="2.38074">
        <ele>136</ele>
        <time>2022-10-05T12:47:35Z</time>
      </trkpt>
      <trkpt lat="49.72828" lon="2.38075">
        <ele>136</ele>
        <time>2022-10-05T12:47:36Z</time>
      </trkpt>
      <trkpt lat="49.72827" lon="2.38076">
        <ele>136</ele>
        <time>2022-10-05T12:47:37Z</time>
      </trkpt>
      <trkpt lat="49.72826" lon="2.38077">
        <ele>136</ele>
        <time>2022-10-05T12:47:38Z</time>
      </trkpt>
      <trkpt lat="49.72824" lon="2.38079">
        <ele>136</ele>
        <time>2022-10-05T12:47:39Z</time>
      </trkpt>
      <trkpt lat="49.72824" lon="2.38079">
        <ele>136</ele>
        <time>2022-10-05T12:47:40Z</time>
      </trkpt>
      <trkpt lat="49.72823" lon="2.3808">
        <ele>136</ele>
        <time>2022-10-05T12:47:41Z</time>
      </trkpt>
      <trkpt lat="49.72821" lon="2.38082">
        <ele>136.1</ele>
        <time>2022-10-05T12:47:42Z</time>
      </trkpt>
      <trkpt lat="49.7282" lon="2.38082">
        <ele>136.1</ele>
        <time>2022-10-05T12:47:44Z</time>
      </trkpt>
      <trkpt lat="49.72819" lon="2.38083">
        <ele>136.1</ele>
        <time>2022-10-05T12:47:45Z</time>
      </trkpt>
      <trkpt lat="49.72818" lon="2.38084">
        <ele>136.1</ele>
        <time>2022-10-05T12:47:46Z</time>
      </trkpt>
      <trkpt lat="49.72817" lon="2.38084">
        <ele>136.1</ele>
        <time>2022-10-05T12:47:47Z</time>
      </trkpt>
      <trkpt lat="49.72815" lon="2.38085">
        <ele>136.1</ele>
        <time>2022-10-05T12:47:48Z</time>
      </trkpt>
      <trkpt lat="49.72814" lon="2.38085">
        <ele>136.1</ele>
        <time>2022-10-05T12:47:49Z</time>
      </trkpt>
      <trkpt lat="49.72812" lon="2.38087">
        <ele>136.1</ele>
        <time>2022-10-05T12:47:50Z</time>
      </trkpt>
      <trkpt lat="49.72811" lon="2.38087">
        <ele>136.1</ele>
        <time>2022-10-05T12:47:51Z</time>
      </trkpt>
      <trkpt lat="49.72811" lon="2.38088">
        <ele>136.1</ele>
        <time>2022-10-05T12:47:52Z</time>
      </trkpt>
      <trkpt lat="49.72808" lon="2.38089">
        <ele>136.1</ele>
        <time>2022-10-05T12:47:53Z</time>
      </trkpt>
      <trkpt lat="49.72808" lon="2.3809">
        <ele>136.2</ele>
        <time>2022-10-05T12:47:55Z</time>
      </trkpt>
      <trkpt lat="49.72807" lon="2.38091">
        <ele>136.2</ele>
        <time>2022-10-05T12:47:56Z</time>
      </trkpt>
      <trkpt lat="49.72806" lon="2.38091">
        <ele>136.2</ele>
        <time>2022-10-05T12:47:57Z</time>
      </trkpt>
      <trkpt lat="49.72805" lon="2.38092">
        <ele>136.2</ele>
        <time>2022-10-05T12:47:58Z</time>
      </trkpt>
      <trkpt lat="49.72804" lon="2.38093">
        <ele>136.2</ele>
        <time>2022-10-05T12:47:59Z</time>
      </trkpt>
      <trkpt lat="49.72802" lon="2.38094">
        <ele>136.2</ele>
        <time>2022-10-05T12:48:00Z</time>
      </trkpt>
      <trkpt lat="49.72801" lon="2.38095">
        <ele>136.2</ele>
        <time>2022-10-05T12:48:01Z</time>
      </trkpt>
      <trkpt lat="49.72799" lon="2.38096">
        <ele>136.2</ele>
        <time>2022-10-05T12:48:03Z</time>
      </trkpt>
      <trkpt lat="49.72798" lon="2.38097">
        <ele>136.3</ele>
        <time>2022-10-05T12:48:04Z</time>
      </trkpt>
      <trkpt lat="49.72795" lon="2.38098">
        <ele>136.3</ele>
        <time>2022-10-05T12:48:05Z</time>
      </trkpt>
      <trkpt lat="49.72795" lon="2.38099">
        <ele>136.3</ele>
        <time>2022-10-05T12:48:06Z</time>
      </trkpt>
      <trkpt lat="49.72793" lon="2.38099">
        <ele>136.3</ele>
        <time>2022-10-05T12:48:07Z</time>
      </trkpt>
      <trkpt lat="49.72792" lon="2.381">
        <ele>136.3</ele>
        <time>2022-10-05T12:48:09Z</time>
      </trkpt>
      <trkpt lat="49.72791" lon="2.381">
        <ele>136.3</ele>
        <time>2022-10-05T12:48:10Z</time>
      </trkpt>
      <trkpt lat="49.72789" lon="2.38102">
        <ele>136.3</ele>
        <time>2022-10-05T12:48:11Z</time>
      </trkpt>
      <trkpt lat="49.72789" lon="2.38102">
        <ele>136.4</ele>
        <time>2022-10-05T12:48:12Z</time>
      </trkpt>
      <trkpt lat="49.72788" lon="2.38103">
        <ele>136.4</ele>
        <time>2022-10-05T12:48:13Z</time>
      </trkpt>
      <trkpt lat="49.72787" lon="2.38103">
        <ele>136.4</ele>
        <time>2022-10-05T12:48:14Z</time>
      </trkpt>
      <trkpt lat="49.72785" lon="2.38104">
        <ele>136.4</ele>
        <time>2022-10-05T12:48:15Z</time>
      </trkpt>
      <trkpt lat="49.72783" lon="2.38105">
        <ele>136.4</ele>
        <time>2022-10-05T12:48:17Z</time>
      </trkpt>
      <trkpt lat="49.72782" lon="2.38106">
        <ele>136.4</ele>
        <time>2022-10-05T12:48:18Z</time>
      </trkpt>
      <trkpt lat="49.72781" lon="2.38106">
        <ele>136.4</ele>
        <time>2022-10-05T12:48:19Z</time>
      </trkpt>
      <trkpt lat="49.72779" lon="2.38107">
        <ele>136.4</ele>
        <time>2022-10-05T12:48:20Z</time>
      </trkpt>
      <trkpt lat="49.72778" lon="2.38108">
        <ele>136.5</ele>
        <time>2022-10-05T12:48:21Z</time>
      </trkpt>
      <trkpt lat="49.72776" lon="2.38109">
        <ele>136.5</ele>
        <time>2022-10-05T12:48:22Z</time>
      </trkpt>
      <trkpt lat="49.72776" lon="2.3811">
        <ele>136.5</ele>
        <time>2022-10-05T12:48:24Z</time>
      </trkpt>
      <trkpt lat="49.72775" lon="2.3811">
        <ele>136.5</ele>
        <time>2022-10-05T12:48:25Z</time>
      </trkpt>
      <trkpt lat="49.72774" lon="2.38111">
        <ele>136.5</ele>
        <time>2022-10-05T12:48:26Z</time>
      </trkpt>
      <trkpt lat="49.72773" lon="2.38112">
        <ele>136.5</ele>
        <time>2022-10-05T12:48:27Z</time>
      </trkpt>
      <trkpt lat="49.72773" lon="2.38112">
        <ele>136.5</ele>
        <time>2022-10-05T12:48:28Z</time>
      </trkpt>
      <trkpt lat="49.72772" lon="2.38113">
        <ele>136.5</ele>
        <time>2022-10-05T12:48:29Z</time>
      </trkpt>
      <trkpt lat="49.72771" lon="2.38113">
        <ele>136.5</ele>
        <time>2022-10-05T12:48:30Z</time>
      </trkpt>
      <trkpt lat="49.72769" lon="2.38115">
        <ele>136.6</ele>
        <time>2022-10-05T12:48:31Z</time>
      </trkpt>
      <trkpt lat="49.72767" lon="2.38115">
        <ele>136.6</ele>
        <time>2022-10-05T12:48:32Z</time>
      </trkpt>
      <trkpt lat="49.72766" lon="2.38116">
        <ele>136.6</ele>
        <time>2022-10-05T12:48:34Z</time>
      </trkpt>
      <trkpt lat="49.72765" lon="2.38116">
        <ele>136.6</ele>
        <time>2022-10-05T12:48:35Z</time>
      </trkpt>
      <trkpt lat="49.72764" lon="2.38117">
        <ele>136.6</ele>
        <time>2022-10-05T12:48:36Z</time>
      </trkpt>
      <trkpt lat="49.72762" lon="2.38119">
        <ele>136.6</ele>
        <time>2022-10-05T12:48:37Z</time>
      </trkpt>
      <trkpt lat="49.72761" lon="2.38119">
        <ele>136.6</ele>
        <time>2022-10-05T12:48:38Z</time>
      </trkpt>
      <trkpt lat="49.7276" lon="2.3812">
        <ele>136.6</ele>
        <time>2022-10-05T12:48:39Z</time>
      </trkpt>
      <trkpt lat="49.72757" lon="2.38122">
        <ele>136.7</ele>
        <time>2022-10-05T12:48:41Z</time>
      </trkpt>
      <trkpt lat="49.72757" lon="2.38122">
        <ele>136.7</ele>
        <time>2022-10-05T12:48:43Z</time>
      </trkpt>
      <trkpt lat="49.72756" lon="2.38123">
        <ele>136.7</ele>
        <time>2022-10-05T12:48:44Z</time>
      </trkpt>
      <trkpt lat="49.72755" lon="2.38123">
        <ele>136.7</ele>
        <time>2022-10-05T12:48:45Z</time>
      </trkpt>
      <trkpt lat="49.72754" lon="2.38124">
        <ele>136.7</ele>
        <time>2022-10-05T12:48:46Z</time>
      </trkpt>
      <trkpt lat="49.72753" lon="2.38125">
        <ele>136.7</ele>
        <time>2022-10-05T12:48:47Z</time>
      </trkpt>
      <trkpt lat="49.72751" lon="2.38126">
        <ele>136.7</ele>
        <time>2022-10-05T12:48:48Z</time>
      </trkpt>
      <trkpt lat="49.7275" lon="2.38126">
        <ele>136.7</ele>
        <time>2022-10-05T12:48:49Z</time>
      </trkpt>
      <trkpt lat="49.72749" lon="2.38127">
        <ele>136.7</ele>
        <time>2022-10-05T12:48:51Z</time>
      </trkpt>
      <trkpt lat="49.72748" lon="2.38128">
        <ele>136.7</ele>
        <time>2022-10-05T12:48:52Z</time>
      </trkpt>
      <trkpt lat="49.72747" lon="2.38128">
        <ele>136.8</ele>
        <time>2022-10-05T12:48:53Z</time>
      </trkpt>
      <trkpt lat="49.72746" lon="2.38129">
        <ele>136.8</ele>
        <time>2022-10-05T12:48:54Z</time>
      </trkpt>
      <trkpt lat="49.72745" lon="2.3813">
        <ele>136.8</ele>
        <time>2022-10-05T12:48:55Z</time>
      </trkpt>
      <trkpt lat="49.72744" lon="2.3813">
        <ele>136.8</ele>
        <time>2022-10-05T12:48:56Z</time>
      </trkpt>
      <trkpt lat="49.72743" lon="2.38131">
        <ele>136.8</ele>
        <time>2022-10-05T12:48:57Z</time>
      </trkpt>
      <trkpt lat="49.72741" lon="2.38131">
        <ele>136.8</ele>
        <time>2022-10-05T12:48:58Z</time>
      </trkpt>
      <trkpt lat="49.7274" lon="2.38132">
        <ele>136.8</ele>
        <time>2022-10-05T12:48:59Z</time>
      </trkpt>
      <trkpt lat="49.72739" lon="2.38132">
        <ele>136.9</ele>
        <time>2022-10-05T12:49:01Z</time>
      </trkpt>
      <trkpt lat="49.72737" lon="2.38133">
        <ele>136.9</ele>
        <time>2022-10-05T12:49:02Z</time>
      </trkpt>
      <trkpt lat="49.72736" lon="2.38133">
        <ele>136.9</ele>
        <time>2022-10-05T12:49:03Z</time>
      </trkpt>
      <trkpt lat="49.72735" lon="2.38134">
        <ele>136.9</ele>
        <time>2022-10-05T12:49:04Z</time>
      </trkpt>
      <trkpt lat="49.72734" lon="2.38134">
        <ele>136.9</ele>
        <time>2022-10-05T12:49:05Z</time>
      </trkpt>
      <trkpt lat="49.72732" lon="2.38134">
        <ele>136.9</ele>
        <time>2022-10-05T12:49:06Z</time>
      </trkpt>
      <trkpt lat="49.7273" lon="2.38135">
        <ele>136.9</ele>
        <time>2022-10-05T12:49:07Z</time>
      </trkpt>
      <trkpt lat="49.72728" lon="2.38136">
        <ele>137</ele>
        <time>2022-10-05T12:49:09Z</time>
      </trkpt>
      <trkpt lat="49.72728" lon="2.38137">
        <ele>137</ele>
        <time>2022-10-05T12:49:10Z</time>
      </trkpt>
      <trkpt lat="49.72727" lon="2.38137">
        <ele>137</ele>
        <time>2022-10-05T12:49:11Z</time>
      </trkpt>
      <trkpt lat="49.72725" lon="2.38138">
        <ele>137</ele>
        <time>2022-10-05T12:49:12Z</time>
      </trkpt>
      <trkpt lat="49.72724" lon="2.38138">
        <ele>137</ele>
        <time>2022-10-05T12:49:13Z</time>
      </trkpt>
      <trkpt lat="49.72723" lon="2.38138">
        <ele>137</ele>
        <time>2022-10-05T12:49:14Z</time>
      </trkpt>
      <trkpt lat="49.72722" lon="2.38139">
        <ele>137</ele>
        <time>2022-10-05T12:49:15Z</time>
      </trkpt>
      <trkpt lat="49.7272" lon="2.3814">
        <ele>137</ele>
        <time>2022-10-05T12:49:16Z</time>
      </trkpt>
      <trkpt lat="49.72718" lon="2.38141">
        <ele>137</ele>
        <time>2022-10-05T12:49:17Z</time>
      </trkpt>
      <trkpt lat="49.72717" lon="2.38141">
        <ele>137</ele>
        <time>2022-10-05T12:49:19Z</time>
      </trkpt>
      <trkpt lat="49.72717" lon="2.38142">
        <ele>137</ele>
        <time>2022-10-05T12:49:20Z</time>
      </trkpt>
      <trkpt lat="49.72715" lon="2.38143">
        <ele>137</ele>
        <time>2022-10-05T12:49:21Z</time>
      </trkpt>
      <trkpt lat="49.72714" lon="2.38143">
        <ele>137</ele>
        <time>2022-10-05T12:49:22Z</time>
      </trkpt>
      <trkpt lat="49.72713" lon="2.38144">
        <ele>137</ele>
        <time>2022-10-05T12:49:23Z</time>
      </trkpt>
      <trkpt lat="49.72711" lon="2.38145">
        <ele>137</ele>
        <time>2022-10-05T12:49:25Z</time>
      </trkpt>
      <trkpt lat="49.7271" lon="2.38145">
        <ele>137</ele>
        <time>2022-10-05T12:49:26Z</time>
      </trkpt>
      <trkpt lat="49.72709" lon="2.38146">
        <ele>137</ele>
        <time>2022-10-05T12:49:27Z</time>
      </trkpt>
      <trkpt lat="49.72708" lon="2.38146">
        <ele>137</ele>
        <time>2022-10-05T12:49:28Z</time>
      </trkpt>
      <trkpt lat="49.72707" lon="2.38146">
        <ele>137.1</ele>
        <time>2022-10-05T12:49:29Z</time>
      </trkpt>
      <trkpt lat="49.72706" lon="2.38147">
        <ele>137.1</ele>
        <time>2022-10-05T12:49:30Z</time>
      </trkpt>
      <trkpt lat="49.72705" lon="2.38148">
        <ele>137.1</ele>
        <time>2022-10-05T12:49:31Z</time>
      </trkpt>
      <trkpt lat="49.72703" lon="2.38149">
        <ele>137.1</ele>
        <time>2022-10-05T12:49:32Z</time>
      </trkpt>
      <trkpt lat="49.72701" lon="2.3815">
        <ele>137.1</ele>
        <time>2022-10-05T12:49:33Z</time>
      </trkpt>
      <trkpt lat="49.72701" lon="2.3815">
        <ele>137.1</ele>
        <time>2022-10-05T12:49:34Z</time>
      </trkpt>
      <trkpt lat="49.727" lon="2.38151">
        <ele>137.1</ele>
        <time>2022-10-05T12:49:35Z</time>
      </trkpt>
      <trkpt lat="49.72698" lon="2.38152">
        <ele>137.1</ele>
        <time>2022-10-05T12:49:37Z</time>
      </trkpt>
      <trkpt lat="49.72697" lon="2.38152">
        <ele>137.1</ele>
        <time>2022-10-05T12:49:38Z</time>
      </trkpt>
      <trkpt lat="49.72695" lon="2.38152">
        <ele>137.1</ele>
        <time>2022-10-05T12:49:39Z</time>
      </trkpt>
      <trkpt lat="49.72694" lon="2.38152">
        <ele>137.1</ele>
        <time>2022-10-05T12:49:40Z</time>
      </trkpt>
      <trkpt lat="49.72691" lon="2.38153">
        <ele>137.1</ele>
        <time>2022-10-05T12:49:41Z</time>
      </trkpt>
      <trkpt lat="49.7269" lon="2.38153">
        <ele>137.1</ele>
        <time>2022-10-05T12:49:42Z</time>
      </trkpt>
      <trkpt lat="49.72689" lon="2.38153">
        <ele>137.1</ele>
        <time>2022-10-05T12:49:43Z</time>
      </trkpt>
      <trkpt lat="49.72686" lon="2.38154">
        <ele>137.1</ele>
        <time>2022-10-05T12:49:44Z</time>
      </trkpt>
      <trkpt lat="49.72685" lon="2.38154">
        <ele>137.1</ele>
        <time>2022-10-05T12:49:46Z</time>
      </trkpt>
      <trkpt lat="49.72684" lon="2.38154">
        <ele>137.1</ele>
        <time>2022-10-05T12:49:47Z</time>
      </trkpt>
      <trkpt lat="49.72683" lon="2.38154">
        <ele>137.1</ele>
        <time>2022-10-05T12:49:48Z</time>
      </trkpt>
      <trkpt lat="49.72682" lon="2.38154">
        <ele>137.1</ele>
        <time>2022-10-05T12:49:49Z</time>
      </trkpt>
      <trkpt lat="49.7268" lon="2.38155">
        <ele>137.1</ele>
        <time>2022-10-05T12:49:50Z</time>
      </trkpt>
      <trkpt lat="49.72679" lon="2.38156">
        <ele>137.1</ele>
        <time>2022-10-05T12:49:51Z</time>
      </trkpt>
      <trkpt lat="49.72678" lon="2.38156">
        <ele>137.1</ele>
        <time>2022-10-05T12:49:52Z</time>
      </trkpt>
      <trkpt lat="49.72676" lon="2.38156">
        <ele>137.1</ele>
        <time>2022-10-05T12:49:53Z</time>
      </trkpt>
      <trkpt lat="49.72675" lon="2.38156">
        <ele>137.1</ele>
        <time>2022-10-05T12:49:54Z</time>
      </trkpt>
      <trkpt lat="49.72674" lon="2.38156">
        <ele>137.1</ele>
        <time>2022-10-05T12:49:55Z</time>
      </trkpt>
      <trkpt lat="49.72672" lon="2.38157">
        <ele>137.1</ele>
        <time>2022-10-05T12:49:57Z</time>
      </trkpt>
      <trkpt lat="49.72671" lon="2.38157">
        <ele>137.1</ele>
        <time>2022-10-05T12:49:58Z</time>
      </trkpt>
      <trkpt lat="49.7267" lon="2.38157">
        <ele>137.1</ele>
        <time>2022-10-05T12:49:59Z</time>
      </trkpt>
      <trkpt lat="49.72669" lon="2.38157">
        <ele>137.1</ele>
        <time>2022-10-05T12:50:00Z</time>
      </trkpt>
      <trkpt lat="49.72668" lon="2.38157">
        <ele>137.1</ele>
        <time>2022-10-05T12:50:01Z</time>
      </trkpt>
      <trkpt lat="49.72667" lon="2.38156">
        <ele>137.1</ele>
        <time>2022-10-05T12:50:02Z</time>
      </trkpt>
      <trkpt lat="49.72666" lon="2.38157">
        <ele>137.1</ele>
        <time>2022-10-05T12:50:03Z</time>
      </trkpt>
      <trkpt lat="49.72665" lon="2.38157">
        <ele>137.1</ele>
        <time>2022-10-05T12:50:04Z</time>
      </trkpt>
      <trkpt lat="49.72662" lon="2.38157">
        <ele>137.1</ele>
        <time>2022-10-05T12:50:05Z</time>
      </trkpt>
      <trkpt lat="49.72661" lon="2.38158">
        <ele>137.1</ele>
        <time>2022-10-05T12:50:06Z</time>
      </trkpt>
      <trkpt lat="49.7266" lon="2.38158">
        <ele>137.1</ele>
        <time>2022-10-05T12:50:07Z</time>
      </trkpt>
      <trkpt lat="49.72659" lon="2.38158">
        <ele>137.1</ele>
        <time>2022-10-05T12:50:08Z</time>
      </trkpt>
      <trkpt lat="49.72658" lon="2.38158">
        <ele>137.1</ele>
        <time>2022-10-05T12:50:10Z</time>
      </trkpt>
      <trkpt lat="49.72656" lon="2.38158">
        <ele>137.1</ele>
        <time>2022-10-05T12:50:11Z</time>
      </trkpt>
      <trkpt lat="49.72655" lon="2.38158">
        <ele>137.1</ele>
        <time>2022-10-05T12:50:12Z</time>
      </trkpt>
      <trkpt lat="49.72654" lon="2.38159">
        <ele>137.1</ele>
        <time>2022-10-05T12:50:13Z</time>
      </trkpt>
      <trkpt lat="49.72653" lon="2.38159">
        <ele>137.1</ele>
        <time>2022-10-05T12:50:14Z</time>
      </trkpt>
      <trkpt lat="49.72652" lon="2.38159">
        <ele>137.1</ele>
        <time>2022-10-05T12:50:15Z</time>
      </trkpt>
      <trkpt lat="49.72651" lon="2.38159">
        <ele>137.1</ele>
        <time>2022-10-05T12:50:16Z</time>
      </trkpt>
      <trkpt lat="49.7265" lon="2.3816">
        <ele>137.1</ele>
        <time>2022-10-05T12:50:17Z</time>
      </trkpt>
      <trkpt lat="49.72649" lon="2.3816">
        <ele>137.1</ele>
        <time>2022-10-05T12:50:18Z</time>
      </trkpt>
      <trkpt lat="49.72647" lon="2.3816">
        <ele>137.2</ele>
        <time>2022-10-05T12:50:19Z</time>
      </trkpt>
      <trkpt lat="49.72645" lon="2.38161">
        <ele>137.2</ele>
        <time>2022-10-05T12:50:20Z</time>
      </trkpt>
      <trkpt lat="49.72644" lon="2.38162">
        <ele>137.2</ele>
        <time>2022-10-05T12:50:21Z</time>
      </trkpt>
      <trkpt lat="49.72643" lon="2.38162">
        <ele>137.2</ele>
        <time>2022-10-05T12:50:22Z</time>
      </trkpt>
      <trkpt lat="49.72642" lon="2.38163">
        <ele>137.2</ele>
        <time>2022-10-05T12:50:23Z</time>
      </trkpt>
      <trkpt lat="49.72641" lon="2.38163">
        <ele>137.2</ele>
        <time>2022-10-05T12:50:24Z</time>
      </trkpt>
      <trkpt lat="49.72641" lon="2.38163">
        <ele>137.2</ele>
        <time>2022-10-05T12:50:25Z</time>
      </trkpt>
      <trkpt lat="49.72639" lon="2.38163">
        <ele>137.2</ele>
        <time>2022-10-05T12:50:26Z</time>
      </trkpt>
      <trkpt lat="49.72638" lon="2.38163">
        <ele>137.2</ele>
        <time>2022-10-05T12:50:28Z</time>
      </trkpt>
      <trkpt lat="49.72637" lon="2.38164">
        <ele>137.2</ele>
        <time>2022-10-05T12:50:29Z</time>
      </trkpt>
      <trkpt lat="49.72634" lon="2.38164">
        <ele>137.2</ele>
        <time>2022-10-05T12:50:30Z</time>
      </trkpt>
      <trkpt lat="49.72633" lon="2.38164">
        <ele>137.2</ele>
        <time>2022-10-05T12:50:31Z</time>
      </trkpt>
      <trkpt lat="49.72631" lon="2.38165">
        <ele>137.2</ele>
        <time>2022-10-05T12:50:32Z</time>
      </trkpt>
      <trkpt lat="49.7263" lon="2.38165">
        <ele>137.2</ele>
        <time>2022-10-05T12:50:34Z</time>
      </trkpt>
      <trkpt lat="49.72629" lon="2.38165">
        <ele>137.2</ele>
        <time>2022-10-05T12:50:35Z</time>
      </trkpt>
      <trkpt lat="49.72628" lon="2.38166">
        <ele>137.2</ele>
        <time>2022-10-05T12:50:36Z</time>
      </trkpt>
      <trkpt lat="49.72626" lon="2.38167">
        <ele>137.2</ele>
        <time>2022-10-05T12:50:37Z</time>
      </trkpt>
      <trkpt lat="49.72624" lon="2.38168">
        <ele>137.2</ele>
        <time>2022-10-05T12:50:38Z</time>
      </trkpt>
      <trkpt lat="49.72623" lon="2.38169">
        <ele>137.2</ele>
        <time>2022-10-05T12:50:39Z</time>
      </trkpt>
      <trkpt lat="49.72623" lon="2.38169">
        <ele>137.2</ele>
        <time>2022-10-05T12:50:40Z</time>
      </trkpt>
      <trkpt lat="49.72621" lon="2.3817">
        <ele>137.2</ele>
        <time>2022-10-05T12:50:42Z</time>
      </trkpt>
      <trkpt lat="49.7262" lon="2.38171">
        <ele>137.2</ele>
        <time>2022-10-05T12:50:43Z</time>
      </trkpt>
      <trkpt lat="49.72619" lon="2.38171">
        <ele>137.2</ele>
        <time>2022-10-05T12:50:44Z</time>
      </trkpt>
      <trkpt lat="49.72618" lon="2.38171">
        <ele>137.2</ele>
        <time>2022-10-05T12:50:45Z</time>
      </trkpt>
      <trkpt lat="49.72617" lon="2.38171">
        <ele>137.2</ele>
        <time>2022-10-05T12:50:46Z</time>
      </trkpt>
      <trkpt lat="49.72616" lon="2.38172">
        <ele>137.3</ele>
        <time>2022-10-05T12:50:47Z</time>
      </trkpt>
      <trkpt lat="49.72614" lon="2.38172">
        <ele>137.3</ele>
        <time>2022-10-05T12:50:48Z</time>
      </trkpt>
      <trkpt lat="49.72612" lon="2.38173">
        <ele>137.3</ele>
        <time>2022-10-05T12:50:49Z</time>
      </trkpt>
      <trkpt lat="49.72611" lon="2.38173">
        <ele>137.3</ele>
        <time>2022-10-05T12:50:50Z</time>
      </trkpt>
      <trkpt lat="49.7261" lon="2.38173">
        <ele>137.3</ele>
        <time>2022-10-05T12:50:51Z</time>
      </trkpt>
      <trkpt lat="49.72609" lon="2.38173">
        <ele>137.3</ele>
        <time>2022-10-05T12:50:53Z</time>
      </trkpt>
      <trkpt lat="49.72608" lon="2.38173">
        <ele>137.3</ele>
        <time>2022-10-05T12:50:54Z</time>
      </trkpt>
      <trkpt lat="49.72607" lon="2.38173">
        <ele>137.3</ele>
        <time>2022-10-05T12:50:55Z</time>
      </trkpt>
      <trkpt lat="49.72606" lon="2.38174">
        <ele>137.3</ele>
        <time>2022-10-05T12:50:56Z</time>
      </trkpt>
      <trkpt lat="49.72604" lon="2.38174">
        <ele>137.3</ele>
        <time>2022-10-05T12:50:57Z</time>
      </trkpt>
      <trkpt lat="49.72603" lon="2.38174">
        <ele>137.3</ele>
        <time>2022-10-05T12:50:58Z</time>
      </trkpt>
      <trkpt lat="49.72602" lon="2.38175">
        <ele>137.3</ele>
        <time>2022-10-05T12:50:59Z</time>
      </trkpt>
      <trkpt lat="49.72601" lon="2.38175">
        <ele>137.4</ele>
        <time>2022-10-05T12:51:00Z</time>
      </trkpt>
      <trkpt lat="49.72599" lon="2.38175">
        <ele>137.4</ele>
        <time>2022-10-05T12:51:01Z</time>
      </trkpt>
      <trkpt lat="49.72598" lon="2.38175">
        <ele>137.4</ele>
        <time>2022-10-05T12:51:02Z</time>
      </trkpt>
      <trkpt lat="49.72596" lon="2.38175">
        <ele>137.4</ele>
        <time>2022-10-05T12:51:03Z</time>
      </trkpt>
      <trkpt lat="49.72595" lon="2.38175">
        <ele>137.4</ele>
        <time>2022-10-05T12:51:04Z</time>
      </trkpt>
      <trkpt lat="49.72594" lon="2.38175">
        <ele>137.4</ele>
        <time>2022-10-05T12:51:06Z</time>
      </trkpt>
      <trkpt lat="49.72593" lon="2.38175">
        <ele>137.4</ele>
        <time>2022-10-05T12:51:07Z</time>
      </trkpt>
      <trkpt lat="49.72592" lon="2.38175">
        <ele>137.4</ele>
        <time>2022-10-05T12:51:08Z</time>
      </trkpt>
      <trkpt lat="49.72591" lon="2.38174">
        <ele>137.4</ele>
        <time>2022-10-05T12:51:09Z</time>
      </trkpt>
      <trkpt lat="49.72589" lon="2.38174">
        <ele>137.4</ele>
        <time>2022-10-05T12:51:10Z</time>
      </trkpt>
      <trkpt lat="49.72588" lon="2.38175">
        <ele>137.4</ele>
        <time>2022-10-05T12:51:11Z</time>
      </trkpt>
      <trkpt lat="49.72586" lon="2.38175">
        <ele>137.4</ele>
        <time>2022-10-05T12:51:12Z</time>
      </trkpt>
      <trkpt lat="49.72584" lon="2.38175">
        <ele>137.4</ele>
        <time>2022-10-05T12:51:13Z</time>
      </trkpt>
      <trkpt lat="49.72583" lon="2.38175">
        <ele>137.4</ele>
        <time>2022-10-05T12:51:15Z</time>
      </trkpt>
      <trkpt lat="49.72582" lon="2.38176">
        <ele>137.4</ele>
        <time>2022-10-05T12:51:16Z</time>
      </trkpt>
      <trkpt lat="49.72581" lon="2.38176">
        <ele>137.5</ele>
        <time>2022-10-05T12:51:17Z</time>
      </trkpt>
      <trkpt lat="49.7258" lon="2.38176">
        <ele>137.5</ele>
        <time>2022-10-05T12:51:18Z</time>
      </trkpt>
      <trkpt lat="49.72579" lon="2.38177">
        <ele>137.5</ele>
        <time>2022-10-05T12:51:19Z</time>
      </trkpt>
      <trkpt lat="49.72578" lon="2.38177">
        <ele>137.5</ele>
        <time>2022-10-05T12:51:20Z</time>
      </trkpt>
      <trkpt lat="49.72576" lon="2.38178">
        <ele>137.5</ele>
        <time>2022-10-05T12:51:21Z</time>
      </trkpt>
      <trkpt lat="49.72575" lon="2.38178">
        <ele>137.5</ele>
        <time>2022-10-05T12:51:22Z</time>
      </trkpt>
      <trkpt lat="49.72574" lon="2.38178">
        <ele>137.5</ele>
        <time>2022-10-05T12:51:24Z</time>
      </trkpt>
      <trkpt lat="49.72573" lon="2.38178">
        <ele>137.5</ele>
        <time>2022-10-05T12:51:25Z</time>
      </trkpt>
      <trkpt lat="49.72572" lon="2.38178">
        <ele>137.5</ele>
        <time>2022-10-05T12:51:26Z</time>
      </trkpt>
      <trkpt lat="49.7257" lon="2.38179">
        <ele>137.5</ele>
        <time>2022-10-05T12:51:27Z</time>
      </trkpt>
      <trkpt lat="49.72568" lon="2.38179">
        <ele>137.5</ele>
        <time>2022-10-05T12:51:28Z</time>
      </trkpt>
      <trkpt lat="49.72568" lon="2.3818">
        <ele>137.5</ele>
        <time>2022-10-05T12:51:29Z</time>
      </trkpt>
      <trkpt lat="49.72566" lon="2.38181">
        <ele>137.5</ele>
        <time>2022-10-05T12:51:30Z</time>
      </trkpt>
      <trkpt lat="49.72564" lon="2.38181">
        <ele>137.5</ele>
        <time>2022-10-05T12:51:32Z</time>
      </trkpt>
      <trkpt lat="49.72563" lon="2.38182">
        <ele>137.6</ele>
        <time>2022-10-05T12:51:33Z</time>
      </trkpt>
      <trkpt lat="49.72562" lon="2.38182">
        <ele>137.6</ele>
        <time>2022-10-05T12:51:34Z</time>
      </trkpt>
      <trkpt lat="49.72561" lon="2.38183">
        <ele>137.6</ele>
        <time>2022-10-05T12:51:35Z</time>
      </trkpt>
      <trkpt lat="49.72559" lon="2.38183">
        <ele>137.6</ele>
        <time>2022-10-05T12:51:36Z</time>
      </trkpt>
      <trkpt lat="49.72558" lon="2.38184">
        <ele>137.6</ele>
        <time>2022-10-05T12:51:37Z</time>
      </trkpt>
      <trkpt lat="49.72557" lon="2.38185">
        <ele>137.6</ele>
        <time>2022-10-05T12:51:38Z</time>
      </trkpt>
      <trkpt lat="49.72556" lon="2.38185">
        <ele>137.6</ele>
        <time>2022-10-05T12:51:39Z</time>
      </trkpt>
      <trkpt lat="49.72554" lon="2.38186">
        <ele>137.6</ele>
        <time>2022-10-05T12:51:40Z</time>
      </trkpt>
      <trkpt lat="49.72553" lon="2.38186">
        <ele>137.6</ele>
        <time>2022-10-05T12:51:41Z</time>
      </trkpt>
      <trkpt lat="49.72551" lon="2.38187">
        <ele>137.6</ele>
        <time>2022-10-05T12:51:43Z</time>
      </trkpt>
      <trkpt lat="49.7255" lon="2.38187">
        <ele>137.6</ele>
        <time>2022-10-05T12:51:44Z</time>
      </trkpt>
      <trkpt lat="49.72549" lon="2.38187">
        <ele>137.6</ele>
        <time>2022-10-05T12:51:45Z</time>
      </trkpt>
      <trkpt lat="49.72548" lon="2.38188">
        <ele>137.7</ele>
        <time>2022-10-05T12:51:46Z</time>
      </trkpt>
      <trkpt lat="49.72547" lon="2.38188">
        <ele>137.7</ele>
        <time>2022-10-05T12:51:47Z</time>
      </trkpt>
      <trkpt lat="49.72545" lon="2.38189">
        <ele>137.7</ele>
        <time>2022-10-05T12:51:49Z</time>
      </trkpt>
      <trkpt lat="49.72544" lon="2.38189">
        <ele>137.7</ele>
        <time>2022-10-05T12:51:50Z</time>
      </trkpt>
      <trkpt lat="49.72542" lon="2.38189">
        <ele>137.7</ele>
        <time>2022-10-05T12:51:51Z</time>
      </trkpt>
      <trkpt lat="49.7254" lon="2.3819">
        <ele>137.7</ele>
        <time>2022-10-05T12:51:52Z</time>
      </trkpt>
      <trkpt lat="49.72539" lon="2.3819">
        <ele>137.7</ele>
        <time>2022-10-05T12:51:53Z</time>
      </trkpt>
      <trkpt lat="49.72538" lon="2.3819">
        <ele>137.7</ele>
        <time>2022-10-05T12:51:54Z</time>
      </trkpt>
      <trkpt lat="49.72536" lon="2.38191">
        <ele>137.7</ele>
        <time>2022-10-05T12:51:56Z</time>
      </trkpt>
      <trkpt lat="49.72535" lon="2.38191">
        <ele>137.7</ele>
        <time>2022-10-05T12:51:57Z</time>
      </trkpt>
      <trkpt lat="49.72534" lon="2.38192">
        <ele>137.7</ele>
        <time>2022-10-05T12:51:58Z</time>
      </trkpt>
      <trkpt lat="49.72533" lon="2.38192">
        <ele>137.8</ele>
        <time>2022-10-05T12:51:59Z</time>
      </trkpt>
      <trkpt lat="49.72532" lon="2.38193">
        <ele>137.8</ele>
        <time>2022-10-05T12:52:00Z</time>
      </trkpt>
      <trkpt lat="49.72531" lon="2.38194">
        <ele>137.8</ele>
        <time>2022-10-05T12:52:01Z</time>
      </trkpt>
      <trkpt lat="49.7253" lon="2.38194">
        <ele>137.8</ele>
        <time>2022-10-05T12:52:02Z</time>
      </trkpt>
      <trkpt lat="49.72528" lon="2.38194">
        <ele>137.8</ele>
        <time>2022-10-05T12:52:03Z</time>
      </trkpt>
      <trkpt lat="49.72527" lon="2.38194">
        <ele>137.8</ele>
        <time>2022-10-05T12:52:04Z</time>
      </trkpt>
      <trkpt lat="49.72526" lon="2.38195">
        <ele>137.8</ele>
        <time>2022-10-05T12:52:05Z</time>
      </trkpt>
      <trkpt lat="49.72524" lon="2.38195">
        <ele>137.8</ele>
        <time>2022-10-05T12:52:06Z</time>
      </trkpt>
      <trkpt lat="49.72523" lon="2.38195">
        <ele>137.8</ele>
        <time>2022-10-05T12:52:08Z</time>
      </trkpt>
      <trkpt lat="49.72522" lon="2.38195">
        <ele>137.8</ele>
        <time>2022-10-05T12:52:09Z</time>
      </trkpt>
      <trkpt lat="49.72521" lon="2.38195">
        <ele>137.8</ele>
        <time>2022-10-05T12:52:10Z</time>
      </trkpt>
      <trkpt lat="49.7252" lon="2.38195">
        <ele>137.8</ele>
        <time>2022-10-05T12:52:11Z</time>
      </trkpt>
      <trkpt lat="49.72518" lon="2.38195">
        <ele>137.8</ele>
        <time>2022-10-05T12:52:12Z</time>
      </trkpt>
      <trkpt lat="49.72517" lon="2.38195">
        <ele>137.8</ele>
        <time>2022-10-05T12:52:13Z</time>
      </trkpt>
      <trkpt lat="49.72516" lon="2.38195">
        <ele>137.8</ele>
        <time>2022-10-05T12:52:14Z</time>
      </trkpt>
      <trkpt lat="49.72514" lon="2.38195">
        <ele>137.8</ele>
        <time>2022-10-05T12:52:16Z</time>
      </trkpt>
      <trkpt lat="49.72513" lon="2.38195">
        <ele>137.8</ele>
        <time>2022-10-05T12:52:17Z</time>
      </trkpt>
      <trkpt lat="49.72511" lon="2.38195">
        <ele>137.9</ele>
        <time>2022-10-05T12:52:18Z</time>
      </trkpt>
      <trkpt lat="49.72509" lon="2.38196">
        <ele>137.9</ele>
        <time>2022-10-05T12:52:20Z</time>
      </trkpt>
      <trkpt lat="49.72507" lon="2.38196">
        <ele>137.9</ele>
        <time>2022-10-05T12:52:21Z</time>
      </trkpt>
      <trkpt lat="49.72506" lon="2.38197">
        <ele>137.9</ele>
        <time>2022-10-05T12:52:22Z</time>
      </trkpt>
      <trkpt lat="49.72505" lon="2.38197">
        <ele>137.9</ele>
        <time>2022-10-05T12:52:23Z</time>
      </trkpt>
      <trkpt lat="49.72503" lon="2.38198">
        <ele>137.9</ele>
        <time>2022-10-05T12:52:24Z</time>
      </trkpt>
      <trkpt lat="49.72503" lon="2.38199">
        <ele>137.9</ele>
        <time>2022-10-05T12:52:25Z</time>
      </trkpt>
      <trkpt lat="49.72502" lon="2.38199">
        <ele>137.9</ele>
        <time>2022-10-05T12:52:26Z</time>
      </trkpt>
      <trkpt lat="49.72501" lon="2.382">
        <ele>137.9</ele>
        <time>2022-10-05T12:52:27Z</time>
      </trkpt>
      <trkpt lat="49.725" lon="2.382">
        <ele>137.9</ele>
        <time>2022-10-05T12:52:28Z</time>
      </trkpt>
      <trkpt lat="49.72499" lon="2.38201">
        <ele>137.9</ele>
        <time>2022-10-05T12:52:29Z</time>
      </trkpt>
      <trkpt lat="49.72497" lon="2.38202">
        <ele>137.9</ele>
        <time>2022-10-05T12:52:30Z</time>
      </trkpt>
      <trkpt lat="49.72496" lon="2.38202">
        <ele>137.9</ele>
        <time>2022-10-05T12:52:31Z</time>
      </trkpt>
      <trkpt lat="49.72494" lon="2.38204">
        <ele>137.9</ele>
        <time>2022-10-05T12:52:32Z</time>
      </trkpt>
      <trkpt lat="49.72493" lon="2.38204">
        <ele>137.9</ele>
        <time>2022-10-05T12:52:34Z</time>
      </trkpt>
      <trkpt lat="49.72492" lon="2.38205">
        <ele>137.9</ele>
        <time>2022-10-05T12:52:35Z</time>
      </trkpt>
      <trkpt lat="49.72491" lon="2.38206">
        <ele>137.9</ele>
        <time>2022-10-05T12:52:36Z</time>
      </trkpt>
      <trkpt lat="49.7249" lon="2.38207">
        <ele>138</ele>
        <time>2022-10-05T12:52:37Z</time>
      </trkpt>
      <trkpt lat="49.72489" lon="2.38208">
        <ele>138</ele>
        <time>2022-10-05T12:52:38Z</time>
      </trkpt>
      <trkpt lat="49.72488" lon="2.38208">
        <ele>138</ele>
        <time>2022-10-05T12:52:39Z</time>
      </trkpt>
      <trkpt lat="49.72487" lon="2.38209">
        <ele>138</ele>
        <time>2022-10-05T12:52:40Z</time>
      </trkpt>
      <trkpt lat="49.72485" lon="2.38211">
        <ele>138</ele>
        <time>2022-10-05T12:52:41Z</time>
      </trkpt>
      <trkpt lat="49.72484" lon="2.38212">
        <ele>138</ele>
        <time>2022-10-05T12:52:42Z</time>
      </trkpt>
      <trkpt lat="49.72483" lon="2.38213">
        <ele>138</ele>
        <time>2022-10-05T12:52:43Z</time>
      </trkpt>
      <trkpt lat="49.72481" lon="2.38214">
        <ele>138</ele>
        <time>2022-10-05T12:52:45Z</time>
      </trkpt>
      <trkpt lat="49.72481" lon="2.38214">
        <ele>138</ele>
        <time>2022-10-05T12:52:46Z</time>
      </trkpt>
      <trkpt lat="49.7248" lon="2.38214">
        <ele>138</ele>
        <time>2022-10-05T12:52:47Z</time>
      </trkpt>
      <trkpt lat="49.72478" lon="2.38215">
        <ele>138</ele>
        <time>2022-10-05T12:52:48Z</time>
      </trkpt>
      <trkpt lat="49.72477" lon="2.38215">
        <ele>138</ele>
        <time>2022-10-05T12:52:49Z</time>
      </trkpt>
      <trkpt lat="49.72476" lon="2.38215">
        <ele>138</ele>
        <time>2022-10-05T12:52:50Z</time>
      </trkpt>
      <trkpt lat="49.72475" lon="2.38216">
        <ele>138.1</ele>
        <time>2022-10-05T12:52:51Z</time>
      </trkpt>
      <trkpt lat="49.72473" lon="2.38216">
        <ele>138.1</ele>
        <time>2022-10-05T12:52:52Z</time>
      </trkpt>
      <trkpt lat="49.72472" lon="2.38216">
        <ele>138.1</ele>
        <time>2022-10-05T12:52:53Z</time>
      </trkpt>
      <trkpt lat="49.72471" lon="2.38217">
        <ele>138.1</ele>
        <time>2022-10-05T12:52:54Z</time>
      </trkpt>
      <trkpt lat="49.72469" lon="2.38218">
        <ele>138.1</ele>
        <time>2022-10-05T12:52:55Z</time>
      </trkpt>
      <trkpt lat="49.72468" lon="2.38218">
        <ele>138.1</ele>
        <time>2022-10-05T12:52:56Z</time>
      </trkpt>
      <trkpt lat="49.72466" lon="2.38218">
        <ele>138.1</ele>
        <time>2022-10-05T12:52:57Z</time>
      </trkpt>
      <trkpt lat="49.72465" lon="2.38218">
        <ele>138.2</ele>
        <time>2022-10-05T12:52:58Z</time>
      </trkpt>
      <trkpt lat="49.72464" lon="2.38218">
        <ele>138.2</ele>
        <time>2022-10-05T12:52:59Z</time>
      </trkpt>
      <trkpt lat="49.72462" lon="2.38218">
        <ele>138.2</ele>
        <time>2022-10-05T12:53:01Z</time>
      </trkpt>
      <trkpt lat="49.72461" lon="2.38218">
        <ele>138.2</ele>
        <time>2022-10-05T12:53:02Z</time>
      </trkpt>
      <trkpt lat="49.7246" lon="2.38218">
        <ele>138.2</ele>
        <time>2022-10-05T12:53:03Z</time>
      </trkpt>
      <trkpt lat="49.72458" lon="2.38218">
        <ele>138.2</ele>
        <time>2022-10-05T12:53:04Z</time>
      </trkpt>
      <trkpt lat="49.72457" lon="2.38218">
        <ele>138.3</ele>
        <time>2022-10-05T12:53:06Z</time>
      </trkpt>
      <trkpt lat="49.72456" lon="2.38218">
        <ele>138.3</ele>
        <time>2022-10-05T12:53:07Z</time>
      </trkpt>
      <trkpt lat="49.72454" lon="2.38218">
        <ele>138.3</ele>
        <time>2022-10-05T12:53:08Z</time>
      </trkpt>
      <trkpt lat="49.72453" lon="2.38218">
        <ele>138.3</ele>
        <time>2022-10-05T12:53:09Z</time>
      </trkpt>
      <trkpt lat="49.72451" lon="2.38219">
        <ele>138.3</ele>
        <time>2022-10-05T12:53:10Z</time>
      </trkpt>
      <trkpt lat="49.7245" lon="2.38219">
        <ele>138.4</ele>
        <time>2022-10-05T12:53:12Z</time>
      </trkpt>
      <trkpt lat="49.7245" lon="2.38219">
        <ele>138.4</ele>
        <time>2022-10-05T12:53:13Z</time>
      </trkpt>
      <trkpt lat="49.72448" lon="2.38219">
        <ele>138.4</ele>
        <time>2022-10-05T12:53:14Z</time>
      </trkpt>
      <trkpt lat="49.72447" lon="2.38218">
        <ele>138.4</ele>
        <time>2022-10-05T12:53:15Z</time>
      </trkpt>
      <trkpt lat="49.72446" lon="2.38218">
        <ele>138.4</ele>
        <time>2022-10-05T12:53:16Z</time>
      </trkpt>
      <trkpt lat="49.72445" lon="2.38218">
        <ele>138.5</ele>
        <time>2022-10-05T12:53:18Z</time>
      </trkpt>
      <trkpt lat="49.72443" lon="2.38218">
        <ele>138.5</ele>
        <time>2022-10-05T12:53:19Z</time>
      </trkpt>
      <trkpt lat="49.72442" lon="2.38219">
        <ele>138.5</ele>
        <time>2022-10-05T12:53:20Z</time>
      </trkpt>
      <trkpt lat="49.72441" lon="2.38219">
        <ele>138.5</ele>
        <time>2022-10-05T12:53:22Z</time>
      </trkpt>
      <trkpt lat="49.72441" lon="2.38218">
        <ele>138.6</ele>
        <time>2022-10-05T12:53:23Z</time>
      </trkpt>
      <trkpt lat="49.7244" lon="2.38217">
        <ele>138.6</ele>
        <time>2022-10-05T12:53:24Z</time>
      </trkpt>
      <trkpt lat="49.7244" lon="2.38216">
        <ele>138.6</ele>
        <time>2022-10-05T12:53:25Z</time>
      </trkpt>
      <trkpt lat="49.72439" lon="2.38215">
        <ele>138.6</ele>
        <time>2022-10-05T12:53:26Z</time>
      </trkpt>
      <trkpt lat="49.72439" lon="2.38213">
        <ele>138.7</ele>
        <time>2022-10-05T12:53:27Z</time>
      </trkpt>
      <trkpt lat="49.72439" lon="2.38211">
        <ele>138.3</ele>
        <time>2022-10-05T12:53:28Z</time>
      </trkpt>
      <trkpt lat="49.72439" lon="2.38208">
        <ele>138.3</ele>
        <time>2022-10-05T12:53:29Z</time>
      </trkpt>
      <trkpt lat="49.72439" lon="2.38206">
        <ele>138.2</ele>
        <time>2022-10-05T12:53:30Z</time>
      </trkpt>
      <trkpt lat="49.72439" lon="2.38202">
        <ele>138.1</ele>
        <time>2022-10-05T12:53:31Z</time>
      </trkpt>
      <trkpt lat="49.72439" lon="2.382">
        <ele>138.1</ele>
        <time>2022-10-05T12:53:33Z</time>
      </trkpt>
      <trkpt lat="49.72439" lon="2.38198">
        <ele>138</ele>
        <time>2022-10-05T12:53:34Z</time>
      </trkpt>
      <trkpt lat="49.72439" lon="2.38196">
        <ele>138</ele>
        <time>2022-10-05T12:53:35Z</time>
      </trkpt>
      <trkpt lat="49.7244" lon="2.38195">
        <ele>138</ele>
        <time>2022-10-05T12:53:36Z</time>
      </trkpt>
      <trkpt lat="49.7244" lon="2.38192">
        <ele>137.9</ele>
        <time>2022-10-05T12:53:38Z</time>
      </trkpt>
      <trkpt lat="49.72441" lon="2.3819">
        <ele>137.9</ele>
        <time>2022-10-05T12:53:39Z</time>
      </trkpt>
      <trkpt lat="49.72441" lon="2.38187">
        <ele>137.8</ele>
        <time>2022-10-05T12:53:40Z</time>
      </trkpt>
      <trkpt lat="49.72441" lon="2.38185">
        <ele>137.8</ele>
        <time>2022-10-05T12:53:41Z</time>
      </trkpt>
      <trkpt lat="49.72441" lon="2.38184">
        <ele>137.8</ele>
        <time>2022-10-05T12:53:42Z</time>
      </trkpt>
      <trkpt lat="49.72441" lon="2.38181">
        <ele>137.7</ele>
        <time>2022-10-05T12:53:44Z</time>
      </trkpt>
      <trkpt lat="49.72441" lon="2.38179">
        <ele>137.7</ele>
        <time>2022-10-05T12:53:45Z</time>
      </trkpt>
      <trkpt lat="49.72441" lon="2.38175">
        <ele>137.7</ele>
        <time>2022-10-05T12:53:46Z</time>
      </trkpt>
      <trkpt lat="49.72441" lon="2.38174">
        <ele>137.6</ele>
        <time>2022-10-05T12:53:47Z</time>
      </trkpt>
      <trkpt lat="49.72441" lon="2.38173">
        <ele>137.6</ele>
        <time>2022-10-05T12:53:48Z</time>
      </trkpt>
      <trkpt lat="49.72441" lon="2.3817">
        <ele>137.6</ele>
        <time>2022-10-05T12:53:50Z</time>
      </trkpt>
      <trkpt lat="49.72441" lon="2.38167">
        <ele>137.5</ele>
        <time>2022-10-05T12:53:51Z</time>
      </trkpt>
      <trkpt lat="49.72441" lon="2.38165">
        <ele>137.5</ele>
        <time>2022-10-05T12:53:52Z</time>
      </trkpt>
      <trkpt lat="49.72441" lon="2.38163">
        <ele>137.5</ele>
        <time>2022-10-05T12:53:53Z</time>
      </trkpt>
      <trkpt lat="49.72441" lon="2.38159">
        <ele>137.4</ele>
        <time>2022-10-05T12:53:54Z</time>
      </trkpt>
      <trkpt lat="49.72441" lon="2.38158">
        <ele>137.4</ele>
        <time>2022-10-05T12:53:56Z</time>
      </trkpt>
      <trkpt lat="49.72441" lon="2.38156">
        <ele>137.4</ele>
        <time>2022-10-05T12:53:57Z</time>
      </trkpt>
      <trkpt lat="49.72441" lon="2.38154">
        <ele>137.4</ele>
        <time>2022-10-05T12:53:58Z</time>
      </trkpt>
      <trkpt lat="49.72441" lon="2.38153">
        <ele>137.4</ele>
        <time>2022-10-05T12:53:59Z</time>
      </trkpt>
      <trkpt lat="49.72441" lon="2.38152">
        <ele>137.3</ele>
        <time>2022-10-05T12:54:00Z</time>
      </trkpt>
      <trkpt lat="49.72441" lon="2.3815">
        <ele>137.3</ele>
        <time>2022-10-05T12:54:01Z</time>
      </trkpt>
      <trkpt lat="49.72441" lon="2.38148">
        <ele>137.3</ele>
        <time>2022-10-05T12:54:02Z</time>
      </trkpt>
      <trkpt lat="49.72441" lon="2.38146">
        <ele>137.3</ele>
        <time>2022-10-05T12:54:03Z</time>
      </trkpt>
      <trkpt lat="49.72441" lon="2.38144">
        <ele>137.2</ele>
        <time>2022-10-05T12:54:04Z</time>
      </trkpt>
      <trkpt lat="49.72441" lon="2.38141">
        <ele>137.2</ele>
        <time>2022-10-05T12:54:06Z</time>
      </trkpt>
      <trkpt lat="49.72441" lon="2.38139">
        <ele>137.2</ele>
        <time>2022-10-05T12:54:07Z</time>
      </trkpt>
      <trkpt lat="49.72442" lon="2.38135">
        <ele>137.1</ele>
        <time>2022-10-05T12:54:08Z</time>
      </trkpt>
      <trkpt lat="49.72442" lon="2.38134">
        <ele>137.1</ele>
        <time>2022-10-05T12:54:09Z</time>
      </trkpt>
      <trkpt lat="49.72442" lon="2.38133">
        <ele>137.1</ele>
        <time>2022-10-05T12:54:10Z</time>
      </trkpt>
      <trkpt lat="49.72442" lon="2.38131">
        <ele>137.1</ele>
        <time>2022-10-05T12:54:11Z</time>
      </trkpt>
      <trkpt lat="49.72443" lon="2.38129">
        <ele>137.1</ele>
        <time>2022-10-05T12:54:12Z</time>
      </trkpt>
      <trkpt lat="49.72443" lon="2.38126">
        <ele>137</ele>
        <time>2022-10-05T12:54:14Z</time>
      </trkpt>
      <trkpt lat="49.72443" lon="2.38124">
        <ele>137</ele>
        <time>2022-10-05T12:54:15Z</time>
      </trkpt>
      <trkpt lat="49.72443" lon="2.38122">
        <ele>137</ele>
        <time>2022-10-05T12:54:16Z</time>
      </trkpt>
      <trkpt lat="49.72443" lon="2.3812">
        <ele>136.9</ele>
        <time>2022-10-05T12:54:17Z</time>
      </trkpt>
      <trkpt lat="49.72444" lon="2.38117">
        <ele>136.9</ele>
        <time>2022-10-05T12:54:18Z</time>
      </trkpt>
      <trkpt lat="49.72444" lon="2.38115">
        <ele>136.9</ele>
        <time>2022-10-05T12:54:19Z</time>
      </trkpt>
      <trkpt lat="49.72444" lon="2.38112">
        <ele>136.8</ele>
        <time>2022-10-05T12:54:21Z</time>
      </trkpt>
      <trkpt lat="49.72444" lon="2.3811">
        <ele>136.8</ele>
        <time>2022-10-05T12:54:22Z</time>
      </trkpt>
      <trkpt lat="49.72444" lon="2.38108">
        <ele>136.8</ele>
        <time>2022-10-05T12:54:23Z</time>
      </trkpt>
      <trkpt lat="49.72444" lon="2.38107">
        <ele>136.8</ele>
        <time>2022-10-05T12:54:24Z</time>
      </trkpt>
      <trkpt lat="49.72444" lon="2.38106">
        <ele>136.7</ele>
        <time>2022-10-05T12:54:25Z</time>
      </trkpt>
      <trkpt lat="49.72444" lon="2.38104">
        <ele>136.7</ele>
        <time>2022-10-05T12:54:26Z</time>
      </trkpt>
      <trkpt lat="49.72444" lon="2.38102">
        <ele>136.7</ele>
        <time>2022-10-05T12:54:27Z</time>
      </trkpt>
      <trkpt lat="49.72444" lon="2.381">
        <ele>136.7</ele>
        <time>2022-10-05T12:54:28Z</time>
      </trkpt>
      <trkpt lat="49.72444" lon="2.38098">
        <ele>136.6</ele>
        <time>2022-10-05T12:54:29Z</time>
      </trkpt>
      <trkpt lat="49.72444" lon="2.38096">
        <ele>136.6</ele>
        <time>2022-10-05T12:54:30Z</time>
      </trkpt>
      <trkpt lat="49.72444" lon="2.38095">
        <ele>136.6</ele>
        <time>2022-10-05T12:54:31Z</time>
      </trkpt>
      <trkpt lat="49.72444" lon="2.38093">
        <ele>136.6</ele>
        <time>2022-10-05T12:54:33Z</time>
      </trkpt>
      <trkpt lat="49.72443" lon="2.38092">
        <ele>136.5</ele>
        <time>2022-10-05T12:54:34Z</time>
      </trkpt>
      <trkpt lat="49.72443" lon="2.3809">
        <ele>136.5</ele>
        <time>2022-10-05T12:54:35Z</time>
      </trkpt>
      <trkpt lat="49.72443" lon="2.38087">
        <ele>136.5</ele>
        <time>2022-10-05T12:54:36Z</time>
      </trkpt>
      <trkpt lat="49.72444" lon="2.38086">
        <ele>136.5</ele>
        <time>2022-10-05T12:54:37Z</time>
      </trkpt>
      <trkpt lat="49.72444" lon="2.38084">
        <ele>136.4</ele>
        <time>2022-10-05T12:54:38Z</time>
      </trkpt>
      <trkpt lat="49.72444" lon="2.38082">
        <ele>136.4</ele>
        <time>2022-10-05T12:54:39Z</time>
      </trkpt>
      <trkpt lat="49.72444" lon="2.38079">
        <ele>136.4</ele>
        <time>2022-10-05T12:54:41Z</time>
      </trkpt>
      <trkpt lat="49.72444" lon="2.38077">
        <ele>136.3</ele>
        <time>2022-10-05T12:54:42Z</time>
      </trkpt>
      <trkpt lat="49.72444" lon="2.38075">
        <ele>136.3</ele>
        <time>2022-10-05T12:54:43Z</time>
      </trkpt>
      <trkpt lat="49.72444" lon="2.38072">
        <ele>136.2</ele>
        <time>2022-10-05T12:54:45Z</time>
      </trkpt>
      <trkpt lat="49.72444" lon="2.3807">
        <ele>136.2</ele>
        <time>2022-10-05T12:54:46Z</time>
      </trkpt>
      <trkpt lat="49.72444" lon="2.38068">
        <ele>136.2</ele>
        <time>2022-10-05T12:54:47Z</time>
      </trkpt>
      <trkpt lat="49.72444" lon="2.38066">
        <ele>136.2</ele>
        <time>2022-10-05T12:54:48Z</time>
      </trkpt>
      <trkpt lat="49.72444" lon="2.38065">
        <ele>136.1</ele>
        <time>2022-10-05T12:54:49Z</time>
      </trkpt>
      <trkpt lat="49.72445" lon="2.38061">
        <ele>136.1</ele>
        <time>2022-10-05T12:54:50Z</time>
      </trkpt>
      <trkpt lat="49.72445" lon="2.38059">
        <ele>136</ele>
        <time>2022-10-05T12:54:52Z</time>
      </trkpt>
      <trkpt lat="49.72445" lon="2.38057">
        <ele>136</ele>
        <time>2022-10-05T12:54:53Z</time>
      </trkpt>
      <trkpt lat="49.72445" lon="2.38055">
        <ele>136</ele>
        <time>2022-10-05T12:54:54Z</time>
      </trkpt>
      <trkpt lat="49.72445" lon="2.38054">
        <ele>136</ele>
        <time>2022-10-05T12:54:55Z</time>
      </trkpt>
      <trkpt lat="49.72445" lon="2.3805">
        <ele>135.9</ele>
        <time>2022-10-05T12:54:56Z</time>
      </trkpt>
      <trkpt lat="49.72445" lon="2.38049">
        <ele>135.9</ele>
        <time>2022-10-05T12:54:57Z</time>
      </trkpt>
      <trkpt lat="49.72446" lon="2.38047">
        <ele>135.9</ele>
        <time>2022-10-05T12:54:59Z</time>
      </trkpt>
      <trkpt lat="49.72446" lon="2.38045">
        <ele>135.8</ele>
        <time>2022-10-05T12:55:00Z</time>
      </trkpt>
      <trkpt lat="49.72445" lon="2.38042">
        <ele>135.8</ele>
        <time>2022-10-05T12:55:01Z</time>
      </trkpt>
      <trkpt lat="49.72445" lon="2.3804">
        <ele>135.8</ele>
        <time>2022-10-05T12:55:02Z</time>
      </trkpt>
      <trkpt lat="49.72446" lon="2.38039">
        <ele>135.7</ele>
        <time>2022-10-05T12:55:03Z</time>
      </trkpt>
      <trkpt lat="49.72446" lon="2.38036">
        <ele>135.7</ele>
        <time>2022-10-05T12:55:04Z</time>
      </trkpt>
      <trkpt lat="49.72446" lon="2.38034">
        <ele>135.7</ele>
        <time>2022-10-05T12:55:06Z</time>
      </trkpt>
      <trkpt lat="49.72446" lon="2.38033">
        <ele>135.6</ele>
        <time>2022-10-05T12:55:07Z</time>
      </trkpt>
      <trkpt lat="49.72446" lon="2.38031">
        <ele>135.6</ele>
        <time>2022-10-05T12:55:08Z</time>
      </trkpt>
      <trkpt lat="49.72446" lon="2.38028">
        <ele>135.6</ele>
        <time>2022-10-05T12:55:09Z</time>
      </trkpt>
      <trkpt lat="49.72446" lon="2.38027">
        <ele>135.5</ele>
        <time>2022-10-05T12:55:10Z</time>
      </trkpt>
      <trkpt lat="49.72446" lon="2.38026">
        <ele>135.5</ele>
        <time>2022-10-05T12:55:11Z</time>
      </trkpt>
      <trkpt lat="49.72447" lon="2.38024">
        <ele>135.5</ele>
        <time>2022-10-05T12:55:12Z</time>
      </trkpt>
      <trkpt lat="49.72447" lon="2.38021">
        <ele>135.4</ele>
        <time>2022-10-05T12:55:13Z</time>
      </trkpt>
      <trkpt lat="49.72447" lon="2.38019">
        <ele>135.4</ele>
        <time>2022-10-05T12:55:14Z</time>
      </trkpt>
      <trkpt lat="49.72447" lon="2.38017">
        <ele>135.4</ele>
        <time>2022-10-05T12:55:16Z</time>
      </trkpt>
      <trkpt lat="49.72447" lon="2.38015">
        <ele>135.3</ele>
        <time>2022-10-05T12:55:17Z</time>
      </trkpt>
      <trkpt lat="49.72447" lon="2.38013">
        <ele>135.3</ele>
        <time>2022-10-05T12:55:18Z</time>
      </trkpt>
      <trkpt lat="49.72448" lon="2.3801">
        <ele>135.2</ele>
        <time>2022-10-05T12:55:19Z</time>
      </trkpt>
      <trkpt lat="49.72448" lon="2.38008">
        <ele>135.2</ele>
        <time>2022-10-05T12:55:20Z</time>
      </trkpt>
      <trkpt lat="49.72448" lon="2.38006">
        <ele>135.2</ele>
        <time>2022-10-05T12:55:21Z</time>
      </trkpt>
      <trkpt lat="49.72448" lon="2.38004">
        <ele>135.1</ele>
        <time>2022-10-05T12:55:22Z</time>
      </trkpt>
      <trkpt lat="49.72448" lon="2.38002">
        <ele>135.1</ele>
        <time>2022-10-05T12:55:23Z</time>
      </trkpt>
      <trkpt lat="49.72447" lon="2.37998">
        <ele>135</ele>
        <time>2022-10-05T12:55:25Z</time>
      </trkpt>
      <trkpt lat="49.72447" lon="2.37997">
        <ele>135</ele>
        <time>2022-10-05T12:55:26Z</time>
      </trkpt>
      <trkpt lat="49.72447" lon="2.37995">
        <ele>135</ele>
        <time>2022-10-05T12:55:27Z</time>
      </trkpt>
      <trkpt lat="49.72448" lon="2.37991">
        <ele>134.9</ele>
        <time>2022-10-05T12:55:28Z</time>
      </trkpt>
      <trkpt lat="49.72448" lon="2.37989">
        <ele>134.9</ele>
        <time>2022-10-05T12:55:29Z</time>
      </trkpt>
      <trkpt lat="49.72448" lon="2.37987">
        <ele>134.8</ele>
        <time>2022-10-05T12:55:30Z</time>
      </trkpt>
      <trkpt lat="49.72448" lon="2.37985">
        <ele>134.8</ele>
        <time>2022-10-05T12:55:31Z</time>
      </trkpt>
      <trkpt lat="49.72448" lon="2.37983">
        <ele>134.8</ele>
        <time>2022-10-05T12:55:33Z</time>
      </trkpt>
      <trkpt lat="49.72448" lon="2.37981">
        <ele>134.7</ele>
        <time>2022-10-05T12:55:34Z</time>
      </trkpt>
      <trkpt lat="49.72449" lon="2.37981">
        <ele>134.7</ele>
        <time>2022-10-05T12:55:35Z</time>
      </trkpt>
      <trkpt lat="49.72449" lon="2.3798">
        <ele>134.7</ele>
        <time>2022-10-05T12:55:36Z</time>
      </trkpt>
      <trkpt lat="49.72449" lon="2.37978">
        <ele>134.7</ele>
        <time>2022-10-05T12:55:37Z</time>
      </trkpt>
      <trkpt lat="49.7245" lon="2.37976">
        <ele>134.7</ele>
        <time>2022-10-05T12:55:38Z</time>
      </trkpt>
      <trkpt lat="49.7245" lon="2.37974">
        <ele>134.6</ele>
        <time>2022-10-05T12:55:39Z</time>
      </trkpt>
      <trkpt lat="49.7245" lon="2.37971">
        <ele>134.6</ele>
        <time>2022-10-05T12:55:40Z</time>
      </trkpt>
      <trkpt lat="49.72451" lon="2.37969">
        <ele>134.5</ele>
        <time>2022-10-05T12:55:42Z</time>
      </trkpt>
      <trkpt lat="49.72451" lon="2.37967">
        <ele>134.5</ele>
        <time>2022-10-05T12:55:43Z</time>
      </trkpt>
      <trkpt lat="49.72451" lon="2.37965">
        <ele>134.5</ele>
        <time>2022-10-05T12:55:44Z</time>
      </trkpt>
      <trkpt lat="49.72451" lon="2.37962">
        <ele>134.4</ele>
        <time>2022-10-05T12:55:45Z</time>
      </trkpt>
      <trkpt lat="49.72451" lon="2.3796">
        <ele>134.4</ele>
        <time>2022-10-05T12:55:46Z</time>
      </trkpt>
      <trkpt lat="49.72451" lon="2.37957">
        <ele>134.4</ele>
        <time>2022-10-05T12:55:48Z</time>
      </trkpt>
      <trkpt lat="49.72451" lon="2.37955">
        <ele>134.3</ele>
        <time>2022-10-05T12:55:49Z</time>
      </trkpt>
      <trkpt lat="49.72451" lon="2.37953">
        <ele>134.3</ele>
        <time>2022-10-05T12:55:50Z</time>
      </trkpt>
      <trkpt lat="49.72451" lon="2.37951">
        <ele>134.3</ele>
        <time>2022-10-05T12:55:51Z</time>
      </trkpt>
      <trkpt lat="49.72451" lon="2.37949">
        <ele>134.2</ele>
        <time>2022-10-05T12:55:52Z</time>
      </trkpt>
      <trkpt lat="49.72451" lon="2.37947">
        <ele>134.2</ele>
        <time>2022-10-05T12:55:53Z</time>
      </trkpt>
      <trkpt lat="49.7245" lon="2.37944">
        <ele>134.2</ele>
        <time>2022-10-05T12:55:55Z</time>
      </trkpt>
      <trkpt lat="49.72451" lon="2.37942">
        <ele>134.1</ele>
        <time>2022-10-05T12:55:56Z</time>
      </trkpt>
      <trkpt lat="49.72451" lon="2.3794">
        <ele>134.1</ele>
        <time>2022-10-05T12:55:57Z</time>
      </trkpt>
      <trkpt lat="49.72451" lon="2.37937">
        <ele>134.1</ele>
        <time>2022-10-05T12:55:58Z</time>
      </trkpt>
      <trkpt lat="49.72451" lon="2.37934">
        <ele>134.1</ele>
        <time>2022-10-05T12:55:59Z</time>
      </trkpt>
      <trkpt lat="49.72451" lon="2.37933">
        <ele>134</ele>
        <time>2022-10-05T12:56:00Z</time>
      </trkpt>
      <trkpt lat="49.72451" lon="2.37932">
        <ele>134</ele>
        <time>2022-10-05T12:56:01Z</time>
      </trkpt>
      <trkpt lat="49.72451" lon="2.3793">
        <ele>134</ele>
        <time>2022-10-05T12:56:02Z</time>
      </trkpt>
      <trkpt lat="49.72451" lon="2.37927">
        <ele>134</ele>
        <time>2022-10-05T12:56:03Z</time>
      </trkpt>
      <trkpt lat="49.72451" lon="2.37922">
        <ele>133.9</ele>
        <time>2022-10-05T12:56:05Z</time>
      </trkpt>
      <trkpt lat="49.72451" lon="2.37921">
        <ele>133.9</ele>
        <time>2022-10-05T12:56:06Z</time>
      </trkpt>
      <trkpt lat="49.72451" lon="2.37919">
        <ele>133.9</ele>
        <time>2022-10-05T12:56:07Z</time>
      </trkpt>
      <trkpt lat="49.72451" lon="2.37917">
        <ele>133.9</ele>
        <time>2022-10-05T12:56:08Z</time>
      </trkpt>
      <trkpt lat="49.72451" lon="2.37914">
        <ele>133.9</ele>
        <time>2022-10-05T12:56:10Z</time>
      </trkpt>
      <trkpt lat="49.72452" lon="2.37912">
        <ele>133.8</ele>
        <time>2022-10-05T12:56:11Z</time>
      </trkpt>
      <trkpt lat="49.72452" lon="2.3791">
        <ele>133.8</ele>
        <time>2022-10-05T12:56:12Z</time>
      </trkpt>
      <trkpt lat="49.72452" lon="2.37909">
        <ele>133.8</ele>
        <time>2022-10-05T12:56:13Z</time>
      </trkpt>
      <trkpt lat="49.72452" lon="2.37908">
        <ele>133.8</ele>
        <time>2022-10-05T12:56:14Z</time>
      </trkpt>
      <trkpt lat="49.72452" lon="2.37907">
        <ele>133.8</ele>
        <time>2022-10-05T12:56:15Z</time>
      </trkpt>
      <trkpt lat="49.72452" lon="2.37905">
        <ele>133.8</ele>
        <time>2022-10-05T12:56:16Z</time>
      </trkpt>
      <trkpt lat="49.72452" lon="2.37902">
        <ele>133.8</ele>
        <time>2022-10-05T12:56:18Z</time>
      </trkpt>
      <trkpt lat="49.72452" lon="2.37899">
        <ele>133.7</ele>
        <time>2022-10-05T12:56:19Z</time>
      </trkpt>
      <trkpt lat="49.72452" lon="2.37897">
        <ele>133.7</ele>
        <time>2022-10-05T12:56:20Z</time>
      </trkpt>
      <trkpt lat="49.72452" lon="2.37895">
        <ele>133.7</ele>
        <time>2022-10-05T12:56:21Z</time>
      </trkpt>
      <trkpt lat="49.72452" lon="2.37893">
        <ele>133.7</ele>
        <time>2022-10-05T12:56:23Z</time>
      </trkpt>
      <trkpt lat="49.72452" lon="2.3789">
        <ele>133.7</ele>
        <time>2022-10-05T12:56:24Z</time>
      </trkpt>
      <trkpt lat="49.72452" lon="2.37888">
        <ele>133.7</ele>
        <time>2022-10-05T12:56:25Z</time>
      </trkpt>
      <trkpt lat="49.72452" lon="2.37887">
        <ele>133.7</ele>
        <time>2022-10-05T12:56:26Z</time>
      </trkpt>
      <trkpt lat="49.72452" lon="2.37885">
        <ele>133.6</ele>
        <time>2022-10-05T12:56:27Z</time>
      </trkpt>
      <trkpt lat="49.72452" lon="2.37883">
        <ele>133.6</ele>
        <time>2022-10-05T12:56:28Z</time>
      </trkpt>
      <trkpt lat="49.72452" lon="2.37881">
        <ele>133.6</ele>
        <time>2022-10-05T12:56:29Z</time>
      </trkpt>
      <trkpt lat="49.72452" lon="2.37878">
        <ele>133.6</ele>
        <time>2022-10-05T12:56:30Z</time>
      </trkpt>
      <trkpt lat="49.72452" lon="2.37875">
        <ele>133.6</ele>
        <time>2022-10-05T12:56:32Z</time>
      </trkpt>
      <trkpt lat="49.72452" lon="2.37874">
        <ele>133.6</ele>
        <time>2022-10-05T12:56:33Z</time>
      </trkpt>
      <trkpt lat="49.72453" lon="2.37871">
        <ele>133.5</ele>
        <time>2022-10-05T12:56:34Z</time>
      </trkpt>
      <trkpt lat="49.72453" lon="2.3787">
        <ele>133.5</ele>
        <time>2022-10-05T12:56:35Z</time>
      </trkpt>
      <trkpt lat="49.72453" lon="2.37869">
        <ele>133.5</ele>
        <time>2022-10-05T12:56:36Z</time>
      </trkpt>
      <trkpt lat="49.72453" lon="2.37866">
        <ele>133.5</ele>
        <time>2022-10-05T12:56:37Z</time>
      </trkpt>
      <trkpt lat="49.72453" lon="2.37864">
        <ele>133.5</ele>
        <time>2022-10-05T12:56:38Z</time>
      </trkpt>
      <trkpt lat="49.72453" lon="2.37861">
        <ele>133.5</ele>
        <time>2022-10-05T12:56:39Z</time>
      </trkpt>
      <trkpt lat="49.72453" lon="2.3786">
        <ele>133.5</ele>
        <time>2022-10-05T12:56:40Z</time>
      </trkpt>
      <trkpt lat="49.72453" lon="2.37859">
        <ele>133.5</ele>
        <time>2022-10-05T12:56:41Z</time>
      </trkpt>
      <trkpt lat="49.72453" lon="2.37858">
        <ele>133.4</ele>
        <time>2022-10-05T12:56:42Z</time>
      </trkpt>
      <trkpt lat="49.72453" lon="2.37855">
        <ele>133.4</ele>
        <time>2022-10-05T12:56:44Z</time>
      </trkpt>
      <trkpt lat="49.72453" lon="2.37854">
        <ele>133.4</ele>
        <time>2022-10-05T12:56:45Z</time>
      </trkpt>
      <trkpt lat="49.72453" lon="2.37853">
        <ele>133.4</ele>
        <time>2022-10-05T12:56:46Z</time>
      </trkpt>
      <trkpt lat="49.72453" lon="2.37849">
        <ele>133.4</ele>
        <time>2022-10-05T12:56:47Z</time>
      </trkpt>
      <trkpt lat="49.72453" lon="2.37848">
        <ele>133.4</ele>
        <time>2022-10-05T12:56:48Z</time>
      </trkpt>
      <trkpt lat="49.72453" lon="2.37847">
        <ele>133.3</ele>
        <time>2022-10-05T12:56:49Z</time>
      </trkpt>
      <trkpt lat="49.72453" lon="2.37845">
        <ele>133.3</ele>
        <time>2022-10-05T12:56:50Z</time>
      </trkpt>
      <trkpt lat="49.72453" lon="2.37843">
        <ele>133.3</ele>
        <time>2022-10-05T12:56:51Z</time>
      </trkpt>
      <trkpt lat="49.72453" lon="2.37838">
        <ele>133.3</ele>
        <time>2022-10-05T12:56:53Z</time>
      </trkpt>
      <trkpt lat="49.72453" lon="2.37837">
        <ele>133.3</ele>
        <time>2022-10-05T12:56:54Z</time>
      </trkpt>
      <trkpt lat="49.72453" lon="2.37833">
        <ele>133.2</ele>
        <time>2022-10-05T12:56:55Z</time>
      </trkpt>
      <trkpt lat="49.72453" lon="2.37832">
        <ele>133.2</ele>
        <time>2022-10-05T12:56:56Z</time>
      </trkpt>
      <trkpt lat="49.72453" lon="2.37831">
        <ele>133.2</ele>
        <time>2022-10-05T12:56:57Z</time>
      </trkpt>
      <trkpt lat="49.72452" lon="2.37829">
        <ele>133.2</ele>
        <time>2022-10-05T12:56:58Z</time>
      </trkpt>
      <trkpt lat="49.72452" lon="2.37826">
        <ele>133.2</ele>
        <time>2022-10-05T12:56:59Z</time>
      </trkpt>
      <trkpt lat="49.72452" lon="2.37824">
        <ele>133.1</ele>
        <time>2022-10-05T12:57:00Z</time>
      </trkpt>
      <trkpt lat="49.72452" lon="2.37822">
        <ele>133.1</ele>
        <time>2022-10-05T12:57:01Z</time>
      </trkpt>
      <trkpt lat="49.72452" lon="2.37819">
        <ele>133.1</ele>
        <time>2022-10-05T12:57:03Z</time>
      </trkpt>
      <trkpt lat="49.72452" lon="2.37815">
        <ele>133.1</ele>
        <time>2022-10-05T12:57:05Z</time>
      </trkpt>
      <trkpt lat="49.72452" lon="2.37813">
        <ele>133</ele>
        <time>2022-10-05T12:57:06Z</time>
      </trkpt>
      <trkpt lat="49.72452" lon="2.37811">
        <ele>133</ele>
        <time>2022-10-05T12:57:07Z</time>
      </trkpt>
      <trkpt lat="49.72452" lon="2.37809">
        <ele>133</ele>
        <time>2022-10-05T12:57:08Z</time>
      </trkpt>
      <trkpt lat="49.72453" lon="2.37807">
        <ele>133</ele>
        <time>2022-10-05T12:57:09Z</time>
      </trkpt>
      <trkpt lat="49.72453" lon="2.37805">
        <ele>133</ele>
        <time>2022-10-05T12:57:10Z</time>
      </trkpt>
      <trkpt lat="49.72453" lon="2.37802">
        <ele>132.9</ele>
        <time>2022-10-05T12:57:11Z</time>
      </trkpt>
      <trkpt lat="49.72453" lon="2.378">
        <ele>132.9</ele>
        <time>2022-10-05T12:57:13Z</time>
      </trkpt>
      <trkpt lat="49.72454" lon="2.37798">
        <ele>132.9</ele>
        <time>2022-10-05T12:57:14Z</time>
      </trkpt>
      <trkpt lat="49.72454" lon="2.37796">
        <ele>132.9</ele>
        <time>2022-10-05T12:57:15Z</time>
      </trkpt>
      <trkpt lat="49.72454" lon="2.37794">
        <ele>132.9</ele>
        <time>2022-10-05T12:57:16Z</time>
      </trkpt>
      <trkpt lat="49.72454" lon="2.37791">
        <ele>132.8</ele>
        <time>2022-10-05T12:57:17Z</time>
      </trkpt>
      <trkpt lat="49.72454" lon="2.37789">
        <ele>132.8</ele>
        <time>2022-10-05T12:57:18Z</time>
      </trkpt>
      <trkpt lat="49.72454" lon="2.37787">
        <ele>132.8</ele>
        <time>2022-10-05T12:57:20Z</time>
      </trkpt>
      <trkpt lat="49.72454" lon="2.37784">
        <ele>132.8</ele>
        <time>2022-10-05T12:57:21Z</time>
      </trkpt>
      <trkpt lat="49.72454" lon="2.37782">
        <ele>132.8</ele>
        <time>2022-10-05T12:57:22Z</time>
      </trkpt>
      <trkpt lat="49.72454" lon="2.37779">
        <ele>132.8</ele>
        <time>2022-10-05T12:57:23Z</time>
      </trkpt>
      <trkpt lat="49.72454" lon="2.37775">
        <ele>132.7</ele>
        <time>2022-10-05T12:57:25Z</time>
      </trkpt>
      <trkpt lat="49.72454" lon="2.37772">
        <ele>132.7</ele>
        <time>2022-10-05T12:57:26Z</time>
      </trkpt>
      <trkpt lat="49.72454" lon="2.3777">
        <ele>132.7</ele>
        <time>2022-10-05T12:57:27Z</time>
      </trkpt>
      <trkpt lat="49.72455" lon="2.37768">
        <ele>132.7</ele>
        <time>2022-10-05T12:57:28Z</time>
      </trkpt>
      <trkpt lat="49.72455" lon="2.37768">
        <ele>132.7</ele>
        <time>2022-10-05T12:57:29Z</time>
      </trkpt>
      <trkpt lat="49.72455" lon="2.37765">
        <ele>132.7</ele>
        <time>2022-10-05T12:57:30Z</time>
      </trkpt>
      <trkpt lat="49.72455" lon="2.37762">
        <ele>132.6</ele>
        <time>2022-10-05T12:57:32Z</time>
      </trkpt>
      <trkpt lat="49.72455" lon="2.37761">
        <ele>132.6</ele>
        <time>2022-10-05T12:57:33Z</time>
      </trkpt>
      <trkpt lat="49.72455" lon="2.37759">
        <ele>132.6</ele>
        <time>2022-10-05T12:57:34Z</time>
      </trkpt>
      <trkpt lat="49.72455" lon="2.37757">
        <ele>132.6</ele>
        <time>2022-10-05T12:57:35Z</time>
      </trkpt>
      <trkpt lat="49.72455" lon="2.37756">
        <ele>132.6</ele>
        <time>2022-10-05T12:57:36Z</time>
      </trkpt>
      <trkpt lat="49.72455" lon="2.37754">
        <ele>132.6</ele>
        <time>2022-10-05T12:57:37Z</time>
      </trkpt>
      <trkpt lat="49.72456" lon="2.3775">
        <ele>132.5</ele>
        <time>2022-10-05T12:57:38Z</time>
      </trkpt>
      <trkpt lat="49.72456" lon="2.37748">
        <ele>132.5</ele>
        <time>2022-10-05T12:57:40Z</time>
      </trkpt>
      <trkpt lat="49.72456" lon="2.37747">
        <ele>132.5</ele>
        <time>2022-10-05T12:57:41Z</time>
      </trkpt>
      <trkpt lat="49.72457" lon="2.37745">
        <ele>132.5</ele>
        <time>2022-10-05T12:57:42Z</time>
      </trkpt>
      <trkpt lat="49.72457" lon="2.37744">
        <ele>132.5</ele>
        <time>2022-10-05T12:57:43Z</time>
      </trkpt>
      <trkpt lat="49.72457" lon="2.37742">
        <ele>132.5</ele>
        <time>2022-10-05T12:57:44Z</time>
      </trkpt>
      <trkpt lat="49.72457" lon="2.37741">
        <ele>132.5</ele>
        <time>2022-10-05T12:57:45Z</time>
      </trkpt>
      <trkpt lat="49.72458" lon="2.37739">
        <ele>132.4</ele>
        <time>2022-10-05T12:57:46Z</time>
      </trkpt>
      <trkpt lat="49.72459" lon="2.37736">
        <ele>132.4</ele>
        <time>2022-10-05T12:57:47Z</time>
      </trkpt>
      <trkpt lat="49.72459" lon="2.37735">
        <ele>132.4</ele>
        <time>2022-10-05T12:57:48Z</time>
      </trkpt>
      <trkpt lat="49.7246" lon="2.37734">
        <ele>132.4</ele>
        <time>2022-10-05T12:57:49Z</time>
      </trkpt>
      <trkpt lat="49.7246" lon="2.37732">
        <ele>132.4</ele>
        <time>2022-10-05T12:57:50Z</time>
      </trkpt>
      <trkpt lat="49.72461" lon="2.37732">
        <ele>132.4</ele>
        <time>2022-10-05T12:57:51Z</time>
      </trkpt>
      <trkpt lat="49.72461" lon="2.3773">
        <ele>132.4</ele>
        <time>2022-10-05T12:57:52Z</time>
      </trkpt>
      <trkpt lat="49.72461" lon="2.37728">
        <ele>132.4</ele>
        <time>2022-10-05T12:57:54Z</time>
      </trkpt>
      <trkpt lat="49.72462" lon="2.37726">
        <ele>132.3</ele>
        <time>2022-10-05T12:57:55Z</time>
      </trkpt>
      <trkpt lat="49.72462" lon="2.37722">
        <ele>132.3</ele>
        <time>2022-10-05T12:57:56Z</time>
      </trkpt>
      <trkpt lat="49.72462" lon="2.37721">
        <ele>132.3</ele>
        <time>2022-10-05T12:57:57Z</time>
      </trkpt>
      <trkpt lat="49.72462" lon="2.37719">
        <ele>132.3</ele>
        <time>2022-10-05T12:57:58Z</time>
      </trkpt>
      <trkpt lat="49.72462" lon="2.37718">
        <ele>132.3</ele>
        <time>2022-10-05T12:57:59Z</time>
      </trkpt>
      <trkpt lat="49.72462" lon="2.37716">
        <ele>132.3</ele>
        <time>2022-10-05T12:58:00Z</time>
      </trkpt>
      <trkpt lat="49.72462" lon="2.37714">
        <ele>132.3</ele>
        <time>2022-10-05T12:58:01Z</time>
      </trkpt>
      <trkpt lat="49.72462" lon="2.37711">
        <ele>132.2</ele>
        <time>2022-10-05T12:58:02Z</time>
      </trkpt>
      <trkpt lat="49.72462" lon="2.3771">
        <ele>132.2</ele>
        <time>2022-10-05T12:58:04Z</time>
      </trkpt>
      <trkpt lat="49.72462" lon="2.37708">
        <ele>132.2</ele>
        <time>2022-10-05T12:58:05Z</time>
      </trkpt>
      <trkpt lat="49.72462" lon="2.37706">
        <ele>132.2</ele>
        <time>2022-10-05T12:58:06Z</time>
      </trkpt>
      <trkpt lat="49.72462" lon="2.37703">
        <ele>132.2</ele>
        <time>2022-10-05T12:58:08Z</time>
      </trkpt>
      <trkpt lat="49.72461" lon="2.377">
        <ele>132.1</ele>
        <time>2022-10-05T12:58:09Z</time>
      </trkpt>
      <trkpt lat="49.72461" lon="2.37698">
        <ele>132.1</ele>
        <time>2022-10-05T12:58:10Z</time>
      </trkpt>
      <trkpt lat="49.7246" lon="2.37697">
        <ele>132.1</ele>
        <time>2022-10-05T12:58:11Z</time>
      </trkpt>
      <trkpt lat="49.7246" lon="2.37695">
        <ele>132.1</ele>
        <time>2022-10-05T12:58:13Z</time>
      </trkpt>
      <trkpt lat="49.7246" lon="2.37692">
        <ele>132</ele>
        <time>2022-10-05T12:58:14Z</time>
      </trkpt>
      <trkpt lat="49.72459" lon="2.37691">
        <ele>132</ele>
        <time>2022-10-05T12:58:15Z</time>
      </trkpt>
      <trkpt lat="49.72459" lon="2.37689">
        <ele>132</ele>
        <time>2022-10-05T12:58:16Z</time>
      </trkpt>
      <trkpt lat="49.72458" lon="2.3769">
        <ele>132</ele>
        <time>2022-10-05T12:58:17Z</time>
      </trkpt>
      <trkpt lat="49.72458" lon="2.3769">
        <ele>132</ele>
        <time>2022-10-05T12:58:18Z</time>
      </trkpt>
      <trkpt lat="49.72458" lon="2.3769">
        <ele>132</ele>
        <time>2022-10-05T12:58:19Z</time>
      </trkpt>
      <trkpt lat="49.72458" lon="2.37689">
        <ele>131.9</ele>
        <time>2022-10-05T12:58:20Z</time>
      </trkpt>
      <trkpt lat="49.72458" lon="2.37688">
        <ele>131.9</ele>
        <time>2022-10-05T12:58:21Z</time>
      </trkpt>
      <trkpt lat="49.72457" lon="2.37686">
        <ele>131.9</ele>
        <time>2022-10-05T12:58:22Z</time>
      </trkpt>
      <trkpt lat="49.72457" lon="2.37685">
        <ele>131.9</ele>
        <time>2022-10-05T12:58:23Z</time>
      </trkpt>
      <trkpt lat="49.72457" lon="2.37683">
        <ele>131.8</ele>
        <time>2022-10-05T12:58:25Z</time>
      </trkpt>
      <trkpt lat="49.72456" lon="2.37681">
        <ele>131.8</ele>
        <time>2022-10-05T12:58:26Z</time>
      </trkpt>
      <trkpt lat="49.72456" lon="2.37678">
        <ele>131.8</ele>
        <time>2022-10-05T12:58:28Z</time>
      </trkpt>
      <trkpt lat="49.72456" lon="2.37677">
        <ele>131.8</ele>
        <time>2022-10-05T12:58:29Z</time>
      </trkpt>
      <trkpt lat="49.72456" lon="2.37675">
        <ele>131.8</ele>
        <time>2022-10-05T12:58:30Z</time>
      </trkpt>
      <trkpt lat="49.72456" lon="2.37674">
        <ele>131.7</ele>
        <time>2022-10-05T12:58:31Z</time>
      </trkpt>
      <trkpt lat="49.72455" lon="2.37671">
        <ele>131.7</ele>
        <time>2022-10-05T12:58:32Z</time>
      </trkpt>
      <trkpt lat="49.72455" lon="2.3767">
        <ele>131.7</ele>
        <time>2022-10-05T12:58:33Z</time>
      </trkpt>
      <trkpt lat="49.72455" lon="2.37668">
        <ele>131.7</ele>
        <time>2022-10-05T12:58:34Z</time>
      </trkpt>
      <trkpt lat="49.72454" lon="2.37665">
        <ele>131.6</ele>
        <time>2022-10-05T12:58:35Z</time>
      </trkpt>
      <trkpt lat="49.72454" lon="2.37663">
        <ele>131.6</ele>
        <time>2022-10-05T12:58:36Z</time>
      </trkpt>
      <trkpt lat="49.72454" lon="2.37662">
        <ele>131.6</ele>
        <time>2022-10-05T12:58:37Z</time>
      </trkpt>
      <trkpt lat="49.72453" lon="2.3766">
        <ele>131.6</ele>
        <time>2022-10-05T12:58:39Z</time>
      </trkpt>
      <trkpt lat="49.72453" lon="2.37657">
        <ele>131.5</ele>
        <time>2022-10-05T12:58:40Z</time>
      </trkpt>
      <trkpt lat="49.72453" lon="2.37656">
        <ele>131.5</ele>
        <time>2022-10-05T12:58:41Z</time>
      </trkpt>
      <trkpt lat="49.72452" lon="2.37654">
        <ele>131.5</ele>
        <time>2022-10-05T12:58:42Z</time>
      </trkpt>
      <trkpt lat="49.72452" lon="2.37653">
        <ele>131.5</ele>
        <time>2022-10-05T12:58:43Z</time>
      </trkpt>
      <trkpt lat="49.72452" lon="2.37651">
        <ele>131.4</ele>
        <time>2022-10-05T12:58:44Z</time>
      </trkpt>
      <trkpt lat="49.72452" lon="2.37648">
        <ele>131.4</ele>
        <time>2022-10-05T12:58:46Z</time>
      </trkpt>
      <trkpt lat="49.72451" lon="2.37646">
        <ele>131.4</ele>
        <time>2022-10-05T12:58:47Z</time>
      </trkpt>
      <trkpt lat="49.72451" lon="2.37644">
        <ele>131.3</ele>
        <time>2022-10-05T12:58:48Z</time>
      </trkpt>
      <trkpt lat="49.72451" lon="2.37642">
        <ele>131.3</ele>
        <time>2022-10-05T12:58:49Z</time>
      </trkpt>
      <trkpt lat="49.7245" lon="2.37639">
        <ele>131.3</ele>
        <time>2022-10-05T12:58:50Z</time>
      </trkpt>
      <trkpt lat="49.7245" lon="2.37635">
        <ele>131.2</ele>
        <time>2022-10-05T12:58:51Z</time>
      </trkpt>
      <trkpt lat="49.7245" lon="2.37633">
        <ele>131.2</ele>
        <time>2022-10-05T12:58:53Z</time>
      </trkpt>
      <trkpt lat="49.72449" lon="2.37632">
        <ele>131.2</ele>
        <time>2022-10-05T12:58:54Z</time>
      </trkpt>
      <trkpt lat="49.72449" lon="2.3763">
        <ele>131.1</ele>
        <time>2022-10-05T12:58:55Z</time>
      </trkpt>
      <trkpt lat="49.72449" lon="2.37628">
        <ele>131.1</ele>
        <time>2022-10-05T12:58:56Z</time>
      </trkpt>
      <trkpt lat="49.72449" lon="2.37627">
        <ele>131.1</ele>
        <time>2022-10-05T12:58:57Z</time>
      </trkpt>
      <trkpt lat="49.72449" lon="2.37625">
        <ele>131.1</ele>
        <time>2022-10-05T12:58:58Z</time>
      </trkpt>
      <trkpt lat="49.72449" lon="2.37624">
        <ele>131</ele>
        <time>2022-10-05T12:58:59Z</time>
      </trkpt>
      <trkpt lat="49.72449" lon="2.37621">
        <ele>131</ele>
        <time>2022-10-05T12:59:00Z</time>
      </trkpt>
      <trkpt lat="49.72449" lon="2.37619">
        <ele>131</ele>
        <time>2022-10-05T12:59:01Z</time>
      </trkpt>
      <trkpt lat="49.72449" lon="2.37618">
        <ele>130.9</ele>
        <time>2022-10-05T12:59:02Z</time>
      </trkpt>
      <trkpt lat="49.72449" lon="2.37615">
        <ele>130.9</ele>
        <time>2022-10-05T12:59:03Z</time>
      </trkpt>
      <trkpt lat="49.72448" lon="2.37613">
        <ele>130.9</ele>
        <time>2022-10-05T12:59:04Z</time>
      </trkpt>
      <trkpt lat="49.72448" lon="2.3761">
        <ele>130.8</ele>
        <time>2022-10-05T12:59:05Z</time>
      </trkpt>
      <trkpt lat="49.72447" lon="2.37609">
        <ele>130.8</ele>
        <time>2022-10-05T12:59:06Z</time>
      </trkpt>
      <trkpt lat="49.72447" lon="2.37607">
        <ele>130.8</ele>
        <time>2022-10-05T12:59:07Z</time>
      </trkpt>
      <trkpt lat="49.72447" lon="2.37604">
        <ele>130.7</ele>
        <time>2022-10-05T12:59:08Z</time>
      </trkpt>
      <trkpt lat="49.72446" lon="2.37602">
        <ele>130.7</ele>
        <time>2022-10-05T12:59:10Z</time>
      </trkpt>
      <trkpt lat="49.72446" lon="2.376">
        <ele>130.7</ele>
        <time>2022-10-05T12:59:11Z</time>
      </trkpt>
      <trkpt lat="49.72445" lon="2.37599">
        <ele>130.6</ele>
        <time>2022-10-05T12:59:12Z</time>
      </trkpt>
      <trkpt lat="49.72445" lon="2.37598">
        <ele>130.6</ele>
        <time>2022-10-05T12:59:13Z</time>
      </trkpt>
      <trkpt lat="49.72445" lon="2.37596">
        <ele>130.6</ele>
        <time>2022-10-05T12:59:14Z</time>
      </trkpt>
      <trkpt lat="49.72444" lon="2.37594">
        <ele>130.6</ele>
        <time>2022-10-05T12:59:15Z</time>
      </trkpt>
      <trkpt lat="49.72443" lon="2.37591">
        <ele>130.5</ele>
        <time>2022-10-05T12:59:16Z</time>
      </trkpt>
      <trkpt lat="49.72443" lon="2.37589">
        <ele>130.5</ele>
        <time>2022-10-05T12:59:18Z</time>
      </trkpt>
      <trkpt lat="49.72443" lon="2.37587">
        <ele>130.5</ele>
        <time>2022-10-05T12:59:19Z</time>
      </trkpt>
      <trkpt lat="49.72442" lon="2.37586">
        <ele>130.4</ele>
        <time>2022-10-05T12:59:20Z</time>
      </trkpt>
      <trkpt lat="49.72442" lon="2.37584">
        <ele>130.4</ele>
        <time>2022-10-05T12:59:21Z</time>
      </trkpt>
      <trkpt lat="49.72442" lon="2.37581">
        <ele>130.4</ele>
        <time>2022-10-05T12:59:22Z</time>
      </trkpt>
      <trkpt lat="49.72441" lon="2.37579">
        <ele>130.3</ele>
        <time>2022-10-05T12:59:24Z</time>
      </trkpt>
      <trkpt lat="49.72441" lon="2.37577">
        <ele>130.3</ele>
        <time>2022-10-05T12:59:25Z</time>
      </trkpt>
      <trkpt lat="49.72441" lon="2.37575">
        <ele>130.3</ele>
        <time>2022-10-05T12:59:26Z</time>
      </trkpt>
      <trkpt lat="49.7244" lon="2.37571">
        <ele>130.2</ele>
        <time>2022-10-05T12:59:27Z</time>
      </trkpt>
      <trkpt lat="49.7244" lon="2.3757">
        <ele>130.2</ele>
        <time>2022-10-05T12:59:28Z</time>
      </trkpt>
      <trkpt lat="49.72439" lon="2.37567">
        <ele>130.2</ele>
        <time>2022-10-05T12:59:29Z</time>
      </trkpt>
      <trkpt lat="49.72439" lon="2.37564">
        <ele>130.1</ele>
        <time>2022-10-05T12:59:31Z</time>
      </trkpt>
      <trkpt lat="49.72439" lon="2.37561">
        <ele>130.1</ele>
        <time>2022-10-05T12:59:32Z</time>
      </trkpt>
      <trkpt lat="49.72438" lon="2.3756">
        <ele>130.1</ele>
        <time>2022-10-05T12:59:33Z</time>
      </trkpt>
      <trkpt lat="49.72438" lon="2.37558">
        <ele>130</ele>
        <time>2022-10-05T12:59:34Z</time>
      </trkpt>
      <trkpt lat="49.72438" lon="2.37555">
        <ele>130</ele>
        <time>2022-10-05T12:59:36Z</time>
      </trkpt>
      <trkpt lat="49.72437" lon="2.37553">
        <ele>130</ele>
        <time>2022-10-05T12:59:37Z</time>
      </trkpt>
      <trkpt lat="49.72437" lon="2.37551">
        <ele>129.9</ele>
        <time>2022-10-05T12:59:38Z</time>
      </trkpt>
      <trkpt lat="49.72437" lon="2.37549">
        <ele>129.9</ele>
        <time>2022-10-05T12:59:39Z</time>
      </trkpt>
      <trkpt lat="49.72436" lon="2.37548">
        <ele>129.9</ele>
        <time>2022-10-05T12:59:40Z</time>
      </trkpt>
      <trkpt lat="49.72436" lon="2.37545">
        <ele>129.9</ele>
        <time>2022-10-05T12:59:42Z</time>
      </trkpt>
      <trkpt lat="49.72436" lon="2.37543">
        <ele>129.9</ele>
        <time>2022-10-05T12:59:43Z</time>
      </trkpt>
      <trkpt lat="49.72436" lon="2.37541">
        <ele>129.8</ele>
        <time>2022-10-05T12:59:44Z</time>
      </trkpt>
      <trkpt lat="49.72435" lon="2.37538">
        <ele>129.8</ele>
        <time>2022-10-05T12:59:46Z</time>
      </trkpt>
      <trkpt lat="49.72435" lon="2.37536">
        <ele>129.8</ele>
        <time>2022-10-05T12:59:47Z</time>
      </trkpt>
      <trkpt lat="49.72435" lon="2.37534">
        <ele>129.8</ele>
        <time>2022-10-05T12:59:48Z</time>
      </trkpt>
      <trkpt lat="49.72434" lon="2.37532">
        <ele>129.7</ele>
        <time>2022-10-05T12:59:49Z</time>
      </trkpt>
      <trkpt lat="49.72434" lon="2.37529">
        <ele>129.7</ele>
        <time>2022-10-05T12:59:51Z</time>
      </trkpt>
      <trkpt lat="49.72433" lon="2.37526">
        <ele>129.7</ele>
        <time>2022-10-05T12:59:52Z</time>
      </trkpt>
      <trkpt lat="49.72433" lon="2.37524">
        <ele>129.7</ele>
        <time>2022-10-05T12:59:53Z</time>
      </trkpt>
      <trkpt lat="49.72432" lon="2.37523">
        <ele>129.7</ele>
        <time>2022-10-05T12:59:54Z</time>
      </trkpt>
      <trkpt lat="49.72432" lon="2.37522">
        <ele>129.6</ele>
        <time>2022-10-05T12:59:55Z</time>
      </trkpt>
      <trkpt lat="49.72432" lon="2.3752">
        <ele>129.6</ele>
        <time>2022-10-05T12:59:56Z</time>
      </trkpt>
      <trkpt lat="49.72431" lon="2.37517">
        <ele>129.6</ele>
        <time>2022-10-05T12:59:57Z</time>
      </trkpt>
      <trkpt lat="49.72431" lon="2.37516">
        <ele>129.6</ele>
        <time>2022-10-05T12:59:58Z</time>
      </trkpt>
      <trkpt lat="49.72431" lon="2.37515">
        <ele>129.6</ele>
        <time>2022-10-05T12:59:59Z</time>
      </trkpt>
      <trkpt lat="49.7243" lon="2.37513">
        <ele>129.6</ele>
        <time>2022-10-05T13:00:00Z</time>
      </trkpt>
      <trkpt lat="49.7243" lon="2.37512">
        <ele>129.5</ele>
        <time>2022-10-05T13:00:01Z</time>
      </trkpt>
      <trkpt lat="49.72429" lon="2.3751">
        <ele>129.5</ele>
        <time>2022-10-05T13:00:03Z</time>
      </trkpt>
      <trkpt lat="49.72429" lon="2.37508">
        <ele>129.5</ele>
        <time>2022-10-05T13:00:04Z</time>
      </trkpt>
      <trkpt lat="49.72428" lon="2.37507">
        <ele>129.5</ele>
        <time>2022-10-05T13:00:05Z</time>
      </trkpt>
      <trkpt lat="49.72428" lon="2.37505">
        <ele>129.5</ele>
        <time>2022-10-05T13:00:06Z</time>
      </trkpt>
      <trkpt lat="49.72428" lon="2.37502">
        <ele>129.4</ele>
        <time>2022-10-05T13:00:07Z</time>
      </trkpt>
      <trkpt lat="49.72427" lon="2.37501">
        <ele>129.4</ele>
        <time>2022-10-05T13:00:08Z</time>
      </trkpt>
      <trkpt lat="49.72427" lon="2.37499">
        <ele>129.4</ele>
        <time>2022-10-05T13:00:10Z</time>
      </trkpt>
      <trkpt lat="49.72427" lon="2.37497">
        <ele>129.4</ele>
        <time>2022-10-05T13:00:11Z</time>
      </trkpt>
      <trkpt lat="49.72426" lon="2.37495">
        <ele>129.4</ele>
        <time>2022-10-05T13:00:12Z</time>
      </trkpt>
      <trkpt lat="49.72425" lon="2.37491">
        <ele>129.3</ele>
        <time>2022-10-05T13:00:13Z</time>
      </trkpt>
      <trkpt lat="49.72425" lon="2.3749">
        <ele>129.3</ele>
        <time>2022-10-05T13:00:15Z</time>
      </trkpt>
      <trkpt lat="49.72425" lon="2.37488">
        <ele>129.3</ele>
        <time>2022-10-05T13:00:16Z</time>
      </trkpt>
      <trkpt lat="49.72424" lon="2.37486">
        <ele>129.2</ele>
        <time>2022-10-05T13:00:17Z</time>
      </trkpt>
      <trkpt lat="49.72424" lon="2.37484">
        <ele>129.2</ele>
        <time>2022-10-05T13:00:18Z</time>
      </trkpt>
      <trkpt lat="49.72423" lon="2.37483">
        <ele>129.2</ele>
        <time>2022-10-05T13:00:19Z</time>
      </trkpt>
      <trkpt lat="49.72423" lon="2.37481">
        <ele>129.2</ele>
        <time>2022-10-05T13:00:20Z</time>
      </trkpt>
      <trkpt lat="49.72423" lon="2.3748">
        <ele>129.1</ele>
        <time>2022-10-05T13:00:21Z</time>
      </trkpt>
      <trkpt lat="49.72422" lon="2.37477">
        <ele>129.1</ele>
        <time>2022-10-05T13:00:22Z</time>
      </trkpt>
      <trkpt lat="49.72421" lon="2.37474">
        <ele>129</ele>
        <time>2022-10-05T13:00:24Z</time>
      </trkpt>
      <trkpt lat="49.72421" lon="2.37472">
        <ele>129</ele>
        <time>2022-10-05T13:00:25Z</time>
      </trkpt>
      <trkpt lat="49.72421" lon="2.37471">
        <ele>129</ele>
        <time>2022-10-05T13:00:26Z</time>
      </trkpt>
      <trkpt lat="49.7242" lon="2.3747">
        <ele>128.9</ele>
        <time>2022-10-05T13:00:27Z</time>
      </trkpt>
      <trkpt lat="49.7242" lon="2.37466">
        <ele>128.8</ele>
        <time>2022-10-05T13:00:28Z</time>
      </trkpt>
      <trkpt lat="49.72419" lon="2.37465">
        <ele>128.8</ele>
        <time>2022-10-05T13:00:30Z</time>
      </trkpt>
      <trkpt lat="49.72419" lon="2.37463">
        <ele>128.8</ele>
        <time>2022-10-05T13:00:31Z</time>
      </trkpt>
      <trkpt lat="49.72418" lon="2.37461">
        <ele>128.7</ele>
        <time>2022-10-05T13:00:32Z</time>
      </trkpt>
      <trkpt lat="49.72418" lon="2.3746">
        <ele>128.7</ele>
        <time>2022-10-05T13:00:33Z</time>
      </trkpt>
      <trkpt lat="49.72417" lon="2.37458">
        <ele>128.6</ele>
        <time>2022-10-05T13:00:34Z</time>
      </trkpt>
      <trkpt lat="49.72417" lon="2.37456">
        <ele>128.5</ele>
        <time>2022-10-05T13:00:35Z</time>
      </trkpt>
      <trkpt lat="49.72417" lon="2.37455">
        <ele>128.5</ele>
        <time>2022-10-05T13:00:36Z</time>
      </trkpt>
      <trkpt lat="49.72416" lon="2.37452">
        <ele>128.4</ele>
        <time>2022-10-05T13:00:37Z</time>
      </trkpt>
      <trkpt lat="49.72416" lon="2.37451">
        <ele>128.3</ele>
        <time>2022-10-05T13:00:38Z</time>
      </trkpt>
      <trkpt lat="49.72416" lon="2.37449">
        <ele>128.3</ele>
        <time>2022-10-05T13:00:40Z</time>
      </trkpt>
      <trkpt lat="49.72415" lon="2.37447">
        <ele>128.2</ele>
        <time>2022-10-05T13:00:41Z</time>
      </trkpt>
      <trkpt lat="49.72415" lon="2.37446">
        <ele>128.2</ele>
        <time>2022-10-05T13:00:42Z</time>
      </trkpt>
      <trkpt lat="49.72415" lon="2.37444">
        <ele>128.1</ele>
        <time>2022-10-05T13:00:43Z</time>
      </trkpt>
      <trkpt lat="49.72414" lon="2.37442">
        <ele>128</ele>
        <time>2022-10-05T13:00:44Z</time>
      </trkpt>
      <trkpt lat="49.72414" lon="2.3744">
        <ele>127.9</ele>
        <time>2022-10-05T13:00:45Z</time>
      </trkpt>
      <trkpt lat="49.72414" lon="2.37438">
        <ele>127.9</ele>
        <time>2022-10-05T13:00:46Z</time>
      </trkpt>
      <trkpt lat="49.72413" lon="2.37437">
        <ele>127.8</ele>
        <time>2022-10-05T13:00:47Z</time>
      </trkpt>
      <trkpt lat="49.72413" lon="2.37434">
        <ele>127.7</ele>
        <time>2022-10-05T13:00:49Z</time>
      </trkpt>
      <trkpt lat="49.72412" lon="2.37431">
        <ele>127.6</ele>
        <time>2022-10-05T13:00:51Z</time>
      </trkpt>
      <trkpt lat="49.72411" lon="2.3743">
        <ele>127.5</ele>
        <time>2022-10-05T13:00:52Z</time>
      </trkpt>
      <trkpt lat="49.72411" lon="2.37428">
        <ele>127.4</ele>
        <time>2022-10-05T13:00:53Z</time>
      </trkpt>
      <trkpt lat="49.72411" lon="2.37427">
        <ele>127.4</ele>
        <time>2022-10-05T13:00:54Z</time>
      </trkpt>
      <trkpt lat="49.72411" lon="2.37427">
        <ele>127.3</ele>
        <time>2022-10-05T13:00:55Z</time>
      </trkpt>
      <trkpt lat="49.72411" lon="2.37426">
        <ele>127.3</ele>
        <time>2022-10-05T13:00:56Z</time>
      </trkpt>
      <trkpt lat="49.72411" lon="2.37426">
        <ele>127.3</ele>
        <time>2022-10-05T13:00:57Z</time>
      </trkpt>
      <trkpt lat="49.72411" lon="2.37426">
        <ele>127.3</ele>
        <time>2022-10-05T13:00:58Z</time>
      </trkpt>
      <trkpt lat="49.72411" lon="2.37426">
        <ele>127.3</ele>
        <time>2022-10-05T13:00:59Z</time>
      </trkpt>
      <trkpt lat="49.72411" lon="2.37426">
        <ele>127.2</ele>
        <time>2022-10-05T13:01:01Z</time>
      </trkpt>
      <trkpt lat="49.72412" lon="2.37426">
        <ele>127.2</ele>
        <time>2022-10-05T13:01:02Z</time>
      </trkpt>
      <trkpt lat="49.72412" lon="2.37426">
        <ele>127.2</ele>
        <time>2022-10-05T13:01:03Z</time>
      </trkpt>
      <trkpt lat="49.72412" lon="2.37426">
        <ele>127.2</ele>
        <time>2022-10-05T13:01:04Z</time>
      </trkpt>
      <trkpt lat="49.72412" lon="2.37426">
        <ele>127.2</ele>
        <time>2022-10-05T13:01:05Z</time>
      </trkpt>
      <trkpt lat="49.72412" lon="2.37426">
        <ele>127.2</ele>
        <time>2022-10-05T13:01:06Z</time>
      </trkpt>
      <trkpt lat="49.72412" lon="2.37426">
        <ele>127.2</ele>
        <time>2022-10-05T13:01:07Z</time>
      </trkpt>
      <trkpt lat="49.72412" lon="2.37426">
        <ele>127.2</ele>
        <time>2022-10-05T13:01:08Z</time>
      </trkpt>
      <trkpt lat="49.72412" lon="2.37426">
        <ele>127.2</ele>
        <time>2022-10-05T13:01:09Z</time>
      </trkpt>
      <trkpt lat="49.72412" lon="2.37426">
        <ele>127.1</ele>
        <time>2022-10-05T13:01:10Z</time>
      </trkpt>
      <trkpt lat="49.72412" lon="2.37426">
        <ele>127.1</ele>
        <time>2022-10-05T13:01:11Z</time>
      </trkpt>
      <trkpt lat="49.72412" lon="2.37426">
        <ele>127.1</ele>
        <time>2022-10-05T13:01:13Z</time>
      </trkpt>
      <trkpt lat="49.72413" lon="2.37427">
        <ele>127.1</ele>
        <time>2022-10-05T13:01:14Z</time>
      </trkpt>
      <trkpt lat="49.72413" lon="2.37427">
        <ele>127.1</ele>
        <time>2022-10-05T13:01:15Z</time>
      </trkpt>
      <trkpt lat="49.72413" lon="2.37427">
        <ele>127</ele>
        <time>2022-10-05T13:01:17Z</time>
      </trkpt>
      <trkpt lat="49.72414" lon="2.37427">
        <ele>127</ele>
        <time>2022-10-05T13:01:18Z</time>
      </trkpt>
      <trkpt lat="49.72414" lon="2.37426">
        <ele>127</ele>
        <time>2022-10-05T13:01:19Z</time>
      </trkpt>
      <trkpt lat="49.72414" lon="2.37425">
        <ele>126.9</ele>
        <time>2022-10-05T13:01:20Z</time>
      </trkpt>
      <trkpt lat="49.72414" lon="2.37424">
        <ele>126.9</ele>
        <time>2022-10-05T13:01:21Z</time>
      </trkpt>
      <trkpt lat="49.72414" lon="2.37424">
        <ele>126.8</ele>
        <time>2022-10-05T13:01:22Z</time>
      </trkpt>
      <trkpt lat="49.72414" lon="2.37423">
        <ele>126.8</ele>
        <time>2022-10-05T13:01:23Z</time>
      </trkpt>
      <trkpt lat="49.72414" lon="2.37422">
        <ele>126.7</ele>
        <time>2022-10-05T13:01:24Z</time>
      </trkpt>
      <trkpt lat="49.72413" lon="2.37419">
        <ele>126.6</ele>
        <time>2022-10-05T13:01:26Z</time>
      </trkpt>
      <trkpt lat="49.72413" lon="2.37417">
        <ele>126.5</ele>
        <time>2022-10-05T13:01:27Z</time>
      </trkpt>
      <trkpt lat="49.72413" lon="2.37415">
        <ele>126.3</ele>
        <time>2022-10-05T13:01:28Z</time>
      </trkpt>
      <trkpt lat="49.72412" lon="2.37413">
        <ele>126.2</ele>
        <time>2022-10-05T13:01:29Z</time>
      </trkpt>
      <trkpt lat="49.72412" lon="2.37411">
        <ele>126.1</ele>
        <time>2022-10-05T13:01:30Z</time>
      </trkpt>
      <trkpt lat="49.72412" lon="2.3741">
        <ele>126</ele>
        <time>2022-10-05T13:01:31Z</time>
      </trkpt>
      <trkpt lat="49.72411" lon="2.37408">
        <ele>125.9</ele>
        <time>2022-10-05T13:01:32Z</time>
      </trkpt>
      <trkpt lat="49.7241" lon="2.37404">
        <ele>125.6</ele>
        <time>2022-10-05T13:01:34Z</time>
      </trkpt>
      <trkpt lat="49.72409" lon="2.37403">
        <ele>125.6</ele>
        <time>2022-10-05T13:01:35Z</time>
      </trkpt>
      <trkpt lat="49.72408" lon="2.37399">
        <ele>125.3</ele>
        <time>2022-10-05T13:01:37Z</time>
      </trkpt>
      <trkpt lat="49.72408" lon="2.37397">
        <ele>125.2</ele>
        <time>2022-10-05T13:01:38Z</time>
      </trkpt>
      <trkpt lat="49.72407" lon="2.37393">
        <ele>124.9</ele>
        <time>2022-10-05T13:01:39Z</time>
      </trkpt>
      <trkpt lat="49.72407" lon="2.37392">
        <ele>124.8</ele>
        <time>2022-10-05T13:01:40Z</time>
      </trkpt>
      <trkpt lat="49.72406" lon="2.37389">
        <ele>124.7</ele>
        <time>2022-10-05T13:01:41Z</time>
      </trkpt>
      <trkpt lat="49.72406" lon="2.37387">
        <ele>124.5</ele>
        <time>2022-10-05T13:01:42Z</time>
      </trkpt>
      <trkpt lat="49.72405" lon="2.37383">
        <ele>124.2</ele>
        <time>2022-10-05T13:01:43Z</time>
      </trkpt>
      <trkpt lat="49.72405" lon="2.37382">
        <ele>124.1</ele>
        <time>2022-10-05T13:01:44Z</time>
      </trkpt>
      <trkpt lat="49.72404" lon="2.3738">
        <ele>124</ele>
        <time>2022-10-05T13:01:45Z</time>
      </trkpt>
      <trkpt lat="49.72404" lon="2.37378">
        <ele>123.9</ele>
        <time>2022-10-05T13:01:46Z</time>
      </trkpt>
      <trkpt lat="49.72403" lon="2.37375">
        <ele>123.6</ele>
        <time>2022-10-05T13:01:48Z</time>
      </trkpt>
      <trkpt lat="49.72402" lon="2.37374">
        <ele>123.6</ele>
        <time>2022-10-05T13:01:49Z</time>
      </trkpt>
      <trkpt lat="49.72402" lon="2.37373">
        <ele>123.5</ele>
        <time>2022-10-05T13:01:50Z</time>
      </trkpt>
      <trkpt lat="49.72402" lon="2.37371">
        <ele>123.4</ele>
        <time>2022-10-05T13:01:51Z</time>
      </trkpt>
      <trkpt lat="49.72401" lon="2.37369">
        <ele>123.3</ele>
        <time>2022-10-05T13:01:52Z</time>
      </trkpt>
      <trkpt lat="49.72401" lon="2.37366">
        <ele>123.1</ele>
        <time>2022-10-05T13:01:54Z</time>
      </trkpt>
      <trkpt lat="49.72401" lon="2.37363">
        <ele>122.9</ele>
        <time>2022-10-05T13:01:55Z</time>
      </trkpt>
      <trkpt lat="49.72401" lon="2.37362">
        <ele>122.9</ele>
        <time>2022-10-05T13:01:56Z</time>
      </trkpt>
      <trkpt lat="49.72401" lon="2.37361">
        <ele>122.8</ele>
        <time>2022-10-05T13:01:57Z</time>
      </trkpt>
      <trkpt lat="49.724" lon="2.37358">
        <ele>122.7</ele>
        <time>2022-10-05T13:01:59Z</time>
      </trkpt>
      <trkpt lat="49.724" lon="2.37357">
        <ele>122.6</ele>
        <time>2022-10-05T13:02:00Z</time>
      </trkpt>
      <trkpt lat="49.724" lon="2.37356">
        <ele>122.5</ele>
        <time>2022-10-05T13:02:01Z</time>
      </trkpt>
      <trkpt lat="49.724" lon="2.37355">
        <ele>122.5</ele>
        <time>2022-10-05T13:02:02Z</time>
      </trkpt>
      <trkpt lat="49.72399" lon="2.37354">
        <ele>122.4</ele>
        <time>2022-10-05T13:02:03Z</time>
      </trkpt>
      <trkpt lat="49.72399" lon="2.37352">
        <ele>122.3</ele>
        <time>2022-10-05T13:02:04Z</time>
      </trkpt>
      <trkpt lat="49.72399" lon="2.37351">
        <ele>122.3</ele>
        <time>2022-10-05T13:02:05Z</time>
      </trkpt>
      <trkpt lat="49.72398" lon="2.37349">
        <ele>122.2</ele>
        <time>2022-10-05T13:02:06Z</time>
      </trkpt>
      <trkpt lat="49.72398" lon="2.37347">
        <ele>122.1</ele>
        <time>2022-10-05T13:02:07Z</time>
      </trkpt>
      <trkpt lat="49.72397" lon="2.37344">
        <ele>122</ele>
        <time>2022-10-05T13:02:09Z</time>
      </trkpt>
      <trkpt lat="49.72397" lon="2.37342">
        <ele>121.9</ele>
        <time>2022-10-05T13:02:10Z</time>
      </trkpt>
      <trkpt lat="49.72397" lon="2.37341">
        <ele>121.9</ele>
        <time>2022-10-05T13:02:11Z</time>
      </trkpt>
      <trkpt lat="49.72397" lon="2.37338">
        <ele>121.8</ele>
        <time>2022-10-05T13:02:12Z</time>
      </trkpt>
      <trkpt lat="49.72397" lon="2.37337">
        <ele>121.7</ele>
        <time>2022-10-05T13:02:13Z</time>
      </trkpt>
      <trkpt lat="49.72397" lon="2.37336">
        <ele>121.7</ele>
        <time>2022-10-05T13:02:14Z</time>
      </trkpt>
      <trkpt lat="49.72397" lon="2.37334">
        <ele>121.6</ele>
        <time>2022-10-05T13:02:15Z</time>
      </trkpt>
      <trkpt lat="49.72396" lon="2.37331">
        <ele>121.5</ele>
        <time>2022-10-05T13:02:16Z</time>
      </trkpt>
      <trkpt lat="49.72396" lon="2.37327">
        <ele>121.4</ele>
        <time>2022-10-05T13:02:18Z</time>
      </trkpt>
      <trkpt lat="49.72396" lon="2.37326">
        <ele>121.4</ele>
        <time>2022-10-05T13:02:19Z</time>
      </trkpt>
      <trkpt lat="49.72395" lon="2.37325">
        <ele>121.3</ele>
        <time>2022-10-05T13:02:20Z</time>
      </trkpt>
      <trkpt lat="49.72395" lon="2.37323">
        <ele>121.3</ele>
        <time>2022-10-05T13:02:21Z</time>
      </trkpt>
      <trkpt lat="49.72395" lon="2.37321">
        <ele>121.2</ele>
        <time>2022-10-05T13:02:22Z</time>
      </trkpt>
      <trkpt lat="49.72394" lon="2.37319">
        <ele>121.2</ele>
        <time>2022-10-05T13:02:23Z</time>
      </trkpt>
      <trkpt lat="49.72394" lon="2.37316">
        <ele>121.1</ele>
        <time>2022-10-05T13:02:25Z</time>
      </trkpt>
      <trkpt lat="49.72394" lon="2.37315">
        <ele>121.1</ele>
        <time>2022-10-05T13:02:26Z</time>
      </trkpt>
      <trkpt lat="49.72394" lon="2.37313">
        <ele>121</ele>
        <time>2022-10-05T13:02:27Z</time>
      </trkpt>
      <trkpt lat="49.72393" lon="2.37311">
        <ele>121</ele>
        <time>2022-10-05T13:02:28Z</time>
      </trkpt>
      <trkpt lat="49.72393" lon="2.37309">
        <ele>120.9</ele>
        <time>2022-10-05T13:02:29Z</time>
      </trkpt>
      <trkpt lat="49.72393" lon="2.37306">
        <ele>120.8</ele>
        <time>2022-10-05T13:02:30Z</time>
      </trkpt>
      <trkpt lat="49.72393" lon="2.37304">
        <ele>120.8</ele>
        <time>2022-10-05T13:02:31Z</time>
      </trkpt>
      <trkpt lat="49.72392" lon="2.37302">
        <ele>120.7</ele>
        <time>2022-10-05T13:02:32Z</time>
      </trkpt>
      <trkpt lat="49.72392" lon="2.373">
        <ele>120.6</ele>
        <time>2022-10-05T13:02:33Z</time>
      </trkpt>
      <trkpt lat="49.72392" lon="2.37298">
        <ele>120.6</ele>
        <time>2022-10-05T13:02:34Z</time>
      </trkpt>
      <trkpt lat="49.72392" lon="2.37295">
        <ele>120.5</ele>
        <time>2022-10-05T13:02:35Z</time>
      </trkpt>
      <trkpt lat="49.72392" lon="2.37293">
        <ele>120.4</ele>
        <time>2022-10-05T13:02:37Z</time>
      </trkpt>
      <trkpt lat="49.72391" lon="2.37292">
        <ele>120.4</ele>
        <time>2022-10-05T13:02:38Z</time>
      </trkpt>
      <trkpt lat="49.72391" lon="2.3729">
        <ele>120.3</ele>
        <time>2022-10-05T13:02:39Z</time>
      </trkpt>
      <trkpt lat="49.72391" lon="2.37289">
        <ele>120.3</ele>
        <time>2022-10-05T13:02:40Z</time>
      </trkpt>
      <trkpt lat="49.72391" lon="2.37287">
        <ele>120.2</ele>
        <time>2022-10-05T13:02:41Z</time>
      </trkpt>
      <trkpt lat="49.72391" lon="2.37284">
        <ele>120.1</ele>
        <time>2022-10-05T13:02:42Z</time>
      </trkpt>
      <trkpt lat="49.72391" lon="2.37282">
        <ele>120</ele>
        <time>2022-10-05T13:02:43Z</time>
      </trkpt>
      <trkpt lat="49.7239" lon="2.3728">
        <ele>120</ele>
        <time>2022-10-05T13:02:45Z</time>
      </trkpt>
      <trkpt lat="49.7239" lon="2.37278">
        <ele>119.9</ele>
        <time>2022-10-05T13:02:46Z</time>
      </trkpt>
      <trkpt lat="49.7239" lon="2.37276">
        <ele>119.8</ele>
        <time>2022-10-05T13:02:47Z</time>
      </trkpt>
      <trkpt lat="49.72389" lon="2.37274">
        <ele>119.7</ele>
        <time>2022-10-05T13:02:48Z</time>
      </trkpt>
      <trkpt lat="49.72389" lon="2.37272">
        <ele>119.7</ele>
        <time>2022-10-05T13:02:49Z</time>
      </trkpt>
      <trkpt lat="49.72389" lon="2.37269">
        <ele>119.6</ele>
        <time>2022-10-05T13:02:51Z</time>
      </trkpt>
      <trkpt lat="49.72388" lon="2.37266">
        <ele>119.5</ele>
        <time>2022-10-05T13:02:52Z</time>
      </trkpt>
      <trkpt lat="49.72388" lon="2.37264">
        <ele>119.4</ele>
        <time>2022-10-05T13:02:53Z</time>
      </trkpt>
      <trkpt lat="49.72388" lon="2.37262">
        <ele>119.3</ele>
        <time>2022-10-05T13:02:54Z</time>
      </trkpt>
      <trkpt lat="49.72388" lon="2.3726">
        <ele>119.2</ele>
        <time>2022-10-05T13:02:56Z</time>
      </trkpt>
      <trkpt lat="49.72388" lon="2.37257">
        <ele>119.1</ele>
        <time>2022-10-05T13:02:57Z</time>
      </trkpt>
      <trkpt lat="49.72388" lon="2.37256">
        <ele>119.1</ele>
        <time>2022-10-05T13:02:58Z</time>
      </trkpt>
      <trkpt lat="49.72388" lon="2.37255">
        <ele>119</ele>
        <time>2022-10-05T13:02:59Z</time>
      </trkpt>
      <trkpt lat="49.72387" lon="2.37252">
        <ele>118.9</ele>
        <time>2022-10-05T13:03:00Z</time>
      </trkpt>
      <trkpt lat="49.72387" lon="2.3725">
        <ele>118.8</ele>
        <time>2022-10-05T13:03:01Z</time>
      </trkpt>
      <trkpt lat="49.72387" lon="2.37249">
        <ele>118.8</ele>
        <time>2022-10-05T13:03:02Z</time>
      </trkpt>
      <trkpt lat="49.72387" lon="2.37246">
        <ele>118.7</ele>
        <time>2022-10-05T13:03:03Z</time>
      </trkpt>
      <trkpt lat="49.72387" lon="2.37244">
        <ele>118.6</ele>
        <time>2022-10-05T13:03:05Z</time>
      </trkpt>
      <trkpt lat="49.72387" lon="2.37243">
        <ele>118.6</ele>
        <time>2022-10-05T13:03:06Z</time>
      </trkpt>
      <trkpt lat="49.72386" lon="2.3724">
        <ele>118.5</ele>
        <time>2022-10-05T13:03:07Z</time>
      </trkpt>
      <trkpt lat="49.72386" lon="2.37238">
        <ele>118.4</ele>
        <time>2022-10-05T13:03:08Z</time>
      </trkpt>
      <trkpt lat="49.72386" lon="2.37237">
        <ele>118.3</ele>
        <time>2022-10-05T13:03:09Z</time>
      </trkpt>
      <trkpt lat="49.72386" lon="2.37235">
        <ele>118.3</ele>
        <time>2022-10-05T13:03:10Z</time>
      </trkpt>
      <trkpt lat="49.72385" lon="2.37233">
        <ele>118.2</ele>
        <time>2022-10-05T13:03:11Z</time>
      </trkpt>
      <trkpt lat="49.72385" lon="2.3723">
        <ele>118.1</ele>
        <time>2022-10-05T13:03:12Z</time>
      </trkpt>
      <trkpt lat="49.72385" lon="2.37229">
        <ele>118</ele>
        <time>2022-10-05T13:03:13Z</time>
      </trkpt>
      <trkpt lat="49.72384" lon="2.37225">
        <ele>117.9</ele>
        <time>2022-10-05T13:03:15Z</time>
      </trkpt>
      <trkpt lat="49.72384" lon="2.37224">
        <ele>117.8</ele>
        <time>2022-10-05T13:03:16Z</time>
      </trkpt>
      <trkpt lat="49.72384" lon="2.37222">
        <ele>117.8</ele>
        <time>2022-10-05T13:03:17Z</time>
      </trkpt>
      <trkpt lat="49.72384" lon="2.37221">
        <ele>117.7</ele>
        <time>2022-10-05T13:03:18Z</time>
      </trkpt>
      <trkpt lat="49.72384" lon="2.3722">
        <ele>117.7</ele>
        <time>2022-10-05T13:03:19Z</time>
      </trkpt>
      <trkpt lat="49.72384" lon="2.37218">
        <ele>117.6</ele>
        <time>2022-10-05T13:03:20Z</time>
      </trkpt>
      <trkpt lat="49.72384" lon="2.37215">
        <ele>117.5</ele>
        <time>2022-10-05T13:03:21Z</time>
      </trkpt>
      <trkpt lat="49.72384" lon="2.37213">
        <ele>117.4</ele>
        <time>2022-10-05T13:03:22Z</time>
      </trkpt>
      <trkpt lat="49.72383" lon="2.3721">
        <ele>117.3</ele>
        <time>2022-10-05T13:03:24Z</time>
      </trkpt>
      <trkpt lat="49.72383" lon="2.37208">
        <ele>117.2</ele>
        <time>2022-10-05T13:03:25Z</time>
      </trkpt>
      <trkpt lat="49.72383" lon="2.37207">
        <ele>117.2</ele>
        <time>2022-10-05T13:03:26Z</time>
      </trkpt>
      <trkpt lat="49.72382" lon="2.37205">
        <ele>117.1</ele>
        <time>2022-10-05T13:03:27Z</time>
      </trkpt>
      <trkpt lat="49.72382" lon="2.37204">
        <ele>117</ele>
        <time>2022-10-05T13:03:28Z</time>
      </trkpt>
      <trkpt lat="49.72382" lon="2.37202">
        <ele>117</ele>
        <time>2022-10-05T13:03:29Z</time>
      </trkpt>
      <trkpt lat="49.72382" lon="2.372">
        <ele>116.9</ele>
        <time>2022-10-05T13:03:30Z</time>
      </trkpt>
      <trkpt lat="49.72381" lon="2.37197">
        <ele>116.8</ele>
        <time>2022-10-05T13:03:32Z</time>
      </trkpt>
      <trkpt lat="49.72381" lon="2.37195">
        <ele>116.7</ele>
        <time>2022-10-05T13:03:33Z</time>
      </trkpt>
      <trkpt lat="49.72381" lon="2.37193">
        <ele>116.6</ele>
        <time>2022-10-05T13:03:34Z</time>
      </trkpt>
      <trkpt lat="49.72381" lon="2.37191">
        <ele>116.5</ele>
        <time>2022-10-05T13:03:36Z</time>
      </trkpt>
      <trkpt lat="49.72381" lon="2.37187">
        <ele>116.4</ele>
        <time>2022-10-05T13:03:37Z</time>
      </trkpt>
      <trkpt lat="49.72381" lon="2.37186">
        <ele>116.3</ele>
        <time>2022-10-05T13:03:38Z</time>
      </trkpt>
      <trkpt lat="49.72381" lon="2.37185">
        <ele>116.3</ele>
        <time>2022-10-05T13:03:39Z</time>
      </trkpt>
      <trkpt lat="49.7238" lon="2.37183">
        <ele>116.1</ele>
        <time>2022-10-05T13:03:40Z</time>
      </trkpt>
      <trkpt lat="49.7238" lon="2.3718">
        <ele>116</ele>
        <time>2022-10-05T13:03:41Z</time>
      </trkpt>
      <trkpt lat="49.7238" lon="2.37177">
        <ele>115.9</ele>
        <time>2022-10-05T13:03:42Z</time>
      </trkpt>
      <trkpt lat="49.7238" lon="2.37176">
        <ele>115.8</ele>
        <time>2022-10-05T13:03:43Z</time>
      </trkpt>
      <trkpt lat="49.7238" lon="2.37174">
        <ele>115.8</ele>
        <time>2022-10-05T13:03:44Z</time>
      </trkpt>
      <trkpt lat="49.72379" lon="2.37171">
        <ele>115.6</ele>
        <time>2022-10-05T13:03:46Z</time>
      </trkpt>
      <trkpt lat="49.72379" lon="2.3717">
        <ele>115.5</ele>
        <time>2022-10-05T13:03:47Z</time>
      </trkpt>
      <trkpt lat="49.72379" lon="2.37168">
        <ele>115.5</ele>
        <time>2022-10-05T13:03:48Z</time>
      </trkpt>
      <trkpt lat="49.72378" lon="2.37166">
        <ele>115.4</ele>
        <time>2022-10-05T13:03:49Z</time>
      </trkpt>
      <trkpt lat="49.72378" lon="2.37165">
        <ele>115.3</ele>
        <time>2022-10-05T13:03:50Z</time>
      </trkpt>
      <trkpt lat="49.72378" lon="2.37163">
        <ele>115.2</ele>
        <time>2022-10-05T13:03:51Z</time>
      </trkpt>
      <trkpt lat="49.72377" lon="2.37162">
        <ele>115.3</ele>
        <time>2022-10-05T13:03:52Z</time>
      </trkpt>
      <trkpt lat="49.72377" lon="2.37161">
        <ele>115.2</ele>
        <time>2022-10-05T13:03:53Z</time>
      </trkpt>
      <trkpt lat="49.72377" lon="2.37159">
        <ele>115.1</ele>
        <time>2022-10-05T13:03:55Z</time>
      </trkpt>
      <trkpt lat="49.72376" lon="2.37157">
        <ele>115</ele>
        <time>2022-10-05T13:03:56Z</time>
      </trkpt>
      <trkpt lat="49.72375" lon="2.37154">
        <ele>114.8</ele>
        <time>2022-10-05T13:03:57Z</time>
      </trkpt>
      <trkpt lat="49.72375" lon="2.37152">
        <ele>114.7</ele>
        <time>2022-10-05T13:03:58Z</time>
      </trkpt>
      <trkpt lat="49.72375" lon="2.3715">
        <ele>114.6</ele>
        <time>2022-10-05T13:04:00Z</time>
      </trkpt>
      <trkpt lat="49.72374" lon="2.37148">
        <ele>114.5</ele>
        <time>2022-10-05T13:04:01Z</time>
      </trkpt>
      <trkpt lat="49.72374" lon="2.37146">
        <ele>114.4</ele>
        <time>2022-10-05T13:04:02Z</time>
      </trkpt>
      <trkpt lat="49.72374" lon="2.37144">
        <ele>114.3</ele>
        <time>2022-10-05T13:04:03Z</time>
      </trkpt>
      <trkpt lat="49.72374" lon="2.37142">
        <ele>114.3</ele>
        <time>2022-10-05T13:04:04Z</time>
      </trkpt>
      <trkpt lat="49.72373" lon="2.37141">
        <ele>114.2</ele>
        <time>2022-10-05T13:04:05Z</time>
      </trkpt>
      <trkpt lat="49.72373" lon="2.37139">
        <ele>114.1</ele>
        <time>2022-10-05T13:04:06Z</time>
      </trkpt>
      <trkpt lat="49.72373" lon="2.37136">
        <ele>114</ele>
        <time>2022-10-05T13:04:08Z</time>
      </trkpt>
      <trkpt lat="49.72372" lon="2.37135">
        <ele>113.9</ele>
        <time>2022-10-05T13:04:09Z</time>
      </trkpt>
      <trkpt lat="49.72372" lon="2.37133">
        <ele>113.8</ele>
        <time>2022-10-05T13:04:10Z</time>
      </trkpt>
      <trkpt lat="49.72371" lon="2.3713">
        <ele>113.6</ele>
        <time>2022-10-05T13:04:11Z</time>
      </trkpt>
      <trkpt lat="49.72371" lon="2.37127">
        <ele>113.5</ele>
        <time>2022-10-05T13:04:12Z</time>
      </trkpt>
      <trkpt lat="49.72371" lon="2.37125">
        <ele>113.5</ele>
        <time>2022-10-05T13:04:13Z</time>
      </trkpt>
      <trkpt lat="49.72371" lon="2.37123">
        <ele>113.3</ele>
        <time>2022-10-05T13:04:15Z</time>
      </trkpt>
      <trkpt lat="49.7237" lon="2.37121">
        <ele>113.2</ele>
        <time>2022-10-05T13:04:16Z</time>
      </trkpt>
      <trkpt lat="49.7237" lon="2.37119">
        <ele>113.1</ele>
        <time>2022-10-05T13:04:17Z</time>
      </trkpt>
      <trkpt lat="49.7237" lon="2.37117">
        <ele>113.1</ele>
        <time>2022-10-05T13:04:18Z</time>
      </trkpt>
      <trkpt lat="49.7237" lon="2.37116">
        <ele>113</ele>
        <time>2022-10-05T13:04:19Z</time>
      </trkpt>
      <trkpt lat="49.7237" lon="2.37113">
        <ele>112.8</ele>
        <time>2022-10-05T13:04:20Z</time>
      </trkpt>
      <trkpt lat="49.72369" lon="2.37111">
        <ele>112.8</ele>
        <time>2022-10-05T13:04:21Z</time>
      </trkpt>
      <trkpt lat="49.72369" lon="2.3711">
        <ele>112.7</ele>
        <time>2022-10-05T13:04:22Z</time>
      </trkpt>
      <trkpt lat="49.72369" lon="2.37108">
        <ele>112.6</ele>
        <time>2022-10-05T13:04:24Z</time>
      </trkpt>
      <trkpt lat="49.72369" lon="2.37106">
        <ele>112.5</ele>
        <time>2022-10-05T13:04:25Z</time>
      </trkpt>
      <trkpt lat="49.72368" lon="2.37104">
        <ele>112.4</ele>
        <time>2022-10-05T13:04:26Z</time>
      </trkpt>
      <trkpt lat="49.72368" lon="2.37102">
        <ele>112.3</ele>
        <time>2022-10-05T13:04:27Z</time>
      </trkpt>
      <trkpt lat="49.72367" lon="2.37099">
        <ele>112.2</ele>
        <time>2022-10-05T13:04:29Z</time>
      </trkpt>
      <trkpt lat="49.72367" lon="2.37097">
        <ele>112.1</ele>
        <time>2022-10-05T13:04:30Z</time>
      </trkpt>
      <trkpt lat="49.72367" lon="2.37095">
        <ele>112</ele>
        <time>2022-10-05T13:04:31Z</time>
      </trkpt>
      <trkpt lat="49.72367" lon="2.37094">
        <ele>112</ele>
        <time>2022-10-05T13:04:32Z</time>
      </trkpt>
      <trkpt lat="49.72366" lon="2.37092">
        <ele>111.9</ele>
        <time>2022-10-05T13:04:33Z</time>
      </trkpt>
      <trkpt lat="49.72366" lon="2.3709">
        <ele>111.8</ele>
        <time>2022-10-05T13:04:34Z</time>
      </trkpt>
      <trkpt lat="49.72366" lon="2.37088">
        <ele>111.8</ele>
        <time>2022-10-05T13:04:36Z</time>
      </trkpt>
      <trkpt lat="49.72366" lon="2.37086">
        <ele>111.7</ele>
        <time>2022-10-05T13:04:37Z</time>
      </trkpt>
      <trkpt lat="49.72365" lon="2.37083">
        <ele>111.5</ele>
        <time>2022-10-05T13:04:38Z</time>
      </trkpt>
      <trkpt lat="49.72365" lon="2.37081">
        <ele>111.5</ele>
        <time>2022-10-05T13:04:39Z</time>
      </trkpt>
      <trkpt lat="49.72365" lon="2.37078">
        <ele>111.3</ele>
        <time>2022-10-05T13:04:40Z</time>
      </trkpt>
      <trkpt lat="49.72364" lon="2.37076">
        <ele>111.2</ele>
        <time>2022-10-05T13:04:42Z</time>
      </trkpt>
      <trkpt lat="49.72364" lon="2.37073">
        <ele>111.1</ele>
        <time>2022-10-05T13:04:43Z</time>
      </trkpt>
      <trkpt lat="49.72364" lon="2.37072">
        <ele>111.1</ele>
        <time>2022-10-05T13:04:44Z</time>
      </trkpt>
      <trkpt lat="49.72364" lon="2.37071">
        <ele>111</ele>
        <time>2022-10-05T13:04:45Z</time>
      </trkpt>
      <trkpt lat="49.72364" lon="2.3707">
        <ele>110.9</ele>
        <time>2022-10-05T13:04:46Z</time>
      </trkpt>
      <trkpt lat="49.72364" lon="2.37068">
        <ele>110.9</ele>
        <time>2022-10-05T13:04:47Z</time>
      </trkpt>
      <trkpt lat="49.72364" lon="2.37066">
        <ele>110.7</ele>
        <time>2022-10-05T13:04:48Z</time>
      </trkpt>
      <trkpt lat="49.72364" lon="2.37064">
        <ele>110.7</ele>
        <time>2022-10-05T13:04:49Z</time>
      </trkpt>
      <trkpt lat="49.72364" lon="2.37061">
        <ele>110.6</ele>
        <time>2022-10-05T13:04:51Z</time>
      </trkpt>
      <trkpt lat="49.72364" lon="2.3706">
        <ele>110.5</ele>
        <time>2022-10-05T13:04:52Z</time>
      </trkpt>
      <trkpt lat="49.72363" lon="2.37057">
        <ele>110.4</ele>
        <time>2022-10-05T13:04:53Z</time>
      </trkpt>
      <trkpt lat="49.72363" lon="2.37055">
        <ele>110.3</ele>
        <time>2022-10-05T13:04:54Z</time>
      </trkpt>
      <trkpt lat="49.72363" lon="2.37052">
        <ele>110.1</ele>
        <time>2022-10-05T13:04:55Z</time>
      </trkpt>
      <trkpt lat="49.72362" lon="2.37051">
        <ele>110</ele>
        <time>2022-10-05T13:04:56Z</time>
      </trkpt>
      <trkpt lat="49.72362" lon="2.37049">
        <ele>110</ele>
        <time>2022-10-05T13:04:57Z</time>
      </trkpt>
      <trkpt lat="49.72362" lon="2.37048">
        <ele>109.9</ele>
        <time>2022-10-05T13:04:58Z</time>
      </trkpt>
      <trkpt lat="49.72362" lon="2.37046">
        <ele>109.8</ele>
        <time>2022-10-05T13:04:59Z</time>
      </trkpt>
      <trkpt lat="49.72362" lon="2.37044">
        <ele>109.7</ele>
        <time>2022-10-05T13:05:00Z</time>
      </trkpt>
      <trkpt lat="49.72361" lon="2.37042">
        <ele>109.6</ele>
        <time>2022-10-05T13:05:01Z</time>
      </trkpt>
      <trkpt lat="49.72361" lon="2.37039">
        <ele>109.5</ele>
        <time>2022-10-05T13:05:03Z</time>
      </trkpt>
      <trkpt lat="49.72361" lon="2.37038">
        <ele>109.5</ele>
        <time>2022-10-05T13:05:04Z</time>
      </trkpt>
      <trkpt lat="49.7236" lon="2.37036">
        <ele>109.4</ele>
        <time>2022-10-05T13:05:05Z</time>
      </trkpt>
      <trkpt lat="49.7236" lon="2.37034">
        <ele>109.3</ele>
        <time>2022-10-05T13:05:06Z</time>
      </trkpt>
      <trkpt lat="49.7236" lon="2.37032">
        <ele>109.2</ele>
        <time>2022-10-05T13:05:07Z</time>
      </trkpt>
      <trkpt lat="49.7236" lon="2.37029">
        <ele>109.1</ele>
        <time>2022-10-05T13:05:08Z</time>
      </trkpt>
      <trkpt lat="49.72359" lon="2.37027">
        <ele>109</ele>
        <time>2022-10-05T13:05:09Z</time>
      </trkpt>
      <trkpt lat="49.72359" lon="2.37025">
        <ele>108.9</ele>
        <time>2022-10-05T13:05:10Z</time>
      </trkpt>
      <trkpt lat="49.72359" lon="2.37024">
        <ele>108.8</ele>
        <time>2022-10-05T13:05:11Z</time>
      </trkpt>
      <trkpt lat="49.72359" lon="2.37022">
        <ele>108.7</ele>
        <time>2022-10-05T13:05:12Z</time>
      </trkpt>
      <trkpt lat="49.72359" lon="2.37019">
        <ele>108.6</ele>
        <time>2022-10-05T13:05:13Z</time>
      </trkpt>
      <trkpt lat="49.72358" lon="2.37016">
        <ele>108.5</ele>
        <time>2022-10-05T13:05:15Z</time>
      </trkpt>
      <trkpt lat="49.72358" lon="2.37014">
        <ele>108.4</ele>
        <time>2022-10-05T13:05:16Z</time>
      </trkpt>
      <trkpt lat="49.72358" lon="2.37012">
        <ele>108.3</ele>
        <time>2022-10-05T13:05:17Z</time>
      </trkpt>
      <trkpt lat="49.72358" lon="2.37009">
        <ele>108.1</ele>
        <time>2022-10-05T13:05:18Z</time>
      </trkpt>
      <trkpt lat="49.72358" lon="2.37008">
        <ele>108.1</ele>
        <time>2022-10-05T13:05:19Z</time>
      </trkpt>
      <trkpt lat="49.72358" lon="2.37006">
        <ele>108</ele>
        <time>2022-10-05T13:05:20Z</time>
      </trkpt>
      <trkpt lat="49.72357" lon="2.37004">
        <ele>107.9</ele>
        <time>2022-10-05T13:05:21Z</time>
      </trkpt>
      <trkpt lat="49.72357" lon="2.37001">
        <ele>107.9</ele>
        <time>2022-10-05T13:05:22Z</time>
      </trkpt>
      <trkpt lat="49.72357" lon="2.36999">
        <ele>107.7</ele>
        <time>2022-10-05T13:05:24Z</time>
      </trkpt>
      <trkpt lat="49.72357" lon="2.36997">
        <ele>107.7</ele>
        <time>2022-10-05T13:05:25Z</time>
      </trkpt>
      <trkpt lat="49.72357" lon="2.36995">
        <ele>107.6</ele>
        <time>2022-10-05T13:05:26Z</time>
      </trkpt>
      <trkpt lat="49.72357" lon="2.36993">
        <ele>107.5</ele>
        <time>2022-10-05T13:05:27Z</time>
      </trkpt>
      <trkpt lat="49.72356" lon="2.3699">
        <ele>107.3</ele>
        <time>2022-10-05T13:05:28Z</time>
      </trkpt>
      <trkpt lat="49.72356" lon="2.36989">
        <ele>107.3</ele>
        <time>2022-10-05T13:05:29Z</time>
      </trkpt>
      <trkpt lat="49.72355" lon="2.36986">
        <ele>107.2</ele>
        <time>2022-10-05T13:05:31Z</time>
      </trkpt>
      <trkpt lat="49.72355" lon="2.36985">
        <ele>107.1</ele>
        <time>2022-10-05T13:05:32Z</time>
      </trkpt>
      <trkpt lat="49.72355" lon="2.36982">
        <ele>106.9</ele>
        <time>2022-10-05T13:05:33Z</time>
      </trkpt>
      <trkpt lat="49.72354" lon="2.3698">
        <ele>106.9</ele>
        <time>2022-10-05T13:05:34Z</time>
      </trkpt>
      <trkpt lat="49.72354" lon="2.36979">
        <ele>106.8</ele>
        <time>2022-10-05T13:05:35Z</time>
      </trkpt>
      <trkpt lat="49.72354" lon="2.36977">
        <ele>106.8</ele>
        <time>2022-10-05T13:05:36Z</time>
      </trkpt>
      <trkpt lat="49.72354" lon="2.36976">
        <ele>106.7</ele>
        <time>2022-10-05T13:05:37Z</time>
      </trkpt>
      <trkpt lat="49.72353" lon="2.36972">
        <ele>106.5</ele>
        <time>2022-10-05T13:05:38Z</time>
      </trkpt>
      <trkpt lat="49.72353" lon="2.36971">
        <ele>106.5</ele>
        <time>2022-10-05T13:05:39Z</time>
      </trkpt>
      <trkpt lat="49.72353" lon="2.3697">
        <ele>106.4</ele>
        <time>2022-10-05T13:05:40Z</time>
      </trkpt>
      <trkpt lat="49.72353" lon="2.36968">
        <ele>106.4</ele>
        <time>2022-10-05T13:05:42Z</time>
      </trkpt>
      <trkpt lat="49.72352" lon="2.36966">
        <ele>106.3</ele>
        <time>2022-10-05T13:05:43Z</time>
      </trkpt>
      <trkpt lat="49.72351" lon="2.36963">
        <ele>106.1</ele>
        <time>2022-10-05T13:05:44Z</time>
      </trkpt>
      <trkpt lat="49.72351" lon="2.36961">
        <ele>106.1</ele>
        <time>2022-10-05T13:05:45Z</time>
      </trkpt>
      <trkpt lat="49.72351" lon="2.3696">
        <ele>106</ele>
        <time>2022-10-05T13:05:46Z</time>
      </trkpt>
      <trkpt lat="49.7235" lon="2.36957">
        <ele>105.9</ele>
        <time>2022-10-05T13:05:48Z</time>
      </trkpt>
      <trkpt lat="49.7235" lon="2.36956">
        <ele>105.9</ele>
        <time>2022-10-05T13:05:49Z</time>
      </trkpt>
      <trkpt lat="49.7235" lon="2.36953">
        <ele>105.8</ele>
        <time>2022-10-05T13:05:50Z</time>
      </trkpt>
      <trkpt lat="49.72349" lon="2.36951">
        <ele>105.7</ele>
        <time>2022-10-05T13:05:51Z</time>
      </trkpt>
      <trkpt lat="49.72349" lon="2.3695">
        <ele>105.7</ele>
        <time>2022-10-05T13:05:52Z</time>
      </trkpt>
      <trkpt lat="49.72349" lon="2.36948">
        <ele>105.6</ele>
        <time>2022-10-05T13:05:53Z</time>
      </trkpt>
      <trkpt lat="49.72349" lon="2.36946">
        <ele>105.5</ele>
        <time>2022-10-05T13:05:54Z</time>
      </trkpt>
      <trkpt lat="49.72348" lon="2.36944">
        <ele>105.4</ele>
        <time>2022-10-05T13:05:55Z</time>
      </trkpt>
      <trkpt lat="49.72348" lon="2.36942">
        <ele>105.4</ele>
        <time>2022-10-05T13:05:57Z</time>
      </trkpt>
      <trkpt lat="49.72348" lon="2.36939">
        <ele>105.3</ele>
        <time>2022-10-05T13:05:58Z</time>
      </trkpt>
      <trkpt lat="49.72348" lon="2.36938">
        <ele>105.2</ele>
        <time>2022-10-05T13:05:59Z</time>
      </trkpt>
      <trkpt lat="49.72347" lon="2.36937">
        <ele>105.2</ele>
        <time>2022-10-05T13:06:00Z</time>
      </trkpt>
      <trkpt lat="49.72347" lon="2.36936">
        <ele>105.2</ele>
        <time>2022-10-05T13:06:01Z</time>
      </trkpt>
      <trkpt lat="49.72347" lon="2.36934">
        <ele>105.1</ele>
        <time>2022-10-05T13:06:02Z</time>
      </trkpt>
      <trkpt lat="49.72347" lon="2.36931">
        <ele>105.1</ele>
        <time>2022-10-05T13:06:03Z</time>
      </trkpt>
      <trkpt lat="49.72347" lon="2.36929">
        <ele>105</ele>
        <time>2022-10-05T13:06:04Z</time>
      </trkpt>
      <trkpt lat="49.72346" lon="2.36927">
        <ele>104.9</ele>
        <time>2022-10-05T13:06:05Z</time>
      </trkpt>
      <trkpt lat="49.72346" lon="2.36925">
        <ele>104.9</ele>
        <time>2022-10-05T13:06:07Z</time>
      </trkpt>
      <trkpt lat="49.72346" lon="2.36922">
        <ele>104.8</ele>
        <time>2022-10-05T13:06:08Z</time>
      </trkpt>
      <trkpt lat="49.72345" lon="2.3692">
        <ele>104.8</ele>
        <time>2022-10-05T13:06:09Z</time>
      </trkpt>
      <trkpt lat="49.72345" lon="2.36918">
        <ele>104.7</ele>
        <time>2022-10-05T13:06:10Z</time>
      </trkpt>
      <trkpt lat="49.72345" lon="2.36917">
        <ele>104.7</ele>
        <time>2022-10-05T13:06:11Z</time>
      </trkpt>
      <trkpt lat="49.72345" lon="2.36915">
        <ele>104.7</ele>
        <time>2022-10-05T13:06:12Z</time>
      </trkpt>
      <trkpt lat="49.72345" lon="2.36912">
        <ele>104.6</ele>
        <time>2022-10-05T13:06:13Z</time>
      </trkpt>
      <trkpt lat="49.72345" lon="2.3691">
        <ele>104.6</ele>
        <time>2022-10-05T13:06:15Z</time>
      </trkpt>
      <trkpt lat="49.72345" lon="2.36909">
        <ele>104.5</ele>
        <time>2022-10-05T13:06:16Z</time>
      </trkpt>
      <trkpt lat="49.72344" lon="2.36907">
        <ele>104.5</ele>
        <time>2022-10-05T13:06:17Z</time>
      </trkpt>
      <trkpt lat="49.72344" lon="2.36905">
        <ele>104.4</ele>
        <time>2022-10-05T13:06:18Z</time>
      </trkpt>
      <trkpt lat="49.72344" lon="2.36904">
        <ele>104.4</ele>
        <time>2022-10-05T13:06:19Z</time>
      </trkpt>
      <trkpt lat="49.72344" lon="2.36901">
        <ele>104.4</ele>
        <time>2022-10-05T13:06:21Z</time>
      </trkpt>
      <trkpt lat="49.72344" lon="2.36899">
        <ele>104.3</ele>
        <time>2022-10-05T13:06:22Z</time>
      </trkpt>
      <trkpt lat="49.72343" lon="2.36896">
        <ele>104.2</ele>
        <time>2022-10-05T13:06:23Z</time>
      </trkpt>
      <trkpt lat="49.72343" lon="2.36893">
        <ele>104.2</ele>
        <time>2022-10-05T13:06:24Z</time>
      </trkpt>
      <trkpt lat="49.72343" lon="2.36891">
        <ele>104.1</ele>
        <time>2022-10-05T13:06:25Z</time>
      </trkpt>
      <trkpt lat="49.72343" lon="2.3689">
        <ele>104.1</ele>
        <time>2022-10-05T13:06:26Z</time>
      </trkpt>
      <trkpt lat="49.72342" lon="2.36886">
        <ele>104</ele>
        <time>2022-10-05T13:06:29Z</time>
      </trkpt>
      <trkpt lat="49.72342" lon="2.36885">
        <ele>104</ele>
        <time>2022-10-05T13:06:30Z</time>
      </trkpt>
      <trkpt lat="49.72341" lon="2.36881">
        <ele>103.9</ele>
        <time>2022-10-05T13:06:31Z</time>
      </trkpt>
      <trkpt lat="49.72341" lon="2.3688">
        <ele>103.9</ele>
        <time>2022-10-05T13:06:32Z</time>
      </trkpt>
      <trkpt lat="49.72341" lon="2.36879">
        <ele>103.9</ele>
        <time>2022-10-05T13:06:33Z</time>
      </trkpt>
      <trkpt lat="49.7234" lon="2.36876">
        <ele>103.8</ele>
        <time>2022-10-05T13:06:34Z</time>
      </trkpt>
      <trkpt lat="49.7234" lon="2.36875">
        <ele>103.8</ele>
        <time>2022-10-05T13:06:35Z</time>
      </trkpt>
      <trkpt lat="49.7234" lon="2.36873">
        <ele>103.7</ele>
        <time>2022-10-05T13:06:36Z</time>
      </trkpt>
      <trkpt lat="49.7234" lon="2.3687">
        <ele>103.7</ele>
        <time>2022-10-05T13:06:38Z</time>
      </trkpt>
      <trkpt lat="49.72339" lon="2.36868">
        <ele>103.6</ele>
        <time>2022-10-05T13:06:39Z</time>
      </trkpt>
      <trkpt lat="49.72339" lon="2.36866">
        <ele>103.6</ele>
        <time>2022-10-05T13:06:40Z</time>
      </trkpt>
      <trkpt lat="49.72339" lon="2.36864">
        <ele>103.6</ele>
        <time>2022-10-05T13:06:41Z</time>
      </trkpt>
      <trkpt lat="49.72339" lon="2.36862">
        <ele>103.5</ele>
        <time>2022-10-05T13:06:42Z</time>
      </trkpt>
      <trkpt lat="49.72339" lon="2.3686">
        <ele>103.5</ele>
        <time>2022-10-05T13:06:43Z</time>
      </trkpt>
      <trkpt lat="49.72338" lon="2.36858">
        <ele>103.5</ele>
        <time>2022-10-05T13:06:44Z</time>
      </trkpt>
      <trkpt lat="49.72338" lon="2.36856">
        <ele>103.4</ele>
        <time>2022-10-05T13:06:45Z</time>
      </trkpt>
      <trkpt lat="49.72338" lon="2.36854">
        <ele>103.4</ele>
        <time>2022-10-05T13:06:46Z</time>
      </trkpt>
      <trkpt lat="49.72337" lon="2.36852">
        <ele>103.3</ele>
        <time>2022-10-05T13:06:48Z</time>
      </trkpt>
      <trkpt lat="49.72337" lon="2.3685">
        <ele>103.3</ele>
        <time>2022-10-05T13:06:49Z</time>
      </trkpt>
      <trkpt lat="49.72337" lon="2.36849">
        <ele>103.3</ele>
        <time>2022-10-05T13:06:50Z</time>
      </trkpt>
      <trkpt lat="49.72337" lon="2.36847">
        <ele>103.2</ele>
        <time>2022-10-05T13:06:51Z</time>
      </trkpt>
      <trkpt lat="49.72337" lon="2.36845">
        <ele>103.2</ele>
        <time>2022-10-05T13:06:52Z</time>
      </trkpt>
      <trkpt lat="49.72336" lon="2.36841">
        <ele>103.1</ele>
        <time>2022-10-05T13:06:54Z</time>
      </trkpt>
      <trkpt lat="49.72336" lon="2.36839">
        <ele>103.1</ele>
        <time>2022-10-05T13:06:55Z</time>
      </trkpt>
      <trkpt lat="49.72336" lon="2.36838">
        <ele>103.1</ele>
        <time>2022-10-05T13:06:56Z</time>
      </trkpt>
      <trkpt lat="49.72335" lon="2.36836">
        <ele>103.1</ele>
        <time>2022-10-05T13:06:57Z</time>
      </trkpt>
      <trkpt lat="49.72335" lon="2.36834">
        <ele>103</ele>
        <time>2022-10-05T13:06:58Z</time>
      </trkpt>
      <trkpt lat="49.72335" lon="2.36831">
        <ele>103</ele>
        <time>2022-10-05T13:06:59Z</time>
      </trkpt>
      <trkpt lat="49.72335" lon="2.36829">
        <ele>102.9</ele>
        <time>2022-10-05T13:07:00Z</time>
      </trkpt>
      <trkpt lat="49.72335" lon="2.36827">
        <ele>102.9</ele>
        <time>2022-10-05T13:07:01Z</time>
      </trkpt>
      <trkpt lat="49.72335" lon="2.36825">
        <ele>102.9</ele>
        <time>2022-10-05T13:07:02Z</time>
      </trkpt>
      <trkpt lat="49.72335" lon="2.36823">
        <ele>102.8</ele>
        <time>2022-10-05T13:07:04Z</time>
      </trkpt>
      <trkpt lat="49.72335" lon="2.36821">
        <ele>102.8</ele>
        <time>2022-10-05T13:07:05Z</time>
      </trkpt>
      <trkpt lat="49.72335" lon="2.36818">
        <ele>102.7</ele>
        <time>2022-10-05T13:07:06Z</time>
      </trkpt>
      <trkpt lat="49.72334" lon="2.36816">
        <ele>102.7</ele>
        <time>2022-10-05T13:07:07Z</time>
      </trkpt>
      <trkpt lat="49.72334" lon="2.36814">
        <ele>102.7</ele>
        <time>2022-10-05T13:07:08Z</time>
      </trkpt>
      <trkpt lat="49.72334" lon="2.36812">
        <ele>102.7</ele>
        <time>2022-10-05T13:07:10Z</time>
      </trkpt>
      <trkpt lat="49.72334" lon="2.36811">
        <ele>102.6</ele>
        <time>2022-10-05T13:07:11Z</time>
      </trkpt>
      <trkpt lat="49.72333" lon="2.36809">
        <ele>102.6</ele>
        <time>2022-10-05T13:07:12Z</time>
      </trkpt>
      <trkpt lat="49.72333" lon="2.36808">
        <ele>102.6</ele>
        <time>2022-10-05T13:07:13Z</time>
      </trkpt>
      <trkpt lat="49.72333" lon="2.36806">
        <ele>102.5</ele>
        <time>2022-10-05T13:07:14Z</time>
      </trkpt>
      <trkpt lat="49.72332" lon="2.36804">
        <ele>102.5</ele>
        <time>2022-10-05T13:07:15Z</time>
      </trkpt>
      <trkpt lat="49.72332" lon="2.36803">
        <ele>102.5</ele>
        <time>2022-10-05T13:07:16Z</time>
      </trkpt>
      <trkpt lat="49.72332" lon="2.36801">
        <ele>102.5</ele>
        <time>2022-10-05T13:07:17Z</time>
      </trkpt>
      <trkpt lat="49.72332" lon="2.36799">
        <ele>102.4</ele>
        <time>2022-10-05T13:07:18Z</time>
      </trkpt>
      <trkpt lat="49.72332" lon="2.36798">
        <ele>102.4</ele>
        <time>2022-10-05T13:07:19Z</time>
      </trkpt>
      <trkpt lat="49.72331" lon="2.36796">
        <ele>102.4</ele>
        <time>2022-10-05T13:07:20Z</time>
      </trkpt>
      <trkpt lat="49.72331" lon="2.36794">
        <ele>102.3</ele>
        <time>2022-10-05T13:07:21Z</time>
      </trkpt>
      <trkpt lat="49.72331" lon="2.36791">
        <ele>102.3</ele>
        <time>2022-10-05T13:07:23Z</time>
      </trkpt>
      <trkpt lat="49.7233" lon="2.36789">
        <ele>102.2</ele>
        <time>2022-10-05T13:07:24Z</time>
      </trkpt>
      <trkpt lat="49.7233" lon="2.36787">
        <ele>102.2</ele>
        <time>2022-10-05T13:07:25Z</time>
      </trkpt>
      <trkpt lat="49.7233" lon="2.36784">
        <ele>102.1</ele>
        <time>2022-10-05T13:07:26Z</time>
      </trkpt>
      <trkpt lat="49.72329" lon="2.36782">
        <ele>102.1</ele>
        <time>2022-10-05T13:07:27Z</time>
      </trkpt>
      <trkpt lat="49.72329" lon="2.3678">
        <ele>102.1</ele>
        <time>2022-10-05T13:07:28Z</time>
      </trkpt>
      <trkpt lat="49.72329" lon="2.36777">
        <ele>102</ele>
        <time>2022-10-05T13:07:30Z</time>
      </trkpt>
      <trkpt lat="49.72328" lon="2.36774">
        <ele>102</ele>
        <time>2022-10-05T13:07:31Z</time>
      </trkpt>
      <trkpt lat="49.72328" lon="2.36773">
        <ele>102</ele>
        <time>2022-10-05T13:07:32Z</time>
      </trkpt>
      <trkpt lat="49.72328" lon="2.36771">
        <ele>101.9</ele>
        <time>2022-10-05T13:07:33Z</time>
      </trkpt>
      <trkpt lat="49.72328" lon="2.3677">
        <ele>101.9</ele>
        <time>2022-10-05T13:07:34Z</time>
      </trkpt>
      <trkpt lat="49.72328" lon="2.36768">
        <ele>101.9</ele>
        <time>2022-10-05T13:07:35Z</time>
      </trkpt>
      <trkpt lat="49.72328" lon="2.36765">
        <ele>101.8</ele>
        <time>2022-10-05T13:07:36Z</time>
      </trkpt>
      <trkpt lat="49.72327" lon="2.36764">
        <ele>101.8</ele>
        <time>2022-10-05T13:07:37Z</time>
      </trkpt>
      <trkpt lat="49.72327" lon="2.36763">
        <ele>101.8</ele>
        <time>2022-10-05T13:07:38Z</time>
      </trkpt>
      <trkpt lat="49.72327" lon="2.36759">
        <ele>101.7</ele>
        <time>2022-10-05T13:07:39Z</time>
      </trkpt>
      <trkpt lat="49.72327" lon="2.36758">
        <ele>101.7</ele>
        <time>2022-10-05T13:07:40Z</time>
      </trkpt>
      <trkpt lat="49.72327" lon="2.36756">
        <ele>101.7</ele>
        <time>2022-10-05T13:07:41Z</time>
      </trkpt>
      <trkpt lat="49.72326" lon="2.36753">
        <ele>101.6</ele>
        <time>2022-10-05T13:07:43Z</time>
      </trkpt>
      <trkpt lat="49.72326" lon="2.36752">
        <ele>101.6</ele>
        <time>2022-10-05T13:07:44Z</time>
      </trkpt>
      <trkpt lat="49.72326" lon="2.3675">
        <ele>101.5</ele>
        <time>2022-10-05T13:07:45Z</time>
      </trkpt>
      <trkpt lat="49.72326" lon="2.36747">
        <ele>101.5</ele>
        <time>2022-10-05T13:07:46Z</time>
      </trkpt>
      <trkpt lat="49.72326" lon="2.36746">
        <ele>101.5</ele>
        <time>2022-10-05T13:07:47Z</time>
      </trkpt>
      <trkpt lat="49.72326" lon="2.36743">
        <ele>101.4</ele>
        <time>2022-10-05T13:07:49Z</time>
      </trkpt>
      <trkpt lat="49.72326" lon="2.36741">
        <ele>101.4</ele>
        <time>2022-10-05T13:07:50Z</time>
      </trkpt>
      <trkpt lat="49.72326" lon="2.36738">
        <ele>101.3</ele>
        <time>2022-10-05T13:07:51Z</time>
      </trkpt>
      <trkpt lat="49.72325" lon="2.36737">
        <ele>101.3</ele>
        <time>2022-10-05T13:07:52Z</time>
      </trkpt>
      <trkpt lat="49.72325" lon="2.36734">
        <ele>101.2</ele>
        <time>2022-10-05T13:07:53Z</time>
      </trkpt>
      <trkpt lat="49.72325" lon="2.36732">
        <ele>101.2</ele>
        <time>2022-10-05T13:07:54Z</time>
      </trkpt>
      <trkpt lat="49.72325" lon="2.36731">
        <ele>101.2</ele>
        <time>2022-10-05T13:07:55Z</time>
      </trkpt>
      <trkpt lat="49.72324" lon="2.36728">
        <ele>101.1</ele>
        <time>2022-10-05T13:07:56Z</time>
      </trkpt>
      <trkpt lat="49.72324" lon="2.36726">
        <ele>101.1</ele>
        <time>2022-10-05T13:07:57Z</time>
      </trkpt>
      <trkpt lat="49.72324" lon="2.36725">
        <ele>101.1</ele>
        <time>2022-10-05T13:07:58Z</time>
      </trkpt>
      <trkpt lat="49.72324" lon="2.36723">
        <ele>101</ele>
        <time>2022-10-05T13:08:00Z</time>
      </trkpt>
      <trkpt lat="49.72323" lon="2.3672">
        <ele>101</ele>
        <time>2022-10-05T13:08:01Z</time>
      </trkpt>
      <trkpt lat="49.72323" lon="2.36718">
        <ele>100.9</ele>
        <time>2022-10-05T13:08:02Z</time>
      </trkpt>
      <trkpt lat="49.72322" lon="2.36715">
        <ele>100.9</ele>
        <time>2022-10-05T13:08:03Z</time>
      </trkpt>
      <trkpt lat="49.72322" lon="2.36711">
        <ele>100.8</ele>
        <time>2022-10-05T13:08:05Z</time>
      </trkpt>
      <trkpt lat="49.72322" lon="2.36708">
        <ele>100.7</ele>
        <time>2022-10-05T13:08:07Z</time>
      </trkpt>
      <trkpt lat="49.72322" lon="2.36707">
        <ele>100.7</ele>
        <time>2022-10-05T13:08:08Z</time>
      </trkpt>
      <trkpt lat="49.72321" lon="2.36706">
        <ele>100.7</ele>
        <time>2022-10-05T13:08:09Z</time>
      </trkpt>
      <trkpt lat="49.72321" lon="2.36703">
        <ele>100.6</ele>
        <time>2022-10-05T13:08:10Z</time>
      </trkpt>
      <trkpt lat="49.7232" lon="2.36702">
        <ele>100.6</ele>
        <time>2022-10-05T13:08:11Z</time>
      </trkpt>
      <trkpt lat="49.7232" lon="2.367">
        <ele>100.6</ele>
        <time>2022-10-05T13:08:12Z</time>
      </trkpt>
      <trkpt lat="49.7232" lon="2.36699">
        <ele>100.6</ele>
        <time>2022-10-05T13:08:13Z</time>
      </trkpt>
      <trkpt lat="49.7232" lon="2.36697">
        <ele>100.5</ele>
        <time>2022-10-05T13:08:14Z</time>
      </trkpt>
      <trkpt lat="49.7232" lon="2.36695">
        <ele>100.5</ele>
        <time>2022-10-05T13:08:15Z</time>
      </trkpt>
      <trkpt lat="49.72319" lon="2.36691">
        <ele>100.4</ele>
        <time>2022-10-05T13:08:16Z</time>
      </trkpt>
      <trkpt lat="49.72319" lon="2.3669">
        <ele>100.3</ele>
        <time>2022-10-05T13:08:18Z</time>
      </trkpt>
      <trkpt lat="49.72319" lon="2.36688">
        <ele>100.3</ele>
        <time>2022-10-05T13:08:19Z</time>
      </trkpt>
      <trkpt lat="49.72318" lon="2.36686">
        <ele>100.3</ele>
        <time>2022-10-05T13:08:20Z</time>
      </trkpt>
      <trkpt lat="49.72318" lon="2.36685">
        <ele>100.2</ele>
        <time>2022-10-05T13:08:21Z</time>
      </trkpt>
      <trkpt lat="49.72317" lon="2.36682">
        <ele>100.2</ele>
        <time>2022-10-05T13:08:22Z</time>
      </trkpt>
      <trkpt lat="49.72317" lon="2.3668">
        <ele>100.1</ele>
        <time>2022-10-05T13:08:23Z</time>
      </trkpt>
      <trkpt lat="49.72317" lon="2.36678">
        <ele>100.1</ele>
        <time>2022-10-05T13:08:24Z</time>
      </trkpt>
      <trkpt lat="49.72317" lon="2.36675">
        <ele>100</ele>
        <time>2022-10-05T13:08:26Z</time>
      </trkpt>
      <trkpt lat="49.72316" lon="2.36673">
        <ele>100</ele>
        <time>2022-10-05T13:08:27Z</time>
      </trkpt>
      <trkpt lat="49.72316" lon="2.36671">
        <ele>99.9</ele>
        <time>2022-10-05T13:08:28Z</time>
      </trkpt>
      <trkpt lat="49.72316" lon="2.36668">
        <ele>99.9</ele>
        <time>2022-10-05T13:08:29Z</time>
      </trkpt>
      <trkpt lat="49.72316" lon="2.36666">
        <ele>99.8</ele>
        <time>2022-10-05T13:08:30Z</time>
      </trkpt>
      <trkpt lat="49.72316" lon="2.36664">
        <ele>99.8</ele>
        <time>2022-10-05T13:08:31Z</time>
      </trkpt>
      <trkpt lat="49.72315" lon="2.36662">
        <ele>99.7</ele>
        <time>2022-10-05T13:08:32Z</time>
      </trkpt>
      <trkpt lat="49.72315" lon="2.3666">
        <ele>99.7</ele>
        <time>2022-10-05T13:08:33Z</time>
      </trkpt>
      <trkpt lat="49.72315" lon="2.36658">
        <ele>99.7</ele>
        <time>2022-10-05T13:08:34Z</time>
      </trkpt>
      <trkpt lat="49.72315" lon="2.36656">
        <ele>99.6</ele>
        <time>2022-10-05T13:08:35Z</time>
      </trkpt>
      <trkpt lat="49.72315" lon="2.36653">
        <ele>99.6</ele>
        <time>2022-10-05T13:08:37Z</time>
      </trkpt>
      <trkpt lat="49.72315" lon="2.36652">
        <ele>99.6</ele>
        <time>2022-10-05T13:08:38Z</time>
      </trkpt>
      <trkpt lat="49.72314" lon="2.36651">
        <ele>99.5</ele>
        <time>2022-10-05T13:08:39Z</time>
      </trkpt>
      <trkpt lat="49.72314" lon="2.36649">
        <ele>99.5</ele>
        <time>2022-10-05T13:08:41Z</time>
      </trkpt>
      <trkpt lat="49.72314" lon="2.36648">
        <ele>99.5</ele>
        <time>2022-10-05T13:08:42Z</time>
      </trkpt>
      <trkpt lat="49.72313" lon="2.36646">
        <ele>99.5</ele>
        <time>2022-10-05T13:08:44Z</time>
      </trkpt>
      <trkpt lat="49.72313" lon="2.36645">
        <ele>99.5</ele>
        <time>2022-10-05T13:08:45Z</time>
      </trkpt>
      <trkpt lat="49.72313" lon="2.36644">
        <ele>99.5</ele>
        <time>2022-10-05T13:08:46Z</time>
      </trkpt>
      <trkpt lat="49.72314" lon="2.36643">
        <ele>99.5</ele>
        <time>2022-10-05T13:08:47Z</time>
      </trkpt>
      <trkpt lat="49.72314" lon="2.36642">
        <ele>99.5</ele>
        <time>2022-10-05T13:08:48Z</time>
      </trkpt>
      <trkpt lat="49.72314" lon="2.36642">
        <ele>99.5</ele>
        <time>2022-10-05T13:08:49Z</time>
      </trkpt>
      <trkpt lat="49.72314" lon="2.36642">
        <ele>99.5</ele>
        <time>2022-10-05T13:08:50Z</time>
      </trkpt>
      <trkpt lat="49.72314" lon="2.36642">
        <ele>99.5</ele>
        <time>2022-10-05T13:08:51Z</time>
      </trkpt>
      <trkpt lat="49.72314" lon="2.36642">
        <ele>99.4</ele>
        <time>2022-10-05T13:08:52Z</time>
      </trkpt>
      <trkpt lat="49.72314" lon="2.36642">
        <ele>99.4</ele>
        <time>2022-10-05T13:08:53Z</time>
      </trkpt>
      <trkpt lat="49.72314" lon="2.36643">
        <ele>99.4</ele>
        <time>2022-10-05T13:08:54Z</time>
      </trkpt>
      <trkpt lat="49.72314" lon="2.36643">
        <ele>99.4</ele>
        <time>2022-10-05T13:08:55Z</time>
      </trkpt>
      <trkpt lat="49.72314" lon="2.36643">
        <ele>99.4</ele>
        <time>2022-10-05T13:08:56Z</time>
      </trkpt>
      <trkpt lat="49.72315" lon="2.36643">
        <ele>99.4</ele>
        <time>2022-10-05T13:08:57Z</time>
      </trkpt>
      <trkpt lat="49.72315" lon="2.36643">
        <ele>99.4</ele>
        <time>2022-10-05T13:08:58Z</time>
      </trkpt>
      <trkpt lat="49.72315" lon="2.36643">
        <ele>99.4</ele>
        <time>2022-10-05T13:08:59Z</time>
      </trkpt>
      <trkpt lat="49.72315" lon="2.36643">
        <ele>99.4</ele>
        <time>2022-10-05T13:09:00Z</time>
      </trkpt>
      <trkpt lat="49.72315" lon="2.36643">
        <ele>99.4</ele>
        <time>2022-10-05T13:09:01Z</time>
      </trkpt>
      <trkpt lat="49.72315" lon="2.36643">
        <ele>99.4</ele>
        <time>2022-10-05T13:09:02Z</time>
      </trkpt>
      <trkpt lat="49.72315" lon="2.36644">
        <ele>99.4</ele>
        <time>2022-10-05T13:09:03Z</time>
      </trkpt>
      <trkpt lat="49.72315" lon="2.36644">
        <ele>99.4</ele>
        <time>2022-10-05T13:09:04Z</time>
      </trkpt>
      <trkpt lat="49.72315" lon="2.36644">
        <ele>99.4</ele>
        <time>2022-10-05T13:09:05Z</time>
      </trkpt>
      <trkpt lat="49.72314" lon="2.36644">
        <ele>99.4</ele>
        <time>2022-10-05T13:09:06Z</time>
      </trkpt>
      <trkpt lat="49.72314" lon="2.36644">
        <ele>99.4</ele>
        <time>2022-10-05T13:09:07Z</time>
      </trkpt>
      <trkpt lat="49.72314" lon="2.36644">
        <ele>99.4</ele>
        <time>2022-10-05T13:09:08Z</time>
      </trkpt>
      <trkpt lat="49.72314" lon="2.36644">
        <ele>99.4</ele>
        <time>2022-10-05T13:09:09Z</time>
      </trkpt>
      <trkpt lat="49.72314" lon="2.36644">
        <ele>99.4</ele>
        <time>2022-10-05T13:09:10Z</time>
      </trkpt>
      <trkpt lat="49.72314" lon="2.36644">
        <ele>99.4</ele>
        <time>2022-10-05T13:09:11Z</time>
      </trkpt>
      <trkpt lat="49.72314" lon="2.36644">
        <ele>99.4</ele>
        <time>2022-10-05T13:09:12Z</time>
      </trkpt>
      <trkpt lat="49.72314" lon="2.36644">
        <ele>99.4</ele>
        <time>2022-10-05T13:09:13Z</time>
      </trkpt>
      <trkpt lat="49.72314" lon="2.36644">
        <ele>99.4</ele>
        <time>2022-10-05T13:09:14Z</time>
      </trkpt>
      <trkpt lat="49.72314" lon="2.36644">
        <ele>99.4</ele>
        <time>2022-10-05T13:09:15Z</time>
      </trkpt>
      <trkpt lat="49.72314" lon="2.36644">
        <ele>99.4</ele>
        <time>2022-10-05T13:09:16Z</time>
      </trkpt>
      <trkpt lat="49.72314" lon="2.36644">
        <ele>99.4</ele>
        <time>2022-10-05T13:09:17Z</time>
      </trkpt>
      <trkpt lat="49.72314" lon="2.36644">
        <ele>99.4</ele>
        <time>2022-10-05T13:09:18Z</time>
      </trkpt>
      <trkpt lat="49.72314" lon="2.36644">
        <ele>99.4</ele>
        <time>2022-10-05T13:09:19Z</time>
      </trkpt>
      <trkpt lat="49.72314" lon="2.36644">
        <ele>99.4</ele>
        <time>2022-10-05T13:09:20Z</time>
      </trkpt>
      <trkpt lat="49.72314" lon="2.36644">
        <ele>99.4</ele>
        <time>2022-10-05T13:09:21Z</time>
      </trkpt>
      <trkpt lat="49.72314" lon="2.36644">
        <ele>99.4</ele>
        <time>2022-10-05T13:09:22Z</time>
      </trkpt>
      <trkpt lat="49.72314" lon="2.36644">
        <ele>99.4</ele>
        <time>2022-10-05T13:09:23Z</time>
      </trkpt>
      <trkpt lat="49.72314" lon="2.36644">
        <ele>99.4</ele>
        <time>2022-10-05T13:09:24Z</time>
      </trkpt>
      <trkpt lat="49.72314" lon="2.36644">
        <ele>99.4</ele>
        <time>2022-10-05T13:09:25Z</time>
      </trkpt>
      <trkpt lat="49.72314" lon="2.36644">
        <ele>99.4</ele>
        <time>2022-10-05T13:09:26Z</time>
      </trkpt>
      <trkpt lat="49.72314" lon="2.36644">
        <ele>99.4</ele>
        <time>2022-10-05T13:09:27Z</time>
      </trkpt>
      <trkpt lat="49.72314" lon="2.36644">
        <ele>99.4</ele>
        <time>2022-10-05T13:09:28Z</time>
      </trkpt>
      <trkpt lat="49.72314" lon="2.36644">
        <ele>99.4</ele>
        <time>2022-10-05T13:09:29Z</time>
      </trkpt>
      <trkpt lat="49.72314" lon="2.36644">
        <ele>99.4</ele>
        <time>2022-10-05T13:09:30Z</time>
      </trkpt>
      <trkpt lat="49.72314" lon="2.36644">
        <ele>99.4</ele>
        <time>2022-10-05T13:09:31Z</time>
      </trkpt>
      <trkpt lat="49.72314" lon="2.36644">
        <ele>99.4</ele>
        <time>2022-10-05T13:09:32Z</time>
      </trkpt>
      <trkpt lat="49.72314" lon="2.36644">
        <ele>99.4</ele>
        <time>2022-10-05T13:09:33Z</time>
      </trkpt>
      <trkpt lat="49.72314" lon="2.36644">
        <ele>99.4</ele>
        <time>2022-10-05T13:09:34Z</time>
      </trkpt>
      <trkpt lat="49.72314" lon="2.36644">
        <ele>99.4</ele>
        <time>2022-10-05T13:09:35Z</time>
      </trkpt>
      <trkpt lat="49.72314" lon="2.36644">
        <ele>99.4</ele>
        <time>2022-10-05T13:09:36Z</time>
      </trkpt>
      <trkpt lat="49.72314" lon="2.36644">
        <ele>99.4</ele>
        <time>2022-10-05T13:09:37Z</time>
      </trkpt>
      <trkpt lat="49.72314" lon="2.36644">
        <ele>99.4</ele>
        <time>2022-10-05T13:09:38Z</time>
      </trkpt>
      <trkpt lat="49.72314" lon="2.36644">
        <ele>99.4</ele>
        <time>2022-10-05T13:09:39Z</time>
      </trkpt>
      <trkpt lat="49.72314" lon="2.36644">
        <ele>99.4</ele>
        <time>2022-10-05T13:09:40Z</time>
      </trkpt>
      <trkpt lat="49.72314" lon="2.36644">
        <ele>99.4</ele>
        <time>2022-10-05T13:09:41Z</time>
      </trkpt>
      <trkpt lat="49.72314" lon="2.36644">
        <ele>99.4</ele>
        <time>2022-10-05T13:09:42Z</time>
      </trkpt>
      <trkpt lat="49.72314" lon="2.36644">
        <ele>99.4</ele>
        <time>2022-10-05T13:09:43Z</time>
      </trkpt>
      <trkpt lat="49.72314" lon="2.36644">
        <ele>99.4</ele>
        <time>2022-10-05T13:09:44Z</time>
      </trkpt>
      <trkpt lat="49.72314" lon="2.36644">
        <ele>99.4</ele>
        <time>2022-10-05T13:09:45Z</time>
      </trkpt>
      <trkpt lat="49.72314" lon="2.36644">
        <ele>99.4</ele>
        <time>2022-10-05T13:09:46Z</time>
      </trkpt>
      <trkpt lat="49.72314" lon="2.36644">
        <ele>99.4</ele>
        <time>2022-10-05T13:09:47Z</time>
      </trkpt>
      <trkpt lat="49.72314" lon="2.36644">
        <ele>99.4</ele>
        <time>2022-10-05T13:09:48Z</time>
      </trkpt>
      <trkpt lat="49.72314" lon="2.36644">
        <ele>99.4</ele>
        <time>2022-10-05T13:09:49Z</time>
      </trkpt>
      <trkpt lat="49.72314" lon="2.36644">
        <ele>99.4</ele>
        <time>2022-10-05T13:09:50Z</time>
      </trkpt>
      <trkpt lat="49.72314" lon="2.36644">
        <ele>99.4</ele>
        <time>2022-10-05T13:09:51Z</time>
      </trkpt>
      <trkpt lat="49.72314" lon="2.36644">
        <ele>99.4</ele>
        <time>2022-10-05T13:09:52Z</time>
      </trkpt>
      <trkpt lat="49.72314" lon="2.36644">
        <ele>99.4</ele>
        <time>2022-10-05T13:09:53Z</time>
      </trkpt>
      <trkpt lat="49.72314" lon="2.36644">
        <ele>99.4</ele>
        <time>2022-10-05T13:09:54Z</time>
      </trkpt>
      <trkpt lat="49.72314" lon="2.36644">
        <ele>99.4</ele>
        <time>2022-10-05T13:09:55Z</time>
      </trkpt>
      <trkpt lat="49.72314" lon="2.36644">
        <ele>99.4</ele>
        <time>2022-10-05T13:09:56Z</time>
      </trkpt>
      <trkpt lat="49.72314" lon="2.36644">
        <ele>99.4</ele>
        <time>2022-10-05T13:09:57Z</time>
      </trkpt>
      <trkpt lat="49.72314" lon="2.36644">
        <ele>99.4</ele>
        <time>2022-10-05T13:09:58Z</time>
      </trkpt>
      <trkpt lat="49.72314" lon="2.36644">
        <ele>99.4</ele>
        <time>2022-10-05T13:09:59Z</time>
      </trkpt>
      <trkpt lat="49.72314" lon="2.36644">
        <ele>99.4</ele>
        <time>2022-10-05T13:10:00Z</time>
      </trkpt>
      <trkpt lat="49.72314" lon="2.36644">
        <ele>99.4</ele>
        <time>2022-10-05T13:10:01Z</time>
      </trkpt>
      <trkpt lat="49.72314" lon="2.36644">
        <ele>99.4</ele>
        <time>2022-10-05T13:10:02Z</time>
      </trkpt>
      <trkpt lat="49.72314" lon="2.36644">
        <ele>99.4</ele>
        <time>2022-10-05T13:10:03Z</time>
      </trkpt>
      <trkpt lat="49.72314" lon="2.36644">
        <ele>99.4</ele>
        <time>2022-10-05T13:10:04Z</time>
      </trkpt>
      <trkpt lat="49.72314" lon="2.36644">
        <ele>99.4</ele>
        <time>2022-10-05T13:10:05Z</time>
      </trkpt>
      <trkpt lat="49.72314" lon="2.36644">
        <ele>99.4</ele>
        <time>2022-10-05T13:10:06Z</time>
      </trkpt>
      <trkpt lat="49.72314" lon="2.36644">
        <ele>99.4</ele>
        <time>2022-10-05T13:10:07Z</time>
      </trkpt>
      <trkpt lat="49.72314" lon="2.36644">
        <ele>99.4</ele>
        <time>2022-10-05T13:10:08Z</time>
      </trkpt>
      <trkpt lat="49.72314" lon="2.36644">
        <ele>99.4</ele>
        <time>2022-10-05T13:10:09Z</time>
      </trkpt>
      <trkpt lat="49.72314" lon="2.36644">
        <ele>99.4</ele>
        <time>2022-10-05T13:10:10Z</time>
      </trkpt>
      <trkpt lat="49.72314" lon="2.36644">
        <ele>99.4</ele>
        <time>2022-10-05T13:10:11Z</time>
      </trkpt>
      <trkpt lat="49.72314" lon="2.36644">
        <ele>99.4</ele>
        <time>2022-10-05T13:10:12Z</time>
      </trkpt>
      <trkpt lat="49.72314" lon="2.36644">
        <ele>99.4</ele>
        <time>2022-10-05T13:10:13Z</time>
      </trkpt>
      <trkpt lat="49.72314" lon="2.36644">
        <ele>99.4</ele>
        <time>2022-10-05T13:10:14Z</time>
      </trkpt>
      <trkpt lat="49.72314" lon="2.36644">
        <ele>99.4</ele>
        <time>2022-10-05T13:10:15Z</time>
      </trkpt>
      <trkpt lat="49.72314" lon="2.36644">
        <ele>99.4</ele>
        <time>2022-10-05T13:10:16Z</time>
      </trkpt>
      <trkpt lat="49.72314" lon="2.36644">
        <ele>99.4</ele>
        <time>2022-10-05T13:10:17Z</time>
      </trkpt>
      <trkpt lat="49.72314" lon="2.36644">
        <ele>99.4</ele>
        <time>2022-10-05T13:10:18Z</time>
      </trkpt>
      <trkpt lat="49.72314" lon="2.36644">
        <ele>99.4</ele>
        <time>2022-10-05T13:10:19Z</time>
      </trkpt>
      <trkpt lat="49.72314" lon="2.36644">
        <ele>99.4</ele>
        <time>2022-10-05T13:10:20Z</time>
      </trkpt>
      <trkpt lat="49.72314" lon="2.36644">
        <ele>99.4</ele>
        <time>2022-10-05T13:10:21Z</time>
      </trkpt>
      <trkpt lat="49.72314" lon="2.36644">
        <ele>99.4</ele>
        <time>2022-10-05T13:10:22Z</time>
      </trkpt>
      <trkpt lat="49.72314" lon="2.36644">
        <ele>99.4</ele>
        <time>2022-10-05T13:10:23Z</time>
      </trkpt>
      <trkpt lat="49.72314" lon="2.36644">
        <ele>99.4</ele>
        <time>2022-10-05T13:10:24Z</time>
      </trkpt>
      <trkpt lat="49.72314" lon="2.36644">
        <ele>99.4</ele>
        <time>2022-10-05T13:10:25Z</time>
      </trkpt>
      <trkpt lat="49.72314" lon="2.36644">
        <ele>99.4</ele>
        <time>2022-10-05T13:10:26Z</time>
      </trkpt>
      <trkpt lat="49.72314" lon="2.36644">
        <ele>99.4</ele>
        <time>2022-10-05T13:10:27Z</time>
      </trkpt>
      <trkpt lat="49.72314" lon="2.36644">
        <ele>99.4</ele>
        <time>2022-10-05T13:10:28Z</time>
      </trkpt>
      <trkpt lat="49.72314" lon="2.36644">
        <ele>99.4</ele>
        <time>2022-10-05T13:10:29Z</time>
      </trkpt>
      <trkpt lat="49.72314" lon="2.36644">
        <ele>99.4</ele>
        <time>2022-10-05T13:10:30Z</time>
      </trkpt>
      <trkpt lat="49.72314" lon="2.36644">
        <ele>99.4</ele>
        <time>2022-10-05T13:10:31Z</time>
      </trkpt>
      <trkpt lat="49.72314" lon="2.36644">
        <ele>99.4</ele>
        <time>2022-10-05T13:10:32Z</time>
      </trkpt>
      <trkpt lat="49.72314" lon="2.36644">
        <ele>99.4</ele>
        <time>2022-10-05T13:10:33Z</time>
      </trkpt>
      <trkpt lat="49.72314" lon="2.36644">
        <ele>99.4</ele>
        <time>2022-10-05T13:10:34Z</time>
      </trkpt>
      <trkpt lat="49.72314" lon="2.36644">
        <ele>99.4</ele>
        <time>2022-10-05T13:10:35Z</time>
      </trkpt>
      <trkpt lat="49.72314" lon="2.36644">
        <ele>99.4</ele>
        <time>2022-10-05T13:10:36Z</time>
      </trkpt>
      <trkpt lat="49.72314" lon="2.36644">
        <ele>99.4</ele>
        <time>2022-10-05T13:10:37Z</time>
      </trkpt>
      <trkpt lat="49.72314" lon="2.36644">
        <ele>99.4</ele>
        <time>2022-10-05T13:10:38Z</time>
      </trkpt>
      <trkpt lat="49.72314" lon="2.36644">
        <ele>99.4</ele>
        <time>2022-10-05T13:10:39Z</time>
      </trkpt>
      <trkpt lat="49.72314" lon="2.36644">
        <ele>99.4</ele>
        <time>2022-10-05T13:10:40Z</time>
      </trkpt>
      <trkpt lat="49.72314" lon="2.36644">
        <ele>99.4</ele>
        <time>2022-10-05T13:10:41Z</time>
      </trkpt>
      <trkpt lat="49.72314" lon="2.36644">
        <ele>99.4</ele>
        <time>2022-10-05T13:10:42Z</time>
      </trkpt>
      <trkpt lat="49.72314" lon="2.36644">
        <ele>99.4</ele>
        <time>2022-10-05T13:10:43Z</time>
      </trkpt>
      <trkpt lat="49.72314" lon="2.36644">
        <ele>99.4</ele>
        <time>2022-10-05T13:10:44Z</time>
      </trkpt>
      <trkpt lat="49.72314" lon="2.36644">
        <ele>99.4</ele>
        <time>2022-10-05T13:10:45Z</time>
      </trkpt>
      <trkpt lat="49.72314" lon="2.36644">
        <ele>99.4</ele>
        <time>2022-10-05T13:10:46Z</time>
      </trkpt>
      <trkpt lat="49.72314" lon="2.36644">
        <ele>99.4</ele>
        <time>2022-10-05T13:10:47Z</time>
      </trkpt>
      <trkpt lat="49.72314" lon="2.36644">
        <ele>99.4</ele>
        <time>2022-10-05T13:10:48Z</time>
      </trkpt>
      <trkpt lat="49.72314" lon="2.36644">
        <ele>99.4</ele>
        <time>2022-10-05T13:10:49Z</time>
      </trkpt>
      <trkpt lat="49.72314" lon="2.36644">
        <ele>99.4</ele>
        <time>2022-10-05T13:10:50Z</time>
      </trkpt>
      <trkpt lat="49.72314" lon="2.36644">
        <ele>99.4</ele>
        <time>2022-10-05T13:10:51Z</time>
      </trkpt>
      <trkpt lat="49.72314" lon="2.36644">
        <ele>99.4</ele>
        <time>2022-10-05T13:10:52Z</time>
      </trkpt>
      <trkpt lat="49.72314" lon="2.36644">
        <ele>99.4</ele>
        <time>2022-10-05T13:10:53Z</time>
      </trkpt>
      <trkpt lat="49.72314" lon="2.36644">
        <ele>99.4</ele>
        <time>2022-10-05T13:10:54Z</time>
      </trkpt>
      <trkpt lat="49.72314" lon="2.36644">
        <ele>99.4</ele>
        <time>2022-10-05T13:10:55Z</time>
      </trkpt>
      <trkpt lat="49.72314" lon="2.36644">
        <ele>99.4</ele>
        <time>2022-10-05T13:10:56Z</time>
      </trkpt>
      <trkpt lat="49.72314" lon="2.36644">
        <ele>99.4</ele>
        <time>2022-10-05T13:10:57Z</time>
      </trkpt>
      <trkpt lat="49.72314" lon="2.36644">
        <ele>99.4</ele>
        <time>2022-10-05T13:10:58Z</time>
      </trkpt>
      <trkpt lat="49.72314" lon="2.36644">
        <ele>99.4</ele>
        <time>2022-10-05T13:10:59Z</time>
      </trkpt>
      <trkpt lat="49.72314" lon="2.36644">
        <ele>99.4</ele>
        <time>2022-10-05T13:11:00Z</time>
      </trkpt>
      <trkpt lat="49.72314" lon="2.36644">
        <ele>99.4</ele>
        <time>2022-10-05T13:11:01Z</time>
      </trkpt>
      <trkpt lat="49.72314" lon="2.36644">
        <ele>99.4</ele>
        <time>2022-10-05T13:11:02Z</time>
      </trkpt>
      <trkpt lat="49.72314" lon="2.36644">
        <ele>99.4</ele>
        <time>2022-10-05T13:11:03Z</time>
      </trkpt>
      <trkpt lat="49.72314" lon="2.36644">
        <ele>99.4</ele>
        <time>2022-10-05T13:11:04Z</time>
      </trkpt>
      <trkpt lat="49.72314" lon="2.36644">
        <ele>99.4</ele>
        <time>2022-10-05T13:11:05Z</time>
      </trkpt>
      <trkpt lat="49.72314" lon="2.36644">
        <ele>99.4</ele>
        <time>2022-10-05T13:11:06Z</time>
      </trkpt>
      <trkpt lat="49.72314" lon="2.36644">
        <ele>99.4</ele>
        <time>2022-10-05T13:11:07Z</time>
      </trkpt>
      <trkpt lat="49.72314" lon="2.36644">
        <ele>99.4</ele>
        <time>2022-10-05T13:11:08Z</time>
      </trkpt>
      <trkpt lat="49.72314" lon="2.36644">
        <ele>99.4</ele>
        <time>2022-10-05T13:11:09Z</time>
      </trkpt>
      <trkpt lat="49.72314" lon="2.36644">
        <ele>99.4</ele>
        <time>2022-10-05T13:11:10Z</time>
      </trkpt>
      <trkpt lat="49.72314" lon="2.36644">
        <ele>99.4</ele>
        <time>2022-10-05T13:11:11Z</time>
      </trkpt>
      <trkpt lat="49.72314" lon="2.36644">
        <ele>99.4</ele>
        <time>2022-10-05T13:11:12Z</time>
      </trkpt>
      <trkpt lat="49.72314" lon="2.36644">
        <ele>99.4</ele>
        <time>2022-10-05T13:11:13Z</time>
      </trkpt>
      <trkpt lat="49.72314" lon="2.36644">
        <ele>99.4</ele>
        <time>2022-10-05T13:11:14Z</time>
      </trkpt>
      <trkpt lat="49.72314" lon="2.36644">
        <ele>99.4</ele>
        <time>2022-10-05T13:11:15Z</time>
      </trkpt>
      <trkpt lat="49.72314" lon="2.36644">
        <ele>99.4</ele>
        <time>2022-10-05T13:11:16Z</time>
      </trkpt>
      <trkpt lat="49.72314" lon="2.36644">
        <ele>99.4</ele>
        <time>2022-10-05T13:11:17Z</time>
      </trkpt>
      <trkpt lat="49.72314" lon="2.36644">
        <ele>99.4</ele>
        <time>2022-10-05T13:11:18Z</time>
      </trkpt>
      <trkpt lat="49.72314" lon="2.36644">
        <ele>99.4</ele>
        <time>2022-10-05T13:11:19Z</time>
      </trkpt>
      <trkpt lat="49.72314" lon="2.36644">
        <ele>99.4</ele>
        <time>2022-10-05T13:11:20Z</time>
      </trkpt>
      <trkpt lat="49.72314" lon="2.36644">
        <ele>99.4</ele>
        <time>2022-10-05T13:11:21Z</time>
      </trkpt>
      <trkpt lat="49.72314" lon="2.36644">
        <ele>99.4</ele>
        <time>2022-10-05T13:11:22Z</time>
      </trkpt>
      <trkpt lat="49.72314" lon="2.36644">
        <ele>99.4</ele>
        <time>2022-10-05T13:11:23Z</time>
      </trkpt>
      <trkpt lat="49.72314" lon="2.36644">
        <ele>99.4</ele>
        <time>2022-10-05T13:11:24Z</time>
      </trkpt>
      <trkpt lat="49.72314" lon="2.36644">
        <ele>99.4</ele>
        <time>2022-10-05T13:11:25Z</time>
      </trkpt>
      <trkpt lat="49.72314" lon="2.36644">
        <ele>99.4</ele>
        <time>2022-10-05T13:11:26Z</time>
      </trkpt>
      <trkpt lat="49.72314" lon="2.36644">
        <ele>99.4</ele>
        <time>2022-10-05T13:11:27Z</time>
      </trkpt>
      <trkpt lat="49.72314" lon="2.36644">
        <ele>99.4</ele>
        <time>2022-10-05T13:11:28Z</time>
      </trkpt>
      <trkpt lat="49.72314" lon="2.36644">
        <ele>99.4</ele>
        <time>2022-10-05T13:11:29Z</time>
      </trkpt>
      <trkpt lat="49.72314" lon="2.36644">
        <ele>99.4</ele>
        <time>2022-10-05T13:11:30Z</time>
      </trkpt>
      <trkpt lat="49.72314" lon="2.36644">
        <ele>99.4</ele>
        <time>2022-10-05T13:11:31Z</time>
      </trkpt>
      <trkpt lat="49.72314" lon="2.36644">
        <ele>99.4</ele>
        <time>2022-10-05T13:11:32Z</time>
      </trkpt>
      <trkpt lat="49.72314" lon="2.36644">
        <ele>99.4</ele>
        <time>2022-10-05T13:11:33Z</time>
      </trkpt>
      <trkpt lat="49.72314" lon="2.36644">
        <ele>99.4</ele>
        <time>2022-10-05T13:11:34Z</time>
      </trkpt>
      <trkpt lat="49.72314" lon="2.36644">
        <ele>99.4</ele>
        <time>2022-10-05T13:11:35Z</time>
      </trkpt>
      <trkpt lat="49.72314" lon="2.36644">
        <ele>99.4</ele>
        <time>2022-10-05T13:11:36Z</time>
      </trkpt>
      <trkpt lat="49.72314" lon="2.36644">
        <ele>99.4</ele>
        <time>2022-10-05T13:11:37Z</time>
      </trkpt>
      <trkpt lat="49.72314" lon="2.36644">
        <ele>99.4</ele>
        <time>2022-10-05T13:11:38Z</time>
      </trkpt>
      <trkpt lat="49.72314" lon="2.36644">
        <ele>99.4</ele>
        <time>2022-10-05T13:11:39Z</time>
      </trkpt>
      <trkpt lat="49.72314" lon="2.36644">
        <ele>99.4</ele>
        <time>2022-10-05T13:11:40Z</time>
      </trkpt>
      <trkpt lat="49.72314" lon="2.36644">
        <ele>99.4</ele>
        <time>2022-10-05T13:11:41Z</time>
      </trkpt>
      <trkpt lat="49.72314" lon="2.36644">
        <ele>99.4</ele>
        <time>2022-10-05T13:11:42Z</time>
      </trkpt>
      <trkpt lat="49.72314" lon="2.36644">
        <ele>99.4</ele>
        <time>2022-10-05T13:11:43Z</time>
      </trkpt>
      <trkpt lat="49.72314" lon="2.36644">
        <ele>99.4</ele>
        <time>2022-10-05T13:11:44Z</time>
      </trkpt>
      <trkpt lat="49.72314" lon="2.36644">
        <ele>99.4</ele>
        <time>2022-10-05T13:11:45Z</time>
      </trkpt>
      <trkpt lat="49.72314" lon="2.36644">
        <ele>99.4</ele>
        <time>2022-10-05T13:11:46Z</time>
      </trkpt>
      <trkpt lat="49.72314" lon="2.36644">
        <ele>99.4</ele>
        <time>2022-10-05T13:11:47Z</time>
      </trkpt>
      <trkpt lat="49.72314" lon="2.36644">
        <ele>99.4</ele>
        <time>2022-10-05T13:11:48Z</time>
      </trkpt>
      <trkpt lat="49.72314" lon="2.36644">
        <ele>99.4</ele>
        <time>2022-10-05T13:11:49Z</time>
      </trkpt>
      <trkpt lat="49.72314" lon="2.36644">
        <ele>99.4</ele>
        <time>2022-10-05T13:11:50Z</time>
      </trkpt>
      <trkpt lat="49.72314" lon="2.36644">
        <ele>99.4</ele>
        <time>2022-10-05T13:11:51Z</time>
      </trkpt>
      <trkpt lat="49.72314" lon="2.36644">
        <ele>99.4</ele>
        <time>2022-10-05T13:11:52Z</time>
      </trkpt>
      <trkpt lat="49.72314" lon="2.36644">
        <ele>99.4</ele>
        <time>2022-10-05T13:11:53Z</time>
      </trkpt>
      <trkpt lat="49.72314" lon="2.36644">
        <ele>99.4</ele>
        <time>2022-10-05T13:11:54Z</time>
      </trkpt>
      <trkpt lat="49.72314" lon="2.36644">
        <ele>99.4</ele>
        <time>2022-10-05T13:11:55Z</time>
      </trkpt>
      <trkpt lat="49.72314" lon="2.36644">
        <ele>99.4</ele>
        <time>2022-10-05T13:11:56Z</time>
      </trkpt>
      <trkpt lat="49.72314" lon="2.36644">
        <ele>99.4</ele>
        <time>2022-10-05T13:11:57Z</time>
      </trkpt>
      <trkpt lat="49.72314" lon="2.36644">
        <ele>99.4</ele>
        <time>2022-10-05T13:11:58Z</time>
      </trkpt>
      <trkpt lat="49.72314" lon="2.36644">
        <ele>99.4</ele>
        <time>2022-10-05T13:11:59Z</time>
      </trkpt>
      <trkpt lat="49.72314" lon="2.36644">
        <ele>99.4</ele>
        <time>2022-10-05T13:12:00Z</time>
      </trkpt>
      <trkpt lat="49.72314" lon="2.36644">
        <ele>99.4</ele>
        <time>2022-10-05T13:12:01Z</time>
      </trkpt>
      <trkpt lat="49.72314" lon="2.36644">
        <ele>99.4</ele>
        <time>2022-10-05T13:12:02Z</time>
      </trkpt>
      <trkpt lat="49.72314" lon="2.36644">
        <ele>99.4</ele>
        <time>2022-10-05T13:12:03Z</time>
      </trkpt>
      <trkpt lat="49.72314" lon="2.36644">
        <ele>99.4</ele>
        <time>2022-10-05T13:12:04Z</time>
      </trkpt>
      <trkpt lat="49.72314" lon="2.36644">
        <ele>99.4</ele>
        <time>2022-10-05T13:12:05Z</time>
      </trkpt>
      <trkpt lat="49.72314" lon="2.36644">
        <ele>99.4</ele>
        <time>2022-10-05T13:12:06Z</time>
      </trkpt>
      <trkpt lat="49.72314" lon="2.36644">
        <ele>99.4</ele>
        <time>2022-10-05T13:12:07Z</time>
      </trkpt>
      <trkpt lat="49.72314" lon="2.36644">
        <ele>99.4</ele>
        <time>2022-10-05T13:12:08Z</time>
      </trkpt>
      <trkpt lat="49.72314" lon="2.36644">
        <ele>99.4</ele>
        <time>2022-10-05T13:12:09Z</time>
      </trkpt>
      <trkpt lat="49.72314" lon="2.36644">
        <ele>99.4</ele>
        <time>2022-10-05T13:12:10Z</time>
      </trkpt>
      <trkpt lat="49.72314" lon="2.36644">
        <ele>99.4</ele>
        <time>2022-10-05T13:12:11Z</time>
      </trkpt>
      <trkpt lat="49.72314" lon="2.36644">
        <ele>99.4</ele>
        <time>2022-10-05T13:12:12Z</time>
      </trkpt>
      <trkpt lat="49.72314" lon="2.36644">
        <ele>99.4</ele>
        <time>2022-10-05T13:12:13Z</time>
      </trkpt>
      <trkpt lat="49.72314" lon="2.36644">
        <ele>99.4</ele>
        <time>2022-10-05T13:12:14Z</time>
      </trkpt>
      <trkpt lat="49.72314" lon="2.36644">
        <ele>99.4</ele>
        <time>2022-10-05T13:12:15Z</time>
      </trkpt>
      <trkpt lat="49.72314" lon="2.36644">
        <ele>99.4</ele>
        <time>2022-10-05T13:12:16Z</time>
      </trkpt>
      <trkpt lat="49.72314" lon="2.36644">
        <ele>99.4</ele>
        <time>2022-10-05T13:12:17Z</time>
      </trkpt>
      <trkpt lat="49.72314" lon="2.36644">
        <ele>99.4</ele>
        <time>2022-10-05T13:12:18Z</time>
      </trkpt>
      <trkpt lat="49.72314" lon="2.36644">
        <ele>99.4</ele>
        <time>2022-10-05T13:12:19Z</time>
      </trkpt>
      <trkpt lat="49.72314" lon="2.36644">
        <ele>99.4</ele>
        <time>2022-10-05T13:12:20Z</time>
      </trkpt>
      <trkpt lat="49.72314" lon="2.36644">
        <ele>99.4</ele>
        <time>2022-10-05T13:12:21Z</time>
      </trkpt>
      <trkpt lat="49.72314" lon="2.36644">
        <ele>99.4</ele>
        <time>2022-10-05T13:12:22Z</time>
      </trkpt>
      <trkpt lat="49.72314" lon="2.36644">
        <ele>99.4</ele>
        <time>2022-10-05T13:12:23Z</time>
      </trkpt>
      <trkpt lat="49.72314" lon="2.36644">
        <ele>99.4</ele>
        <time>2022-10-05T13:12:24Z</time>
      </trkpt>
      <trkpt lat="49.72314" lon="2.36644">
        <ele>99.4</ele>
        <time>2022-10-05T13:12:25Z</time>
      </trkpt>
      <trkpt lat="49.72314" lon="2.36644">
        <ele>99.4</ele>
        <time>2022-10-05T13:12:26Z</time>
      </trkpt>
      <trkpt lat="49.72314" lon="2.36644">
        <ele>99.4</ele>
        <time>2022-10-05T13:12:27Z</time>
      </trkpt>
      <trkpt lat="49.72314" lon="2.36644">
        <ele>99.4</ele>
        <time>2022-10-05T13:12:28Z</time>
      </trkpt>
      <trkpt lat="49.72314" lon="2.36644">
        <ele>99.4</ele>
        <time>2022-10-05T13:12:29Z</time>
      </trkpt>
      <trkpt lat="49.72314" lon="2.36644">
        <ele>99.4</ele>
        <time>2022-10-05T13:12:30Z</time>
      </trkpt>
      <trkpt lat="49.72314" lon="2.36644">
        <ele>99.4</ele>
        <time>2022-10-05T13:12:31Z</time>
      </trkpt>
      <trkpt lat="49.72314" lon="2.36644">
        <ele>99.4</ele>
        <time>2022-10-05T13:12:32Z</time>
      </trkpt>
      <trkpt lat="49.72314" lon="2.36644">
        <ele>99.4</ele>
        <time>2022-10-05T13:12:33Z</time>
      </trkpt>
      <trkpt lat="49.72314" lon="2.36644">
        <ele>99.4</ele>
        <time>2022-10-05T13:12:34Z</time>
      </trkpt>
      <trkpt lat="49.72314" lon="2.36644">
        <ele>99.4</ele>
        <time>2022-10-05T13:12:35Z</time>
      </trkpt>
      <trkpt lat="49.72314" lon="2.36644">
        <ele>99.4</ele>
        <time>2022-10-05T13:12:36Z</time>
      </trkpt>
      <trkpt lat="49.72314" lon="2.36644">
        <ele>99.4</ele>
        <time>2022-10-05T13:12:37Z</time>
      </trkpt>
      <trkpt lat="49.72314" lon="2.36644">
        <ele>99.4</ele>
        <time>2022-10-05T13:12:38Z</time>
      </trkpt>
      <trkpt lat="49.72314" lon="2.36644">
        <ele>99.4</ele>
        <time>2022-10-05T13:12:39Z</time>
      </trkpt>
      <trkpt lat="49.72314" lon="2.36644">
        <ele>99.4</ele>
        <time>2022-10-05T13:12:40Z</time>
      </trkpt>
      <trkpt lat="49.72314" lon="2.36644">
        <ele>99.4</ele>
        <time>2022-10-05T13:12:41Z</time>
      </trkpt>
      <trkpt lat="49.72314" lon="2.36644">
        <ele>99.4</ele>
        <time>2022-10-05T13:12:42Z</time>
      </trkpt>
      <trkpt lat="49.72314" lon="2.36644">
        <ele>99.4</ele>
        <time>2022-10-05T13:12:43Z</time>
      </trkpt>
      <trkpt lat="49.72314" lon="2.36644">
        <ele>99.4</ele>
        <time>2022-10-05T13:12:44Z</time>
      </trkpt>
      <trkpt lat="49.72314" lon="2.36644">
        <ele>99.4</ele>
        <time>2022-10-05T13:12:45Z</time>
      </trkpt>
      <trkpt lat="49.72314" lon="2.36644">
        <ele>99.4</ele>
        <time>2022-10-05T13:12:46Z</time>
      </trkpt>
      <trkpt lat="49.72314" lon="2.36644">
        <ele>99.4</ele>
        <time>2022-10-05T13:12:47Z</time>
      </trkpt>
      <trkpt lat="49.72314" lon="2.36644">
        <ele>99.4</ele>
        <time>2022-10-05T13:12:48Z</time>
      </trkpt>
      <trkpt lat="49.72314" lon="2.36644">
        <ele>99.4</ele>
        <time>2022-10-05T13:12:49Z</time>
      </trkpt>
      <trkpt lat="49.72314" lon="2.36644">
        <ele>99.4</ele>
        <time>2022-10-05T13:12:50Z</time>
      </trkpt>
      <trkpt lat="49.72314" lon="2.36644">
        <ele>99.4</ele>
        <time>2022-10-05T13:12:51Z</time>
      </trkpt>
      <trkpt lat="49.72314" lon="2.36644">
        <ele>99.4</ele>
        <time>2022-10-05T13:12:52Z</time>
      </trkpt>
      <trkpt lat="49.72314" lon="2.36644">
        <ele>99.4</ele>
        <time>2022-10-05T13:12:53Z</time>
      </trkpt>
      <trkpt lat="49.72314" lon="2.36644">
        <ele>99.4</ele>
        <time>2022-10-05T13:12:54Z</time>
      </trkpt>
      <trkpt lat="49.72314" lon="2.36644">
        <ele>99.4</ele>
        <time>2022-10-05T13:12:55Z</time>
      </trkpt>
      <trkpt lat="49.72314" lon="2.36644">
        <ele>99.4</ele>
        <time>2022-10-05T13:12:56Z</time>
      </trkpt>
      <trkpt lat="49.72314" lon="2.36644">
        <ele>99.4</ele>
        <time>2022-10-05T13:12:57Z</time>
      </trkpt>
      <trkpt lat="49.72314" lon="2.36644">
        <ele>99.4</ele>
        <time>2022-10-05T13:12:58Z</time>
      </trkpt>
      <trkpt lat="49.72314" lon="2.36644">
        <ele>99.4</ele>
        <time>2022-10-05T13:12:59Z</time>
      </trkpt>
      <trkpt lat="49.72314" lon="2.36644">
        <ele>99.4</ele>
        <time>2022-10-05T13:13:00Z</time>
      </trkpt>
      <trkpt lat="49.72314" lon="2.36644">
        <ele>99.4</ele>
        <time>2022-10-05T13:13:01Z</time>
      </trkpt>
      <trkpt lat="49.72314" lon="2.36644">
        <ele>99.4</ele>
        <time>2022-10-05T13:13:02Z</time>
      </trkpt>
      <trkpt lat="49.72314" lon="2.36644">
        <ele>99.4</ele>
        <time>2022-10-05T13:13:03Z</time>
      </trkpt>
      <trkpt lat="49.72314" lon="2.36644">
        <ele>99.4</ele>
        <time>2022-10-05T13:13:04Z</time>
      </trkpt>
      <trkpt lat="49.72314" lon="2.36644">
        <ele>99.4</ele>
        <time>2022-10-05T13:13:05Z</time>
      </trkpt>
      <trkpt lat="49.72314" lon="2.36644">
        <ele>99.4</ele>
        <time>2022-10-05T13:13:06Z</time>
      </trkpt>
      <trkpt lat="49.72314" lon="2.36644">
        <ele>99.4</ele>
        <time>2022-10-05T13:13:07Z</time>
      </trkpt>
      <trkpt lat="49.72314" lon="2.36644">
        <ele>99.4</ele>
        <time>2022-10-05T13:13:08Z</time>
      </trkpt>
      <trkpt lat="49.72314" lon="2.36644">
        <ele>99.4</ele>
        <time>2022-10-05T13:13:09Z</time>
      </trkpt>
      <trkpt lat="49.72314" lon="2.36644">
        <ele>99.4</ele>
        <time>2022-10-05T13:13:10Z</time>
      </trkpt>
      <trkpt lat="49.72314" lon="2.36644">
        <ele>99.4</ele>
        <time>2022-10-05T13:13:11Z</time>
      </trkpt>
      <trkpt lat="49.72314" lon="2.36644">
        <ele>99.4</ele>
        <time>2022-10-05T13:13:12Z</time>
      </trkpt>
      <trkpt lat="49.72314" lon="2.36644">
        <ele>99.4</ele>
        <time>2022-10-05T13:13:13Z</time>
      </trkpt>
      <trkpt lat="49.72314" lon="2.36644">
        <ele>99.4</ele>
        <time>2022-10-05T13:13:14Z</time>
      </trkpt>
      <trkpt lat="49.72314" lon="2.36644">
        <ele>99.4</ele>
        <time>2022-10-05T13:13:15Z</time>
      </trkpt>
      <trkpt lat="49.72314" lon="2.36644">
        <ele>99.4</ele>
        <time>2022-10-05T13:13:16Z</time>
      </trkpt>
      <trkpt lat="49.72314" lon="2.36644">
        <ele>99.4</ele>
        <time>2022-10-05T13:13:17Z</time>
      </trkpt>
      <trkpt lat="49.72314" lon="2.36644">
        <ele>99.4</ele>
        <time>2022-10-05T13:13:18Z</time>
      </trkpt>
      <trkpt lat="49.72314" lon="2.36644">
        <ele>99.4</ele>
        <time>2022-10-05T13:13:19Z</time>
      </trkpt>
      <trkpt lat="49.72314" lon="2.36644">
        <ele>99.4</ele>
        <time>2022-10-05T13:13:20Z</time>
      </trkpt>
      <trkpt lat="49.72314" lon="2.36644">
        <ele>99.4</ele>
        <time>2022-10-05T13:13:21Z</time>
      </trkpt>
      <trkpt lat="49.72314" lon="2.36644">
        <ele>99.4</ele>
        <time>2022-10-05T13:13:22Z</time>
      </trkpt>
      <trkpt lat="49.72314" lon="2.36644">
        <ele>99.4</ele>
        <time>2022-10-05T13:13:23Z</time>
      </trkpt>
      <trkpt lat="49.72314" lon="2.36644">
        <ele>99.4</ele>
        <time>2022-10-05T13:13:24Z</time>
      </trkpt>
      <trkpt lat="49.72314" lon="2.36644">
        <ele>99.4</ele>
        <time>2022-10-05T13:13:25Z</time>
      </trkpt>
      <trkpt lat="49.72314" lon="2.36644">
        <ele>99.4</ele>
        <time>2022-10-05T13:13:26Z</time>
      </trkpt>
      <trkpt lat="49.72314" lon="2.36644">
        <ele>99.4</ele>
        <time>2022-10-05T13:13:27Z</time>
      </trkpt>
      <trkpt lat="49.72314" lon="2.36644">
        <ele>99.4</ele>
        <time>2022-10-05T13:13:28Z</time>
      </trkpt>
      <trkpt lat="49.72314" lon="2.36644">
        <ele>99.4</ele>
        <time>2022-10-05T13:13:29Z</time>
      </trkpt>
      <trkpt lat="49.72314" lon="2.36644">
        <ele>99.4</ele>
        <time>2022-10-05T13:13:30Z</time>
      </trkpt>
      <trkpt lat="49.72314" lon="2.36644">
        <ele>99.4</ele>
        <time>2022-10-05T13:13:31Z</time>
      </trkpt>
      <trkpt lat="49.72314" lon="2.36644">
        <ele>99.4</ele>
        <time>2022-10-05T13:13:32Z</time>
      </trkpt>
      <trkpt lat="49.72314" lon="2.36644">
        <ele>99.4</ele>
        <time>2022-10-05T13:13:33Z</time>
      </trkpt>
      <trkpt lat="49.72314" lon="2.36644">
        <ele>99.4</ele>
        <time>2022-10-05T13:13:34Z</time>
      </trkpt>
      <trkpt lat="49.72314" lon="2.36644">
        <ele>99.4</ele>
        <time>2022-10-05T13:13:35Z</time>
      </trkpt>
      <trkpt lat="49.72314" lon="2.36644">
        <ele>99.4</ele>
        <time>2022-10-05T13:13:36Z</time>
      </trkpt>
      <trkpt lat="49.72314" lon="2.36644">
        <ele>99.4</ele>
        <time>2022-10-05T13:13:37Z</time>
      </trkpt>
      <trkpt lat="49.72314" lon="2.36644">
        <ele>99.4</ele>
        <time>2022-10-05T13:13:38Z</time>
      </trkpt>
      <trkpt lat="49.72314" lon="2.36644">
        <ele>99.4</ele>
        <time>2022-10-05T13:13:39Z</time>
      </trkpt>
      <trkpt lat="49.72314" lon="2.36644">
        <ele>99.4</ele>
        <time>2022-10-05T13:13:40Z</time>
      </trkpt>
      <trkpt lat="49.72314" lon="2.36644">
        <ele>99.4</ele>
        <time>2022-10-05T13:13:41Z</time>
      </trkpt>
      <trkpt lat="49.72314" lon="2.36644">
        <ele>99.4</ele>
        <time>2022-10-05T13:13:42Z</time>
      </trkpt>
      <trkpt lat="49.72314" lon="2.36644">
        <ele>99.4</ele>
        <time>2022-10-05T13:13:43Z</time>
      </trkpt>
      <trkpt lat="49.72314" lon="2.36644">
        <ele>99.4</ele>
        <time>2022-10-05T13:13:44Z</time>
      </trkpt>
      <trkpt lat="49.72314" lon="2.36644">
        <ele>99.4</ele>
        <time>2022-10-05T13:13:45Z</time>
      </trkpt>
      <trkpt lat="49.72314" lon="2.36644">
        <ele>99.4</ele>
        <time>2022-10-05T13:13:46Z</time>
      </trkpt>
      <trkpt lat="49.72314" lon="2.36644">
        <ele>99.4</ele>
        <time>2022-10-05T13:13:47Z</time>
      </trkpt>
      <trkpt lat="49.72314" lon="2.36644">
        <ele>99.4</ele>
        <time>2022-10-05T13:13:48Z</time>
      </trkpt>
      <trkpt lat="49.72314" lon="2.36644">
        <ele>99.4</ele>
        <time>2022-10-05T13:13:49Z</time>
      </trkpt>
      <trkpt lat="49.72314" lon="2.36644">
        <ele>99.4</ele>
        <time>2022-10-05T13:13:50Z</time>
      </trkpt>
      <trkpt lat="49.72314" lon="2.36644">
        <ele>99.4</ele>
        <time>2022-10-05T13:13:51Z</time>
      </trkpt>
      <trkpt lat="49.72314" lon="2.36644">
        <ele>99.4</ele>
        <time>2022-10-05T13:13:52Z</time>
      </trkpt>
      <trkpt lat="49.72315" lon="2.36648">
        <ele>99.4</ele>
        <time>2022-10-05T13:13:53Z</time>
      </trkpt>
      <trkpt lat="49.72315" lon="2.3665">
        <ele>99.4</ele>
        <time>2022-10-05T13:13:54Z</time>
      </trkpt>
      <trkpt lat="49.72314" lon="2.36651">
        <ele>99.4</ele>
        <time>2022-10-05T13:13:55Z</time>
      </trkpt>
      <trkpt lat="49.72313" lon="2.3665">
        <ele>99.4</ele>
        <time>2022-10-05T13:13:56Z</time>
      </trkpt>
      <trkpt lat="49.72312" lon="2.3665">
        <ele>99.4</ele>
        <time>2022-10-05T13:13:58Z</time>
      </trkpt>
      <trkpt lat="49.72311" lon="2.3665">
        <ele>99.4</ele>
        <time>2022-10-05T13:13:59Z</time>
      </trkpt>
      <trkpt lat="49.72311" lon="2.3665">
        <ele>99.4</ele>
        <time>2022-10-05T13:14:00Z</time>
      </trkpt>
      <trkpt lat="49.7231" lon="2.3665">
        <ele>99.4</ele>
        <time>2022-10-05T13:14:01Z</time>
      </trkpt>
      <trkpt lat="49.72307" lon="2.3665">
        <ele>99.5</ele>
        <time>2022-10-05T13:14:03Z</time>
      </trkpt>
      <trkpt lat="49.72306" lon="2.3665">
        <ele>99.5</ele>
        <time>2022-10-05T13:14:04Z</time>
      </trkpt>
      <trkpt lat="49.72305" lon="2.3665">
        <ele>99.5</ele>
        <time>2022-10-05T13:14:05Z</time>
      </trkpt>
      <trkpt lat="49.72304" lon="2.3665">
        <ele>99.5</ele>
        <time>2022-10-05T13:14:06Z</time>
      </trkpt>
      <trkpt lat="49.72303" lon="2.3665">
        <ele>99.6</ele>
        <time>2022-10-05T13:14:07Z</time>
      </trkpt>
      <trkpt lat="49.72301" lon="2.36651">
        <ele>99.6</ele>
        <time>2022-10-05T13:14:08Z</time>
      </trkpt>
      <trkpt lat="49.723" lon="2.36651">
        <ele>99.6</ele>
        <time>2022-10-05T13:14:09Z</time>
      </trkpt>
      <trkpt lat="49.72299" lon="2.36652">
        <ele>99.6</ele>
        <time>2022-10-05T13:14:11Z</time>
      </trkpt>
      <trkpt lat="49.72299" lon="2.36653">
        <ele>99.7</ele>
        <time>2022-10-05T13:14:12Z</time>
      </trkpt>
      <trkpt lat="49.72299" lon="2.36654">
        <ele>99.7</ele>
        <time>2022-10-05T13:14:13Z</time>
      </trkpt>
      <trkpt lat="49.72298" lon="2.36656">
        <ele>99.7</ele>
        <time>2022-10-05T13:14:14Z</time>
      </trkpt>
      <trkpt lat="49.72297" lon="2.36658">
        <ele>99.8</ele>
        <time>2022-10-05T13:14:15Z</time>
      </trkpt>
      <trkpt lat="49.72296" lon="2.36658">
        <ele>99.8</ele>
        <time>2022-10-05T13:14:17Z</time>
      </trkpt>
      <trkpt lat="49.72295" lon="2.36659">
        <ele>99.8</ele>
        <time>2022-10-05T13:14:18Z</time>
      </trkpt>
      <trkpt lat="49.72294" lon="2.36661">
        <ele>99.9</ele>
        <time>2022-10-05T13:14:19Z</time>
      </trkpt>
      <trkpt lat="49.72293" lon="2.36662">
        <ele>99.9</ele>
        <time>2022-10-05T13:14:20Z</time>
      </trkpt>
      <trkpt lat="49.72291" lon="2.36665">
        <ele>100</ele>
        <time>2022-10-05T13:14:22Z</time>
      </trkpt>
      <trkpt lat="49.72289" lon="2.36667">
        <ele>100.1</ele>
        <time>2022-10-05T13:14:24Z</time>
      </trkpt>
      <trkpt lat="49.72287" lon="2.36668">
        <ele>100.2</ele>
        <time>2022-10-05T13:14:25Z</time>
      </trkpt>
      <trkpt lat="49.72286" lon="2.3667">
        <ele>100.2</ele>
        <time>2022-10-05T13:14:26Z</time>
      </trkpt>
      <trkpt lat="49.72285" lon="2.36671">
        <ele>100.3</ele>
        <time>2022-10-05T13:14:27Z</time>
      </trkpt>
      <trkpt lat="49.72284" lon="2.36672">
        <ele>100.3</ele>
        <time>2022-10-05T13:14:28Z</time>
      </trkpt>
      <trkpt lat="49.72283" lon="2.36674">
        <ele>100.4</ele>
        <time>2022-10-05T13:14:29Z</time>
      </trkpt>
      <trkpt lat="49.72281" lon="2.36675">
        <ele>100.5</ele>
        <time>2022-10-05T13:14:30Z</time>
      </trkpt>
      <trkpt lat="49.7228" lon="2.36676">
        <ele>100.5</ele>
        <time>2022-10-05T13:14:32Z</time>
      </trkpt>
      <trkpt lat="49.72279" lon="2.36676">
        <ele>100.6</ele>
        <time>2022-10-05T13:14:33Z</time>
      </trkpt>
      <trkpt lat="49.72278" lon="2.36677">
        <ele>100.7</ele>
        <time>2022-10-05T13:14:34Z</time>
      </trkpt>
      <trkpt lat="49.72276" lon="2.36678">
        <ele>100.7</ele>
        <time>2022-10-05T13:14:35Z</time>
      </trkpt>
      <trkpt lat="49.72276" lon="2.36678">
        <ele>100.8</ele>
        <time>2022-10-05T13:14:36Z</time>
      </trkpt>
      <trkpt lat="49.72275" lon="2.36679">
        <ele>100.8</ele>
        <time>2022-10-05T13:14:37Z</time>
      </trkpt>
      <trkpt lat="49.72273" lon="2.3668">
        <ele>100.9</ele>
        <time>2022-10-05T13:14:38Z</time>
      </trkpt>
      <trkpt lat="49.72272" lon="2.36681">
        <ele>100.9</ele>
        <time>2022-10-05T13:14:40Z</time>
      </trkpt>
      <trkpt lat="49.72271" lon="2.36682">
        <ele>101</ele>
        <time>2022-10-05T13:14:41Z</time>
      </trkpt>
      <trkpt lat="49.7227" lon="2.36683">
        <ele>101.1</ele>
        <time>2022-10-05T13:14:42Z</time>
      </trkpt>
      <trkpt lat="49.72269" lon="2.36684">
        <ele>101.1</ele>
        <time>2022-10-05T13:14:43Z</time>
      </trkpt>
      <trkpt lat="49.72268" lon="2.36684">
        <ele>101.2</ele>
        <time>2022-10-05T13:14:44Z</time>
      </trkpt>
      <trkpt lat="49.72266" lon="2.36686">
        <ele>101.3</ele>
        <time>2022-10-05T13:14:45Z</time>
      </trkpt>
      <trkpt lat="49.72266" lon="2.36686">
        <ele>101.3</ele>
        <time>2022-10-05T13:14:47Z</time>
      </trkpt>
      <trkpt lat="49.72264" lon="2.36687">
        <ele>101.4</ele>
        <time>2022-10-05T13:14:48Z</time>
      </trkpt>
      <trkpt lat="49.72263" lon="2.36688">
        <ele>101.4</ele>
        <time>2022-10-05T13:14:49Z</time>
      </trkpt>
      <trkpt lat="49.72262" lon="2.36689">
        <ele>101.5</ele>
        <time>2022-10-05T13:14:50Z</time>
      </trkpt>
      <trkpt lat="49.72262" lon="2.3669">
        <ele>101.5</ele>
        <time>2022-10-05T13:14:51Z</time>
      </trkpt>
      <trkpt lat="49.72261" lon="2.3669">
        <ele>101.6</ele>
        <time>2022-10-05T13:14:52Z</time>
      </trkpt>
      <trkpt lat="49.7226" lon="2.36691">
        <ele>101.6</ele>
        <time>2022-10-05T13:14:53Z</time>
      </trkpt>
      <trkpt lat="49.72259" lon="2.36692">
        <ele>101.7</ele>
        <time>2022-10-05T13:14:55Z</time>
      </trkpt>
      <trkpt lat="49.72259" lon="2.36693">
        <ele>101.8</ele>
        <time>2022-10-05T13:14:56Z</time>
      </trkpt>
      <trkpt lat="49.72258" lon="2.36694">
        <ele>101.8</ele>
        <time>2022-10-05T13:14:57Z</time>
      </trkpt>
      <trkpt lat="49.72257" lon="2.36695">
        <ele>101.9</ele>
        <time>2022-10-05T13:14:58Z</time>
      </trkpt>
      <trkpt lat="49.72256" lon="2.36696">
        <ele>101.9</ele>
        <time>2022-10-05T13:14:59Z</time>
      </trkpt>
      <trkpt lat="49.72255" lon="2.36697">
        <ele>102</ele>
        <time>2022-10-05T13:15:00Z</time>
      </trkpt>
      <trkpt lat="49.72254" lon="2.36698">
        <ele>102.1</ele>
        <time>2022-10-05T13:15:02Z</time>
      </trkpt>
      <trkpt lat="49.72253" lon="2.36699">
        <ele>102.1</ele>
        <time>2022-10-05T13:15:03Z</time>
      </trkpt>
      <trkpt lat="49.72253" lon="2.367">
        <ele>102.2</ele>
        <time>2022-10-05T13:15:04Z</time>
      </trkpt>
      <trkpt lat="49.72252" lon="2.36701">
        <ele>102.2</ele>
        <time>2022-10-05T13:15:05Z</time>
      </trkpt>
      <trkpt lat="49.72251" lon="2.36703">
        <ele>102.3</ele>
        <time>2022-10-05T13:15:06Z</time>
      </trkpt>
      <trkpt lat="49.72249" lon="2.36705">
        <ele>102.4</ele>
        <time>2022-10-05T13:15:08Z</time>
      </trkpt>
      <trkpt lat="49.72249" lon="2.36705">
        <ele>102.5</ele>
        <time>2022-10-05T13:15:09Z</time>
      </trkpt>
      <trkpt lat="49.72248" lon="2.36706">
        <ele>102.5</ele>
        <time>2022-10-05T13:15:10Z</time>
      </trkpt>
      <trkpt lat="49.72247" lon="2.36707">
        <ele>102.6</ele>
        <time>2022-10-05T13:15:11Z</time>
      </trkpt>
      <trkpt lat="49.72246" lon="2.36708">
        <ele>102.7</ele>
        <time>2022-10-05T13:15:12Z</time>
      </trkpt>
      <trkpt lat="49.72244" lon="2.3671">
        <ele>102.8</ele>
        <time>2022-10-05T13:15:13Z</time>
      </trkpt>
      <trkpt lat="49.72243" lon="2.3671">
        <ele>102.9</ele>
        <time>2022-10-05T13:15:15Z</time>
      </trkpt>
      <trkpt lat="49.72242" lon="2.36711">
        <ele>102.9</ele>
        <time>2022-10-05T13:15:16Z</time>
      </trkpt>
      <trkpt lat="49.72241" lon="2.36712">
        <ele>103</ele>
        <time>2022-10-05T13:15:17Z</time>
      </trkpt>
      <trkpt lat="49.7224" lon="2.36712">
        <ele>103</ele>
        <time>2022-10-05T13:15:18Z</time>
      </trkpt>
      <trkpt lat="49.72239" lon="2.36713">
        <ele>103.1</ele>
        <time>2022-10-05T13:15:19Z</time>
      </trkpt>
      <trkpt lat="49.72238" lon="2.36714">
        <ele>103.2</ele>
        <time>2022-10-05T13:15:20Z</time>
      </trkpt>
      <trkpt lat="49.72237" lon="2.36715">
        <ele>103.3</ele>
        <time>2022-10-05T13:15:21Z</time>
      </trkpt>
      <trkpt lat="49.72236" lon="2.36716">
        <ele>103.4</ele>
        <time>2022-10-05T13:15:22Z</time>
      </trkpt>
      <trkpt lat="49.72234" lon="2.36717">
        <ele>103.5</ele>
        <time>2022-10-05T13:15:24Z</time>
      </trkpt>
      <trkpt lat="49.72233" lon="2.36718">
        <ele>103.5</ele>
        <time>2022-10-05T13:15:25Z</time>
      </trkpt>
      <trkpt lat="49.72232" lon="2.36719">
        <ele>103.6</ele>
        <time>2022-10-05T13:15:26Z</time>
      </trkpt>
      <trkpt lat="49.72231" lon="2.3672">
        <ele>103.7</ele>
        <time>2022-10-05T13:15:27Z</time>
      </trkpt>
      <trkpt lat="49.7223" lon="2.3672">
        <ele>103.8</ele>
        <time>2022-10-05T13:15:28Z</time>
      </trkpt>
      <trkpt lat="49.72229" lon="2.36721">
        <ele>103.8</ele>
        <time>2022-10-05T13:15:29Z</time>
      </trkpt>
      <trkpt lat="49.72227" lon="2.36722">
        <ele>104</ele>
        <time>2022-10-05T13:15:31Z</time>
      </trkpt>
      <trkpt lat="49.72226" lon="2.36722">
        <ele>104</ele>
        <time>2022-10-05T13:15:32Z</time>
      </trkpt>
      <trkpt lat="49.72225" lon="2.36722">
        <ele>104.1</ele>
        <time>2022-10-05T13:15:33Z</time>
      </trkpt>
      <trkpt lat="49.72224" lon="2.36723">
        <ele>104.2</ele>
        <time>2022-10-05T13:15:34Z</time>
      </trkpt>
      <trkpt lat="49.72223" lon="2.36723">
        <ele>104.2</ele>
        <time>2022-10-05T13:15:35Z</time>
      </trkpt>
      <trkpt lat="49.72221" lon="2.36725">
        <ele>104.3</ele>
        <time>2022-10-05T13:15:36Z</time>
      </trkpt>
      <trkpt lat="49.7222" lon="2.36725">
        <ele>104.4</ele>
        <time>2022-10-05T13:15:37Z</time>
      </trkpt>
      <trkpt lat="49.72219" lon="2.36726">
        <ele>104.5</ele>
        <time>2022-10-05T13:15:38Z</time>
      </trkpt>
      <trkpt lat="49.72218" lon="2.36727">
        <ele>104.5</ele>
        <time>2022-10-05T13:15:40Z</time>
      </trkpt>
      <trkpt lat="49.72217" lon="2.36728">
        <ele>104.6</ele>
        <time>2022-10-05T13:15:41Z</time>
      </trkpt>
      <trkpt lat="49.72216" lon="2.36728">
        <ele>104.7</ele>
        <time>2022-10-05T13:15:42Z</time>
      </trkpt>
      <trkpt lat="49.72215" lon="2.36729">
        <ele>104.7</ele>
        <time>2022-10-05T13:15:43Z</time>
      </trkpt>
      <trkpt lat="49.72214" lon="2.3673">
        <ele>104.8</ele>
        <time>2022-10-05T13:15:44Z</time>
      </trkpt>
      <trkpt lat="49.72213" lon="2.36732">
        <ele>104.9</ele>
        <time>2022-10-05T13:15:45Z</time>
      </trkpt>
      <trkpt lat="49.72212" lon="2.36733">
        <ele>105</ele>
        <time>2022-10-05T13:15:47Z</time>
      </trkpt>
      <trkpt lat="49.72211" lon="2.36734">
        <ele>105</ele>
        <time>2022-10-05T13:15:48Z</time>
      </trkpt>
      <trkpt lat="49.7221" lon="2.36735">
        <ele>105.1</ele>
        <time>2022-10-05T13:15:49Z</time>
      </trkpt>
      <trkpt lat="49.72209" lon="2.36736">
        <ele>105.2</ele>
        <time>2022-10-05T13:15:50Z</time>
      </trkpt>
      <trkpt lat="49.72208" lon="2.36737">
        <ele>105.3</ele>
        <time>2022-10-05T13:15:51Z</time>
      </trkpt>
      <trkpt lat="49.72206" lon="2.36738">
        <ele>105.3</ele>
        <time>2022-10-05T13:15:52Z</time>
      </trkpt>
      <trkpt lat="49.72205" lon="2.36739">
        <ele>105.4</ele>
        <time>2022-10-05T13:15:53Z</time>
      </trkpt>
      <trkpt lat="49.72204" lon="2.3674">
        <ele>105.5</ele>
        <time>2022-10-05T13:15:54Z</time>
      </trkpt>
      <trkpt lat="49.72203" lon="2.36741">
        <ele>105.5</ele>
        <time>2022-10-05T13:15:55Z</time>
      </trkpt>
      <trkpt lat="49.72201" lon="2.36742">
        <ele>105.6</ele>
        <time>2022-10-05T13:15:56Z</time>
      </trkpt>
      <trkpt lat="49.722" lon="2.36743">
        <ele>105.7</ele>
        <time>2022-10-05T13:15:57Z</time>
      </trkpt>
      <trkpt lat="49.72199" lon="2.36744">
        <ele>105.8</ele>
        <time>2022-10-05T13:15:59Z</time>
      </trkpt>
      <trkpt lat="49.72198" lon="2.36745">
        <ele>105.9</ele>
        <time>2022-10-05T13:16:00Z</time>
      </trkpt>
      <trkpt lat="49.72197" lon="2.36746">
        <ele>105.9</ele>
        <time>2022-10-05T13:16:01Z</time>
      </trkpt>
      <trkpt lat="49.72195" lon="2.36748">
        <ele>106</ele>
        <time>2022-10-05T13:16:02Z</time>
      </trkpt>
      <trkpt lat="49.72195" lon="2.36749">
        <ele>106.1</ele>
        <time>2022-10-05T13:16:03Z</time>
      </trkpt>
      <trkpt lat="49.72194" lon="2.3675">
        <ele>106.1</ele>
        <time>2022-10-05T13:16:04Z</time>
      </trkpt>
      <trkpt lat="49.72192" lon="2.36752">
        <ele>106.2</ele>
        <time>2022-10-05T13:16:05Z</time>
      </trkpt>
      <trkpt lat="49.72191" lon="2.36753">
        <ele>106.2</ele>
        <time>2022-10-05T13:16:07Z</time>
      </trkpt>
      <trkpt lat="49.72191" lon="2.36754">
        <ele>106.3</ele>
        <time>2022-10-05T13:16:08Z</time>
      </trkpt>
      <trkpt lat="49.7219" lon="2.36756">
        <ele>106.3</ele>
        <time>2022-10-05T13:16:09Z</time>
      </trkpt>
      <trkpt lat="49.72189" lon="2.36757">
        <ele>106.4</ele>
        <time>2022-10-05T13:16:10Z</time>
      </trkpt>
      <trkpt lat="49.72187" lon="2.36759">
        <ele>106.5</ele>
        <time>2022-10-05T13:16:11Z</time>
      </trkpt>
      <trkpt lat="49.72186" lon="2.3676">
        <ele>106.5</ele>
        <time>2022-10-05T13:16:12Z</time>
      </trkpt>
      <trkpt lat="49.72185" lon="2.36761">
        <ele>106.6</ele>
        <time>2022-10-05T13:16:13Z</time>
      </trkpt>
      <trkpt lat="49.72184" lon="2.36762">
        <ele>106.6</ele>
        <time>2022-10-05T13:16:15Z</time>
      </trkpt>
      <trkpt lat="49.72183" lon="2.36763">
        <ele>106.7</ele>
        <time>2022-10-05T13:16:16Z</time>
      </trkpt>
      <trkpt lat="49.72182" lon="2.36764">
        <ele>106.7</ele>
        <time>2022-10-05T13:16:17Z</time>
      </trkpt>
      <trkpt lat="49.72181" lon="2.36764">
        <ele>106.8</ele>
        <time>2022-10-05T13:16:18Z</time>
      </trkpt>
      <trkpt lat="49.72179" lon="2.36766">
        <ele>106.9</ele>
        <time>2022-10-05T13:16:19Z</time>
      </trkpt>
      <trkpt lat="49.72178" lon="2.36767">
        <ele>106.9</ele>
        <time>2022-10-05T13:16:21Z</time>
      </trkpt>
      <trkpt lat="49.72177" lon="2.36768">
        <ele>107</ele>
        <time>2022-10-05T13:16:22Z</time>
      </trkpt>
      <trkpt lat="49.72176" lon="2.36769">
        <ele>107</ele>
        <time>2022-10-05T13:16:23Z</time>
      </trkpt>
      <trkpt lat="49.72175" lon="2.36769">
        <ele>107</ele>
        <time>2022-10-05T13:16:24Z</time>
      </trkpt>
      <trkpt lat="49.72174" lon="2.3677">
        <ele>107.1</ele>
        <time>2022-10-05T13:16:25Z</time>
      </trkpt>
      <trkpt lat="49.72173" lon="2.36772">
        <ele>107.2</ele>
        <time>2022-10-05T13:16:26Z</time>
      </trkpt>
      <trkpt lat="49.72172" lon="2.36773">
        <ele>107.2</ele>
        <time>2022-10-05T13:16:27Z</time>
      </trkpt>
      <trkpt lat="49.72171" lon="2.36774">
        <ele>107.3</ele>
        <time>2022-10-05T13:16:28Z</time>
      </trkpt>
      <trkpt lat="49.7217" lon="2.36775">
        <ele>107.3</ele>
        <time>2022-10-05T13:16:30Z</time>
      </trkpt>
      <trkpt lat="49.72169" lon="2.36776">
        <ele>107.4</ele>
        <time>2022-10-05T13:16:31Z</time>
      </trkpt>
      <trkpt lat="49.72168" lon="2.36776">
        <ele>107.4</ele>
        <time>2022-10-05T13:16:32Z</time>
      </trkpt>
      <trkpt lat="49.72167" lon="2.36777">
        <ele>107.4</ele>
        <time>2022-10-05T13:16:33Z</time>
      </trkpt>
      <trkpt lat="49.72166" lon="2.36777">
        <ele>107.5</ele>
        <time>2022-10-05T13:16:34Z</time>
      </trkpt>
      <trkpt lat="49.72165" lon="2.36778">
        <ele>107.5</ele>
        <time>2022-10-05T13:16:35Z</time>
      </trkpt>
      <trkpt lat="49.72164" lon="2.36779">
        <ele>107.6</ele>
        <time>2022-10-05T13:16:36Z</time>
      </trkpt>
      <trkpt lat="49.72162" lon="2.3678">
        <ele>107.7</ele>
        <time>2022-10-05T13:16:37Z</time>
      </trkpt>
      <trkpt lat="49.72161" lon="2.36781">
        <ele>107.7</ele>
        <time>2022-10-05T13:16:38Z</time>
      </trkpt>
      <trkpt lat="49.7216" lon="2.36781">
        <ele>107.7</ele>
        <time>2022-10-05T13:16:39Z</time>
      </trkpt>
      <trkpt lat="49.72159" lon="2.36782">
        <ele>107.8</ele>
        <time>2022-10-05T13:16:40Z</time>
      </trkpt>
      <trkpt lat="49.72157" lon="2.36784">
        <ele>107.9</ele>
        <time>2022-10-05T13:16:42Z</time>
      </trkpt>
      <trkpt lat="49.72155" lon="2.36785">
        <ele>107.9</ele>
        <time>2022-10-05T13:16:43Z</time>
      </trkpt>
      <trkpt lat="49.72154" lon="2.36785">
        <ele>108</ele>
        <time>2022-10-05T13:16:44Z</time>
      </trkpt>
      <trkpt lat="49.72153" lon="2.36786">
        <ele>108</ele>
        <time>2022-10-05T13:16:45Z</time>
      </trkpt>
      <trkpt lat="49.72153" lon="2.36787">
        <ele>108</ele>
        <time>2022-10-05T13:16:46Z</time>
      </trkpt>
      <trkpt lat="49.72151" lon="2.36788">
        <ele>108.1</ele>
        <time>2022-10-05T13:16:47Z</time>
      </trkpt>
      <trkpt lat="49.7215" lon="2.36788">
        <ele>108.1</ele>
        <time>2022-10-05T13:16:48Z</time>
      </trkpt>
      <trkpt lat="49.72148" lon="2.3679">
        <ele>108.2</ele>
        <time>2022-10-05T13:16:49Z</time>
      </trkpt>
      <trkpt lat="49.72147" lon="2.36791">
        <ele>108.2</ele>
        <time>2022-10-05T13:16:50Z</time>
      </trkpt>
      <trkpt lat="49.72147" lon="2.36792">
        <ele>108.2</ele>
        <time>2022-10-05T13:16:51Z</time>
      </trkpt>
      <trkpt lat="49.72145" lon="2.36794">
        <ele>108.3</ele>
        <time>2022-10-05T13:16:53Z</time>
      </trkpt>
      <trkpt lat="49.72144" lon="2.36794">
        <ele>108.3</ele>
        <time>2022-10-05T13:16:54Z</time>
      </trkpt>
      <trkpt lat="49.72143" lon="2.36795">
        <ele>108.4</ele>
        <time>2022-10-05T13:16:55Z</time>
      </trkpt>
      <trkpt lat="49.72142" lon="2.36797">
        <ele>108.4</ele>
        <time>2022-10-05T13:16:56Z</time>
      </trkpt>
      <trkpt lat="49.72141" lon="2.36797">
        <ele>108.5</ele>
        <time>2022-10-05T13:16:57Z</time>
      </trkpt>
      <trkpt lat="49.7214" lon="2.36798">
        <ele>108.5</ele>
        <time>2022-10-05T13:16:58Z</time>
      </trkpt>
      <trkpt lat="49.72138" lon="2.368">
        <ele>108.6</ele>
        <time>2022-10-05T13:16:59Z</time>
      </trkpt>
      <trkpt lat="49.72137" lon="2.36801">
        <ele>108.6</ele>
        <time>2022-10-05T13:17:01Z</time>
      </trkpt>
      <trkpt lat="49.72136" lon="2.36802">
        <ele>108.6</ele>
        <time>2022-10-05T13:17:02Z</time>
      </trkpt>
      <trkpt lat="49.72136" lon="2.36804">
        <ele>108.7</ele>
        <time>2022-10-05T13:17:03Z</time>
      </trkpt>
      <trkpt lat="49.72135" lon="2.36805">
        <ele>108.7</ele>
        <time>2022-10-05T13:17:04Z</time>
      </trkpt>
      <trkpt lat="49.72133" lon="2.36806">
        <ele>108.8</ele>
        <time>2022-10-05T13:17:05Z</time>
      </trkpt>
      <trkpt lat="49.72132" lon="2.36807">
        <ele>108.8</ele>
        <time>2022-10-05T13:17:06Z</time>
      </trkpt>
      <trkpt lat="49.72131" lon="2.36808">
        <ele>108.8</ele>
        <time>2022-10-05T13:17:07Z</time>
      </trkpt>
      <trkpt lat="49.7213" lon="2.36809">
        <ele>108.9</ele>
        <time>2022-10-05T13:17:08Z</time>
      </trkpt>
      <trkpt lat="49.72129" lon="2.3681">
        <ele>108.9</ele>
        <time>2022-10-05T13:17:09Z</time>
      </trkpt>
      <trkpt lat="49.72128" lon="2.36812">
        <ele>109</ele>
        <time>2022-10-05T13:17:11Z</time>
      </trkpt>
      <trkpt lat="49.72127" lon="2.36813">
        <ele>109</ele>
        <time>2022-10-05T13:17:12Z</time>
      </trkpt>
      <trkpt lat="49.72126" lon="2.36813">
        <ele>109.1</ele>
        <time>2022-10-05T13:17:13Z</time>
      </trkpt>
      <trkpt lat="49.72125" lon="2.36814">
        <ele>109.1</ele>
        <time>2022-10-05T13:17:14Z</time>
      </trkpt>
      <trkpt lat="49.72125" lon="2.36814">
        <ele>109.1</ele>
        <time>2022-10-05T13:17:15Z</time>
      </trkpt>
      <trkpt lat="49.72122" lon="2.36816">
        <ele>109.2</ele>
        <time>2022-10-05T13:17:17Z</time>
      </trkpt>
      <trkpt lat="49.72121" lon="2.36816">
        <ele>109.3</ele>
        <time>2022-10-05T13:17:18Z</time>
      </trkpt>
      <trkpt lat="49.7212" lon="2.36817">
        <ele>109.3</ele>
        <time>2022-10-05T13:17:19Z</time>
      </trkpt>
      <trkpt lat="49.72117" lon="2.36818">
        <ele>109.4</ele>
        <time>2022-10-05T13:17:21Z</time>
      </trkpt>
      <trkpt lat="49.72116" lon="2.3682">
        <ele>109.5</ele>
        <time>2022-10-05T13:17:22Z</time>
      </trkpt>
      <trkpt lat="49.72115" lon="2.3682">
        <ele>109.5</ele>
        <time>2022-10-05T13:17:23Z</time>
      </trkpt>
      <trkpt lat="49.72113" lon="2.36821">
        <ele>109.6</ele>
        <time>2022-10-05T13:17:24Z</time>
      </trkpt>
      <trkpt lat="49.72112" lon="2.36822">
        <ele>109.6</ele>
        <time>2022-10-05T13:17:26Z</time>
      </trkpt>
      <trkpt lat="49.72111" lon="2.36823">
        <ele>109.7</ele>
        <time>2022-10-05T13:17:27Z</time>
      </trkpt>
      <trkpt lat="49.7211" lon="2.36824">
        <ele>109.7</ele>
        <time>2022-10-05T13:17:28Z</time>
      </trkpt>
      <trkpt lat="49.72109" lon="2.36825">
        <ele>109.8</ele>
        <time>2022-10-05T13:17:29Z</time>
      </trkpt>
      <trkpt lat="49.72108" lon="2.36826">
        <ele>109.8</ele>
        <time>2022-10-05T13:17:30Z</time>
      </trkpt>
      <trkpt lat="49.72107" lon="2.36827">
        <ele>109.8</ele>
        <time>2022-10-05T13:17:31Z</time>
      </trkpt>
      <trkpt lat="49.72106" lon="2.36828">
        <ele>109.9</ele>
        <time>2022-10-05T13:17:32Z</time>
      </trkpt>
      <trkpt lat="49.72105" lon="2.36829">
        <ele>109.9</ele>
        <time>2022-10-05T13:17:33Z</time>
      </trkpt>
      <trkpt lat="49.72103" lon="2.3683">
        <ele>110</ele>
        <time>2022-10-05T13:17:35Z</time>
      </trkpt>
      <trkpt lat="49.72102" lon="2.36831">
        <ele>110</ele>
        <time>2022-10-05T13:17:36Z</time>
      </trkpt>
      <trkpt lat="49.72101" lon="2.36833">
        <ele>110.1</ele>
        <time>2022-10-05T13:17:37Z</time>
      </trkpt>
      <trkpt lat="49.72099" lon="2.36834">
        <ele>110.2</ele>
        <time>2022-10-05T13:17:38Z</time>
      </trkpt>
      <trkpt lat="49.72098" lon="2.36835">
        <ele>110.2</ele>
        <time>2022-10-05T13:17:40Z</time>
      </trkpt>
      <trkpt lat="49.72097" lon="2.36836">
        <ele>110.2</ele>
        <time>2022-10-05T13:17:41Z</time>
      </trkpt>
      <trkpt lat="49.72096" lon="2.36837">
        <ele>110.3</ele>
        <time>2022-10-05T13:17:42Z</time>
      </trkpt>
      <trkpt lat="49.72094" lon="2.36839">
        <ele>110.4</ele>
        <time>2022-10-05T13:17:43Z</time>
      </trkpt>
      <trkpt lat="49.72093" lon="2.3684">
        <ele>110.4</ele>
        <time>2022-10-05T13:17:44Z</time>
      </trkpt>
      <trkpt lat="49.72092" lon="2.36841">
        <ele>110.5</ele>
        <time>2022-10-05T13:17:45Z</time>
      </trkpt>
      <trkpt lat="49.7209" lon="2.36843">
        <ele>110.5</ele>
        <time>2022-10-05T13:17:47Z</time>
      </trkpt>
      <trkpt lat="49.72089" lon="2.36844">
        <ele>110.6</ele>
        <time>2022-10-05T13:17:48Z</time>
      </trkpt>
      <trkpt lat="49.72088" lon="2.36845">
        <ele>110.6</ele>
        <time>2022-10-05T13:17:49Z</time>
      </trkpt>
      <trkpt lat="49.72087" lon="2.36846">
        <ele>110.7</ele>
        <time>2022-10-05T13:17:50Z</time>
      </trkpt>
      <trkpt lat="49.72086" lon="2.36847">
        <ele>110.7</ele>
        <time>2022-10-05T13:17:51Z</time>
      </trkpt>
      <trkpt lat="49.72085" lon="2.36848">
        <ele>110.8</ele>
        <time>2022-10-05T13:17:52Z</time>
      </trkpt>
      <trkpt lat="49.72084" lon="2.36849">
        <ele>110.8</ele>
        <time>2022-10-05T13:17:53Z</time>
      </trkpt>
      <trkpt lat="49.72083" lon="2.36849">
        <ele>110.8</ele>
        <time>2022-10-05T13:17:55Z</time>
      </trkpt>
      <trkpt lat="49.72082" lon="2.3685">
        <ele>110.9</ele>
        <time>2022-10-05T13:17:56Z</time>
      </trkpt>
      <trkpt lat="49.72081" lon="2.36851">
        <ele>110.9</ele>
        <time>2022-10-05T13:17:57Z</time>
      </trkpt>
      <trkpt lat="49.7208" lon="2.36852">
        <ele>111</ele>
        <time>2022-10-05T13:17:58Z</time>
      </trkpt>
      <trkpt lat="49.72079" lon="2.36853">
        <ele>111</ele>
        <time>2022-10-05T13:17:59Z</time>
      </trkpt>
      <trkpt lat="49.72077" lon="2.36855">
        <ele>111.1</ele>
        <time>2022-10-05T13:18:01Z</time>
      </trkpt>
      <trkpt lat="49.72076" lon="2.36856">
        <ele>111.1</ele>
        <time>2022-10-05T13:18:02Z</time>
      </trkpt>
      <trkpt lat="49.72075" lon="2.36857">
        <ele>111.2</ele>
        <time>2022-10-05T13:18:03Z</time>
      </trkpt>
      <trkpt lat="49.72074" lon="2.36857">
        <ele>111.2</ele>
        <time>2022-10-05T13:18:04Z</time>
      </trkpt>
      <trkpt lat="49.72074" lon="2.36857">
        <ele>111.2</ele>
        <time>2022-10-05T13:18:06Z</time>
      </trkpt>
      <trkpt lat="49.72073" lon="2.36858">
        <ele>111.3</ele>
        <time>2022-10-05T13:18:07Z</time>
      </trkpt>
      <trkpt lat="49.72072" lon="2.36858">
        <ele>111.3</ele>
        <time>2022-10-05T13:18:08Z</time>
      </trkpt>
      <trkpt lat="49.7207" lon="2.36859">
        <ele>111.4</ele>
        <time>2022-10-05T13:18:09Z</time>
      </trkpt>
      <trkpt lat="49.7207" lon="2.3686">
        <ele>111.4</ele>
        <time>2022-10-05T13:18:10Z</time>
      </trkpt>
      <trkpt lat="49.72069" lon="2.3686">
        <ele>111.4</ele>
        <time>2022-10-05T13:18:11Z</time>
      </trkpt>
      <trkpt lat="49.72067" lon="2.36861">
        <ele>111.5</ele>
        <time>2022-10-05T13:18:12Z</time>
      </trkpt>
      <trkpt lat="49.72066" lon="2.36863">
        <ele>111.5</ele>
        <time>2022-10-05T13:18:13Z</time>
      </trkpt>
      <trkpt lat="49.72065" lon="2.36863">
        <ele>111.6</ele>
        <time>2022-10-05T13:18:14Z</time>
      </trkpt>
      <trkpt lat="49.72065" lon="2.36864">
        <ele>111.6</ele>
        <time>2022-10-05T13:18:15Z</time>
      </trkpt>
      <trkpt lat="49.72064" lon="2.36865">
        <ele>111.6</ele>
        <time>2022-10-05T13:18:16Z</time>
      </trkpt>
      <trkpt lat="49.72064" lon="2.36866">
        <ele>111.7</ele>
        <time>2022-10-05T13:18:18Z</time>
      </trkpt>
      <trkpt lat="49.72063" lon="2.36867">
        <ele>111.7</ele>
        <time>2022-10-05T13:18:19Z</time>
      </trkpt>
      <trkpt lat="49.72061" lon="2.36868">
        <ele>111.8</ele>
        <time>2022-10-05T13:18:20Z</time>
      </trkpt>
      <trkpt lat="49.7206" lon="2.36869">
        <ele>111.8</ele>
        <time>2022-10-05T13:18:21Z</time>
      </trkpt>
      <trkpt lat="49.72059" lon="2.36871">
        <ele>111.9</ele>
        <time>2022-10-05T13:18:22Z</time>
      </trkpt>
      <trkpt lat="49.72057" lon="2.36872">
        <ele>111.9</ele>
        <time>2022-10-05T13:18:23Z</time>
      </trkpt>
      <trkpt lat="49.72055" lon="2.36874">
        <ele>112</ele>
        <time>2022-10-05T13:18:25Z</time>
      </trkpt>
      <trkpt lat="49.72054" lon="2.36875">
        <ele>112.1</ele>
        <time>2022-10-05T13:18:26Z</time>
      </trkpt>
      <trkpt lat="49.72053" lon="2.36876">
        <ele>112.1</ele>
        <time>2022-10-05T13:18:27Z</time>
      </trkpt>
      <trkpt lat="49.72051" lon="2.36877">
        <ele>112.2</ele>
        <time>2022-10-05T13:18:28Z</time>
      </trkpt>
      <trkpt lat="49.7205" lon="2.36878">
        <ele>112.2</ele>
        <time>2022-10-05T13:18:30Z</time>
      </trkpt>
      <trkpt lat="49.72049" lon="2.36879">
        <ele>112.3</ele>
        <time>2022-10-05T13:18:31Z</time>
      </trkpt>
      <trkpt lat="49.72048" lon="2.3688">
        <ele>112.4</ele>
        <time>2022-10-05T13:18:32Z</time>
      </trkpt>
      <trkpt lat="49.72045" lon="2.36883">
        <ele>112.5</ele>
        <time>2022-10-05T13:18:34Z</time>
      </trkpt>
      <trkpt lat="49.72043" lon="2.36884">
        <ele>112.5</ele>
        <time>2022-10-05T13:18:35Z</time>
      </trkpt>
      <trkpt lat="49.72042" lon="2.36885">
        <ele>112.6</ele>
        <time>2022-10-05T13:18:36Z</time>
      </trkpt>
      <trkpt lat="49.72041" lon="2.36886">
        <ele>112.7</ele>
        <time>2022-10-05T13:18:37Z</time>
      </trkpt>
      <trkpt lat="49.7204" lon="2.36886">
        <ele>112.7</ele>
        <time>2022-10-05T13:18:38Z</time>
      </trkpt>
      <trkpt lat="49.72039" lon="2.36887">
        <ele>112.7</ele>
        <time>2022-10-05T13:18:39Z</time>
      </trkpt>
      <trkpt lat="49.72039" lon="2.36888">
        <ele>112.8</ele>
        <time>2022-10-05T13:18:40Z</time>
      </trkpt>
      <trkpt lat="49.72038" lon="2.36889">
        <ele>112.8</ele>
        <time>2022-10-05T13:18:41Z</time>
      </trkpt>
      <trkpt lat="49.72037" lon="2.36889">
        <ele>112.8</ele>
        <time>2022-10-05T13:18:42Z</time>
      </trkpt>
      <trkpt lat="49.72036" lon="2.3689">
        <ele>112.9</ele>
        <time>2022-10-05T13:18:43Z</time>
      </trkpt>
      <trkpt lat="49.72035" lon="2.36891">
        <ele>113</ele>
        <time>2022-10-05T13:18:45Z</time>
      </trkpt>
      <trkpt lat="49.72034" lon="2.36892">
        <ele>113</ele>
        <time>2022-10-05T13:18:46Z</time>
      </trkpt>
      <trkpt lat="49.72033" lon="2.36893">
        <ele>113.1</ele>
        <time>2022-10-05T13:18:47Z</time>
      </trkpt>
      <trkpt lat="49.72032" lon="2.36894">
        <ele>113.1</ele>
        <time>2022-10-05T13:18:48Z</time>
      </trkpt>
      <trkpt lat="49.72031" lon="2.36895">
        <ele>113.2</ele>
        <time>2022-10-05T13:18:49Z</time>
      </trkpt>
      <trkpt lat="49.7203" lon="2.36896">
        <ele>113.2</ele>
        <time>2022-10-05T13:18:50Z</time>
      </trkpt>
      <trkpt lat="49.72029" lon="2.36897">
        <ele>113.3</ele>
        <time>2022-10-05T13:18:51Z</time>
      </trkpt>
      <trkpt lat="49.72028" lon="2.36898">
        <ele>113.3</ele>
        <time>2022-10-05T13:18:52Z</time>
      </trkpt>
      <trkpt lat="49.72026" lon="2.36899">
        <ele>113.4</ele>
        <time>2022-10-05T13:18:53Z</time>
      </trkpt>
      <trkpt lat="49.72025" lon="2.36899">
        <ele>113.5</ele>
        <time>2022-10-05T13:18:54Z</time>
      </trkpt>
      <trkpt lat="49.72024" lon="2.369">
        <ele>113.5</ele>
        <time>2022-10-05T13:18:55Z</time>
      </trkpt>
      <trkpt lat="49.72023" lon="2.36901">
        <ele>113.6</ele>
        <time>2022-10-05T13:18:57Z</time>
      </trkpt>
      <trkpt lat="49.72022" lon="2.36901">
        <ele>113.6</ele>
        <time>2022-10-05T13:18:58Z</time>
      </trkpt>
      <trkpt lat="49.72021" lon="2.36901">
        <ele>113.7</ele>
        <time>2022-10-05T13:18:59Z</time>
      </trkpt>
      <trkpt lat="49.7202" lon="2.36901">
        <ele>113.7</ele>
        <time>2022-10-05T13:19:00Z</time>
      </trkpt>
      <trkpt lat="49.72019" lon="2.369">
        <ele>113.7</ele>
        <time>2022-10-05T13:19:01Z</time>
      </trkpt>
      <trkpt lat="49.72018" lon="2.36899">
        <ele>113.7</ele>
        <time>2022-10-05T13:19:02Z</time>
      </trkpt>
      <trkpt lat="49.72018" lon="2.36897">
        <ele>113.6</ele>
        <time>2022-10-05T13:19:03Z</time>
      </trkpt>
      <trkpt lat="49.72018" lon="2.36895">
        <ele>113.5</ele>
        <time>2022-10-05T13:19:04Z</time>
      </trkpt>
      <trkpt lat="49.72017" lon="2.36893">
        <ele>113.5</ele>
        <time>2022-10-05T13:19:05Z</time>
      </trkpt>
      <trkpt lat="49.72016" lon="2.36891">
        <ele>113.4</ele>
        <time>2022-10-05T13:19:06Z</time>
      </trkpt>
      <trkpt lat="49.72016" lon="2.36888">
        <ele>113.3</ele>
        <time>2022-10-05T13:19:07Z</time>
      </trkpt>
      <trkpt lat="49.72015" lon="2.36885">
        <ele>113.2</ele>
        <time>2022-10-05T13:19:09Z</time>
      </trkpt>
      <trkpt lat="49.72015" lon="2.36883">
        <ele>113.1</ele>
        <time>2022-10-05T13:19:10Z</time>
      </trkpt>
      <trkpt lat="49.72015" lon="2.36881">
        <ele>113.1</ele>
        <time>2022-10-05T13:19:11Z</time>
      </trkpt>
      <trkpt lat="49.72015" lon="2.36879">
        <ele>113</ele>
        <time>2022-10-05T13:19:13Z</time>
      </trkpt>
      <trkpt lat="49.72015" lon="2.36877">
        <ele>112.9</ele>
        <time>2022-10-05T13:19:14Z</time>
      </trkpt>
      <trkpt lat="49.72015" lon="2.36877">
        <ele>112.9</ele>
        <time>2022-10-05T13:19:15Z</time>
      </trkpt>
      <trkpt lat="49.72015" lon="2.36876">
        <ele>112.9</ele>
        <time>2022-10-05T13:19:16Z</time>
      </trkpt>
      <trkpt lat="49.72015" lon="2.36876">
        <ele>112.9</ele>
        <time>2022-10-05T13:19:17Z</time>
      </trkpt>
      <trkpt lat="49.72015" lon="2.36876">
        <ele>112.9</ele>
        <time>2022-10-05T13:19:18Z</time>
      </trkpt>
      <trkpt lat="49.72015" lon="2.36875">
        <ele>112.9</ele>
        <time>2022-10-05T13:19:19Z</time>
      </trkpt>
      <trkpt lat="49.72015" lon="2.36876">
        <ele>112.9</ele>
        <time>2022-10-05T13:19:20Z</time>
      </trkpt>
      <trkpt lat="49.72015" lon="2.36876">
        <ele>112.9</ele>
        <time>2022-10-05T13:19:21Z</time>
      </trkpt>
      <trkpt lat="49.72015" lon="2.36876">
        <ele>112.8</ele>
        <time>2022-10-05T13:19:22Z</time>
      </trkpt>
      <trkpt lat="49.72015" lon="2.36876">
        <ele>112.8</ele>
        <time>2022-10-05T13:19:23Z</time>
      </trkpt>
      <trkpt lat="49.72015" lon="2.36876">
        <ele>112.8</ele>
        <time>2022-10-05T13:19:24Z</time>
      </trkpt>
      <trkpt lat="49.72015" lon="2.36876">
        <ele>112.8</ele>
        <time>2022-10-05T13:19:25Z</time>
      </trkpt>
      <trkpt lat="49.72015" lon="2.36876">
        <ele>112.8</ele>
        <time>2022-10-05T13:19:26Z</time>
      </trkpt>
      <trkpt lat="49.72015" lon="2.36876">
        <ele>112.8</ele>
        <time>2022-10-05T13:19:27Z</time>
      </trkpt>
      <trkpt lat="49.72015" lon="2.36876">
        <ele>112.8</ele>
        <time>2022-10-05T13:19:28Z</time>
      </trkpt>
      <trkpt lat="49.72015" lon="2.36876">
        <ele>112.8</ele>
        <time>2022-10-05T13:19:29Z</time>
      </trkpt>
      <trkpt lat="49.72015" lon="2.36876">
        <ele>112.8</ele>
        <time>2022-10-05T13:19:30Z</time>
      </trkpt>
      <trkpt lat="49.72015" lon="2.36876">
        <ele>112.8</ele>
        <time>2022-10-05T13:19:31Z</time>
      </trkpt>
      <trkpt lat="49.72016" lon="2.36876">
        <ele>112.8</ele>
        <time>2022-10-05T13:19:32Z</time>
      </trkpt>
      <trkpt lat="49.72016" lon="2.36877">
        <ele>112.8</ele>
        <time>2022-10-05T13:19:33Z</time>
      </trkpt>
      <trkpt lat="49.72016" lon="2.36877">
        <ele>112.8</ele>
        <time>2022-10-05T13:19:34Z</time>
      </trkpt>
      <trkpt lat="49.72016" lon="2.36877">
        <ele>112.8</ele>
        <time>2022-10-05T13:19:35Z</time>
      </trkpt>
      <trkpt lat="49.72016" lon="2.36877">
        <ele>112.8</ele>
        <time>2022-10-05T13:19:36Z</time>
      </trkpt>
      <trkpt lat="49.72016" lon="2.36877">
        <ele>112.8</ele>
        <time>2022-10-05T13:19:37Z</time>
      </trkpt>
      <trkpt lat="49.72016" lon="2.36877">
        <ele>112.8</ele>
        <time>2022-10-05T13:19:38Z</time>
      </trkpt>
      <trkpt lat="49.72016" lon="2.36877">
        <ele>112.8</ele>
        <time>2022-10-05T13:19:39Z</time>
      </trkpt>
      <trkpt lat="49.72016" lon="2.36877">
        <ele>112.8</ele>
        <time>2022-10-05T13:19:40Z</time>
      </trkpt>
      <trkpt lat="49.72016" lon="2.36877">
        <ele>112.8</ele>
        <time>2022-10-05T13:19:41Z</time>
      </trkpt>
      <trkpt lat="49.72016" lon="2.36877">
        <ele>112.8</ele>
        <time>2022-10-05T13:19:42Z</time>
      </trkpt>
      <trkpt lat="49.72016" lon="2.36877">
        <ele>112.8</ele>
        <time>2022-10-05T13:19:43Z</time>
      </trkpt>
      <trkpt lat="49.72016" lon="2.36877">
        <ele>112.8</ele>
        <time>2022-10-05T13:19:44Z</time>
      </trkpt>
      <trkpt lat="49.72016" lon="2.36877">
        <ele>112.8</ele>
        <time>2022-10-05T13:19:45Z</time>
      </trkpt>
      <trkpt lat="49.72016" lon="2.36877">
        <ele>112.8</ele>
        <time>2022-10-05T13:19:46Z</time>
      </trkpt>
      <trkpt lat="49.72016" lon="2.36877">
        <ele>112.8</ele>
        <time>2022-10-05T13:19:47Z</time>
      </trkpt>
      <trkpt lat="49.72016" lon="2.36877">
        <ele>112.8</ele>
        <time>2022-10-05T13:19:48Z</time>
      </trkpt>
      <trkpt lat="49.72016" lon="2.36877">
        <ele>112.8</ele>
        <time>2022-10-05T13:19:49Z</time>
      </trkpt>
      <trkpt lat="49.72016" lon="2.36877">
        <ele>112.8</ele>
        <time>2022-10-05T13:19:50Z</time>
      </trkpt>
      <trkpt lat="49.72016" lon="2.36877">
        <ele>112.8</ele>
        <time>2022-10-05T13:19:51Z</time>
      </trkpt>
      <trkpt lat="49.72016" lon="2.36877">
        <ele>112.8</ele>
        <time>2022-10-05T13:19:52Z</time>
      </trkpt>
      <trkpt lat="49.72016" lon="2.36877">
        <ele>112.8</ele>
        <time>2022-10-05T13:19:53Z</time>
      </trkpt>
      <trkpt lat="49.72016" lon="2.36877">
        <ele>112.8</ele>
        <time>2022-10-05T13:19:54Z</time>
      </trkpt>
      <trkpt lat="49.72016" lon="2.36877">
        <ele>112.8</ele>
        <time>2022-10-05T13:19:55Z</time>
      </trkpt>
      <trkpt lat="49.72016" lon="2.36877">
        <ele>112.8</ele>
        <time>2022-10-05T13:19:56Z</time>
      </trkpt>
      <trkpt lat="49.72016" lon="2.36877">
        <ele>112.8</ele>
        <time>2022-10-05T13:19:57Z</time>
      </trkpt>
      <trkpt lat="49.72016" lon="2.36877">
        <ele>112.8</ele>
        <time>2022-10-05T13:19:58Z</time>
      </trkpt>
      <trkpt lat="49.72016" lon="2.36877">
        <ele>112.8</ele>
        <time>2022-10-05T13:19:59Z</time>
      </trkpt>
      <trkpt lat="49.72016" lon="2.36877">
        <ele>112.8</ele>
        <time>2022-10-05T13:20:00Z</time>
      </trkpt>
      <trkpt lat="49.72016" lon="2.36877">
        <ele>112.8</ele>
        <time>2022-10-05T13:20:01Z</time>
      </trkpt>
      <trkpt lat="49.72016" lon="2.36877">
        <ele>112.8</ele>
        <time>2022-10-05T13:20:02Z</time>
      </trkpt>
      <trkpt lat="49.72016" lon="2.36877">
        <ele>112.8</ele>
        <time>2022-10-05T13:20:03Z</time>
      </trkpt>
      <trkpt lat="49.72016" lon="2.36877">
        <ele>112.8</ele>
        <time>2022-10-05T13:20:04Z</time>
      </trkpt>
      <trkpt lat="49.72016" lon="2.36877">
        <ele>112.8</ele>
        <time>2022-10-05T13:20:05Z</time>
      </trkpt>
      <trkpt lat="49.72016" lon="2.36877">
        <ele>112.8</ele>
        <time>2022-10-05T13:20:06Z</time>
      </trkpt>
      <trkpt lat="49.72016" lon="2.36877">
        <ele>112.8</ele>
        <time>2022-10-05T13:20:07Z</time>
      </trkpt>
      <trkpt lat="49.72016" lon="2.36877">
        <ele>112.8</ele>
        <time>2022-10-05T13:20:08Z</time>
      </trkpt>
      <trkpt lat="49.72016" lon="2.36877">
        <ele>112.8</ele>
        <time>2022-10-05T13:20:09Z</time>
      </trkpt>
      <trkpt lat="49.72016" lon="2.36877">
        <ele>112.8</ele>
        <time>2022-10-05T13:20:10Z</time>
      </trkpt>
      <trkpt lat="49.72016" lon="2.36877">
        <ele>112.8</ele>
        <time>2022-10-05T13:20:11Z</time>
      </trkpt>
      <trkpt lat="49.72016" lon="2.36877">
        <ele>112.8</ele>
        <time>2022-10-05T13:20:12Z</time>
      </trkpt>
      <trkpt lat="49.72016" lon="2.36877">
        <ele>112.8</ele>
        <time>2022-10-05T13:20:13Z</time>
      </trkpt>
      <trkpt lat="49.72016" lon="2.36877">
        <ele>112.8</ele>
        <time>2022-10-05T13:20:14Z</time>
      </trkpt>
      <trkpt lat="49.72016" lon="2.36877">
        <ele>112.8</ele>
        <time>2022-10-05T13:20:15Z</time>
      </trkpt>
      <trkpt lat="49.72016" lon="2.36877">
        <ele>112.8</ele>
        <time>2022-10-05T13:20:16Z</time>
      </trkpt>
      <trkpt lat="49.72016" lon="2.36877">
        <ele>112.8</ele>
        <time>2022-10-05T13:20:17Z</time>
      </trkpt>
      <trkpt lat="49.72016" lon="2.36877">
        <ele>112.8</ele>
        <time>2022-10-05T13:20:18Z</time>
      </trkpt>
      <trkpt lat="49.72016" lon="2.36877">
        <ele>112.8</ele>
        <time>2022-10-05T13:20:19Z</time>
      </trkpt>
      <trkpt lat="49.72016" lon="2.36877">
        <ele>112.8</ele>
        <time>2022-10-05T13:20:20Z</time>
      </trkpt>
      <trkpt lat="49.72016" lon="2.36877">
        <ele>112.8</ele>
        <time>2022-10-05T13:20:21Z</time>
      </trkpt>
      <trkpt lat="49.72016" lon="2.36877">
        <ele>112.8</ele>
        <time>2022-10-05T13:20:22Z</time>
      </trkpt>
      <trkpt lat="49.72017" lon="2.36879">
        <ele>112.7</ele>
        <time>2022-10-05T13:20:23Z</time>
      </trkpt>
      <trkpt lat="49.72018" lon="2.36881">
        <ele>112.6</ele>
        <time>2022-10-05T13:20:24Z</time>
      </trkpt>
      <trkpt lat="49.72018" lon="2.36881">
        <ele>112.6</ele>
        <time>2022-10-05T13:20:25Z</time>
      </trkpt>
      <trkpt lat="49.72018" lon="2.3688">
        <ele>112.6</ele>
        <time>2022-10-05T13:20:26Z</time>
      </trkpt>
      <trkpt lat="49.72017" lon="2.36878">
        <ele>112.5</ele>
        <time>2022-10-05T13:20:27Z</time>
      </trkpt>
      <trkpt lat="49.72017" lon="2.36877">
        <ele>112.4</ele>
        <time>2022-10-05T13:20:28Z</time>
      </trkpt>
      <trkpt lat="49.72016" lon="2.36872">
        <ele>112.3</ele>
        <time>2022-10-05T13:20:29Z</time>
      </trkpt>
      <trkpt lat="49.72016" lon="2.36871">
        <ele>112.3</ele>
        <time>2022-10-05T13:20:30Z</time>
      </trkpt>
      <trkpt lat="49.72016" lon="2.36871">
        <ele>112.2</ele>
        <time>2022-10-05T13:20:31Z</time>
      </trkpt>
      <trkpt lat="49.72016" lon="2.36867">
        <ele>112.1</ele>
        <time>2022-10-05T13:20:32Z</time>
      </trkpt>
      <trkpt lat="49.72015" lon="2.36866">
        <ele>112.1</ele>
        <time>2022-10-05T13:20:33Z</time>
      </trkpt>
      <trkpt lat="49.72015" lon="2.36864">
        <ele>112</ele>
        <time>2022-10-05T13:20:34Z</time>
      </trkpt>
      <trkpt lat="49.72014" lon="2.36861">
        <ele>111.9</ele>
        <time>2022-10-05T13:20:36Z</time>
      </trkpt>
      <trkpt lat="49.72014" lon="2.36859">
        <ele>111.9</ele>
        <time>2022-10-05T13:20:37Z</time>
      </trkpt>
      <trkpt lat="49.72013" lon="2.36856">
        <ele>111.7</ele>
        <time>2022-10-05T13:20:38Z</time>
      </trkpt>
      <trkpt lat="49.72012" lon="2.36854">
        <ele>111.7</ele>
        <time>2022-10-05T13:20:39Z</time>
      </trkpt>
      <trkpt lat="49.72012" lon="2.36853">
        <ele>111.7</ele>
        <time>2022-10-05T13:20:40Z</time>
      </trkpt>
      <trkpt lat="49.72011" lon="2.36851">
        <ele>111.6</ele>
        <time>2022-10-05T13:20:41Z</time>
      </trkpt>
      <trkpt lat="49.72011" lon="2.36849">
        <ele>111.5</ele>
        <time>2022-10-05T13:20:43Z</time>
      </trkpt>
      <trkpt lat="49.7201" lon="2.36847">
        <ele>111.5</ele>
        <time>2022-10-05T13:20:44Z</time>
      </trkpt>
      <trkpt lat="49.7201" lon="2.36845">
        <ele>111.4</ele>
        <time>2022-10-05T13:20:45Z</time>
      </trkpt>
      <trkpt lat="49.72009" lon="2.36842">
        <ele>111.4</ele>
        <time>2022-10-05T13:20:46Z</time>
      </trkpt>
      <trkpt lat="49.72009" lon="2.3684">
        <ele>111.3</ele>
        <time>2022-10-05T13:20:47Z</time>
      </trkpt>
      <trkpt lat="49.72009" lon="2.36839">
        <ele>111.3</ele>
        <time>2022-10-05T13:20:48Z</time>
      </trkpt>
      <trkpt lat="49.72009" lon="2.36838">
        <ele>111.3</ele>
        <time>2022-10-05T13:20:49Z</time>
      </trkpt>
      <trkpt lat="49.72009" lon="2.36836">
        <ele>111.2</ele>
        <time>2022-10-05T13:20:50Z</time>
      </trkpt>
      <trkpt lat="49.72008" lon="2.36834">
        <ele>111.2</ele>
        <time>2022-10-05T13:20:51Z</time>
      </trkpt>
      <trkpt lat="49.72008" lon="2.36831">
        <ele>111.1</ele>
        <time>2022-10-05T13:20:53Z</time>
      </trkpt>
      <trkpt lat="49.72008" lon="2.36829">
        <ele>111.1</ele>
        <time>2022-10-05T13:20:54Z</time>
      </trkpt>
      <trkpt lat="49.72007" lon="2.36827">
        <ele>111</ele>
        <time>2022-10-05T13:20:55Z</time>
      </trkpt>
      <trkpt lat="49.72007" lon="2.36824">
        <ele>111</ele>
        <time>2022-10-05T13:20:56Z</time>
      </trkpt>
      <trkpt lat="49.72006" lon="2.36821">
        <ele>110.9</ele>
        <time>2022-10-05T13:20:57Z</time>
      </trkpt>
      <trkpt lat="49.72006" lon="2.3682">
        <ele>110.9</ele>
        <time>2022-10-05T13:20:58Z</time>
      </trkpt>
      <trkpt lat="49.72006" lon="2.36819">
        <ele>110.8</ele>
        <time>2022-10-05T13:20:59Z</time>
      </trkpt>
      <trkpt lat="49.72005" lon="2.36815">
        <ele>110.8</ele>
        <time>2022-10-05T13:21:01Z</time>
      </trkpt>
      <trkpt lat="49.72005" lon="2.36814">
        <ele>110.7</ele>
        <time>2022-10-05T13:21:02Z</time>
      </trkpt>
      <trkpt lat="49.72005" lon="2.36813">
        <ele>110.7</ele>
        <time>2022-10-05T13:21:03Z</time>
      </trkpt>
      <trkpt lat="49.72004" lon="2.36811">
        <ele>110.7</ele>
        <time>2022-10-05T13:21:04Z</time>
      </trkpt>
      <trkpt lat="49.72004" lon="2.3681">
        <ele>110.7</ele>
        <time>2022-10-05T13:21:05Z</time>
      </trkpt>
      <trkpt lat="49.72004" lon="2.36807">
        <ele>110.6</ele>
        <time>2022-10-05T13:21:06Z</time>
      </trkpt>
      <trkpt lat="49.72003" lon="2.36805">
        <ele>110.6</ele>
        <time>2022-10-05T13:21:07Z</time>
      </trkpt>
      <trkpt lat="49.72002" lon="2.36802">
        <ele>110.5</ele>
        <time>2022-10-05T13:21:08Z</time>
      </trkpt>
      <trkpt lat="49.72002" lon="2.368">
        <ele>110.5</ele>
        <time>2022-10-05T13:21:09Z</time>
      </trkpt>
      <trkpt lat="49.72002" lon="2.36799">
        <ele>110.5</ele>
        <time>2022-10-05T13:21:10Z</time>
      </trkpt>
      <trkpt lat="49.72001" lon="2.36797">
        <ele>110.4</ele>
        <time>2022-10-05T13:21:11Z</time>
      </trkpt>
      <trkpt lat="49.72001" lon="2.36796">
        <ele>110.4</ele>
        <time>2022-10-05T13:21:12Z</time>
      </trkpt>
      <trkpt lat="49.72" lon="2.36794">
        <ele>110.4</ele>
        <time>2022-10-05T13:21:13Z</time>
      </trkpt>
      <trkpt lat="49.72" lon="2.36792">
        <ele>110.4</ele>
        <time>2022-10-05T13:21:15Z</time>
      </trkpt>
      <trkpt lat="49.71999" lon="2.3679">
        <ele>110.3</ele>
        <time>2022-10-05T13:21:16Z</time>
      </trkpt>
      <trkpt lat="49.71999" lon="2.36789">
        <ele>110.3</ele>
        <time>2022-10-05T13:21:17Z</time>
      </trkpt>
      <trkpt lat="49.71998" lon="2.36786">
        <ele>110.3</ele>
        <time>2022-10-05T13:21:18Z</time>
      </trkpt>
      <trkpt lat="49.71998" lon="2.36784">
        <ele>110.3</ele>
        <time>2022-10-05T13:21:19Z</time>
      </trkpt>
      <trkpt lat="49.71998" lon="2.36783">
        <ele>110.3</ele>
        <time>2022-10-05T13:21:20Z</time>
      </trkpt>
      <trkpt lat="49.71997" lon="2.36782">
        <ele>110.2</ele>
        <time>2022-10-05T13:21:21Z</time>
      </trkpt>
      <trkpt lat="49.71997" lon="2.36781">
        <ele>110.2</ele>
        <time>2022-10-05T13:21:22Z</time>
      </trkpt>
      <trkpt lat="49.71997" lon="2.36779">
        <ele>110.2</ele>
        <time>2022-10-05T13:21:24Z</time>
      </trkpt>
      <trkpt lat="49.71996" lon="2.36778">
        <ele>110.2</ele>
        <time>2022-10-05T13:21:25Z</time>
      </trkpt>
      <trkpt lat="49.71996" lon="2.36775">
        <ele>110.2</ele>
        <time>2022-10-05T13:21:26Z</time>
      </trkpt>
      <trkpt lat="49.71995" lon="2.36772">
        <ele>110.1</ele>
        <time>2022-10-05T13:21:27Z</time>
      </trkpt>
      <trkpt lat="49.71995" lon="2.36771">
        <ele>110.1</ele>
        <time>2022-10-05T13:21:29Z</time>
      </trkpt>
      <trkpt lat="49.71995" lon="2.36769">
        <ele>110.1</ele>
        <time>2022-10-05T13:21:30Z</time>
      </trkpt>
      <trkpt lat="49.71994" lon="2.36767">
        <ele>110.1</ele>
        <time>2022-10-05T13:21:31Z</time>
      </trkpt>
      <trkpt lat="49.71994" lon="2.36765">
        <ele>110.1</ele>
        <time>2022-10-05T13:21:32Z</time>
      </trkpt>
      <trkpt lat="49.71993" lon="2.36764">
        <ele>110</ele>
        <time>2022-10-05T13:21:33Z</time>
      </trkpt>
      <trkpt lat="49.71993" lon="2.36762">
        <ele>110</ele>
        <time>2022-10-05T13:21:34Z</time>
      </trkpt>
      <trkpt lat="49.71992" lon="2.3676">
        <ele>110</ele>
        <time>2022-10-05T13:21:35Z</time>
      </trkpt>
      <trkpt lat="49.71992" lon="2.36758">
        <ele>110</ele>
        <time>2022-10-05T13:21:36Z</time>
      </trkpt>
      <trkpt lat="49.71991" lon="2.36756">
        <ele>109.9</ele>
        <time>2022-10-05T13:21:37Z</time>
      </trkpt>
      <trkpt lat="49.71991" lon="2.36754">
        <ele>109.9</ele>
        <time>2022-10-05T13:21:38Z</time>
      </trkpt>
      <trkpt lat="49.7199" lon="2.36752">
        <ele>109.9</ele>
        <time>2022-10-05T13:21:39Z</time>
      </trkpt>
      <trkpt lat="49.7199" lon="2.3675">
        <ele>109.9</ele>
        <time>2022-10-05T13:21:41Z</time>
      </trkpt>
      <trkpt lat="49.71989" lon="2.36749">
        <ele>109.8</ele>
        <time>2022-10-05T13:21:42Z</time>
      </trkpt>
      <trkpt lat="49.71989" lon="2.36746">
        <ele>109.8</ele>
        <time>2022-10-05T13:21:43Z</time>
      </trkpt>
      <trkpt lat="49.71989" lon="2.36743">
        <ele>109.8</ele>
        <time>2022-10-05T13:21:45Z</time>
      </trkpt>
      <trkpt lat="49.71988" lon="2.36741">
        <ele>109.7</ele>
        <time>2022-10-05T13:21:46Z</time>
      </trkpt>
      <trkpt lat="49.71988" lon="2.36739">
        <ele>109.7</ele>
        <time>2022-10-05T13:21:47Z</time>
      </trkpt>
      <trkpt lat="49.71988" lon="2.36737">
        <ele>109.7</ele>
        <time>2022-10-05T13:21:48Z</time>
      </trkpt>
      <trkpt lat="49.71987" lon="2.36734">
        <ele>109.6</ele>
        <time>2022-10-05T13:21:49Z</time>
      </trkpt>
      <trkpt lat="49.71987" lon="2.36732">
        <ele>109.6</ele>
        <time>2022-10-05T13:21:50Z</time>
      </trkpt>
      <trkpt lat="49.71987" lon="2.3673">
        <ele>109.5</ele>
        <time>2022-10-05T13:21:51Z</time>
      </trkpt>
      <trkpt lat="49.71986" lon="2.36727">
        <ele>109.5</ele>
        <time>2022-10-05T13:21:53Z</time>
      </trkpt>
      <trkpt lat="49.71986" lon="2.36725">
        <ele>109.5</ele>
        <time>2022-10-05T13:21:54Z</time>
      </trkpt>
      <trkpt lat="49.71985" lon="2.36724">
        <ele>109.4</ele>
        <time>2022-10-05T13:21:55Z</time>
      </trkpt>
      <trkpt lat="49.71985" lon="2.36721">
        <ele>109.4</ele>
        <time>2022-10-05T13:21:56Z</time>
      </trkpt>
      <trkpt lat="49.71984" lon="2.36717">
        <ele>109.3</ele>
        <time>2022-10-05T13:21:57Z</time>
      </trkpt>
      <trkpt lat="49.71984" lon="2.36716">
        <ele>109.3</ele>
        <time>2022-10-05T13:21:59Z</time>
      </trkpt>
      <trkpt lat="49.71983" lon="2.36715">
        <ele>109.3</ele>
        <time>2022-10-05T13:22:00Z</time>
      </trkpt>
      <trkpt lat="49.71983" lon="2.36711">
        <ele>109.2</ele>
        <time>2022-10-05T13:22:01Z</time>
      </trkpt>
      <trkpt lat="49.71982" lon="2.3671">
        <ele>109.2</ele>
        <time>2022-10-05T13:22:02Z</time>
      </trkpt>
      <trkpt lat="49.71982" lon="2.36709">
        <ele>109.2</ele>
        <time>2022-10-05T13:22:03Z</time>
      </trkpt>
      <trkpt lat="49.71982" lon="2.36707">
        <ele>109.1</ele>
        <time>2022-10-05T13:22:04Z</time>
      </trkpt>
      <trkpt lat="49.71981" lon="2.36705">
        <ele>109.1</ele>
        <time>2022-10-05T13:22:05Z</time>
      </trkpt>
      <trkpt lat="49.71981" lon="2.36702">
        <ele>109.1</ele>
        <time>2022-10-05T13:22:07Z</time>
      </trkpt>
      <trkpt lat="49.71981" lon="2.367">
        <ele>109</ele>
        <time>2022-10-05T13:22:08Z</time>
      </trkpt>
      <trkpt lat="49.71981" lon="2.36699">
        <ele>109</ele>
        <time>2022-10-05T13:22:09Z</time>
      </trkpt>
      <trkpt lat="49.7198" lon="2.36697">
        <ele>109</ele>
        <time>2022-10-05T13:22:10Z</time>
      </trkpt>
      <trkpt lat="49.7198" lon="2.36696">
        <ele>109</ele>
        <time>2022-10-05T13:22:11Z</time>
      </trkpt>
      <trkpt lat="49.71979" lon="2.36693">
        <ele>108.9</ele>
        <time>2022-10-05T13:22:12Z</time>
      </trkpt>
      <trkpt lat="49.71979" lon="2.36692">
        <ele>108.9</ele>
        <time>2022-10-05T13:22:13Z</time>
      </trkpt>
      <trkpt lat="49.71979" lon="2.36691">
        <ele>108.9</ele>
        <time>2022-10-05T13:22:14Z</time>
      </trkpt>
      <trkpt lat="49.71978" lon="2.36689">
        <ele>108.8</ele>
        <time>2022-10-05T13:22:15Z</time>
      </trkpt>
      <trkpt lat="49.71978" lon="2.36686">
        <ele>108.8</ele>
        <time>2022-10-05T13:22:16Z</time>
      </trkpt>
      <trkpt lat="49.71978" lon="2.36683">
        <ele>108.7</ele>
        <time>2022-10-05T13:22:17Z</time>
      </trkpt>
      <trkpt lat="49.71977" lon="2.36682">
        <ele>108.7</ele>
        <time>2022-10-05T13:22:19Z</time>
      </trkpt>
      <trkpt lat="49.71977" lon="2.36681">
        <ele>108.7</ele>
        <time>2022-10-05T13:22:20Z</time>
      </trkpt>
      <trkpt lat="49.71977" lon="2.36678">
        <ele>108.7</ele>
        <time>2022-10-05T13:22:21Z</time>
      </trkpt>
      <trkpt lat="49.71976" lon="2.36677">
        <ele>108.6</ele>
        <time>2022-10-05T13:22:22Z</time>
      </trkpt>
      <trkpt lat="49.71976" lon="2.36675">
        <ele>108.6</ele>
        <time>2022-10-05T13:22:23Z</time>
      </trkpt>
      <trkpt lat="49.71976" lon="2.36673">
        <ele>108.6</ele>
        <time>2022-10-05T13:22:24Z</time>
      </trkpt>
      <trkpt lat="49.71976" lon="2.36671">
        <ele>108.5</ele>
        <time>2022-10-05T13:22:25Z</time>
      </trkpt>
      <trkpt lat="49.71975" lon="2.3667">
        <ele>108.5</ele>
        <time>2022-10-05T13:22:26Z</time>
      </trkpt>
      <trkpt lat="49.71975" lon="2.36667">
        <ele>108.5</ele>
        <time>2022-10-05T13:22:27Z</time>
      </trkpt>
      <trkpt lat="49.71974" lon="2.36665">
        <ele>108.4</ele>
        <time>2022-10-05T13:22:28Z</time>
      </trkpt>
      <trkpt lat="49.71974" lon="2.36664">
        <ele>108.4</ele>
        <time>2022-10-05T13:22:29Z</time>
      </trkpt>
      <trkpt lat="49.71974" lon="2.36662">
        <ele>108.4</ele>
        <time>2022-10-05T13:22:30Z</time>
      </trkpt>
      <trkpt lat="49.71973" lon="2.3666">
        <ele>108.3</ele>
        <time>2022-10-05T13:22:31Z</time>
      </trkpt>
      <trkpt lat="49.71973" lon="2.36657">
        <ele>108.3</ele>
        <time>2022-10-05T13:22:32Z</time>
      </trkpt>
      <trkpt lat="49.71973" lon="2.36655">
        <ele>108.3</ele>
        <time>2022-10-05T13:22:34Z</time>
      </trkpt>
      <trkpt lat="49.71972" lon="2.36654">
        <ele>108.3</ele>
        <time>2022-10-05T13:22:35Z</time>
      </trkpt>
      <trkpt lat="49.71972" lon="2.36652">
        <ele>108.2</ele>
        <time>2022-10-05T13:22:36Z</time>
      </trkpt>
      <trkpt lat="49.71972" lon="2.36651">
        <ele>108.2</ele>
        <time>2022-10-05T13:22:37Z</time>
      </trkpt>
      <trkpt lat="49.71971" lon="2.36649">
        <ele>108.2</ele>
        <time>2022-10-05T13:22:38Z</time>
      </trkpt>
      <trkpt lat="49.7197" lon="2.36646">
        <ele>108.1</ele>
        <time>2022-10-05T13:22:39Z</time>
      </trkpt>
      <trkpt lat="49.7197" lon="2.36645">
        <ele>108.1</ele>
        <time>2022-10-05T13:22:40Z</time>
      </trkpt>
      <trkpt lat="49.7197" lon="2.36644">
        <ele>108.1</ele>
        <time>2022-10-05T13:22:41Z</time>
      </trkpt>
      <trkpt lat="49.71969" lon="2.36643">
        <ele>108.1</ele>
        <time>2022-10-05T13:22:42Z</time>
      </trkpt>
      <trkpt lat="49.71969" lon="2.36641">
        <ele>108</ele>
        <time>2022-10-05T13:22:43Z</time>
      </trkpt>
      <trkpt lat="49.71968" lon="2.36639">
        <ele>108</ele>
        <time>2022-10-05T13:22:44Z</time>
      </trkpt>
      <trkpt lat="49.71967" lon="2.36636">
        <ele>107.9</ele>
        <time>2022-10-05T13:22:45Z</time>
      </trkpt>
      <trkpt lat="49.71967" lon="2.36635">
        <ele>107.9</ele>
        <time>2022-10-05T13:22:46Z</time>
      </trkpt>
      <trkpt lat="49.71967" lon="2.36634">
        <ele>107.9</ele>
        <time>2022-10-05T13:22:47Z</time>
      </trkpt>
      <trkpt lat="49.71966" lon="2.36631">
        <ele>107.9</ele>
        <time>2022-10-05T13:22:48Z</time>
      </trkpt>
      <trkpt lat="49.71966" lon="2.3663">
        <ele>107.8</ele>
        <time>2022-10-05T13:22:50Z</time>
      </trkpt>
      <trkpt lat="49.71965" lon="2.36629">
        <ele>107.8</ele>
        <time>2022-10-05T13:22:51Z</time>
      </trkpt>
      <trkpt lat="49.71965" lon="2.36628">
        <ele>107.8</ele>
        <time>2022-10-05T13:22:52Z</time>
      </trkpt>
      <trkpt lat="49.71965" lon="2.36626">
        <ele>107.8</ele>
        <time>2022-10-05T13:22:53Z</time>
      </trkpt>
      <trkpt lat="49.71965" lon="2.36625">
        <ele>107.8</ele>
        <time>2022-10-05T13:22:54Z</time>
      </trkpt>
      <trkpt lat="49.71964" lon="2.36623">
        <ele>107.7</ele>
        <time>2022-10-05T13:22:55Z</time>
      </trkpt>
      <trkpt lat="49.71964" lon="2.36621">
        <ele>107.7</ele>
        <time>2022-10-05T13:22:56Z</time>
      </trkpt>
      <trkpt lat="49.71964" lon="2.36619">
        <ele>107.7</ele>
        <time>2022-10-05T13:22:57Z</time>
      </trkpt>
      <trkpt lat="49.71963" lon="2.36616">
        <ele>107.6</ele>
        <time>2022-10-05T13:22:58Z</time>
      </trkpt>
      <trkpt lat="49.71963" lon="2.36614">
        <ele>107.6</ele>
        <time>2022-10-05T13:22:59Z</time>
      </trkpt>
      <trkpt lat="49.71962" lon="2.36612">
        <ele>107.6</ele>
        <time>2022-10-05T13:23:01Z</time>
      </trkpt>
      <trkpt lat="49.71962" lon="2.36611">
        <ele>107.6</ele>
        <time>2022-10-05T13:23:02Z</time>
      </trkpt>
      <trkpt lat="49.71962" lon="2.36609">
        <ele>107.5</ele>
        <time>2022-10-05T13:23:03Z</time>
      </trkpt>
      <trkpt lat="49.71961" lon="2.36607">
        <ele>107.5</ele>
        <time>2022-10-05T13:23:04Z</time>
      </trkpt>
      <trkpt lat="49.71961" lon="2.36606">
        <ele>107.5</ele>
        <time>2022-10-05T13:23:05Z</time>
      </trkpt>
      <trkpt lat="49.71961" lon="2.36604">
        <ele>107.5</ele>
        <time>2022-10-05T13:23:06Z</time>
      </trkpt>
      <trkpt lat="49.7196" lon="2.36601">
        <ele>107.4</ele>
        <time>2022-10-05T13:23:08Z</time>
      </trkpt>
      <trkpt lat="49.7196" lon="2.36598">
        <ele>107.4</ele>
        <time>2022-10-05T13:23:09Z</time>
      </trkpt>
      <trkpt lat="49.71959" lon="2.36597">
        <ele>107.4</ele>
        <time>2022-10-05T13:23:10Z</time>
      </trkpt>
      <trkpt lat="49.71959" lon="2.36594">
        <ele>107.3</ele>
        <time>2022-10-05T13:23:11Z</time>
      </trkpt>
      <trkpt lat="49.71958" lon="2.36593">
        <ele>107.3</ele>
        <time>2022-10-05T13:23:12Z</time>
      </trkpt>
      <trkpt lat="49.71958" lon="2.36592">
        <ele>107.3</ele>
        <time>2022-10-05T13:23:13Z</time>
      </trkpt>
      <trkpt lat="49.71958" lon="2.3659">
        <ele>107.3</ele>
        <time>2022-10-05T13:23:14Z</time>
      </trkpt>
      <trkpt lat="49.71957" lon="2.36587">
        <ele>107.2</ele>
        <time>2022-10-05T13:23:15Z</time>
      </trkpt>
      <trkpt lat="49.71957" lon="2.36584">
        <ele>107.2</ele>
        <time>2022-10-05T13:23:16Z</time>
      </trkpt>
      <trkpt lat="49.71956" lon="2.36583">
        <ele>107.2</ele>
        <time>2022-10-05T13:23:17Z</time>
      </trkpt>
      <trkpt lat="49.71956" lon="2.36581">
        <ele>107.1</ele>
        <time>2022-10-05T13:23:18Z</time>
      </trkpt>
      <trkpt lat="49.71955" lon="2.36579">
        <ele>107.1</ele>
        <time>2022-10-05T13:23:19Z</time>
      </trkpt>
      <trkpt lat="49.71955" lon="2.36577">
        <ele>107.1</ele>
        <time>2022-10-05T13:23:20Z</time>
      </trkpt>
      <trkpt lat="49.71954" lon="2.36573">
        <ele>107</ele>
        <time>2022-10-05T13:23:21Z</time>
      </trkpt>
      <trkpt lat="49.71954" lon="2.36572">
        <ele>107</ele>
        <time>2022-10-05T13:23:22Z</time>
      </trkpt>
      <trkpt lat="49.71954" lon="2.3657">
        <ele>107</ele>
        <time>2022-10-05T13:23:24Z</time>
      </trkpt>
      <trkpt lat="49.71953" lon="2.36569">
        <ele>106.9</ele>
        <time>2022-10-05T13:23:25Z</time>
      </trkpt>
      <trkpt lat="49.71953" lon="2.36567">
        <ele>106.9</ele>
        <time>2022-10-05T13:23:26Z</time>
      </trkpt>
      <trkpt lat="49.71953" lon="2.36566">
        <ele>106.9</ele>
        <time>2022-10-05T13:23:27Z</time>
      </trkpt>
      <trkpt lat="49.71953" lon="2.36564">
        <ele>106.8</ele>
        <time>2022-10-05T13:23:28Z</time>
      </trkpt>
      <trkpt lat="49.71953" lon="2.36562">
        <ele>106.8</ele>
        <time>2022-10-05T13:23:29Z</time>
      </trkpt>
      <trkpt lat="49.71952" lon="2.3656">
        <ele>106.8</ele>
        <time>2022-10-05T13:23:30Z</time>
      </trkpt>
      <trkpt lat="49.71952" lon="2.36558">
        <ele>106.7</ele>
        <time>2022-10-05T13:23:31Z</time>
      </trkpt>
      <trkpt lat="49.71952" lon="2.36554">
        <ele>106.7</ele>
        <time>2022-10-05T13:23:32Z</time>
      </trkpt>
      <trkpt lat="49.71952" lon="2.36552">
        <ele>106.6</ele>
        <time>2022-10-05T13:23:33Z</time>
      </trkpt>
      <trkpt lat="49.71952" lon="2.36551">
        <ele>106.6</ele>
        <time>2022-10-05T13:23:34Z</time>
      </trkpt>
      <trkpt lat="49.71952" lon="2.36548">
        <ele>106.6</ele>
        <time>2022-10-05T13:23:35Z</time>
      </trkpt>
      <trkpt lat="49.71952" lon="2.36546">
        <ele>106.5</ele>
        <time>2022-10-05T13:23:37Z</time>
      </trkpt>
      <trkpt lat="49.71951" lon="2.36545">
        <ele>106.5</ele>
        <time>2022-10-05T13:23:38Z</time>
      </trkpt>
      <trkpt lat="49.71951" lon="2.36543">
        <ele>106.5</ele>
        <time>2022-10-05T13:23:39Z</time>
      </trkpt>
      <trkpt lat="49.71951" lon="2.36541">
        <ele>106.4</ele>
        <time>2022-10-05T13:23:40Z</time>
      </trkpt>
      <trkpt lat="49.71951" lon="2.3654">
        <ele>106.4</ele>
        <time>2022-10-05T13:23:41Z</time>
      </trkpt>
      <trkpt lat="49.7195" lon="2.36537">
        <ele>106.3</ele>
        <time>2022-10-05T13:23:42Z</time>
      </trkpt>
      <trkpt lat="49.7195" lon="2.36535">
        <ele>106.3</ele>
        <time>2022-10-05T13:23:43Z</time>
      </trkpt>
      <trkpt lat="49.7195" lon="2.36534">
        <ele>106.3</ele>
        <time>2022-10-05T13:23:44Z</time>
      </trkpt>
      <trkpt lat="49.7195" lon="2.36533">
        <ele>106.3</ele>
        <time>2022-10-05T13:23:45Z</time>
      </trkpt>
      <trkpt lat="49.71949" lon="2.36531">
        <ele>106.3</ele>
        <time>2022-10-05T13:23:46Z</time>
      </trkpt>
      <trkpt lat="49.71949" lon="2.36529">
        <ele>106.2</ele>
        <time>2022-10-05T13:23:47Z</time>
      </trkpt>
      <trkpt lat="49.71949" lon="2.36527">
        <ele>106.2</ele>
        <time>2022-10-05T13:23:48Z</time>
      </trkpt>
      <trkpt lat="49.71949" lon="2.36524">
        <ele>106.1</ele>
        <time>2022-10-05T13:23:49Z</time>
      </trkpt>
      <trkpt lat="49.71948" lon="2.36522">
        <ele>106.1</ele>
        <time>2022-10-05T13:23:51Z</time>
      </trkpt>
      <trkpt lat="49.71948" lon="2.36521">
        <ele>106.1</ele>
        <time>2022-10-05T13:23:52Z</time>
      </trkpt>
      <trkpt lat="49.71948" lon="2.36518">
        <ele>106.1</ele>
        <time>2022-10-05T13:23:53Z</time>
      </trkpt>
      <trkpt lat="49.71947" lon="2.36516">
        <ele>106</ele>
        <time>2022-10-05T13:23:55Z</time>
      </trkpt>
      <trkpt lat="49.71947" lon="2.36515">
        <ele>106</ele>
        <time>2022-10-05T13:23:56Z</time>
      </trkpt>
      <trkpt lat="49.71946" lon="2.36513">
        <ele>106</ele>
        <time>2022-10-05T13:23:57Z</time>
      </trkpt>
      <trkpt lat="49.71946" lon="2.36511">
        <ele>105.9</ele>
        <time>2022-10-05T13:23:58Z</time>
      </trkpt>
      <trkpt lat="49.71945" lon="2.36509">
        <ele>105.9</ele>
        <time>2022-10-05T13:23:59Z</time>
      </trkpt>
      <trkpt lat="49.71945" lon="2.36508">
        <ele>105.9</ele>
        <time>2022-10-05T13:24:00Z</time>
      </trkpt>
      <trkpt lat="49.71945" lon="2.36506">
        <ele>105.8</ele>
        <time>2022-10-05T13:24:01Z</time>
      </trkpt>
      <trkpt lat="49.71944" lon="2.36505">
        <ele>105.8</ele>
        <time>2022-10-05T13:24:02Z</time>
      </trkpt>
      <trkpt lat="49.71944" lon="2.36503">
        <ele>105.8</ele>
        <time>2022-10-05T13:24:03Z</time>
      </trkpt>
      <trkpt lat="49.71944" lon="2.36502">
        <ele>105.8</ele>
        <time>2022-10-05T13:24:04Z</time>
      </trkpt>
      <trkpt lat="49.71943" lon="2.365">
        <ele>105.7</ele>
        <time>2022-10-05T13:24:05Z</time>
      </trkpt>
      <trkpt lat="49.71942" lon="2.36496">
        <ele>105.7</ele>
        <time>2022-10-05T13:24:06Z</time>
      </trkpt>
      <trkpt lat="49.71942" lon="2.36495">
        <ele>105.7</ele>
        <time>2022-10-05T13:24:07Z</time>
      </trkpt>
      <trkpt lat="49.71942" lon="2.36493">
        <ele>105.6</ele>
        <time>2022-10-05T13:24:08Z</time>
      </trkpt>
      <trkpt lat="49.71941" lon="2.36491">
        <ele>105.6</ele>
        <time>2022-10-05T13:24:09Z</time>
      </trkpt>
      <trkpt lat="49.71941" lon="2.36488">
        <ele>105.6</ele>
        <time>2022-10-05T13:24:11Z</time>
      </trkpt>
      <trkpt lat="49.71941" lon="2.36486">
        <ele>105.5</ele>
        <time>2022-10-05T13:24:12Z</time>
      </trkpt>
      <trkpt lat="49.7194" lon="2.36484">
        <ele>105.5</ele>
        <time>2022-10-05T13:24:13Z</time>
      </trkpt>
      <trkpt lat="49.7194" lon="2.36481">
        <ele>105.4</ele>
        <time>2022-10-05T13:24:14Z</time>
      </trkpt>
      <trkpt lat="49.7194" lon="2.3648">
        <ele>105.4</ele>
        <time>2022-10-05T13:24:16Z</time>
      </trkpt>
      <trkpt lat="49.71939" lon="2.36478">
        <ele>105.4</ele>
        <time>2022-10-05T13:24:17Z</time>
      </trkpt>
      <trkpt lat="49.71939" lon="2.36476">
        <ele>105.3</ele>
        <time>2022-10-05T13:24:18Z</time>
      </trkpt>
      <trkpt lat="49.71938" lon="2.36472">
        <ele>105.3</ele>
        <time>2022-10-05T13:24:19Z</time>
      </trkpt>
      <trkpt lat="49.71938" lon="2.36471">
        <ele>105.3</ele>
        <time>2022-10-05T13:24:20Z</time>
      </trkpt>
      <trkpt lat="49.71938" lon="2.36469">
        <ele>105.2</ele>
        <time>2022-10-05T13:24:21Z</time>
      </trkpt>
      <trkpt lat="49.71938" lon="2.36467">
        <ele>105.2</ele>
        <time>2022-10-05T13:24:22Z</time>
      </trkpt>
      <trkpt lat="49.71937" lon="2.36464">
        <ele>105.1</ele>
        <time>2022-10-05T13:24:23Z</time>
      </trkpt>
      <trkpt lat="49.71937" lon="2.36462">
        <ele>105.1</ele>
        <time>2022-10-05T13:24:24Z</time>
      </trkpt>
      <trkpt lat="49.71936" lon="2.36459">
        <ele>105.1</ele>
        <time>2022-10-05T13:24:26Z</time>
      </trkpt>
      <trkpt lat="49.71936" lon="2.36458">
        <ele>105</ele>
        <time>2022-10-05T13:24:27Z</time>
      </trkpt>
      <trkpt lat="49.71936" lon="2.36456">
        <ele>105</ele>
        <time>2022-10-05T13:24:28Z</time>
      </trkpt>
      <trkpt lat="49.71936" lon="2.36454">
        <ele>105</ele>
        <time>2022-10-05T13:24:29Z</time>
      </trkpt>
      <trkpt lat="49.71936" lon="2.36452">
        <ele>104.9</ele>
        <time>2022-10-05T13:24:30Z</time>
      </trkpt>
      <trkpt lat="49.71936" lon="2.36451">
        <ele>104.9</ele>
        <time>2022-10-05T13:24:31Z</time>
      </trkpt>
      <trkpt lat="49.71936" lon="2.36449">
        <ele>104.9</ele>
        <time>2022-10-05T13:24:33Z</time>
      </trkpt>
      <trkpt lat="49.71936" lon="2.36447">
        <ele>104.9</ele>
        <time>2022-10-05T13:24:34Z</time>
      </trkpt>
      <trkpt lat="49.71935" lon="2.36446">
        <ele>104.8</ele>
        <time>2022-10-05T13:24:35Z</time>
      </trkpt>
      <trkpt lat="49.71935" lon="2.36444">
        <ele>104.8</ele>
        <time>2022-10-05T13:24:36Z</time>
      </trkpt>
      <trkpt lat="49.71935" lon="2.36441">
        <ele>104.7</ele>
        <time>2022-10-05T13:24:37Z</time>
      </trkpt>
      <trkpt lat="49.71935" lon="2.36439">
        <ele>104.7</ele>
        <time>2022-10-05T13:24:38Z</time>
      </trkpt>
      <trkpt lat="49.71934" lon="2.36438">
        <ele>104.7</ele>
        <time>2022-10-05T13:24:39Z</time>
      </trkpt>
      <trkpt lat="49.71934" lon="2.36435">
        <ele>104.6</ele>
        <time>2022-10-05T13:24:40Z</time>
      </trkpt>
      <trkpt lat="49.71934" lon="2.36433">
        <ele>104.6</ele>
        <time>2022-10-05T13:24:41Z</time>
      </trkpt>
      <trkpt lat="49.71934" lon="2.3643">
        <ele>104.5</ele>
        <time>2022-10-05T13:24:42Z</time>
      </trkpt>
      <trkpt lat="49.71934" lon="2.36428">
        <ele>104.5</ele>
        <time>2022-10-05T13:24:44Z</time>
      </trkpt>
      <trkpt lat="49.71934" lon="2.36426">
        <ele>104.4</ele>
        <time>2022-10-05T13:24:45Z</time>
      </trkpt>
      <trkpt lat="49.71933" lon="2.36423">
        <ele>104.4</ele>
        <time>2022-10-05T13:24:46Z</time>
      </trkpt>
      <trkpt lat="49.71933" lon="2.3642">
        <ele>104.3</ele>
        <time>2022-10-05T13:24:48Z</time>
      </trkpt>
      <trkpt lat="49.71933" lon="2.36419">
        <ele>104.3</ele>
        <time>2022-10-05T13:24:49Z</time>
      </trkpt>
      <trkpt lat="49.71933" lon="2.36416">
        <ele>104.2</ele>
        <time>2022-10-05T13:24:50Z</time>
      </trkpt>
      <trkpt lat="49.71932" lon="2.36414">
        <ele>104.2</ele>
        <time>2022-10-05T13:24:51Z</time>
      </trkpt>
      <trkpt lat="49.71932" lon="2.36413">
        <ele>104.2</ele>
        <time>2022-10-05T13:24:52Z</time>
      </trkpt>
      <trkpt lat="49.71932" lon="2.36409">
        <ele>104.1</ele>
        <time>2022-10-05T13:24:53Z</time>
      </trkpt>
      <trkpt lat="49.71932" lon="2.36408">
        <ele>104.1</ele>
        <time>2022-10-05T13:24:54Z</time>
      </trkpt>
      <trkpt lat="49.71931" lon="2.36407">
        <ele>104.1</ele>
        <time>2022-10-05T13:24:55Z</time>
      </trkpt>
      <trkpt lat="49.71931" lon="2.36404">
        <ele>104</ele>
        <time>2022-10-05T13:24:57Z</time>
      </trkpt>
      <trkpt lat="49.71931" lon="2.36402">
        <ele>104</ele>
        <time>2022-10-05T13:24:58Z</time>
      </trkpt>
      <trkpt lat="49.7193" lon="2.36399">
        <ele>103.9</ele>
        <time>2022-10-05T13:24:59Z</time>
      </trkpt>
      <trkpt lat="49.7193" lon="2.36398">
        <ele>103.9</ele>
        <time>2022-10-05T13:25:00Z</time>
      </trkpt>
      <trkpt lat="49.7193" lon="2.36397">
        <ele>103.9</ele>
        <time>2022-10-05T13:25:01Z</time>
      </trkpt>
      <trkpt lat="49.71929" lon="2.36393">
        <ele>103.8</ele>
        <time>2022-10-05T13:25:02Z</time>
      </trkpt>
      <trkpt lat="49.71929" lon="2.36392">
        <ele>103.8</ele>
        <time>2022-10-05T13:25:03Z</time>
      </trkpt>
      <trkpt lat="49.71929" lon="2.36391">
        <ele>103.8</ele>
        <time>2022-10-05T13:25:04Z</time>
      </trkpt>
      <trkpt lat="49.71929" lon="2.36388">
        <ele>103.7</ele>
        <time>2022-10-05T13:25:05Z</time>
      </trkpt>
      <trkpt lat="49.71928" lon="2.36385">
        <ele>103.7</ele>
        <time>2022-10-05T13:25:06Z</time>
      </trkpt>
      <trkpt lat="49.71928" lon="2.36383">
        <ele>103.6</ele>
        <time>2022-10-05T13:25:07Z</time>
      </trkpt>
      <trkpt lat="49.71928" lon="2.36381">
        <ele>103.6</ele>
        <time>2022-10-05T13:25:08Z</time>
      </trkpt>
      <trkpt lat="49.71927" lon="2.36378">
        <ele>103.6</ele>
        <time>2022-10-05T13:25:10Z</time>
      </trkpt>
      <trkpt lat="49.71927" lon="2.36377">
        <ele>103.5</ele>
        <time>2022-10-05T13:25:11Z</time>
      </trkpt>
      <trkpt lat="49.71927" lon="2.36375">
        <ele>103.5</ele>
        <time>2022-10-05T13:25:12Z</time>
      </trkpt>
      <trkpt lat="49.71927" lon="2.36373">
        <ele>103.5</ele>
        <time>2022-10-05T13:25:13Z</time>
      </trkpt>
      <trkpt lat="49.71926" lon="2.3637">
        <ele>103.4</ele>
        <time>2022-10-05T13:25:15Z</time>
      </trkpt>
      <trkpt lat="49.71926" lon="2.36367">
        <ele>103.4</ele>
        <time>2022-10-05T13:25:16Z</time>
      </trkpt>
      <trkpt lat="49.71926" lon="2.36366">
        <ele>103.3</ele>
        <time>2022-10-05T13:25:17Z</time>
      </trkpt>
      <trkpt lat="49.71925" lon="2.36364">
        <ele>103.3</ele>
        <time>2022-10-05T13:25:18Z</time>
      </trkpt>
      <trkpt lat="49.71925" lon="2.36359">
        <ele>103.2</ele>
        <time>2022-10-05T13:25:19Z</time>
      </trkpt>
      <trkpt lat="49.71925" lon="2.36358">
        <ele>103.2</ele>
        <time>2022-10-05T13:25:20Z</time>
      </trkpt>
      <trkpt lat="49.71924" lon="2.36357">
        <ele>103.2</ele>
        <time>2022-10-05T13:25:21Z</time>
      </trkpt>
      <trkpt lat="49.71924" lon="2.36354">
        <ele>103.2</ele>
        <time>2022-10-05T13:25:23Z</time>
      </trkpt>
      <trkpt lat="49.71924" lon="2.36353">
        <ele>103.2</ele>
        <time>2022-10-05T13:25:24Z</time>
      </trkpt>
      <trkpt lat="49.71924" lon="2.3635">
        <ele>103.2</ele>
        <time>2022-10-05T13:25:25Z</time>
      </trkpt>
      <trkpt lat="49.71924" lon="2.36348">
        <ele>103.1</ele>
        <time>2022-10-05T13:25:26Z</time>
      </trkpt>
      <trkpt lat="49.71924" lon="2.36346">
        <ele>103.1</ele>
        <time>2022-10-05T13:25:27Z</time>
      </trkpt>
      <trkpt lat="49.71923" lon="2.36342">
        <ele>103</ele>
        <time>2022-10-05T13:25:28Z</time>
      </trkpt>
      <trkpt lat="49.71923" lon="2.36341">
        <ele>103</ele>
        <time>2022-10-05T13:25:29Z</time>
      </trkpt>
      <trkpt lat="49.71923" lon="2.36339">
        <ele>103</ele>
        <time>2022-10-05T13:25:30Z</time>
      </trkpt>
      <trkpt lat="49.71923" lon="2.36337">
        <ele>103</ele>
        <time>2022-10-05T13:25:31Z</time>
      </trkpt>
      <trkpt lat="49.71922" lon="2.36335">
        <ele>102.9</ele>
        <time>2022-10-05T13:25:32Z</time>
      </trkpt>
      <trkpt lat="49.71922" lon="2.36332">
        <ele>102.9</ele>
        <time>2022-10-05T13:25:34Z</time>
      </trkpt>
      <trkpt lat="49.71922" lon="2.3633">
        <ele>102.8</ele>
        <time>2022-10-05T13:25:35Z</time>
      </trkpt>
      <trkpt lat="49.71922" lon="2.36328">
        <ele>102.9</ele>
        <time>2022-10-05T13:25:36Z</time>
      </trkpt>
      <trkpt lat="49.71922" lon="2.36326">
        <ele>102.8</ele>
        <time>2022-10-05T13:25:38Z</time>
      </trkpt>
      <trkpt lat="49.71922" lon="2.36324">
        <ele>102.8</ele>
        <time>2022-10-05T13:25:39Z</time>
      </trkpt>
      <trkpt lat="49.71921" lon="2.36321">
        <ele>102.8</ele>
        <time>2022-10-05T13:25:40Z</time>
      </trkpt>
      <trkpt lat="49.71921" lon="2.36319">
        <ele>102.7</ele>
        <time>2022-10-05T13:25:41Z</time>
      </trkpt>
      <trkpt lat="49.7192" lon="2.36317">
        <ele>102.7</ele>
        <time>2022-10-05T13:25:42Z</time>
      </trkpt>
      <trkpt lat="49.7192" lon="2.36316">
        <ele>102.7</ele>
        <time>2022-10-05T13:25:43Z</time>
      </trkpt>
      <trkpt lat="49.7192" lon="2.36314">
        <ele>102.7</ele>
        <time>2022-10-05T13:25:44Z</time>
      </trkpt>
      <trkpt lat="49.7192" lon="2.36313">
        <ele>102.6</ele>
        <time>2022-10-05T13:25:45Z</time>
      </trkpt>
      <trkpt lat="49.71919" lon="2.36311">
        <ele>102.6</ele>
        <time>2022-10-05T13:25:46Z</time>
      </trkpt>
      <trkpt lat="49.71919" lon="2.36308">
        <ele>102.6</ele>
        <time>2022-10-05T13:25:48Z</time>
      </trkpt>
      <trkpt lat="49.71919" lon="2.36306">
        <ele>102.5</ele>
        <time>2022-10-05T13:25:49Z</time>
      </trkpt>
      <trkpt lat="49.71919" lon="2.36305">
        <ele>102.5</ele>
        <time>2022-10-05T13:25:50Z</time>
      </trkpt>
      <trkpt lat="49.71919" lon="2.36303">
        <ele>102.5</ele>
        <time>2022-10-05T13:25:51Z</time>
      </trkpt>
      <trkpt lat="49.71919" lon="2.363">
        <ele>102.5</ele>
        <time>2022-10-05T13:25:52Z</time>
      </trkpt>
      <trkpt lat="49.71918" lon="2.36298">
        <ele>102.5</ele>
        <time>2022-10-05T13:25:53Z</time>
      </trkpt>
      <trkpt lat="49.71918" lon="2.36296">
        <ele>102.5</ele>
        <time>2022-10-05T13:25:54Z</time>
      </trkpt>
      <trkpt lat="49.71918" lon="2.36294">
        <ele>102.4</ele>
        <time>2022-10-05T13:25:55Z</time>
      </trkpt>
      <trkpt lat="49.71918" lon="2.36292">
        <ele>102.4</ele>
        <time>2022-10-05T13:25:56Z</time>
      </trkpt>
      <trkpt lat="49.71918" lon="2.3629">
        <ele>102.4</ele>
        <time>2022-10-05T13:25:57Z</time>
      </trkpt>
      <trkpt lat="49.71918" lon="2.36287">
        <ele>102.3</ele>
        <time>2022-10-05T13:25:58Z</time>
      </trkpt>
      <trkpt lat="49.71917" lon="2.36284">
        <ele>102.3</ele>
        <time>2022-10-05T13:25:59Z</time>
      </trkpt>
      <trkpt lat="49.71917" lon="2.36283">
        <ele>102.2</ele>
        <time>2022-10-05T13:26:00Z</time>
      </trkpt>
      <trkpt lat="49.71917" lon="2.36282">
        <ele>102.2</ele>
        <time>2022-10-05T13:26:01Z</time>
      </trkpt>
      <trkpt lat="49.71916" lon="2.36278">
        <ele>102.2</ele>
        <time>2022-10-05T13:26:04Z</time>
      </trkpt>
      <trkpt lat="49.71916" lon="2.36277">
        <ele>102.1</ele>
        <time>2022-10-05T13:26:05Z</time>
      </trkpt>
      <trkpt lat="49.71916" lon="2.36275">
        <ele>102.1</ele>
        <time>2022-10-05T13:26:06Z</time>
      </trkpt>
      <trkpt lat="49.71916" lon="2.36274">
        <ele>102.1</ele>
        <time>2022-10-05T13:26:07Z</time>
      </trkpt>
      <trkpt lat="49.71916" lon="2.36272">
        <ele>102.1</ele>
        <time>2022-10-05T13:26:08Z</time>
      </trkpt>
      <trkpt lat="49.71915" lon="2.36269">
        <ele>102</ele>
        <time>2022-10-05T13:26:09Z</time>
      </trkpt>
      <trkpt lat="49.71915" lon="2.36268">
        <ele>102</ele>
        <time>2022-10-05T13:26:10Z</time>
      </trkpt>
      <trkpt lat="49.71915" lon="2.36264">
        <ele>101.9</ele>
        <time>2022-10-05T13:26:11Z</time>
      </trkpt>
      <trkpt lat="49.71914" lon="2.36261">
        <ele>101.9</ele>
        <time>2022-10-05T13:26:13Z</time>
      </trkpt>
      <trkpt lat="49.71914" lon="2.36258">
        <ele>101.8</ele>
        <time>2022-10-05T13:26:15Z</time>
      </trkpt>
      <trkpt lat="49.71914" lon="2.36256">
        <ele>101.9</ele>
        <time>2022-10-05T13:26:16Z</time>
      </trkpt>
      <trkpt lat="49.71914" lon="2.36255">
        <ele>101.9</ele>
        <time>2022-10-05T13:26:17Z</time>
      </trkpt>
      <trkpt lat="49.71913" lon="2.36254">
        <ele>101.9</ele>
        <time>2022-10-05T13:26:18Z</time>
      </trkpt>
      <trkpt lat="49.71913" lon="2.36252">
        <ele>101.8</ele>
        <time>2022-10-05T13:26:19Z</time>
      </trkpt>
      <trkpt lat="49.71913" lon="2.3625">
        <ele>101.8</ele>
        <time>2022-10-05T13:26:20Z</time>
      </trkpt>
      <trkpt lat="49.71913" lon="2.36248">
        <ele>101.8</ele>
        <time>2022-10-05T13:26:21Z</time>
      </trkpt>
      <trkpt lat="49.71913" lon="2.36245">
        <ele>101.8</ele>
        <time>2022-10-05T13:26:22Z</time>
      </trkpt>
      <trkpt lat="49.71912" lon="2.36244">
        <ele>101.7</ele>
        <time>2022-10-05T13:26:23Z</time>
      </trkpt>
      <trkpt lat="49.71912" lon="2.36242">
        <ele>101.7</ele>
        <time>2022-10-05T13:26:25Z</time>
      </trkpt>
      <trkpt lat="49.71912" lon="2.3624">
        <ele>101.7</ele>
        <time>2022-10-05T13:26:26Z</time>
      </trkpt>
      <trkpt lat="49.71911" lon="2.36238">
        <ele>101.7</ele>
        <time>2022-10-05T13:26:27Z</time>
      </trkpt>
      <trkpt lat="49.71911" lon="2.36236">
        <ele>101.7</ele>
        <time>2022-10-05T13:26:28Z</time>
      </trkpt>
      <trkpt lat="49.71911" lon="2.36234">
        <ele>101.6</ele>
        <time>2022-10-05T13:26:29Z</time>
      </trkpt>
      <trkpt lat="49.71911" lon="2.36232">
        <ele>101.6</ele>
        <time>2022-10-05T13:26:30Z</time>
      </trkpt>
      <trkpt lat="49.71911" lon="2.36229">
        <ele>101.6</ele>
        <time>2022-10-05T13:26:31Z</time>
      </trkpt>
      <trkpt lat="49.7191" lon="2.36226">
        <ele>101.6</ele>
        <time>2022-10-05T13:26:32Z</time>
      </trkpt>
      <trkpt lat="49.7191" lon="2.36223">
        <ele>101.6</ele>
        <time>2022-10-05T13:26:34Z</time>
      </trkpt>
      <trkpt lat="49.7191" lon="2.36221">
        <ele>101.6</ele>
        <time>2022-10-05T13:26:35Z</time>
      </trkpt>
      <trkpt lat="49.7191" lon="2.3622">
        <ele>101.5</ele>
        <time>2022-10-05T13:26:36Z</time>
      </trkpt>
      <trkpt lat="49.7191" lon="2.36217">
        <ele>101.5</ele>
        <time>2022-10-05T13:26:37Z</time>
      </trkpt>
      <trkpt lat="49.7191" lon="2.36215">
        <ele>101.5</ele>
        <time>2022-10-05T13:26:38Z</time>
      </trkpt>
      <trkpt lat="49.7191" lon="2.36213">
        <ele>101.5</ele>
        <time>2022-10-05T13:26:40Z</time>
      </trkpt>
      <trkpt lat="49.7191" lon="2.36211">
        <ele>101.5</ele>
        <time>2022-10-05T13:26:41Z</time>
      </trkpt>
      <trkpt lat="49.71909" lon="2.36208">
        <ele>101.5</ele>
        <time>2022-10-05T13:26:42Z</time>
      </trkpt>
      <trkpt lat="49.71908" lon="2.36206">
        <ele>101.5</ele>
        <time>2022-10-05T13:26:43Z</time>
      </trkpt>
      <trkpt lat="49.71907" lon="2.36202">
        <ele>101.5</ele>
        <time>2022-10-05T13:26:44Z</time>
      </trkpt>
      <trkpt lat="49.71907" lon="2.362">
        <ele>101.5</ele>
        <time>2022-10-05T13:26:46Z</time>
      </trkpt>
      <trkpt lat="49.71906" lon="2.36198">
        <ele>101.5</ele>
        <time>2022-10-05T13:26:47Z</time>
      </trkpt>
      <trkpt lat="49.71905" lon="2.36197">
        <ele>101.5</ele>
        <time>2022-10-05T13:26:49Z</time>
      </trkpt>
      <trkpt lat="49.71904" lon="2.36195">
        <ele>101.5</ele>
        <time>2022-10-05T13:26:50Z</time>
      </trkpt>
      <trkpt lat="49.71904" lon="2.36193">
        <ele>101.5</ele>
        <time>2022-10-05T13:26:51Z</time>
      </trkpt>
      <trkpt lat="49.71903" lon="2.36192">
        <ele>101.5</ele>
        <time>2022-10-05T13:26:52Z</time>
      </trkpt>
      <trkpt lat="49.71902" lon="2.3619">
        <ele>101.5</ele>
        <time>2022-10-05T13:26:54Z</time>
      </trkpt>
      <trkpt lat="49.71901" lon="2.3619">
        <ele>101.5</ele>
        <time>2022-10-05T13:26:55Z</time>
      </trkpt>
      <trkpt lat="49.71901" lon="2.36189">
        <ele>101.5</ele>
        <time>2022-10-05T13:26:56Z</time>
      </trkpt>
      <trkpt lat="49.719" lon="2.36187">
        <ele>101.5</ele>
        <time>2022-10-05T13:26:57Z</time>
      </trkpt>
      <trkpt lat="49.71898" lon="2.36186">
        <ele>101.5</ele>
        <time>2022-10-05T13:26:58Z</time>
      </trkpt>
      <trkpt lat="49.71898" lon="2.36185">
        <ele>101.5</ele>
        <time>2022-10-05T13:26:59Z</time>
      </trkpt>
      <trkpt lat="49.71897" lon="2.36184">
        <ele>101.5</ele>
        <time>2022-10-05T13:27:00Z</time>
      </trkpt>
      <trkpt lat="49.71895" lon="2.36184">
        <ele>101.5</ele>
        <time>2022-10-05T13:27:01Z</time>
      </trkpt>
      <trkpt lat="49.71894" lon="2.36183">
        <ele>101.5</ele>
        <time>2022-10-05T13:27:02Z</time>
      </trkpt>
      <trkpt lat="49.71892" lon="2.36182">
        <ele>101.4</ele>
        <time>2022-10-05T13:27:03Z</time>
      </trkpt>
      <trkpt lat="49.71891" lon="2.36181">
        <ele>101.4</ele>
        <time>2022-10-05T13:27:04Z</time>
      </trkpt>
      <trkpt lat="49.7189" lon="2.3618">
        <ele>101.4</ele>
        <time>2022-10-05T13:27:05Z</time>
      </trkpt>
      <trkpt lat="49.71888" lon="2.36179">
        <ele>101.4</ele>
        <time>2022-10-05T13:27:07Z</time>
      </trkpt>
      <trkpt lat="49.71887" lon="2.36179">
        <ele>101.3</ele>
        <time>2022-10-05T13:27:08Z</time>
      </trkpt>
      <trkpt lat="49.71885" lon="2.36177">
        <ele>101.3</ele>
        <time>2022-10-05T13:27:10Z</time>
      </trkpt>
      <trkpt lat="49.71884" lon="2.36177">
        <ele>101.2</ele>
        <time>2022-10-05T13:27:11Z</time>
      </trkpt>
      <trkpt lat="49.71883" lon="2.36176">
        <ele>101.2</ele>
        <time>2022-10-05T13:27:12Z</time>
      </trkpt>
      <trkpt lat="49.71882" lon="2.36175">
        <ele>101.1</ele>
        <time>2022-10-05T13:27:13Z</time>
      </trkpt>
      <trkpt lat="49.7188" lon="2.36174">
        <ele>101.1</ele>
        <time>2022-10-05T13:27:14Z</time>
      </trkpt>
      <trkpt lat="49.71879" lon="2.36174">
        <ele>101</ele>
        <time>2022-10-05T13:27:15Z</time>
      </trkpt>
      <trkpt lat="49.71878" lon="2.36174">
        <ele>101</ele>
        <time>2022-10-05T13:27:16Z</time>
      </trkpt>
      <trkpt lat="49.71875" lon="2.36172">
        <ele>100.9</ele>
        <time>2022-10-05T13:27:18Z</time>
      </trkpt>
      <trkpt lat="49.71875" lon="2.36172">
        <ele>100.9</ele>
        <time>2022-10-05T13:27:19Z</time>
      </trkpt>
      <trkpt lat="49.71874" lon="2.36172">
        <ele>100.8</ele>
        <time>2022-10-05T13:27:20Z</time>
      </trkpt>
      <trkpt lat="49.71872" lon="2.3617">
        <ele>100.7</ele>
        <time>2022-10-05T13:27:21Z</time>
      </trkpt>
      <trkpt lat="49.71872" lon="2.3617">
        <ele>100.7</ele>
        <time>2022-10-05T13:27:22Z</time>
      </trkpt>
      <trkpt lat="49.71871" lon="2.36169">
        <ele>100.7</ele>
        <time>2022-10-05T13:27:23Z</time>
      </trkpt>
      <trkpt lat="49.71869" lon="2.36168">
        <ele>100.6</ele>
        <time>2022-10-05T13:27:24Z</time>
      </trkpt>
      <trkpt lat="49.71868" lon="2.36167">
        <ele>100.6</ele>
        <time>2022-10-05T13:27:25Z</time>
      </trkpt>
      <trkpt lat="49.71868" lon="2.36167">
        <ele>100.5</ele>
        <time>2022-10-05T13:27:26Z</time>
      </trkpt>
      <trkpt lat="49.71866" lon="2.36165">
        <ele>100.4</ele>
        <time>2022-10-05T13:27:27Z</time>
      </trkpt>
      <trkpt lat="49.71865" lon="2.36165">
        <ele>100.4</ele>
        <time>2022-10-05T13:27:28Z</time>
      </trkpt>
      <trkpt lat="49.71864" lon="2.36164">
        <ele>100.3</ele>
        <time>2022-10-05T13:27:30Z</time>
      </trkpt>
      <trkpt lat="49.71863" lon="2.36163">
        <ele>100.3</ele>
        <time>2022-10-05T13:27:31Z</time>
      </trkpt>
      <trkpt lat="49.71861" lon="2.36161">
        <ele>100.2</ele>
        <time>2022-10-05T13:27:33Z</time>
      </trkpt>
      <trkpt lat="49.71861" lon="2.36161">
        <ele>100.2</ele>
        <time>2022-10-05T13:27:34Z</time>
      </trkpt>
      <trkpt lat="49.71859" lon="2.3616">
        <ele>100.1</ele>
        <time>2022-10-05T13:27:35Z</time>
      </trkpt>
      <trkpt lat="49.71858" lon="2.36159">
        <ele>100</ele>
        <time>2022-10-05T13:27:36Z</time>
      </trkpt>
      <trkpt lat="49.71857" lon="2.36158">
        <ele>100</ele>
        <time>2022-10-05T13:27:38Z</time>
      </trkpt>
      <trkpt lat="49.71855" lon="2.36157">
        <ele>99.9</ele>
        <time>2022-10-05T13:27:39Z</time>
      </trkpt>
      <trkpt lat="49.71854" lon="2.36157">
        <ele>99.8</ele>
        <time>2022-10-05T13:27:40Z</time>
      </trkpt>
      <trkpt lat="49.71852" lon="2.36155">
        <ele>99.8</ele>
        <time>2022-10-05T13:27:42Z</time>
      </trkpt>
      <trkpt lat="49.7185" lon="2.36154">
        <ele>99.7</ele>
        <time>2022-10-05T13:27:43Z</time>
      </trkpt>
      <trkpt lat="49.71849" lon="2.36154">
        <ele>99.6</ele>
        <time>2022-10-05T13:27:44Z</time>
      </trkpt>
      <trkpt lat="49.71848" lon="2.36154">
        <ele>99.6</ele>
        <time>2022-10-05T13:27:45Z</time>
      </trkpt>
      <trkpt lat="49.71847" lon="2.36153">
        <ele>99.6</ele>
        <time>2022-10-05T13:27:46Z</time>
      </trkpt>
      <trkpt lat="49.71846" lon="2.36153">
        <ele>99.5</ele>
        <time>2022-10-05T13:27:47Z</time>
      </trkpt>
      <trkpt lat="49.71844" lon="2.36152">
        <ele>99.5</ele>
        <time>2022-10-05T13:27:48Z</time>
      </trkpt>
      <trkpt lat="49.71843" lon="2.36152">
        <ele>99.4</ele>
        <time>2022-10-05T13:27:49Z</time>
      </trkpt>
      <trkpt lat="49.7184" lon="2.36151">
        <ele>99.3</ele>
        <time>2022-10-05T13:27:51Z</time>
      </trkpt>
      <trkpt lat="49.71839" lon="2.36151">
        <ele>99.3</ele>
        <time>2022-10-05T13:27:52Z</time>
      </trkpt>
      <trkpt lat="49.71838" lon="2.36151">
        <ele>99.3</ele>
        <time>2022-10-05T13:27:53Z</time>
      </trkpt>
      <trkpt lat="49.71837" lon="2.36151">
        <ele>99.2</ele>
        <time>2022-10-05T13:27:54Z</time>
      </trkpt>
      <trkpt lat="49.71836" lon="2.3615">
        <ele>99.2</ele>
        <time>2022-10-05T13:27:55Z</time>
      </trkpt>
      <trkpt lat="49.71833" lon="2.3615">
        <ele>99.1</ele>
        <time>2022-10-05T13:27:56Z</time>
      </trkpt>
      <trkpt lat="49.71832" lon="2.36149">
        <ele>99.1</ele>
        <time>2022-10-05T13:27:58Z</time>
      </trkpt>
      <trkpt lat="49.71831" lon="2.36149">
        <ele>99</ele>
        <time>2022-10-05T13:27:59Z</time>
      </trkpt>
      <trkpt lat="49.7183" lon="2.36149">
        <ele>99</ele>
        <time>2022-10-05T13:28:00Z</time>
      </trkpt>
      <trkpt lat="49.71829" lon="2.36148">
        <ele>99</ele>
        <time>2022-10-05T13:28:01Z</time>
      </trkpt>
      <trkpt lat="49.71828" lon="2.36148">
        <ele>98.9</ele>
        <time>2022-10-05T13:28:02Z</time>
      </trkpt>
      <trkpt lat="49.71826" lon="2.36147">
        <ele>98.9</ele>
        <time>2022-10-05T13:28:03Z</time>
      </trkpt>
      <trkpt lat="49.71825" lon="2.36147">
        <ele>98.9</ele>
        <time>2022-10-05T13:28:04Z</time>
      </trkpt>
      <trkpt lat="49.71823" lon="2.36147">
        <ele>98.8</ele>
        <time>2022-10-05T13:28:05Z</time>
      </trkpt>
      <trkpt lat="49.71822" lon="2.36146">
        <ele>98.8</ele>
        <time>2022-10-05T13:28:06Z</time>
      </trkpt>
      <trkpt lat="49.71821" lon="2.36145">
        <ele>98.7</ele>
        <time>2022-10-05T13:28:07Z</time>
      </trkpt>
      <trkpt lat="49.71819" lon="2.36144">
        <ele>98.7</ele>
        <time>2022-10-05T13:28:08Z</time>
      </trkpt>
      <trkpt lat="49.71817" lon="2.36143">
        <ele>98.6</ele>
        <time>2022-10-05T13:28:10Z</time>
      </trkpt>
      <trkpt lat="49.71817" lon="2.36143">
        <ele>98.6</ele>
        <time>2022-10-05T13:28:11Z</time>
      </trkpt>
      <trkpt lat="49.71816" lon="2.36142">
        <ele>98.6</ele>
        <time>2022-10-05T13:28:12Z</time>
      </trkpt>
      <trkpt lat="49.71814" lon="2.36141">
        <ele>98.5</ele>
        <time>2022-10-05T13:28:13Z</time>
      </trkpt>
      <trkpt lat="49.71812" lon="2.3614">
        <ele>98.5</ele>
        <time>2022-10-05T13:28:14Z</time>
      </trkpt>
      <trkpt lat="49.71811" lon="2.36139">
        <ele>98.5</ele>
        <time>2022-10-05T13:28:15Z</time>
      </trkpt>
      <trkpt lat="49.7181" lon="2.36139">
        <ele>98.4</ele>
        <time>2022-10-05T13:28:17Z</time>
      </trkpt>
      <trkpt lat="49.71808" lon="2.36137">
        <ele>98.4</ele>
        <time>2022-10-05T13:28:18Z</time>
      </trkpt>
      <trkpt lat="49.71807" lon="2.36137">
        <ele>98.3</ele>
        <time>2022-10-05T13:28:19Z</time>
      </trkpt>
      <trkpt lat="49.71805" lon="2.36136">
        <ele>98.3</ele>
        <time>2022-10-05T13:28:20Z</time>
      </trkpt>
      <trkpt lat="49.71804" lon="2.36136">
        <ele>98.3</ele>
        <time>2022-10-05T13:28:21Z</time>
      </trkpt>
      <trkpt lat="49.71803" lon="2.36136">
        <ele>98.2</ele>
        <time>2022-10-05T13:28:22Z</time>
      </trkpt>
      <trkpt lat="49.71801" lon="2.36135">
        <ele>98.2</ele>
        <time>2022-10-05T13:28:23Z</time>
      </trkpt>
      <trkpt lat="49.718" lon="2.36134">
        <ele>98.2</ele>
        <time>2022-10-05T13:28:24Z</time>
      </trkpt>
      <trkpt lat="49.71799" lon="2.36134">
        <ele>98.1</ele>
        <time>2022-10-05T13:28:25Z</time>
      </trkpt>
      <trkpt lat="49.71798" lon="2.36133">
        <ele>98.1</ele>
        <time>2022-10-05T13:28:26Z</time>
      </trkpt>
      <trkpt lat="49.71796" lon="2.36132">
        <ele>98</ele>
        <time>2022-10-05T13:28:28Z</time>
      </trkpt>
      <trkpt lat="49.71795" lon="2.36131">
        <ele>98</ele>
        <time>2022-10-05T13:28:29Z</time>
      </trkpt>
      <trkpt lat="49.71793" lon="2.3613">
        <ele>98</ele>
        <time>2022-10-05T13:28:30Z</time>
      </trkpt>
      <trkpt lat="49.71793" lon="2.3613">
        <ele>97.9</ele>
        <time>2022-10-05T13:28:31Z</time>
      </trkpt>
      <trkpt lat="49.71791" lon="2.36129">
        <ele>97.9</ele>
        <time>2022-10-05T13:28:32Z</time>
      </trkpt>
      <trkpt lat="49.7179" lon="2.36128">
        <ele>97.9</ele>
        <time>2022-10-05T13:28:33Z</time>
      </trkpt>
      <trkpt lat="49.71788" lon="2.36127">
        <ele>97.8</ele>
        <time>2022-10-05T13:28:35Z</time>
      </trkpt>
      <trkpt lat="49.71787" lon="2.36126">
        <ele>97.8</ele>
        <time>2022-10-05T13:28:36Z</time>
      </trkpt>
      <trkpt lat="49.71786" lon="2.36126">
        <ele>97.8</ele>
        <time>2022-10-05T13:28:37Z</time>
      </trkpt>
      <trkpt lat="49.71784" lon="2.36125">
        <ele>97.7</ele>
        <time>2022-10-05T13:28:38Z</time>
      </trkpt>
      <trkpt lat="49.71784" lon="2.36124">
        <ele>97.7</ele>
        <time>2022-10-05T13:28:39Z</time>
      </trkpt>
      <trkpt lat="49.71782" lon="2.36122">
        <ele>97.6</ele>
        <time>2022-10-05T13:28:40Z</time>
      </trkpt>
      <trkpt lat="49.71781" lon="2.36122">
        <ele>97.6</ele>
        <time>2022-10-05T13:28:41Z</time>
      </trkpt>
      <trkpt lat="49.7178" lon="2.36121">
        <ele>97.6</ele>
        <time>2022-10-05T13:28:42Z</time>
      </trkpt>
      <trkpt lat="49.71779" lon="2.3612">
        <ele>97.6</ele>
        <time>2022-10-05T13:28:43Z</time>
      </trkpt>
      <trkpt lat="49.71778" lon="2.3612">
        <ele>97.5</ele>
        <time>2022-10-05T13:28:44Z</time>
      </trkpt>
      <trkpt lat="49.71777" lon="2.36119">
        <ele>97.5</ele>
        <time>2022-10-05T13:28:45Z</time>
      </trkpt>
      <trkpt lat="49.71775" lon="2.36119">
        <ele>97.5</ele>
        <time>2022-10-05T13:28:46Z</time>
      </trkpt>
      <trkpt lat="49.71774" lon="2.36117">
        <ele>97.4</ele>
        <time>2022-10-05T13:28:48Z</time>
      </trkpt>
      <trkpt lat="49.71773" lon="2.36116">
        <ele>97.4</ele>
        <time>2022-10-05T13:28:49Z</time>
      </trkpt>
      <trkpt lat="49.71772" lon="2.36115">
        <ele>97.4</ele>
        <time>2022-10-05T13:28:50Z</time>
      </trkpt>
      <trkpt lat="49.71771" lon="2.36114">
        <ele>97.3</ele>
        <time>2022-10-05T13:28:52Z</time>
      </trkpt>
      <trkpt lat="49.7177" lon="2.36112">
        <ele>97.3</ele>
        <time>2022-10-05T13:28:53Z</time>
      </trkpt>
      <trkpt lat="49.71769" lon="2.36111">
        <ele>97.2</ele>
        <time>2022-10-05T13:28:54Z</time>
      </trkpt>
      <trkpt lat="49.71768" lon="2.36111">
        <ele>97.2</ele>
        <time>2022-10-05T13:28:55Z</time>
      </trkpt>
      <trkpt lat="49.71767" lon="2.36109">
        <ele>97.2</ele>
        <time>2022-10-05T13:28:56Z</time>
      </trkpt>
      <trkpt lat="49.71766" lon="2.36108">
        <ele>97.1</ele>
        <time>2022-10-05T13:28:57Z</time>
      </trkpt>
      <trkpt lat="49.71765" lon="2.36108">
        <ele>97.1</ele>
        <time>2022-10-05T13:28:58Z</time>
      </trkpt>
      <trkpt lat="49.71764" lon="2.36107">
        <ele>97.1</ele>
        <time>2022-10-05T13:28:59Z</time>
      </trkpt>
      <trkpt lat="49.71763" lon="2.36106">
        <ele>97.1</ele>
        <time>2022-10-05T13:29:00Z</time>
      </trkpt>
      <trkpt lat="49.71762" lon="2.36105">
        <ele>97</ele>
        <time>2022-10-05T13:29:02Z</time>
      </trkpt>
      <trkpt lat="49.7176" lon="2.36103">
        <ele>97</ele>
        <time>2022-10-05T13:29:03Z</time>
      </trkpt>
      <trkpt lat="49.71759" lon="2.36102">
        <ele>96.9</ele>
        <time>2022-10-05T13:29:04Z</time>
      </trkpt>
      <trkpt lat="49.71757" lon="2.36101">
        <ele>96.9</ele>
        <time>2022-10-05T13:29:05Z</time>
      </trkpt>
      <trkpt lat="49.71756" lon="2.361">
        <ele>96.8</ele>
        <time>2022-10-05T13:29:07Z</time>
      </trkpt>
      <trkpt lat="49.71755" lon="2.36099">
        <ele>96.8</ele>
        <time>2022-10-05T13:29:08Z</time>
      </trkpt>
      <trkpt lat="49.71753" lon="2.36097">
        <ele>96.7</ele>
        <time>2022-10-05T13:29:09Z</time>
      </trkpt>
      <trkpt lat="49.71752" lon="2.36096">
        <ele>96.7</ele>
        <time>2022-10-05T13:29:10Z</time>
      </trkpt>
      <trkpt lat="49.71751" lon="2.36095">
        <ele>96.7</ele>
        <time>2022-10-05T13:29:11Z</time>
      </trkpt>
      <trkpt lat="49.71749" lon="2.36094">
        <ele>96.6</ele>
        <time>2022-10-05T13:29:12Z</time>
      </trkpt>
      <trkpt lat="49.71748" lon="2.36093">
        <ele>96.6</ele>
        <time>2022-10-05T13:29:13Z</time>
      </trkpt>
      <trkpt lat="49.71747" lon="2.36093">
        <ele>96.5</ele>
        <time>2022-10-05T13:29:14Z</time>
      </trkpt>
      <trkpt lat="49.71746" lon="2.36092">
        <ele>96.5</ele>
        <time>2022-10-05T13:29:15Z</time>
      </trkpt>
      <trkpt lat="49.71745" lon="2.36091">
        <ele>96.4</ele>
        <time>2022-10-05T13:29:16Z</time>
      </trkpt>
      <trkpt lat="49.71743" lon="2.3609">
        <ele>96.4</ele>
        <time>2022-10-05T13:29:17Z</time>
      </trkpt>
      <trkpt lat="49.71741" lon="2.36089">
        <ele>96.3</ele>
        <time>2022-10-05T13:29:19Z</time>
      </trkpt>
      <trkpt lat="49.71739" lon="2.36088">
        <ele>96.2</ele>
        <time>2022-10-05T13:29:20Z</time>
      </trkpt>
      <trkpt lat="49.71739" lon="2.36088">
        <ele>96.2</ele>
        <time>2022-10-05T13:29:21Z</time>
      </trkpt>
      <trkpt lat="49.71738" lon="2.36088">
        <ele>96.1</ele>
        <time>2022-10-05T13:29:22Z</time>
      </trkpt>
      <trkpt lat="49.71736" lon="2.36087">
        <ele>96.1</ele>
        <time>2022-10-05T13:29:23Z</time>
      </trkpt>
      <trkpt lat="49.71735" lon="2.36086">
        <ele>96</ele>
        <time>2022-10-05T13:29:24Z</time>
      </trkpt>
      <trkpt lat="49.71734" lon="2.36085">
        <ele>96</ele>
        <time>2022-10-05T13:29:25Z</time>
      </trkpt>
      <trkpt lat="49.71732" lon="2.36085">
        <ele>95.9</ele>
        <time>2022-10-05T13:29:26Z</time>
      </trkpt>
      <trkpt lat="49.7173" lon="2.36084">
        <ele>95.8</ele>
        <time>2022-10-05T13:29:28Z</time>
      </trkpt>
      <trkpt lat="49.71729" lon="2.36083">
        <ele>95.7</ele>
        <time>2022-10-05T13:29:29Z</time>
      </trkpt>
      <trkpt lat="49.71728" lon="2.36082">
        <ele>95.7</ele>
        <time>2022-10-05T13:29:30Z</time>
      </trkpt>
      <trkpt lat="49.71728" lon="2.36082">
        <ele>95.7</ele>
        <time>2022-10-05T13:29:31Z</time>
      </trkpt>
      <trkpt lat="49.71726" lon="2.36081">
        <ele>95.6</ele>
        <time>2022-10-05T13:29:32Z</time>
      </trkpt>
      <trkpt lat="49.71725" lon="2.3608">
        <ele>95.5</ele>
        <time>2022-10-05T13:29:33Z</time>
      </trkpt>
      <trkpt lat="49.71724" lon="2.3608">
        <ele>95.5</ele>
        <time>2022-10-05T13:29:34Z</time>
      </trkpt>
      <trkpt lat="49.71723" lon="2.36079">
        <ele>95.4</ele>
        <time>2022-10-05T13:29:35Z</time>
      </trkpt>
      <trkpt lat="49.71722" lon="2.36078">
        <ele>95.4</ele>
        <time>2022-10-05T13:29:36Z</time>
      </trkpt>
      <trkpt lat="49.71721" lon="2.36078">
        <ele>95.3</ele>
        <time>2022-10-05T13:29:38Z</time>
      </trkpt>
      <trkpt lat="49.7172" lon="2.36077">
        <ele>95.2</ele>
        <time>2022-10-05T13:29:39Z</time>
      </trkpt>
      <trkpt lat="49.71719" lon="2.36076">
        <ele>95.2</ele>
        <time>2022-10-05T13:29:40Z</time>
      </trkpt>
      <trkpt lat="49.71718" lon="2.36075">
        <ele>95.1</ele>
        <time>2022-10-05T13:29:41Z</time>
      </trkpt>
      <trkpt lat="49.71717" lon="2.36075">
        <ele>95.1</ele>
        <time>2022-10-05T13:29:42Z</time>
      </trkpt>
      <trkpt lat="49.71716" lon="2.36074">
        <ele>95</ele>
        <time>2022-10-05T13:29:43Z</time>
      </trkpt>
      <trkpt lat="49.71714" lon="2.36073">
        <ele>94.9</ele>
        <time>2022-10-05T13:29:44Z</time>
      </trkpt>
      <trkpt lat="49.71713" lon="2.36072">
        <ele>94.8</ele>
        <time>2022-10-05T13:29:45Z</time>
      </trkpt>
      <trkpt lat="49.71712" lon="2.36071">
        <ele>94.7</ele>
        <time>2022-10-05T13:29:47Z</time>
      </trkpt>
      <trkpt lat="49.71711" lon="2.3607">
        <ele>94.6</ele>
        <time>2022-10-05T13:29:48Z</time>
      </trkpt>
      <trkpt lat="49.71709" lon="2.36069">
        <ele>94.6</ele>
        <time>2022-10-05T13:29:49Z</time>
      </trkpt>
      <trkpt lat="49.71708" lon="2.36069">
        <ele>94.5</ele>
        <time>2022-10-05T13:29:50Z</time>
      </trkpt>
      <trkpt lat="49.71708" lon="2.36071">
        <ele>94.5</ele>
        <time>2022-10-05T13:29:51Z</time>
      </trkpt>
      <trkpt lat="49.71708" lon="2.36072">
        <ele>94.4</ele>
        <time>2022-10-05T13:29:52Z</time>
      </trkpt>
      <trkpt lat="49.71708" lon="2.36073">
        <ele>94.4</ele>
        <time>2022-10-05T13:29:53Z</time>
      </trkpt>
      <trkpt lat="49.71708" lon="2.36074">
        <ele>94.4</ele>
        <time>2022-10-05T13:29:54Z</time>
      </trkpt>
      <trkpt lat="49.71709" lon="2.36074">
        <ele>94.3</ele>
        <time>2022-10-05T13:29:55Z</time>
      </trkpt>
      <trkpt lat="49.71709" lon="2.36074">
        <ele>94.3</ele>
        <time>2022-10-05T13:29:56Z</time>
      </trkpt>
      <trkpt lat="49.71709" lon="2.36074">
        <ele>94.3</ele>
        <time>2022-10-05T13:29:57Z</time>
      </trkpt>
      <trkpt lat="49.71709" lon="2.36074">
        <ele>94.3</ele>
        <time>2022-10-05T13:29:58Z</time>
      </trkpt>
      <trkpt lat="49.71709" lon="2.36074">
        <ele>94.3</ele>
        <time>2022-10-05T13:29:59Z</time>
      </trkpt>
      <trkpt lat="49.71709" lon="2.36074">
        <ele>94.3</ele>
        <time>2022-10-05T13:30:00Z</time>
      </trkpt>
      <trkpt lat="49.71709" lon="2.36074">
        <ele>94.3</ele>
        <time>2022-10-05T13:30:01Z</time>
      </trkpt>
      <trkpt lat="49.71709" lon="2.36074">
        <ele>94.3</ele>
        <time>2022-10-05T13:30:02Z</time>
      </trkpt>
      <trkpt lat="49.71709" lon="2.36075">
        <ele>94.3</ele>
        <time>2022-10-05T13:30:03Z</time>
      </trkpt>
      <trkpt lat="49.71709" lon="2.36075">
        <ele>94.3</ele>
        <time>2022-10-05T13:30:04Z</time>
      </trkpt>
      <trkpt lat="49.71709" lon="2.36075">
        <ele>94.3</ele>
        <time>2022-10-05T13:30:05Z</time>
      </trkpt>
      <trkpt lat="49.71709" lon="2.36075">
        <ele>94.3</ele>
        <time>2022-10-05T13:30:06Z</time>
      </trkpt>
      <trkpt lat="49.71709" lon="2.36075">
        <ele>94.3</ele>
        <time>2022-10-05T13:30:07Z</time>
      </trkpt>
      <trkpt lat="49.71709" lon="2.36075">
        <ele>94.3</ele>
        <time>2022-10-05T13:30:08Z</time>
      </trkpt>
      <trkpt lat="49.71709" lon="2.36074">
        <ele>94.2</ele>
        <time>2022-10-05T13:30:09Z</time>
      </trkpt>
      <trkpt lat="49.71709" lon="2.36074">
        <ele>94.2</ele>
        <time>2022-10-05T13:30:10Z</time>
      </trkpt>
      <trkpt lat="49.71709" lon="2.36074">
        <ele>94.2</ele>
        <time>2022-10-05T13:30:11Z</time>
      </trkpt>
      <trkpt lat="49.71709" lon="2.36074">
        <ele>94.2</ele>
        <time>2022-10-05T13:30:12Z</time>
      </trkpt>
      <trkpt lat="49.71709" lon="2.36074">
        <ele>94.2</ele>
        <time>2022-10-05T13:30:13Z</time>
      </trkpt>
      <trkpt lat="49.71709" lon="2.36074">
        <ele>94.2</ele>
        <time>2022-10-05T13:30:14Z</time>
      </trkpt>
      <trkpt lat="49.71709" lon="2.36074">
        <ele>94.2</ele>
        <time>2022-10-05T13:30:15Z</time>
      </trkpt>
      <trkpt lat="49.71709" lon="2.36074">
        <ele>94.2</ele>
        <time>2022-10-05T13:30:16Z</time>
      </trkpt>
      <trkpt lat="49.71709" lon="2.36074">
        <ele>94.2</ele>
        <time>2022-10-05T13:30:17Z</time>
      </trkpt>
      <trkpt lat="49.71709" lon="2.36074">
        <ele>94.2</ele>
        <time>2022-10-05T13:30:18Z</time>
      </trkpt>
      <trkpt lat="49.71709" lon="2.36074">
        <ele>94.2</ele>
        <time>2022-10-05T13:30:19Z</time>
      </trkpt>
      <trkpt lat="49.71709" lon="2.36074">
        <ele>94.2</ele>
        <time>2022-10-05T13:30:20Z</time>
      </trkpt>
      <trkpt lat="49.71709" lon="2.36074">
        <ele>94.2</ele>
        <time>2022-10-05T13:30:21Z</time>
      </trkpt>
      <trkpt lat="49.71709" lon="2.36074">
        <ele>94.2</ele>
        <time>2022-10-05T13:30:22Z</time>
      </trkpt>
      <trkpt lat="49.71709" lon="2.36074">
        <ele>94.2</ele>
        <time>2022-10-05T13:30:23Z</time>
      </trkpt>
      <trkpt lat="49.71709" lon="2.36074">
        <ele>94.2</ele>
        <time>2022-10-05T13:30:24Z</time>
      </trkpt>
      <trkpt lat="49.71709" lon="2.36074">
        <ele>94.2</ele>
        <time>2022-10-05T13:30:25Z</time>
      </trkpt>
      <trkpt lat="49.71709" lon="2.36074">
        <ele>94.2</ele>
        <time>2022-10-05T13:30:26Z</time>
      </trkpt>
      <trkpt lat="49.71709" lon="2.36074">
        <ele>94.2</ele>
        <time>2022-10-05T13:30:27Z</time>
      </trkpt>
      <trkpt lat="49.71709" lon="2.36074">
        <ele>94.2</ele>
        <time>2022-10-05T13:30:28Z</time>
      </trkpt>
      <trkpt lat="49.71709" lon="2.36074">
        <ele>94.2</ele>
        <time>2022-10-05T13:30:29Z</time>
      </trkpt>
      <trkpt lat="49.71709" lon="2.36074">
        <ele>94.2</ele>
        <time>2022-10-05T13:30:30Z</time>
      </trkpt>
      <trkpt lat="49.71709" lon="2.36074">
        <ele>94.2</ele>
        <time>2022-10-05T13:30:31Z</time>
      </trkpt>
      <trkpt lat="49.71709" lon="2.36074">
        <ele>94.2</ele>
        <time>2022-10-05T13:30:32Z</time>
      </trkpt>
      <trkpt lat="49.71709" lon="2.36074">
        <ele>94.2</ele>
        <time>2022-10-05T13:30:33Z</time>
      </trkpt>
      <trkpt lat="49.71709" lon="2.36074">
        <ele>94.2</ele>
        <time>2022-10-05T13:30:34Z</time>
      </trkpt>
      <trkpt lat="49.71709" lon="2.36074">
        <ele>94.2</ele>
        <time>2022-10-05T13:30:35Z</time>
      </trkpt>
      <trkpt lat="49.71709" lon="2.36074">
        <ele>94.2</ele>
        <time>2022-10-05T13:30:36Z</time>
      </trkpt>
      <trkpt lat="49.71709" lon="2.36074">
        <ele>94.2</ele>
        <time>2022-10-05T13:30:37Z</time>
      </trkpt>
      <trkpt lat="49.71709" lon="2.36074">
        <ele>94.2</ele>
        <time>2022-10-05T13:30:38Z</time>
      </trkpt>
      <trkpt lat="49.71709" lon="2.36074">
        <ele>94.2</ele>
        <time>2022-10-05T13:30:39Z</time>
      </trkpt>
      <trkpt lat="49.71709" lon="2.36074">
        <ele>94.2</ele>
        <time>2022-10-05T13:30:40Z</time>
      </trkpt>
      <trkpt lat="49.71709" lon="2.36074">
        <ele>94.2</ele>
        <time>2022-10-05T13:30:41Z</time>
      </trkpt>
      <trkpt lat="49.71709" lon="2.36074">
        <ele>94.2</ele>
        <time>2022-10-05T13:30:42Z</time>
      </trkpt>
      <trkpt lat="49.71709" lon="2.36074">
        <ele>94.2</ele>
        <time>2022-10-05T13:30:43Z</time>
      </trkpt>
      <trkpt lat="49.71709" lon="2.36074">
        <ele>94.2</ele>
        <time>2022-10-05T13:30:44Z</time>
      </trkpt>
      <trkpt lat="49.71709" lon="2.36074">
        <ele>94.2</ele>
        <time>2022-10-05T13:30:45Z</time>
      </trkpt>
      <trkpt lat="49.71709" lon="2.36074">
        <ele>94.2</ele>
        <time>2022-10-05T13:30:46Z</time>
      </trkpt>
      <trkpt lat="49.71709" lon="2.36074">
        <ele>94.2</ele>
        <time>2022-10-05T13:30:47Z</time>
      </trkpt>
      <trkpt lat="49.71709" lon="2.36074">
        <ele>94.2</ele>
        <time>2022-10-05T13:30:48Z</time>
      </trkpt>
      <trkpt lat="49.71709" lon="2.36074">
        <ele>94.2</ele>
        <time>2022-10-05T13:30:49Z</time>
      </trkpt>
      <trkpt lat="49.71709" lon="2.36074">
        <ele>94.2</ele>
        <time>2022-10-05T13:30:50Z</time>
      </trkpt>
      <trkpt lat="49.71709" lon="2.36074">
        <ele>94.2</ele>
        <time>2022-10-05T13:30:51Z</time>
      </trkpt>
      <trkpt lat="49.71709" lon="2.36074">
        <ele>94.2</ele>
        <time>2022-10-05T13:30:52Z</time>
      </trkpt>
      <trkpt lat="49.71709" lon="2.36074">
        <ele>94.2</ele>
        <time>2022-10-05T13:30:53Z</time>
      </trkpt>
      <trkpt lat="49.71709" lon="2.36074">
        <ele>94.2</ele>
        <time>2022-10-05T13:30:54Z</time>
      </trkpt>
      <trkpt lat="49.71709" lon="2.36074">
        <ele>94.2</ele>
        <time>2022-10-05T13:30:55Z</time>
      </trkpt>
      <trkpt lat="49.71709" lon="2.36074">
        <ele>94.2</ele>
        <time>2022-10-05T13:30:56Z</time>
      </trkpt>
      <trkpt lat="49.71709" lon="2.36074">
        <ele>94.2</ele>
        <time>2022-10-05T13:30:57Z</time>
      </trkpt>
      <trkpt lat="49.71709" lon="2.36074">
        <ele>94.2</ele>
        <time>2022-10-05T13:30:58Z</time>
      </trkpt>
      <trkpt lat="49.71709" lon="2.36074">
        <ele>94.2</ele>
        <time>2022-10-05T13:30:59Z</time>
      </trkpt>
      <trkpt lat="49.71709" lon="2.36074">
        <ele>94.2</ele>
        <time>2022-10-05T13:31:00Z</time>
      </trkpt>
      <trkpt lat="49.71709" lon="2.36074">
        <ele>94.2</ele>
        <time>2022-10-05T13:31:01Z</time>
      </trkpt>
      <trkpt lat="49.71709" lon="2.36074">
        <ele>94.2</ele>
        <time>2022-10-05T13:31:02Z</time>
      </trkpt>
      <trkpt lat="49.71709" lon="2.36074">
        <ele>94.2</ele>
        <time>2022-10-05T13:31:03Z</time>
      </trkpt>
      <trkpt lat="49.71709" lon="2.36074">
        <ele>94.2</ele>
        <time>2022-10-05T13:31:04Z</time>
      </trkpt>
      <trkpt lat="49.71709" lon="2.36074">
        <ele>94.2</ele>
        <time>2022-10-05T13:31:05Z</time>
      </trkpt>
      <trkpt lat="49.71709" lon="2.36074">
        <ele>94.2</ele>
        <time>2022-10-05T13:31:06Z</time>
      </trkpt>
      <trkpt lat="49.71709" lon="2.36074">
        <ele>94.2</ele>
        <time>2022-10-05T13:31:07Z</time>
      </trkpt>
      <trkpt lat="49.71709" lon="2.36074">
        <ele>94.2</ele>
        <time>2022-10-05T13:31:08Z</time>
      </trkpt>
      <trkpt lat="49.71709" lon="2.36074">
        <ele>94.2</ele>
        <time>2022-10-05T13:31:09Z</time>
      </trkpt>
      <trkpt lat="49.71709" lon="2.36074">
        <ele>94.2</ele>
        <time>2022-10-05T13:31:10Z</time>
      </trkpt>
      <trkpt lat="49.71709" lon="2.36074">
        <ele>94.2</ele>
        <time>2022-10-05T13:31:11Z</time>
      </trkpt>
      <trkpt lat="49.71709" lon="2.36074">
        <ele>94.2</ele>
        <time>2022-10-05T13:31:12Z</time>
      </trkpt>
      <trkpt lat="49.71709" lon="2.36074">
        <ele>94.2</ele>
        <time>2022-10-05T13:31:13Z</time>
      </trkpt>
      <trkpt lat="49.71709" lon="2.36074">
        <ele>94.2</ele>
        <time>2022-10-05T13:31:14Z</time>
      </trkpt>
      <trkpt lat="49.71709" lon="2.36074">
        <ele>94.2</ele>
        <time>2022-10-05T13:31:15Z</time>
      </trkpt>
      <trkpt lat="49.71709" lon="2.36074">
        <ele>94.2</ele>
        <time>2022-10-05T13:31:16Z</time>
      </trkpt>
      <trkpt lat="49.71709" lon="2.36074">
        <ele>94.2</ele>
        <time>2022-10-05T13:31:17Z</time>
      </trkpt>
      <trkpt lat="49.71709" lon="2.36074">
        <ele>94.2</ele>
        <time>2022-10-05T13:31:18Z</time>
      </trkpt>
      <trkpt lat="49.71709" lon="2.36074">
        <ele>94.2</ele>
        <time>2022-10-05T13:31:19Z</time>
      </trkpt>
      <trkpt lat="49.71709" lon="2.36074">
        <ele>94.2</ele>
        <time>2022-10-05T13:31:20Z</time>
      </trkpt>
      <trkpt lat="49.71709" lon="2.36074">
        <ele>94.2</ele>
        <time>2022-10-05T13:31:21Z</time>
      </trkpt>
      <trkpt lat="49.71709" lon="2.36074">
        <ele>94.2</ele>
        <time>2022-10-05T13:31:22Z</time>
      </trkpt>
      <trkpt lat="49.71709" lon="2.36074">
        <ele>94.2</ele>
        <time>2022-10-05T13:31:23Z</time>
      </trkpt>
      <trkpt lat="49.71709" lon="2.36074">
        <ele>94.2</ele>
        <time>2022-10-05T13:31:24Z</time>
      </trkpt>
      <trkpt lat="49.71709" lon="2.36074">
        <ele>94.2</ele>
        <time>2022-10-05T13:31:25Z</time>
      </trkpt>
      <trkpt lat="49.71709" lon="2.36074">
        <ele>94.2</ele>
        <time>2022-10-05T13:31:26Z</time>
      </trkpt>
      <trkpt lat="49.71709" lon="2.36074">
        <ele>94.2</ele>
        <time>2022-10-05T13:31:27Z</time>
      </trkpt>
      <trkpt lat="49.71709" lon="2.36074">
        <ele>94.2</ele>
        <time>2022-10-05T13:31:28Z</time>
      </trkpt>
      <trkpt lat="49.71709" lon="2.36074">
        <ele>94.2</ele>
        <time>2022-10-05T13:31:29Z</time>
      </trkpt>
      <trkpt lat="49.71709" lon="2.36074">
        <ele>94.2</ele>
        <time>2022-10-05T13:31:30Z</time>
      </trkpt>
      <trkpt lat="49.71709" lon="2.36074">
        <ele>94.2</ele>
        <time>2022-10-05T13:31:31Z</time>
      </trkpt>
      <trkpt lat="49.71709" lon="2.36074">
        <ele>94.2</ele>
        <time>2022-10-05T13:31:32Z</time>
      </trkpt>
      <trkpt lat="49.71709" lon="2.36074">
        <ele>94.2</ele>
        <time>2022-10-05T13:31:33Z</time>
      </trkpt>
      <trkpt lat="49.71709" lon="2.36074">
        <ele>94.2</ele>
        <time>2022-10-05T13:31:34Z</time>
      </trkpt>
      <trkpt lat="49.71709" lon="2.36074">
        <ele>94.2</ele>
        <time>2022-10-05T13:31:35Z</time>
      </trkpt>
      <trkpt lat="49.71709" lon="2.36074">
        <ele>94.2</ele>
        <time>2022-10-05T13:31:36Z</time>
      </trkpt>
      <trkpt lat="49.71709" lon="2.36074">
        <ele>94.2</ele>
        <time>2022-10-05T13:31:37Z</time>
      </trkpt>
      <trkpt lat="49.71709" lon="2.36074">
        <ele>94.2</ele>
        <time>2022-10-05T13:31:38Z</time>
      </trkpt>
      <trkpt lat="49.71709" lon="2.36074">
        <ele>94.2</ele>
        <time>2022-10-05T13:31:39Z</time>
      </trkpt>
      <trkpt lat="49.71709" lon="2.36074">
        <ele>94.2</ele>
        <time>2022-10-05T13:31:40Z</time>
      </trkpt>
      <trkpt lat="49.71709" lon="2.36074">
        <ele>94.2</ele>
        <time>2022-10-05T13:31:41Z</time>
      </trkpt>
      <trkpt lat="49.71709" lon="2.36074">
        <ele>94.2</ele>
        <time>2022-10-05T13:31:42Z</time>
      </trkpt>
      <trkpt lat="49.71709" lon="2.36074">
        <ele>94.2</ele>
        <time>2022-10-05T13:31:43Z</time>
      </trkpt>
      <trkpt lat="49.71709" lon="2.36074">
        <ele>94.2</ele>
        <time>2022-10-05T13:31:44Z</time>
      </trkpt>
      <trkpt lat="49.71709" lon="2.36074">
        <ele>94.2</ele>
        <time>2022-10-05T13:31:45Z</time>
      </trkpt>
      <trkpt lat="49.71709" lon="2.36074">
        <ele>94.2</ele>
        <time>2022-10-05T13:31:46Z</time>
      </trkpt>
      <trkpt lat="49.71709" lon="2.36074">
        <ele>94.2</ele>
        <time>2022-10-05T13:31:47Z</time>
      </trkpt>
      <trkpt lat="49.71709" lon="2.36074">
        <ele>94.2</ele>
        <time>2022-10-05T13:31:48Z</time>
      </trkpt>
      <trkpt lat="49.71709" lon="2.36074">
        <ele>94.2</ele>
        <time>2022-10-05T13:31:49Z</time>
      </trkpt>
      <trkpt lat="49.71709" lon="2.36074">
        <ele>94.2</ele>
        <time>2022-10-05T13:31:50Z</time>
      </trkpt>
      <trkpt lat="49.71709" lon="2.36074">
        <ele>94.2</ele>
        <time>2022-10-05T13:31:51Z</time>
      </trkpt>
      <trkpt lat="49.71709" lon="2.36074">
        <ele>94.2</ele>
        <time>2022-10-05T13:31:52Z</time>
      </trkpt>
      <trkpt lat="49.71709" lon="2.36074">
        <ele>94.2</ele>
        <time>2022-10-05T13:31:53Z</time>
      </trkpt>
      <trkpt lat="49.71709" lon="2.36074">
        <ele>94.2</ele>
        <time>2022-10-05T13:31:54Z</time>
      </trkpt>
      <trkpt lat="49.71709" lon="2.36074">
        <ele>94.2</ele>
        <time>2022-10-05T13:31:55Z</time>
      </trkpt>
      <trkpt lat="49.71709" lon="2.36074">
        <ele>94.2</ele>
        <time>2022-10-05T13:31:56Z</time>
      </trkpt>
      <trkpt lat="49.71709" lon="2.36074">
        <ele>94.2</ele>
        <time>2022-10-05T13:31:57Z</time>
      </trkpt>
      <trkpt lat="49.71709" lon="2.36074">
        <ele>94.2</ele>
        <time>2022-10-05T13:31:58Z</time>
      </trkpt>
      <trkpt lat="49.71709" lon="2.36074">
        <ele>94.2</ele>
        <time>2022-10-05T13:31:59Z</time>
      </trkpt>
      <trkpt lat="49.71709" lon="2.36074">
        <ele>94.2</ele>
        <time>2022-10-05T13:32:00Z</time>
      </trkpt>
      <trkpt lat="49.7171" lon="2.3607">
        <ele>94.1</ele>
        <time>2022-10-05T13:32:01Z</time>
      </trkpt>
      <trkpt lat="49.7171" lon="2.36069">
        <ele>94</ele>
        <time>2022-10-05T13:32:02Z</time>
      </trkpt>
      <trkpt lat="49.7171" lon="2.36069">
        <ele>94</ele>
        <time>2022-10-05T13:32:03Z</time>
      </trkpt>
      <trkpt lat="49.71709" lon="2.36069">
        <ele>94</ele>
        <time>2022-10-05T13:32:04Z</time>
      </trkpt>
      <trkpt lat="49.71709" lon="2.36069">
        <ele>94</ele>
        <time>2022-10-05T13:32:05Z</time>
      </trkpt>
      <trkpt lat="49.71709" lon="2.36069">
        <ele>94</ele>
        <time>2022-10-05T13:32:06Z</time>
      </trkpt>
      <trkpt lat="49.71709" lon="2.36069">
        <ele>94</ele>
        <time>2022-10-05T13:32:07Z</time>
      </trkpt>
      <trkpt lat="49.71709" lon="2.36069">
        <ele>94</ele>
        <time>2022-10-05T13:32:08Z</time>
      </trkpt>
      <trkpt lat="49.71709" lon="2.36069">
        <ele>94</ele>
        <time>2022-10-05T13:32:09Z</time>
      </trkpt>
      <trkpt lat="49.71709" lon="2.36069">
        <ele>94</ele>
        <time>2022-10-05T13:32:10Z</time>
      </trkpt>
      <trkpt lat="49.71709" lon="2.36069">
        <ele>94</ele>
        <time>2022-10-05T13:32:11Z</time>
      </trkpt>
      <trkpt lat="49.71709" lon="2.36069">
        <ele>94</ele>
        <time>2022-10-05T13:32:12Z</time>
      </trkpt>
      <trkpt lat="49.71709" lon="2.36069">
        <ele>94</ele>
        <time>2022-10-05T13:32:13Z</time>
      </trkpt>
      <trkpt lat="49.71709" lon="2.36069">
        <ele>94</ele>
        <time>2022-10-05T13:32:14Z</time>
      </trkpt>
      <trkpt lat="49.71709" lon="2.36069">
        <ele>94</ele>
        <time>2022-10-05T13:32:15Z</time>
      </trkpt>
      <trkpt lat="49.7171" lon="2.36069">
        <ele>94</ele>
        <time>2022-10-05T13:32:16Z</time>
      </trkpt>
      <trkpt lat="49.71709" lon="2.36069">
        <ele>94</ele>
        <time>2022-10-05T13:32:17Z</time>
      </trkpt>
      <trkpt lat="49.71709" lon="2.36069">
        <ele>94</ele>
        <time>2022-10-05T13:32:18Z</time>
      </trkpt>
      <trkpt lat="49.71709" lon="2.36069">
        <ele>94</ele>
        <time>2022-10-05T13:32:19Z</time>
      </trkpt>
      <trkpt lat="49.71709" lon="2.36069">
        <ele>94</ele>
        <time>2022-10-05T13:32:20Z</time>
      </trkpt>
      <trkpt lat="49.71709" lon="2.36069">
        <ele>94</ele>
        <time>2022-10-05T13:32:21Z</time>
      </trkpt>
      <trkpt lat="49.71709" lon="2.36069">
        <ele>94</ele>
        <time>2022-10-05T13:32:22Z</time>
      </trkpt>
      <trkpt lat="49.71709" lon="2.36069">
        <ele>94</ele>
        <time>2022-10-05T13:32:23Z</time>
      </trkpt>
      <trkpt lat="49.71709" lon="2.36069">
        <ele>94</ele>
        <time>2022-10-05T13:32:24Z</time>
      </trkpt>
      <trkpt lat="49.71709" lon="2.36069">
        <ele>94</ele>
        <time>2022-10-05T13:32:25Z</time>
      </trkpt>
      <trkpt lat="49.71709" lon="2.36069">
        <ele>94</ele>
        <time>2022-10-05T13:32:26Z</time>
      </trkpt>
      <trkpt lat="49.71709" lon="2.36069">
        <ele>94</ele>
        <time>2022-10-05T13:32:27Z</time>
      </trkpt>
      <trkpt lat="49.71709" lon="2.36069">
        <ele>94</ele>
        <time>2022-10-05T13:32:28Z</time>
      </trkpt>
      <trkpt lat="49.71709" lon="2.36069">
        <ele>94</ele>
        <time>2022-10-05T13:32:29Z</time>
      </trkpt>
      <trkpt lat="49.71709" lon="2.36069">
        <ele>94</ele>
        <time>2022-10-05T13:32:30Z</time>
      </trkpt>
      <trkpt lat="49.71709" lon="2.36069">
        <ele>94</ele>
        <time>2022-10-05T13:32:31Z</time>
      </trkpt>
      <trkpt lat="49.71709" lon="2.36069">
        <ele>94</ele>
        <time>2022-10-05T13:32:32Z</time>
      </trkpt>
      <trkpt lat="49.71709" lon="2.36069">
        <ele>94</ele>
        <time>2022-10-05T13:32:33Z</time>
      </trkpt>
      <trkpt lat="49.71709" lon="2.36069">
        <ele>94</ele>
        <time>2022-10-05T13:32:34Z</time>
      </trkpt>
      <trkpt lat="49.71709" lon="2.36069">
        <ele>94</ele>
        <time>2022-10-05T13:32:35Z</time>
      </trkpt>
      <trkpt lat="49.71709" lon="2.36069">
        <ele>94</ele>
        <time>2022-10-05T13:32:36Z</time>
      </trkpt>
      <trkpt lat="49.71709" lon="2.36069">
        <ele>94</ele>
        <time>2022-10-05T13:32:37Z</time>
      </trkpt>
      <trkpt lat="49.71709" lon="2.36069">
        <ele>94</ele>
        <time>2022-10-05T13:32:38Z</time>
      </trkpt>
      <trkpt lat="49.71709" lon="2.36069">
        <ele>94</ele>
        <time>2022-10-05T13:32:39Z</time>
      </trkpt>
      <trkpt lat="49.71709" lon="2.36069">
        <ele>94</ele>
        <time>2022-10-05T13:32:40Z</time>
      </trkpt>
      <trkpt lat="49.71709" lon="2.36069">
        <ele>94</ele>
        <time>2022-10-05T13:32:41Z</time>
      </trkpt>
      <trkpt lat="49.71709" lon="2.36069">
        <ele>94</ele>
        <time>2022-10-05T13:32:42Z</time>
      </trkpt>
      <trkpt lat="49.71709" lon="2.36069">
        <ele>94</ele>
        <time>2022-10-05T13:32:43Z</time>
      </trkpt>
      <trkpt lat="49.71709" lon="2.36069">
        <ele>94</ele>
        <time>2022-10-05T13:32:44Z</time>
      </trkpt>
      <trkpt lat="49.71709" lon="2.36069">
        <ele>94</ele>
        <time>2022-10-05T13:32:45Z</time>
      </trkpt>
      <trkpt lat="49.71709" lon="2.36069">
        <ele>94</ele>
        <time>2022-10-05T13:32:46Z</time>
      </trkpt>
      <trkpt lat="49.71709" lon="2.36069">
        <ele>94</ele>
        <time>2022-10-05T13:32:47Z</time>
      </trkpt>
      <trkpt lat="49.71709" lon="2.36069">
        <ele>94</ele>
        <time>2022-10-05T13:32:48Z</time>
      </trkpt>
      <trkpt lat="49.71709" lon="2.36069">
        <ele>94</ele>
        <time>2022-10-05T13:32:49Z</time>
      </trkpt>
      <trkpt lat="49.71709" lon="2.36069">
        <ele>94</ele>
        <time>2022-10-05T13:32:50Z</time>
      </trkpt>
      <trkpt lat="49.71709" lon="2.36069">
        <ele>94</ele>
        <time>2022-10-05T13:32:51Z</time>
      </trkpt>
      <trkpt lat="49.71709" lon="2.36069">
        <ele>94</ele>
        <time>2022-10-05T13:32:52Z</time>
      </trkpt>
      <trkpt lat="49.71709" lon="2.36069">
        <ele>94</ele>
        <time>2022-10-05T13:32:53Z</time>
      </trkpt>
      <trkpt lat="49.71709" lon="2.36069">
        <ele>94</ele>
        <time>2022-10-05T13:32:54Z</time>
      </trkpt>
      <trkpt lat="49.71709" lon="2.36069">
        <ele>94</ele>
        <time>2022-10-05T13:32:55Z</time>
      </trkpt>
      <trkpt lat="49.71709" lon="2.36069">
        <ele>94</ele>
        <time>2022-10-05T13:32:56Z</time>
      </trkpt>
      <trkpt lat="49.7171" lon="2.36068">
        <ele>93.9</ele>
        <time>2022-10-05T13:32:57Z</time>
      </trkpt>
      <trkpt lat="49.71709" lon="2.36067">
        <ele>93.9</ele>
        <time>2022-10-05T13:32:58Z</time>
      </trkpt>
      <trkpt lat="49.71709" lon="2.36067">
        <ele>93.8</ele>
        <time>2022-10-05T13:32:59Z</time>
      </trkpt>
      <trkpt lat="49.7171" lon="2.36066">
        <ele>93.8</ele>
        <time>2022-10-05T13:33:00Z</time>
      </trkpt>
      <trkpt lat="49.7171" lon="2.36065">
        <ele>93.8</ele>
        <time>2022-10-05T13:33:01Z</time>
      </trkpt>
      <trkpt lat="49.71709" lon="2.36064">
        <ele>93.7</ele>
        <time>2022-10-05T13:33:02Z</time>
      </trkpt>
      <trkpt lat="49.71706" lon="2.36061">
        <ele>93.5</ele>
        <time>2022-10-05T13:33:03Z</time>
      </trkpt>
      <trkpt lat="49.71705" lon="2.36061">
        <ele>93.4</ele>
        <time>2022-10-05T13:33:04Z</time>
      </trkpt>
      <trkpt lat="49.71703" lon="2.36059">
        <ele>93.2</ele>
        <time>2022-10-05T13:33:06Z</time>
      </trkpt>
      <trkpt lat="49.71702" lon="2.36058">
        <ele>93.2</ele>
        <time>2022-10-05T13:33:07Z</time>
      </trkpt>
      <trkpt lat="49.71701" lon="2.36058">
        <ele>93.1</ele>
        <time>2022-10-05T13:33:08Z</time>
      </trkpt>
      <trkpt lat="49.717" lon="2.36058">
        <ele>93.1</ele>
        <time>2022-10-05T13:33:09Z</time>
      </trkpt>
      <trkpt lat="49.71698" lon="2.36057">
        <ele>93</ele>
        <time>2022-10-05T13:33:10Z</time>
      </trkpt>
      <trkpt lat="49.71697" lon="2.36057">
        <ele>92.9</ele>
        <time>2022-10-05T13:33:12Z</time>
      </trkpt>
      <trkpt lat="49.71696" lon="2.36056">
        <ele>92.8</ele>
        <time>2022-10-05T13:33:13Z</time>
      </trkpt>
      <trkpt lat="49.71694" lon="2.36055">
        <ele>92.7</ele>
        <time>2022-10-05T13:33:14Z</time>
      </trkpt>
      <trkpt lat="49.71693" lon="2.36055">
        <ele>92.6</ele>
        <time>2022-10-05T13:33:15Z</time>
      </trkpt>
      <trkpt lat="49.71691" lon="2.36054">
        <ele>92.5</ele>
        <time>2022-10-05T13:33:16Z</time>
      </trkpt>
      <trkpt lat="49.7169" lon="2.36053">
        <ele>92.4</ele>
        <time>2022-10-05T13:33:17Z</time>
      </trkpt>
      <trkpt lat="49.71688" lon="2.36052">
        <ele>92.3</ele>
        <time>2022-10-05T13:33:18Z</time>
      </trkpt>
      <trkpt lat="49.71687" lon="2.36051">
        <ele>92.2</ele>
        <time>2022-10-05T13:33:20Z</time>
      </trkpt>
      <trkpt lat="49.71686" lon="2.36051">
        <ele>92.1</ele>
        <time>2022-10-05T13:33:21Z</time>
      </trkpt>
      <trkpt lat="49.71685" lon="2.3605">
        <ele>92.1</ele>
        <time>2022-10-05T13:33:22Z</time>
      </trkpt>
      <trkpt lat="49.71684" lon="2.3605">
        <ele>92</ele>
        <time>2022-10-05T13:33:23Z</time>
      </trkpt>
      <trkpt lat="49.71683" lon="2.36049">
        <ele>91.9</ele>
        <time>2022-10-05T13:33:24Z</time>
      </trkpt>
      <trkpt lat="49.71682" lon="2.36049">
        <ele>91.9</ele>
        <time>2022-10-05T13:33:25Z</time>
      </trkpt>
      <trkpt lat="49.71681" lon="2.36048">
        <ele>91.8</ele>
        <time>2022-10-05T13:33:26Z</time>
      </trkpt>
      <trkpt lat="49.7168" lon="2.36047">
        <ele>91.7</ele>
        <time>2022-10-05T13:33:28Z</time>
      </trkpt>
      <trkpt lat="49.71678" lon="2.36046">
        <ele>91.5</ele>
        <time>2022-10-05T13:33:29Z</time>
      </trkpt>
      <trkpt lat="49.71677" lon="2.36046">
        <ele>91.5</ele>
        <time>2022-10-05T13:33:30Z</time>
      </trkpt>
      <trkpt lat="49.71676" lon="2.36045">
        <ele>91.4</ele>
        <time>2022-10-05T13:33:31Z</time>
      </trkpt>
      <trkpt lat="49.71675" lon="2.36044">
        <ele>91.3</ele>
        <time>2022-10-05T13:33:32Z</time>
      </trkpt>
      <trkpt lat="49.71673" lon="2.36044">
        <ele>91.2</ele>
        <time>2022-10-05T13:33:33Z</time>
      </trkpt>
      <trkpt lat="49.71672" lon="2.36043">
        <ele>91.1</ele>
        <time>2022-10-05T13:33:35Z</time>
      </trkpt>
      <trkpt lat="49.71671" lon="2.36042">
        <ele>91</ele>
        <time>2022-10-05T13:33:36Z</time>
      </trkpt>
      <trkpt lat="49.71669" lon="2.36041">
        <ele>90.9</ele>
        <time>2022-10-05T13:33:37Z</time>
      </trkpt>
      <trkpt lat="49.71668" lon="2.3604">
        <ele>90.8</ele>
        <time>2022-10-05T13:33:39Z</time>
      </trkpt>
      <trkpt lat="49.71667" lon="2.36039">
        <ele>90.7</ele>
        <time>2022-10-05T13:33:40Z</time>
      </trkpt>
      <trkpt lat="49.71665" lon="2.36038">
        <ele>90.6</ele>
        <time>2022-10-05T13:33:41Z</time>
      </trkpt>
      <trkpt lat="49.71664" lon="2.36037">
        <ele>90.5</ele>
        <time>2022-10-05T13:33:42Z</time>
      </trkpt>
      <trkpt lat="49.71663" lon="2.36036">
        <ele>90.5</ele>
        <time>2022-10-05T13:33:43Z</time>
      </trkpt>
      <trkpt lat="49.71663" lon="2.36036">
        <ele>90.4</ele>
        <time>2022-10-05T13:33:44Z</time>
      </trkpt>
      <trkpt lat="49.71662" lon="2.36035">
        <ele>90.4</ele>
        <time>2022-10-05T13:33:45Z</time>
      </trkpt>
      <trkpt lat="49.71661" lon="2.36034">
        <ele>90.2</ele>
        <time>2022-10-05T13:33:46Z</time>
      </trkpt>
      <trkpt lat="49.7166" lon="2.36033">
        <ele>90.2</ele>
        <time>2022-10-05T13:33:47Z</time>
      </trkpt>
      <trkpt lat="49.71658" lon="2.36031">
        <ele>90</ele>
        <time>2022-10-05T13:33:49Z</time>
      </trkpt>
      <trkpt lat="49.71657" lon="2.3603">
        <ele>89.9</ele>
        <time>2022-10-05T13:33:50Z</time>
      </trkpt>
      <trkpt lat="49.71655" lon="2.36029">
        <ele>89.8</ele>
        <time>2022-10-05T13:33:51Z</time>
      </trkpt>
      <trkpt lat="49.71654" lon="2.36028">
        <ele>89.7</ele>
        <time>2022-10-05T13:33:52Z</time>
      </trkpt>
      <trkpt lat="49.71652" lon="2.36028">
        <ele>89.6</ele>
        <time>2022-10-05T13:33:53Z</time>
      </trkpt>
      <trkpt lat="49.71651" lon="2.36027">
        <ele>89.5</ele>
        <time>2022-10-05T13:33:54Z</time>
      </trkpt>
      <trkpt lat="49.71649" lon="2.36025">
        <ele>89.4</ele>
        <time>2022-10-05T13:33:56Z</time>
      </trkpt>
      <trkpt lat="49.71649" lon="2.36025">
        <ele>89.3</ele>
        <time>2022-10-05T13:33:57Z</time>
      </trkpt>
      <trkpt lat="49.71648" lon="2.36024">
        <ele>89.2</ele>
        <time>2022-10-05T13:33:58Z</time>
      </trkpt>
      <trkpt lat="49.71647" lon="2.36023">
        <ele>89.2</ele>
        <time>2022-10-05T13:33:59Z</time>
      </trkpt>
      <trkpt lat="49.71646" lon="2.36022">
        <ele>89.1</ele>
        <time>2022-10-05T13:34:00Z</time>
      </trkpt>
      <trkpt lat="49.71644" lon="2.36021">
        <ele>89</ele>
        <time>2022-10-05T13:34:01Z</time>
      </trkpt>
      <trkpt lat="49.71643" lon="2.36021">
        <ele>88.9</ele>
        <time>2022-10-05T13:34:02Z</time>
      </trkpt>
      <trkpt lat="49.71642" lon="2.3602">
        <ele>88.9</ele>
        <time>2022-10-05T13:34:03Z</time>
      </trkpt>
      <trkpt lat="49.7164" lon="2.36019">
        <ele>88.7</ele>
        <time>2022-10-05T13:34:05Z</time>
      </trkpt>
      <trkpt lat="49.71639" lon="2.36019">
        <ele>88.6</ele>
        <time>2022-10-05T13:34:06Z</time>
      </trkpt>
      <trkpt lat="49.71637" lon="2.36018">
        <ele>88.6</ele>
        <time>2022-10-05T13:34:08Z</time>
      </trkpt>
      <trkpt lat="49.71636" lon="2.36018">
        <ele>88.5</ele>
        <time>2022-10-05T13:34:09Z</time>
      </trkpt>
      <trkpt lat="49.71636" lon="2.36018">
        <ele>88.5</ele>
        <time>2022-10-05T13:34:10Z</time>
      </trkpt>
      <trkpt lat="49.71635" lon="2.36018">
        <ele>88.4</ele>
        <time>2022-10-05T13:34:11Z</time>
      </trkpt>
      <trkpt lat="49.71636" lon="2.36018">
        <ele>88.4</ele>
        <time>2022-10-05T13:34:12Z</time>
      </trkpt>
      <trkpt lat="49.71636" lon="2.36018">
        <ele>88.4</ele>
        <time>2022-10-05T13:34:13Z</time>
      </trkpt>
      <trkpt lat="49.71636" lon="2.36018">
        <ele>88.4</ele>
        <time>2022-10-05T13:34:14Z</time>
      </trkpt>
      <trkpt lat="49.71636" lon="2.36018">
        <ele>88.4</ele>
        <time>2022-10-05T13:34:15Z</time>
      </trkpt>
      <trkpt lat="49.71636" lon="2.36018">
        <ele>88.4</ele>
        <time>2022-10-05T13:34:16Z</time>
      </trkpt>
      <trkpt lat="49.71636" lon="2.36018">
        <ele>88.4</ele>
        <time>2022-10-05T13:34:17Z</time>
      </trkpt>
      <trkpt lat="49.71637" lon="2.36018">
        <ele>88.4</ele>
        <time>2022-10-05T13:34:18Z</time>
      </trkpt>
      <trkpt lat="49.71637" lon="2.36018">
        <ele>88.3</ele>
        <time>2022-10-05T13:34:20Z</time>
      </trkpt>
      <trkpt lat="49.71637" lon="2.36018">
        <ele>88.3</ele>
        <time>2022-10-05T13:34:21Z</time>
      </trkpt>
      <trkpt lat="49.71637" lon="2.36018">
        <ele>88.3</ele>
        <time>2022-10-05T13:34:22Z</time>
      </trkpt>
      <trkpt lat="49.71637" lon="2.36018">
        <ele>88.3</ele>
        <time>2022-10-05T13:34:23Z</time>
      </trkpt>
      <trkpt lat="49.71637" lon="2.36018">
        <ele>88.3</ele>
        <time>2022-10-05T13:34:24Z</time>
      </trkpt>
      <trkpt lat="49.71637" lon="2.36018">
        <ele>88.3</ele>
        <time>2022-10-05T13:34:25Z</time>
      </trkpt>
      <trkpt lat="49.71637" lon="2.36018">
        <ele>88.3</ele>
        <time>2022-10-05T13:34:26Z</time>
      </trkpt>
      <trkpt lat="49.71637" lon="2.36018">
        <ele>88.3</ele>
        <time>2022-10-05T13:34:27Z</time>
      </trkpt>
      <trkpt lat="49.71637" lon="2.36018">
        <ele>88.3</ele>
        <time>2022-10-05T13:34:28Z</time>
      </trkpt>
      <trkpt lat="49.71637" lon="2.36018">
        <ele>88.3</ele>
        <time>2022-10-05T13:34:29Z</time>
      </trkpt>
      <trkpt lat="49.71638" lon="2.36019">
        <ele>88.3</ele>
        <time>2022-10-05T13:34:30Z</time>
      </trkpt>
      <trkpt lat="49.71638" lon="2.36019">
        <ele>88.3</ele>
        <time>2022-10-05T13:34:31Z</time>
      </trkpt>
      <trkpt lat="49.71638" lon="2.36019">
        <ele>88.3</ele>
        <time>2022-10-05T13:34:32Z</time>
      </trkpt>
      <trkpt lat="49.71637" lon="2.36019">
        <ele>88.2</ele>
        <time>2022-10-05T13:34:33Z</time>
      </trkpt>
      <trkpt lat="49.71637" lon="2.36018">
        <ele>88.2</ele>
        <time>2022-10-05T13:34:34Z</time>
      </trkpt>
      <trkpt lat="49.71637" lon="2.36018">
        <ele>88.2</ele>
        <time>2022-10-05T13:34:35Z</time>
      </trkpt>
      <trkpt lat="49.71637" lon="2.36018">
        <ele>88.2</ele>
        <time>2022-10-05T13:34:36Z</time>
      </trkpt>
      <trkpt lat="49.71637" lon="2.36017">
        <ele>88.2</ele>
        <time>2022-10-05T13:34:37Z</time>
      </trkpt>
      <trkpt lat="49.71637" lon="2.36016">
        <ele>88.1</ele>
        <time>2022-10-05T13:34:38Z</time>
      </trkpt>
      <trkpt lat="49.71638" lon="2.36015">
        <ele>88.1</ele>
        <time>2022-10-05T13:34:39Z</time>
      </trkpt>
      <trkpt lat="49.71638" lon="2.36014">
        <ele>88</ele>
        <time>2022-10-05T13:34:40Z</time>
      </trkpt>
      <trkpt lat="49.71638" lon="2.36014">
        <ele>88</ele>
        <time>2022-10-05T13:34:41Z</time>
      </trkpt>
      <trkpt lat="49.71638" lon="2.36014">
        <ele>88</ele>
        <time>2022-10-05T13:34:42Z</time>
      </trkpt>
      <trkpt lat="49.71638" lon="2.36014">
        <ele>88</ele>
        <time>2022-10-05T13:34:43Z</time>
      </trkpt>
      <trkpt lat="49.71638" lon="2.36014">
        <ele>88</ele>
        <time>2022-10-05T13:34:44Z</time>
      </trkpt>
      <trkpt lat="49.71638" lon="2.36014">
        <ele>88</ele>
        <time>2022-10-05T13:34:45Z</time>
      </trkpt>
      <trkpt lat="49.71638" lon="2.36014">
        <ele>88</ele>
        <time>2022-10-05T13:34:46Z</time>
      </trkpt>
      <trkpt lat="49.71638" lon="2.36014">
        <ele>88</ele>
        <time>2022-10-05T13:34:47Z</time>
      </trkpt>
      <trkpt lat="49.71638" lon="2.36013">
        <ele>88</ele>
        <time>2022-10-05T13:34:48Z</time>
      </trkpt>
      <trkpt lat="49.71638" lon="2.36013">
        <ele>88</ele>
        <time>2022-10-05T13:34:49Z</time>
      </trkpt>
      <trkpt lat="49.71638" lon="2.36013">
        <ele>88</ele>
        <time>2022-10-05T13:34:50Z</time>
      </trkpt>
      <trkpt lat="49.71638" lon="2.36013">
        <ele>87.9</ele>
        <time>2022-10-05T13:34:51Z</time>
      </trkpt>
      <trkpt lat="49.71638" lon="2.36013">
        <ele>87.9</ele>
        <time>2022-10-05T13:34:52Z</time>
      </trkpt>
      <trkpt lat="49.71638" lon="2.36013">
        <ele>87.9</ele>
        <time>2022-10-05T13:34:53Z</time>
      </trkpt>
      <trkpt lat="49.71638" lon="2.36013">
        <ele>87.9</ele>
        <time>2022-10-05T13:34:54Z</time>
      </trkpt>
      <trkpt lat="49.71638" lon="2.36012">
        <ele>87.9</ele>
        <time>2022-10-05T13:34:55Z</time>
      </trkpt>
      <trkpt lat="49.71638" lon="2.36012">
        <ele>87.9</ele>
        <time>2022-10-05T13:34:56Z</time>
      </trkpt>
      <trkpt lat="49.71638" lon="2.36012">
        <ele>87.9</ele>
        <time>2022-10-05T13:34:57Z</time>
      </trkpt>
      <trkpt lat="49.71638" lon="2.36012">
        <ele>87.9</ele>
        <time>2022-10-05T13:34:58Z</time>
      </trkpt>
      <trkpt lat="49.71638" lon="2.36012">
        <ele>87.9</ele>
        <time>2022-10-05T13:34:59Z</time>
      </trkpt>
      <trkpt lat="49.71637" lon="2.36012">
        <ele>87.9</ele>
        <time>2022-10-05T13:35:00Z</time>
      </trkpt>
      <trkpt lat="49.71637" lon="2.36012">
        <ele>87.9</ele>
        <time>2022-10-05T13:35:01Z</time>
      </trkpt>
      <trkpt lat="49.71637" lon="2.36011">
        <ele>87.9</ele>
        <time>2022-10-05T13:35:02Z</time>
      </trkpt>
      <trkpt lat="49.71637" lon="2.36011">
        <ele>87.9</ele>
        <time>2022-10-05T13:35:03Z</time>
      </trkpt>
      <trkpt lat="49.71637" lon="2.36011">
        <ele>87.9</ele>
        <time>2022-10-05T13:35:04Z</time>
      </trkpt>
      <trkpt lat="49.71637" lon="2.36011">
        <ele>87.8</ele>
        <time>2022-10-05T13:35:05Z</time>
      </trkpt>
      <trkpt lat="49.71637" lon="2.36011">
        <ele>87.8</ele>
        <time>2022-10-05T13:35:06Z</time>
      </trkpt>
      <trkpt lat="49.71637" lon="2.36011">
        <ele>87.8</ele>
        <time>2022-10-05T13:35:07Z</time>
      </trkpt>
      <trkpt lat="49.71637" lon="2.36011">
        <ele>87.8</ele>
        <time>2022-10-05T13:35:08Z</time>
      </trkpt>
      <trkpt lat="49.71637" lon="2.3601">
        <ele>87.8</ele>
        <time>2022-10-05T13:35:09Z</time>
      </trkpt>
      <trkpt lat="49.71637" lon="2.3601">
        <ele>87.8</ele>
        <time>2022-10-05T13:35:10Z</time>
      </trkpt>
      <trkpt lat="49.71637" lon="2.3601">
        <ele>87.8</ele>
        <time>2022-10-05T13:35:11Z</time>
      </trkpt>
      <trkpt lat="49.71637" lon="2.3601">
        <ele>87.8</ele>
        <time>2022-10-05T13:35:12Z</time>
      </trkpt>
      <trkpt lat="49.71637" lon="2.3601">
        <ele>87.8</ele>
        <time>2022-10-05T13:35:13Z</time>
      </trkpt>
      <trkpt lat="49.71637" lon="2.3601">
        <ele>87.8</ele>
        <time>2022-10-05T13:35:14Z</time>
      </trkpt>
      <trkpt lat="49.71637" lon="2.3601">
        <ele>87.8</ele>
        <time>2022-10-05T13:35:15Z</time>
      </trkpt>
      <trkpt lat="49.71637" lon="2.3601">
        <ele>87.8</ele>
        <time>2022-10-05T13:35:16Z</time>
      </trkpt>
      <trkpt lat="49.71636" lon="2.36009">
        <ele>87.8</ele>
        <time>2022-10-05T13:35:17Z</time>
      </trkpt>
      <trkpt lat="49.71636" lon="2.36009">
        <ele>87.8</ele>
        <time>2022-10-05T13:35:18Z</time>
      </trkpt>
      <trkpt lat="49.71636" lon="2.36009">
        <ele>87.7</ele>
        <time>2022-10-05T13:35:19Z</time>
      </trkpt>
      <trkpt lat="49.71636" lon="2.36009">
        <ele>87.7</ele>
        <time>2022-10-05T13:35:21Z</time>
      </trkpt>
      <trkpt lat="49.71636" lon="2.36009">
        <ele>87.7</ele>
        <time>2022-10-05T13:35:22Z</time>
      </trkpt>
      <trkpt lat="49.71636" lon="2.36009">
        <ele>87.7</ele>
        <time>2022-10-05T13:35:23Z</time>
      </trkpt>
      <trkpt lat="49.71636" lon="2.36009">
        <ele>87.7</ele>
        <time>2022-10-05T13:35:24Z</time>
      </trkpt>
      <trkpt lat="49.71634" lon="2.36008">
        <ele>87.6</ele>
        <time>2022-10-05T13:35:25Z</time>
      </trkpt>
      <trkpt lat="49.71631" lon="2.36007">
        <ele>87.4</ele>
        <time>2022-10-05T13:35:27Z</time>
      </trkpt>
      <trkpt lat="49.7163" lon="2.36006">
        <ele>87.3</ele>
        <time>2022-10-05T13:35:28Z</time>
      </trkpt>
      <trkpt lat="49.71629" lon="2.36006">
        <ele>87.2</ele>
        <time>2022-10-05T13:35:29Z</time>
      </trkpt>
      <trkpt lat="49.71628" lon="2.36006">
        <ele>87.2</ele>
        <time>2022-10-05T13:35:30Z</time>
      </trkpt>
      <trkpt lat="49.71627" lon="2.36007">
        <ele>87.1</ele>
        <time>2022-10-05T13:35:31Z</time>
      </trkpt>
      <trkpt lat="49.71626" lon="2.36007">
        <ele>87.1</ele>
        <time>2022-10-05T13:35:32Z</time>
      </trkpt>
      <trkpt lat="49.71625" lon="2.36007">
        <ele>87</ele>
        <time>2022-10-05T13:35:33Z</time>
      </trkpt>
      <trkpt lat="49.71624" lon="2.36007">
        <ele>86.9</ele>
        <time>2022-10-05T13:35:34Z</time>
      </trkpt>
      <trkpt lat="49.71623" lon="2.36008">
        <ele>86.9</ele>
        <time>2022-10-05T13:35:35Z</time>
      </trkpt>
      <trkpt lat="49.71622" lon="2.36008">
        <ele>86.8</ele>
        <time>2022-10-05T13:35:36Z</time>
      </trkpt>
      <trkpt lat="49.7162" lon="2.36008">
        <ele>86.7</ele>
        <time>2022-10-05T13:35:37Z</time>
      </trkpt>
      <trkpt lat="49.71619" lon="2.36007">
        <ele>86.6</ele>
        <time>2022-10-05T13:35:39Z</time>
      </trkpt>
      <trkpt lat="49.71618" lon="2.36007">
        <ele>86.6</ele>
        <time>2022-10-05T13:35:40Z</time>
      </trkpt>
      <trkpt lat="49.71617" lon="2.36007">
        <ele>86.5</ele>
        <time>2022-10-05T13:35:41Z</time>
      </trkpt>
      <trkpt lat="49.71616" lon="2.36006">
        <ele>86.4</ele>
        <time>2022-10-05T13:35:42Z</time>
      </trkpt>
      <trkpt lat="49.71613" lon="2.36005">
        <ele>86.2</ele>
        <time>2022-10-05T13:35:43Z</time>
      </trkpt>
      <trkpt lat="49.71612" lon="2.36005">
        <ele>86.1</ele>
        <time>2022-10-05T13:35:44Z</time>
      </trkpt>
      <trkpt lat="49.7161" lon="2.36004">
        <ele>86</ele>
        <time>2022-10-05T13:35:45Z</time>
      </trkpt>
      <trkpt lat="49.71609" lon="2.36004">
        <ele>85.9</ele>
        <time>2022-10-05T13:35:46Z</time>
      </trkpt>
      <trkpt lat="49.71607" lon="2.36003">
        <ele>85.8</ele>
        <time>2022-10-05T13:35:47Z</time>
      </trkpt>
      <trkpt lat="49.71606" lon="2.36003">
        <ele>85.7</ele>
        <time>2022-10-05T13:35:49Z</time>
      </trkpt>
      <trkpt lat="49.71605" lon="2.36003">
        <ele>85.7</ele>
        <time>2022-10-05T13:35:50Z</time>
      </trkpt>
      <trkpt lat="49.71604" lon="2.36002">
        <ele>85.6</ele>
        <time>2022-10-05T13:35:51Z</time>
      </trkpt>
      <trkpt lat="49.71603" lon="2.36002">
        <ele>85.5</ele>
        <time>2022-10-05T13:35:52Z</time>
      </trkpt>
      <trkpt lat="49.71602" lon="2.36002">
        <ele>85.4</ele>
        <time>2022-10-05T13:35:53Z</time>
      </trkpt>
      <trkpt lat="49.71601" lon="2.36001">
        <ele>85.4</ele>
        <time>2022-10-05T13:35:54Z</time>
      </trkpt>
      <trkpt lat="49.716" lon="2.36001">
        <ele>85.3</ele>
        <time>2022-10-05T13:35:55Z</time>
      </trkpt>
      <trkpt lat="49.71598" lon="2.36">
        <ele>85.2</ele>
        <time>2022-10-05T13:35:56Z</time>
      </trkpt>
      <trkpt lat="49.71597" lon="2.35999">
        <ele>85.1</ele>
        <time>2022-10-05T13:35:57Z</time>
      </trkpt>
      <trkpt lat="49.71596" lon="2.35999">
        <ele>85</ele>
        <time>2022-10-05T13:35:58Z</time>
      </trkpt>
      <trkpt lat="49.71594" lon="2.35998">
        <ele>84.9</ele>
        <time>2022-10-05T13:35:59Z</time>
      </trkpt>
      <trkpt lat="49.71593" lon="2.35997">
        <ele>84.8</ele>
        <time>2022-10-05T13:36:01Z</time>
      </trkpt>
      <trkpt lat="49.71591" lon="2.35997">
        <ele>84.7</ele>
        <time>2022-10-05T13:36:02Z</time>
      </trkpt>
      <trkpt lat="49.7159" lon="2.35997">
        <ele>84.7</ele>
        <time>2022-10-05T13:36:03Z</time>
      </trkpt>
      <trkpt lat="49.71588" lon="2.35997">
        <ele>84.5</ele>
        <time>2022-10-05T13:36:04Z</time>
      </trkpt>
      <trkpt lat="49.71587" lon="2.35997">
        <ele>84.5</ele>
        <time>2022-10-05T13:36:05Z</time>
      </trkpt>
      <trkpt lat="49.71586" lon="2.35996">
        <ele>84.4</ele>
        <time>2022-10-05T13:36:06Z</time>
      </trkpt>
      <trkpt lat="49.71585" lon="2.35995">
        <ele>84.3</ele>
        <time>2022-10-05T13:36:07Z</time>
      </trkpt>
      <trkpt lat="49.71583" lon="2.35995">
        <ele>84.2</ele>
        <time>2022-10-05T13:36:08Z</time>
      </trkpt>
      <trkpt lat="49.71582" lon="2.35994">
        <ele>84.2</ele>
        <time>2022-10-05T13:36:09Z</time>
      </trkpt>
      <trkpt lat="49.71581" lon="2.35994">
        <ele>84.1</ele>
        <time>2022-10-05T13:36:10Z</time>
      </trkpt>
      <trkpt lat="49.71579" lon="2.35993">
        <ele>84.1</ele>
        <time>2022-10-05T13:36:12Z</time>
      </trkpt>
      <trkpt lat="49.71578" lon="2.35993">
        <ele>84</ele>
        <time>2022-10-05T13:36:13Z</time>
      </trkpt>
      <trkpt lat="49.71577" lon="2.35993">
        <ele>84</ele>
        <time>2022-10-05T13:36:14Z</time>
      </trkpt>
      <trkpt lat="49.71576" lon="2.35993">
        <ele>83.9</ele>
        <time>2022-10-05T13:36:15Z</time>
      </trkpt>
      <trkpt lat="49.71575" lon="2.35992">
        <ele>83.9</ele>
        <time>2022-10-05T13:36:16Z</time>
      </trkpt>
      <trkpt lat="49.71574" lon="2.35992">
        <ele>83.8</ele>
        <time>2022-10-05T13:36:17Z</time>
      </trkpt>
      <trkpt lat="49.71573" lon="2.35992">
        <ele>83.8</ele>
        <time>2022-10-05T13:36:18Z</time>
      </trkpt>
      <trkpt lat="49.71572" lon="2.35991">
        <ele>83.7</ele>
        <time>2022-10-05T13:36:19Z</time>
      </trkpt>
      <trkpt lat="49.71571" lon="2.35991">
        <ele>83.7</ele>
        <time>2022-10-05T13:36:20Z</time>
      </trkpt>
      <trkpt lat="49.7157" lon="2.35991">
        <ele>83.6</ele>
        <time>2022-10-05T13:36:21Z</time>
      </trkpt>
      <trkpt lat="49.71567" lon="2.3599">
        <ele>83.5</ele>
        <time>2022-10-05T13:36:22Z</time>
      </trkpt>
      <trkpt lat="49.71566" lon="2.35989">
        <ele>83.5</ele>
        <time>2022-10-05T13:36:24Z</time>
      </trkpt>
      <trkpt lat="49.71565" lon="2.35989">
        <ele>83.4</ele>
        <time>2022-10-05T13:36:25Z</time>
      </trkpt>
      <trkpt lat="49.71564" lon="2.35988">
        <ele>83.4</ele>
        <time>2022-10-05T13:36:26Z</time>
      </trkpt>
      <trkpt lat="49.71562" lon="2.35988">
        <ele>83.3</ele>
        <time>2022-10-05T13:36:27Z</time>
      </trkpt>
      <trkpt lat="49.71561" lon="2.35987">
        <ele>83.2</ele>
        <time>2022-10-05T13:36:28Z</time>
      </trkpt>
      <trkpt lat="49.7156" lon="2.35986">
        <ele>83.2</ele>
        <time>2022-10-05T13:36:29Z</time>
      </trkpt>
      <trkpt lat="49.71559" lon="2.35985">
        <ele>83.2</ele>
        <time>2022-10-05T13:36:30Z</time>
      </trkpt>
      <trkpt lat="49.71557" lon="2.35984">
        <ele>83.1</ele>
        <time>2022-10-05T13:36:31Z</time>
      </trkpt>
      <trkpt lat="49.71556" lon="2.35983">
        <ele>83</ele>
        <time>2022-10-05T13:36:32Z</time>
      </trkpt>
      <trkpt lat="49.71555" lon="2.35983">
        <ele>83</ele>
        <time>2022-10-05T13:36:34Z</time>
      </trkpt>
      <trkpt lat="49.71554" lon="2.35983">
        <ele>82.9</ele>
        <time>2022-10-05T13:36:35Z</time>
      </trkpt>
      <trkpt lat="49.71553" lon="2.35982">
        <ele>82.9</ele>
        <time>2022-10-05T13:36:36Z</time>
      </trkpt>
      <trkpt lat="49.71551" lon="2.35981">
        <ele>82.8</ele>
        <time>2022-10-05T13:36:37Z</time>
      </trkpt>
      <trkpt lat="49.7155" lon="2.35981">
        <ele>82.7</ele>
        <time>2022-10-05T13:36:38Z</time>
      </trkpt>
      <trkpt lat="49.71549" lon="2.3598">
        <ele>82.7</ele>
        <time>2022-10-05T13:36:39Z</time>
      </trkpt>
      <trkpt lat="49.71548" lon="2.3598">
        <ele>82.6</ele>
        <time>2022-10-05T13:36:40Z</time>
      </trkpt>
      <trkpt lat="49.71547" lon="2.35979">
        <ele>82.6</ele>
        <time>2022-10-05T13:36:41Z</time>
      </trkpt>
      <trkpt lat="49.71545" lon="2.35978">
        <ele>82.5</ele>
        <time>2022-10-05T13:36:43Z</time>
      </trkpt>
      <trkpt lat="49.71544" lon="2.35977">
        <ele>82.4</ele>
        <time>2022-10-05T13:36:44Z</time>
      </trkpt>
      <trkpt lat="49.71543" lon="2.35977">
        <ele>82.3</ele>
        <time>2022-10-05T13:36:45Z</time>
      </trkpt>
      <trkpt lat="49.71542" lon="2.35976">
        <ele>82.3</ele>
        <time>2022-10-05T13:36:46Z</time>
      </trkpt>
      <trkpt lat="49.71539" lon="2.35974">
        <ele>82.1</ele>
        <time>2022-10-05T13:36:47Z</time>
      </trkpt>
      <trkpt lat="49.71538" lon="2.35973">
        <ele>82</ele>
        <time>2022-10-05T13:36:49Z</time>
      </trkpt>
      <trkpt lat="49.71538" lon="2.35973">
        <ele>82</ele>
        <time>2022-10-05T13:36:50Z</time>
      </trkpt>
      <trkpt lat="49.71537" lon="2.35972">
        <ele>81.9</ele>
        <time>2022-10-05T13:36:51Z</time>
      </trkpt>
      <trkpt lat="49.71536" lon="2.35971">
        <ele>81.8</ele>
        <time>2022-10-05T13:36:52Z</time>
      </trkpt>
      <trkpt lat="49.71535" lon="2.3597">
        <ele>81.7</ele>
        <time>2022-10-05T13:36:53Z</time>
      </trkpt>
      <trkpt lat="49.71534" lon="2.35969">
        <ele>81.6</ele>
        <time>2022-10-05T13:36:54Z</time>
      </trkpt>
      <trkpt lat="49.71533" lon="2.35967">
        <ele>81.6</ele>
        <time>2022-10-05T13:36:55Z</time>
      </trkpt>
      <trkpt lat="49.71532" lon="2.35965">
        <ele>81.4</ele>
        <time>2022-10-05T13:36:56Z</time>
      </trkpt>
      <trkpt lat="49.71531" lon="2.35964">
        <ele>81.3</ele>
        <time>2022-10-05T13:36:57Z</time>
      </trkpt>
      <trkpt lat="49.71531" lon="2.35963">
        <ele>81.3</ele>
        <time>2022-10-05T13:36:58Z</time>
      </trkpt>
      <trkpt lat="49.7153" lon="2.35962">
        <ele>81.2</ele>
        <time>2022-10-05T13:36:59Z</time>
      </trkpt>
      <trkpt lat="49.71529" lon="2.3596">
        <ele>81.1</ele>
        <time>2022-10-05T13:37:01Z</time>
      </trkpt>
      <trkpt lat="49.71528" lon="2.3596">
        <ele>81</ele>
        <time>2022-10-05T13:37:02Z</time>
      </trkpt>
      <trkpt lat="49.71526" lon="2.35958">
        <ele>80.9</ele>
        <time>2022-10-05T13:37:03Z</time>
      </trkpt>
      <trkpt lat="49.71525" lon="2.35957">
        <ele>80.8</ele>
        <time>2022-10-05T13:37:04Z</time>
      </trkpt>
      <trkpt lat="49.71524" lon="2.35955">
        <ele>80.7</ele>
        <time>2022-10-05T13:37:05Z</time>
      </trkpt>
      <trkpt lat="49.71523" lon="2.35954">
        <ele>80.6</ele>
        <time>2022-10-05T13:37:06Z</time>
      </trkpt>
      <trkpt lat="49.71521" lon="2.35951">
        <ele>80.3</ele>
        <time>2022-10-05T13:37:07Z</time>
      </trkpt>
      <trkpt lat="49.7152" lon="2.3595">
        <ele>80.3</ele>
        <time>2022-10-05T13:37:09Z</time>
      </trkpt>
      <trkpt lat="49.71519" lon="2.35949">
        <ele>80.2</ele>
        <time>2022-10-05T13:37:10Z</time>
      </trkpt>
      <trkpt lat="49.71519" lon="2.35948">
        <ele>80.1</ele>
        <time>2022-10-05T13:37:11Z</time>
      </trkpt>
      <trkpt lat="49.71518" lon="2.35947">
        <ele>80.1</ele>
        <time>2022-10-05T13:37:12Z</time>
      </trkpt>
      <trkpt lat="49.71516" lon="2.35945">
        <ele>79.9</ele>
        <time>2022-10-05T13:37:13Z</time>
      </trkpt>
      <trkpt lat="49.71515" lon="2.35944">
        <ele>79.8</ele>
        <time>2022-10-05T13:37:14Z</time>
      </trkpt>
      <trkpt lat="49.71514" lon="2.35942">
        <ele>79.6</ele>
        <time>2022-10-05T13:37:15Z</time>
      </trkpt>
      <trkpt lat="49.71513" lon="2.3594">
        <ele>79.6</ele>
        <time>2022-10-05T13:37:16Z</time>
      </trkpt>
      <trkpt lat="49.71512" lon="2.35939">
        <ele>79.5</ele>
        <time>2022-10-05T13:37:17Z</time>
      </trkpt>
      <trkpt lat="49.71511" lon="2.35939">
        <ele>79.4</ele>
        <time>2022-10-05T13:37:18Z</time>
      </trkpt>
      <trkpt lat="49.71511" lon="2.35938">
        <ele>79.3</ele>
        <time>2022-10-05T13:37:19Z</time>
      </trkpt>
      <trkpt lat="49.71509" lon="2.35937">
        <ele>79.2</ele>
        <time>2022-10-05T13:37:21Z</time>
      </trkpt>
      <trkpt lat="49.71508" lon="2.35935">
        <ele>79.1</ele>
        <time>2022-10-05T13:37:22Z</time>
      </trkpt>
      <trkpt lat="49.71507" lon="2.35934">
        <ele>79</ele>
        <time>2022-10-05T13:37:23Z</time>
      </trkpt>
      <trkpt lat="49.71506" lon="2.35933">
        <ele>78.9</ele>
        <time>2022-10-05T13:37:25Z</time>
      </trkpt>
      <trkpt lat="49.71505" lon="2.35932">
        <ele>78.8</ele>
        <time>2022-10-05T13:37:26Z</time>
      </trkpt>
      <trkpt lat="49.71503" lon="2.35931">
        <ele>78.7</ele>
        <time>2022-10-05T13:37:27Z</time>
      </trkpt>
      <trkpt lat="49.71502" lon="2.35929">
        <ele>78.5</ele>
        <time>2022-10-05T13:37:28Z</time>
      </trkpt>
      <trkpt lat="49.71501" lon="2.35929">
        <ele>78.5</ele>
        <time>2022-10-05T13:37:29Z</time>
      </trkpt>
      <trkpt lat="49.71501" lon="2.35928">
        <ele>78.4</ele>
        <time>2022-10-05T13:37:30Z</time>
      </trkpt>
      <trkpt lat="49.71499" lon="2.35926">
        <ele>78.2</ele>
        <time>2022-10-05T13:37:31Z</time>
      </trkpt>
      <trkpt lat="49.71498" lon="2.35925">
        <ele>78.1</ele>
        <time>2022-10-05T13:37:32Z</time>
      </trkpt>
      <trkpt lat="49.71497" lon="2.35924">
        <ele>78</ele>
        <time>2022-10-05T13:37:33Z</time>
      </trkpt>
      <trkpt lat="49.71495" lon="2.35922">
        <ele>77.8</ele>
        <time>2022-10-05T13:37:35Z</time>
      </trkpt>
      <trkpt lat="49.71494" lon="2.35921">
        <ele>77.7</ele>
        <time>2022-10-05T13:37:36Z</time>
      </trkpt>
      <trkpt lat="49.71494" lon="2.3592">
        <ele>77.6</ele>
        <time>2022-10-05T13:37:37Z</time>
      </trkpt>
      <trkpt lat="49.71492" lon="2.35918">
        <ele>77.5</ele>
        <time>2022-10-05T13:37:38Z</time>
      </trkpt>
      <trkpt lat="49.71491" lon="2.35917">
        <ele>77.4</ele>
        <time>2022-10-05T13:37:39Z</time>
      </trkpt>
      <trkpt lat="49.71491" lon="2.35917">
        <ele>77.3</ele>
        <time>2022-10-05T13:37:40Z</time>
      </trkpt>
      <trkpt lat="49.71489" lon="2.35915">
        <ele>77.1</ele>
        <time>2022-10-05T13:37:41Z</time>
      </trkpt>
      <trkpt lat="49.71488" lon="2.35914">
        <ele>77</ele>
        <time>2022-10-05T13:37:43Z</time>
      </trkpt>
      <trkpt lat="49.71487" lon="2.35913">
        <ele>76.9</ele>
        <time>2022-10-05T13:37:44Z</time>
      </trkpt>
      <trkpt lat="49.71487" lon="2.35913">
        <ele>76.9</ele>
        <time>2022-10-05T13:37:45Z</time>
      </trkpt>
      <trkpt lat="49.71486" lon="2.35913">
        <ele>76.9</ele>
        <time>2022-10-05T13:37:46Z</time>
      </trkpt>
      <trkpt lat="49.71485" lon="2.35912">
        <ele>76.8</ele>
        <time>2022-10-05T13:37:47Z</time>
      </trkpt>
      <trkpt lat="49.71485" lon="2.35911">
        <ele>76.7</ele>
        <time>2022-10-05T13:37:48Z</time>
      </trkpt>
      <trkpt lat="49.71483" lon="2.35909">
        <ele>76.5</ele>
        <time>2022-10-05T13:37:49Z</time>
      </trkpt>
      <trkpt lat="49.71482" lon="2.35908">
        <ele>76.5</ele>
        <time>2022-10-05T13:37:50Z</time>
      </trkpt>
      <trkpt lat="49.71482" lon="2.35907">
        <ele>76.4</ele>
        <time>2022-10-05T13:37:51Z</time>
      </trkpt>
      <trkpt lat="49.7148" lon="2.35905">
        <ele>76.2</ele>
        <time>2022-10-05T13:37:53Z</time>
      </trkpt>
      <trkpt lat="49.71479" lon="2.35904">
        <ele>76.1</ele>
        <time>2022-10-05T13:37:54Z</time>
      </trkpt>
      <trkpt lat="49.71479" lon="2.35903">
        <ele>76</ele>
        <time>2022-10-05T13:37:55Z</time>
      </trkpt>
      <trkpt lat="49.71478" lon="2.35902">
        <ele>75.9</ele>
        <time>2022-10-05T13:37:56Z</time>
      </trkpt>
      <trkpt lat="49.71477" lon="2.35899">
        <ele>75.8</ele>
        <time>2022-10-05T13:37:58Z</time>
      </trkpt>
      <trkpt lat="49.71476" lon="2.35898">
        <ele>75.6</ele>
        <time>2022-10-05T13:37:59Z</time>
      </trkpt>
      <trkpt lat="49.71475" lon="2.35897">
        <ele>75.6</ele>
        <time>2022-10-05T13:38:00Z</time>
      </trkpt>
      <trkpt lat="49.71475" lon="2.35896">
        <ele>75.5</ele>
        <time>2022-10-05T13:38:01Z</time>
      </trkpt>
      <trkpt lat="49.71474" lon="2.35895">
        <ele>75.5</ele>
        <time>2022-10-05T13:38:02Z</time>
      </trkpt>
      <trkpt lat="49.71473" lon="2.35894">
        <ele>75.3</ele>
        <time>2022-10-05T13:38:03Z</time>
      </trkpt>
      <trkpt lat="49.71472" lon="2.35892">
        <ele>75.2</ele>
        <time>2022-10-05T13:38:04Z</time>
      </trkpt>
      <trkpt lat="49.71471" lon="2.35891">
        <ele>75.1</ele>
        <time>2022-10-05T13:38:06Z</time>
      </trkpt>
      <trkpt lat="49.7147" lon="2.35889">
        <ele>75</ele>
        <time>2022-10-05T13:38:07Z</time>
      </trkpt>
      <trkpt lat="49.71469" lon="2.35887">
        <ele>74.8</ele>
        <time>2022-10-05T13:38:08Z</time>
      </trkpt>
      <trkpt lat="49.71468" lon="2.35886">
        <ele>74.7</ele>
        <time>2022-10-05T13:38:09Z</time>
      </trkpt>
      <trkpt lat="49.71468" lon="2.35885">
        <ele>74.7</ele>
        <time>2022-10-05T13:38:10Z</time>
      </trkpt>
      <trkpt lat="49.71467" lon="2.35884">
        <ele>74.6</ele>
        <time>2022-10-05T13:38:11Z</time>
      </trkpt>
      <trkpt lat="49.71466" lon="2.35883">
        <ele>74.5</ele>
        <time>2022-10-05T13:38:13Z</time>
      </trkpt>
      <trkpt lat="49.71465" lon="2.35881">
        <ele>74.4</ele>
        <time>2022-10-05T13:38:14Z</time>
      </trkpt>
      <trkpt lat="49.71465" lon="2.3588">
        <ele>74.3</ele>
        <time>2022-10-05T13:38:15Z</time>
      </trkpt>
      <trkpt lat="49.71463" lon="2.35878">
        <ele>74.1</ele>
        <time>2022-10-05T13:38:16Z</time>
      </trkpt>
      <trkpt lat="49.71463" lon="2.35877">
        <ele>74</ele>
        <time>2022-10-05T13:38:17Z</time>
      </trkpt>
      <trkpt lat="49.71462" lon="2.35876">
        <ele>73.9</ele>
        <time>2022-10-05T13:38:18Z</time>
      </trkpt>
      <trkpt lat="49.71461" lon="2.35876">
        <ele>73.9</ele>
        <time>2022-10-05T13:38:19Z</time>
      </trkpt>
      <trkpt lat="49.7146" lon="2.35875">
        <ele>73.8</ele>
        <time>2022-10-05T13:38:20Z</time>
      </trkpt>
      <trkpt lat="49.71459" lon="2.35873">
        <ele>73.6</ele>
        <time>2022-10-05T13:38:22Z</time>
      </trkpt>
      <trkpt lat="49.71458" lon="2.35872">
        <ele>73.5</ele>
        <time>2022-10-05T13:38:23Z</time>
      </trkpt>
      <trkpt lat="49.71457" lon="2.35871">
        <ele>73.4</ele>
        <time>2022-10-05T13:38:24Z</time>
      </trkpt>
      <trkpt lat="49.71456" lon="2.3587">
        <ele>73.3</ele>
        <time>2022-10-05T13:38:25Z</time>
      </trkpt>
      <trkpt lat="49.71454" lon="2.35868">
        <ele>73.1</ele>
        <time>2022-10-05T13:38:26Z</time>
      </trkpt>
      <trkpt lat="49.71454" lon="2.35867">
        <ele>73</ele>
        <time>2022-10-05T13:38:27Z</time>
      </trkpt>
      <trkpt lat="49.71453" lon="2.35867">
        <ele>72.9</ele>
        <time>2022-10-05T13:38:28Z</time>
      </trkpt>
      <trkpt lat="49.71452" lon="2.35866">
        <ele>72.8</ele>
        <time>2022-10-05T13:38:29Z</time>
      </trkpt>
      <trkpt lat="49.71451" lon="2.35865">
        <ele>72.7</ele>
        <time>2022-10-05T13:38:30Z</time>
      </trkpt>
      <trkpt lat="49.7145" lon="2.35865">
        <ele>72.6</ele>
        <time>2022-10-05T13:38:31Z</time>
      </trkpt>
      <trkpt lat="49.71449" lon="2.35863">
        <ele>72.4</ele>
        <time>2022-10-05T13:38:33Z</time>
      </trkpt>
      <trkpt lat="49.71448" lon="2.35862">
        <ele>72.3</ele>
        <time>2022-10-05T13:38:34Z</time>
      </trkpt>
      <trkpt lat="49.71446" lon="2.35861">
        <ele>72.1</ele>
        <time>2022-10-05T13:38:35Z</time>
      </trkpt>
      <trkpt lat="49.71445" lon="2.3586">
        <ele>72</ele>
        <time>2022-10-05T13:38:37Z</time>
      </trkpt>
      <trkpt lat="49.71444" lon="2.3586">
        <ele>71.9</ele>
        <time>2022-10-05T13:38:38Z</time>
      </trkpt>
      <trkpt lat="49.71443" lon="2.35859">
        <ele>71.8</ele>
        <time>2022-10-05T13:38:39Z</time>
      </trkpt>
      <trkpt lat="49.71442" lon="2.35858">
        <ele>71.5</ele>
        <time>2022-10-05T13:38:41Z</time>
      </trkpt>
      <trkpt lat="49.71442" lon="2.35857">
        <ele>71.5</ele>
        <time>2022-10-05T13:38:42Z</time>
      </trkpt>
      <trkpt lat="49.71442" lon="2.35856">
        <ele>71.4</ele>
        <time>2022-10-05T13:38:43Z</time>
      </trkpt>
      <trkpt lat="49.71442" lon="2.35856">
        <ele>71.4</ele>
        <time>2022-10-05T13:38:44Z</time>
      </trkpt>
      <trkpt lat="49.71442" lon="2.35856">
        <ele>71.4</ele>
        <time>2022-10-05T13:38:45Z</time>
      </trkpt>
      <trkpt lat="49.71442" lon="2.35856">
        <ele>71.4</ele>
        <time>2022-10-05T13:38:46Z</time>
      </trkpt>
      <trkpt lat="49.71442" lon="2.35856">
        <ele>71.4</ele>
        <time>2022-10-05T13:38:47Z</time>
      </trkpt>
      <trkpt lat="49.71442" lon="2.35856">
        <ele>71.4</ele>
        <time>2022-10-05T13:38:49Z</time>
      </trkpt>
      <trkpt lat="49.71442" lon="2.35856">
        <ele>71.4</ele>
        <time>2022-10-05T13:38:50Z</time>
      </trkpt>
      <trkpt lat="49.71442" lon="2.35856">
        <ele>71.4</ele>
        <time>2022-10-05T13:38:51Z</time>
      </trkpt>
      <trkpt lat="49.71442" lon="2.35856">
        <ele>71.4</ele>
        <time>2022-10-05T13:38:52Z</time>
      </trkpt>
      <trkpt lat="49.71442" lon="2.35856">
        <ele>71.4</ele>
        <time>2022-10-05T13:38:53Z</time>
      </trkpt>
      <trkpt lat="49.71442" lon="2.35856">
        <ele>71.4</ele>
        <time>2022-10-05T13:38:54Z</time>
      </trkpt>
      <trkpt lat="49.71442" lon="2.35856">
        <ele>71.4</ele>
        <time>2022-10-05T13:38:55Z</time>
      </trkpt>
      <trkpt lat="49.71442" lon="2.35856">
        <ele>71.4</ele>
        <time>2022-10-05T13:38:56Z</time>
      </trkpt>
      <trkpt lat="49.71442" lon="2.35856">
        <ele>71.4</ele>
        <time>2022-10-05T13:38:57Z</time>
      </trkpt>
      <trkpt lat="49.71442" lon="2.35856">
        <ele>71.4</ele>
        <time>2022-10-05T13:38:58Z</time>
      </trkpt>
      <trkpt lat="49.71442" lon="2.35856">
        <ele>71.4</ele>
        <time>2022-10-05T13:38:59Z</time>
      </trkpt>
      <trkpt lat="49.71443" lon="2.35856">
        <ele>71.4</ele>
        <time>2022-10-05T13:39:00Z</time>
      </trkpt>
      <trkpt lat="49.71443" lon="2.35856">
        <ele>71.4</ele>
        <time>2022-10-05T13:39:01Z</time>
      </trkpt>
      <trkpt lat="49.71443" lon="2.35856">
        <ele>71.4</ele>
        <time>2022-10-05T13:39:02Z</time>
      </trkpt>
      <trkpt lat="49.71443" lon="2.35856">
        <ele>71.4</ele>
        <time>2022-10-05T13:39:03Z</time>
      </trkpt>
      <trkpt lat="49.71443" lon="2.35856">
        <ele>71.4</ele>
        <time>2022-10-05T13:39:04Z</time>
      </trkpt>
      <trkpt lat="49.71443" lon="2.35856">
        <ele>71.4</ele>
        <time>2022-10-05T13:39:05Z</time>
      </trkpt>
      <trkpt lat="49.71443" lon="2.35856">
        <ele>71.4</ele>
        <time>2022-10-05T13:39:06Z</time>
      </trkpt>
      <trkpt lat="49.71443" lon="2.35856">
        <ele>71.4</ele>
        <time>2022-10-05T13:39:07Z</time>
      </trkpt>
      <trkpt lat="49.71443" lon="2.35856">
        <ele>71.4</ele>
        <time>2022-10-05T13:39:08Z</time>
      </trkpt>
      <trkpt lat="49.71443" lon="2.35857">
        <ele>71.3</ele>
        <time>2022-10-05T13:39:09Z</time>
      </trkpt>
      <trkpt lat="49.71443" lon="2.35857">
        <ele>71.3</ele>
        <time>2022-10-05T13:39:10Z</time>
      </trkpt>
      <trkpt lat="49.71443" lon="2.35857">
        <ele>71.3</ele>
        <time>2022-10-05T13:39:11Z</time>
      </trkpt>
      <trkpt lat="49.71443" lon="2.35857">
        <ele>71.3</ele>
        <time>2022-10-05T13:39:12Z</time>
      </trkpt>
      <trkpt lat="49.71443" lon="2.35857">
        <ele>71.3</ele>
        <time>2022-10-05T13:39:13Z</time>
      </trkpt>
      <trkpt lat="49.71443" lon="2.35857">
        <ele>71.3</ele>
        <time>2022-10-05T13:39:14Z</time>
      </trkpt>
      <trkpt lat="49.71443" lon="2.35857">
        <ele>71.3</ele>
        <time>2022-10-05T13:39:15Z</time>
      </trkpt>
      <trkpt lat="49.71443" lon="2.35857">
        <ele>71.3</ele>
        <time>2022-10-05T13:39:16Z</time>
      </trkpt>
      <trkpt lat="49.71443" lon="2.35857">
        <ele>71.3</ele>
        <time>2022-10-05T13:39:17Z</time>
      </trkpt>
      <trkpt lat="49.71443" lon="2.35857">
        <ele>71.3</ele>
        <time>2022-10-05T13:39:18Z</time>
      </trkpt>
      <trkpt lat="49.71443" lon="2.35857">
        <ele>71.3</ele>
        <time>2022-10-05T13:39:19Z</time>
      </trkpt>
      <trkpt lat="49.71443" lon="2.35857">
        <ele>71.3</ele>
        <time>2022-10-05T13:39:20Z</time>
      </trkpt>
      <trkpt lat="49.71443" lon="2.35857">
        <ele>71.3</ele>
        <time>2022-10-05T13:39:21Z</time>
      </trkpt>
      <trkpt lat="49.71443" lon="2.35857">
        <ele>71.3</ele>
        <time>2022-10-05T13:39:22Z</time>
      </trkpt>
      <trkpt lat="49.71443" lon="2.35857">
        <ele>71.3</ele>
        <time>2022-10-05T13:39:23Z</time>
      </trkpt>
      <trkpt lat="49.71443" lon="2.35857">
        <ele>71.3</ele>
        <time>2022-10-05T13:39:24Z</time>
      </trkpt>
      <trkpt lat="49.71443" lon="2.35857">
        <ele>71.3</ele>
        <time>2022-10-05T13:39:25Z</time>
      </trkpt>
      <trkpt lat="49.71443" lon="2.35857">
        <ele>71.3</ele>
        <time>2022-10-05T13:39:26Z</time>
      </trkpt>
      <trkpt lat="49.71443" lon="2.35857">
        <ele>71.3</ele>
        <time>2022-10-05T13:39:27Z</time>
      </trkpt>
      <trkpt lat="49.71443" lon="2.35857">
        <ele>71.3</ele>
        <time>2022-10-05T13:39:28Z</time>
      </trkpt>
      <trkpt lat="49.71443" lon="2.35857">
        <ele>71.3</ele>
        <time>2022-10-05T13:39:29Z</time>
      </trkpt>
      <trkpt lat="49.71443" lon="2.35857">
        <ele>71.3</ele>
        <time>2022-10-05T13:39:30Z</time>
      </trkpt>
      <trkpt lat="49.71443" lon="2.35857">
        <ele>71.3</ele>
        <time>2022-10-05T13:39:31Z</time>
      </trkpt>
      <trkpt lat="49.71444" lon="2.35857">
        <ele>71.3</ele>
        <time>2022-10-05T13:39:32Z</time>
      </trkpt>
      <trkpt lat="49.71444" lon="2.35857">
        <ele>71.3</ele>
        <time>2022-10-05T13:39:33Z</time>
      </trkpt>
      <trkpt lat="49.71444" lon="2.35857">
        <ele>71.3</ele>
        <time>2022-10-05T13:39:34Z</time>
      </trkpt>
      <trkpt lat="49.71444" lon="2.35858">
        <ele>71.3</ele>
        <time>2022-10-05T13:39:35Z</time>
      </trkpt>
      <trkpt lat="49.71444" lon="2.35858">
        <ele>71.3</ele>
        <time>2022-10-05T13:39:36Z</time>
      </trkpt>
      <trkpt lat="49.71444" lon="2.35858">
        <ele>71.3</ele>
        <time>2022-10-05T13:39:37Z</time>
      </trkpt>
      <trkpt lat="49.71444" lon="2.35858">
        <ele>71.3</ele>
        <time>2022-10-05T13:39:38Z</time>
      </trkpt>
      <trkpt lat="49.71444" lon="2.35858">
        <ele>71.3</ele>
        <time>2022-10-05T13:39:39Z</time>
      </trkpt>
      <trkpt lat="49.71444" lon="2.35858">
        <ele>71.3</ele>
        <time>2022-10-05T13:39:40Z</time>
      </trkpt>
      <trkpt lat="49.71444" lon="2.35858">
        <ele>71.3</ele>
        <time>2022-10-05T13:39:41Z</time>
      </trkpt>
      <trkpt lat="49.71444" lon="2.35858">
        <ele>71.3</ele>
        <time>2022-10-05T13:39:42Z</time>
      </trkpt>
      <trkpt lat="49.71444" lon="2.35858">
        <ele>71.3</ele>
        <time>2022-10-05T13:39:43Z</time>
      </trkpt>
      <trkpt lat="49.71444" lon="2.35858">
        <ele>71.3</ele>
        <time>2022-10-05T13:39:44Z</time>
      </trkpt>
      <trkpt lat="49.71444" lon="2.35858">
        <ele>71.3</ele>
        <time>2022-10-05T13:39:45Z</time>
      </trkpt>
      <trkpt lat="49.71444" lon="2.35858">
        <ele>71.3</ele>
        <time>2022-10-05T13:39:46Z</time>
      </trkpt>
      <trkpt lat="49.71444" lon="2.35858">
        <ele>71.3</ele>
        <time>2022-10-05T13:39:47Z</time>
      </trkpt>
      <trkpt lat="49.71444" lon="2.35858">
        <ele>71.2</ele>
        <time>2022-10-05T13:39:48Z</time>
      </trkpt>
      <trkpt lat="49.71444" lon="2.35858">
        <ele>71.2</ele>
        <time>2022-10-05T13:39:49Z</time>
      </trkpt>
      <trkpt lat="49.71444" lon="2.35858">
        <ele>71.2</ele>
        <time>2022-10-05T13:39:50Z</time>
      </trkpt>
      <trkpt lat="49.71444" lon="2.35858">
        <ele>71.2</ele>
        <time>2022-10-05T13:39:51Z</time>
      </trkpt>
      <trkpt lat="49.71444" lon="2.35858">
        <ele>71.2</ele>
        <time>2022-10-05T13:39:52Z</time>
      </trkpt>
      <trkpt lat="49.71444" lon="2.35858">
        <ele>71.2</ele>
        <time>2022-10-05T13:39:53Z</time>
      </trkpt>
      <trkpt lat="49.71444" lon="2.35858">
        <ele>71.2</ele>
        <time>2022-10-05T13:39:54Z</time>
      </trkpt>
      <trkpt lat="49.71444" lon="2.35858">
        <ele>71.2</ele>
        <time>2022-10-05T13:39:55Z</time>
      </trkpt>
      <trkpt lat="49.71444" lon="2.35858">
        <ele>71.2</ele>
        <time>2022-10-05T13:39:56Z</time>
      </trkpt>
      <trkpt lat="49.71444" lon="2.35858">
        <ele>71.2</ele>
        <time>2022-10-05T13:39:57Z</time>
      </trkpt>
      <trkpt lat="49.71444" lon="2.35858">
        <ele>71.2</ele>
        <time>2022-10-05T13:39:58Z</time>
      </trkpt>
      <trkpt lat="49.71444" lon="2.35858">
        <ele>71.2</ele>
        <time>2022-10-05T13:39:59Z</time>
      </trkpt>
      <trkpt lat="49.71444" lon="2.35858">
        <ele>71.2</ele>
        <time>2022-10-05T13:40:00Z</time>
      </trkpt>
      <trkpt lat="49.71444" lon="2.35859">
        <ele>71.2</ele>
        <time>2022-10-05T13:40:01Z</time>
      </trkpt>
      <trkpt lat="49.71444" lon="2.35859">
        <ele>71.2</ele>
        <time>2022-10-05T13:40:02Z</time>
      </trkpt>
      <trkpt lat="49.71445" lon="2.35859">
        <ele>71.2</ele>
        <time>2022-10-05T13:40:03Z</time>
      </trkpt>
      <trkpt lat="49.71445" lon="2.35859">
        <ele>71.2</ele>
        <time>2022-10-05T13:40:04Z</time>
      </trkpt>
      <trkpt lat="49.71445" lon="2.35859">
        <ele>71.2</ele>
        <time>2022-10-05T13:40:05Z</time>
      </trkpt>
      <trkpt lat="49.71445" lon="2.35859">
        <ele>71.2</ele>
        <time>2022-10-05T13:40:06Z</time>
      </trkpt>
      <trkpt lat="49.71445" lon="2.35859">
        <ele>71.2</ele>
        <time>2022-10-05T13:40:07Z</time>
      </trkpt>
      <trkpt lat="49.71445" lon="2.35859">
        <ele>71.2</ele>
        <time>2022-10-05T13:40:08Z</time>
      </trkpt>
      <trkpt lat="49.71445" lon="2.35859">
        <ele>71.2</ele>
        <time>2022-10-05T13:40:09Z</time>
      </trkpt>
      <trkpt lat="49.71445" lon="2.35859">
        <ele>71.2</ele>
        <time>2022-10-05T13:40:10Z</time>
      </trkpt>
      <trkpt lat="49.71445" lon="2.35859">
        <ele>71.2</ele>
        <time>2022-10-05T13:40:11Z</time>
      </trkpt>
      <trkpt lat="49.71445" lon="2.35859">
        <ele>71.2</ele>
        <time>2022-10-05T13:40:12Z</time>
      </trkpt>
      <trkpt lat="49.71445" lon="2.35859">
        <ele>71.2</ele>
        <time>2022-10-05T13:40:13Z</time>
      </trkpt>
      <trkpt lat="49.71445" lon="2.35859">
        <ele>71.2</ele>
        <time>2022-10-05T13:40:14Z</time>
      </trkpt>
      <trkpt lat="49.71445" lon="2.35859">
        <ele>71.2</ele>
        <time>2022-10-05T13:40:15Z</time>
      </trkpt>
      <trkpt lat="49.71445" lon="2.35859">
        <ele>71.2</ele>
        <time>2022-10-05T13:40:16Z</time>
      </trkpt>
      <trkpt lat="49.71445" lon="2.35859">
        <ele>71.2</ele>
        <time>2022-10-05T13:40:17Z</time>
      </trkpt>
      <trkpt lat="49.71445" lon="2.35859">
        <ele>71.2</ele>
        <time>2022-10-05T13:40:18Z</time>
      </trkpt>
      <trkpt lat="49.71445" lon="2.35859">
        <ele>71.2</ele>
        <time>2022-10-05T13:40:19Z</time>
      </trkpt>
      <trkpt lat="49.71445" lon="2.35859">
        <ele>71.2</ele>
        <time>2022-10-05T13:40:20Z</time>
      </trkpt>
      <trkpt lat="49.71445" lon="2.35859">
        <ele>71.2</ele>
        <time>2022-10-05T13:40:21Z</time>
      </trkpt>
      <trkpt lat="49.71445" lon="2.35859">
        <ele>71.2</ele>
        <time>2022-10-05T13:40:22Z</time>
      </trkpt>
      <trkpt lat="49.71446" lon="2.35861">
        <ele>71.1</ele>
        <time>2022-10-05T13:40:23Z</time>
      </trkpt>
      <trkpt lat="49.71447" lon="2.35862">
        <ele>71</ele>
        <time>2022-10-05T13:40:24Z</time>
      </trkpt>
      <trkpt lat="49.71447" lon="2.35863">
        <ele>71</ele>
        <time>2022-10-05T13:40:25Z</time>
      </trkpt>
      <trkpt lat="49.71447" lon="2.35863">
        <ele>71</ele>
        <time>2022-10-05T13:40:26Z</time>
      </trkpt>
      <trkpt lat="49.71447" lon="2.35863">
        <ele>71</ele>
        <time>2022-10-05T13:40:27Z</time>
      </trkpt>
      <trkpt lat="49.71447" lon="2.35863">
        <ele>71</ele>
        <time>2022-10-05T13:40:28Z</time>
      </trkpt>
      <trkpt lat="49.71446" lon="2.35863">
        <ele>71</ele>
        <time>2022-10-05T13:40:29Z</time>
      </trkpt>
      <trkpt lat="49.71446" lon="2.35863">
        <ele>71</ele>
        <time>2022-10-05T13:40:30Z</time>
      </trkpt>
      <trkpt lat="49.71447" lon="2.35863">
        <ele>71</ele>
        <time>2022-10-05T13:40:31Z</time>
      </trkpt>
      <trkpt lat="49.71447" lon="2.35863">
        <ele>71</ele>
        <time>2022-10-05T13:40:32Z</time>
      </trkpt>
      <trkpt lat="49.71447" lon="2.35863">
        <ele>71</ele>
        <time>2022-10-05T13:40:33Z</time>
      </trkpt>
      <trkpt lat="49.71447" lon="2.35863">
        <ele>71</ele>
        <time>2022-10-05T13:40:34Z</time>
      </trkpt>
      <trkpt lat="49.71447" lon="2.35863">
        <ele>71</ele>
        <time>2022-10-05T13:40:35Z</time>
      </trkpt>
      <trkpt lat="49.71447" lon="2.35863">
        <ele>71</ele>
        <time>2022-10-05T13:40:36Z</time>
      </trkpt>
      <trkpt lat="49.71447" lon="2.35863">
        <ele>71</ele>
        <time>2022-10-05T13:40:37Z</time>
      </trkpt>
      <trkpt lat="49.71447" lon="2.35863">
        <ele>71</ele>
        <time>2022-10-05T13:40:38Z</time>
      </trkpt>
      <trkpt lat="49.71447" lon="2.35863">
        <ele>71</ele>
        <time>2022-10-05T13:40:39Z</time>
      </trkpt>
      <trkpt lat="49.71447" lon="2.35863">
        <ele>71</ele>
        <time>2022-10-05T13:40:40Z</time>
      </trkpt>
      <trkpt lat="49.71447" lon="2.35863">
        <ele>71</ele>
        <time>2022-10-05T13:40:41Z</time>
      </trkpt>
      <trkpt lat="49.71447" lon="2.35863">
        <ele>71</ele>
        <time>2022-10-05T13:40:42Z</time>
      </trkpt>
      <trkpt lat="49.71447" lon="2.35863">
        <ele>71</ele>
        <time>2022-10-05T13:40:43Z</time>
      </trkpt>
      <trkpt lat="49.71447" lon="2.35863">
        <ele>71</ele>
        <time>2022-10-05T13:40:44Z</time>
      </trkpt>
      <trkpt lat="49.71447" lon="2.35863">
        <ele>71</ele>
        <time>2022-10-05T13:40:45Z</time>
      </trkpt>
      <trkpt lat="49.71447" lon="2.35863">
        <ele>71</ele>
        <time>2022-10-05T13:40:46Z</time>
      </trkpt>
      <trkpt lat="49.71447" lon="2.35863">
        <ele>71</ele>
        <time>2022-10-05T13:40:47Z</time>
      </trkpt>
      <trkpt lat="49.71447" lon="2.35863">
        <ele>71</ele>
        <time>2022-10-05T13:40:48Z</time>
      </trkpt>
      <trkpt lat="49.71447" lon="2.35863">
        <ele>71</ele>
        <time>2022-10-05T13:40:49Z</time>
      </trkpt>
      <trkpt lat="49.71447" lon="2.35863">
        <ele>71</ele>
        <time>2022-10-05T13:40:50Z</time>
      </trkpt>
      <trkpt lat="49.71447" lon="2.35863">
        <ele>71</ele>
        <time>2022-10-05T13:40:51Z</time>
      </trkpt>
      <trkpt lat="49.71447" lon="2.35863">
        <ele>71</ele>
        <time>2022-10-05T13:40:52Z</time>
      </trkpt>
      <trkpt lat="49.71447" lon="2.35863">
        <ele>71</ele>
        <time>2022-10-05T13:40:53Z</time>
      </trkpt>
      <trkpt lat="49.71447" lon="2.35863">
        <ele>71</ele>
        <time>2022-10-05T13:40:54Z</time>
      </trkpt>
      <trkpt lat="49.71447" lon="2.35863">
        <ele>71</ele>
        <time>2022-10-05T13:40:55Z</time>
      </trkpt>
      <trkpt lat="49.71447" lon="2.35863">
        <ele>71</ele>
        <time>2022-10-05T13:40:56Z</time>
      </trkpt>
      <trkpt lat="49.71447" lon="2.35863">
        <ele>71</ele>
        <time>2022-10-05T13:40:57Z</time>
      </trkpt>
      <trkpt lat="49.71447" lon="2.35863">
        <ele>71</ele>
        <time>2022-10-05T13:40:58Z</time>
      </trkpt>
      <trkpt lat="49.71447" lon="2.35863">
        <ele>71</ele>
        <time>2022-10-05T13:40:59Z</time>
      </trkpt>
      <trkpt lat="49.71446" lon="2.35864">
        <ele>70.9</ele>
        <time>2022-10-05T13:41:00Z</time>
      </trkpt>
      <trkpt lat="49.71446" lon="2.35863">
        <ele>70.9</ele>
        <time>2022-10-05T13:41:01Z</time>
      </trkpt>
      <trkpt lat="49.71445" lon="2.35863">
        <ele>70.9</ele>
        <time>2022-10-05T13:41:02Z</time>
      </trkpt>
      <trkpt lat="49.71444" lon="2.35862">
        <ele>70.8</ele>
        <time>2022-10-05T13:41:03Z</time>
      </trkpt>
      <trkpt lat="49.71443" lon="2.35862">
        <ele>70.8</ele>
        <time>2022-10-05T13:41:04Z</time>
      </trkpt>
      <trkpt lat="49.71443" lon="2.35862">
        <ele>70.8</ele>
        <time>2022-10-05T13:41:05Z</time>
      </trkpt>
      <trkpt lat="49.71443" lon="2.35861">
        <ele>70.7</ele>
        <time>2022-10-05T13:41:06Z</time>
      </trkpt>
      <trkpt lat="49.71442" lon="2.35861">
        <ele>70.7</ele>
        <time>2022-10-05T13:41:07Z</time>
      </trkpt>
      <trkpt lat="49.71442" lon="2.3586">
        <ele>70.7</ele>
        <time>2022-10-05T13:41:09Z</time>
      </trkpt>
      <trkpt lat="49.71441" lon="2.35859">
        <ele>70.6</ele>
        <time>2022-10-05T13:41:10Z</time>
      </trkpt>
      <trkpt lat="49.71441" lon="2.35857">
        <ele>70.6</ele>
        <time>2022-10-05T13:41:11Z</time>
      </trkpt>
      <trkpt lat="49.7144" lon="2.35856">
        <ele>70.5</ele>
        <time>2022-10-05T13:41:12Z</time>
      </trkpt>
      <trkpt lat="49.7144" lon="2.35854">
        <ele>70.5</ele>
        <time>2022-10-05T13:41:13Z</time>
      </trkpt>
      <trkpt lat="49.7144" lon="2.35851">
        <ele>70.4</ele>
        <time>2022-10-05T13:41:14Z</time>
      </trkpt>
      <trkpt lat="49.7144" lon="2.35849">
        <ele>70.3</ele>
        <time>2022-10-05T13:41:15Z</time>
      </trkpt>
      <trkpt lat="49.7144" lon="2.35848">
        <ele>70.3</ele>
        <time>2022-10-05T13:41:16Z</time>
      </trkpt>
      <trkpt lat="49.7144" lon="2.35845">
        <ele>70.2</ele>
        <time>2022-10-05T13:41:17Z</time>
      </trkpt>
      <trkpt lat="49.7144" lon="2.35843">
        <ele>70.1</ele>
        <time>2022-10-05T13:41:19Z</time>
      </trkpt>
      <trkpt lat="49.7144" lon="2.3584">
        <ele>70.1</ele>
        <time>2022-10-05T13:41:20Z</time>
      </trkpt>
      <trkpt lat="49.7144" lon="2.35838">
        <ele>70</ele>
        <time>2022-10-05T13:41:21Z</time>
      </trkpt>
      <trkpt lat="49.7144" lon="2.35835">
        <ele>69.9</ele>
        <time>2022-10-05T13:41:22Z</time>
      </trkpt>
      <trkpt lat="49.7144" lon="2.35833">
        <ele>69.9</ele>
        <time>2022-10-05T13:41:23Z</time>
      </trkpt>
      <trkpt lat="49.7144" lon="2.35832">
        <ele>69.8</ele>
        <time>2022-10-05T13:41:24Z</time>
      </trkpt>
      <trkpt lat="49.7144" lon="2.35828">
        <ele>69.7</ele>
        <time>2022-10-05T13:41:26Z</time>
      </trkpt>
      <trkpt lat="49.7144" lon="2.35827">
        <ele>69.7</ele>
        <time>2022-10-05T13:41:27Z</time>
      </trkpt>
      <trkpt lat="49.7144" lon="2.35825">
        <ele>69.6</ele>
        <time>2022-10-05T13:41:28Z</time>
      </trkpt>
      <trkpt lat="49.7144" lon="2.35823">
        <ele>69.6</ele>
        <time>2022-10-05T13:41:29Z</time>
      </trkpt>
      <trkpt lat="49.7144" lon="2.35821">
        <ele>69.5</ele>
        <time>2022-10-05T13:41:30Z</time>
      </trkpt>
      <trkpt lat="49.71441" lon="2.35818">
        <ele>69.4</ele>
        <time>2022-10-05T13:41:31Z</time>
      </trkpt>
      <trkpt lat="49.71441" lon="2.35817">
        <ele>69.4</ele>
        <time>2022-10-05T13:41:32Z</time>
      </trkpt>
      <trkpt lat="49.71441" lon="2.35815">
        <ele>69.3</ele>
        <time>2022-10-05T13:41:33Z</time>
      </trkpt>
      <trkpt lat="49.71441" lon="2.35812">
        <ele>69.3</ele>
        <time>2022-10-05T13:41:34Z</time>
      </trkpt>
      <trkpt lat="49.71441" lon="2.35811">
        <ele>69.2</ele>
        <time>2022-10-05T13:41:35Z</time>
      </trkpt>
      <trkpt lat="49.71441" lon="2.35809">
        <ele>69.2</ele>
        <time>2022-10-05T13:41:37Z</time>
      </trkpt>
      <trkpt lat="49.71441" lon="2.35807">
        <ele>69.1</ele>
        <time>2022-10-05T13:41:38Z</time>
      </trkpt>
      <trkpt lat="49.71442" lon="2.35806">
        <ele>69.1</ele>
        <time>2022-10-05T13:41:39Z</time>
      </trkpt>
      <trkpt lat="49.71442" lon="2.35804">
        <ele>69.1</ele>
        <time>2022-10-05T13:41:40Z</time>
      </trkpt>
      <trkpt lat="49.71442" lon="2.35802">
        <ele>69</ele>
        <time>2022-10-05T13:41:41Z</time>
      </trkpt>
      <trkpt lat="49.71442" lon="2.35801">
        <ele>69</ele>
        <time>2022-10-05T13:41:42Z</time>
      </trkpt>
      <trkpt lat="49.71443" lon="2.35799">
        <ele>68.9</ele>
        <time>2022-10-05T13:41:43Z</time>
      </trkpt>
      <trkpt lat="49.71443" lon="2.35796">
        <ele>68.8</ele>
        <time>2022-10-05T13:41:44Z</time>
      </trkpt>
      <trkpt lat="49.71444" lon="2.35794">
        <ele>68.8</ele>
        <time>2022-10-05T13:41:45Z</time>
      </trkpt>
      <trkpt lat="49.71444" lon="2.35792">
        <ele>68.7</ele>
        <time>2022-10-05T13:41:46Z</time>
      </trkpt>
      <trkpt lat="49.71444" lon="2.35791">
        <ele>68.7</ele>
        <time>2022-10-05T13:41:48Z</time>
      </trkpt>
      <trkpt lat="49.71445" lon="2.35789">
        <ele>68.6</ele>
        <time>2022-10-05T13:41:49Z</time>
      </trkpt>
      <trkpt lat="49.71445" lon="2.35786">
        <ele>68.6</ele>
        <time>2022-10-05T13:41:50Z</time>
      </trkpt>
      <trkpt lat="49.71446" lon="2.35784">
        <ele>68.5</ele>
        <time>2022-10-05T13:41:52Z</time>
      </trkpt>
      <trkpt lat="49.71446" lon="2.35783">
        <ele>68.5</ele>
        <time>2022-10-05T13:41:53Z</time>
      </trkpt>
      <trkpt lat="49.71447" lon="2.35781">
        <ele>68.4</ele>
        <time>2022-10-05T13:41:54Z</time>
      </trkpt>
      <trkpt lat="49.71447" lon="2.35779">
        <ele>68.4</ele>
        <time>2022-10-05T13:41:55Z</time>
      </trkpt>
      <trkpt lat="49.71447" lon="2.35776">
        <ele>68.3</ele>
        <time>2022-10-05T13:41:56Z</time>
      </trkpt>
      <trkpt lat="49.71447" lon="2.35775">
        <ele>68.2</ele>
        <time>2022-10-05T13:41:57Z</time>
      </trkpt>
      <trkpt lat="49.71448" lon="2.35773">
        <ele>68.2</ele>
        <time>2022-10-05T13:41:58Z</time>
      </trkpt>
      <trkpt lat="49.71448" lon="2.35771">
        <ele>68.1</ele>
        <time>2022-10-05T13:42:00Z</time>
      </trkpt>
      <trkpt lat="49.71448" lon="2.35769">
        <ele>68.1</ele>
        <time>2022-10-05T13:42:01Z</time>
      </trkpt>
      <trkpt lat="49.71449" lon="2.35767">
        <ele>68</ele>
        <time>2022-10-05T13:42:02Z</time>
      </trkpt>
      <trkpt lat="49.71449" lon="2.35765">
        <ele>68</ele>
        <time>2022-10-05T13:42:03Z</time>
      </trkpt>
      <trkpt lat="49.71449" lon="2.35764">
        <ele>67.9</ele>
        <time>2022-10-05T13:42:04Z</time>
      </trkpt>
      <trkpt lat="49.7145" lon="2.35759">
        <ele>67.8</ele>
        <time>2022-10-05T13:42:06Z</time>
      </trkpt>
      <trkpt lat="49.7145" lon="2.35758">
        <ele>67.8</ele>
        <time>2022-10-05T13:42:07Z</time>
      </trkpt>
      <trkpt lat="49.7145" lon="2.35753">
        <ele>67.7</ele>
        <time>2022-10-05T13:42:08Z</time>
      </trkpt>
      <trkpt lat="49.7145" lon="2.35752">
        <ele>67.6</ele>
        <time>2022-10-05T13:42:09Z</time>
      </trkpt>
      <trkpt lat="49.7145" lon="2.35749">
        <ele>67.6</ele>
        <time>2022-10-05T13:42:10Z</time>
      </trkpt>
      <trkpt lat="49.7145" lon="2.35746">
        <ele>67.5</ele>
        <time>2022-10-05T13:42:11Z</time>
      </trkpt>
      <trkpt lat="49.71451" lon="2.35744">
        <ele>67.4</ele>
        <time>2022-10-05T13:42:12Z</time>
      </trkpt>
      <trkpt lat="49.71451" lon="2.35741">
        <ele>67.4</ele>
        <time>2022-10-05T13:42:13Z</time>
      </trkpt>
      <trkpt lat="49.71451" lon="2.35739">
        <ele>67.4</ele>
        <time>2022-10-05T13:42:14Z</time>
      </trkpt>
      <trkpt lat="49.71451" lon="2.35739">
        <ele>67.4</ele>
        <time>2022-10-05T13:42:15Z</time>
      </trkpt>
      <trkpt lat="49.71451" lon="2.35738">
        <ele>67.3</ele>
        <time>2022-10-05T13:42:16Z</time>
      </trkpt>
      <trkpt lat="49.71451" lon="2.35736">
        <ele>67.3</ele>
        <time>2022-10-05T13:42:18Z</time>
      </trkpt>
      <trkpt lat="49.71452" lon="2.35733">
        <ele>67.2</ele>
        <time>2022-10-05T13:42:19Z</time>
      </trkpt>
      <trkpt lat="49.71452" lon="2.35731">
        <ele>67.2</ele>
        <time>2022-10-05T13:42:20Z</time>
      </trkpt>
      <trkpt lat="49.71452" lon="2.35729">
        <ele>67.1</ele>
        <time>2022-10-05T13:42:21Z</time>
      </trkpt>
      <trkpt lat="49.71452" lon="2.35728">
        <ele>67.1</ele>
        <time>2022-10-05T13:42:22Z</time>
      </trkpt>
      <trkpt lat="49.71452" lon="2.35726">
        <ele>67.1</ele>
        <time>2022-10-05T13:42:23Z</time>
      </trkpt>
      <trkpt lat="49.71453" lon="2.35724">
        <ele>67.1</ele>
        <time>2022-10-05T13:42:24Z</time>
      </trkpt>
      <trkpt lat="49.71453" lon="2.35722">
        <ele>67.2</ele>
        <time>2022-10-05T13:42:25Z</time>
      </trkpt>
      <trkpt lat="49.71453" lon="2.35719">
        <ele>67.2</ele>
        <time>2022-10-05T13:42:26Z</time>
      </trkpt>
      <trkpt lat="49.71453" lon="2.35717">
        <ele>67.1</ele>
        <time>2022-10-05T13:42:27Z</time>
      </trkpt>
      <trkpt lat="49.71453" lon="2.35715">
        <ele>67.1</ele>
        <time>2022-10-05T13:42:28Z</time>
      </trkpt>
      <trkpt lat="49.71453" lon="2.35712">
        <ele>67</ele>
        <time>2022-10-05T13:42:30Z</time>
      </trkpt>
      <trkpt lat="49.71453" lon="2.35709">
        <ele>66.9</ele>
        <time>2022-10-05T13:42:31Z</time>
      </trkpt>
      <trkpt lat="49.71453" lon="2.35707">
        <ele>66.9</ele>
        <time>2022-10-05T13:42:32Z</time>
      </trkpt>
      <trkpt lat="49.71453" lon="2.35704">
        <ele>66.8</ele>
        <time>2022-10-05T13:42:33Z</time>
      </trkpt>
      <trkpt lat="49.71453" lon="2.35702">
        <ele>66.8</ele>
        <time>2022-10-05T13:42:34Z</time>
      </trkpt>
      <trkpt lat="49.71452" lon="2.357">
        <ele>66.7</ele>
        <time>2022-10-05T13:42:35Z</time>
      </trkpt>
      <trkpt lat="49.71452" lon="2.35699">
        <ele>66.7</ele>
        <time>2022-10-05T13:42:36Z</time>
      </trkpt>
      <trkpt lat="49.71452" lon="2.35699">
        <ele>66.7</ele>
        <time>2022-10-05T13:42:37Z</time>
      </trkpt>
      <trkpt lat="49.71452" lon="2.35698">
        <ele>66.6</ele>
        <time>2022-10-05T13:42:38Z</time>
      </trkpt>
      <trkpt lat="49.71452" lon="2.35697">
        <ele>66.6</ele>
        <time>2022-10-05T13:42:40Z</time>
      </trkpt>
      <trkpt lat="49.71452" lon="2.35696">
        <ele>66.6</ele>
        <time>2022-10-05T13:42:41Z</time>
      </trkpt>
      <trkpt lat="49.71452" lon="2.35695">
        <ele>66.6</ele>
        <time>2022-10-05T13:42:42Z</time>
      </trkpt>
      <trkpt lat="49.71451" lon="2.35693">
        <ele>66.5</ele>
        <time>2022-10-05T13:42:43Z</time>
      </trkpt>
      <trkpt lat="49.71451" lon="2.3569">
        <ele>66.5</ele>
        <time>2022-10-05T13:42:45Z</time>
      </trkpt>
      <trkpt lat="49.7145" lon="2.35685">
        <ele>66.3</ele>
        <time>2022-10-05T13:42:46Z</time>
      </trkpt>
      <trkpt lat="49.71449" lon="2.35683">
        <ele>66.3</ele>
        <time>2022-10-05T13:42:48Z</time>
      </trkpt>
      <trkpt lat="49.71449" lon="2.35681">
        <ele>66.2</ele>
        <time>2022-10-05T13:42:50Z</time>
      </trkpt>
      <trkpt lat="49.71449" lon="2.35678">
        <ele>66.2</ele>
        <time>2022-10-05T13:42:51Z</time>
      </trkpt>
      <trkpt lat="49.71448" lon="2.35677">
        <ele>66.1</ele>
        <time>2022-10-05T13:42:52Z</time>
      </trkpt>
      <trkpt lat="49.71448" lon="2.35675">
        <ele>66.1</ele>
        <time>2022-10-05T13:42:53Z</time>
      </trkpt>
      <trkpt lat="49.71447" lon="2.35673">
        <ele>66</ele>
        <time>2022-10-05T13:42:54Z</time>
      </trkpt>
      <trkpt lat="49.71446" lon="2.3567">
        <ele>65.9</ele>
        <time>2022-10-05T13:42:55Z</time>
      </trkpt>
      <trkpt lat="49.71446" lon="2.35668">
        <ele>65.9</ele>
        <time>2022-10-05T13:42:56Z</time>
      </trkpt>
      <trkpt lat="49.71445" lon="2.35665">
        <ele>65.8</ele>
        <time>2022-10-05T13:42:57Z</time>
      </trkpt>
      <trkpt lat="49.71445" lon="2.35664">
        <ele>65.8</ele>
        <time>2022-10-05T13:42:58Z</time>
      </trkpt>
      <trkpt lat="49.71445" lon="2.35662">
        <ele>65.7</ele>
        <time>2022-10-05T13:42:59Z</time>
      </trkpt>
      <trkpt lat="49.71444" lon="2.35658">
        <ele>65.6</ele>
        <time>2022-10-05T13:43:01Z</time>
      </trkpt>
      <trkpt lat="49.71444" lon="2.35657">
        <ele>65.6</ele>
        <time>2022-10-05T13:43:02Z</time>
      </trkpt>
      <trkpt lat="49.71444" lon="2.35654">
        <ele>65.5</ele>
        <time>2022-10-05T13:43:03Z</time>
      </trkpt>
      <trkpt lat="49.71444" lon="2.35652">
        <ele>65.5</ele>
        <time>2022-10-05T13:43:04Z</time>
      </trkpt>
      <trkpt lat="49.71444" lon="2.35651">
        <ele>65.4</ele>
        <time>2022-10-05T13:43:05Z</time>
      </trkpt>
      <trkpt lat="49.71443" lon="2.35646">
        <ele>65.3</ele>
        <time>2022-10-05T13:43:07Z</time>
      </trkpt>
      <trkpt lat="49.71443" lon="2.35645">
        <ele>65.3</ele>
        <time>2022-10-05T13:43:08Z</time>
      </trkpt>
      <trkpt lat="49.71444" lon="2.35644">
        <ele>65.3</ele>
        <time>2022-10-05T13:43:09Z</time>
      </trkpt>
      <trkpt lat="49.71445" lon="2.35643">
        <ele>65.3</ele>
        <time>2022-10-05T13:43:10Z</time>
      </trkpt>
      <trkpt lat="49.71445" lon="2.3564">
        <ele>65.2</ele>
        <time>2022-10-05T13:43:11Z</time>
      </trkpt>
      <trkpt lat="49.71446" lon="2.35638">
        <ele>65.2</ele>
        <time>2022-10-05T13:43:12Z</time>
      </trkpt>
      <trkpt lat="49.71446" lon="2.35636">
        <ele>65.2</ele>
        <time>2022-10-05T13:43:13Z</time>
      </trkpt>
      <trkpt lat="49.71446" lon="2.35635">
        <ele>65.2</ele>
        <time>2022-10-05T13:43:14Z</time>
      </trkpt>
      <trkpt lat="49.71447" lon="2.35631">
        <ele>65.1</ele>
        <time>2022-10-05T13:43:15Z</time>
      </trkpt>
      <trkpt lat="49.71447" lon="2.35629">
        <ele>65.1</ele>
        <time>2022-10-05T13:43:16Z</time>
      </trkpt>
      <trkpt lat="49.71448" lon="2.35627">
        <ele>65</ele>
        <time>2022-10-05T13:43:17Z</time>
      </trkpt>
      <trkpt lat="49.71448" lon="2.35626">
        <ele>65</ele>
        <time>2022-10-05T13:43:18Z</time>
      </trkpt>
      <trkpt lat="49.71449" lon="2.35624">
        <ele>65</ele>
        <time>2022-10-05T13:43:20Z</time>
      </trkpt>
      <trkpt lat="49.71449" lon="2.35621">
        <ele>65</ele>
        <time>2022-10-05T13:43:21Z</time>
      </trkpt>
      <trkpt lat="49.7145" lon="2.35621">
        <ele>65</ele>
        <time>2022-10-05T13:43:22Z</time>
      </trkpt>
      <trkpt lat="49.7145" lon="2.3562">
        <ele>65</ele>
        <time>2022-10-05T13:43:24Z</time>
      </trkpt>
      <trkpt lat="49.7145" lon="2.35618">
        <ele>64.9</ele>
        <time>2022-10-05T13:43:25Z</time>
      </trkpt>
      <trkpt lat="49.71451" lon="2.35617">
        <ele>64.9</ele>
        <time>2022-10-05T13:43:26Z</time>
      </trkpt>
      <trkpt lat="49.71451" lon="2.35616">
        <ele>64.9</ele>
        <time>2022-10-05T13:43:27Z</time>
      </trkpt>
      <trkpt lat="49.71451" lon="2.35614">
        <ele>64.9</ele>
        <time>2022-10-05T13:43:28Z</time>
      </trkpt>
      <trkpt lat="49.71451" lon="2.35613">
        <ele>64.9</ele>
        <time>2022-10-05T13:43:29Z</time>
      </trkpt>
      <trkpt lat="49.71451" lon="2.35615">
        <ele>64.9</ele>
        <time>2022-10-05T13:43:30Z</time>
      </trkpt>
      <trkpt lat="49.71451" lon="2.35615">
        <ele>64.9</ele>
        <time>2022-10-05T13:43:31Z</time>
      </trkpt>
      <trkpt lat="49.71451" lon="2.35613">
        <ele>64.9</ele>
        <time>2022-10-05T13:43:32Z</time>
      </trkpt>
      <trkpt lat="49.71452" lon="2.35611">
        <ele>64.8</ele>
        <time>2022-10-05T13:43:33Z</time>
      </trkpt>
      <trkpt lat="49.71452" lon="2.3561">
        <ele>64.8</ele>
        <time>2022-10-05T13:43:34Z</time>
      </trkpt>
      <trkpt lat="49.71452" lon="2.35609">
        <ele>64.8</ele>
        <time>2022-10-05T13:43:36Z</time>
      </trkpt>
      <trkpt lat="49.71452" lon="2.35608">
        <ele>64.8</ele>
        <time>2022-10-05T13:43:37Z</time>
      </trkpt>
      <trkpt lat="49.71452" lon="2.35606">
        <ele>64.8</ele>
        <time>2022-10-05T13:43:38Z</time>
      </trkpt>
      <trkpt lat="49.71452" lon="2.35603">
        <ele>64.8</ele>
        <time>2022-10-05T13:43:39Z</time>
      </trkpt>
      <trkpt lat="49.71452" lon="2.35602">
        <ele>64.8</ele>
        <time>2022-10-05T13:43:40Z</time>
      </trkpt>
      <trkpt lat="49.71452" lon="2.356">
        <ele>64.8</ele>
        <time>2022-10-05T13:43:41Z</time>
      </trkpt>
      <trkpt lat="49.71452" lon="2.35598">
        <ele>64.7</ele>
        <time>2022-10-05T13:43:42Z</time>
      </trkpt>
      <trkpt lat="49.71452" lon="2.35597">
        <ele>64.7</ele>
        <time>2022-10-05T13:43:43Z</time>
      </trkpt>
      <trkpt lat="49.71452" lon="2.35594">
        <ele>64.7</ele>
        <time>2022-10-05T13:43:45Z</time>
      </trkpt>
      <trkpt lat="49.71452" lon="2.35592">
        <ele>64.7</ele>
        <time>2022-10-05T13:43:47Z</time>
      </trkpt>
      <trkpt lat="49.71452" lon="2.3559">
        <ele>64.7</ele>
        <time>2022-10-05T13:43:48Z</time>
      </trkpt>
      <trkpt lat="49.71452" lon="2.35587">
        <ele>64.6</ele>
        <time>2022-10-05T13:43:49Z</time>
      </trkpt>
      <trkpt lat="49.71452" lon="2.35586">
        <ele>64.6</ele>
        <time>2022-10-05T13:43:50Z</time>
      </trkpt>
      <trkpt lat="49.71452" lon="2.35585">
        <ele>64.6</ele>
        <time>2022-10-05T13:43:51Z</time>
      </trkpt>
      <trkpt lat="49.71452" lon="2.35584">
        <ele>64.6</ele>
        <time>2022-10-05T13:43:52Z</time>
      </trkpt>
      <trkpt lat="49.71452" lon="2.35583">
        <ele>64.6</ele>
        <time>2022-10-05T13:43:53Z</time>
      </trkpt>
      <trkpt lat="49.71452" lon="2.35581">
        <ele>64.6</ele>
        <time>2022-10-05T13:43:54Z</time>
      </trkpt>
      <trkpt lat="49.71452" lon="2.35578">
        <ele>64.6</ele>
        <time>2022-10-05T13:43:56Z</time>
      </trkpt>
      <trkpt lat="49.71453" lon="2.35576">
        <ele>64.5</ele>
        <time>2022-10-05T13:43:57Z</time>
      </trkpt>
      <trkpt lat="49.71453" lon="2.35576">
        <ele>64.5</ele>
        <time>2022-10-05T13:43:58Z</time>
      </trkpt>
      <trkpt lat="49.71453" lon="2.35575">
        <ele>64.5</ele>
        <time>2022-10-05T13:43:59Z</time>
      </trkpt>
      <trkpt lat="49.71453" lon="2.35573">
        <ele>64.5</ele>
        <time>2022-10-05T13:44:00Z</time>
      </trkpt>
      <trkpt lat="49.71453" lon="2.35569">
        <ele>64.4</ele>
        <time>2022-10-05T13:44:01Z</time>
      </trkpt>
      <trkpt lat="49.71453" lon="2.35567">
        <ele>64.4</ele>
        <time>2022-10-05T13:44:02Z</time>
      </trkpt>
      <trkpt lat="49.71453" lon="2.35565">
        <ele>64.4</ele>
        <time>2022-10-05T13:44:03Z</time>
      </trkpt>
      <trkpt lat="49.71453" lon="2.35564">
        <ele>64.4</ele>
        <time>2022-10-05T13:44:04Z</time>
      </trkpt>
      <trkpt lat="49.71453" lon="2.35562">
        <ele>64.3</ele>
        <time>2022-10-05T13:44:06Z</time>
      </trkpt>
      <trkpt lat="49.71453" lon="2.3556">
        <ele>64.3</ele>
        <time>2022-10-05T13:44:07Z</time>
      </trkpt>
      <trkpt lat="49.71453" lon="2.35558">
        <ele>64.3</ele>
        <time>2022-10-05T13:44:08Z</time>
      </trkpt>
      <trkpt lat="49.71453" lon="2.35555">
        <ele>64.2</ele>
        <time>2022-10-05T13:44:09Z</time>
      </trkpt>
      <trkpt lat="49.71453" lon="2.35552">
        <ele>64.2</ele>
        <time>2022-10-05T13:44:10Z</time>
      </trkpt>
      <trkpt lat="49.71453" lon="2.3555">
        <ele>64.2</ele>
        <time>2022-10-05T13:44:11Z</time>
      </trkpt>
      <trkpt lat="49.71453" lon="2.35549">
        <ele>64.1</ele>
        <time>2022-10-05T13:44:12Z</time>
      </trkpt>
      <trkpt lat="49.71453" lon="2.35547">
        <ele>64.1</ele>
        <time>2022-10-05T13:44:13Z</time>
      </trkpt>
      <trkpt lat="49.71453" lon="2.35544">
        <ele>64.1</ele>
        <time>2022-10-05T13:44:14Z</time>
      </trkpt>
      <trkpt lat="49.71453" lon="2.35541">
        <ele>64</ele>
        <time>2022-10-05T13:44:15Z</time>
      </trkpt>
      <trkpt lat="49.71453" lon="2.35539">
        <ele>64</ele>
        <time>2022-10-05T13:44:16Z</time>
      </trkpt>
      <trkpt lat="49.71453" lon="2.35538">
        <ele>64</ele>
        <time>2022-10-05T13:44:17Z</time>
      </trkpt>
      <trkpt lat="49.71453" lon="2.35533">
        <ele>63.9</ele>
        <time>2022-10-05T13:44:18Z</time>
      </trkpt>
      <trkpt lat="49.71452" lon="2.35532">
        <ele>63.8</ele>
        <time>2022-10-05T13:44:20Z</time>
      </trkpt>
      <trkpt lat="49.71452" lon="2.3553">
        <ele>63.8</ele>
        <time>2022-10-05T13:44:21Z</time>
      </trkpt>
      <trkpt lat="49.71452" lon="2.35529">
        <ele>63.8</ele>
        <time>2022-10-05T13:44:22Z</time>
      </trkpt>
      <trkpt lat="49.71452" lon="2.35527">
        <ele>63.8</ele>
        <time>2022-10-05T13:44:23Z</time>
      </trkpt>
      <trkpt lat="49.71452" lon="2.35525">
        <ele>63.7</ele>
        <time>2022-10-05T13:44:24Z</time>
      </trkpt>
      <trkpt lat="49.71452" lon="2.35522">
        <ele>63.7</ele>
        <time>2022-10-05T13:44:26Z</time>
      </trkpt>
      <trkpt lat="49.71452" lon="2.3552">
        <ele>63.6</ele>
        <time>2022-10-05T13:44:27Z</time>
      </trkpt>
      <trkpt lat="49.71452" lon="2.35518">
        <ele>63.6</ele>
        <time>2022-10-05T13:44:28Z</time>
      </trkpt>
      <trkpt lat="49.71452" lon="2.35515">
        <ele>63.6</ele>
        <time>2022-10-05T13:44:29Z</time>
      </trkpt>
      <trkpt lat="49.71452" lon="2.35513">
        <ele>63.5</ele>
        <time>2022-10-05T13:44:30Z</time>
      </trkpt>
      <trkpt lat="49.71452" lon="2.35512">
        <ele>63.5</ele>
        <time>2022-10-05T13:44:31Z</time>
      </trkpt>
      <trkpt lat="49.71451" lon="2.3551">
        <ele>63.5</ele>
        <time>2022-10-05T13:44:32Z</time>
      </trkpt>
      <trkpt lat="49.71451" lon="2.35508">
        <ele>63.4</ele>
        <time>2022-10-05T13:44:33Z</time>
      </trkpt>
      <trkpt lat="49.71451" lon="2.35506">
        <ele>63.4</ele>
        <time>2022-10-05T13:44:34Z</time>
      </trkpt>
      <trkpt lat="49.71451" lon="2.35504">
        <ele>63.4</ele>
        <time>2022-10-05T13:44:35Z</time>
      </trkpt>
      <trkpt lat="49.71451" lon="2.35502">
        <ele>63.3</ele>
        <time>2022-10-05T13:44:36Z</time>
      </trkpt>
      <trkpt lat="49.71452" lon="2.35498">
        <ele>63.2</ele>
        <time>2022-10-05T13:44:37Z</time>
      </trkpt>
      <trkpt lat="49.71452" lon="2.35496">
        <ele>63.2</ele>
        <time>2022-10-05T13:44:38Z</time>
      </trkpt>
      <trkpt lat="49.71451" lon="2.35494">
        <ele>63.1</ele>
        <time>2022-10-05T13:44:39Z</time>
      </trkpt>
      <trkpt lat="49.71452" lon="2.35492">
        <ele>63.1</ele>
        <time>2022-10-05T13:44:40Z</time>
      </trkpt>
      <trkpt lat="49.71452" lon="2.35489">
        <ele>63</ele>
        <time>2022-10-05T13:44:41Z</time>
      </trkpt>
      <trkpt lat="49.71452" lon="2.35488">
        <ele>63</ele>
        <time>2022-10-05T13:44:43Z</time>
      </trkpt>
      <trkpt lat="49.71452" lon="2.35486">
        <ele>63</ele>
        <time>2022-10-05T13:44:44Z</time>
      </trkpt>
      <trkpt lat="49.71452" lon="2.35484">
        <ele>62.9</ele>
        <time>2022-10-05T13:44:45Z</time>
      </trkpt>
      <trkpt lat="49.71452" lon="2.35482">
        <ele>62.9</ele>
        <time>2022-10-05T13:44:46Z</time>
      </trkpt>
      <trkpt lat="49.71453" lon="2.35479">
        <ele>62.8</ele>
        <time>2022-10-05T13:44:47Z</time>
      </trkpt>
      <trkpt lat="49.71453" lon="2.35477">
        <ele>62.8</ele>
        <time>2022-10-05T13:44:48Z</time>
      </trkpt>
      <trkpt lat="49.71453" lon="2.35474">
        <ele>62.7</ele>
        <time>2022-10-05T13:44:49Z</time>
      </trkpt>
      <trkpt lat="49.71453" lon="2.35472">
        <ele>62.7</ele>
        <time>2022-10-05T13:44:50Z</time>
      </trkpt>
      <trkpt lat="49.71453" lon="2.3547">
        <ele>62.6</ele>
        <time>2022-10-05T13:44:51Z</time>
      </trkpt>
      <trkpt lat="49.71453" lon="2.35467">
        <ele>62.6</ele>
        <time>2022-10-05T13:44:52Z</time>
      </trkpt>
      <trkpt lat="49.71453" lon="2.35465">
        <ele>62.5</ele>
        <time>2022-10-05T13:44:53Z</time>
      </trkpt>
      <trkpt lat="49.71453" lon="2.35463">
        <ele>62.5</ele>
        <time>2022-10-05T13:44:55Z</time>
      </trkpt>
      <trkpt lat="49.71453" lon="2.35461">
        <ele>62.4</ele>
        <time>2022-10-05T13:44:56Z</time>
      </trkpt>
      <trkpt lat="49.71453" lon="2.35459">
        <ele>62.4</ele>
        <time>2022-10-05T13:44:57Z</time>
      </trkpt>
      <trkpt lat="49.71453" lon="2.35458">
        <ele>62.4</ele>
        <time>2022-10-05T13:44:58Z</time>
      </trkpt>
      <trkpt lat="49.71453" lon="2.35457">
        <ele>62.3</ele>
        <time>2022-10-05T13:44:59Z</time>
      </trkpt>
      <trkpt lat="49.71453" lon="2.35455">
        <ele>62.3</ele>
        <time>2022-10-05T13:45:00Z</time>
      </trkpt>
      <trkpt lat="49.71453" lon="2.35453">
        <ele>62.3</ele>
        <time>2022-10-05T13:45:01Z</time>
      </trkpt>
      <trkpt lat="49.71453" lon="2.35452">
        <ele>62.2</ele>
        <time>2022-10-05T13:45:02Z</time>
      </trkpt>
      <trkpt lat="49.71453" lon="2.3545">
        <ele>62.2</ele>
        <time>2022-10-05T13:45:03Z</time>
      </trkpt>
      <trkpt lat="49.71452" lon="2.35448">
        <ele>62.2</ele>
        <time>2022-10-05T13:45:04Z</time>
      </trkpt>
      <trkpt lat="49.71452" lon="2.35446">
        <ele>62.1</ele>
        <time>2022-10-05T13:45:05Z</time>
      </trkpt>
      <trkpt lat="49.71452" lon="2.35444">
        <ele>62.1</ele>
        <time>2022-10-05T13:45:07Z</time>
      </trkpt>
      <trkpt lat="49.71452" lon="2.35441">
        <ele>62.1</ele>
        <time>2022-10-05T13:45:08Z</time>
      </trkpt>
      <trkpt lat="49.71452" lon="2.35439">
        <ele>62.1</ele>
        <time>2022-10-05T13:45:09Z</time>
      </trkpt>
      <trkpt lat="49.71451" lon="2.35437">
        <ele>62</ele>
        <time>2022-10-05T13:45:10Z</time>
      </trkpt>
      <trkpt lat="49.7145" lon="2.35434">
        <ele>62</ele>
        <time>2022-10-05T13:45:11Z</time>
      </trkpt>
      <trkpt lat="49.71449" lon="2.3543">
        <ele>61.9</ele>
        <time>2022-10-05T13:45:13Z</time>
      </trkpt>
      <trkpt lat="49.71449" lon="2.35429">
        <ele>61.9</ele>
        <time>2022-10-05T13:45:14Z</time>
      </trkpt>
      <trkpt lat="49.71448" lon="2.35425">
        <ele>61.8</ele>
        <time>2022-10-05T13:45:15Z</time>
      </trkpt>
      <trkpt lat="49.71448" lon="2.35423">
        <ele>61.8</ele>
        <time>2022-10-05T13:45:16Z</time>
      </trkpt>
      <trkpt lat="49.71447" lon="2.35421">
        <ele>61.7</ele>
        <time>2022-10-05T13:45:17Z</time>
      </trkpt>
      <trkpt lat="49.71447" lon="2.35418">
        <ele>61.7</ele>
        <time>2022-10-05T13:45:18Z</time>
      </trkpt>
      <trkpt lat="49.71447" lon="2.35414">
        <ele>61.6</ele>
        <time>2022-10-05T13:45:19Z</time>
      </trkpt>
      <trkpt lat="49.71448" lon="2.35413">
        <ele>61.6</ele>
        <time>2022-10-05T13:45:20Z</time>
      </trkpt>
      <trkpt lat="49.71448" lon="2.35412">
        <ele>61.6</ele>
        <time>2022-10-05T13:45:21Z</time>
      </trkpt>
      <trkpt lat="49.71448" lon="2.3541">
        <ele>61.5</ele>
        <time>2022-10-05T13:45:23Z</time>
      </trkpt>
      <trkpt lat="49.71449" lon="2.35408">
        <ele>61.5</ele>
        <time>2022-10-05T13:45:24Z</time>
      </trkpt>
      <trkpt lat="49.7145" lon="2.35407">
        <ele>61.5</ele>
        <time>2022-10-05T13:45:26Z</time>
      </trkpt>
      <trkpt lat="49.71451" lon="2.35407">
        <ele>61.5</ele>
        <time>2022-10-05T13:45:27Z</time>
      </trkpt>
      <trkpt lat="49.71452" lon="2.35406">
        <ele>61.5</ele>
        <time>2022-10-05T13:45:28Z</time>
      </trkpt>
      <trkpt lat="49.71452" lon="2.35405">
        <ele>61.4</ele>
        <time>2022-10-05T13:45:29Z</time>
      </trkpt>
      <trkpt lat="49.71453" lon="2.35404">
        <ele>61.4</ele>
        <time>2022-10-05T13:45:30Z</time>
      </trkpt>
      <trkpt lat="49.71454" lon="2.35403">
        <ele>61.4</ele>
        <time>2022-10-05T13:45:31Z</time>
      </trkpt>
      <trkpt lat="49.71454" lon="2.35402">
        <ele>61.4</ele>
        <time>2022-10-05T13:45:32Z</time>
      </trkpt>
      <trkpt lat="49.71455" lon="2.35401">
        <ele>61.4</ele>
        <time>2022-10-05T13:45:34Z</time>
      </trkpt>
      <trkpt lat="49.71455" lon="2.354">
        <ele>61.4</ele>
        <time>2022-10-05T13:45:35Z</time>
      </trkpt>
      <trkpt lat="49.71455" lon="2.35399">
        <ele>61.3</ele>
        <time>2022-10-05T13:45:36Z</time>
      </trkpt>
      <trkpt lat="49.71455" lon="2.35398">
        <ele>61.3</ele>
        <time>2022-10-05T13:45:37Z</time>
      </trkpt>
      <trkpt lat="49.71456" lon="2.35398">
        <ele>61.3</ele>
        <time>2022-10-05T13:45:38Z</time>
      </trkpt>
      <trkpt lat="49.71456" lon="2.35398">
        <ele>61.3</ele>
        <time>2022-10-05T13:45:39Z</time>
      </trkpt>
      <trkpt lat="49.71457" lon="2.35396">
        <ele>61.3</ele>
        <time>2022-10-05T13:45:40Z</time>
      </trkpt>
      <trkpt lat="49.71457" lon="2.35394">
        <ele>61.3</ele>
        <time>2022-10-05T13:45:41Z</time>
      </trkpt>
      <trkpt lat="49.71458" lon="2.35393">
        <ele>61.2</ele>
        <time>2022-10-05T13:45:42Z</time>
      </trkpt>
      <trkpt lat="49.71458" lon="2.35391">
        <ele>61.2</ele>
        <time>2022-10-05T13:45:43Z</time>
      </trkpt>
      <trkpt lat="49.71458" lon="2.3539">
        <ele>61.2</ele>
        <time>2022-10-05T13:45:44Z</time>
      </trkpt>
      <trkpt lat="49.71459" lon="2.35388">
        <ele>61.2</ele>
        <time>2022-10-05T13:45:46Z</time>
      </trkpt>
      <trkpt lat="49.7146" lon="2.35387">
        <ele>61.2</ele>
        <time>2022-10-05T13:45:47Z</time>
      </trkpt>
      <trkpt lat="49.7146" lon="2.35385">
        <ele>61.2</ele>
        <time>2022-10-05T13:45:48Z</time>
      </trkpt>
      <trkpt lat="49.71461" lon="2.35384">
        <ele>61.1</ele>
        <time>2022-10-05T13:45:49Z</time>
      </trkpt>
      <trkpt lat="49.71462" lon="2.35381">
        <ele>61.1</ele>
        <time>2022-10-05T13:45:50Z</time>
      </trkpt>
      <trkpt lat="49.71463" lon="2.3538">
        <ele>61.1</ele>
        <time>2022-10-05T13:45:51Z</time>
      </trkpt>
      <trkpt lat="49.71463" lon="2.35379">
        <ele>61.1</ele>
        <time>2022-10-05T13:45:52Z</time>
      </trkpt>
      <trkpt lat="49.71464" lon="2.35378">
        <ele>61.1</ele>
        <time>2022-10-05T13:45:54Z</time>
      </trkpt>
      <trkpt lat="49.71465" lon="2.35376">
        <ele>61</ele>
        <time>2022-10-05T13:45:55Z</time>
      </trkpt>
      <trkpt lat="49.71466" lon="2.35373">
        <ele>61</ele>
        <time>2022-10-05T13:45:56Z</time>
      </trkpt>
      <trkpt lat="49.71467" lon="2.35372">
        <ele>61</ele>
        <time>2022-10-05T13:45:57Z</time>
      </trkpt>
      <trkpt lat="49.71467" lon="2.35371">
        <ele>61</ele>
        <time>2022-10-05T13:45:58Z</time>
      </trkpt>
      <trkpt lat="49.71468" lon="2.35368">
        <ele>61</ele>
        <time>2022-10-05T13:45:59Z</time>
      </trkpt>
      <trkpt lat="49.71469" lon="2.35367">
        <ele>61</ele>
        <time>2022-10-05T13:46:00Z</time>
      </trkpt>
      <trkpt lat="49.71469" lon="2.35366">
        <ele>60.9</ele>
        <time>2022-10-05T13:46:01Z</time>
      </trkpt>
      <trkpt lat="49.7147" lon="2.35364">
        <ele>60.9</ele>
        <time>2022-10-05T13:46:02Z</time>
      </trkpt>
      <trkpt lat="49.71471" lon="2.35362">
        <ele>60.9</ele>
        <time>2022-10-05T13:46:03Z</time>
      </trkpt>
      <trkpt lat="49.71471" lon="2.35361">
        <ele>60.9</ele>
        <time>2022-10-05T13:46:04Z</time>
      </trkpt>
      <trkpt lat="49.71473" lon="2.35358">
        <ele>60.9</ele>
        <time>2022-10-05T13:46:05Z</time>
      </trkpt>
      <trkpt lat="49.71473" lon="2.35358">
        <ele>60.9</ele>
        <time>2022-10-05T13:46:07Z</time>
      </trkpt>
      <trkpt lat="49.71474" lon="2.35356">
        <ele>60.8</ele>
        <time>2022-10-05T13:46:08Z</time>
      </trkpt>
      <trkpt lat="49.71475" lon="2.35355">
        <ele>60.8</ele>
        <time>2022-10-05T13:46:09Z</time>
      </trkpt>
      <trkpt lat="49.71477" lon="2.35352">
        <ele>60.8</ele>
        <time>2022-10-05T13:46:11Z</time>
      </trkpt>
      <trkpt lat="49.71477" lon="2.35351">
        <ele>60.8</ele>
        <time>2022-10-05T13:46:12Z</time>
      </trkpt>
      <trkpt lat="49.71479" lon="2.35349">
        <ele>60.8</ele>
        <time>2022-10-05T13:46:13Z</time>
      </trkpt>
      <trkpt lat="49.71479" lon="2.35348">
        <ele>60.8</ele>
        <time>2022-10-05T13:46:14Z</time>
      </trkpt>
      <trkpt lat="49.7148" lon="2.35346">
        <ele>60.7</ele>
        <time>2022-10-05T13:46:15Z</time>
      </trkpt>
      <trkpt lat="49.71481" lon="2.35343">
        <ele>60.7</ele>
        <time>2022-10-05T13:46:16Z</time>
      </trkpt>
      <trkpt lat="49.71482" lon="2.35342">
        <ele>60.7</ele>
        <time>2022-10-05T13:46:18Z</time>
      </trkpt>
      <trkpt lat="49.71482" lon="2.3534">
        <ele>60.7</ele>
        <time>2022-10-05T13:46:19Z</time>
      </trkpt>
      <trkpt lat="49.71483" lon="2.35338">
        <ele>60.7</ele>
        <time>2022-10-05T13:46:20Z</time>
      </trkpt>
      <trkpt lat="49.71485" lon="2.35335">
        <ele>60.6</ele>
        <time>2022-10-05T13:46:22Z</time>
      </trkpt>
      <trkpt lat="49.71486" lon="2.35333">
        <ele>60.6</ele>
        <time>2022-10-05T13:46:23Z</time>
      </trkpt>
      <trkpt lat="49.71487" lon="2.35332">
        <ele>60.6</ele>
        <time>2022-10-05T13:46:24Z</time>
      </trkpt>
      <trkpt lat="49.71487" lon="2.35331">
        <ele>60.6</ele>
        <time>2022-10-05T13:46:25Z</time>
      </trkpt>
      <trkpt lat="49.71488" lon="2.35329">
        <ele>60.6</ele>
        <time>2022-10-05T13:46:26Z</time>
      </trkpt>
      <trkpt lat="49.71489" lon="2.35327">
        <ele>60.6</ele>
        <time>2022-10-05T13:46:27Z</time>
      </trkpt>
      <trkpt lat="49.7149" lon="2.35326">
        <ele>60.6</ele>
        <time>2022-10-05T13:46:28Z</time>
      </trkpt>
      <trkpt lat="49.71491" lon="2.35324">
        <ele>60.6</ele>
        <time>2022-10-05T13:46:29Z</time>
      </trkpt>
      <trkpt lat="49.71492" lon="2.35321">
        <ele>60.5</ele>
        <time>2022-10-05T13:46:31Z</time>
      </trkpt>
      <trkpt lat="49.71493" lon="2.35319">
        <ele>60.5</ele>
        <time>2022-10-05T13:46:32Z</time>
      </trkpt>
      <trkpt lat="49.71495" lon="2.35318">
        <ele>60.5</ele>
        <time>2022-10-05T13:46:33Z</time>
      </trkpt>
      <trkpt lat="49.71495" lon="2.35316">
        <ele>60.5</ele>
        <time>2022-10-05T13:46:35Z</time>
      </trkpt>
      <trkpt lat="49.71497" lon="2.35314">
        <ele>60.5</ele>
        <time>2022-10-05T13:46:36Z</time>
      </trkpt>
      <trkpt lat="49.71498" lon="2.35313">
        <ele>60.5</ele>
        <time>2022-10-05T13:46:37Z</time>
      </trkpt>
      <trkpt lat="49.71499" lon="2.35312">
        <ele>60.5</ele>
        <time>2022-10-05T13:46:38Z</time>
      </trkpt>
      <trkpt lat="49.715" lon="2.35311">
        <ele>60.4</ele>
        <time>2022-10-05T13:46:39Z</time>
      </trkpt>
      <trkpt lat="49.71501" lon="2.3531">
        <ele>60.4</ele>
        <time>2022-10-05T13:46:40Z</time>
      </trkpt>
      <trkpt lat="49.71501" lon="2.3531">
        <ele>60.4</ele>
        <time>2022-10-05T13:46:41Z</time>
      </trkpt>
      <trkpt lat="49.71502" lon="2.35309">
        <ele>60.4</ele>
        <time>2022-10-05T13:46:43Z</time>
      </trkpt>
      <trkpt lat="49.71503" lon="2.35308">
        <ele>60.4</ele>
        <time>2022-10-05T13:46:44Z</time>
      </trkpt>
      <trkpt lat="49.71504" lon="2.35306">
        <ele>60.4</ele>
        <time>2022-10-05T13:46:45Z</time>
      </trkpt>
      <trkpt lat="49.71506" lon="2.35304">
        <ele>60.4</ele>
        <time>2022-10-05T13:46:46Z</time>
      </trkpt>
      <trkpt lat="49.71507" lon="2.35304">
        <ele>60.4</ele>
        <time>2022-10-05T13:46:47Z</time>
      </trkpt>
      <trkpt lat="49.71508" lon="2.35303">
        <ele>60.4</ele>
        <time>2022-10-05T13:46:48Z</time>
      </trkpt>
      <trkpt lat="49.71509" lon="2.35302">
        <ele>60.4</ele>
        <time>2022-10-05T13:46:49Z</time>
      </trkpt>
      <trkpt lat="49.7151" lon="2.35302">
        <ele>60.4</ele>
        <time>2022-10-05T13:46:50Z</time>
      </trkpt>
      <trkpt lat="49.71512" lon="2.35301">
        <ele>60.4</ele>
        <time>2022-10-05T13:46:51Z</time>
      </trkpt>
      <trkpt lat="49.71513" lon="2.353">
        <ele>60.4</ele>
        <time>2022-10-05T13:46:52Z</time>
      </trkpt>
      <trkpt lat="49.71514" lon="2.35299">
        <ele>60.4</ele>
        <time>2022-10-05T13:46:53Z</time>
      </trkpt>
      <trkpt lat="49.71515" lon="2.35297">
        <ele>60.4</ele>
        <time>2022-10-05T13:46:55Z</time>
      </trkpt>
      <trkpt lat="49.71516" lon="2.35296">
        <ele>60.4</ele>
        <time>2022-10-05T13:46:56Z</time>
      </trkpt>
      <trkpt lat="49.71517" lon="2.35296">
        <ele>60.4</ele>
        <time>2022-10-05T13:46:57Z</time>
      </trkpt>
      <trkpt lat="49.71518" lon="2.35295">
        <ele>60.4</ele>
        <time>2022-10-05T13:46:58Z</time>
      </trkpt>
      <trkpt lat="49.71519" lon="2.35294">
        <ele>60.4</ele>
        <time>2022-10-05T13:46:59Z</time>
      </trkpt>
      <trkpt lat="49.7152" lon="2.35293">
        <ele>60.4</ele>
        <time>2022-10-05T13:47:00Z</time>
      </trkpt>
      <trkpt lat="49.71521" lon="2.35292">
        <ele>60.4</ele>
        <time>2022-10-05T13:47:02Z</time>
      </trkpt>
      <trkpt lat="49.71522" lon="2.35292">
        <ele>60.4</ele>
        <time>2022-10-05T13:47:03Z</time>
      </trkpt>
      <trkpt lat="49.71523" lon="2.35291">
        <ele>60.4</ele>
        <time>2022-10-05T13:47:04Z</time>
      </trkpt>
      <trkpt lat="49.71524" lon="2.3529">
        <ele>60.4</ele>
        <time>2022-10-05T13:47:05Z</time>
      </trkpt>
      <trkpt lat="49.71525" lon="2.3529">
        <ele>60.4</ele>
        <time>2022-10-05T13:47:06Z</time>
      </trkpt>
      <trkpt lat="49.71527" lon="2.35289">
        <ele>60.4</ele>
        <time>2022-10-05T13:47:07Z</time>
      </trkpt>
      <trkpt lat="49.71529" lon="2.35288">
        <ele>60.4</ele>
        <time>2022-10-05T13:47:09Z</time>
      </trkpt>
      <trkpt lat="49.71529" lon="2.35288">
        <ele>60.4</ele>
        <time>2022-10-05T13:47:10Z</time>
      </trkpt>
      <trkpt lat="49.7153" lon="2.35287">
        <ele>60.4</ele>
        <time>2022-10-05T13:47:11Z</time>
      </trkpt>
      <trkpt lat="49.71531" lon="2.35286">
        <ele>60.5</ele>
        <time>2022-10-05T13:47:12Z</time>
      </trkpt>
      <trkpt lat="49.71532" lon="2.35285">
        <ele>60.5</ele>
        <time>2022-10-05T13:47:13Z</time>
      </trkpt>
      <trkpt lat="49.71533" lon="2.35285">
        <ele>60.5</ele>
        <time>2022-10-05T13:47:14Z</time>
      </trkpt>
      <trkpt lat="49.71533" lon="2.35284">
        <ele>60.5</ele>
        <time>2022-10-05T13:47:15Z</time>
      </trkpt>
      <trkpt lat="49.71536" lon="2.35283">
        <ele>60.5</ele>
        <time>2022-10-05T13:47:17Z</time>
      </trkpt>
      <trkpt lat="49.71536" lon="2.35283">
        <ele>60.5</ele>
        <time>2022-10-05T13:47:18Z</time>
      </trkpt>
      <trkpt lat="49.71537" lon="2.35283">
        <ele>60.5</ele>
        <time>2022-10-05T13:47:19Z</time>
      </trkpt>
      <trkpt lat="49.71538" lon="2.35283">
        <ele>60.5</ele>
        <time>2022-10-05T13:47:20Z</time>
      </trkpt>
      <trkpt lat="49.71539" lon="2.35283">
        <ele>60.5</ele>
        <time>2022-10-05T13:47:21Z</time>
      </trkpt>
      <trkpt lat="49.71541" lon="2.35282">
        <ele>60.5</ele>
        <time>2022-10-05T13:47:22Z</time>
      </trkpt>
      <trkpt lat="49.71542" lon="2.35282">
        <ele>60.5</ele>
        <time>2022-10-05T13:47:23Z</time>
      </trkpt>
      <trkpt lat="49.71543" lon="2.35282">
        <ele>60.5</ele>
        <time>2022-10-05T13:47:24Z</time>
      </trkpt>
      <trkpt lat="49.71544" lon="2.35281">
        <ele>60.5</ele>
        <time>2022-10-05T13:47:25Z</time>
      </trkpt>
      <trkpt lat="49.71545" lon="2.35281">
        <ele>60.5</ele>
        <time>2022-10-05T13:47:27Z</time>
      </trkpt>
      <trkpt lat="49.71546" lon="2.35281">
        <ele>60.5</ele>
        <time>2022-10-05T13:47:28Z</time>
      </trkpt>
      <trkpt lat="49.71547" lon="2.35281">
        <ele>60.5</ele>
        <time>2022-10-05T13:47:29Z</time>
      </trkpt>
      <trkpt lat="49.71549" lon="2.35279">
        <ele>60.5</ele>
        <time>2022-10-05T13:47:30Z</time>
      </trkpt>
      <trkpt lat="49.7155" lon="2.35279">
        <ele>60.5</ele>
        <time>2022-10-05T13:47:31Z</time>
      </trkpt>
      <trkpt lat="49.71551" lon="2.35278">
        <ele>60.5</ele>
        <time>2022-10-05T13:47:32Z</time>
      </trkpt>
      <trkpt lat="49.71552" lon="2.35278">
        <ele>60.5</ele>
        <time>2022-10-05T13:47:33Z</time>
      </trkpt>
      <trkpt lat="49.71553" lon="2.35277">
        <ele>60.5</ele>
        <time>2022-10-05T13:47:34Z</time>
      </trkpt>
      <trkpt lat="49.71554" lon="2.35277">
        <ele>60.5</ele>
        <time>2022-10-05T13:47:35Z</time>
      </trkpt>
      <trkpt lat="49.71556" lon="2.35276">
        <ele>60.5</ele>
        <time>2022-10-05T13:47:37Z</time>
      </trkpt>
      <trkpt lat="49.71557" lon="2.35276">
        <ele>60.5</ele>
        <time>2022-10-05T13:47:38Z</time>
      </trkpt>
      <trkpt lat="49.71558" lon="2.35276">
        <ele>60.5</ele>
        <time>2022-10-05T13:47:39Z</time>
      </trkpt>
      <trkpt lat="49.71559" lon="2.35275">
        <ele>60.5</ele>
        <time>2022-10-05T13:47:40Z</time>
      </trkpt>
      <trkpt lat="49.71561" lon="2.35275">
        <ele>60.5</ele>
        <time>2022-10-05T13:47:41Z</time>
      </trkpt>
      <trkpt lat="49.71562" lon="2.35274">
        <ele>60.5</ele>
        <time>2022-10-05T13:47:42Z</time>
      </trkpt>
      <trkpt lat="49.71562" lon="2.35275">
        <ele>60.5</ele>
        <time>2022-10-05T13:47:43Z</time>
      </trkpt>
      <trkpt lat="49.71563" lon="2.35275">
        <ele>60.5</ele>
        <time>2022-10-05T13:47:44Z</time>
      </trkpt>
      <trkpt lat="49.71565" lon="2.35275">
        <ele>60.6</ele>
        <time>2022-10-05T13:47:45Z</time>
      </trkpt>
      <trkpt lat="49.71567" lon="2.35275">
        <ele>60.6</ele>
        <time>2022-10-05T13:47:47Z</time>
      </trkpt>
      <trkpt lat="49.71567" lon="2.35275">
        <ele>60.6</ele>
        <time>2022-10-05T13:47:48Z</time>
      </trkpt>
      <trkpt lat="49.71568" lon="2.35276">
        <ele>60.6</ele>
        <time>2022-10-05T13:47:49Z</time>
      </trkpt>
      <trkpt lat="49.71569" lon="2.35276">
        <ele>60.6</ele>
        <time>2022-10-05T13:47:50Z</time>
      </trkpt>
      <trkpt lat="49.71571" lon="2.35277">
        <ele>60.6</ele>
        <time>2022-10-05T13:47:51Z</time>
      </trkpt>
      <trkpt lat="49.71572" lon="2.35277">
        <ele>60.6</ele>
        <time>2022-10-05T13:47:52Z</time>
      </trkpt>
      <trkpt lat="49.71573" lon="2.35278">
        <ele>60.6</ele>
        <time>2022-10-05T13:47:53Z</time>
      </trkpt>
      <trkpt lat="49.71574" lon="2.35278">
        <ele>60.6</ele>
        <time>2022-10-05T13:47:54Z</time>
      </trkpt>
      <trkpt lat="49.71575" lon="2.35278">
        <ele>60.6</ele>
        <time>2022-10-05T13:47:55Z</time>
      </trkpt>
      <trkpt lat="49.71577" lon="2.35279">
        <ele>60.6</ele>
        <time>2022-10-05T13:47:56Z</time>
      </trkpt>
      <trkpt lat="49.71578" lon="2.35279">
        <ele>60.6</ele>
        <time>2022-10-05T13:47:57Z</time>
      </trkpt>
      <trkpt lat="49.71579" lon="2.35279">
        <ele>60.6</ele>
        <time>2022-10-05T13:47:58Z</time>
      </trkpt>
      <trkpt lat="49.7158" lon="2.35279">
        <ele>60.6</ele>
        <time>2022-10-05T13:47:59Z</time>
      </trkpt>
      <trkpt lat="49.71581" lon="2.35279">
        <ele>60.6</ele>
        <time>2022-10-05T13:48:00Z</time>
      </trkpt>
      <trkpt lat="49.71583" lon="2.35279">
        <ele>60.7</ele>
        <time>2022-10-05T13:48:02Z</time>
      </trkpt>
      <trkpt lat="49.71584" lon="2.35279">
        <ele>60.7</ele>
        <time>2022-10-05T13:48:03Z</time>
      </trkpt>
      <trkpt lat="49.71585" lon="2.35279">
        <ele>60.7</ele>
        <time>2022-10-05T13:48:04Z</time>
      </trkpt>
      <trkpt lat="49.71586" lon="2.3528">
        <ele>60.7</ele>
        <time>2022-10-05T13:48:05Z</time>
      </trkpt>
      <trkpt lat="49.71588" lon="2.3528">
        <ele>60.7</ele>
        <time>2022-10-05T13:48:06Z</time>
      </trkpt>
      <trkpt lat="49.71589" lon="2.3528">
        <ele>60.7</ele>
        <time>2022-10-05T13:48:08Z</time>
      </trkpt>
      <trkpt lat="49.7159" lon="2.3528">
        <ele>60.7</ele>
        <time>2022-10-05T13:48:09Z</time>
      </trkpt>
      <trkpt lat="49.71592" lon="2.35281">
        <ele>60.7</ele>
        <time>2022-10-05T13:48:10Z</time>
      </trkpt>
      <trkpt lat="49.71593" lon="2.35281">
        <ele>60.7</ele>
        <time>2022-10-05T13:48:11Z</time>
      </trkpt>
      <trkpt lat="49.71594" lon="2.35281">
        <ele>60.7</ele>
        <time>2022-10-05T13:48:12Z</time>
      </trkpt>
      <trkpt lat="49.71595" lon="2.35281">
        <ele>60.8</ele>
        <time>2022-10-05T13:48:13Z</time>
      </trkpt>
      <trkpt lat="49.71596" lon="2.35281">
        <ele>60.8</ele>
        <time>2022-10-05T13:48:14Z</time>
      </trkpt>
      <trkpt lat="49.71597" lon="2.35281">
        <ele>60.8</ele>
        <time>2022-10-05T13:48:16Z</time>
      </trkpt>
      <trkpt lat="49.71598" lon="2.3528">
        <ele>60.8</ele>
        <time>2022-10-05T13:48:17Z</time>
      </trkpt>
      <trkpt lat="49.71599" lon="2.3528">
        <ele>60.8</ele>
        <time>2022-10-05T13:48:18Z</time>
      </trkpt>
      <trkpt lat="49.716" lon="2.3528">
        <ele>60.8</ele>
        <time>2022-10-05T13:48:19Z</time>
      </trkpt>
      <trkpt lat="49.71601" lon="2.3528">
        <ele>60.8</ele>
        <time>2022-10-05T13:48:20Z</time>
      </trkpt>
      <trkpt lat="49.71604" lon="2.3528">
        <ele>60.8</ele>
        <time>2022-10-05T13:48:22Z</time>
      </trkpt>
      <trkpt lat="49.71605" lon="2.3528">
        <ele>60.8</ele>
        <time>2022-10-05T13:48:23Z</time>
      </trkpt>
      <trkpt lat="49.71606" lon="2.3528">
        <ele>60.8</ele>
        <time>2022-10-05T13:48:24Z</time>
      </trkpt>
      <trkpt lat="49.71607" lon="2.3528">
        <ele>60.8</ele>
        <time>2022-10-05T13:48:25Z</time>
      </trkpt>
      <trkpt lat="49.71608" lon="2.3528">
        <ele>60.8</ele>
        <time>2022-10-05T13:48:26Z</time>
      </trkpt>
      <trkpt lat="49.7161" lon="2.3528">
        <ele>60.8</ele>
        <time>2022-10-05T13:48:27Z</time>
      </trkpt>
      <trkpt lat="49.7161" lon="2.3528">
        <ele>60.8</ele>
        <time>2022-10-05T13:48:28Z</time>
      </trkpt>
      <trkpt lat="49.71613" lon="2.3528">
        <ele>60.9</ele>
        <time>2022-10-05T13:48:30Z</time>
      </trkpt>
      <trkpt lat="49.71614" lon="2.3528">
        <ele>60.9</ele>
        <time>2022-10-05T13:48:31Z</time>
      </trkpt>
      <trkpt lat="49.71615" lon="2.3528">
        <ele>60.9</ele>
        <time>2022-10-05T13:48:32Z</time>
      </trkpt>
      <trkpt lat="49.71615" lon="2.3528">
        <ele>60.9</ele>
        <time>2022-10-05T13:48:33Z</time>
      </trkpt>
      <trkpt lat="49.71617" lon="2.35279">
        <ele>60.9</ele>
        <time>2022-10-05T13:48:34Z</time>
      </trkpt>
      <trkpt lat="49.71618" lon="2.35279">
        <ele>60.9</ele>
        <time>2022-10-05T13:48:35Z</time>
      </trkpt>
      <trkpt lat="49.7162" lon="2.3528">
        <ele>60.9</ele>
        <time>2022-10-05T13:48:36Z</time>
      </trkpt>
      <trkpt lat="49.71621" lon="2.3528">
        <ele>60.8</ele>
        <time>2022-10-05T13:48:37Z</time>
      </trkpt>
      <trkpt lat="49.71624" lon="2.3528">
        <ele>60.8</ele>
        <time>2022-10-05T13:48:38Z</time>
      </trkpt>
      <trkpt lat="49.71625" lon="2.3528">
        <ele>60.8</ele>
        <time>2022-10-05T13:48:39Z</time>
      </trkpt>
      <trkpt lat="49.71626" lon="2.3528">
        <ele>60.8</ele>
        <time>2022-10-05T13:48:41Z</time>
      </trkpt>
      <trkpt lat="49.71628" lon="2.35281">
        <ele>60.8</ele>
        <time>2022-10-05T13:48:42Z</time>
      </trkpt>
      <trkpt lat="49.71629" lon="2.35282">
        <ele>60.8</ele>
        <time>2022-10-05T13:48:43Z</time>
      </trkpt>
      <trkpt lat="49.71629" lon="2.35283">
        <ele>60.8</ele>
        <time>2022-10-05T13:48:44Z</time>
      </trkpt>
      <trkpt lat="49.7163" lon="2.35284">
        <ele>60.8</ele>
        <time>2022-10-05T13:48:45Z</time>
      </trkpt>
      <trkpt lat="49.7163" lon="2.35284">
        <ele>60.8</ele>
        <time>2022-10-05T13:48:46Z</time>
      </trkpt>
      <trkpt lat="49.71632" lon="2.35285">
        <ele>60.7</ele>
        <time>2022-10-05T13:48:47Z</time>
      </trkpt>
      <trkpt lat="49.71633" lon="2.35285">
        <ele>60.7</ele>
        <time>2022-10-05T13:48:48Z</time>
      </trkpt>
      <trkpt lat="49.71634" lon="2.35286">
        <ele>60.7</ele>
        <time>2022-10-05T13:48:49Z</time>
      </trkpt>
      <trkpt lat="49.71635" lon="2.35287">
        <ele>60.7</ele>
        <time>2022-10-05T13:48:51Z</time>
      </trkpt>
      <trkpt lat="49.71637" lon="2.35288">
        <ele>60.7</ele>
        <time>2022-10-05T13:48:52Z</time>
      </trkpt>
      <trkpt lat="49.71637" lon="2.3529">
        <ele>60.6</ele>
        <time>2022-10-05T13:48:53Z</time>
      </trkpt>
      <trkpt lat="49.71638" lon="2.35292">
        <ele>60.6</ele>
        <time>2022-10-05T13:48:54Z</time>
      </trkpt>
      <trkpt lat="49.71638" lon="2.35295">
        <ele>60.6</ele>
        <time>2022-10-05T13:48:56Z</time>
      </trkpt>
      <trkpt lat="49.71638" lon="2.35297">
        <ele>60.6</ele>
        <time>2022-10-05T13:48:57Z</time>
      </trkpt>
      <trkpt lat="49.71638" lon="2.35299">
        <ele>60.6</ele>
        <time>2022-10-05T13:48:58Z</time>
      </trkpt>
      <trkpt lat="49.71638" lon="2.35301">
        <ele>60.5</ele>
        <time>2022-10-05T13:48:59Z</time>
      </trkpt>
      <trkpt lat="49.71637" lon="2.35304">
        <ele>60.5</ele>
        <time>2022-10-05T13:49:01Z</time>
      </trkpt>
      <trkpt lat="49.71636" lon="2.35304">
        <ele>60.5</ele>
        <time>2022-10-05T13:49:02Z</time>
      </trkpt>
      <trkpt lat="49.71635" lon="2.35305">
        <ele>60.5</ele>
        <time>2022-10-05T13:49:03Z</time>
      </trkpt>
      <trkpt lat="49.71633" lon="2.35306">
        <ele>60.4</ele>
        <time>2022-10-05T13:49:04Z</time>
      </trkpt>
      <trkpt lat="49.71633" lon="2.35307">
        <ele>60.4</ele>
        <time>2022-10-05T13:49:05Z</time>
      </trkpt>
      <trkpt lat="49.71633" lon="2.35308">
        <ele>60.4</ele>
        <time>2022-10-05T13:49:06Z</time>
      </trkpt>
      <trkpt lat="49.71634" lon="2.3531">
        <ele>60.4</ele>
        <time>2022-10-05T13:49:08Z</time>
      </trkpt>
      <trkpt lat="49.71633" lon="2.35312">
        <ele>60.4</ele>
        <time>2022-10-05T13:49:09Z</time>
      </trkpt>
      <trkpt lat="49.71633" lon="2.35313">
        <ele>60.4</ele>
        <time>2022-10-05T13:49:10Z</time>
      </trkpt>
      <trkpt lat="49.71632" lon="2.35314">
        <ele>60.4</ele>
        <time>2022-10-05T13:49:11Z</time>
      </trkpt>
      <trkpt lat="49.71631" lon="2.35315">
        <ele>60.4</ele>
        <time>2022-10-05T13:49:12Z</time>
      </trkpt>
      <trkpt lat="49.7163" lon="2.35314">
        <ele>60.4</ele>
        <time>2022-10-05T13:49:13Z</time>
      </trkpt>
      <trkpt lat="49.7163" lon="2.35312">
        <ele>60.3</ele>
        <time>2022-10-05T13:49:15Z</time>
      </trkpt>
      <trkpt lat="49.71629" lon="2.35311">
        <ele>60.3</ele>
        <time>2022-10-05T13:49:16Z</time>
      </trkpt>
      <trkpt lat="49.7163" lon="2.35309">
        <ele>60.3</ele>
        <time>2022-10-05T13:49:17Z</time>
      </trkpt>
      <trkpt lat="49.7163" lon="2.35308">
        <ele>60.3</ele>
        <time>2022-10-05T13:49:18Z</time>
      </trkpt>
      <trkpt lat="49.7163" lon="2.35307">
        <ele>60.3</ele>
        <time>2022-10-05T13:49:20Z</time>
      </trkpt>
      <trkpt lat="49.71631" lon="2.35307">
        <ele>60.3</ele>
        <time>2022-10-05T13:49:21Z</time>
      </trkpt>
      <trkpt lat="49.71632" lon="2.35307">
        <ele>60.3</ele>
        <time>2022-10-05T13:49:23Z</time>
      </trkpt>
      <trkpt lat="49.71633" lon="2.35306">
        <ele>60.3</ele>
        <time>2022-10-05T13:49:24Z</time>
      </trkpt>
      <trkpt lat="49.71634" lon="2.35305">
        <ele>60.3</ele>
        <time>2022-10-05T13:49:25Z</time>
      </trkpt>
      <trkpt lat="49.71634" lon="2.35305">
        <ele>60.3</ele>
        <time>2022-10-05T13:49:26Z</time>
      </trkpt>
      <trkpt lat="49.71635" lon="2.35304">
        <ele>60.3</ele>
        <time>2022-10-05T13:49:27Z</time>
      </trkpt>
      <trkpt lat="49.71636" lon="2.35303">
        <ele>60.3</ele>
        <time>2022-10-05T13:49:28Z</time>
      </trkpt>
      <trkpt lat="49.71637" lon="2.35302">
        <ele>60.3</ele>
        <time>2022-10-05T13:49:29Z</time>
      </trkpt>
      <trkpt lat="49.71637" lon="2.35301">
        <ele>60.3</ele>
        <time>2022-10-05T13:49:30Z</time>
      </trkpt>
      <trkpt lat="49.71637" lon="2.353">
        <ele>60.3</ele>
        <time>2022-10-05T13:49:31Z</time>
      </trkpt>
      <trkpt lat="49.71637" lon="2.353">
        <ele>60.3</ele>
        <time>2022-10-05T13:49:32Z</time>
      </trkpt>
      <trkpt lat="49.71637" lon="2.353">
        <ele>60.3</ele>
        <time>2022-10-05T13:49:33Z</time>
      </trkpt>
      <trkpt lat="49.71637" lon="2.353">
        <ele>60.3</ele>
        <time>2022-10-05T13:49:34Z</time>
      </trkpt>
      <trkpt lat="49.71637" lon="2.353">
        <ele>60.3</ele>
        <time>2022-10-05T13:49:35Z</time>
      </trkpt>
      <trkpt lat="49.71637" lon="2.353">
        <ele>60.3</ele>
        <time>2022-10-05T13:49:36Z</time>
      </trkpt>
      <trkpt lat="49.71637" lon="2.353">
        <ele>60.3</ele>
        <time>2022-10-05T13:49:37Z</time>
      </trkpt>
      <trkpt lat="49.71637" lon="2.353">
        <ele>60.3</ele>
        <time>2022-10-05T13:49:38Z</time>
      </trkpt>
      <trkpt lat="49.71637" lon="2.353">
        <ele>60.3</ele>
        <time>2022-10-05T13:49:39Z</time>
      </trkpt>
      <trkpt lat="49.71637" lon="2.353">
        <ele>60.3</ele>
        <time>2022-10-05T13:49:40Z</time>
      </trkpt>
      <trkpt lat="49.71637" lon="2.353">
        <ele>60.3</ele>
        <time>2022-10-05T13:49:41Z</time>
      </trkpt>
      <trkpt lat="49.71637" lon="2.353">
        <ele>60.3</ele>
        <time>2022-10-05T13:49:42Z</time>
      </trkpt>
      <trkpt lat="49.71637" lon="2.353">
        <ele>60.3</ele>
        <time>2022-10-05T13:49:43Z</time>
      </trkpt>
      <trkpt lat="49.71637" lon="2.353">
        <ele>60.3</ele>
        <time>2022-10-05T13:49:44Z</time>
      </trkpt>
      <trkpt lat="49.71637" lon="2.353">
        <ele>60.3</ele>
        <time>2022-10-05T13:49:45Z</time>
      </trkpt>
      <trkpt lat="49.71637" lon="2.353">
        <ele>60.3</ele>
        <time>2022-10-05T13:49:46Z</time>
      </trkpt>
      <trkpt lat="49.71637" lon="2.353">
        <ele>60.3</ele>
        <time>2022-10-05T13:49:47Z</time>
      </trkpt>
      <trkpt lat="49.71637" lon="2.353">
        <ele>60.3</ele>
        <time>2022-10-05T13:49:48Z</time>
      </trkpt>
      <trkpt lat="49.71636" lon="2.353">
        <ele>60.3</ele>
        <time>2022-10-05T13:49:49Z</time>
      </trkpt>
      <trkpt lat="49.71636" lon="2.35301">
        <ele>60.3</ele>
        <time>2022-10-05T13:49:50Z</time>
      </trkpt>
      <trkpt lat="49.71636" lon="2.35301">
        <ele>60.3</ele>
        <time>2022-10-05T13:49:51Z</time>
      </trkpt>
      <trkpt lat="49.71636" lon="2.35301">
        <ele>60.3</ele>
        <time>2022-10-05T13:49:52Z</time>
      </trkpt>
      <trkpt lat="49.71636" lon="2.35301">
        <ele>60.3</ele>
        <time>2022-10-05T13:49:53Z</time>
      </trkpt>
      <trkpt lat="49.71636" lon="2.35301">
        <ele>60.3</ele>
        <time>2022-10-05T13:49:54Z</time>
      </trkpt>
      <trkpt lat="49.71636" lon="2.35301">
        <ele>60.3</ele>
        <time>2022-10-05T13:49:55Z</time>
      </trkpt>
      <trkpt lat="49.71636" lon="2.35301">
        <ele>60.3</ele>
        <time>2022-10-05T13:49:56Z</time>
      </trkpt>
      <trkpt lat="49.71636" lon="2.35301">
        <ele>60.3</ele>
        <time>2022-10-05T13:49:57Z</time>
      </trkpt>
      <trkpt lat="49.71636" lon="2.35301">
        <ele>60.3</ele>
        <time>2022-10-05T13:49:58Z</time>
      </trkpt>
      <trkpt lat="49.71636" lon="2.35301">
        <ele>60.3</ele>
        <time>2022-10-05T13:49:59Z</time>
      </trkpt>
      <trkpt lat="49.71636" lon="2.35301">
        <ele>60.3</ele>
        <time>2022-10-05T13:50:00Z</time>
      </trkpt>
      <trkpt lat="49.71636" lon="2.35301">
        <ele>60.3</ele>
        <time>2022-10-05T13:50:01Z</time>
      </trkpt>
      <trkpt lat="49.71636" lon="2.35301">
        <ele>60.3</ele>
        <time>2022-10-05T13:50:02Z</time>
      </trkpt>
      <trkpt lat="49.71636" lon="2.35301">
        <ele>60.3</ele>
        <time>2022-10-05T13:50:03Z</time>
      </trkpt>
      <trkpt lat="49.71636" lon="2.35301">
        <ele>60.3</ele>
        <time>2022-10-05T13:50:04Z</time>
      </trkpt>
      <trkpt lat="49.71636" lon="2.35301">
        <ele>60.3</ele>
        <time>2022-10-05T13:50:05Z</time>
      </trkpt>
      <trkpt lat="49.71636" lon="2.35301">
        <ele>60.3</ele>
        <time>2022-10-05T13:50:06Z</time>
      </trkpt>
      <trkpt lat="49.71636" lon="2.35301">
        <ele>60.3</ele>
        <time>2022-10-05T13:50:07Z</time>
      </trkpt>
      <trkpt lat="49.71636" lon="2.35301">
        <ele>60.3</ele>
        <time>2022-10-05T13:50:08Z</time>
      </trkpt>
      <trkpt lat="49.71636" lon="2.35301">
        <ele>60.3</ele>
        <time>2022-10-05T13:50:09Z</time>
      </trkpt>
      <trkpt lat="49.71636" lon="2.35301">
        <ele>60.3</ele>
        <time>2022-10-05T13:50:10Z</time>
      </trkpt>
      <trkpt lat="49.71636" lon="2.35301">
        <ele>60.3</ele>
        <time>2022-10-05T13:50:11Z</time>
      </trkpt>
      <trkpt lat="49.71636" lon="2.35301">
        <ele>60.3</ele>
        <time>2022-10-05T13:50:12Z</time>
      </trkpt>
      <trkpt lat="49.71636" lon="2.35301">
        <ele>60.3</ele>
        <time>2022-10-05T13:50:13Z</time>
      </trkpt>
      <trkpt lat="49.71636" lon="2.35301">
        <ele>60.3</ele>
        <time>2022-10-05T13:50:14Z</time>
      </trkpt>
      <trkpt lat="49.71636" lon="2.35301">
        <ele>60.3</ele>
        <time>2022-10-05T13:50:15Z</time>
      </trkpt>
      <trkpt lat="49.71636" lon="2.35301">
        <ele>60.3</ele>
        <time>2022-10-05T13:50:16Z</time>
      </trkpt>
      <trkpt lat="49.71636" lon="2.35301">
        <ele>60.3</ele>
        <time>2022-10-05T13:50:17Z</time>
      </trkpt>
      <trkpt lat="49.71636" lon="2.35301">
        <ele>60.3</ele>
        <time>2022-10-05T13:50:18Z</time>
      </trkpt>
      <trkpt lat="49.71636" lon="2.35301">
        <ele>60.3</ele>
        <time>2022-10-05T13:50:19Z</time>
      </trkpt>
      <trkpt lat="49.71636" lon="2.35301">
        <ele>60.3</ele>
        <time>2022-10-05T13:50:20Z</time>
      </trkpt>
      <trkpt lat="49.71636" lon="2.35301">
        <ele>60.3</ele>
        <time>2022-10-05T13:50:21Z</time>
      </trkpt>
      <trkpt lat="49.71636" lon="2.35301">
        <ele>60.3</ele>
        <time>2022-10-05T13:50:22Z</time>
      </trkpt>
      <trkpt lat="49.71637" lon="2.353">
        <ele>60.3</ele>
        <time>2022-10-05T13:50:23Z</time>
      </trkpt>
      <trkpt lat="49.71637" lon="2.353">
        <ele>60.3</ele>
        <time>2022-10-05T13:50:25Z</time>
      </trkpt>
      <trkpt lat="49.71637" lon="2.353">
        <ele>60.3</ele>
        <time>2022-10-05T13:50:26Z</time>
      </trkpt>
      <trkpt lat="49.71637" lon="2.353">
        <ele>60.3</ele>
        <time>2022-10-05T13:50:27Z</time>
      </trkpt>
      <trkpt lat="49.71638" lon="2.35299">
        <ele>60.3</ele>
        <time>2022-10-05T13:50:28Z</time>
      </trkpt>
      <trkpt lat="49.71638" lon="2.35299">
        <ele>60.3</ele>
        <time>2022-10-05T13:50:29Z</time>
      </trkpt>
      <trkpt lat="49.71639" lon="2.35298">
        <ele>60.3</ele>
        <time>2022-10-05T13:50:30Z</time>
      </trkpt>
      <trkpt lat="49.7164" lon="2.35297">
        <ele>60.3</ele>
        <time>2022-10-05T13:50:32Z</time>
      </trkpt>
      <trkpt lat="49.71641" lon="2.35297">
        <ele>60.3</ele>
        <time>2022-10-05T13:50:33Z</time>
      </trkpt>
      <trkpt lat="49.71642" lon="2.35297">
        <ele>60.3</ele>
        <time>2022-10-05T13:50:34Z</time>
      </trkpt>
      <trkpt lat="49.71642" lon="2.35297">
        <ele>60.3</ele>
        <time>2022-10-05T13:50:35Z</time>
      </trkpt>
      <trkpt lat="49.7164" lon="2.35298">
        <ele>60.3</ele>
        <time>2022-10-05T13:50:36Z</time>
      </trkpt>
      <trkpt lat="49.71639" lon="2.35298">
        <ele>60.3</ele>
        <time>2022-10-05T13:50:37Z</time>
      </trkpt>
      <trkpt lat="49.71639" lon="2.35299">
        <ele>60.3</ele>
        <time>2022-10-05T13:50:39Z</time>
      </trkpt>
      <trkpt lat="49.71639" lon="2.35299">
        <ele>60.3</ele>
        <time>2022-10-05T13:50:40Z</time>
      </trkpt>
      <trkpt lat="49.71639" lon="2.35299">
        <ele>60.3</ele>
        <time>2022-10-05T13:50:42Z</time>
      </trkpt>
      <trkpt lat="49.71639" lon="2.35298">
        <ele>60.3</ele>
        <time>2022-10-05T13:50:43Z</time>
      </trkpt>
      <trkpt lat="49.7164" lon="2.35298">
        <ele>60.3</ele>
        <time>2022-10-05T13:50:44Z</time>
      </trkpt>
      <trkpt lat="49.71641" lon="2.35297">
        <ele>60.3</ele>
        <time>2022-10-05T13:50:46Z</time>
      </trkpt>
      <trkpt lat="49.71642" lon="2.35296">
        <ele>60.3</ele>
        <time>2022-10-05T13:50:47Z</time>
      </trkpt>
      <trkpt lat="49.71642" lon="2.35295">
        <ele>60.3</ele>
        <time>2022-10-05T13:50:48Z</time>
      </trkpt>
      <trkpt lat="49.71643" lon="2.35295">
        <ele>60.3</ele>
        <time>2022-10-05T13:50:49Z</time>
      </trkpt>
      <trkpt lat="49.71644" lon="2.35295">
        <ele>60.3</ele>
        <time>2022-10-05T13:50:50Z</time>
      </trkpt>
      <trkpt lat="49.71644" lon="2.35294">
        <ele>60.4</ele>
        <time>2022-10-05T13:50:51Z</time>
      </trkpt>
      <trkpt lat="49.71645" lon="2.35294">
        <ele>60.4</ele>
        <time>2022-10-05T13:50:53Z</time>
      </trkpt>
      <trkpt lat="49.71645" lon="2.35294">
        <ele>60.4</ele>
        <time>2022-10-05T13:50:55Z</time>
      </trkpt>
      <trkpt lat="49.71645" lon="2.35294">
        <ele>60.4</ele>
        <time>2022-10-05T13:50:56Z</time>
      </trkpt>
      <trkpt lat="49.71646" lon="2.35294">
        <ele>60.4</ele>
        <time>2022-10-05T13:50:57Z</time>
      </trkpt>
      <trkpt lat="49.71646" lon="2.35294">
        <ele>60.4</ele>
        <time>2022-10-05T13:50:58Z</time>
      </trkpt>
      <trkpt lat="49.71647" lon="2.35293">
        <ele>60.4</ele>
        <time>2022-10-05T13:50:59Z</time>
      </trkpt>
      <trkpt lat="49.71648" lon="2.35293">
        <ele>60.4</ele>
        <time>2022-10-05T13:51:00Z</time>
      </trkpt>
      <trkpt lat="49.71649" lon="2.35293">
        <ele>60.4</ele>
        <time>2022-10-05T13:51:01Z</time>
      </trkpt>
      <trkpt lat="49.7165" lon="2.35293">
        <ele>60.4</ele>
        <time>2022-10-05T13:51:02Z</time>
      </trkpt>
      <trkpt lat="49.7165" lon="2.35293">
        <ele>60.4</ele>
        <time>2022-10-05T13:51:03Z</time>
      </trkpt>
      <trkpt lat="49.71651" lon="2.35293">
        <ele>60.4</ele>
        <time>2022-10-05T13:51:04Z</time>
      </trkpt>
      <trkpt lat="49.71652" lon="2.35293">
        <ele>60.4</ele>
        <time>2022-10-05T13:51:05Z</time>
      </trkpt>
      <trkpt lat="49.71653" lon="2.35293">
        <ele>60.4</ele>
        <time>2022-10-05T13:51:06Z</time>
      </trkpt>
      <trkpt lat="49.71655" lon="2.35294">
        <ele>60.5</ele>
        <time>2022-10-05T13:51:07Z</time>
      </trkpt>
      <trkpt lat="49.71656" lon="2.35295">
        <ele>60.5</ele>
        <time>2022-10-05T13:51:08Z</time>
      </trkpt>
      <trkpt lat="49.71656" lon="2.35295">
        <ele>60.5</ele>
        <time>2022-10-05T13:51:09Z</time>
      </trkpt>
      <trkpt lat="49.71658" lon="2.35296">
        <ele>60.5</ele>
        <time>2022-10-05T13:51:10Z</time>
      </trkpt>
      <trkpt lat="49.71659" lon="2.35296">
        <ele>60.5</ele>
        <time>2022-10-05T13:51:11Z</time>
      </trkpt>
      <trkpt lat="49.71661" lon="2.35297">
        <ele>60.5</ele>
        <time>2022-10-05T13:51:12Z</time>
      </trkpt>
      <trkpt lat="49.71662" lon="2.35298">
        <ele>60.5</ele>
        <time>2022-10-05T13:51:13Z</time>
      </trkpt>
      <trkpt lat="49.71664" lon="2.35299">
        <ele>60.6</ele>
        <time>2022-10-05T13:51:14Z</time>
      </trkpt>
      <trkpt lat="49.71665" lon="2.35299">
        <ele>60.6</ele>
        <time>2022-10-05T13:51:15Z</time>
      </trkpt>
      <trkpt lat="49.71667" lon="2.353">
        <ele>60.6</ele>
        <time>2022-10-05T13:51:16Z</time>
      </trkpt>
      <trkpt lat="49.71668" lon="2.35301">
        <ele>60.6</ele>
        <time>2022-10-05T13:51:17Z</time>
      </trkpt>
      <trkpt lat="49.7167" lon="2.35301">
        <ele>60.6</ele>
        <time>2022-10-05T13:51:19Z</time>
      </trkpt>
      <trkpt lat="49.71672" lon="2.35302">
        <ele>60.6</ele>
        <time>2022-10-05T13:51:20Z</time>
      </trkpt>
      <trkpt lat="49.71673" lon="2.35302">
        <ele>60.7</ele>
        <time>2022-10-05T13:51:21Z</time>
      </trkpt>
      <trkpt lat="49.71675" lon="2.35303">
        <ele>60.7</ele>
        <time>2022-10-05T13:51:22Z</time>
      </trkpt>
      <trkpt lat="49.71678" lon="2.35303">
        <ele>60.7</ele>
        <time>2022-10-05T13:51:23Z</time>
      </trkpt>
      <trkpt lat="49.71679" lon="2.35304">
        <ele>60.7</ele>
        <time>2022-10-05T13:51:25Z</time>
      </trkpt>
      <trkpt lat="49.7168" lon="2.35304">
        <ele>60.7</ele>
        <time>2022-10-05T13:51:26Z</time>
      </trkpt>
      <trkpt lat="49.71681" lon="2.35304">
        <ele>60.7</ele>
        <time>2022-10-05T13:51:27Z</time>
      </trkpt>
      <trkpt lat="49.71682" lon="2.35304">
        <ele>60.8</ele>
        <time>2022-10-05T13:51:28Z</time>
      </trkpt>
      <trkpt lat="49.71684" lon="2.35305">
        <ele>60.8</ele>
        <time>2022-10-05T13:51:29Z</time>
      </trkpt>
      <trkpt lat="49.71685" lon="2.35306">
        <ele>60.8</ele>
        <time>2022-10-05T13:51:30Z</time>
      </trkpt>
      <trkpt lat="49.71687" lon="2.35307">
        <ele>60.8</ele>
        <time>2022-10-05T13:51:32Z</time>
      </trkpt>
      <trkpt lat="49.71688" lon="2.35307">
        <ele>60.8</ele>
        <time>2022-10-05T13:51:33Z</time>
      </trkpt>
      <trkpt lat="49.7169" lon="2.35308">
        <ele>60.8</ele>
        <time>2022-10-05T13:51:34Z</time>
      </trkpt>
      <trkpt lat="49.71691" lon="2.35308">
        <ele>60.8</ele>
        <time>2022-10-05T13:51:35Z</time>
      </trkpt>
      <trkpt lat="49.71693" lon="2.35309">
        <ele>60.9</ele>
        <time>2022-10-05T13:51:36Z</time>
      </trkpt>
      <trkpt lat="49.71694" lon="2.35309">
        <ele>60.9</ele>
        <time>2022-10-05T13:51:38Z</time>
      </trkpt>
      <trkpt lat="49.71695" lon="2.3531">
        <ele>60.9</ele>
        <time>2022-10-05T13:51:39Z</time>
      </trkpt>
      <trkpt lat="49.71696" lon="2.3531">
        <ele>60.9</ele>
        <time>2022-10-05T13:51:40Z</time>
      </trkpt>
      <trkpt lat="49.71697" lon="2.35311">
        <ele>60.9</ele>
        <time>2022-10-05T13:51:41Z</time>
      </trkpt>
      <trkpt lat="49.71698" lon="2.35311">
        <ele>60.9</ele>
        <time>2022-10-05T13:51:42Z</time>
      </trkpt>
      <trkpt lat="49.71698" lon="2.35312">
        <ele>60.9</ele>
        <time>2022-10-05T13:51:43Z</time>
      </trkpt>
      <trkpt lat="49.71699" lon="2.35313">
        <ele>60.9</ele>
        <time>2022-10-05T13:51:44Z</time>
      </trkpt>
      <trkpt lat="49.717" lon="2.35313">
        <ele>60.9</ele>
        <time>2022-10-05T13:51:45Z</time>
      </trkpt>
      <trkpt lat="49.71701" lon="2.35314">
        <ele>60.9</ele>
        <time>2022-10-05T13:51:46Z</time>
      </trkpt>
      <trkpt lat="49.71702" lon="2.35315">
        <ele>60.9</ele>
        <time>2022-10-05T13:51:47Z</time>
      </trkpt>
      <trkpt lat="49.71703" lon="2.35316">
        <ele>61</ele>
        <time>2022-10-05T13:51:48Z</time>
      </trkpt>
      <trkpt lat="49.71706" lon="2.35318">
        <ele>61</ele>
        <time>2022-10-05T13:51:49Z</time>
      </trkpt>
      <trkpt lat="49.71707" lon="2.35319">
        <ele>61</ele>
        <time>2022-10-05T13:51:50Z</time>
      </trkpt>
      <trkpt lat="49.71709" lon="2.3532">
        <ele>61</ele>
        <time>2022-10-05T13:51:51Z</time>
      </trkpt>
      <trkpt lat="49.7171" lon="2.35321">
        <ele>61</ele>
        <time>2022-10-05T13:51:52Z</time>
      </trkpt>
      <trkpt lat="49.7171" lon="2.35322">
        <ele>61.1</ele>
        <time>2022-10-05T13:51:53Z</time>
      </trkpt>
      <trkpt lat="49.71712" lon="2.35323">
        <ele>61.1</ele>
        <time>2022-10-05T13:51:54Z</time>
      </trkpt>
      <trkpt lat="49.71713" lon="2.35324">
        <ele>61.1</ele>
        <time>2022-10-05T13:51:55Z</time>
      </trkpt>
      <trkpt lat="49.71714" lon="2.35325">
        <ele>61.1</ele>
        <time>2022-10-05T13:51:56Z</time>
      </trkpt>
      <trkpt lat="49.71716" lon="2.35326">
        <ele>61.1</ele>
        <time>2022-10-05T13:51:57Z</time>
      </trkpt>
      <trkpt lat="49.71717" lon="2.35328">
        <ele>61.2</ele>
        <time>2022-10-05T13:51:59Z</time>
      </trkpt>
      <trkpt lat="49.71719" lon="2.35329">
        <ele>61.2</ele>
        <time>2022-10-05T13:52:00Z</time>
      </trkpt>
      <trkpt lat="49.71721" lon="2.35331">
        <ele>61.2</ele>
        <time>2022-10-05T13:52:01Z</time>
      </trkpt>
      <trkpt lat="49.71722" lon="2.35332">
        <ele>61.3</ele>
        <time>2022-10-05T13:52:02Z</time>
      </trkpt>
      <trkpt lat="49.71725" lon="2.35335">
        <ele>61.3</ele>
        <time>2022-10-05T13:52:04Z</time>
      </trkpt>
      <trkpt lat="49.71726" lon="2.35335">
        <ele>61.3</ele>
        <time>2022-10-05T13:52:05Z</time>
      </trkpt>
      <trkpt lat="49.71728" lon="2.35337">
        <ele>61.4</ele>
        <time>2022-10-05T13:52:06Z</time>
      </trkpt>
      <trkpt lat="49.71729" lon="2.35338">
        <ele>61.4</ele>
        <time>2022-10-05T13:52:07Z</time>
      </trkpt>
      <trkpt lat="49.71731" lon="2.35339">
        <ele>61.4</ele>
        <time>2022-10-05T13:52:09Z</time>
      </trkpt>
      <trkpt lat="49.71732" lon="2.3534">
        <ele>61.4</ele>
        <time>2022-10-05T13:52:10Z</time>
      </trkpt>
      <trkpt lat="49.71734" lon="2.35342">
        <ele>61.5</ele>
        <time>2022-10-05T13:52:11Z</time>
      </trkpt>
      <trkpt lat="49.71735" lon="2.35343">
        <ele>61.5</ele>
        <time>2022-10-05T13:52:12Z</time>
      </trkpt>
      <trkpt lat="49.71737" lon="2.35343">
        <ele>61.5</ele>
        <time>2022-10-05T13:52:13Z</time>
      </trkpt>
      <trkpt lat="49.71738" lon="2.35344">
        <ele>61.5</ele>
        <time>2022-10-05T13:52:14Z</time>
      </trkpt>
      <trkpt lat="49.71739" lon="2.35344">
        <ele>61.5</ele>
        <time>2022-10-05T13:52:15Z</time>
      </trkpt>
      <trkpt lat="49.71741" lon="2.35346">
        <ele>61.5</ele>
        <time>2022-10-05T13:52:17Z</time>
      </trkpt>
      <trkpt lat="49.71742" lon="2.35347">
        <ele>61.6</ele>
        <time>2022-10-05T13:52:18Z</time>
      </trkpt>
      <trkpt lat="49.71743" lon="2.35348">
        <ele>61.6</ele>
        <time>2022-10-05T13:52:19Z</time>
      </trkpt>
      <trkpt lat="49.71744" lon="2.35348">
        <ele>61.6</ele>
        <time>2022-10-05T13:52:20Z</time>
      </trkpt>
      <trkpt lat="49.71747" lon="2.35349">
        <ele>61.6</ele>
        <time>2022-10-05T13:52:21Z</time>
      </trkpt>
      <trkpt lat="49.71748" lon="2.3535">
        <ele>61.6</ele>
        <time>2022-10-05T13:52:22Z</time>
      </trkpt>
      <trkpt lat="49.71749" lon="2.35351">
        <ele>61.6</ele>
        <time>2022-10-05T13:52:23Z</time>
      </trkpt>
      <trkpt lat="49.71751" lon="2.35351">
        <ele>61.6</ele>
        <time>2022-10-05T13:52:24Z</time>
      </trkpt>
      <trkpt lat="49.71752" lon="2.35351">
        <ele>61.7</ele>
        <time>2022-10-05T13:52:25Z</time>
      </trkpt>
      <trkpt lat="49.71753" lon="2.35352">
        <ele>61.7</ele>
        <time>2022-10-05T13:52:26Z</time>
      </trkpt>
      <trkpt lat="49.71755" lon="2.35352">
        <ele>61.7</ele>
        <time>2022-10-05T13:52:28Z</time>
      </trkpt>
      <trkpt lat="49.71756" lon="2.35353">
        <ele>61.7</ele>
        <time>2022-10-05T13:52:29Z</time>
      </trkpt>
      <trkpt lat="49.71758" lon="2.35353">
        <ele>61.7</ele>
        <time>2022-10-05T13:52:30Z</time>
      </trkpt>
      <trkpt lat="49.7176" lon="2.35354">
        <ele>61.7</ele>
        <time>2022-10-05T13:52:31Z</time>
      </trkpt>
      <trkpt lat="49.71761" lon="2.35354">
        <ele>61.7</ele>
        <time>2022-10-05T13:52:32Z</time>
      </trkpt>
      <trkpt lat="49.71762" lon="2.35354">
        <ele>61.7</ele>
        <time>2022-10-05T13:52:33Z</time>
      </trkpt>
      <trkpt lat="49.71764" lon="2.35354">
        <ele>61.7</ele>
        <time>2022-10-05T13:52:34Z</time>
      </trkpt>
      <trkpt lat="49.71767" lon="2.35355">
        <ele>61.7</ele>
        <time>2022-10-05T13:52:36Z</time>
      </trkpt>
      <trkpt lat="49.71768" lon="2.35355">
        <ele>61.7</ele>
        <time>2022-10-05T13:52:37Z</time>
      </trkpt>
      <trkpt lat="49.71769" lon="2.35355">
        <ele>61.7</ele>
        <time>2022-10-05T13:52:38Z</time>
      </trkpt>
      <trkpt lat="49.71771" lon="2.35356">
        <ele>61.8</ele>
        <time>2022-10-05T13:52:40Z</time>
      </trkpt>
      <trkpt lat="49.71772" lon="2.35356">
        <ele>61.8</ele>
        <time>2022-10-05T13:52:41Z</time>
      </trkpt>
      <trkpt lat="49.71773" lon="2.35356">
        <ele>61.8</ele>
        <time>2022-10-05T13:52:42Z</time>
      </trkpt>
      <trkpt lat="49.71775" lon="2.35357">
        <ele>61.8</ele>
        <time>2022-10-05T13:52:43Z</time>
      </trkpt>
      <trkpt lat="49.71776" lon="2.35358">
        <ele>61.8</ele>
        <time>2022-10-05T13:52:44Z</time>
      </trkpt>
      <trkpt lat="49.71778" lon="2.35358">
        <ele>61.8</ele>
        <time>2022-10-05T13:52:45Z</time>
      </trkpt>
      <trkpt lat="49.71779" lon="2.35358">
        <ele>61.8</ele>
        <time>2022-10-05T13:52:46Z</time>
      </trkpt>
      <trkpt lat="49.7178" lon="2.35359">
        <ele>61.8</ele>
        <time>2022-10-05T13:52:47Z</time>
      </trkpt>
      <trkpt lat="49.71782" lon="2.35359">
        <ele>61.8</ele>
        <time>2022-10-05T13:52:48Z</time>
      </trkpt>
      <trkpt lat="49.71783" lon="2.35359">
        <ele>61.8</ele>
        <time>2022-10-05T13:52:49Z</time>
      </trkpt>
      <trkpt lat="49.71786" lon="2.3536">
        <ele>61.8</ele>
        <time>2022-10-05T13:52:51Z</time>
      </trkpt>
      <trkpt lat="49.71787" lon="2.3536">
        <ele>61.8</ele>
        <time>2022-10-05T13:52:52Z</time>
      </trkpt>
      <trkpt lat="49.71789" lon="2.35361">
        <ele>61.9</ele>
        <time>2022-10-05T13:52:53Z</time>
      </trkpt>
      <trkpt lat="49.71792" lon="2.35362">
        <ele>61.9</ele>
        <time>2022-10-05T13:52:54Z</time>
      </trkpt>
      <trkpt lat="49.71794" lon="2.35362">
        <ele>61.9</ele>
        <time>2022-10-05T13:52:55Z</time>
      </trkpt>
      <trkpt lat="49.71797" lon="2.35362">
        <ele>61.9</ele>
        <time>2022-10-05T13:52:57Z</time>
      </trkpt>
      <trkpt lat="49.71798" lon="2.35363">
        <ele>61.9</ele>
        <time>2022-10-05T13:52:58Z</time>
      </trkpt>
      <trkpt lat="49.71801" lon="2.35363">
        <ele>62</ele>
        <time>2022-10-05T13:52:59Z</time>
      </trkpt>
      <trkpt lat="49.71802" lon="2.35364">
        <ele>62</ele>
        <time>2022-10-05T13:53:00Z</time>
      </trkpt>
      <trkpt lat="49.71803" lon="2.35364">
        <ele>62</ele>
        <time>2022-10-05T13:53:01Z</time>
      </trkpt>
      <trkpt lat="49.71805" lon="2.35364">
        <ele>62</ele>
        <time>2022-10-05T13:53:03Z</time>
      </trkpt>
      <trkpt lat="49.71806" lon="2.35365">
        <ele>62</ele>
        <time>2022-10-05T13:53:04Z</time>
      </trkpt>
      <trkpt lat="49.71808" lon="2.35365">
        <ele>62.1</ele>
        <time>2022-10-05T13:53:05Z</time>
      </trkpt>
      <trkpt lat="49.7181" lon="2.35365">
        <ele>62.1</ele>
        <time>2022-10-05T13:53:06Z</time>
      </trkpt>
      <trkpt lat="49.71811" lon="2.35365">
        <ele>62.1</ele>
        <time>2022-10-05T13:53:07Z</time>
      </trkpt>
      <trkpt lat="49.71812" lon="2.35365">
        <ele>62.1</ele>
        <time>2022-10-05T13:53:08Z</time>
      </trkpt>
      <trkpt lat="49.71813" lon="2.35365">
        <ele>62.2</ele>
        <time>2022-10-05T13:53:09Z</time>
      </trkpt>
      <trkpt lat="49.71814" lon="2.35366">
        <ele>62.2</ele>
        <time>2022-10-05T13:53:10Z</time>
      </trkpt>
      <trkpt lat="49.71817" lon="2.35365">
        <ele>62.2</ele>
        <time>2022-10-05T13:53:12Z</time>
      </trkpt>
      <trkpt lat="49.71819" lon="2.35365">
        <ele>62.3</ele>
        <time>2022-10-05T13:53:14Z</time>
      </trkpt>
      <trkpt lat="49.71819" lon="2.35365">
        <ele>62.3</ele>
        <time>2022-10-05T13:53:15Z</time>
      </trkpt>
      <trkpt lat="49.71821" lon="2.35365">
        <ele>62.4</ele>
        <time>2022-10-05T13:53:16Z</time>
      </trkpt>
      <trkpt lat="49.71822" lon="2.35365">
        <ele>62.4</ele>
        <time>2022-10-05T13:53:17Z</time>
      </trkpt>
      <trkpt lat="49.71823" lon="2.35365">
        <ele>62.4</ele>
        <time>2022-10-05T13:53:18Z</time>
      </trkpt>
      <trkpt lat="49.71826" lon="2.35365">
        <ele>62.5</ele>
        <time>2022-10-05T13:53:19Z</time>
      </trkpt>
      <trkpt lat="49.71827" lon="2.35365">
        <ele>62.5</ele>
        <time>2022-10-05T13:53:20Z</time>
      </trkpt>
      <trkpt lat="49.71828" lon="2.35365">
        <ele>62.6</ele>
        <time>2022-10-05T13:53:21Z</time>
      </trkpt>
      <trkpt lat="49.71831" lon="2.35364">
        <ele>62.6</ele>
        <time>2022-10-05T13:53:23Z</time>
      </trkpt>
      <trkpt lat="49.71832" lon="2.35364">
        <ele>62.7</ele>
        <time>2022-10-05T13:53:24Z</time>
      </trkpt>
      <trkpt lat="49.71834" lon="2.35364">
        <ele>62.7</ele>
        <time>2022-10-05T13:53:25Z</time>
      </trkpt>
      <trkpt lat="49.71834" lon="2.35364">
        <ele>62.8</ele>
        <time>2022-10-05T13:53:26Z</time>
      </trkpt>
      <trkpt lat="49.71836" lon="2.35364">
        <ele>62.8</ele>
        <time>2022-10-05T13:53:28Z</time>
      </trkpt>
      <trkpt lat="49.71837" lon="2.35364">
        <ele>62.8</ele>
        <time>2022-10-05T13:53:29Z</time>
      </trkpt>
      <trkpt lat="49.71839" lon="2.35363">
        <ele>62.9</ele>
        <time>2022-10-05T13:53:30Z</time>
      </trkpt>
      <trkpt lat="49.71841" lon="2.35363">
        <ele>62.9</ele>
        <time>2022-10-05T13:53:31Z</time>
      </trkpt>
      <trkpt lat="49.71843" lon="2.35363">
        <ele>63</ele>
        <time>2022-10-05T13:53:32Z</time>
      </trkpt>
      <trkpt lat="49.71844" lon="2.35363">
        <ele>63</ele>
        <time>2022-10-05T13:53:33Z</time>
      </trkpt>
      <trkpt lat="49.71847" lon="2.35363">
        <ele>63.1</ele>
        <time>2022-10-05T13:53:34Z</time>
      </trkpt>
      <trkpt lat="49.71848" lon="2.35363">
        <ele>63.1</ele>
        <time>2022-10-05T13:53:35Z</time>
      </trkpt>
      <trkpt lat="49.71852" lon="2.35363">
        <ele>63.1</ele>
        <time>2022-10-05T13:53:36Z</time>
      </trkpt>
      <trkpt lat="49.71853" lon="2.35363">
        <ele>63.1</ele>
        <time>2022-10-05T13:53:37Z</time>
      </trkpt>
      <trkpt lat="49.71856" lon="2.35363">
        <ele>63.1</ele>
        <time>2022-10-05T13:53:38Z</time>
      </trkpt>
      <trkpt lat="49.71858" lon="2.35363">
        <ele>63.1</ele>
        <time>2022-10-05T13:53:40Z</time>
      </trkpt>
      <trkpt lat="49.7186" lon="2.35363">
        <ele>63.1</ele>
        <time>2022-10-05T13:53:41Z</time>
      </trkpt>
      <trkpt lat="49.71861" lon="2.35364">
        <ele>63.1</ele>
        <time>2022-10-05T13:53:42Z</time>
      </trkpt>
      <trkpt lat="49.71862" lon="2.35364">
        <ele>63.1</ele>
        <time>2022-10-05T13:53:43Z</time>
      </trkpt>
      <trkpt lat="49.71863" lon="2.35364">
        <ele>63.1</ele>
        <time>2022-10-05T13:53:44Z</time>
      </trkpt>
      <trkpt lat="49.71864" lon="2.35364">
        <ele>63.1</ele>
        <time>2022-10-05T13:53:45Z</time>
      </trkpt>
      <trkpt lat="49.71865" lon="2.35364">
        <ele>63.1</ele>
        <time>2022-10-05T13:53:46Z</time>
      </trkpt>
      <trkpt lat="49.71866" lon="2.35364">
        <ele>63.1</ele>
        <time>2022-10-05T13:53:47Z</time>
      </trkpt>
      <trkpt lat="49.71867" lon="2.35364">
        <ele>63</ele>
        <time>2022-10-05T13:53:48Z</time>
      </trkpt>
      <trkpt lat="49.71869" lon="2.35364">
        <ele>63</ele>
        <time>2022-10-05T13:53:49Z</time>
      </trkpt>
      <trkpt lat="49.7187" lon="2.35364">
        <ele>63</ele>
        <time>2022-10-05T13:53:50Z</time>
      </trkpt>
      <trkpt lat="49.71872" lon="2.35364">
        <ele>63</ele>
        <time>2022-10-05T13:53:51Z</time>
      </trkpt>
      <trkpt lat="49.71875" lon="2.35364">
        <ele>62.9</ele>
        <time>2022-10-05T13:53:53Z</time>
      </trkpt>
      <trkpt lat="49.71877" lon="2.35364">
        <ele>62.9</ele>
        <time>2022-10-05T13:53:54Z</time>
      </trkpt>
      <trkpt lat="49.71879" lon="2.35364">
        <ele>62.8</ele>
        <time>2022-10-05T13:53:56Z</time>
      </trkpt>
      <trkpt lat="49.71882" lon="2.35365">
        <ele>62.8</ele>
        <time>2022-10-05T13:53:58Z</time>
      </trkpt>
      <trkpt lat="49.71883" lon="2.35365">
        <ele>62.7</ele>
        <time>2022-10-05T13:53:59Z</time>
      </trkpt>
      <trkpt lat="49.71884" lon="2.35365">
        <ele>62.7</ele>
        <time>2022-10-05T13:54:00Z</time>
      </trkpt>
      <trkpt lat="49.71885" lon="2.35366">
        <ele>62.7</ele>
        <time>2022-10-05T13:54:01Z</time>
      </trkpt>
      <trkpt lat="49.71887" lon="2.35365">
        <ele>62.7</ele>
        <time>2022-10-05T13:54:02Z</time>
      </trkpt>
      <trkpt lat="49.71888" lon="2.35365">
        <ele>62.6</ele>
        <time>2022-10-05T13:54:03Z</time>
      </trkpt>
      <trkpt lat="49.71889" lon="2.35365">
        <ele>62.6</ele>
        <time>2022-10-05T13:54:04Z</time>
      </trkpt>
      <trkpt lat="49.71891" lon="2.35365">
        <ele>62.6</ele>
        <time>2022-10-05T13:54:05Z</time>
      </trkpt>
      <trkpt lat="49.71892" lon="2.35365">
        <ele>62.6</ele>
        <time>2022-10-05T13:54:06Z</time>
      </trkpt>
      <trkpt lat="49.71895" lon="2.35365">
        <ele>62.5</ele>
        <time>2022-10-05T13:54:08Z</time>
      </trkpt>
      <trkpt lat="49.71896" lon="2.35365">
        <ele>62.5</ele>
        <time>2022-10-05T13:54:09Z</time>
      </trkpt>
      <trkpt lat="49.71897" lon="2.35364">
        <ele>62.5</ele>
        <time>2022-10-05T13:54:10Z</time>
      </trkpt>
      <trkpt lat="49.71899" lon="2.35363">
        <ele>62.4</ele>
        <time>2022-10-05T13:54:11Z</time>
      </trkpt>
      <trkpt lat="49.71899" lon="2.35363">
        <ele>62.4</ele>
        <time>2022-10-05T13:54:13Z</time>
      </trkpt>
      <trkpt lat="49.719" lon="2.35363">
        <ele>62.4</ele>
        <time>2022-10-05T13:54:14Z</time>
      </trkpt>
      <trkpt lat="49.71901" lon="2.35362">
        <ele>62.4</ele>
        <time>2022-10-05T13:54:15Z</time>
      </trkpt>
      <trkpt lat="49.71904" lon="2.35362">
        <ele>62.4</ele>
        <time>2022-10-05T13:54:17Z</time>
      </trkpt>
      <trkpt lat="49.71905" lon="2.35361">
        <ele>62.4</ele>
        <time>2022-10-05T13:54:18Z</time>
      </trkpt>
      <trkpt lat="49.71906" lon="2.35361">
        <ele>62.3</ele>
        <time>2022-10-05T13:54:19Z</time>
      </trkpt>
      <trkpt lat="49.71906" lon="2.35361">
        <ele>62.3</ele>
        <time>2022-10-05T13:54:20Z</time>
      </trkpt>
      <trkpt lat="49.71907" lon="2.35361">
        <ele>62.3</ele>
        <time>2022-10-05T13:54:21Z</time>
      </trkpt>
      <trkpt lat="49.71909" lon="2.3536">
        <ele>62.3</ele>
        <time>2022-10-05T13:54:22Z</time>
      </trkpt>
      <trkpt lat="49.7191" lon="2.3536">
        <ele>62.3</ele>
        <time>2022-10-05T13:54:23Z</time>
      </trkpt>
      <trkpt lat="49.7191" lon="2.3536">
        <ele>62.3</ele>
        <time>2022-10-05T13:54:24Z</time>
      </trkpt>
      <trkpt lat="49.71911" lon="2.35359">
        <ele>62.3</ele>
        <time>2022-10-05T13:54:25Z</time>
      </trkpt>
      <trkpt lat="49.71913" lon="2.35358">
        <ele>62.2</ele>
        <time>2022-10-05T13:54:26Z</time>
      </trkpt>
      <trkpt lat="49.71915" lon="2.35358">
        <ele>62.2</ele>
        <time>2022-10-05T13:54:27Z</time>
      </trkpt>
      <trkpt lat="49.71916" lon="2.35357">
        <ele>62.2</ele>
        <time>2022-10-05T13:54:29Z</time>
      </trkpt>
      <trkpt lat="49.71917" lon="2.35356">
        <ele>62.2</ele>
        <time>2022-10-05T13:54:30Z</time>
      </trkpt>
      <trkpt lat="49.71919" lon="2.35356">
        <ele>62.1</ele>
        <time>2022-10-05T13:54:31Z</time>
      </trkpt>
      <trkpt lat="49.71921" lon="2.35356">
        <ele>62.1</ele>
        <time>2022-10-05T13:54:33Z</time>
      </trkpt>
      <trkpt lat="49.71922" lon="2.35356">
        <ele>62</ele>
        <time>2022-10-05T13:54:34Z</time>
      </trkpt>
      <trkpt lat="49.71924" lon="2.35355">
        <ele>62</ele>
        <time>2022-10-05T13:54:35Z</time>
      </trkpt>
      <trkpt lat="49.71925" lon="2.35354">
        <ele>62</ele>
        <time>2022-10-05T13:54:36Z</time>
      </trkpt>
      <trkpt lat="49.71926" lon="2.35354">
        <ele>61.9</ele>
        <time>2022-10-05T13:54:37Z</time>
      </trkpt>
      <trkpt lat="49.71928" lon="2.35353">
        <ele>61.9</ele>
        <time>2022-10-05T13:54:38Z</time>
      </trkpt>
      <trkpt lat="49.71929" lon="2.35352">
        <ele>61.8</ele>
        <time>2022-10-05T13:54:39Z</time>
      </trkpt>
      <trkpt lat="49.71931" lon="2.35351">
        <ele>61.8</ele>
        <time>2022-10-05T13:54:41Z</time>
      </trkpt>
      <trkpt lat="49.71932" lon="2.35351">
        <ele>61.8</ele>
        <time>2022-10-05T13:54:42Z</time>
      </trkpt>
      <trkpt lat="49.71934" lon="2.35349">
        <ele>61.7</ele>
        <time>2022-10-05T13:54:43Z</time>
      </trkpt>
      <trkpt lat="49.71935" lon="2.35349">
        <ele>61.7</ele>
        <time>2022-10-05T13:54:44Z</time>
      </trkpt>
      <trkpt lat="49.71936" lon="2.35348">
        <ele>61.6</ele>
        <time>2022-10-05T13:54:45Z</time>
      </trkpt>
      <trkpt lat="49.71937" lon="2.35347">
        <ele>61.6</ele>
        <time>2022-10-05T13:54:46Z</time>
      </trkpt>
      <trkpt lat="49.71939" lon="2.35346">
        <ele>61.5</ele>
        <time>2022-10-05T13:54:47Z</time>
      </trkpt>
      <trkpt lat="49.7194" lon="2.35346">
        <ele>61.5</ele>
        <time>2022-10-05T13:54:48Z</time>
      </trkpt>
      <trkpt lat="49.71942" lon="2.35344">
        <ele>61.4</ele>
        <time>2022-10-05T13:54:50Z</time>
      </trkpt>
      <trkpt lat="49.71944" lon="2.35343">
        <ele>61.3</ele>
        <time>2022-10-05T13:54:51Z</time>
      </trkpt>
      <trkpt lat="49.71945" lon="2.35342">
        <ele>61.3</ele>
        <time>2022-10-05T13:54:52Z</time>
      </trkpt>
      <trkpt lat="49.71947" lon="2.35341">
        <ele>61.2</ele>
        <time>2022-10-05T13:54:53Z</time>
      </trkpt>
      <trkpt lat="49.71948" lon="2.35341">
        <ele>61.1</ele>
        <time>2022-10-05T13:54:54Z</time>
      </trkpt>
      <trkpt lat="49.7195" lon="2.3534">
        <ele>61.1</ele>
        <time>2022-10-05T13:54:55Z</time>
      </trkpt>
      <trkpt lat="49.71951" lon="2.35339">
        <ele>61</ele>
        <time>2022-10-05T13:54:56Z</time>
      </trkpt>
      <trkpt lat="49.71953" lon="2.35338">
        <ele>60.9</ele>
        <time>2022-10-05T13:54:58Z</time>
      </trkpt>
      <trkpt lat="49.71955" lon="2.35337">
        <ele>60.8</ele>
        <time>2022-10-05T13:54:59Z</time>
      </trkpt>
      <trkpt lat="49.71956" lon="2.35337">
        <ele>60.7</ele>
        <time>2022-10-05T13:55:00Z</time>
      </trkpt>
      <trkpt lat="49.71958" lon="2.35336">
        <ele>60.7</ele>
        <time>2022-10-05T13:55:01Z</time>
      </trkpt>
      <trkpt lat="49.71959" lon="2.35336">
        <ele>60.6</ele>
        <time>2022-10-05T13:55:02Z</time>
      </trkpt>
      <trkpt lat="49.7196" lon="2.35335">
        <ele>60.5</ele>
        <time>2022-10-05T13:55:04Z</time>
      </trkpt>
      <trkpt lat="49.71962" lon="2.35334">
        <ele>60.5</ele>
        <time>2022-10-05T13:55:05Z</time>
      </trkpt>
      <trkpt lat="49.71963" lon="2.35333">
        <ele>60.4</ele>
        <time>2022-10-05T13:55:06Z</time>
      </trkpt>
      <trkpt lat="49.71965" lon="2.35332">
        <ele>60.3</ele>
        <time>2022-10-05T13:55:07Z</time>
      </trkpt>
      <trkpt lat="49.71966" lon="2.35331">
        <ele>60.3</ele>
        <time>2022-10-05T13:55:08Z</time>
      </trkpt>
      <trkpt lat="49.71968" lon="2.3533">
        <ele>60.2</ele>
        <time>2022-10-05T13:55:10Z</time>
      </trkpt>
      <trkpt lat="49.71969" lon="2.35329">
        <ele>60.1</ele>
        <time>2022-10-05T13:55:11Z</time>
      </trkpt>
      <trkpt lat="49.7197" lon="2.35328">
        <ele>60.1</ele>
        <time>2022-10-05T13:55:12Z</time>
      </trkpt>
      <trkpt lat="49.71972" lon="2.35327">
        <ele>60</ele>
        <time>2022-10-05T13:55:13Z</time>
      </trkpt>
      <trkpt lat="49.71973" lon="2.35326">
        <ele>59.9</ele>
        <time>2022-10-05T13:55:14Z</time>
      </trkpt>
      <trkpt lat="49.71974" lon="2.35325">
        <ele>59.9</ele>
        <time>2022-10-05T13:55:15Z</time>
      </trkpt>
      <trkpt lat="49.71975" lon="2.35324">
        <ele>59.8</ele>
        <time>2022-10-05T13:55:16Z</time>
      </trkpt>
      <trkpt lat="49.71977" lon="2.35323">
        <ele>59.7</ele>
        <time>2022-10-05T13:55:17Z</time>
      </trkpt>
      <trkpt lat="49.71978" lon="2.35322">
        <ele>59.7</ele>
        <time>2022-10-05T13:55:18Z</time>
      </trkpt>
      <trkpt lat="49.7198" lon="2.35321">
        <ele>59.6</ele>
        <time>2022-10-05T13:55:19Z</time>
      </trkpt>
      <trkpt lat="49.71981" lon="2.3532">
        <ele>59.6</ele>
        <time>2022-10-05T13:55:20Z</time>
      </trkpt>
      <trkpt lat="49.71982" lon="2.35319">
        <ele>59.5</ele>
        <time>2022-10-05T13:55:21Z</time>
      </trkpt>
      <trkpt lat="49.71984" lon="2.35318">
        <ele>59.4</ele>
        <time>2022-10-05T13:55:22Z</time>
      </trkpt>
      <trkpt lat="49.71985" lon="2.35317">
        <ele>59.4</ele>
        <time>2022-10-05T13:55:23Z</time>
      </trkpt>
      <trkpt lat="49.71986" lon="2.35316">
        <ele>59.4</ele>
        <time>2022-10-05T13:55:24Z</time>
      </trkpt>
      <trkpt lat="49.71987" lon="2.35316">
        <ele>59.3</ele>
        <time>2022-10-05T13:55:25Z</time>
      </trkpt>
      <trkpt lat="49.71988" lon="2.35316">
        <ele>59.3</ele>
        <time>2022-10-05T13:55:26Z</time>
      </trkpt>
      <trkpt lat="49.71989" lon="2.35315">
        <ele>59.2</ele>
        <time>2022-10-05T13:55:27Z</time>
      </trkpt>
      <trkpt lat="49.71991" lon="2.35314">
        <ele>59.2</ele>
        <time>2022-10-05T13:55:28Z</time>
      </trkpt>
      <trkpt lat="49.71992" lon="2.35313">
        <ele>59.1</ele>
        <time>2022-10-05T13:55:29Z</time>
      </trkpt>
      <trkpt lat="49.71993" lon="2.35313">
        <ele>59.1</ele>
        <time>2022-10-05T13:55:30Z</time>
      </trkpt>
      <trkpt lat="49.71995" lon="2.35312">
        <ele>59</ele>
        <time>2022-10-05T13:55:31Z</time>
      </trkpt>
      <trkpt lat="49.71995" lon="2.35312">
        <ele>59</ele>
        <time>2022-10-05T13:55:32Z</time>
      </trkpt>
      <trkpt lat="49.71996" lon="2.35312">
        <ele>59</ele>
        <time>2022-10-05T13:55:33Z</time>
      </trkpt>
      <trkpt lat="49.71997" lon="2.35311">
        <ele>59</ele>
        <time>2022-10-05T13:55:34Z</time>
      </trkpt>
      <trkpt lat="49.71998" lon="2.3531">
        <ele>58.9</ele>
        <time>2022-10-05T13:55:35Z</time>
      </trkpt>
      <trkpt lat="49.72" lon="2.35309">
        <ele>58.9</ele>
        <time>2022-10-05T13:55:36Z</time>
      </trkpt>
      <trkpt lat="49.72002" lon="2.35308">
        <ele>58.8</ele>
        <time>2022-10-05T13:55:37Z</time>
      </trkpt>
      <trkpt lat="49.72003" lon="2.35307">
        <ele>58.8</ele>
        <time>2022-10-05T13:55:39Z</time>
      </trkpt>
      <trkpt lat="49.72004" lon="2.35307">
        <ele>58.7</ele>
        <time>2022-10-05T13:55:40Z</time>
      </trkpt>
      <trkpt lat="49.72005" lon="2.35307">
        <ele>58.7</ele>
        <time>2022-10-05T13:55:41Z</time>
      </trkpt>
      <trkpt lat="49.72006" lon="2.35307">
        <ele>58.7</ele>
        <time>2022-10-05T13:55:42Z</time>
      </trkpt>
      <trkpt lat="49.72007" lon="2.35307">
        <ele>58.7</ele>
        <time>2022-10-05T13:55:43Z</time>
      </trkpt>
      <trkpt lat="49.72008" lon="2.35305">
        <ele>58.6</ele>
        <time>2022-10-05T13:55:44Z</time>
      </trkpt>
      <trkpt lat="49.72009" lon="2.35304">
        <ele>58.6</ele>
        <time>2022-10-05T13:55:45Z</time>
      </trkpt>
      <trkpt lat="49.7201" lon="2.35303">
        <ele>58.6</ele>
        <time>2022-10-05T13:55:46Z</time>
      </trkpt>
      <trkpt lat="49.72011" lon="2.35302">
        <ele>58.5</ele>
        <time>2022-10-05T13:55:47Z</time>
      </trkpt>
      <trkpt lat="49.72012" lon="2.35301">
        <ele>58.5</ele>
        <time>2022-10-05T13:55:49Z</time>
      </trkpt>
      <trkpt lat="49.72014" lon="2.35299">
        <ele>58.5</ele>
        <time>2022-10-05T13:55:50Z</time>
      </trkpt>
      <trkpt lat="49.72015" lon="2.35299">
        <ele>58.5</ele>
        <time>2022-10-05T13:55:51Z</time>
      </trkpt>
      <trkpt lat="49.72016" lon="2.35299">
        <ele>58.4</ele>
        <time>2022-10-05T13:55:52Z</time>
      </trkpt>
      <trkpt lat="49.72018" lon="2.35297">
        <ele>58.4</ele>
        <time>2022-10-05T13:55:53Z</time>
      </trkpt>
      <trkpt lat="49.72018" lon="2.35297">
        <ele>58.4</ele>
        <time>2022-10-05T13:55:54Z</time>
      </trkpt>
      <trkpt lat="49.72019" lon="2.35296">
        <ele>58.4</ele>
        <time>2022-10-05T13:55:55Z</time>
      </trkpt>
      <trkpt lat="49.7202" lon="2.35295">
        <ele>58.3</ele>
        <time>2022-10-05T13:55:56Z</time>
      </trkpt>
      <trkpt lat="49.72021" lon="2.35294">
        <ele>58.3</ele>
        <time>2022-10-05T13:55:57Z</time>
      </trkpt>
      <trkpt lat="49.72022" lon="2.35294">
        <ele>58.3</ele>
        <time>2022-10-05T13:55:58Z</time>
      </trkpt>
      <trkpt lat="49.72024" lon="2.35293">
        <ele>58.3</ele>
        <time>2022-10-05T13:55:59Z</time>
      </trkpt>
      <trkpt lat="49.72025" lon="2.35292">
        <ele>58.2</ele>
        <time>2022-10-05T13:56:00Z</time>
      </trkpt>
      <trkpt lat="49.72027" lon="2.3529">
        <ele>58.2</ele>
        <time>2022-10-05T13:56:01Z</time>
      </trkpt>
      <trkpt lat="49.72028" lon="2.3529">
        <ele>58.2</ele>
        <time>2022-10-05T13:56:02Z</time>
      </trkpt>
      <trkpt lat="49.7203" lon="2.35288">
        <ele>58.2</ele>
        <time>2022-10-05T13:56:03Z</time>
      </trkpt>
      <trkpt lat="49.72033" lon="2.35287">
        <ele>58.1</ele>
        <time>2022-10-05T13:56:05Z</time>
      </trkpt>
      <trkpt lat="49.72036" lon="2.35285">
        <ele>58.1</ele>
        <time>2022-10-05T13:56:06Z</time>
      </trkpt>
      <trkpt lat="49.72037" lon="2.35284">
        <ele>58.1</ele>
        <time>2022-10-05T13:56:07Z</time>
      </trkpt>
      <trkpt lat="49.7204" lon="2.35283">
        <ele>58</ele>
        <time>2022-10-05T13:56:08Z</time>
      </trkpt>
      <trkpt lat="49.72041" lon="2.35283">
        <ele>58</ele>
        <time>2022-10-05T13:56:09Z</time>
      </trkpt>
      <trkpt lat="49.72044" lon="2.35281">
        <ele>58</ele>
        <time>2022-10-05T13:56:10Z</time>
      </trkpt>
      <trkpt lat="49.72045" lon="2.3528">
        <ele>58</ele>
        <time>2022-10-05T13:56:11Z</time>
      </trkpt>
      <trkpt lat="49.72048" lon="2.35278">
        <ele>57.9</ele>
        <time>2022-10-05T13:56:12Z</time>
      </trkpt>
      <trkpt lat="49.72049" lon="2.35278">
        <ele>57.9</ele>
        <time>2022-10-05T13:56:13Z</time>
      </trkpt>
      <trkpt lat="49.7205" lon="2.35277">
        <ele>57.9</ele>
        <time>2022-10-05T13:56:15Z</time>
      </trkpt>
      <trkpt lat="49.72052" lon="2.35276">
        <ele>57.9</ele>
        <time>2022-10-05T13:56:16Z</time>
      </trkpt>
      <trkpt lat="49.72055" lon="2.35274">
        <ele>57.8</ele>
        <time>2022-10-05T13:56:17Z</time>
      </trkpt>
      <trkpt lat="49.72056" lon="2.35273">
        <ele>57.8</ele>
        <time>2022-10-05T13:56:18Z</time>
      </trkpt>
      <trkpt lat="49.72057" lon="2.35272">
        <ele>57.8</ele>
        <time>2022-10-05T13:56:19Z</time>
      </trkpt>
      <trkpt lat="49.72059" lon="2.35271">
        <ele>57.7</ele>
        <time>2022-10-05T13:56:21Z</time>
      </trkpt>
      <trkpt lat="49.7206" lon="2.3527">
        <ele>57.7</ele>
        <time>2022-10-05T13:56:22Z</time>
      </trkpt>
      <trkpt lat="49.72062" lon="2.35269">
        <ele>57.7</ele>
        <time>2022-10-05T13:56:23Z</time>
      </trkpt>
      <trkpt lat="49.72064" lon="2.35267">
        <ele>57.7</ele>
        <time>2022-10-05T13:56:24Z</time>
      </trkpt>
      <trkpt lat="49.72065" lon="2.35267">
        <ele>57.7</ele>
        <time>2022-10-05T13:56:25Z</time>
      </trkpt>
      <trkpt lat="49.72065" lon="2.35266">
        <ele>57.6</ele>
        <time>2022-10-05T13:56:26Z</time>
      </trkpt>
      <trkpt lat="49.72066" lon="2.35267">
        <ele>57.6</ele>
        <time>2022-10-05T13:56:27Z</time>
      </trkpt>
      <trkpt lat="49.72067" lon="2.35266">
        <ele>57.6</ele>
        <time>2022-10-05T13:56:28Z</time>
      </trkpt>
      <trkpt lat="49.72068" lon="2.35266">
        <ele>57.6</ele>
        <time>2022-10-05T13:56:29Z</time>
      </trkpt>
      <trkpt lat="49.7207" lon="2.35264">
        <ele>57.6</ele>
        <time>2022-10-05T13:56:31Z</time>
      </trkpt>
      <trkpt lat="49.72071" lon="2.35263">
        <ele>57.6</ele>
        <time>2022-10-05T13:56:32Z</time>
      </trkpt>
      <trkpt lat="49.72072" lon="2.35263">
        <ele>57.6</ele>
        <time>2022-10-05T13:56:33Z</time>
      </trkpt>
      <trkpt lat="49.72073" lon="2.35262">
        <ele>57.6</ele>
        <time>2022-10-05T13:56:34Z</time>
      </trkpt>
      <trkpt lat="49.72074" lon="2.35261">
        <ele>57.6</ele>
        <time>2022-10-05T13:56:35Z</time>
      </trkpt>
      <trkpt lat="49.72075" lon="2.3526">
        <ele>57.6</ele>
        <time>2022-10-05T13:56:36Z</time>
      </trkpt>
      <trkpt lat="49.72075" lon="2.3526">
        <ele>57.6</ele>
        <time>2022-10-05T13:56:37Z</time>
      </trkpt>
      <trkpt lat="49.72077" lon="2.35258">
        <ele>57.6</ele>
        <time>2022-10-05T13:56:38Z</time>
      </trkpt>
      <trkpt lat="49.72078" lon="2.35257">
        <ele>57.6</ele>
        <time>2022-10-05T13:56:39Z</time>
      </trkpt>
      <trkpt lat="49.72079" lon="2.35257">
        <ele>57.6</ele>
        <time>2022-10-05T13:56:40Z</time>
      </trkpt>
      <trkpt lat="49.72079" lon="2.35256">
        <ele>57.5</ele>
        <time>2022-10-05T13:56:41Z</time>
      </trkpt>
      <trkpt lat="49.72081" lon="2.35255">
        <ele>57.5</ele>
        <time>2022-10-05T13:56:42Z</time>
      </trkpt>
      <trkpt lat="49.72082" lon="2.35254">
        <ele>57.5</ele>
        <time>2022-10-05T13:56:43Z</time>
      </trkpt>
      <trkpt lat="49.72083" lon="2.35253">
        <ele>57.5</ele>
        <time>2022-10-05T13:56:44Z</time>
      </trkpt>
      <trkpt lat="49.72083" lon="2.35253">
        <ele>57.5</ele>
        <time>2022-10-05T13:56:45Z</time>
      </trkpt>
      <trkpt lat="49.72084" lon="2.35251">
        <ele>57.5</ele>
        <time>2022-10-05T13:56:46Z</time>
      </trkpt>
      <trkpt lat="49.72085" lon="2.3525">
        <ele>57.5</ele>
        <time>2022-10-05T13:56:47Z</time>
      </trkpt>
      <trkpt lat="49.72087" lon="2.35248">
        <ele>57.5</ele>
        <time>2022-10-05T13:56:48Z</time>
      </trkpt>
      <trkpt lat="49.72088" lon="2.35246">
        <ele>57.5</ele>
        <time>2022-10-05T13:56:50Z</time>
      </trkpt>
      <trkpt lat="49.72089" lon="2.35245">
        <ele>57.5</ele>
        <time>2022-10-05T13:56:51Z</time>
      </trkpt>
      <trkpt lat="49.7209" lon="2.35245">
        <ele>57.5</ele>
        <time>2022-10-05T13:56:52Z</time>
      </trkpt>
      <trkpt lat="49.72089" lon="2.35244">
        <ele>57.5</ele>
        <time>2022-10-05T13:56:53Z</time>
      </trkpt>
      <trkpt lat="49.7209" lon="2.35243">
        <ele>57.5</ele>
        <time>2022-10-05T13:56:54Z</time>
      </trkpt>
      <trkpt lat="49.7209" lon="2.35242">
        <ele>57.5</ele>
        <time>2022-10-05T13:56:55Z</time>
      </trkpt>
      <trkpt lat="49.72091" lon="2.35241">
        <ele>57.5</ele>
        <time>2022-10-05T13:56:56Z</time>
      </trkpt>
      <trkpt lat="49.72092" lon="2.3524">
        <ele>57.5</ele>
        <time>2022-10-05T13:56:57Z</time>
      </trkpt>
      <trkpt lat="49.72093" lon="2.35239">
        <ele>57.5</ele>
        <time>2022-10-05T13:56:58Z</time>
      </trkpt>
      <trkpt lat="49.72094" lon="2.35238">
        <ele>57.5</ele>
        <time>2022-10-05T13:56:59Z</time>
      </trkpt>
      <trkpt lat="49.72095" lon="2.35237">
        <ele>57.5</ele>
        <time>2022-10-05T13:57:00Z</time>
      </trkpt>
      <trkpt lat="49.72096" lon="2.35235">
        <ele>57.6</ele>
        <time>2022-10-05T13:57:01Z</time>
      </trkpt>
      <trkpt lat="49.72098" lon="2.35234">
        <ele>57.6</ele>
        <time>2022-10-05T13:57:02Z</time>
      </trkpt>
      <trkpt lat="49.72098" lon="2.35233">
        <ele>57.6</ele>
        <time>2022-10-05T13:57:03Z</time>
      </trkpt>
      <trkpt lat="49.72099" lon="2.35232">
        <ele>57.6</ele>
        <time>2022-10-05T13:57:04Z</time>
      </trkpt>
      <trkpt lat="49.72101" lon="2.3523">
        <ele>57.6</ele>
        <time>2022-10-05T13:57:05Z</time>
      </trkpt>
      <trkpt lat="49.72102" lon="2.3523">
        <ele>57.6</ele>
        <time>2022-10-05T13:57:06Z</time>
      </trkpt>
      <trkpt lat="49.72102" lon="2.35229">
        <ele>57.6</ele>
        <time>2022-10-05T13:57:07Z</time>
      </trkpt>
      <trkpt lat="49.72104" lon="2.35227">
        <ele>57.6</ele>
        <time>2022-10-05T13:57:08Z</time>
      </trkpt>
      <trkpt lat="49.72105" lon="2.35226">
        <ele>57.7</ele>
        <time>2022-10-05T13:57:09Z</time>
      </trkpt>
      <trkpt lat="49.72106" lon="2.35225">
        <ele>57.7</ele>
        <time>2022-10-05T13:57:10Z</time>
      </trkpt>
      <trkpt lat="49.72107" lon="2.35223">
        <ele>57.7</ele>
        <time>2022-10-05T13:57:11Z</time>
      </trkpt>
      <trkpt lat="49.7211" lon="2.3522">
        <ele>57.7</ele>
        <time>2022-10-05T13:57:12Z</time>
      </trkpt>
      <trkpt lat="49.7211" lon="2.35219">
        <ele>57.7</ele>
        <time>2022-10-05T13:57:13Z</time>
      </trkpt>
      <trkpt lat="49.72112" lon="2.35218">
        <ele>57.8</ele>
        <time>2022-10-05T13:57:14Z</time>
      </trkpt>
      <trkpt lat="49.72113" lon="2.35216">
        <ele>57.8</ele>
        <time>2022-10-05T13:57:15Z</time>
      </trkpt>
      <trkpt lat="49.72116" lon="2.35214">
        <ele>57.8</ele>
        <time>2022-10-05T13:57:17Z</time>
      </trkpt>
      <trkpt lat="49.72116" lon="2.35213">
        <ele>57.8</ele>
        <time>2022-10-05T13:57:18Z</time>
      </trkpt>
      <trkpt lat="49.72118" lon="2.35211">
        <ele>57.8</ele>
        <time>2022-10-05T13:57:19Z</time>
      </trkpt>
      <trkpt lat="49.7212" lon="2.3521">
        <ele>57.8</ele>
        <time>2022-10-05T13:57:21Z</time>
      </trkpt>
      <trkpt lat="49.72121" lon="2.35208">
        <ele>57.8</ele>
        <time>2022-10-05T13:57:22Z</time>
      </trkpt>
      <trkpt lat="49.72122" lon="2.35208">
        <ele>57.8</ele>
        <time>2022-10-05T13:57:23Z</time>
      </trkpt>
      <trkpt lat="49.72124" lon="2.35206">
        <ele>57.8</ele>
        <time>2022-10-05T13:57:24Z</time>
      </trkpt>
      <trkpt lat="49.72125" lon="2.35205">
        <ele>57.8</ele>
        <time>2022-10-05T13:57:25Z</time>
      </trkpt>
      <trkpt lat="49.72126" lon="2.35204">
        <ele>57.8</ele>
        <time>2022-10-05T13:57:26Z</time>
      </trkpt>
      <trkpt lat="49.72127" lon="2.35203">
        <ele>57.8</ele>
        <time>2022-10-05T13:57:27Z</time>
      </trkpt>
      <trkpt lat="49.72128" lon="2.35202">
        <ele>57.8</ele>
        <time>2022-10-05T13:57:28Z</time>
      </trkpt>
      <trkpt lat="49.72129" lon="2.35202">
        <ele>57.8</ele>
        <time>2022-10-05T13:57:29Z</time>
      </trkpt>
      <trkpt lat="49.7213" lon="2.35201">
        <ele>57.8</ele>
        <time>2022-10-05T13:57:30Z</time>
      </trkpt>
      <trkpt lat="49.72131" lon="2.352">
        <ele>57.8</ele>
        <time>2022-10-05T13:57:31Z</time>
      </trkpt>
      <trkpt lat="49.72132" lon="2.352">
        <ele>57.8</ele>
        <time>2022-10-05T13:57:33Z</time>
      </trkpt>
      <trkpt lat="49.72133" lon="2.35199">
        <ele>57.8</ele>
        <time>2022-10-05T13:57:34Z</time>
      </trkpt>
      <trkpt lat="49.72134" lon="2.35198">
        <ele>57.8</ele>
        <time>2022-10-05T13:57:35Z</time>
      </trkpt>
      <trkpt lat="49.72135" lon="2.35198">
        <ele>57.8</ele>
        <time>2022-10-05T13:57:36Z</time>
      </trkpt>
      <trkpt lat="49.72136" lon="2.35197">
        <ele>57.8</ele>
        <time>2022-10-05T13:57:37Z</time>
      </trkpt>
      <trkpt lat="49.72137" lon="2.35196">
        <ele>57.8</ele>
        <time>2022-10-05T13:57:38Z</time>
      </trkpt>
      <trkpt lat="49.72138" lon="2.35195">
        <ele>57.8</ele>
        <time>2022-10-05T13:57:39Z</time>
      </trkpt>
      <trkpt lat="49.7214" lon="2.35194">
        <ele>57.8</ele>
        <time>2022-10-05T13:57:40Z</time>
      </trkpt>
      <trkpt lat="49.72141" lon="2.35193">
        <ele>57.7</ele>
        <time>2022-10-05T13:57:41Z</time>
      </trkpt>
      <trkpt lat="49.72142" lon="2.35192">
        <ele>57.7</ele>
        <time>2022-10-05T13:57:42Z</time>
      </trkpt>
      <trkpt lat="49.72142" lon="2.35192">
        <ele>57.7</ele>
        <time>2022-10-05T13:57:43Z</time>
      </trkpt>
      <trkpt lat="49.72143" lon="2.35191">
        <ele>57.7</ele>
        <time>2022-10-05T13:57:44Z</time>
      </trkpt>
      <trkpt lat="49.72145" lon="2.35189">
        <ele>57.7</ele>
        <time>2022-10-05T13:57:45Z</time>
      </trkpt>
      <trkpt lat="49.72145" lon="2.35188">
        <ele>57.7</ele>
        <time>2022-10-05T13:57:46Z</time>
      </trkpt>
      <trkpt lat="49.72146" lon="2.35187">
        <ele>57.7</ele>
        <time>2022-10-05T13:57:47Z</time>
      </trkpt>
      <trkpt lat="49.72147" lon="2.35186">
        <ele>57.7</ele>
        <time>2022-10-05T13:57:48Z</time>
      </trkpt>
      <trkpt lat="49.72149" lon="2.35184">
        <ele>57.7</ele>
        <time>2022-10-05T13:57:49Z</time>
      </trkpt>
      <trkpt lat="49.72149" lon="2.35183">
        <ele>57.7</ele>
        <time>2022-10-05T13:57:50Z</time>
      </trkpt>
      <trkpt lat="49.7215" lon="2.35182">
        <ele>57.7</ele>
        <time>2022-10-05T13:57:51Z</time>
      </trkpt>
      <trkpt lat="49.72151" lon="2.35181">
        <ele>57.6</ele>
        <time>2022-10-05T13:57:52Z</time>
      </trkpt>
      <trkpt lat="49.72152" lon="2.3518">
        <ele>57.6</ele>
        <time>2022-10-05T13:57:53Z</time>
      </trkpt>
      <trkpt lat="49.72154" lon="2.35177">
        <ele>57.6</ele>
        <time>2022-10-05T13:57:54Z</time>
      </trkpt>
      <trkpt lat="49.72155" lon="2.35176">
        <ele>57.6</ele>
        <time>2022-10-05T13:57:56Z</time>
      </trkpt>
      <trkpt lat="49.72156" lon="2.35175">
        <ele>57.6</ele>
        <time>2022-10-05T13:57:57Z</time>
      </trkpt>
      <trkpt lat="49.72157" lon="2.35174">
        <ele>57.6</ele>
        <time>2022-10-05T13:57:58Z</time>
      </trkpt>
      <trkpt lat="49.72159" lon="2.35172">
        <ele>57.6</ele>
        <time>2022-10-05T13:57:59Z</time>
      </trkpt>
      <trkpt lat="49.72159" lon="2.35172">
        <ele>57.6</ele>
        <time>2022-10-05T13:58:00Z</time>
      </trkpt>
      <trkpt lat="49.7216" lon="2.35171">
        <ele>57.6</ele>
        <time>2022-10-05T13:58:01Z</time>
      </trkpt>
      <trkpt lat="49.72161" lon="2.3517">
        <ele>57.6</ele>
        <time>2022-10-05T13:58:02Z</time>
      </trkpt>
      <trkpt lat="49.72161" lon="2.3517">
        <ele>57.6</ele>
        <time>2022-10-05T13:58:03Z</time>
      </trkpt>
      <trkpt lat="49.72163" lon="2.35168">
        <ele>57.6</ele>
        <time>2022-10-05T13:58:04Z</time>
      </trkpt>
      <trkpt lat="49.72163" lon="2.35167">
        <ele>57.6</ele>
        <time>2022-10-05T13:58:05Z</time>
      </trkpt>
      <trkpt lat="49.72164" lon="2.35165">
        <ele>57.6</ele>
        <time>2022-10-05T13:58:07Z</time>
      </trkpt>
      <trkpt lat="49.72165" lon="2.35164">
        <ele>57.6</ele>
        <time>2022-10-05T13:58:09Z</time>
      </trkpt>
      <trkpt lat="49.72166" lon="2.35163">
        <ele>57.6</ele>
        <time>2022-10-05T13:58:10Z</time>
      </trkpt>
      <trkpt lat="49.72167" lon="2.35163">
        <ele>57.6</ele>
        <time>2022-10-05T13:58:11Z</time>
      </trkpt>
      <trkpt lat="49.72167" lon="2.35162">
        <ele>57.6</ele>
        <time>2022-10-05T13:58:12Z</time>
      </trkpt>
      <trkpt lat="49.72168" lon="2.35161">
        <ele>57.6</ele>
        <time>2022-10-05T13:58:13Z</time>
      </trkpt>
      <trkpt lat="49.72169" lon="2.35161">
        <ele>57.6</ele>
        <time>2022-10-05T13:58:14Z</time>
      </trkpt>
      <trkpt lat="49.7217" lon="2.3516">
        <ele>57.6</ele>
        <time>2022-10-05T13:58:15Z</time>
      </trkpt>
      <trkpt lat="49.7217" lon="2.35159">
        <ele>57.6</ele>
        <time>2022-10-05T13:58:16Z</time>
      </trkpt>
      <trkpt lat="49.72171" lon="2.35158">
        <ele>57.6</ele>
        <time>2022-10-05T13:58:17Z</time>
      </trkpt>
      <trkpt lat="49.72172" lon="2.35157">
        <ele>57.6</ele>
        <time>2022-10-05T13:58:18Z</time>
      </trkpt>
      <trkpt lat="49.72172" lon="2.35157">
        <ele>57.6</ele>
        <time>2022-10-05T13:58:19Z</time>
      </trkpt>
      <trkpt lat="49.72173" lon="2.35156">
        <ele>57.7</ele>
        <time>2022-10-05T13:58:20Z</time>
      </trkpt>
      <trkpt lat="49.72174" lon="2.35155">
        <ele>57.7</ele>
        <time>2022-10-05T13:58:21Z</time>
      </trkpt>
      <trkpt lat="49.72175" lon="2.35154">
        <ele>57.7</ele>
        <time>2022-10-05T13:58:22Z</time>
      </trkpt>
      <trkpt lat="49.72176" lon="2.35153">
        <ele>57.7</ele>
        <time>2022-10-05T13:58:23Z</time>
      </trkpt>
      <trkpt lat="49.72178" lon="2.35151">
        <ele>57.7</ele>
        <time>2022-10-05T13:58:24Z</time>
      </trkpt>
      <trkpt lat="49.72179" lon="2.35151">
        <ele>57.7</ele>
        <time>2022-10-05T13:58:26Z</time>
      </trkpt>
      <trkpt lat="49.7218" lon="2.35151">
        <ele>57.7</ele>
        <time>2022-10-05T13:58:27Z</time>
      </trkpt>
      <trkpt lat="49.72182" lon="2.35149">
        <ele>57.7</ele>
        <time>2022-10-05T13:58:28Z</time>
      </trkpt>
      <trkpt lat="49.72183" lon="2.35148">
        <ele>57.7</ele>
        <time>2022-10-05T13:58:29Z</time>
      </trkpt>
      <trkpt lat="49.72184" lon="2.35146">
        <ele>57.7</ele>
        <time>2022-10-05T13:58:31Z</time>
      </trkpt>
      <trkpt lat="49.72186" lon="2.35145">
        <ele>57.7</ele>
        <time>2022-10-05T13:58:32Z</time>
      </trkpt>
      <trkpt lat="49.72187" lon="2.35144">
        <ele>57.7</ele>
        <time>2022-10-05T13:58:33Z</time>
      </trkpt>
      <trkpt lat="49.72189" lon="2.35143">
        <ele>57.7</ele>
        <time>2022-10-05T13:58:34Z</time>
      </trkpt>
      <trkpt lat="49.72191" lon="2.35142">
        <ele>57.7</ele>
        <time>2022-10-05T13:58:35Z</time>
      </trkpt>
      <trkpt lat="49.72193" lon="2.35141">
        <ele>57.7</ele>
        <time>2022-10-05T13:58:37Z</time>
      </trkpt>
      <trkpt lat="49.72194" lon="2.3514">
        <ele>57.8</ele>
        <time>2022-10-05T13:58:38Z</time>
      </trkpt>
      <trkpt lat="49.72196" lon="2.35139">
        <ele>57.8</ele>
        <time>2022-10-05T13:58:39Z</time>
      </trkpt>
      <trkpt lat="49.72197" lon="2.35137">
        <ele>57.8</ele>
        <time>2022-10-05T13:58:40Z</time>
      </trkpt>
      <trkpt lat="49.72199" lon="2.35136">
        <ele>57.8</ele>
        <time>2022-10-05T13:58:41Z</time>
      </trkpt>
      <trkpt lat="49.722" lon="2.35135">
        <ele>57.8</ele>
        <time>2022-10-05T13:58:42Z</time>
      </trkpt>
      <trkpt lat="49.72201" lon="2.35135">
        <ele>57.8</ele>
        <time>2022-10-05T13:58:43Z</time>
      </trkpt>
      <trkpt lat="49.72202" lon="2.35134">
        <ele>57.8</ele>
        <time>2022-10-05T13:58:44Z</time>
      </trkpt>
      <trkpt lat="49.72203" lon="2.35133">
        <ele>57.8</ele>
        <time>2022-10-05T13:58:45Z</time>
      </trkpt>
      <trkpt lat="49.72205" lon="2.35132">
        <ele>57.9</ele>
        <time>2022-10-05T13:58:46Z</time>
      </trkpt>
      <trkpt lat="49.72206" lon="2.35132">
        <ele>57.9</ele>
        <time>2022-10-05T13:58:47Z</time>
      </trkpt>
      <trkpt lat="49.72207" lon="2.35131">
        <ele>57.9</ele>
        <time>2022-10-05T13:58:48Z</time>
      </trkpt>
      <trkpt lat="49.72209" lon="2.3513">
        <ele>57.9</ele>
        <time>2022-10-05T13:58:49Z</time>
      </trkpt>
      <trkpt lat="49.7221" lon="2.35129">
        <ele>58</ele>
        <time>2022-10-05T13:58:50Z</time>
      </trkpt>
      <trkpt lat="49.72213" lon="2.35127">
        <ele>58</ele>
        <time>2022-10-05T13:58:52Z</time>
      </trkpt>
      <trkpt lat="49.72214" lon="2.35127">
        <ele>58.1</ele>
        <time>2022-10-05T13:58:53Z</time>
      </trkpt>
      <trkpt lat="49.72215" lon="2.35126">
        <ele>58.1</ele>
        <time>2022-10-05T13:58:54Z</time>
      </trkpt>
      <trkpt lat="49.72216" lon="2.35125">
        <ele>58.1</ele>
        <time>2022-10-05T13:58:55Z</time>
      </trkpt>
      <trkpt lat="49.72217" lon="2.35124">
        <ele>58.1</ele>
        <time>2022-10-05T13:58:56Z</time>
      </trkpt>
      <trkpt lat="49.72218" lon="2.35123">
        <ele>58.2</ele>
        <time>2022-10-05T13:58:57Z</time>
      </trkpt>
      <trkpt lat="49.72218" lon="2.35122">
        <ele>58.2</ele>
        <time>2022-10-05T13:58:58Z</time>
      </trkpt>
      <trkpt lat="49.72218" lon="2.35121">
        <ele>58.2</ele>
        <time>2022-10-05T13:58:59Z</time>
      </trkpt>
      <trkpt lat="49.72219" lon="2.3512">
        <ele>58.2</ele>
        <time>2022-10-05T13:59:00Z</time>
      </trkpt>
      <trkpt lat="49.7222" lon="2.3512">
        <ele>58.3</ele>
        <time>2022-10-05T13:59:02Z</time>
      </trkpt>
      <trkpt lat="49.72221" lon="2.35119">
        <ele>58.3</ele>
        <time>2022-10-05T13:59:03Z</time>
      </trkpt>
      <trkpt lat="49.72222" lon="2.35118">
        <ele>58.3</ele>
        <time>2022-10-05T13:59:04Z</time>
      </trkpt>
      <trkpt lat="49.72223" lon="2.35118">
        <ele>58.3</ele>
        <time>2022-10-05T13:59:05Z</time>
      </trkpt>
      <trkpt lat="49.72224" lon="2.35117">
        <ele>58.4</ele>
        <time>2022-10-05T13:59:06Z</time>
      </trkpt>
      <trkpt lat="49.72225" lon="2.35116">
        <ele>58.4</ele>
        <time>2022-10-05T13:59:07Z</time>
      </trkpt>
      <trkpt lat="49.72227" lon="2.35115">
        <ele>58.4</ele>
        <time>2022-10-05T13:59:08Z</time>
      </trkpt>
      <trkpt lat="49.72228" lon="2.35114">
        <ele>58.5</ele>
        <time>2022-10-05T13:59:09Z</time>
      </trkpt>
      <trkpt lat="49.72229" lon="2.35113">
        <ele>58.5</ele>
        <time>2022-10-05T13:59:10Z</time>
      </trkpt>
      <trkpt lat="49.7223" lon="2.35112">
        <ele>58.5</ele>
        <time>2022-10-05T13:59:11Z</time>
      </trkpt>
      <trkpt lat="49.7223" lon="2.35112">
        <ele>58.5</ele>
        <time>2022-10-05T13:59:12Z</time>
      </trkpt>
      <trkpt lat="49.72232" lon="2.35111">
        <ele>58.6</ele>
        <time>2022-10-05T13:59:14Z</time>
      </trkpt>
      <trkpt lat="49.72233" lon="2.35111">
        <ele>58.6</ele>
        <time>2022-10-05T13:59:15Z</time>
      </trkpt>
      <trkpt lat="49.72236" lon="2.35109">
        <ele>58.6</ele>
        <time>2022-10-05T13:59:16Z</time>
      </trkpt>
      <trkpt lat="49.72237" lon="2.35108">
        <ele>58.7</ele>
        <time>2022-10-05T13:59:17Z</time>
      </trkpt>
      <trkpt lat="49.72239" lon="2.35107">
        <ele>58.7</ele>
        <time>2022-10-05T13:59:18Z</time>
      </trkpt>
      <trkpt lat="49.7224" lon="2.35106">
        <ele>58.7</ele>
        <time>2022-10-05T13:59:19Z</time>
      </trkpt>
      <trkpt lat="49.72241" lon="2.35106">
        <ele>58.7</ele>
        <time>2022-10-05T13:59:20Z</time>
      </trkpt>
      <trkpt lat="49.72243" lon="2.35105">
        <ele>58.7</ele>
        <time>2022-10-05T13:59:22Z</time>
      </trkpt>
      <trkpt lat="49.72245" lon="2.35105">
        <ele>58.7</ele>
        <time>2022-10-05T13:59:23Z</time>
      </trkpt>
      <trkpt lat="49.72246" lon="2.35105">
        <ele>58.7</ele>
        <time>2022-10-05T13:59:24Z</time>
      </trkpt>
      <trkpt lat="49.72247" lon="2.35106">
        <ele>58.7</ele>
        <time>2022-10-05T13:59:26Z</time>
      </trkpt>
      <trkpt lat="49.72248" lon="2.35106">
        <ele>58.7</ele>
        <time>2022-10-05T13:59:27Z</time>
      </trkpt>
      <trkpt lat="49.72249" lon="2.35105">
        <ele>58.7</ele>
        <time>2022-10-05T13:59:28Z</time>
      </trkpt>
      <trkpt lat="49.72251" lon="2.35105">
        <ele>58.7</ele>
        <time>2022-10-05T13:59:29Z</time>
      </trkpt>
      <trkpt lat="49.72252" lon="2.35104">
        <ele>58.7</ele>
        <time>2022-10-05T13:59:30Z</time>
      </trkpt>
      <trkpt lat="49.72254" lon="2.35103">
        <ele>58.6</ele>
        <time>2022-10-05T13:59:31Z</time>
      </trkpt>
      <trkpt lat="49.72255" lon="2.35102">
        <ele>58.6</ele>
        <time>2022-10-05T13:59:32Z</time>
      </trkpt>
      <trkpt lat="49.72257" lon="2.35101">
        <ele>58.6</ele>
        <time>2022-10-05T13:59:34Z</time>
      </trkpt>
      <trkpt lat="49.72258" lon="2.35101">
        <ele>58.5</ele>
        <time>2022-10-05T13:59:35Z</time>
      </trkpt>
      <trkpt lat="49.72259" lon="2.35101">
        <ele>58.5</ele>
        <time>2022-10-05T13:59:36Z</time>
      </trkpt>
      <trkpt lat="49.72261" lon="2.351">
        <ele>58.5</ele>
        <time>2022-10-05T13:59:37Z</time>
      </trkpt>
      <trkpt lat="49.72262" lon="2.351">
        <ele>58.4</ele>
        <time>2022-10-05T13:59:38Z</time>
      </trkpt>
      <trkpt lat="49.72263" lon="2.351">
        <ele>58.4</ele>
        <time>2022-10-05T13:59:39Z</time>
      </trkpt>
      <trkpt lat="49.72265" lon="2.35099">
        <ele>58.4</ele>
        <time>2022-10-05T13:59:40Z</time>
      </trkpt>
      <trkpt lat="49.72266" lon="2.35098">
        <ele>58.4</ele>
        <time>2022-10-05T13:59:41Z</time>
      </trkpt>
      <trkpt lat="49.72266" lon="2.35098">
        <ele>58.4</ele>
        <time>2022-10-05T13:59:42Z</time>
      </trkpt>
      <trkpt lat="49.72267" lon="2.35097">
        <ele>58.3</ele>
        <time>2022-10-05T13:59:43Z</time>
      </trkpt>
      <trkpt lat="49.72268" lon="2.35096">
        <ele>58.3</ele>
        <time>2022-10-05T13:59:44Z</time>
      </trkpt>
      <trkpt lat="49.72269" lon="2.35095">
        <ele>58.3</ele>
        <time>2022-10-05T13:59:45Z</time>
      </trkpt>
      <trkpt lat="49.7227" lon="2.35093">
        <ele>58.2</ele>
        <time>2022-10-05T13:59:46Z</time>
      </trkpt>
      <trkpt lat="49.72271" lon="2.35092">
        <ele>58.2</ele>
        <time>2022-10-05T13:59:47Z</time>
      </trkpt>
      <trkpt lat="49.72271" lon="2.35091">
        <ele>58.2</ele>
        <time>2022-10-05T13:59:48Z</time>
      </trkpt>
      <trkpt lat="49.72272" lon="2.3509">
        <ele>58.2</ele>
        <time>2022-10-05T13:59:49Z</time>
      </trkpt>
      <trkpt lat="49.72273" lon="2.35089">
        <ele>58.2</ele>
        <time>2022-10-05T13:59:50Z</time>
      </trkpt>
      <trkpt lat="49.72275" lon="2.35087">
        <ele>58.1</ele>
        <time>2022-10-05T13:59:51Z</time>
      </trkpt>
      <trkpt lat="49.72275" lon="2.35086">
        <ele>58.1</ele>
        <time>2022-10-05T13:59:53Z</time>
      </trkpt>
      <trkpt lat="49.72276" lon="2.35085">
        <ele>58.1</ele>
        <time>2022-10-05T13:59:54Z</time>
      </trkpt>
      <trkpt lat="49.72277" lon="2.35084">
        <ele>58.1</ele>
        <time>2022-10-05T13:59:55Z</time>
      </trkpt>
      <trkpt lat="49.72278" lon="2.35083">
        <ele>58.1</ele>
        <time>2022-10-05T13:59:56Z</time>
      </trkpt>
      <trkpt lat="49.72279" lon="2.35083">
        <ele>58.1</ele>
        <time>2022-10-05T13:59:58Z</time>
      </trkpt>
      <trkpt lat="49.72279" lon="2.35083">
        <ele>58.1</ele>
        <time>2022-10-05T13:59:59Z</time>
      </trkpt>
      <trkpt lat="49.7228" lon="2.35082">
        <ele>58.1</ele>
        <time>2022-10-05T14:00:00Z</time>
      </trkpt>
      <trkpt lat="49.72281" lon="2.35082">
        <ele>58</ele>
        <time>2022-10-05T14:00:01Z</time>
      </trkpt>
      <trkpt lat="49.72282" lon="2.35081">
        <ele>58</ele>
        <time>2022-10-05T14:00:02Z</time>
      </trkpt>
      <trkpt lat="49.72283" lon="2.35081">
        <ele>58</ele>
        <time>2022-10-05T14:00:03Z</time>
      </trkpt>
      <trkpt lat="49.72284" lon="2.3508">
        <ele>58</ele>
        <time>2022-10-05T14:00:04Z</time>
      </trkpt>
      <trkpt lat="49.72285" lon="2.3508">
        <ele>58</ele>
        <time>2022-10-05T14:00:05Z</time>
      </trkpt>
      <trkpt lat="49.72287" lon="2.35079">
        <ele>58</ele>
        <time>2022-10-05T14:00:07Z</time>
      </trkpt>
      <trkpt lat="49.72288" lon="2.35079">
        <ele>57.9</ele>
        <time>2022-10-05T14:00:08Z</time>
      </trkpt>
      <trkpt lat="49.72289" lon="2.35079">
        <ele>57.9</ele>
        <time>2022-10-05T14:00:09Z</time>
      </trkpt>
      <trkpt lat="49.7229" lon="2.35078">
        <ele>57.9</ele>
        <time>2022-10-05T14:00:10Z</time>
      </trkpt>
      <trkpt lat="49.72291" lon="2.35077">
        <ele>57.9</ele>
        <time>2022-10-05T14:00:12Z</time>
      </trkpt>
      <trkpt lat="49.72292" lon="2.35076">
        <ele>57.9</ele>
        <time>2022-10-05T14:00:13Z</time>
      </trkpt>
      <trkpt lat="49.72292" lon="2.35076">
        <ele>57.9</ele>
        <time>2022-10-05T14:00:14Z</time>
      </trkpt>
      <trkpt lat="49.72292" lon="2.35075">
        <ele>57.9</ele>
        <time>2022-10-05T14:00:15Z</time>
      </trkpt>
      <trkpt lat="49.72292" lon="2.35074">
        <ele>57.9</ele>
        <time>2022-10-05T14:00:16Z</time>
      </trkpt>
      <trkpt lat="49.72292" lon="2.35074">
        <ele>57.9</ele>
        <time>2022-10-05T14:00:17Z</time>
      </trkpt>
      <trkpt lat="49.72292" lon="2.35074">
        <ele>57.9</ele>
        <time>2022-10-05T14:00:18Z</time>
      </trkpt>
      <trkpt lat="49.72292" lon="2.35073">
        <ele>57.8</ele>
        <time>2022-10-05T14:00:20Z</time>
      </trkpt>
      <trkpt lat="49.72292" lon="2.35073">
        <ele>57.8</ele>
        <time>2022-10-05T14:00:21Z</time>
      </trkpt>
      <trkpt lat="49.72293" lon="2.35073">
        <ele>57.8</ele>
        <time>2022-10-05T14:00:22Z</time>
      </trkpt>
      <trkpt lat="49.72294" lon="2.35072">
        <ele>57.8</ele>
        <time>2022-10-05T14:00:23Z</time>
      </trkpt>
      <trkpt lat="49.72295" lon="2.35072">
        <ele>57.8</ele>
        <time>2022-10-05T14:00:24Z</time>
      </trkpt>
      <trkpt lat="49.72297" lon="2.35071">
        <ele>57.8</ele>
        <time>2022-10-05T14:00:26Z</time>
      </trkpt>
      <trkpt lat="49.72298" lon="2.35071">
        <ele>57.8</ele>
        <time>2022-10-05T14:00:27Z</time>
      </trkpt>
      <trkpt lat="49.723" lon="2.3507">
        <ele>57.7</ele>
        <time>2022-10-05T14:00:28Z</time>
      </trkpt>
      <trkpt lat="49.72301" lon="2.3507">
        <ele>57.7</ele>
        <time>2022-10-05T14:00:29Z</time>
      </trkpt>
      <trkpt lat="49.72303" lon="2.35068">
        <ele>57.7</ele>
        <time>2022-10-05T14:00:30Z</time>
      </trkpt>
      <trkpt lat="49.72304" lon="2.35068">
        <ele>57.7</ele>
        <time>2022-10-05T14:00:31Z</time>
      </trkpt>
      <trkpt lat="49.72305" lon="2.35067">
        <ele>57.7</ele>
        <time>2022-10-05T14:00:32Z</time>
      </trkpt>
      <trkpt lat="49.72307" lon="2.35066">
        <ele>57.7</ele>
        <time>2022-10-05T14:00:33Z</time>
      </trkpt>
      <trkpt lat="49.72308" lon="2.35066">
        <ele>57.7</ele>
        <time>2022-10-05T14:00:34Z</time>
      </trkpt>
      <trkpt lat="49.72308" lon="2.35065">
        <ele>57.7</ele>
        <time>2022-10-05T14:00:35Z</time>
      </trkpt>
      <trkpt lat="49.7231" lon="2.35064">
        <ele>57.7</ele>
        <time>2022-10-05T14:00:36Z</time>
      </trkpt>
      <trkpt lat="49.72312" lon="2.35064">
        <ele>57.7</ele>
        <time>2022-10-05T14:00:37Z</time>
      </trkpt>
      <trkpt lat="49.72314" lon="2.35062">
        <ele>57.7</ele>
        <time>2022-10-05T14:00:38Z</time>
      </trkpt>
      <trkpt lat="49.72315" lon="2.35062">
        <ele>57.7</ele>
        <time>2022-10-05T14:00:39Z</time>
      </trkpt>
      <trkpt lat="49.72315" lon="2.35061">
        <ele>57.7</ele>
        <time>2022-10-05T14:00:40Z</time>
      </trkpt>
      <trkpt lat="49.72318" lon="2.3506">
        <ele>57.8</ele>
        <time>2022-10-05T14:00:41Z</time>
      </trkpt>
      <trkpt lat="49.72319" lon="2.35059">
        <ele>57.8</ele>
        <time>2022-10-05T14:00:42Z</time>
      </trkpt>
      <trkpt lat="49.7232" lon="2.35059">
        <ele>57.8</ele>
        <time>2022-10-05T14:00:43Z</time>
      </trkpt>
      <trkpt lat="49.72321" lon="2.35058">
        <ele>57.8</ele>
        <time>2022-10-05T14:00:45Z</time>
      </trkpt>
      <trkpt lat="49.72322" lon="2.35057">
        <ele>57.9</ele>
        <time>2022-10-05T14:00:46Z</time>
      </trkpt>
      <trkpt lat="49.72324" lon="2.35055">
        <ele>57.9</ele>
        <time>2022-10-05T14:00:48Z</time>
      </trkpt>
      <trkpt lat="49.72325" lon="2.35054">
        <ele>58</ele>
        <time>2022-10-05T14:00:49Z</time>
      </trkpt>
      <trkpt lat="49.72326" lon="2.35054">
        <ele>58</ele>
        <time>2022-10-05T14:00:50Z</time>
      </trkpt>
      <trkpt lat="49.72327" lon="2.35053">
        <ele>58</ele>
        <time>2022-10-05T14:00:51Z</time>
      </trkpt>
      <trkpt lat="49.72328" lon="2.35051">
        <ele>58.1</ele>
        <time>2022-10-05T14:00:52Z</time>
      </trkpt>
      <trkpt lat="49.72329" lon="2.3505">
        <ele>58.1</ele>
        <time>2022-10-05T14:00:53Z</time>
      </trkpt>
      <trkpt lat="49.72329" lon="2.35049">
        <ele>58.2</ele>
        <time>2022-10-05T14:00:54Z</time>
      </trkpt>
      <trkpt lat="49.72331" lon="2.35046">
        <ele>58.3</ele>
        <time>2022-10-05T14:00:55Z</time>
      </trkpt>
      <trkpt lat="49.72332" lon="2.35045">
        <ele>58.3</ele>
        <time>2022-10-05T14:00:57Z</time>
      </trkpt>
      <trkpt lat="49.72333" lon="2.35044">
        <ele>58.3</ele>
        <time>2022-10-05T14:00:58Z</time>
      </trkpt>
      <trkpt lat="49.72333" lon="2.35043">
        <ele>58.4</ele>
        <time>2022-10-05T14:00:59Z</time>
      </trkpt>
      <trkpt lat="49.72334" lon="2.35043">
        <ele>58.4</ele>
        <time>2022-10-05T14:01:00Z</time>
      </trkpt>
      <trkpt lat="49.72334" lon="2.35042">
        <ele>58.4</ele>
        <time>2022-10-05T14:01:01Z</time>
      </trkpt>
      <trkpt lat="49.72336" lon="2.3504">
        <ele>58.5</ele>
        <time>2022-10-05T14:01:03Z</time>
      </trkpt>
      <trkpt lat="49.72337" lon="2.3504">
        <ele>58.5</ele>
        <time>2022-10-05T14:01:04Z</time>
      </trkpt>
      <trkpt lat="49.72338" lon="2.35039">
        <ele>58.6</ele>
        <time>2022-10-05T14:01:05Z</time>
      </trkpt>
      <trkpt lat="49.72339" lon="2.35038">
        <ele>58.6</ele>
        <time>2022-10-05T14:01:06Z</time>
      </trkpt>
      <trkpt lat="49.72342" lon="2.35037">
        <ele>58.7</ele>
        <time>2022-10-05T14:01:07Z</time>
      </trkpt>
      <trkpt lat="49.72343" lon="2.35036">
        <ele>58.7</ele>
        <time>2022-10-05T14:01:08Z</time>
      </trkpt>
      <trkpt lat="49.72346" lon="2.35035">
        <ele>58.7</ele>
        <time>2022-10-05T14:01:10Z</time>
      </trkpt>
      <trkpt lat="49.72347" lon="2.35034">
        <ele>58.8</ele>
        <time>2022-10-05T14:01:11Z</time>
      </trkpt>
      <trkpt lat="49.72349" lon="2.35033">
        <ele>58.8</ele>
        <time>2022-10-05T14:01:12Z</time>
      </trkpt>
      <trkpt lat="49.7235" lon="2.35032">
        <ele>58.8</ele>
        <time>2022-10-05T14:01:13Z</time>
      </trkpt>
      <trkpt lat="49.72352" lon="2.35032">
        <ele>58.8</ele>
        <time>2022-10-05T14:01:15Z</time>
      </trkpt>
      <trkpt lat="49.72353" lon="2.35031">
        <ele>58.8</ele>
        <time>2022-10-05T14:01:16Z</time>
      </trkpt>
      <trkpt lat="49.72355" lon="2.35031">
        <ele>58.8</ele>
        <time>2022-10-05T14:01:17Z</time>
      </trkpt>
      <trkpt lat="49.72356" lon="2.3503">
        <ele>58.8</ele>
        <time>2022-10-05T14:01:18Z</time>
      </trkpt>
      <trkpt lat="49.72357" lon="2.3503">
        <ele>58.8</ele>
        <time>2022-10-05T14:01:19Z</time>
      </trkpt>
      <trkpt lat="49.72359" lon="2.35029">
        <ele>58.8</ele>
        <time>2022-10-05T14:01:20Z</time>
      </trkpt>
      <trkpt lat="49.72362" lon="2.35028">
        <ele>58.8</ele>
        <time>2022-10-05T14:01:21Z</time>
      </trkpt>
      <trkpt lat="49.72363" lon="2.35028">
        <ele>58.7</ele>
        <time>2022-10-05T14:01:22Z</time>
      </trkpt>
      <trkpt lat="49.72365" lon="2.35027">
        <ele>58.7</ele>
        <time>2022-10-05T14:01:23Z</time>
      </trkpt>
      <trkpt lat="49.72367" lon="2.35027">
        <ele>58.7</ele>
        <time>2022-10-05T14:01:24Z</time>
      </trkpt>
      <trkpt lat="49.72368" lon="2.35027">
        <ele>58.7</ele>
        <time>2022-10-05T14:01:25Z</time>
      </trkpt>
      <trkpt lat="49.72368" lon="2.35027">
        <ele>58.7</ele>
        <time>2022-10-05T14:01:26Z</time>
      </trkpt>
      <trkpt lat="49.72369" lon="2.35029">
        <ele>58.7</ele>
        <time>2022-10-05T14:01:27Z</time>
      </trkpt>
      <trkpt lat="49.72369" lon="2.3503">
        <ele>58.7</ele>
        <time>2022-10-05T14:01:28Z</time>
      </trkpt>
      <trkpt lat="49.72368" lon="2.35031">
        <ele>58.7</ele>
        <time>2022-10-05T14:01:29Z</time>
      </trkpt>
      <trkpt lat="49.72368" lon="2.35032">
        <ele>58.7</ele>
        <time>2022-10-05T14:01:30Z</time>
      </trkpt>
      <trkpt lat="49.72368" lon="2.35033">
        <ele>58.7</ele>
        <time>2022-10-05T14:01:31Z</time>
      </trkpt>
      <trkpt lat="49.72367" lon="2.35033">
        <ele>58.7</ele>
        <time>2022-10-05T14:01:32Z</time>
      </trkpt>
      <trkpt lat="49.72367" lon="2.35033">
        <ele>58.7</ele>
        <time>2022-10-05T14:01:33Z</time>
      </trkpt>
      <trkpt lat="49.72367" lon="2.35033">
        <ele>58.7</ele>
        <time>2022-10-05T14:01:34Z</time>
      </trkpt>
      <trkpt lat="49.72367" lon="2.35033">
        <ele>58.7</ele>
        <time>2022-10-05T14:01:35Z</time>
      </trkpt>
      <trkpt lat="49.72367" lon="2.35033">
        <ele>58.7</ele>
        <time>2022-10-05T14:01:36Z</time>
      </trkpt>
      <trkpt lat="49.72367" lon="2.35033">
        <ele>58.7</ele>
        <time>2022-10-05T14:01:37Z</time>
      </trkpt>
      <trkpt lat="49.72368" lon="2.35032">
        <ele>58.6</ele>
        <time>2022-10-05T14:01:38Z</time>
      </trkpt>
      <trkpt lat="49.72368" lon="2.35032">
        <ele>58.6</ele>
        <time>2022-10-05T14:01:39Z</time>
      </trkpt>
      <trkpt lat="49.72369" lon="2.35031">
        <ele>58.6</ele>
        <time>2022-10-05T14:01:41Z</time>
      </trkpt>
      <trkpt lat="49.7237" lon="2.3503">
        <ele>58.6</ele>
        <time>2022-10-05T14:01:42Z</time>
      </trkpt>
      <trkpt lat="49.72372" lon="2.35029">
        <ele>58.6</ele>
        <time>2022-10-05T14:01:43Z</time>
      </trkpt>
      <trkpt lat="49.72373" lon="2.35028">
        <ele>58.6</ele>
        <time>2022-10-05T14:01:44Z</time>
      </trkpt>
      <trkpt lat="49.72375" lon="2.35027">
        <ele>58.6</ele>
        <time>2022-10-05T14:01:45Z</time>
      </trkpt>
      <trkpt lat="49.72376" lon="2.35026">
        <ele>58.6</ele>
        <time>2022-10-05T14:01:46Z</time>
      </trkpt>
      <trkpt lat="49.72378" lon="2.35025">
        <ele>58.6</ele>
        <time>2022-10-05T14:01:47Z</time>
      </trkpt>
      <trkpt lat="49.72379" lon="2.35025">
        <ele>58.6</ele>
        <time>2022-10-05T14:01:48Z</time>
      </trkpt>
      <trkpt lat="49.7238" lon="2.35024">
        <ele>58.5</ele>
        <time>2022-10-05T14:01:50Z</time>
      </trkpt>
      <trkpt lat="49.72381" lon="2.35023">
        <ele>58.5</ele>
        <time>2022-10-05T14:01:51Z</time>
      </trkpt>
      <trkpt lat="49.72382" lon="2.35022">
        <ele>58.5</ele>
        <time>2022-10-05T14:01:52Z</time>
      </trkpt>
      <trkpt lat="49.72383" lon="2.35021">
        <ele>58.5</ele>
        <time>2022-10-05T14:01:53Z</time>
      </trkpt>
      <trkpt lat="49.72385" lon="2.35019">
        <ele>58.5</ele>
        <time>2022-10-05T14:01:54Z</time>
      </trkpt>
      <trkpt lat="49.72385" lon="2.35019">
        <ele>58.5</ele>
        <time>2022-10-05T14:01:55Z</time>
      </trkpt>
      <trkpt lat="49.72386" lon="2.35018">
        <ele>58.5</ele>
        <time>2022-10-05T14:01:56Z</time>
      </trkpt>
      <trkpt lat="49.72389" lon="2.35017">
        <ele>58.5</ele>
        <time>2022-10-05T14:01:57Z</time>
      </trkpt>
      <trkpt lat="49.7239" lon="2.35016">
        <ele>58.5</ele>
        <time>2022-10-05T14:01:58Z</time>
      </trkpt>
      <trkpt lat="49.72391" lon="2.35016">
        <ele>58.5</ele>
        <time>2022-10-05T14:01:59Z</time>
      </trkpt>
      <trkpt lat="49.72392" lon="2.35015">
        <ele>58.5</ele>
        <time>2022-10-05T14:02:00Z</time>
      </trkpt>
      <trkpt lat="49.72393" lon="2.35015">
        <ele>58.5</ele>
        <time>2022-10-05T14:02:01Z</time>
      </trkpt>
      <trkpt lat="49.72395" lon="2.35014">
        <ele>58.5</ele>
        <time>2022-10-05T14:02:02Z</time>
      </trkpt>
      <trkpt lat="49.72396" lon="2.35013">
        <ele>58.5</ele>
        <time>2022-10-05T14:02:03Z</time>
      </trkpt>
      <trkpt lat="49.72397" lon="2.35013">
        <ele>58.5</ele>
        <time>2022-10-05T14:02:04Z</time>
      </trkpt>
      <trkpt lat="49.72399" lon="2.35012">
        <ele>58.4</ele>
        <time>2022-10-05T14:02:05Z</time>
      </trkpt>
      <trkpt lat="49.72399" lon="2.35011">
        <ele>58.4</ele>
        <time>2022-10-05T14:02:06Z</time>
      </trkpt>
      <trkpt lat="49.724" lon="2.35011">
        <ele>58.4</ele>
        <time>2022-10-05T14:02:07Z</time>
      </trkpt>
      <trkpt lat="49.72401" lon="2.35011">
        <ele>58.4</ele>
        <time>2022-10-05T14:02:08Z</time>
      </trkpt>
      <trkpt lat="49.72402" lon="2.3501">
        <ele>58.4</ele>
        <time>2022-10-05T14:02:09Z</time>
      </trkpt>
      <trkpt lat="49.72403" lon="2.35009">
        <ele>58.4</ele>
        <time>2022-10-05T14:02:11Z</time>
      </trkpt>
      <trkpt lat="49.72404" lon="2.35009">
        <ele>58.4</ele>
        <time>2022-10-05T14:02:12Z</time>
      </trkpt>
      <trkpt lat="49.72406" lon="2.35009">
        <ele>58.4</ele>
        <time>2022-10-05T14:02:13Z</time>
      </trkpt>
      <trkpt lat="49.72408" lon="2.35009">
        <ele>58.4</ele>
        <time>2022-10-05T14:02:15Z</time>
      </trkpt>
      <trkpt lat="49.72409" lon="2.35008">
        <ele>58.4</ele>
        <time>2022-10-05T14:02:16Z</time>
      </trkpt>
      <trkpt lat="49.7241" lon="2.35008">
        <ele>58.3</ele>
        <time>2022-10-05T14:02:17Z</time>
      </trkpt>
      <trkpt lat="49.72411" lon="2.35008">
        <ele>58.3</ele>
        <time>2022-10-05T14:02:18Z</time>
      </trkpt>
      <trkpt lat="49.72412" lon="2.35008">
        <ele>58.3</ele>
        <time>2022-10-05T14:02:19Z</time>
      </trkpt>
      <trkpt lat="49.72413" lon="2.35008">
        <ele>58.3</ele>
        <time>2022-10-05T14:02:20Z</time>
      </trkpt>
      <trkpt lat="49.72414" lon="2.35008">
        <ele>58.3</ele>
        <time>2022-10-05T14:02:21Z</time>
      </trkpt>
      <trkpt lat="49.72415" lon="2.35008">
        <ele>58.3</ele>
        <time>2022-10-05T14:02:22Z</time>
      </trkpt>
      <trkpt lat="49.72416" lon="2.35008">
        <ele>58.3</ele>
        <time>2022-10-05T14:02:23Z</time>
      </trkpt>
      <trkpt lat="49.72417" lon="2.35008">
        <ele>58.3</ele>
        <time>2022-10-05T14:02:24Z</time>
      </trkpt>
      <trkpt lat="49.72418" lon="2.35008">
        <ele>58.3</ele>
        <time>2022-10-05T14:02:25Z</time>
      </trkpt>
      <trkpt lat="49.72419" lon="2.35008">
        <ele>58.3</ele>
        <time>2022-10-05T14:02:26Z</time>
      </trkpt>
      <trkpt lat="49.7242" lon="2.35007">
        <ele>58.2</ele>
        <time>2022-10-05T14:02:27Z</time>
      </trkpt>
      <trkpt lat="49.72421" lon="2.35007">
        <ele>58.2</ele>
        <time>2022-10-05T14:02:28Z</time>
      </trkpt>
      <trkpt lat="49.72422" lon="2.35006">
        <ele>58.2</ele>
        <time>2022-10-05T14:02:29Z</time>
      </trkpt>
      <trkpt lat="49.72423" lon="2.35006">
        <ele>58.2</ele>
        <time>2022-10-05T14:02:30Z</time>
      </trkpt>
      <trkpt lat="49.72425" lon="2.35006">
        <ele>58.2</ele>
        <time>2022-10-05T14:02:31Z</time>
      </trkpt>
      <trkpt lat="49.72426" lon="2.35006">
        <ele>58.2</ele>
        <time>2022-10-05T14:02:32Z</time>
      </trkpt>
      <trkpt lat="49.72427" lon="2.35006">
        <ele>58.2</ele>
        <time>2022-10-05T14:02:33Z</time>
      </trkpt>
      <trkpt lat="49.72428" lon="2.35006">
        <ele>58.2</ele>
        <time>2022-10-05T14:02:35Z</time>
      </trkpt>
      <trkpt lat="49.72429" lon="2.35006">
        <ele>58.1</ele>
        <time>2022-10-05T14:02:36Z</time>
      </trkpt>
      <trkpt lat="49.7243" lon="2.35006">
        <ele>58.1</ele>
        <time>2022-10-05T14:02:37Z</time>
      </trkpt>
      <trkpt lat="49.72432" lon="2.35006">
        <ele>58.1</ele>
        <time>2022-10-05T14:02:39Z</time>
      </trkpt>
      <trkpt lat="49.72433" lon="2.35007">
        <ele>58.1</ele>
        <time>2022-10-05T14:02:40Z</time>
      </trkpt>
      <trkpt lat="49.72434" lon="2.35007">
        <ele>58.1</ele>
        <time>2022-10-05T14:02:41Z</time>
      </trkpt>
      <trkpt lat="49.72436" lon="2.35007">
        <ele>58.1</ele>
        <time>2022-10-05T14:02:42Z</time>
      </trkpt>
      <trkpt lat="49.72437" lon="2.35007">
        <ele>58.1</ele>
        <time>2022-10-05T14:02:43Z</time>
      </trkpt>
      <trkpt lat="49.72438" lon="2.35008">
        <ele>58.1</ele>
        <time>2022-10-05T14:02:44Z</time>
      </trkpt>
      <trkpt lat="49.72439" lon="2.35008">
        <ele>58</ele>
        <time>2022-10-05T14:02:45Z</time>
      </trkpt>
      <trkpt lat="49.7244" lon="2.35008">
        <ele>58</ele>
        <time>2022-10-05T14:02:46Z</time>
      </trkpt>
      <trkpt lat="49.72442" lon="2.35008">
        <ele>58</ele>
        <time>2022-10-05T14:02:48Z</time>
      </trkpt>
      <trkpt lat="49.72443" lon="2.35008">
        <ele>58</ele>
        <time>2022-10-05T14:02:49Z</time>
      </trkpt>
      <trkpt lat="49.72444" lon="2.35008">
        <ele>58</ele>
        <time>2022-10-05T14:02:50Z</time>
      </trkpt>
      <trkpt lat="49.72446" lon="2.35008">
        <ele>58</ele>
        <time>2022-10-05T14:02:51Z</time>
      </trkpt>
      <trkpt lat="49.72448" lon="2.35007">
        <ele>58</ele>
        <time>2022-10-05T14:02:52Z</time>
      </trkpt>
      <trkpt lat="49.72449" lon="2.35007">
        <ele>58</ele>
        <time>2022-10-05T14:02:53Z</time>
      </trkpt>
      <trkpt lat="49.72449" lon="2.35007">
        <ele>58</ele>
        <time>2022-10-05T14:02:54Z</time>
      </trkpt>
      <trkpt lat="49.72452" lon="2.35007">
        <ele>57.9</ele>
        <time>2022-10-05T14:02:55Z</time>
      </trkpt>
      <trkpt lat="49.72453" lon="2.35007">
        <ele>57.9</ele>
        <time>2022-10-05T14:02:56Z</time>
      </trkpt>
      <trkpt lat="49.72455" lon="2.35007">
        <ele>57.9</ele>
        <time>2022-10-05T14:02:57Z</time>
      </trkpt>
      <trkpt lat="49.72457" lon="2.35007">
        <ele>57.9</ele>
        <time>2022-10-05T14:02:58Z</time>
      </trkpt>
      <trkpt lat="49.72461" lon="2.35006">
        <ele>57.9</ele>
        <time>2022-10-05T14:03:00Z</time>
      </trkpt>
      <trkpt lat="49.72463" lon="2.35006">
        <ele>57.9</ele>
        <time>2022-10-05T14:03:01Z</time>
      </trkpt>
      <trkpt lat="49.72464" lon="2.35005">
        <ele>57.9</ele>
        <time>2022-10-05T14:03:02Z</time>
      </trkpt>
      <trkpt lat="49.72466" lon="2.35005">
        <ele>57.9</ele>
        <time>2022-10-05T14:03:03Z</time>
      </trkpt>
      <trkpt lat="49.72468" lon="2.35004">
        <ele>57.9</ele>
        <time>2022-10-05T14:03:05Z</time>
      </trkpt>
      <trkpt lat="49.72472" lon="2.35004">
        <ele>57.9</ele>
        <time>2022-10-05T14:03:06Z</time>
      </trkpt>
      <trkpt lat="49.72472" lon="2.35004">
        <ele>57.9</ele>
        <time>2022-10-05T14:03:07Z</time>
      </trkpt>
      <trkpt lat="49.72475" lon="2.35004">
        <ele>57.9</ele>
        <time>2022-10-05T14:03:08Z</time>
      </trkpt>
      <trkpt lat="49.72476" lon="2.35004">
        <ele>57.9</ele>
        <time>2022-10-05T14:03:10Z</time>
      </trkpt>
      <trkpt lat="49.72477" lon="2.35005">
        <ele>57.9</ele>
        <time>2022-10-05T14:03:11Z</time>
      </trkpt>
      <trkpt lat="49.72478" lon="2.35005">
        <ele>57.9</ele>
        <time>2022-10-05T14:03:12Z</time>
      </trkpt>
      <trkpt lat="49.72479" lon="2.35005">
        <ele>57.9</ele>
        <time>2022-10-05T14:03:13Z</time>
      </trkpt>
      <trkpt lat="49.7248" lon="2.35005">
        <ele>57.9</ele>
        <time>2022-10-05T14:03:14Z</time>
      </trkpt>
      <trkpt lat="49.72482" lon="2.35005">
        <ele>57.9</ele>
        <time>2022-10-05T14:03:15Z</time>
      </trkpt>
      <trkpt lat="49.72484" lon="2.35005">
        <ele>57.9</ele>
        <time>2022-10-05T14:03:16Z</time>
      </trkpt>
      <trkpt lat="49.72485" lon="2.35005">
        <ele>57.9</ele>
        <time>2022-10-05T14:03:18Z</time>
      </trkpt>
      <trkpt lat="49.72487" lon="2.35005">
        <ele>57.9</ele>
        <time>2022-10-05T14:03:19Z</time>
      </trkpt>
      <trkpt lat="49.72488" lon="2.35006">
        <ele>57.9</ele>
        <time>2022-10-05T14:03:20Z</time>
      </trkpt>
      <trkpt lat="49.72489" lon="2.35005">
        <ele>57.9</ele>
        <time>2022-10-05T14:03:21Z</time>
      </trkpt>
      <trkpt lat="49.7249" lon="2.35005">
        <ele>57.9</ele>
        <time>2022-10-05T14:03:22Z</time>
      </trkpt>
      <trkpt lat="49.72492" lon="2.35006">
        <ele>57.9</ele>
        <time>2022-10-05T14:03:24Z</time>
      </trkpt>
      <trkpt lat="49.72493" lon="2.35006">
        <ele>57.9</ele>
        <time>2022-10-05T14:03:25Z</time>
      </trkpt>
      <trkpt lat="49.72494" lon="2.35007">
        <ele>57.9</ele>
        <time>2022-10-05T14:03:26Z</time>
      </trkpt>
      <trkpt lat="49.72495" lon="2.35006">
        <ele>57.9</ele>
        <time>2022-10-05T14:03:27Z</time>
      </trkpt>
      <trkpt lat="49.72496" lon="2.35006">
        <ele>57.9</ele>
        <time>2022-10-05T14:03:28Z</time>
      </trkpt>
      <trkpt lat="49.72496" lon="2.35007">
        <ele>57.9</ele>
        <time>2022-10-05T14:03:29Z</time>
      </trkpt>
      <trkpt lat="49.72497" lon="2.35007">
        <ele>57.9</ele>
        <time>2022-10-05T14:03:30Z</time>
      </trkpt>
      <trkpt lat="49.72498" lon="2.35008">
        <ele>57.9</ele>
        <time>2022-10-05T14:03:31Z</time>
      </trkpt>
      <trkpt lat="49.725" lon="2.35008">
        <ele>57.9</ele>
        <time>2022-10-05T14:03:32Z</time>
      </trkpt>
      <trkpt lat="49.72501" lon="2.35008">
        <ele>57.9</ele>
        <time>2022-10-05T14:03:34Z</time>
      </trkpt>
      <trkpt lat="49.72502" lon="2.35008">
        <ele>57.9</ele>
        <time>2022-10-05T14:03:35Z</time>
      </trkpt>
      <trkpt lat="49.72503" lon="2.35009">
        <ele>57.9</ele>
        <time>2022-10-05T14:03:36Z</time>
      </trkpt>
      <trkpt lat="49.72504" lon="2.35009">
        <ele>57.9</ele>
        <time>2022-10-05T14:03:37Z</time>
      </trkpt>
      <trkpt lat="49.72505" lon="2.35009">
        <ele>57.9</ele>
        <time>2022-10-05T14:03:38Z</time>
      </trkpt>
      <trkpt lat="49.72505" lon="2.3501">
        <ele>57.9</ele>
        <time>2022-10-05T14:03:39Z</time>
      </trkpt>
      <trkpt lat="49.72506" lon="2.3501">
        <ele>57.9</ele>
        <time>2022-10-05T14:03:41Z</time>
      </trkpt>
      <trkpt lat="49.72507" lon="2.3501">
        <ele>57.9</ele>
        <time>2022-10-05T14:03:42Z</time>
      </trkpt>
      <trkpt lat="49.7251" lon="2.35011">
        <ele>57.9</ele>
        <time>2022-10-05T14:03:43Z</time>
      </trkpt>
      <trkpt lat="49.7251" lon="2.35011">
        <ele>57.9</ele>
        <time>2022-10-05T14:03:44Z</time>
      </trkpt>
      <trkpt lat="49.72511" lon="2.35011">
        <ele>57.9</ele>
        <time>2022-10-05T14:03:45Z</time>
      </trkpt>
      <trkpt lat="49.72513" lon="2.35011">
        <ele>57.9</ele>
        <time>2022-10-05T14:03:46Z</time>
      </trkpt>
      <trkpt lat="49.72514" lon="2.35012">
        <ele>57.9</ele>
        <time>2022-10-05T14:03:47Z</time>
      </trkpt>
      <trkpt lat="49.72515" lon="2.35012">
        <ele>57.9</ele>
        <time>2022-10-05T14:03:48Z</time>
      </trkpt>
      <trkpt lat="49.72517" lon="2.35013">
        <ele>57.9</ele>
        <time>2022-10-05T14:03:49Z</time>
      </trkpt>
      <trkpt lat="49.72518" lon="2.35013">
        <ele>57.9</ele>
        <time>2022-10-05T14:03:50Z</time>
      </trkpt>
      <trkpt lat="49.72519" lon="2.35013">
        <ele>57.9</ele>
        <time>2022-10-05T14:03:51Z</time>
      </trkpt>
      <trkpt lat="49.72522" lon="2.35014">
        <ele>57.9</ele>
        <time>2022-10-05T14:03:52Z</time>
      </trkpt>
      <trkpt lat="49.72523" lon="2.35015">
        <ele>57.9</ele>
        <time>2022-10-05T14:03:53Z</time>
      </trkpt>
      <trkpt lat="49.72524" lon="2.35015">
        <ele>57.9</ele>
        <time>2022-10-05T14:03:54Z</time>
      </trkpt>
      <trkpt lat="49.72526" lon="2.35016">
        <ele>57.9</ele>
        <time>2022-10-05T14:03:55Z</time>
      </trkpt>
      <trkpt lat="49.72527" lon="2.35017">
        <ele>57.9</ele>
        <time>2022-10-05T14:03:57Z</time>
      </trkpt>
      <trkpt lat="49.72529" lon="2.35017">
        <ele>57.9</ele>
        <time>2022-10-05T14:03:58Z</time>
      </trkpt>
      <trkpt lat="49.7253" lon="2.35018">
        <ele>57.9</ele>
        <time>2022-10-05T14:03:59Z</time>
      </trkpt>
      <trkpt lat="49.72532" lon="2.35019">
        <ele>57.9</ele>
        <time>2022-10-05T14:04:00Z</time>
      </trkpt>
      <trkpt lat="49.72533" lon="2.35019">
        <ele>57.9</ele>
        <time>2022-10-05T14:04:01Z</time>
      </trkpt>
      <trkpt lat="49.72537" lon="2.3502">
        <ele>57.9</ele>
        <time>2022-10-05T14:04:03Z</time>
      </trkpt>
      <trkpt lat="49.72537" lon="2.3502">
        <ele>57.9</ele>
        <time>2022-10-05T14:04:04Z</time>
      </trkpt>
      <trkpt lat="49.7254" lon="2.35021">
        <ele>57.9</ele>
        <time>2022-10-05T14:04:05Z</time>
      </trkpt>
      <trkpt lat="49.72541" lon="2.35022">
        <ele>57.9</ele>
        <time>2022-10-05T14:04:06Z</time>
      </trkpt>
      <trkpt lat="49.72543" lon="2.35022">
        <ele>57.9</ele>
        <time>2022-10-05T14:04:07Z</time>
      </trkpt>
      <trkpt lat="49.72544" lon="2.35022">
        <ele>57.9</ele>
        <time>2022-10-05T14:04:08Z</time>
      </trkpt>
      <trkpt lat="49.72547" lon="2.35023">
        <ele>57.9</ele>
        <time>2022-10-05T14:04:09Z</time>
      </trkpt>
      <trkpt lat="49.72549" lon="2.35023">
        <ele>57.9</ele>
        <time>2022-10-05T14:04:10Z</time>
      </trkpt>
      <trkpt lat="49.7255" lon="2.35024">
        <ele>57.9</ele>
        <time>2022-10-05T14:04:11Z</time>
      </trkpt>
      <trkpt lat="49.72551" lon="2.35024">
        <ele>57.9</ele>
        <time>2022-10-05T14:04:12Z</time>
      </trkpt>
      <trkpt lat="49.72553" lon="2.35025">
        <ele>57.9</ele>
        <time>2022-10-05T14:04:13Z</time>
      </trkpt>
      <trkpt lat="49.72555" lon="2.35025">
        <ele>57.9</ele>
        <time>2022-10-05T14:04:15Z</time>
      </trkpt>
      <trkpt lat="49.72556" lon="2.35025">
        <ele>57.8</ele>
        <time>2022-10-05T14:04:16Z</time>
      </trkpt>
      <trkpt lat="49.72558" lon="2.35025">
        <ele>57.8</ele>
        <time>2022-10-05T14:04:17Z</time>
      </trkpt>
      <trkpt lat="49.72559" lon="2.35026">
        <ele>57.8</ele>
        <time>2022-10-05T14:04:18Z</time>
      </trkpt>
      <trkpt lat="49.72561" lon="2.35026">
        <ele>57.8</ele>
        <time>2022-10-05T14:04:19Z</time>
      </trkpt>
      <trkpt lat="49.72563" lon="2.35026">
        <ele>57.8</ele>
        <time>2022-10-05T14:04:20Z</time>
      </trkpt>
      <trkpt lat="49.72564" lon="2.35026">
        <ele>57.8</ele>
        <time>2022-10-05T14:04:21Z</time>
      </trkpt>
      <trkpt lat="49.72565" lon="2.35027">
        <ele>57.8</ele>
        <time>2022-10-05T14:04:22Z</time>
      </trkpt>
      <trkpt lat="49.72566" lon="2.35027">
        <ele>57.8</ele>
        <time>2022-10-05T14:04:23Z</time>
      </trkpt>
      <trkpt lat="49.72568" lon="2.35027">
        <ele>57.8</ele>
        <time>2022-10-05T14:04:24Z</time>
      </trkpt>
      <trkpt lat="49.72569" lon="2.35028">
        <ele>57.8</ele>
        <time>2022-10-05T14:04:25Z</time>
      </trkpt>
      <trkpt lat="49.7257" lon="2.35028">
        <ele>57.8</ele>
        <time>2022-10-05T14:04:26Z</time>
      </trkpt>
      <trkpt lat="49.72571" lon="2.35028">
        <ele>57.8</ele>
        <time>2022-10-05T14:04:27Z</time>
      </trkpt>
      <trkpt lat="49.72572" lon="2.35029">
        <ele>57.8</ele>
        <time>2022-10-05T14:04:28Z</time>
      </trkpt>
      <trkpt lat="49.72574" lon="2.3503">
        <ele>57.8</ele>
        <time>2022-10-05T14:04:29Z</time>
      </trkpt>
      <trkpt lat="49.72575" lon="2.3503">
        <ele>57.8</ele>
        <time>2022-10-05T14:04:30Z</time>
      </trkpt>
      <trkpt lat="49.72576" lon="2.3503">
        <ele>57.8</ele>
        <time>2022-10-05T14:04:31Z</time>
      </trkpt>
      <trkpt lat="49.72579" lon="2.35032">
        <ele>57.8</ele>
        <time>2022-10-05T14:04:32Z</time>
      </trkpt>
      <trkpt lat="49.72579" lon="2.35033">
        <ele>57.8</ele>
        <time>2022-10-05T14:04:33Z</time>
      </trkpt>
      <trkpt lat="49.72581" lon="2.35034">
        <ele>57.8</ele>
        <time>2022-10-05T14:04:35Z</time>
      </trkpt>
      <trkpt lat="49.72582" lon="2.35034">
        <ele>57.9</ele>
        <time>2022-10-05T14:04:36Z</time>
      </trkpt>
      <trkpt lat="49.72584" lon="2.35035">
        <ele>57.9</ele>
        <time>2022-10-05T14:04:37Z</time>
      </trkpt>
      <trkpt lat="49.72585" lon="2.35036">
        <ele>57.9</ele>
        <time>2022-10-05T14:04:38Z</time>
      </trkpt>
      <trkpt lat="49.72586" lon="2.35036">
        <ele>57.9</ele>
        <time>2022-10-05T14:04:39Z</time>
      </trkpt>
      <trkpt lat="49.72586" lon="2.35036">
        <ele>57.9</ele>
        <time>2022-10-05T14:04:40Z</time>
      </trkpt>
      <trkpt lat="49.72587" lon="2.35037">
        <ele>57.9</ele>
        <time>2022-10-05T14:04:41Z</time>
      </trkpt>
      <trkpt lat="49.72588" lon="2.35037">
        <ele>57.9</ele>
        <time>2022-10-05T14:04:42Z</time>
      </trkpt>
      <trkpt lat="49.72589" lon="2.35038">
        <ele>57.9</ele>
        <time>2022-10-05T14:04:43Z</time>
      </trkpt>
      <trkpt lat="49.7259" lon="2.35039">
        <ele>57.9</ele>
        <time>2022-10-05T14:04:45Z</time>
      </trkpt>
      <trkpt lat="49.72591" lon="2.3504">
        <ele>57.9</ele>
        <time>2022-10-05T14:04:46Z</time>
      </trkpt>
      <trkpt lat="49.72592" lon="2.3504">
        <ele>57.9</ele>
        <time>2022-10-05T14:04:47Z</time>
      </trkpt>
      <trkpt lat="49.72593" lon="2.35041">
        <ele>57.9</ele>
        <time>2022-10-05T14:04:48Z</time>
      </trkpt>
      <trkpt lat="49.72594" lon="2.35041">
        <ele>57.9</ele>
        <time>2022-10-05T14:04:49Z</time>
      </trkpt>
      <trkpt lat="49.72595" lon="2.35042">
        <ele>57.9</ele>
        <time>2022-10-05T14:04:50Z</time>
      </trkpt>
      <trkpt lat="49.72595" lon="2.35042">
        <ele>57.9</ele>
        <time>2022-10-05T14:04:51Z</time>
      </trkpt>
      <trkpt lat="49.72595" lon="2.35043">
        <ele>57.9</ele>
        <time>2022-10-05T14:04:52Z</time>
      </trkpt>
      <trkpt lat="49.72596" lon="2.35043">
        <ele>57.9</ele>
        <time>2022-10-05T14:04:53Z</time>
      </trkpt>
      <trkpt lat="49.72596" lon="2.35044">
        <ele>57.9</ele>
        <time>2022-10-05T14:04:54Z</time>
      </trkpt>
      <trkpt lat="49.72599" lon="2.35045">
        <ele>57.9</ele>
        <time>2022-10-05T14:04:55Z</time>
      </trkpt>
      <trkpt lat="49.726" lon="2.35045">
        <ele>57.9</ele>
        <time>2022-10-05T14:04:56Z</time>
      </trkpt>
      <trkpt lat="49.72601" lon="2.35046">
        <ele>57.9</ele>
        <time>2022-10-05T14:04:57Z</time>
      </trkpt>
      <trkpt lat="49.72603" lon="2.35047">
        <ele>57.9</ele>
        <time>2022-10-05T14:04:58Z</time>
      </trkpt>
      <trkpt lat="49.72604" lon="2.35047">
        <ele>57.9</ele>
        <time>2022-10-05T14:04:59Z</time>
      </trkpt>
      <trkpt lat="49.72605" lon="2.35047">
        <ele>57.9</ele>
        <time>2022-10-05T14:05:00Z</time>
      </trkpt>
      <trkpt lat="49.72606" lon="2.35048">
        <ele>57.9</ele>
        <time>2022-10-05T14:05:02Z</time>
      </trkpt>
      <trkpt lat="49.72607" lon="2.35048">
        <ele>57.9</ele>
        <time>2022-10-05T14:05:03Z</time>
      </trkpt>
      <trkpt lat="49.72609" lon="2.35048">
        <ele>57.9</ele>
        <time>2022-10-05T14:05:04Z</time>
      </trkpt>
      <trkpt lat="49.7261" lon="2.35047">
        <ele>58</ele>
        <time>2022-10-05T14:05:05Z</time>
      </trkpt>
      <trkpt lat="49.72611" lon="2.35046">
        <ele>58</ele>
        <time>2022-10-05T14:05:06Z</time>
      </trkpt>
      <trkpt lat="49.72611" lon="2.35045">
        <ele>58</ele>
        <time>2022-10-05T14:05:08Z</time>
      </trkpt>
      <trkpt lat="49.72612" lon="2.35044">
        <ele>58</ele>
        <time>2022-10-05T14:05:09Z</time>
      </trkpt>
      <trkpt lat="49.72612" lon="2.35044">
        <ele>58</ele>
        <time>2022-10-05T14:05:10Z</time>
      </trkpt>
      <trkpt lat="49.72613" lon="2.35045">
        <ele>58</ele>
        <time>2022-10-05T14:05:11Z</time>
      </trkpt>
      <trkpt lat="49.72614" lon="2.35045">
        <ele>58</ele>
        <time>2022-10-05T14:05:12Z</time>
      </trkpt>
      <trkpt lat="49.72615" lon="2.35044">
        <ele>58</ele>
        <time>2022-10-05T14:05:13Z</time>
      </trkpt>
      <trkpt lat="49.72616" lon="2.35044">
        <ele>58</ele>
        <time>2022-10-05T14:05:14Z</time>
      </trkpt>
      <trkpt lat="49.72618" lon="2.35043">
        <ele>58</ele>
        <time>2022-10-05T14:05:15Z</time>
      </trkpt>
      <trkpt lat="49.72619" lon="2.35043">
        <ele>58</ele>
        <time>2022-10-05T14:05:17Z</time>
      </trkpt>
      <trkpt lat="49.7262" lon="2.35044">
        <ele>58</ele>
        <time>2022-10-05T14:05:18Z</time>
      </trkpt>
      <trkpt lat="49.72622" lon="2.35045">
        <ele>58</ele>
        <time>2022-10-05T14:05:19Z</time>
      </trkpt>
      <trkpt lat="49.72623" lon="2.35046">
        <ele>58</ele>
        <time>2022-10-05T14:05:20Z</time>
      </trkpt>
      <trkpt lat="49.72623" lon="2.35046">
        <ele>58</ele>
        <time>2022-10-05T14:05:21Z</time>
      </trkpt>
      <trkpt lat="49.72624" lon="2.35047">
        <ele>58</ele>
        <time>2022-10-05T14:05:22Z</time>
      </trkpt>
      <trkpt lat="49.72626" lon="2.35048">
        <ele>58.1</ele>
        <time>2022-10-05T14:05:23Z</time>
      </trkpt>
      <trkpt lat="49.72627" lon="2.35048">
        <ele>58.1</ele>
        <time>2022-10-05T14:05:24Z</time>
      </trkpt>
      <trkpt lat="49.72628" lon="2.35049">
        <ele>58.1</ele>
        <time>2022-10-05T14:05:25Z</time>
      </trkpt>
      <trkpt lat="49.72629" lon="2.3505">
        <ele>58.1</ele>
        <time>2022-10-05T14:05:26Z</time>
      </trkpt>
      <trkpt lat="49.72631" lon="2.3505">
        <ele>58.1</ele>
        <time>2022-10-05T14:05:27Z</time>
      </trkpt>
      <trkpt lat="49.72632" lon="2.35051">
        <ele>58.1</ele>
        <time>2022-10-05T14:05:28Z</time>
      </trkpt>
      <trkpt lat="49.72634" lon="2.35052">
        <ele>58.1</ele>
        <time>2022-10-05T14:05:29Z</time>
      </trkpt>
      <trkpt lat="49.72635" lon="2.35053">
        <ele>58.1</ele>
        <time>2022-10-05T14:05:30Z</time>
      </trkpt>
      <trkpt lat="49.72636" lon="2.35054">
        <ele>58.1</ele>
        <time>2022-10-05T14:05:31Z</time>
      </trkpt>
      <trkpt lat="49.72638" lon="2.35055">
        <ele>58.1</ele>
        <time>2022-10-05T14:05:32Z</time>
      </trkpt>
      <trkpt lat="49.72639" lon="2.35055">
        <ele>58.1</ele>
        <time>2022-10-05T14:05:33Z</time>
      </trkpt>
      <trkpt lat="49.7264" lon="2.35056">
        <ele>58.1</ele>
        <time>2022-10-05T14:05:35Z</time>
      </trkpt>
      <trkpt lat="49.72642" lon="2.35057">
        <ele>58.2</ele>
        <time>2022-10-05T14:05:36Z</time>
      </trkpt>
      <trkpt lat="49.72643" lon="2.35057">
        <ele>58.2</ele>
        <time>2022-10-05T14:05:37Z</time>
      </trkpt>
      <trkpt lat="49.72645" lon="2.35058">
        <ele>58.2</ele>
        <time>2022-10-05T14:05:38Z</time>
      </trkpt>
      <trkpt lat="49.72646" lon="2.35059">
        <ele>58.2</ele>
        <time>2022-10-05T14:05:39Z</time>
      </trkpt>
      <trkpt lat="49.72647" lon="2.3506">
        <ele>58.2</ele>
        <time>2022-10-05T14:05:40Z</time>
      </trkpt>
      <trkpt lat="49.72649" lon="2.3506">
        <ele>58.2</ele>
        <time>2022-10-05T14:05:41Z</time>
      </trkpt>
      <trkpt lat="49.72651" lon="2.35061">
        <ele>58.2</ele>
        <time>2022-10-05T14:05:43Z</time>
      </trkpt>
      <trkpt lat="49.72652" lon="2.35061">
        <ele>58.2</ele>
        <time>2022-10-05T14:05:44Z</time>
      </trkpt>
      <trkpt lat="49.72653" lon="2.35062">
        <ele>58.2</ele>
        <time>2022-10-05T14:05:45Z</time>
      </trkpt>
      <trkpt lat="49.72654" lon="2.35062">
        <ele>58.2</ele>
        <time>2022-10-05T14:05:46Z</time>
      </trkpt>
      <trkpt lat="49.72655" lon="2.35062">
        <ele>58.2</ele>
        <time>2022-10-05T14:05:47Z</time>
      </trkpt>
      <trkpt lat="49.72657" lon="2.35063">
        <ele>58.2</ele>
        <time>2022-10-05T14:05:48Z</time>
      </trkpt>
      <trkpt lat="49.72658" lon="2.35064">
        <ele>58.2</ele>
        <time>2022-10-05T14:05:49Z</time>
      </trkpt>
      <trkpt lat="49.7266" lon="2.35065">
        <ele>58.2</ele>
        <time>2022-10-05T14:05:50Z</time>
      </trkpt>
      <trkpt lat="49.7266" lon="2.35065">
        <ele>58.2</ele>
        <time>2022-10-05T14:05:51Z</time>
      </trkpt>
      <trkpt lat="49.72661" lon="2.35065">
        <ele>58.3</ele>
        <time>2022-10-05T14:05:52Z</time>
      </trkpt>
      <trkpt lat="49.72662" lon="2.35066">
        <ele>58.3</ele>
        <time>2022-10-05T14:05:53Z</time>
      </trkpt>
      <trkpt lat="49.72663" lon="2.35066">
        <ele>58.3</ele>
        <time>2022-10-05T14:05:54Z</time>
      </trkpt>
      <trkpt lat="49.72664" lon="2.35067">
        <ele>58.3</ele>
        <time>2022-10-05T14:05:55Z</time>
      </trkpt>
      <trkpt lat="49.72665" lon="2.35067">
        <ele>58.3</ele>
        <time>2022-10-05T14:05:56Z</time>
      </trkpt>
      <trkpt lat="49.72667" lon="2.35069">
        <ele>58.3</ele>
        <time>2022-10-05T14:05:58Z</time>
      </trkpt>
      <trkpt lat="49.72667" lon="2.35069">
        <ele>58.3</ele>
        <time>2022-10-05T14:05:59Z</time>
      </trkpt>
      <trkpt lat="49.72668" lon="2.3507">
        <ele>58.3</ele>
        <time>2022-10-05T14:06:00Z</time>
      </trkpt>
      <trkpt lat="49.7267" lon="2.35071">
        <ele>58.3</ele>
        <time>2022-10-05T14:06:01Z</time>
      </trkpt>
      <trkpt lat="49.7267" lon="2.35071">
        <ele>58.3</ele>
        <time>2022-10-05T14:06:02Z</time>
      </trkpt>
      <trkpt lat="49.72672" lon="2.35072">
        <ele>58.3</ele>
        <time>2022-10-05T14:06:03Z</time>
      </trkpt>
      <trkpt lat="49.72673" lon="2.35072">
        <ele>58.3</ele>
        <time>2022-10-05T14:06:04Z</time>
      </trkpt>
      <trkpt lat="49.72674" lon="2.35072">
        <ele>58.3</ele>
        <time>2022-10-05T14:06:05Z</time>
      </trkpt>
      <trkpt lat="49.72675" lon="2.35072">
        <ele>58.3</ele>
        <time>2022-10-05T14:06:06Z</time>
      </trkpt>
      <trkpt lat="49.72676" lon="2.35073">
        <ele>58.4</ele>
        <time>2022-10-05T14:06:07Z</time>
      </trkpt>
      <trkpt lat="49.72677" lon="2.35073">
        <ele>58.4</ele>
        <time>2022-10-05T14:06:08Z</time>
      </trkpt>
      <trkpt lat="49.72678" lon="2.35073">
        <ele>58.4</ele>
        <time>2022-10-05T14:06:09Z</time>
      </trkpt>
      <trkpt lat="49.7268" lon="2.35074">
        <ele>58.4</ele>
        <time>2022-10-05T14:06:10Z</time>
      </trkpt>
      <trkpt lat="49.72681" lon="2.35074">
        <ele>58.4</ele>
        <time>2022-10-05T14:06:12Z</time>
      </trkpt>
      <trkpt lat="49.72682" lon="2.35073">
        <ele>58.4</ele>
        <time>2022-10-05T14:06:13Z</time>
      </trkpt>
      <trkpt lat="49.72682" lon="2.35073">
        <ele>58.4</ele>
        <time>2022-10-05T14:06:14Z</time>
      </trkpt>
      <trkpt lat="49.72683" lon="2.35072">
        <ele>58.5</ele>
        <time>2022-10-05T14:06:15Z</time>
      </trkpt>
      <trkpt lat="49.72683" lon="2.35071">
        <ele>58.5</ele>
        <time>2022-10-05T14:06:16Z</time>
      </trkpt>
      <trkpt lat="49.72684" lon="2.35071">
        <ele>58.5</ele>
        <time>2022-10-05T14:06:17Z</time>
      </trkpt>
      <trkpt lat="49.72684" lon="2.35072">
        <ele>58.5</ele>
        <time>2022-10-05T14:06:18Z</time>
      </trkpt>
      <trkpt lat="49.72684" lon="2.35072">
        <ele>58.5</ele>
        <time>2022-10-05T14:06:19Z</time>
      </trkpt>
      <trkpt lat="49.72683" lon="2.35073">
        <ele>58.5</ele>
        <time>2022-10-05T14:06:20Z</time>
      </trkpt>
      <trkpt lat="49.72683" lon="2.35073">
        <ele>58.5</ele>
        <time>2022-10-05T14:06:21Z</time>
      </trkpt>
      <trkpt lat="49.72682" lon="2.35074">
        <ele>58.5</ele>
        <time>2022-10-05T14:06:22Z</time>
      </trkpt>
      <trkpt lat="49.72682" lon="2.35074">
        <ele>58.5</ele>
        <time>2022-10-05T14:06:24Z</time>
      </trkpt>
      <trkpt lat="49.72681" lon="2.35074">
        <ele>58.5</ele>
        <time>2022-10-05T14:06:25Z</time>
      </trkpt>
      <trkpt lat="49.72681" lon="2.35074">
        <ele>58.5</ele>
        <time>2022-10-05T14:06:26Z</time>
      </trkpt>
      <trkpt lat="49.72682" lon="2.35074">
        <ele>58.5</ele>
        <time>2022-10-05T14:06:28Z</time>
      </trkpt>
      <trkpt lat="49.72682" lon="2.35075">
        <ele>58.5</ele>
        <time>2022-10-05T14:06:29Z</time>
      </trkpt>
      <trkpt lat="49.72683" lon="2.35075">
        <ele>58.5</ele>
        <time>2022-10-05T14:06:31Z</time>
      </trkpt>
      <trkpt lat="49.72683" lon="2.35076">
        <ele>58.6</ele>
        <time>2022-10-05T14:06:32Z</time>
      </trkpt>
      <trkpt lat="49.72683" lon="2.35076">
        <ele>58.6</ele>
        <time>2022-10-05T14:06:33Z</time>
      </trkpt>
      <trkpt lat="49.72683" lon="2.35077">
        <ele>58.6</ele>
        <time>2022-10-05T14:06:34Z</time>
      </trkpt>
      <trkpt lat="49.72683" lon="2.35077">
        <ele>58.6</ele>
        <time>2022-10-05T14:06:35Z</time>
      </trkpt>
      <trkpt lat="49.72683" lon="2.35077">
        <ele>58.6</ele>
        <time>2022-10-05T14:06:36Z</time>
      </trkpt>
      <trkpt lat="49.72683" lon="2.35077">
        <ele>58.6</ele>
        <time>2022-10-05T14:06:37Z</time>
      </trkpt>
      <trkpt lat="49.72683" lon="2.35077">
        <ele>58.6</ele>
        <time>2022-10-05T14:06:39Z</time>
      </trkpt>
      <trkpt lat="49.72683" lon="2.35077">
        <ele>58.6</ele>
        <time>2022-10-05T14:06:40Z</time>
      </trkpt>
      <trkpt lat="49.72683" lon="2.35077">
        <ele>58.6</ele>
        <time>2022-10-05T14:06:41Z</time>
      </trkpt>
      <trkpt lat="49.72683" lon="2.35077">
        <ele>58.6</ele>
        <time>2022-10-05T14:06:42Z</time>
      </trkpt>
      <trkpt lat="49.72683" lon="2.35077">
        <ele>58.6</ele>
        <time>2022-10-05T14:06:43Z</time>
      </trkpt>
      <trkpt lat="49.72683" lon="2.35077">
        <ele>58.6</ele>
        <time>2022-10-05T14:06:44Z</time>
      </trkpt>
      <trkpt lat="49.72683" lon="2.35077">
        <ele>58.6</ele>
        <time>2022-10-05T14:06:45Z</time>
      </trkpt>
      <trkpt lat="49.72683" lon="2.35077">
        <ele>58.6</ele>
        <time>2022-10-05T14:06:46Z</time>
      </trkpt>
      <trkpt lat="49.72683" lon="2.35077">
        <ele>58.6</ele>
        <time>2022-10-05T14:06:47Z</time>
      </trkpt>
      <trkpt lat="49.72683" lon="2.35077">
        <ele>58.6</ele>
        <time>2022-10-05T14:06:49Z</time>
      </trkpt>
      <trkpt lat="49.72683" lon="2.35077">
        <ele>58.6</ele>
        <time>2022-10-05T14:06:50Z</time>
      </trkpt>
      <trkpt lat="49.72683" lon="2.35077">
        <ele>58.6</ele>
        <time>2022-10-05T14:06:51Z</time>
      </trkpt>
      <trkpt lat="49.72683" lon="2.35077">
        <ele>58.6</ele>
        <time>2022-10-05T14:06:52Z</time>
      </trkpt>
      <trkpt lat="49.72683" lon="2.35077">
        <ele>58.6</ele>
        <time>2022-10-05T14:06:53Z</time>
      </trkpt>
      <trkpt lat="49.72683" lon="2.35077">
        <ele>58.6</ele>
        <time>2022-10-05T14:06:54Z</time>
      </trkpt>
      <trkpt lat="49.72683" lon="2.35077">
        <ele>58.6</ele>
        <time>2022-10-05T14:06:55Z</time>
      </trkpt>
      <trkpt lat="49.72683" lon="2.35077">
        <ele>58.6</ele>
        <time>2022-10-05T14:06:56Z</time>
      </trkpt>
      <trkpt lat="49.72683" lon="2.35077">
        <ele>58.6</ele>
        <time>2022-10-05T14:06:57Z</time>
      </trkpt>
      <trkpt lat="49.72683" lon="2.35077">
        <ele>58.6</ele>
        <time>2022-10-05T14:06:58Z</time>
      </trkpt>
      <trkpt lat="49.72683" lon="2.35077">
        <ele>58.6</ele>
        <time>2022-10-05T14:06:59Z</time>
      </trkpt>
      <trkpt lat="49.72683" lon="2.35077">
        <ele>58.6</ele>
        <time>2022-10-05T14:07:00Z</time>
      </trkpt>
      <trkpt lat="49.72683" lon="2.35077">
        <ele>58.6</ele>
        <time>2022-10-05T14:07:01Z</time>
      </trkpt>
      <trkpt lat="49.72683" lon="2.35077">
        <ele>58.6</ele>
        <time>2022-10-05T14:07:02Z</time>
      </trkpt>
      <trkpt lat="49.72683" lon="2.35077">
        <ele>58.6</ele>
        <time>2022-10-05T14:07:03Z</time>
      </trkpt>
      <trkpt lat="49.72683" lon="2.35077">
        <ele>58.6</ele>
        <time>2022-10-05T14:07:04Z</time>
      </trkpt>
      <trkpt lat="49.72683" lon="2.35077">
        <ele>58.6</ele>
        <time>2022-10-05T14:07:05Z</time>
      </trkpt>
      <trkpt lat="49.72683" lon="2.35077">
        <ele>58.6</ele>
        <time>2022-10-05T14:07:06Z</time>
      </trkpt>
      <trkpt lat="49.72683" lon="2.35077">
        <ele>58.6</ele>
        <time>2022-10-05T14:07:07Z</time>
      </trkpt>
      <trkpt lat="49.72683" lon="2.35077">
        <ele>58.6</ele>
        <time>2022-10-05T14:07:08Z</time>
      </trkpt>
      <trkpt lat="49.72683" lon="2.35077">
        <ele>58.6</ele>
        <time>2022-10-05T14:07:09Z</time>
      </trkpt>
      <trkpt lat="49.72683" lon="2.35077">
        <ele>58.6</ele>
        <time>2022-10-05T14:07:10Z</time>
      </trkpt>
      <trkpt lat="49.72683" lon="2.35077">
        <ele>58.6</ele>
        <time>2022-10-05T14:07:11Z</time>
      </trkpt>
      <trkpt lat="49.72683" lon="2.35077">
        <ele>58.6</ele>
        <time>2022-10-05T14:07:12Z</time>
      </trkpt>
      <trkpt lat="49.72683" lon="2.35077">
        <ele>58.6</ele>
        <time>2022-10-05T14:07:13Z</time>
      </trkpt>
      <trkpt lat="49.72683" lon="2.35077">
        <ele>58.6</ele>
        <time>2022-10-05T14:07:14Z</time>
      </trkpt>
      <trkpt lat="49.72683" lon="2.35077">
        <ele>58.6</ele>
        <time>2022-10-05T14:07:15Z</time>
      </trkpt>
      <trkpt lat="49.72683" lon="2.35077">
        <ele>58.6</ele>
        <time>2022-10-05T14:07:16Z</time>
      </trkpt>
      <trkpt lat="49.72683" lon="2.35077">
        <ele>58.6</ele>
        <time>2022-10-05T14:07:17Z</time>
      </trkpt>
      <trkpt lat="49.72683" lon="2.35077">
        <ele>58.6</ele>
        <time>2022-10-05T14:07:18Z</time>
      </trkpt>
      <trkpt lat="49.72683" lon="2.35077">
        <ele>58.6</ele>
        <time>2022-10-05T14:07:19Z</time>
      </trkpt>
      <trkpt lat="49.72683" lon="2.35077">
        <ele>58.6</ele>
        <time>2022-10-05T14:07:20Z</time>
      </trkpt>
      <trkpt lat="49.72683" lon="2.35077">
        <ele>58.6</ele>
        <time>2022-10-05T14:07:21Z</time>
      </trkpt>
      <trkpt lat="49.72684" lon="2.35077">
        <ele>58.6</ele>
        <time>2022-10-05T14:07:22Z</time>
      </trkpt>
      <trkpt lat="49.72684" lon="2.35077">
        <ele>58.6</ele>
        <time>2022-10-05T14:07:23Z</time>
      </trkpt>
      <trkpt lat="49.72684" lon="2.35077">
        <ele>58.6</ele>
        <time>2022-10-05T14:07:24Z</time>
      </trkpt>
      <trkpt lat="49.72684" lon="2.35077">
        <ele>58.6</ele>
        <time>2022-10-05T14:07:25Z</time>
      </trkpt>
      <trkpt lat="49.72684" lon="2.35077">
        <ele>58.6</ele>
        <time>2022-10-05T14:07:26Z</time>
      </trkpt>
      <trkpt lat="49.72684" lon="2.35077">
        <ele>58.6</ele>
        <time>2022-10-05T14:07:27Z</time>
      </trkpt>
      <trkpt lat="49.72684" lon="2.35077">
        <ele>58.6</ele>
        <time>2022-10-05T14:07:28Z</time>
      </trkpt>
      <trkpt lat="49.72684" lon="2.35077">
        <ele>58.6</ele>
        <time>2022-10-05T14:07:29Z</time>
      </trkpt>
      <trkpt lat="49.72684" lon="2.35077">
        <ele>58.6</ele>
        <time>2022-10-05T14:07:30Z</time>
      </trkpt>
      <trkpt lat="49.72684" lon="2.35077">
        <ele>58.6</ele>
        <time>2022-10-05T14:07:31Z</time>
      </trkpt>
      <trkpt lat="49.72684" lon="2.35077">
        <ele>58.6</ele>
        <time>2022-10-05T14:07:32Z</time>
      </trkpt>
      <trkpt lat="49.72684" lon="2.35077">
        <ele>58.6</ele>
        <time>2022-10-05T14:07:33Z</time>
      </trkpt>
      <trkpt lat="49.72684" lon="2.35077">
        <ele>58.6</ele>
        <time>2022-10-05T14:07:34Z</time>
      </trkpt>
      <trkpt lat="49.72684" lon="2.35077">
        <ele>58.6</ele>
        <time>2022-10-05T14:07:35Z</time>
      </trkpt>
      <trkpt lat="49.72684" lon="2.35077">
        <ele>58.6</ele>
        <time>2022-10-05T14:07:36Z</time>
      </trkpt>
      <trkpt lat="49.72684" lon="2.35077">
        <ele>58.6</ele>
        <time>2022-10-05T14:07:37Z</time>
      </trkpt>
      <trkpt lat="49.72684" lon="2.35077">
        <ele>58.6</ele>
        <time>2022-10-05T14:07:38Z</time>
      </trkpt>
      <trkpt lat="49.72684" lon="2.35077">
        <ele>58.6</ele>
        <time>2022-10-05T14:07:39Z</time>
      </trkpt>
      <trkpt lat="49.72684" lon="2.35077">
        <ele>58.6</ele>
        <time>2022-10-05T14:07:40Z</time>
      </trkpt>
      <trkpt lat="49.72684" lon="2.35077">
        <ele>58.6</ele>
        <time>2022-10-05T14:07:41Z</time>
      </trkpt>
      <trkpt lat="49.72684" lon="2.35077">
        <ele>58.6</ele>
        <time>2022-10-05T14:07:42Z</time>
      </trkpt>
      <trkpt lat="49.72684" lon="2.35077">
        <ele>58.6</ele>
        <time>2022-10-05T14:07:43Z</time>
      </trkpt>
      <trkpt lat="49.72684" lon="2.35077">
        <ele>58.6</ele>
        <time>2022-10-05T14:07:44Z</time>
      </trkpt>
      <trkpt lat="49.72684" lon="2.35077">
        <ele>58.6</ele>
        <time>2022-10-05T14:07:45Z</time>
      </trkpt>
      <trkpt lat="49.72684" lon="2.35077">
        <ele>58.6</ele>
        <time>2022-10-05T14:07:46Z</time>
      </trkpt>
      <trkpt lat="49.72684" lon="2.35076">
        <ele>58.6</ele>
        <time>2022-10-05T14:07:47Z</time>
      </trkpt>
      <trkpt lat="49.72684" lon="2.35076">
        <ele>58.6</ele>
        <time>2022-10-05T14:07:48Z</time>
      </trkpt>
      <trkpt lat="49.72684" lon="2.35076">
        <ele>58.6</ele>
        <time>2022-10-05T14:07:49Z</time>
      </trkpt>
      <trkpt lat="49.72684" lon="2.35076">
        <ele>58.6</ele>
        <time>2022-10-05T14:07:50Z</time>
      </trkpt>
      <trkpt lat="49.72684" lon="2.35076">
        <ele>58.6</ele>
        <time>2022-10-05T14:07:51Z</time>
      </trkpt>
      <trkpt lat="49.72684" lon="2.35076">
        <ele>58.6</ele>
        <time>2022-10-05T14:07:52Z</time>
      </trkpt>
      <trkpt lat="49.72684" lon="2.35076">
        <ele>58.6</ele>
        <time>2022-10-05T14:07:53Z</time>
      </trkpt>
      <trkpt lat="49.72684" lon="2.35076">
        <ele>58.6</ele>
        <time>2022-10-05T14:07:54Z</time>
      </trkpt>
      <trkpt lat="49.72684" lon="2.35076">
        <ele>58.6</ele>
        <time>2022-10-05T14:07:55Z</time>
      </trkpt>
      <trkpt lat="49.72684" lon="2.35076">
        <ele>58.6</ele>
        <time>2022-10-05T14:07:56Z</time>
      </trkpt>
      <trkpt lat="49.72684" lon="2.35076">
        <ele>58.6</ele>
        <time>2022-10-05T14:07:57Z</time>
      </trkpt>
      <trkpt lat="49.72684" lon="2.35076">
        <ele>58.6</ele>
        <time>2022-10-05T14:07:58Z</time>
      </trkpt>
      <trkpt lat="49.72684" lon="2.35076">
        <ele>58.6</ele>
        <time>2022-10-05T14:07:59Z</time>
      </trkpt>
      <trkpt lat="49.72684" lon="2.35076">
        <ele>58.6</ele>
        <time>2022-10-05T14:08:00Z</time>
      </trkpt>
      <trkpt lat="49.72684" lon="2.35076">
        <ele>58.6</ele>
        <time>2022-10-05T14:08:01Z</time>
      </trkpt>
      <trkpt lat="49.72684" lon="2.35076">
        <ele>58.6</ele>
        <time>2022-10-05T14:08:02Z</time>
      </trkpt>
      <trkpt lat="49.72684" lon="2.35076">
        <ele>58.6</ele>
        <time>2022-10-05T14:08:03Z</time>
      </trkpt>
      <trkpt lat="49.72684" lon="2.35076">
        <ele>58.6</ele>
        <time>2022-10-05T14:08:04Z</time>
      </trkpt>
      <trkpt lat="49.72684" lon="2.35076">
        <ele>58.6</ele>
        <time>2022-10-05T14:08:05Z</time>
      </trkpt>
      <trkpt lat="49.72684" lon="2.35076">
        <ele>58.6</ele>
        <time>2022-10-05T14:08:06Z</time>
      </trkpt>
      <trkpt lat="49.72684" lon="2.35076">
        <ele>58.6</ele>
        <time>2022-10-05T14:08:07Z</time>
      </trkpt>
      <trkpt lat="49.72684" lon="2.35076">
        <ele>58.6</ele>
        <time>2022-10-05T14:08:08Z</time>
      </trkpt>
      <trkpt lat="49.72684" lon="2.35076">
        <ele>58.6</ele>
        <time>2022-10-05T14:08:09Z</time>
      </trkpt>
      <trkpt lat="49.72684" lon="2.35076">
        <ele>58.6</ele>
        <time>2022-10-05T14:08:10Z</time>
      </trkpt>
      <trkpt lat="49.72684" lon="2.35076">
        <ele>58.6</ele>
        <time>2022-10-05T14:08:11Z</time>
      </trkpt>
      <trkpt lat="49.72684" lon="2.35076">
        <ele>58.6</ele>
        <time>2022-10-05T14:08:12Z</time>
      </trkpt>
      <trkpt lat="49.72684" lon="2.35076">
        <ele>58.6</ele>
        <time>2022-10-05T14:08:13Z</time>
      </trkpt>
      <trkpt lat="49.72684" lon="2.35076">
        <ele>58.6</ele>
        <time>2022-10-05T14:08:14Z</time>
      </trkpt>
      <trkpt lat="49.72684" lon="2.35076">
        <ele>58.6</ele>
        <time>2022-10-05T14:08:15Z</time>
      </trkpt>
      <trkpt lat="49.72684" lon="2.35076">
        <ele>58.6</ele>
        <time>2022-10-05T14:08:16Z</time>
      </trkpt>
      <trkpt lat="49.72684" lon="2.35076">
        <ele>58.6</ele>
        <time>2022-10-05T14:08:17Z</time>
      </trkpt>
      <trkpt lat="49.72685" lon="2.35076">
        <ele>58.6</ele>
        <time>2022-10-05T14:08:18Z</time>
      </trkpt>
      <trkpt lat="49.72685" lon="2.35076">
        <ele>58.6</ele>
        <time>2022-10-05T14:08:19Z</time>
      </trkpt>
      <trkpt lat="49.72685" lon="2.35076">
        <ele>58.6</ele>
        <time>2022-10-05T14:08:20Z</time>
      </trkpt>
      <trkpt lat="49.72685" lon="2.35076">
        <ele>58.6</ele>
        <time>2022-10-05T14:08:21Z</time>
      </trkpt>
      <trkpt lat="49.72685" lon="2.35076">
        <ele>58.6</ele>
        <time>2022-10-05T14:08:22Z</time>
      </trkpt>
      <trkpt lat="49.72685" lon="2.35076">
        <ele>58.6</ele>
        <time>2022-10-05T14:08:23Z</time>
      </trkpt>
      <trkpt lat="49.72685" lon="2.35076">
        <ele>58.6</ele>
        <time>2022-10-05T14:08:24Z</time>
      </trkpt>
      <trkpt lat="49.72685" lon="2.35076">
        <ele>58.6</ele>
        <time>2022-10-05T14:08:25Z</time>
      </trkpt>
      <trkpt lat="49.72685" lon="2.35076">
        <ele>58.6</ele>
        <time>2022-10-05T14:08:26Z</time>
      </trkpt>
      <trkpt lat="49.72685" lon="2.35076">
        <ele>58.6</ele>
        <time>2022-10-05T14:08:27Z</time>
      </trkpt>
      <trkpt lat="49.72685" lon="2.35076">
        <ele>58.6</ele>
        <time>2022-10-05T14:08:28Z</time>
      </trkpt>
      <trkpt lat="49.72685" lon="2.35076">
        <ele>58.6</ele>
        <time>2022-10-05T14:08:29Z</time>
      </trkpt>
      <trkpt lat="49.72685" lon="2.35076">
        <ele>58.6</ele>
        <time>2022-10-05T14:08:30Z</time>
      </trkpt>
      <trkpt lat="49.72685" lon="2.35076">
        <ele>58.6</ele>
        <time>2022-10-05T14:08:31Z</time>
      </trkpt>
      <trkpt lat="49.72685" lon="2.35076">
        <ele>58.6</ele>
        <time>2022-10-05T14:08:32Z</time>
      </trkpt>
      <trkpt lat="49.72685" lon="2.35076">
        <ele>58.6</ele>
        <time>2022-10-05T14:08:33Z</time>
      </trkpt>
      <trkpt lat="49.72685" lon="2.35076">
        <ele>58.6</ele>
        <time>2022-10-05T14:08:34Z</time>
      </trkpt>
      <trkpt lat="49.72685" lon="2.35076">
        <ele>58.6</ele>
        <time>2022-10-05T14:08:35Z</time>
      </trkpt>
      <trkpt lat="49.72685" lon="2.35076">
        <ele>58.6</ele>
        <time>2022-10-05T14:08:36Z</time>
      </trkpt>
      <trkpt lat="49.72685" lon="2.35076">
        <ele>58.6</ele>
        <time>2022-10-05T14:08:37Z</time>
      </trkpt>
      <trkpt lat="49.72685" lon="2.35076">
        <ele>58.6</ele>
        <time>2022-10-05T14:08:38Z</time>
      </trkpt>
      <trkpt lat="49.72685" lon="2.35076">
        <ele>58.6</ele>
        <time>2022-10-05T14:08:39Z</time>
      </trkpt>
      <trkpt lat="49.72685" lon="2.35076">
        <ele>58.6</ele>
        <time>2022-10-05T14:08:40Z</time>
      </trkpt>
      <trkpt lat="49.72685" lon="2.35076">
        <ele>58.6</ele>
        <time>2022-10-05T14:08:41Z</time>
      </trkpt>
      <trkpt lat="49.72685" lon="2.35076">
        <ele>58.6</ele>
        <time>2022-10-05T14:08:42Z</time>
      </trkpt>
      <trkpt lat="49.72685" lon="2.35076">
        <ele>58.6</ele>
        <time>2022-10-05T14:08:43Z</time>
      </trkpt>
      <trkpt lat="49.72685" lon="2.35076">
        <ele>58.6</ele>
        <time>2022-10-05T14:08:44Z</time>
      </trkpt>
      <trkpt lat="49.72685" lon="2.35076">
        <ele>58.6</ele>
        <time>2022-10-05T14:08:45Z</time>
      </trkpt>
      <trkpt lat="49.72685" lon="2.35076">
        <ele>58.6</ele>
        <time>2022-10-05T14:08:46Z</time>
      </trkpt>
      <trkpt lat="49.72685" lon="2.35076">
        <ele>58.6</ele>
        <time>2022-10-05T14:08:47Z</time>
      </trkpt>
      <trkpt lat="49.72685" lon="2.35076">
        <ele>58.6</ele>
        <time>2022-10-05T14:08:48Z</time>
      </trkpt>
      <trkpt lat="49.72685" lon="2.35076">
        <ele>58.6</ele>
        <time>2022-10-05T14:08:49Z</time>
      </trkpt>
      <trkpt lat="49.72685" lon="2.35076">
        <ele>58.6</ele>
        <time>2022-10-05T14:08:50Z</time>
      </trkpt>
      <trkpt lat="49.72685" lon="2.35076">
        <ele>58.6</ele>
        <time>2022-10-05T14:08:51Z</time>
      </trkpt>
      <trkpt lat="49.72685" lon="2.35076">
        <ele>58.7</ele>
        <time>2022-10-05T14:08:52Z</time>
      </trkpt>
      <trkpt lat="49.72685" lon="2.35076">
        <ele>58.7</ele>
        <time>2022-10-05T14:08:53Z</time>
      </trkpt>
      <trkpt lat="49.72685" lon="2.35076">
        <ele>58.7</ele>
        <time>2022-10-05T14:08:54Z</time>
      </trkpt>
      <trkpt lat="49.72685" lon="2.35076">
        <ele>58.7</ele>
        <time>2022-10-05T14:08:55Z</time>
      </trkpt>
      <trkpt lat="49.72685" lon="2.35076">
        <ele>58.7</ele>
        <time>2022-10-05T14:08:56Z</time>
      </trkpt>
      <trkpt lat="49.72685" lon="2.35076">
        <ele>58.7</ele>
        <time>2022-10-05T14:08:57Z</time>
      </trkpt>
      <trkpt lat="49.72685" lon="2.35076">
        <ele>58.7</ele>
        <time>2022-10-05T14:08:58Z</time>
      </trkpt>
      <trkpt lat="49.72685" lon="2.35076">
        <ele>58.7</ele>
        <time>2022-10-05T14:08:59Z</time>
      </trkpt>
      <trkpt lat="49.72685" lon="2.35076">
        <ele>58.7</ele>
        <time>2022-10-05T14:09:00Z</time>
      </trkpt>
      <trkpt lat="49.72685" lon="2.35076">
        <ele>58.7</ele>
        <time>2022-10-05T14:09:01Z</time>
      </trkpt>
      <trkpt lat="49.72685" lon="2.35076">
        <ele>58.7</ele>
        <time>2022-10-05T14:09:02Z</time>
      </trkpt>
      <trkpt lat="49.72685" lon="2.35076">
        <ele>58.7</ele>
        <time>2022-10-05T14:09:03Z</time>
      </trkpt>
      <trkpt lat="49.72685" lon="2.35076">
        <ele>58.7</ele>
        <time>2022-10-05T14:09:04Z</time>
      </trkpt>
      <trkpt lat="49.72685" lon="2.35076">
        <ele>58.7</ele>
        <time>2022-10-05T14:09:05Z</time>
      </trkpt>
      <trkpt lat="49.72685" lon="2.35075">
        <ele>58.7</ele>
        <time>2022-10-05T14:09:06Z</time>
      </trkpt>
      <trkpt lat="49.72685" lon="2.35075">
        <ele>58.7</ele>
        <time>2022-10-05T14:09:07Z</time>
      </trkpt>
      <trkpt lat="49.72685" lon="2.35075">
        <ele>58.7</ele>
        <time>2022-10-05T14:09:08Z</time>
      </trkpt>
      <trkpt lat="49.72685" lon="2.35075">
        <ele>58.7</ele>
        <time>2022-10-05T14:09:09Z</time>
      </trkpt>
      <trkpt lat="49.72685" lon="2.35075">
        <ele>58.7</ele>
        <time>2022-10-05T14:09:10Z</time>
      </trkpt>
      <trkpt lat="49.72685" lon="2.35075">
        <ele>58.7</ele>
        <time>2022-10-05T14:09:11Z</time>
      </trkpt>
      <trkpt lat="49.72685" lon="2.35075">
        <ele>58.7</ele>
        <time>2022-10-05T14:09:12Z</time>
      </trkpt>
      <trkpt lat="49.72685" lon="2.35075">
        <ele>58.7</ele>
        <time>2022-10-05T14:09:13Z</time>
      </trkpt>
      <trkpt lat="49.72686" lon="2.35075">
        <ele>58.7</ele>
        <time>2022-10-05T14:09:14Z</time>
      </trkpt>
      <trkpt lat="49.72686" lon="2.35075">
        <ele>58.7</ele>
        <time>2022-10-05T14:09:15Z</time>
      </trkpt>
      <trkpt lat="49.72686" lon="2.35075">
        <ele>58.7</ele>
        <time>2022-10-05T14:09:16Z</time>
      </trkpt>
      <trkpt lat="49.72686" lon="2.35075">
        <ele>58.7</ele>
        <time>2022-10-05T14:09:17Z</time>
      </trkpt>
      <trkpt lat="49.72686" lon="2.35075">
        <ele>58.7</ele>
        <time>2022-10-05T14:09:18Z</time>
      </trkpt>
      <trkpt lat="49.72686" lon="2.35075">
        <ele>58.7</ele>
        <time>2022-10-05T14:09:19Z</time>
      </trkpt>
      <trkpt lat="49.72686" lon="2.35075">
        <ele>58.7</ele>
        <time>2022-10-05T14:09:20Z</time>
      </trkpt>
      <trkpt lat="49.72686" lon="2.35075">
        <ele>58.7</ele>
        <time>2022-10-05T14:09:21Z</time>
      </trkpt>
      <trkpt lat="49.72686" lon="2.35075">
        <ele>58.7</ele>
        <time>2022-10-05T14:09:22Z</time>
      </trkpt>
      <trkpt lat="49.72686" lon="2.35075">
        <ele>58.7</ele>
        <time>2022-10-05T14:09:23Z</time>
      </trkpt>
      <trkpt lat="49.72686" lon="2.35075">
        <ele>58.7</ele>
        <time>2022-10-05T14:09:24Z</time>
      </trkpt>
      <trkpt lat="49.72686" lon="2.35075">
        <ele>58.7</ele>
        <time>2022-10-05T14:09:25Z</time>
      </trkpt>
      <trkpt lat="49.72686" lon="2.35075">
        <ele>58.7</ele>
        <time>2022-10-05T14:09:26Z</time>
      </trkpt>
      <trkpt lat="49.72686" lon="2.35075">
        <ele>58.7</ele>
        <time>2022-10-05T14:09:27Z</time>
      </trkpt>
      <trkpt lat="49.72686" lon="2.35075">
        <ele>58.7</ele>
        <time>2022-10-05T14:09:28Z</time>
      </trkpt>
      <trkpt lat="49.72686" lon="2.35075">
        <ele>58.7</ele>
        <time>2022-10-05T14:09:29Z</time>
      </trkpt>
      <trkpt lat="49.72686" lon="2.35075">
        <ele>58.7</ele>
        <time>2022-10-05T14:09:30Z</time>
      </trkpt>
      <trkpt lat="49.72686" lon="2.35075">
        <ele>58.7</ele>
        <time>2022-10-05T14:09:31Z</time>
      </trkpt>
      <trkpt lat="49.72686" lon="2.35075">
        <ele>58.7</ele>
        <time>2022-10-05T14:09:32Z</time>
      </trkpt>
      <trkpt lat="49.72686" lon="2.35075">
        <ele>58.7</ele>
        <time>2022-10-05T14:09:33Z</time>
      </trkpt>
      <trkpt lat="49.72686" lon="2.35075">
        <ele>58.7</ele>
        <time>2022-10-05T14:09:34Z</time>
      </trkpt>
      <trkpt lat="49.72686" lon="2.35075">
        <ele>58.7</ele>
        <time>2022-10-05T14:09:35Z</time>
      </trkpt>
      <trkpt lat="49.72686" lon="2.35075">
        <ele>58.7</ele>
        <time>2022-10-05T14:09:36Z</time>
      </trkpt>
      <trkpt lat="49.72686" lon="2.35075">
        <ele>58.7</ele>
        <time>2022-10-05T14:09:37Z</time>
      </trkpt>
      <trkpt lat="49.72686" lon="2.35075">
        <ele>58.7</ele>
        <time>2022-10-05T14:09:38Z</time>
      </trkpt>
      <trkpt lat="49.72686" lon="2.35075">
        <ele>58.7</ele>
        <time>2022-10-05T14:09:39Z</time>
      </trkpt>
      <trkpt lat="49.72686" lon="2.35075">
        <ele>58.7</ele>
        <time>2022-10-05T14:09:40Z</time>
      </trkpt>
      <trkpt lat="49.72686" lon="2.35075">
        <ele>58.7</ele>
        <time>2022-10-05T14:09:41Z</time>
      </trkpt>
      <trkpt lat="49.72686" lon="2.35075">
        <ele>58.7</ele>
        <time>2022-10-05T14:09:42Z</time>
      </trkpt>
      <trkpt lat="49.72686" lon="2.35075">
        <ele>58.7</ele>
        <time>2022-10-05T14:09:43Z</time>
      </trkpt>
      <trkpt lat="49.72686" lon="2.35075">
        <ele>58.7</ele>
        <time>2022-10-05T14:09:44Z</time>
      </trkpt>
      <trkpt lat="49.72686" lon="2.35075">
        <ele>58.7</ele>
        <time>2022-10-05T14:09:45Z</time>
      </trkpt>
      <trkpt lat="49.72686" lon="2.35075">
        <ele>58.7</ele>
        <time>2022-10-05T14:09:46Z</time>
      </trkpt>
      <trkpt lat="49.72686" lon="2.35075">
        <ele>58.7</ele>
        <time>2022-10-05T14:09:47Z</time>
      </trkpt>
      <trkpt lat="49.72686" lon="2.35075">
        <ele>58.7</ele>
        <time>2022-10-05T14:09:48Z</time>
      </trkpt>
      <trkpt lat="49.72686" lon="2.35075">
        <ele>58.7</ele>
        <time>2022-10-05T14:09:49Z</time>
      </trkpt>
      <trkpt lat="49.72686" lon="2.35075">
        <ele>58.7</ele>
        <time>2022-10-05T14:09:50Z</time>
      </trkpt>
      <trkpt lat="49.72686" lon="2.35075">
        <ele>58.7</ele>
        <time>2022-10-05T14:09:51Z</time>
      </trkpt>
      <trkpt lat="49.72686" lon="2.35075">
        <ele>58.7</ele>
        <time>2022-10-05T14:09:52Z</time>
      </trkpt>
      <trkpt lat="49.72686" lon="2.35075">
        <ele>58.7</ele>
        <time>2022-10-05T14:09:53Z</time>
      </trkpt>
      <trkpt lat="49.72686" lon="2.35075">
        <ele>58.7</ele>
        <time>2022-10-05T14:09:54Z</time>
      </trkpt>
      <trkpt lat="49.72688" lon="2.35075">
        <ele>58.7</ele>
        <time>2022-10-05T14:09:55Z</time>
      </trkpt>
      <trkpt lat="49.72688" lon="2.35074">
        <ele>58.7</ele>
        <time>2022-10-05T14:09:56Z</time>
      </trkpt>
      <trkpt lat="49.72689" lon="2.35074">
        <ele>58.7</ele>
        <time>2022-10-05T14:09:57Z</time>
      </trkpt>
      <trkpt lat="49.7269" lon="2.35074">
        <ele>58.7</ele>
        <time>2022-10-05T14:09:58Z</time>
      </trkpt>
      <trkpt lat="49.72691" lon="2.35074">
        <ele>58.7</ele>
        <time>2022-10-05T14:09:59Z</time>
      </trkpt>
      <trkpt lat="49.72692" lon="2.35074">
        <ele>58.7</ele>
        <time>2022-10-05T14:10:00Z</time>
      </trkpt>
      <trkpt lat="49.72693" lon="2.35074">
        <ele>58.8</ele>
        <time>2022-10-05T14:10:01Z</time>
      </trkpt>
      <trkpt lat="49.72693" lon="2.35074">
        <ele>58.8</ele>
        <time>2022-10-05T14:10:02Z</time>
      </trkpt>
      <trkpt lat="49.72694" lon="2.35074">
        <ele>58.8</ele>
        <time>2022-10-05T14:10:03Z</time>
      </trkpt>
      <trkpt lat="49.72695" lon="2.35073">
        <ele>58.8</ele>
        <time>2022-10-05T14:10:04Z</time>
      </trkpt>
      <trkpt lat="49.72697" lon="2.35072">
        <ele>58.8</ele>
        <time>2022-10-05T14:10:06Z</time>
      </trkpt>
      <trkpt lat="49.72697" lon="2.35072">
        <ele>58.8</ele>
        <time>2022-10-05T14:10:07Z</time>
      </trkpt>
      <trkpt lat="49.72699" lon="2.35072">
        <ele>58.8</ele>
        <time>2022-10-05T14:10:08Z</time>
      </trkpt>
      <trkpt lat="49.727" lon="2.35072">
        <ele>58.8</ele>
        <time>2022-10-05T14:10:09Z</time>
      </trkpt>
      <trkpt lat="49.72701" lon="2.35073">
        <ele>58.7</ele>
        <time>2022-10-05T14:10:10Z</time>
      </trkpt>
      <trkpt lat="49.72701" lon="2.35073">
        <ele>58.7</ele>
        <time>2022-10-05T14:10:11Z</time>
      </trkpt>
      <trkpt lat="49.72701" lon="2.35073">
        <ele>58.7</ele>
        <time>2022-10-05T14:10:12Z</time>
      </trkpt>
      <trkpt lat="49.72701" lon="2.35073">
        <ele>58.7</ele>
        <time>2022-10-05T14:10:13Z</time>
      </trkpt>
      <trkpt lat="49.72701" lon="2.35073">
        <ele>58.7</ele>
        <time>2022-10-05T14:10:14Z</time>
      </trkpt>
      <trkpt lat="49.72701" lon="2.35073">
        <ele>58.7</ele>
        <time>2022-10-05T14:10:15Z</time>
      </trkpt>
      <trkpt lat="49.72701" lon="2.35073">
        <ele>58.7</ele>
        <time>2022-10-05T14:10:16Z</time>
      </trkpt>
      <trkpt lat="49.72701" lon="2.35073">
        <ele>58.7</ele>
        <time>2022-10-05T14:10:17Z</time>
      </trkpt>
      <trkpt lat="49.72701" lon="2.35073">
        <ele>58.7</ele>
        <time>2022-10-05T14:10:18Z</time>
      </trkpt>
      <trkpt lat="49.72701" lon="2.35073">
        <ele>58.7</ele>
        <time>2022-10-05T14:10:19Z</time>
      </trkpt>
      <trkpt lat="49.72701" lon="2.35073">
        <ele>58.7</ele>
        <time>2022-10-05T14:10:20Z</time>
      </trkpt>
      <trkpt lat="49.72701" lon="2.35073">
        <ele>58.7</ele>
        <time>2022-10-05T14:10:21Z</time>
      </trkpt>
      <trkpt lat="49.727" lon="2.35073">
        <ele>58.7</ele>
        <time>2022-10-05T14:10:22Z</time>
      </trkpt>
      <trkpt lat="49.727" lon="2.35073">
        <ele>58.7</ele>
        <time>2022-10-05T14:10:23Z</time>
      </trkpt>
      <trkpt lat="49.727" lon="2.35073">
        <ele>58.7</ele>
        <time>2022-10-05T14:10:24Z</time>
      </trkpt>
      <trkpt lat="49.727" lon="2.35073">
        <ele>58.7</ele>
        <time>2022-10-05T14:10:25Z</time>
      </trkpt>
      <trkpt lat="49.727" lon="2.35073">
        <ele>58.7</ele>
        <time>2022-10-05T14:10:26Z</time>
      </trkpt>
      <trkpt lat="49.727" lon="2.35073">
        <ele>58.7</ele>
        <time>2022-10-05T14:10:27Z</time>
      </trkpt>
      <trkpt lat="49.727" lon="2.35073">
        <ele>58.7</ele>
        <time>2022-10-05T14:10:28Z</time>
      </trkpt>
      <trkpt lat="49.727" lon="2.35073">
        <ele>58.7</ele>
        <time>2022-10-05T14:10:29Z</time>
      </trkpt>
      <trkpt lat="49.727" lon="2.35073">
        <ele>58.7</ele>
        <time>2022-10-05T14:10:30Z</time>
      </trkpt>
      <trkpt lat="49.727" lon="2.35073">
        <ele>58.7</ele>
        <time>2022-10-05T14:10:31Z</time>
      </trkpt>
      <trkpt lat="49.727" lon="2.35073">
        <ele>58.7</ele>
        <time>2022-10-05T14:10:32Z</time>
      </trkpt>
      <trkpt lat="49.727" lon="2.35073">
        <ele>58.7</ele>
        <time>2022-10-05T14:10:33Z</time>
      </trkpt>
      <trkpt lat="49.727" lon="2.35073">
        <ele>58.7</ele>
        <time>2022-10-05T14:10:34Z</time>
      </trkpt>
      <trkpt lat="49.727" lon="2.35073">
        <ele>58.6</ele>
        <time>2022-10-05T14:10:35Z</time>
      </trkpt>
      <trkpt lat="49.727" lon="2.35073">
        <ele>58.6</ele>
        <time>2022-10-05T14:10:36Z</time>
      </trkpt>
      <trkpt lat="49.727" lon="2.35073">
        <ele>58.6</ele>
        <time>2022-10-05T14:10:37Z</time>
      </trkpt>
      <trkpt lat="49.727" lon="2.35073">
        <ele>58.6</ele>
        <time>2022-10-05T14:10:38Z</time>
      </trkpt>
      <trkpt lat="49.727" lon="2.35073">
        <ele>58.6</ele>
        <time>2022-10-05T14:10:39Z</time>
      </trkpt>
      <trkpt lat="49.727" lon="2.35073">
        <ele>58.6</ele>
        <time>2022-10-05T14:10:40Z</time>
      </trkpt>
      <trkpt lat="49.727" lon="2.35074">
        <ele>58.6</ele>
        <time>2022-10-05T14:10:41Z</time>
      </trkpt>
      <trkpt lat="49.727" lon="2.35074">
        <ele>58.6</ele>
        <time>2022-10-05T14:10:42Z</time>
      </trkpt>
      <trkpt lat="49.727" lon="2.35074">
        <ele>58.6</ele>
        <time>2022-10-05T14:10:43Z</time>
      </trkpt>
      <trkpt lat="49.72699" lon="2.35074">
        <ele>58.6</ele>
        <time>2022-10-05T14:10:44Z</time>
      </trkpt>
      <trkpt lat="49.72699" lon="2.35074">
        <ele>58.6</ele>
        <time>2022-10-05T14:10:45Z</time>
      </trkpt>
      <trkpt lat="49.72699" lon="2.35074">
        <ele>58.6</ele>
        <time>2022-10-05T14:10:46Z</time>
      </trkpt>
      <trkpt lat="49.72699" lon="2.35074">
        <ele>58.6</ele>
        <time>2022-10-05T14:10:47Z</time>
      </trkpt>
      <trkpt lat="49.72699" lon="2.35074">
        <ele>58.6</ele>
        <time>2022-10-05T14:10:48Z</time>
      </trkpt>
      <trkpt lat="49.72699" lon="2.35074">
        <ele>58.6</ele>
        <time>2022-10-05T14:10:49Z</time>
      </trkpt>
      <trkpt lat="49.72699" lon="2.35074">
        <ele>58.6</ele>
        <time>2022-10-05T14:10:50Z</time>
      </trkpt>
      <trkpt lat="49.72699" lon="2.35074">
        <ele>58.6</ele>
        <time>2022-10-05T14:10:51Z</time>
      </trkpt>
      <trkpt lat="49.72699" lon="2.35074">
        <ele>58.6</ele>
        <time>2022-10-05T14:10:52Z</time>
      </trkpt>
      <trkpt lat="49.72699" lon="2.35074">
        <ele>58.6</ele>
        <time>2022-10-05T14:10:53Z</time>
      </trkpt>
      <trkpt lat="49.72699" lon="2.35074">
        <ele>58.6</ele>
        <time>2022-10-05T14:10:54Z</time>
      </trkpt>
      <trkpt lat="49.72699" lon="2.35074">
        <ele>58.6</ele>
        <time>2022-10-05T14:10:55Z</time>
      </trkpt>
      <trkpt lat="49.72699" lon="2.35074">
        <ele>58.6</ele>
        <time>2022-10-05T14:10:56Z</time>
      </trkpt>
      <trkpt lat="49.72699" lon="2.35074">
        <ele>58.6</ele>
        <time>2022-10-05T14:10:57Z</time>
      </trkpt>
      <trkpt lat="49.72699" lon="2.35074">
        <ele>58.6</ele>
        <time>2022-10-05T14:10:58Z</time>
      </trkpt>
      <trkpt lat="49.72699" lon="2.35074">
        <ele>58.6</ele>
        <time>2022-10-05T14:10:59Z</time>
      </trkpt>
      <trkpt lat="49.72699" lon="2.35074">
        <ele>58.6</ele>
        <time>2022-10-05T14:11:00Z</time>
      </trkpt>
      <trkpt lat="49.72699" lon="2.35074">
        <ele>58.6</ele>
        <time>2022-10-05T14:11:01Z</time>
      </trkpt>
      <trkpt lat="49.72699" lon="2.35074">
        <ele>58.6</ele>
        <time>2022-10-05T14:11:02Z</time>
      </trkpt>
      <trkpt lat="49.72699" lon="2.35074">
        <ele>58.6</ele>
        <time>2022-10-05T14:11:03Z</time>
      </trkpt>
      <trkpt lat="49.72699" lon="2.35074">
        <ele>58.6</ele>
        <time>2022-10-05T14:11:04Z</time>
      </trkpt>
      <trkpt lat="49.72699" lon="2.35074">
        <ele>58.6</ele>
        <time>2022-10-05T14:11:05Z</time>
      </trkpt>
      <trkpt lat="49.72699" lon="2.35074">
        <ele>58.6</ele>
        <time>2022-10-05T14:11:06Z</time>
      </trkpt>
      <trkpt lat="49.72698" lon="2.35074">
        <ele>58.6</ele>
        <time>2022-10-05T14:11:07Z</time>
      </trkpt>
      <trkpt lat="49.72698" lon="2.35074">
        <ele>58.6</ele>
        <time>2022-10-05T14:11:08Z</time>
      </trkpt>
      <trkpt lat="49.72698" lon="2.35074">
        <ele>58.6</ele>
        <time>2022-10-05T14:11:09Z</time>
      </trkpt>
      <trkpt lat="49.72698" lon="2.35074">
        <ele>58.6</ele>
        <time>2022-10-05T14:11:10Z</time>
      </trkpt>
      <trkpt lat="49.72698" lon="2.35074">
        <ele>58.6</ele>
        <time>2022-10-05T14:11:11Z</time>
      </trkpt>
      <trkpt lat="49.72698" lon="2.35074">
        <ele>58.6</ele>
        <time>2022-10-05T14:11:12Z</time>
      </trkpt>
      <trkpt lat="49.72698" lon="2.35074">
        <ele>58.6</ele>
        <time>2022-10-05T14:11:13Z</time>
      </trkpt>
      <trkpt lat="49.72698" lon="2.35074">
        <ele>58.6</ele>
        <time>2022-10-05T14:11:14Z</time>
      </trkpt>
      <trkpt lat="49.72698" lon="2.35074">
        <ele>58.6</ele>
        <time>2022-10-05T14:11:15Z</time>
      </trkpt>
      <trkpt lat="49.72698" lon="2.35074">
        <ele>58.6</ele>
        <time>2022-10-05T14:11:16Z</time>
      </trkpt>
      <trkpt lat="49.72698" lon="2.35074">
        <ele>58.6</ele>
        <time>2022-10-05T14:11:17Z</time>
      </trkpt>
      <trkpt lat="49.72698" lon="2.35074">
        <ele>58.6</ele>
        <time>2022-10-05T14:11:18Z</time>
      </trkpt>
      <trkpt lat="49.72698" lon="2.35074">
        <ele>58.6</ele>
        <time>2022-10-05T14:11:19Z</time>
      </trkpt>
      <trkpt lat="49.72698" lon="2.35074">
        <ele>58.6</ele>
        <time>2022-10-05T14:11:20Z</time>
      </trkpt>
      <trkpt lat="49.72698" lon="2.35074">
        <ele>58.6</ele>
        <time>2022-10-05T14:11:21Z</time>
      </trkpt>
      <trkpt lat="49.72698" lon="2.35074">
        <ele>58.6</ele>
        <time>2022-10-05T14:11:22Z</time>
      </trkpt>
      <trkpt lat="49.72698" lon="2.35074">
        <ele>58.6</ele>
        <time>2022-10-05T14:11:23Z</time>
      </trkpt>
      <trkpt lat="49.72698" lon="2.35074">
        <ele>58.6</ele>
        <time>2022-10-05T14:11:24Z</time>
      </trkpt>
      <trkpt lat="49.72698" lon="2.35074">
        <ele>58.5</ele>
        <time>2022-10-05T14:11:25Z</time>
      </trkpt>
      <trkpt lat="49.72698" lon="2.35074">
        <ele>58.5</ele>
        <time>2022-10-05T14:11:26Z</time>
      </trkpt>
      <trkpt lat="49.72698" lon="2.35074">
        <ele>58.5</ele>
        <time>2022-10-05T14:11:27Z</time>
      </trkpt>
      <trkpt lat="49.72698" lon="2.35074">
        <ele>58.5</ele>
        <time>2022-10-05T14:11:28Z</time>
      </trkpt>
      <trkpt lat="49.72697" lon="2.35074">
        <ele>58.5</ele>
        <time>2022-10-05T14:11:29Z</time>
      </trkpt>
      <trkpt lat="49.72697" lon="2.35074">
        <ele>58.5</ele>
        <time>2022-10-05T14:11:30Z</time>
      </trkpt>
      <trkpt lat="49.72697" lon="2.35075">
        <ele>58.5</ele>
        <time>2022-10-05T14:11:31Z</time>
      </trkpt>
      <trkpt lat="49.72697" lon="2.35075">
        <ele>58.5</ele>
        <time>2022-10-05T14:11:32Z</time>
      </trkpt>
      <trkpt lat="49.72697" lon="2.35075">
        <ele>58.5</ele>
        <time>2022-10-05T14:11:33Z</time>
      </trkpt>
      <trkpt lat="49.72697" lon="2.35075">
        <ele>58.5</ele>
        <time>2022-10-05T14:11:34Z</time>
      </trkpt>
      <trkpt lat="49.72697" lon="2.35075">
        <ele>58.5</ele>
        <time>2022-10-05T14:11:35Z</time>
      </trkpt>
      <trkpt lat="49.72697" lon="2.35075">
        <ele>58.5</ele>
        <time>2022-10-05T14:11:36Z</time>
      </trkpt>
      <trkpt lat="49.72697" lon="2.35075">
        <ele>58.5</ele>
        <time>2022-10-05T14:11:37Z</time>
      </trkpt>
      <trkpt lat="49.72697" lon="2.35075">
        <ele>58.5</ele>
        <time>2022-10-05T14:11:38Z</time>
      </trkpt>
      <trkpt lat="49.72697" lon="2.35075">
        <ele>58.5</ele>
        <time>2022-10-05T14:11:39Z</time>
      </trkpt>
      <trkpt lat="49.72697" lon="2.35075">
        <ele>58.5</ele>
        <time>2022-10-05T14:11:40Z</time>
      </trkpt>
      <trkpt lat="49.72697" lon="2.35075">
        <ele>58.5</ele>
        <time>2022-10-05T14:11:41Z</time>
      </trkpt>
      <trkpt lat="49.72697" lon="2.35075">
        <ele>58.5</ele>
        <time>2022-10-05T14:11:42Z</time>
      </trkpt>
      <trkpt lat="49.72697" lon="2.35075">
        <ele>58.5</ele>
        <time>2022-10-05T14:11:43Z</time>
      </trkpt>
      <trkpt lat="49.72697" lon="2.35075">
        <ele>58.5</ele>
        <time>2022-10-05T14:11:44Z</time>
      </trkpt>
      <trkpt lat="49.72697" lon="2.35075">
        <ele>58.5</ele>
        <time>2022-10-05T14:11:45Z</time>
      </trkpt>
      <trkpt lat="49.72697" lon="2.35075">
        <ele>58.5</ele>
        <time>2022-10-05T14:11:46Z</time>
      </trkpt>
      <trkpt lat="49.72697" lon="2.35075">
        <ele>58.5</ele>
        <time>2022-10-05T14:11:47Z</time>
      </trkpt>
      <trkpt lat="49.72697" lon="2.35075">
        <ele>58.5</ele>
        <time>2022-10-05T14:11:48Z</time>
      </trkpt>
      <trkpt lat="49.72697" lon="2.35075">
        <ele>58.5</ele>
        <time>2022-10-05T14:11:49Z</time>
      </trkpt>
      <trkpt lat="49.72697" lon="2.35075">
        <ele>58.5</ele>
        <time>2022-10-05T14:11:50Z</time>
      </trkpt>
      <trkpt lat="49.72697" lon="2.35075">
        <ele>58.5</ele>
        <time>2022-10-05T14:11:51Z</time>
      </trkpt>
      <trkpt lat="49.72696" lon="2.35075">
        <ele>58.5</ele>
        <time>2022-10-05T14:11:52Z</time>
      </trkpt>
      <trkpt lat="49.72696" lon="2.35075">
        <ele>58.5</ele>
        <time>2022-10-05T14:11:53Z</time>
      </trkpt>
      <trkpt lat="49.72696" lon="2.35075">
        <ele>58.5</ele>
        <time>2022-10-05T14:11:54Z</time>
      </trkpt>
      <trkpt lat="49.72696" lon="2.35075">
        <ele>58.5</ele>
        <time>2022-10-05T14:11:55Z</time>
      </trkpt>
      <trkpt lat="49.72696" lon="2.35075">
        <ele>58.5</ele>
        <time>2022-10-05T14:11:56Z</time>
      </trkpt>
      <trkpt lat="49.72696" lon="2.35075">
        <ele>58.5</ele>
        <time>2022-10-05T14:11:57Z</time>
      </trkpt>
      <trkpt lat="49.72696" lon="2.35075">
        <ele>58.5</ele>
        <time>2022-10-05T14:11:58Z</time>
      </trkpt>
      <trkpt lat="49.72696" lon="2.35075">
        <ele>58.5</ele>
        <time>2022-10-05T14:11:59Z</time>
      </trkpt>
      <trkpt lat="49.72696" lon="2.35075">
        <ele>58.5</ele>
        <time>2022-10-05T14:12:00Z</time>
      </trkpt>
      <trkpt lat="49.72696" lon="2.35075">
        <ele>58.5</ele>
        <time>2022-10-05T14:12:01Z</time>
      </trkpt>
      <trkpt lat="49.72696" lon="2.35075">
        <ele>58.5</ele>
        <time>2022-10-05T14:12:02Z</time>
      </trkpt>
      <trkpt lat="49.72696" lon="2.35075">
        <ele>58.5</ele>
        <time>2022-10-05T14:12:03Z</time>
      </trkpt>
      <trkpt lat="49.72696" lon="2.35075">
        <ele>58.5</ele>
        <time>2022-10-05T14:12:04Z</time>
      </trkpt>
      <trkpt lat="49.72696" lon="2.35075">
        <ele>58.5</ele>
        <time>2022-10-05T14:12:05Z</time>
      </trkpt>
      <trkpt lat="49.72696" lon="2.35075">
        <ele>58.5</ele>
        <time>2022-10-05T14:12:06Z</time>
      </trkpt>
      <trkpt lat="49.72695" lon="2.35076">
        <ele>58.4</ele>
        <time>2022-10-05T14:12:07Z</time>
      </trkpt>
      <trkpt lat="49.72695" lon="2.35076">
        <ele>58.4</ele>
        <time>2022-10-05T14:12:08Z</time>
      </trkpt>
      <trkpt lat="49.72694" lon="2.35076">
        <ele>58.4</ele>
        <time>2022-10-05T14:12:09Z</time>
      </trkpt>
      <trkpt lat="49.72695" lon="2.35076">
        <ele>58.4</ele>
        <time>2022-10-05T14:12:10Z</time>
      </trkpt>
      <trkpt lat="49.72695" lon="2.35075">
        <ele>58.4</ele>
        <time>2022-10-05T14:12:11Z</time>
      </trkpt>
      <trkpt lat="49.72695" lon="2.35075">
        <ele>58.4</ele>
        <time>2022-10-05T14:12:12Z</time>
      </trkpt>
      <trkpt lat="49.72695" lon="2.35075">
        <ele>58.4</ele>
        <time>2022-10-05T14:12:13Z</time>
      </trkpt>
      <trkpt lat="49.72695" lon="2.35075">
        <ele>58.4</ele>
        <time>2022-10-05T14:12:14Z</time>
      </trkpt>
      <trkpt lat="49.72694" lon="2.35075">
        <ele>58.3</ele>
        <time>2022-10-05T14:12:15Z</time>
      </trkpt>
      <trkpt lat="49.72694" lon="2.35075">
        <ele>58.3</ele>
        <time>2022-10-05T14:12:16Z</time>
      </trkpt>
      <trkpt lat="49.72694" lon="2.35075">
        <ele>58.3</ele>
        <time>2022-10-05T14:12:17Z</time>
      </trkpt>
      <trkpt lat="49.72694" lon="2.35075">
        <ele>58.3</ele>
        <time>2022-10-05T14:12:18Z</time>
      </trkpt>
      <trkpt lat="49.72694" lon="2.35075">
        <ele>58.3</ele>
        <time>2022-10-05T14:12:19Z</time>
      </trkpt>
      <trkpt lat="49.72694" lon="2.35075">
        <ele>58.3</ele>
        <time>2022-10-05T14:12:20Z</time>
      </trkpt>
      <trkpt lat="49.72695" lon="2.35075">
        <ele>58.3</ele>
        <time>2022-10-05T14:12:21Z</time>
      </trkpt>
      <trkpt lat="49.72696" lon="2.35075">
        <ele>58.2</ele>
        <time>2022-10-05T14:12:22Z</time>
      </trkpt>
      <trkpt lat="49.72697" lon="2.35075">
        <ele>58.2</ele>
        <time>2022-10-05T14:12:23Z</time>
      </trkpt>
      <trkpt lat="49.72697" lon="2.35075">
        <ele>58.2</ele>
        <time>2022-10-05T14:12:24Z</time>
      </trkpt>
      <trkpt lat="49.72698" lon="2.35075">
        <ele>58.2</ele>
        <time>2022-10-05T14:12:25Z</time>
      </trkpt>
      <trkpt lat="49.72699" lon="2.35075">
        <ele>58.1</ele>
        <time>2022-10-05T14:12:26Z</time>
      </trkpt>
      <trkpt lat="49.72699" lon="2.35074">
        <ele>58.1</ele>
        <time>2022-10-05T14:12:27Z</time>
      </trkpt>
      <trkpt lat="49.727" lon="2.35074">
        <ele>58.1</ele>
        <time>2022-10-05T14:12:28Z</time>
      </trkpt>
      <trkpt lat="49.72701" lon="2.35074">
        <ele>58.1</ele>
        <time>2022-10-05T14:12:29Z</time>
      </trkpt>
      <trkpt lat="49.72701" lon="2.35073">
        <ele>58</ele>
        <time>2022-10-05T14:12:30Z</time>
      </trkpt>
      <trkpt lat="49.72702" lon="2.35073">
        <ele>58</ele>
        <time>2022-10-05T14:12:31Z</time>
      </trkpt>
      <trkpt lat="49.72702" lon="2.35073">
        <ele>58</ele>
        <time>2022-10-05T14:12:32Z</time>
      </trkpt>
      <trkpt lat="49.72702" lon="2.35072">
        <ele>58</ele>
        <time>2022-10-05T14:12:33Z</time>
      </trkpt>
      <trkpt lat="49.72703" lon="2.35072">
        <ele>58</ele>
        <time>2022-10-05T14:12:34Z</time>
      </trkpt>
      <trkpt lat="49.72703" lon="2.35071">
        <ele>58</ele>
        <time>2022-10-05T14:12:35Z</time>
      </trkpt>
      <trkpt lat="49.72704" lon="2.35071">
        <ele>57.9</ele>
        <time>2022-10-05T14:12:36Z</time>
      </trkpt>
      <trkpt lat="49.72705" lon="2.3507">
        <ele>57.9</ele>
        <time>2022-10-05T14:12:37Z</time>
      </trkpt>
      <trkpt lat="49.72706" lon="2.35068">
        <ele>57.8</ele>
        <time>2022-10-05T14:12:38Z</time>
      </trkpt>
      <trkpt lat="49.72707" lon="2.35067">
        <ele>57.8</ele>
        <time>2022-10-05T14:12:39Z</time>
      </trkpt>
      <trkpt lat="49.72708" lon="2.35065">
        <ele>57.7</ele>
        <time>2022-10-05T14:12:40Z</time>
      </trkpt>
      <trkpt lat="49.72709" lon="2.35064">
        <ele>57.7</ele>
        <time>2022-10-05T14:12:41Z</time>
      </trkpt>
      <trkpt lat="49.7271" lon="2.35062">
        <ele>57.6</ele>
        <time>2022-10-05T14:12:42Z</time>
      </trkpt>
      <trkpt lat="49.72712" lon="2.3506">
        <ele>57.6</ele>
        <time>2022-10-05T14:12:43Z</time>
      </trkpt>
      <trkpt lat="49.72714" lon="2.35057">
        <ele>57.5</ele>
        <time>2022-10-05T14:12:44Z</time>
      </trkpt>
      <trkpt lat="49.72714" lon="2.35056">
        <ele>57.5</ele>
        <time>2022-10-05T14:12:45Z</time>
      </trkpt>
      <trkpt lat="49.72716" lon="2.35055">
        <ele>57.4</ele>
        <time>2022-10-05T14:12:46Z</time>
      </trkpt>
      <trkpt lat="49.72719" lon="2.35052">
        <ele>57.3</ele>
        <time>2022-10-05T14:12:48Z</time>
      </trkpt>
      <trkpt lat="49.72721" lon="2.35051">
        <ele>57.3</ele>
        <time>2022-10-05T14:12:49Z</time>
      </trkpt>
      <trkpt lat="49.72722" lon="2.35049">
        <ele>57.3</ele>
        <time>2022-10-05T14:12:50Z</time>
      </trkpt>
      <trkpt lat="49.72723" lon="2.35047">
        <ele>57.2</ele>
        <time>2022-10-05T14:12:51Z</time>
      </trkpt>
      <trkpt lat="49.72725" lon="2.35046">
        <ele>57.2</ele>
        <time>2022-10-05T14:12:52Z</time>
      </trkpt>
      <trkpt lat="49.72727" lon="2.35044">
        <ele>57.1</ele>
        <time>2022-10-05T14:12:54Z</time>
      </trkpt>
      <trkpt lat="49.72728" lon="2.35042">
        <ele>57.1</ele>
        <time>2022-10-05T14:12:55Z</time>
      </trkpt>
      <trkpt lat="49.72729" lon="2.35041">
        <ele>57.1</ele>
        <time>2022-10-05T14:12:56Z</time>
      </trkpt>
      <trkpt lat="49.7273" lon="2.3504">
        <ele>57.1</ele>
        <time>2022-10-05T14:12:57Z</time>
      </trkpt>
      <trkpt lat="49.72731" lon="2.35039">
        <ele>57.1</ele>
        <time>2022-10-05T14:12:58Z</time>
      </trkpt>
      <trkpt lat="49.72732" lon="2.35038">
        <ele>57</ele>
        <time>2022-10-05T14:12:59Z</time>
      </trkpt>
      <trkpt lat="49.72733" lon="2.35036">
        <ele>57</ele>
        <time>2022-10-05T14:13:01Z</time>
      </trkpt>
      <trkpt lat="49.72734" lon="2.35035">
        <ele>57</ele>
        <time>2022-10-05T14:13:02Z</time>
      </trkpt>
      <trkpt lat="49.72735" lon="2.35033">
        <ele>57</ele>
        <time>2022-10-05T14:13:03Z</time>
      </trkpt>
      <trkpt lat="49.72737" lon="2.35031">
        <ele>56.9</ele>
        <time>2022-10-05T14:13:04Z</time>
      </trkpt>
      <trkpt lat="49.72738" lon="2.3503">
        <ele>56.9</ele>
        <time>2022-10-05T14:13:05Z</time>
      </trkpt>
      <trkpt lat="49.72739" lon="2.35029">
        <ele>56.9</ele>
        <time>2022-10-05T14:13:06Z</time>
      </trkpt>
      <trkpt lat="49.7274" lon="2.35028">
        <ele>56.9</ele>
        <time>2022-10-05T14:13:07Z</time>
      </trkpt>
      <trkpt lat="49.72741" lon="2.35026">
        <ele>56.9</ele>
        <time>2022-10-05T14:13:09Z</time>
      </trkpt>
      <trkpt lat="49.72742" lon="2.35025">
        <ele>56.9</ele>
        <time>2022-10-05T14:13:10Z</time>
      </trkpt>
      <trkpt lat="49.72743" lon="2.35024">
        <ele>56.9</ele>
        <time>2022-10-05T14:13:11Z</time>
      </trkpt>
      <trkpt lat="49.72744" lon="2.35023">
        <ele>56.9</ele>
        <time>2022-10-05T14:13:12Z</time>
      </trkpt>
      <trkpt lat="49.72745" lon="2.35022">
        <ele>56.9</ele>
        <time>2022-10-05T14:13:13Z</time>
      </trkpt>
      <trkpt lat="49.72746" lon="2.35021">
        <ele>56.9</ele>
        <time>2022-10-05T14:13:14Z</time>
      </trkpt>
      <trkpt lat="49.72747" lon="2.35021">
        <ele>56.9</ele>
        <time>2022-10-05T14:13:15Z</time>
      </trkpt>
      <trkpt lat="49.72749" lon="2.3502">
        <ele>56.9</ele>
        <time>2022-10-05T14:13:16Z</time>
      </trkpt>
      <trkpt lat="49.7275" lon="2.35019">
        <ele>56.9</ele>
        <time>2022-10-05T14:13:17Z</time>
      </trkpt>
      <trkpt lat="49.72751" lon="2.35019">
        <ele>56.9</ele>
        <time>2022-10-05T14:13:18Z</time>
      </trkpt>
      <trkpt lat="49.72752" lon="2.35017">
        <ele>56.9</ele>
        <time>2022-10-05T14:13:19Z</time>
      </trkpt>
      <trkpt lat="49.72753" lon="2.35016">
        <ele>56.8</ele>
        <time>2022-10-05T14:13:20Z</time>
      </trkpt>
      <trkpt lat="49.72754" lon="2.35014">
        <ele>56.8</ele>
        <time>2022-10-05T14:13:22Z</time>
      </trkpt>
      <trkpt lat="49.72755" lon="2.35013">
        <ele>56.8</ele>
        <time>2022-10-05T14:13:23Z</time>
      </trkpt>
      <trkpt lat="49.72757" lon="2.35012">
        <ele>56.8</ele>
        <time>2022-10-05T14:13:25Z</time>
      </trkpt>
      <trkpt lat="49.72758" lon="2.3501">
        <ele>56.8</ele>
        <time>2022-10-05T14:13:26Z</time>
      </trkpt>
      <trkpt lat="49.72759" lon="2.35008">
        <ele>56.8</ele>
        <time>2022-10-05T14:13:27Z</time>
      </trkpt>
      <trkpt lat="49.7276" lon="2.35007">
        <ele>56.8</ele>
        <time>2022-10-05T14:13:28Z</time>
      </trkpt>
      <trkpt lat="49.7276" lon="2.35006">
        <ele>56.8</ele>
        <time>2022-10-05T14:13:29Z</time>
      </trkpt>
      <trkpt lat="49.72761" lon="2.35005">
        <ele>56.8</ele>
        <time>2022-10-05T14:13:30Z</time>
      </trkpt>
      <trkpt lat="49.72762" lon="2.35004">
        <ele>56.8</ele>
        <time>2022-10-05T14:13:31Z</time>
      </trkpt>
      <trkpt lat="49.72763" lon="2.35002">
        <ele>56.8</ele>
        <time>2022-10-05T14:13:32Z</time>
      </trkpt>
      <trkpt lat="49.72764" lon="2.35001">
        <ele>56.8</ele>
        <time>2022-10-05T14:13:33Z</time>
      </trkpt>
      <trkpt lat="49.72765" lon="2.35">
        <ele>56.8</ele>
        <time>2022-10-05T14:13:34Z</time>
      </trkpt>
      <trkpt lat="49.72765" lon="2.34999">
        <ele>56.8</ele>
        <time>2022-10-05T14:13:35Z</time>
      </trkpt>
      <trkpt lat="49.72766" lon="2.34998">
        <ele>56.8</ele>
        <time>2022-10-05T14:13:36Z</time>
      </trkpt>
      <trkpt lat="49.72767" lon="2.34996">
        <ele>56.8</ele>
        <time>2022-10-05T14:13:37Z</time>
      </trkpt>
      <trkpt lat="49.72768" lon="2.34995">
        <ele>56.8</ele>
        <time>2022-10-05T14:13:38Z</time>
      </trkpt>
      <trkpt lat="49.7277" lon="2.34993">
        <ele>56.8</ele>
        <time>2022-10-05T14:13:39Z</time>
      </trkpt>
      <trkpt lat="49.7277" lon="2.34993">
        <ele>56.8</ele>
        <time>2022-10-05T14:13:40Z</time>
      </trkpt>
      <trkpt lat="49.72771" lon="2.34992">
        <ele>56.8</ele>
        <time>2022-10-05T14:13:41Z</time>
      </trkpt>
      <trkpt lat="49.72773" lon="2.3499">
        <ele>56.8</ele>
        <time>2022-10-05T14:13:42Z</time>
      </trkpt>
      <trkpt lat="49.72774" lon="2.34989">
        <ele>56.8</ele>
        <time>2022-10-05T14:13:43Z</time>
      </trkpt>
      <trkpt lat="49.72775" lon="2.34988">
        <ele>56.8</ele>
        <time>2022-10-05T14:13:45Z</time>
      </trkpt>
      <trkpt lat="49.72776" lon="2.34987">
        <ele>56.8</ele>
        <time>2022-10-05T14:13:46Z</time>
      </trkpt>
      <trkpt lat="49.72777" lon="2.34986">
        <ele>56.8</ele>
        <time>2022-10-05T14:13:47Z</time>
      </trkpt>
      <trkpt lat="49.72778" lon="2.34985">
        <ele>56.8</ele>
        <time>2022-10-05T14:13:48Z</time>
      </trkpt>
      <trkpt lat="49.72779" lon="2.34984">
        <ele>56.8</ele>
        <time>2022-10-05T14:13:49Z</time>
      </trkpt>
      <trkpt lat="49.72781" lon="2.34983">
        <ele>56.8</ele>
        <time>2022-10-05T14:13:50Z</time>
      </trkpt>
      <trkpt lat="49.72782" lon="2.34983">
        <ele>56.8</ele>
        <time>2022-10-05T14:13:51Z</time>
      </trkpt>
      <trkpt lat="49.72783" lon="2.34982">
        <ele>56.8</ele>
        <time>2022-10-05T14:13:52Z</time>
      </trkpt>
      <trkpt lat="49.72785" lon="2.3498">
        <ele>56.8</ele>
        <time>2022-10-05T14:13:53Z</time>
      </trkpt>
      <trkpt lat="49.72786" lon="2.34979">
        <ele>56.8</ele>
        <time>2022-10-05T14:13:54Z</time>
      </trkpt>
      <trkpt lat="49.72788" lon="2.34977">
        <ele>56.8</ele>
        <time>2022-10-05T14:13:56Z</time>
      </trkpt>
      <trkpt lat="49.72788" lon="2.34977">
        <ele>56.8</ele>
        <time>2022-10-05T14:13:57Z</time>
      </trkpt>
      <trkpt lat="49.72789" lon="2.34976">
        <ele>56.8</ele>
        <time>2022-10-05T14:13:58Z</time>
      </trkpt>
      <trkpt lat="49.72791" lon="2.34975">
        <ele>56.8</ele>
        <time>2022-10-05T14:13:59Z</time>
      </trkpt>
      <trkpt lat="49.72792" lon="2.34973">
        <ele>56.8</ele>
        <time>2022-10-05T14:14:00Z</time>
      </trkpt>
      <trkpt lat="49.72793" lon="2.34973">
        <ele>56.7</ele>
        <time>2022-10-05T14:14:01Z</time>
      </trkpt>
      <trkpt lat="49.72794" lon="2.34972">
        <ele>56.7</ele>
        <time>2022-10-05T14:14:02Z</time>
      </trkpt>
      <trkpt lat="49.72795" lon="2.34971">
        <ele>56.7</ele>
        <time>2022-10-05T14:14:03Z</time>
      </trkpt>
      <trkpt lat="49.72797" lon="2.34969">
        <ele>56.7</ele>
        <time>2022-10-05T14:14:05Z</time>
      </trkpt>
      <trkpt lat="49.72798" lon="2.34968">
        <ele>56.7</ele>
        <time>2022-10-05T14:14:06Z</time>
      </trkpt>
      <trkpt lat="49.728" lon="2.34967">
        <ele>56.7</ele>
        <time>2022-10-05T14:14:07Z</time>
      </trkpt>
      <trkpt lat="49.72801" lon="2.34966">
        <ele>56.7</ele>
        <time>2022-10-05T14:14:09Z</time>
      </trkpt>
      <trkpt lat="49.72801" lon="2.34966">
        <ele>56.7</ele>
        <time>2022-10-05T14:14:10Z</time>
      </trkpt>
      <trkpt lat="49.72802" lon="2.34965">
        <ele>56.7</ele>
        <time>2022-10-05T14:14:11Z</time>
      </trkpt>
      <trkpt lat="49.72804" lon="2.34964">
        <ele>56.7</ele>
        <time>2022-10-05T14:14:12Z</time>
      </trkpt>
      <trkpt lat="49.72805" lon="2.34962">
        <ele>56.7</ele>
        <time>2022-10-05T14:14:13Z</time>
      </trkpt>
      <trkpt lat="49.72806" lon="2.34961">
        <ele>56.7</ele>
        <time>2022-10-05T14:14:15Z</time>
      </trkpt>
      <trkpt lat="49.72808" lon="2.3496">
        <ele>56.7</ele>
        <time>2022-10-05T14:14:16Z</time>
      </trkpt>
      <trkpt lat="49.72809" lon="2.34959">
        <ele>56.7</ele>
        <time>2022-10-05T14:14:17Z</time>
      </trkpt>
      <trkpt lat="49.72811" lon="2.34957">
        <ele>56.7</ele>
        <time>2022-10-05T14:14:18Z</time>
      </trkpt>
      <trkpt lat="49.72812" lon="2.34957">
        <ele>56.7</ele>
        <time>2022-10-05T14:14:19Z</time>
      </trkpt>
      <trkpt lat="49.72813" lon="2.34956">
        <ele>56.7</ele>
        <time>2022-10-05T14:14:20Z</time>
      </trkpt>
      <trkpt lat="49.72815" lon="2.34954">
        <ele>56.7</ele>
        <time>2022-10-05T14:14:21Z</time>
      </trkpt>
      <trkpt lat="49.72816" lon="2.34953">
        <ele>56.7</ele>
        <time>2022-10-05T14:14:22Z</time>
      </trkpt>
      <trkpt lat="49.72816" lon="2.34952">
        <ele>56.7</ele>
        <time>2022-10-05T14:14:23Z</time>
      </trkpt>
      <trkpt lat="49.72818" lon="2.34951">
        <ele>56.7</ele>
        <time>2022-10-05T14:14:24Z</time>
      </trkpt>
      <trkpt lat="49.72819" lon="2.34949">
        <ele>56.7</ele>
        <time>2022-10-05T14:14:25Z</time>
      </trkpt>
      <trkpt lat="49.7282" lon="2.34948">
        <ele>56.7</ele>
        <time>2022-10-05T14:14:27Z</time>
      </trkpt>
      <trkpt lat="49.72822" lon="2.34945">
        <ele>56.7</ele>
        <time>2022-10-05T14:14:28Z</time>
      </trkpt>
      <trkpt lat="49.72823" lon="2.34944">
        <ele>56.7</ele>
        <time>2022-10-05T14:14:29Z</time>
      </trkpt>
      <trkpt lat="49.72824" lon="2.34942">
        <ele>56.7</ele>
        <time>2022-10-05T14:14:30Z</time>
      </trkpt>
      <trkpt lat="49.72825" lon="2.34941">
        <ele>56.7</ele>
        <time>2022-10-05T14:14:31Z</time>
      </trkpt>
      <trkpt lat="49.72826" lon="2.34939">
        <ele>56.7</ele>
        <time>2022-10-05T14:14:32Z</time>
      </trkpt>
      <trkpt lat="49.72827" lon="2.34938">
        <ele>56.7</ele>
        <time>2022-10-05T14:14:33Z</time>
      </trkpt>
      <trkpt lat="49.72828" lon="2.34937">
        <ele>56.7</ele>
        <time>2022-10-05T14:14:34Z</time>
      </trkpt>
      <trkpt lat="49.72829" lon="2.34936">
        <ele>56.7</ele>
        <time>2022-10-05T14:14:35Z</time>
      </trkpt>
      <trkpt lat="49.72829" lon="2.34935">
        <ele>56.7</ele>
        <time>2022-10-05T14:14:36Z</time>
      </trkpt>
      <trkpt lat="49.7283" lon="2.34934">
        <ele>56.7</ele>
        <time>2022-10-05T14:14:37Z</time>
      </trkpt>
      <trkpt lat="49.72831" lon="2.34933">
        <ele>56.7</ele>
        <time>2022-10-05T14:14:38Z</time>
      </trkpt>
      <trkpt lat="49.72833" lon="2.34931">
        <ele>56.6</ele>
        <time>2022-10-05T14:14:39Z</time>
      </trkpt>
      <trkpt lat="49.72833" lon="2.3493">
        <ele>56.6</ele>
        <time>2022-10-05T14:14:41Z</time>
      </trkpt>
      <trkpt lat="49.72834" lon="2.34929">
        <ele>56.6</ele>
        <time>2022-10-05T14:14:42Z</time>
      </trkpt>
      <trkpt lat="49.72835" lon="2.34928">
        <ele>56.6</ele>
        <time>2022-10-05T14:14:43Z</time>
      </trkpt>
      <trkpt lat="49.72836" lon="2.34927">
        <ele>56.6</ele>
        <time>2022-10-05T14:14:44Z</time>
      </trkpt>
      <trkpt lat="49.72836" lon="2.34925">
        <ele>56.6</ele>
        <time>2022-10-05T14:14:45Z</time>
      </trkpt>
      <trkpt lat="49.72837" lon="2.34924">
        <ele>56.6</ele>
        <time>2022-10-05T14:14:46Z</time>
      </trkpt>
      <trkpt lat="49.72837" lon="2.34922">
        <ele>56.6</ele>
        <time>2022-10-05T14:14:47Z</time>
      </trkpt>
      <trkpt lat="49.72838" lon="2.34921">
        <ele>56.6</ele>
        <time>2022-10-05T14:14:48Z</time>
      </trkpt>
      <trkpt lat="49.72838" lon="2.34919">
        <ele>56.6</ele>
        <time>2022-10-05T14:14:49Z</time>
      </trkpt>
      <trkpt lat="49.72839" lon="2.34918">
        <ele>56.6</ele>
        <time>2022-10-05T14:14:50Z</time>
      </trkpt>
      <trkpt lat="49.7284" lon="2.34916">
        <ele>56.6</ele>
        <time>2022-10-05T14:14:51Z</time>
      </trkpt>
      <trkpt lat="49.7284" lon="2.34915">
        <ele>56.6</ele>
        <time>2022-10-05T14:14:52Z</time>
      </trkpt>
      <trkpt lat="49.7284" lon="2.34914">
        <ele>56.6</ele>
        <time>2022-10-05T14:14:53Z</time>
      </trkpt>
      <trkpt lat="49.72841" lon="2.34913">
        <ele>56.6</ele>
        <time>2022-10-05T14:14:54Z</time>
      </trkpt>
      <trkpt lat="49.72841" lon="2.34912">
        <ele>56.6</ele>
        <time>2022-10-05T14:14:55Z</time>
      </trkpt>
      <trkpt lat="49.72842" lon="2.3491">
        <ele>56.6</ele>
        <time>2022-10-05T14:14:56Z</time>
      </trkpt>
      <trkpt lat="49.72842" lon="2.34909">
        <ele>56.6</ele>
        <time>2022-10-05T14:14:57Z</time>
      </trkpt>
      <trkpt lat="49.72843" lon="2.34908">
        <ele>56.6</ele>
        <time>2022-10-05T14:14:59Z</time>
      </trkpt>
      <trkpt lat="49.72843" lon="2.34908">
        <ele>56.6</ele>
        <time>2022-10-05T14:15:00Z</time>
      </trkpt>
      <trkpt lat="49.72844" lon="2.34906">
        <ele>56.6</ele>
        <time>2022-10-05T14:15:01Z</time>
      </trkpt>
      <trkpt lat="49.72845" lon="2.34905">
        <ele>56.6</ele>
        <time>2022-10-05T14:15:02Z</time>
      </trkpt>
      <trkpt lat="49.72846" lon="2.34904">
        <ele>56.6</ele>
        <time>2022-10-05T14:15:03Z</time>
      </trkpt>
      <trkpt lat="49.72847" lon="2.34903">
        <ele>56.6</ele>
        <time>2022-10-05T14:15:04Z</time>
      </trkpt>
      <trkpt lat="49.72848" lon="2.34903">
        <ele>56.6</ele>
        <time>2022-10-05T14:15:05Z</time>
      </trkpt>
      <trkpt lat="49.72849" lon="2.34902">
        <ele>56.6</ele>
        <time>2022-10-05T14:15:06Z</time>
      </trkpt>
      <trkpt lat="49.72851" lon="2.34901">
        <ele>56.6</ele>
        <time>2022-10-05T14:15:07Z</time>
      </trkpt>
      <trkpt lat="49.72852" lon="2.349">
        <ele>56.6</ele>
        <time>2022-10-05T14:15:08Z</time>
      </trkpt>
      <trkpt lat="49.72854" lon="2.34899">
        <ele>56.6</ele>
        <time>2022-10-05T14:15:09Z</time>
      </trkpt>
      <trkpt lat="49.72855" lon="2.34898">
        <ele>56.6</ele>
        <time>2022-10-05T14:15:10Z</time>
      </trkpt>
      <trkpt lat="49.72857" lon="2.34897">
        <ele>56.5</ele>
        <time>2022-10-05T14:15:12Z</time>
      </trkpt>
      <trkpt lat="49.72858" lon="2.34897">
        <ele>56.5</ele>
        <time>2022-10-05T14:15:13Z</time>
      </trkpt>
      <trkpt lat="49.72859" lon="2.34896">
        <ele>56.5</ele>
        <time>2022-10-05T14:15:14Z</time>
      </trkpt>
      <trkpt lat="49.7286" lon="2.34896">
        <ele>56.5</ele>
        <time>2022-10-05T14:15:15Z</time>
      </trkpt>
      <trkpt lat="49.72861" lon="2.34895">
        <ele>56.5</ele>
        <time>2022-10-05T14:15:16Z</time>
      </trkpt>
      <trkpt lat="49.72862" lon="2.34894">
        <ele>56.5</ele>
        <time>2022-10-05T14:15:17Z</time>
      </trkpt>
      <trkpt lat="49.72863" lon="2.34894">
        <ele>56.5</ele>
        <time>2022-10-05T14:15:18Z</time>
      </trkpt>
      <trkpt lat="49.72865" lon="2.34892">
        <ele>56.5</ele>
        <time>2022-10-05T14:15:19Z</time>
      </trkpt>
      <trkpt lat="49.72865" lon="2.34892">
        <ele>56.5</ele>
        <time>2022-10-05T14:15:20Z</time>
      </trkpt>
      <trkpt lat="49.72866" lon="2.34891">
        <ele>56.5</ele>
        <time>2022-10-05T14:15:21Z</time>
      </trkpt>
      <trkpt lat="49.72868" lon="2.3489">
        <ele>56.5</ele>
        <time>2022-10-05T14:15:23Z</time>
      </trkpt>
      <trkpt lat="49.72868" lon="2.34888">
        <ele>56.5</ele>
        <time>2022-10-05T14:15:24Z</time>
      </trkpt>
      <trkpt lat="49.72869" lon="2.34887">
        <ele>56.5</ele>
        <time>2022-10-05T14:15:25Z</time>
      </trkpt>
      <trkpt lat="49.72871" lon="2.34886">
        <ele>56.5</ele>
        <time>2022-10-05T14:15:26Z</time>
      </trkpt>
      <trkpt lat="49.72871" lon="2.34884">
        <ele>56.5</ele>
        <time>2022-10-05T14:15:27Z</time>
      </trkpt>
      <trkpt lat="49.72872" lon="2.34883">
        <ele>56.5</ele>
        <time>2022-10-05T14:15:28Z</time>
      </trkpt>
      <trkpt lat="49.72873" lon="2.34882">
        <ele>56.4</ele>
        <time>2022-10-05T14:15:29Z</time>
      </trkpt>
      <trkpt lat="49.72875" lon="2.34881">
        <ele>56.4</ele>
        <time>2022-10-05T14:15:30Z</time>
      </trkpt>
      <trkpt lat="49.72876" lon="2.34879">
        <ele>56.4</ele>
        <time>2022-10-05T14:15:31Z</time>
      </trkpt>
      <trkpt lat="49.72877" lon="2.34878">
        <ele>56.4</ele>
        <time>2022-10-05T14:15:33Z</time>
      </trkpt>
      <trkpt lat="49.72878" lon="2.34878">
        <ele>56.4</ele>
        <time>2022-10-05T14:15:34Z</time>
      </trkpt>
      <trkpt lat="49.72879" lon="2.34877">
        <ele>56.4</ele>
        <time>2022-10-05T14:15:35Z</time>
      </trkpt>
      <trkpt lat="49.7288" lon="2.34876">
        <ele>56.4</ele>
        <time>2022-10-05T14:15:36Z</time>
      </trkpt>
      <trkpt lat="49.72882" lon="2.34876">
        <ele>56.4</ele>
        <time>2022-10-05T14:15:37Z</time>
      </trkpt>
      <trkpt lat="49.72882" lon="2.34876">
        <ele>56.4</ele>
        <time>2022-10-05T14:15:38Z</time>
      </trkpt>
      <trkpt lat="49.72883" lon="2.34875">
        <ele>56.4</ele>
        <time>2022-10-05T14:15:39Z</time>
      </trkpt>
      <trkpt lat="49.72884" lon="2.34874">
        <ele>56.3</ele>
        <time>2022-10-05T14:15:40Z</time>
      </trkpt>
      <trkpt lat="49.72885" lon="2.34874">
        <ele>56.3</ele>
        <time>2022-10-05T14:15:42Z</time>
      </trkpt>
      <trkpt lat="49.72886" lon="2.34873">
        <ele>56.3</ele>
        <time>2022-10-05T14:15:43Z</time>
      </trkpt>
      <trkpt lat="49.72887" lon="2.34873">
        <ele>56.3</ele>
        <time>2022-10-05T14:15:44Z</time>
      </trkpt>
      <trkpt lat="49.72888" lon="2.34872">
        <ele>56.3</ele>
        <time>2022-10-05T14:15:46Z</time>
      </trkpt>
      <trkpt lat="49.7289" lon="2.34871">
        <ele>56.3</ele>
        <time>2022-10-05T14:15:47Z</time>
      </trkpt>
      <trkpt lat="49.7289" lon="2.34871">
        <ele>56.3</ele>
        <time>2022-10-05T14:15:48Z</time>
      </trkpt>
      <trkpt lat="49.7289" lon="2.34871">
        <ele>56.3</ele>
        <time>2022-10-05T14:15:49Z</time>
      </trkpt>
      <trkpt lat="49.72891" lon="2.3487">
        <ele>56.2</ele>
        <time>2022-10-05T14:15:50Z</time>
      </trkpt>
      <trkpt lat="49.72892" lon="2.34869">
        <ele>56.2</ele>
        <time>2022-10-05T14:15:51Z</time>
      </trkpt>
      <trkpt lat="49.72892" lon="2.34869">
        <ele>56.2</ele>
        <time>2022-10-05T14:15:52Z</time>
      </trkpt>
      <trkpt lat="49.72894" lon="2.34868">
        <ele>56.2</ele>
        <time>2022-10-05T14:15:54Z</time>
      </trkpt>
      <trkpt lat="49.72895" lon="2.34867">
        <ele>56.2</ele>
        <time>2022-10-05T14:15:55Z</time>
      </trkpt>
      <trkpt lat="49.72896" lon="2.34866">
        <ele>56.2</ele>
        <time>2022-10-05T14:15:56Z</time>
      </trkpt>
      <trkpt lat="49.72897" lon="2.34866">
        <ele>56.2</ele>
        <time>2022-10-05T14:15:57Z</time>
      </trkpt>
      <trkpt lat="49.72898" lon="2.34866">
        <ele>56.2</ele>
        <time>2022-10-05T14:15:58Z</time>
      </trkpt>
      <trkpt lat="49.72899" lon="2.34866">
        <ele>56.2</ele>
        <time>2022-10-05T14:15:59Z</time>
      </trkpt>
      <trkpt lat="49.729" lon="2.34866">
        <ele>56.1</ele>
        <time>2022-10-05T14:16:00Z</time>
      </trkpt>
      <trkpt lat="49.72901" lon="2.34865">
        <ele>56.1</ele>
        <time>2022-10-05T14:16:01Z</time>
      </trkpt>
      <trkpt lat="49.72902" lon="2.34865">
        <ele>56.1</ele>
        <time>2022-10-05T14:16:02Z</time>
      </trkpt>
      <trkpt lat="49.72903" lon="2.34865">
        <ele>56.1</ele>
        <time>2022-10-05T14:16:04Z</time>
      </trkpt>
      <trkpt lat="49.72906" lon="2.34866">
        <ele>56.1</ele>
        <time>2022-10-05T14:16:05Z</time>
      </trkpt>
      <trkpt lat="49.72907" lon="2.34866">
        <ele>56.1</ele>
        <time>2022-10-05T14:16:06Z</time>
      </trkpt>
      <trkpt lat="49.72908" lon="2.34866">
        <ele>56.1</ele>
        <time>2022-10-05T14:16:07Z</time>
      </trkpt>
      <trkpt lat="49.72908" lon="2.34866">
        <ele>56.1</ele>
        <time>2022-10-05T14:16:08Z</time>
      </trkpt>
      <trkpt lat="49.72909" lon="2.34866">
        <ele>56.1</ele>
        <time>2022-10-05T14:16:09Z</time>
      </trkpt>
      <trkpt lat="49.7291" lon="2.34866">
        <ele>56.1</ele>
        <time>2022-10-05T14:16:10Z</time>
      </trkpt>
      <trkpt lat="49.72911" lon="2.34866">
        <ele>56</ele>
        <time>2022-10-05T14:16:11Z</time>
      </trkpt>
      <trkpt lat="49.72913" lon="2.34866">
        <ele>56</ele>
        <time>2022-10-05T14:16:12Z</time>
      </trkpt>
      <trkpt lat="49.72914" lon="2.34867">
        <ele>56</ele>
        <time>2022-10-05T14:16:13Z</time>
      </trkpt>
      <trkpt lat="49.72915" lon="2.34867">
        <ele>56</ele>
        <time>2022-10-05T14:16:14Z</time>
      </trkpt>
      <trkpt lat="49.72916" lon="2.34867">
        <ele>56</ele>
        <time>2022-10-05T14:16:15Z</time>
      </trkpt>
      <trkpt lat="49.72917" lon="2.34867">
        <ele>56</ele>
        <time>2022-10-05T14:16:17Z</time>
      </trkpt>
      <trkpt lat="49.72918" lon="2.34867">
        <ele>56</ele>
        <time>2022-10-05T14:16:18Z</time>
      </trkpt>
      <trkpt lat="49.72919" lon="2.34866">
        <ele>56</ele>
        <time>2022-10-05T14:16:20Z</time>
      </trkpt>
      <trkpt lat="49.7292" lon="2.34867">
        <ele>56</ele>
        <time>2022-10-05T14:16:21Z</time>
      </trkpt>
      <trkpt lat="49.72921" lon="2.34867">
        <ele>56</ele>
        <time>2022-10-05T14:16:22Z</time>
      </trkpt>
      <trkpt lat="49.72923" lon="2.34867">
        <ele>56</ele>
        <time>2022-10-05T14:16:23Z</time>
      </trkpt>
      <trkpt lat="49.72923" lon="2.34867">
        <ele>56</ele>
        <time>2022-10-05T14:16:24Z</time>
      </trkpt>
      <trkpt lat="49.72924" lon="2.34866">
        <ele>56.1</ele>
        <time>2022-10-05T14:16:26Z</time>
      </trkpt>
      <trkpt lat="49.72925" lon="2.34866">
        <ele>56.1</ele>
        <time>2022-10-05T14:16:27Z</time>
      </trkpt>
      <trkpt lat="49.72926" lon="2.34865">
        <ele>56.1</ele>
        <time>2022-10-05T14:16:28Z</time>
      </trkpt>
      <trkpt lat="49.72927" lon="2.34865">
        <ele>56.1</ele>
        <time>2022-10-05T14:16:29Z</time>
      </trkpt>
      <trkpt lat="49.72928" lon="2.34864">
        <ele>56.1</ele>
        <time>2022-10-05T14:16:30Z</time>
      </trkpt>
      <trkpt lat="49.72929" lon="2.34862">
        <ele>56.1</ele>
        <time>2022-10-05T14:16:31Z</time>
      </trkpt>
      <trkpt lat="49.72931" lon="2.34861">
        <ele>56.1</ele>
        <time>2022-10-05T14:16:33Z</time>
      </trkpt>
      <trkpt lat="49.72932" lon="2.34858">
        <ele>56.2</ele>
        <time>2022-10-05T14:16:34Z</time>
      </trkpt>
      <trkpt lat="49.72933" lon="2.34857">
        <ele>56.2</ele>
        <time>2022-10-05T14:16:35Z</time>
      </trkpt>
      <trkpt lat="49.72934" lon="2.34856">
        <ele>56.2</ele>
        <time>2022-10-05T14:16:36Z</time>
      </trkpt>
      <trkpt lat="49.72935" lon="2.34853">
        <ele>56.2</ele>
        <time>2022-10-05T14:16:37Z</time>
      </trkpt>
      <trkpt lat="49.72935" lon="2.34852">
        <ele>56.2</ele>
        <time>2022-10-05T14:16:39Z</time>
      </trkpt>
      <trkpt lat="49.72935" lon="2.34851">
        <ele>56.2</ele>
        <time>2022-10-05T14:16:40Z</time>
      </trkpt>
      <trkpt lat="49.72936" lon="2.3485">
        <ele>56.2</ele>
        <time>2022-10-05T14:16:41Z</time>
      </trkpt>
      <trkpt lat="49.72936" lon="2.34849">
        <ele>56.2</ele>
        <time>2022-10-05T14:16:42Z</time>
      </trkpt>
      <trkpt lat="49.72937" lon="2.34847">
        <ele>56.2</ele>
        <time>2022-10-05T14:16:43Z</time>
      </trkpt>
      <trkpt lat="49.72938" lon="2.34846">
        <ele>56.2</ele>
        <time>2022-10-05T14:16:44Z</time>
      </trkpt>
      <trkpt lat="49.72938" lon="2.34844">
        <ele>56.3</ele>
        <time>2022-10-05T14:16:46Z</time>
      </trkpt>
      <trkpt lat="49.72939" lon="2.34843">
        <ele>56.3</ele>
        <time>2022-10-05T14:16:47Z</time>
      </trkpt>
      <trkpt lat="49.7294" lon="2.34842">
        <ele>56.3</ele>
        <time>2022-10-05T14:16:48Z</time>
      </trkpt>
      <trkpt lat="49.7294" lon="2.3484">
        <ele>56.3</ele>
        <time>2022-10-05T14:16:49Z</time>
      </trkpt>
      <trkpt lat="49.72941" lon="2.34839">
        <ele>56.3</ele>
        <time>2022-10-05T14:16:50Z</time>
      </trkpt>
      <trkpt lat="49.72942" lon="2.34837">
        <ele>56.3</ele>
        <time>2022-10-05T14:16:52Z</time>
      </trkpt>
      <trkpt lat="49.72943" lon="2.34836">
        <ele>56.3</ele>
        <time>2022-10-05T14:16:53Z</time>
      </trkpt>
      <trkpt lat="49.72944" lon="2.34833">
        <ele>56.3</ele>
        <time>2022-10-05T14:16:54Z</time>
      </trkpt>
      <trkpt lat="49.72945" lon="2.34832">
        <ele>56.3</ele>
        <time>2022-10-05T14:16:55Z</time>
      </trkpt>
      <trkpt lat="49.72945" lon="2.34831">
        <ele>56.3</ele>
        <time>2022-10-05T14:16:56Z</time>
      </trkpt>
      <trkpt lat="49.72947" lon="2.3483">
        <ele>56.3</ele>
        <time>2022-10-05T14:16:57Z</time>
      </trkpt>
      <trkpt lat="49.72948" lon="2.34829">
        <ele>56.3</ele>
        <time>2022-10-05T14:16:58Z</time>
      </trkpt>
      <trkpt lat="49.7295" lon="2.34825">
        <ele>56.4</ele>
        <time>2022-10-05T14:16:59Z</time>
      </trkpt>
      <trkpt lat="49.72951" lon="2.34823">
        <ele>56.4</ele>
        <time>2022-10-05T14:17:01Z</time>
      </trkpt>
      <trkpt lat="49.72951" lon="2.34822">
        <ele>56.4</ele>
        <time>2022-10-05T14:17:02Z</time>
      </trkpt>
      <trkpt lat="49.72952" lon="2.3482">
        <ele>56.5</ele>
        <time>2022-10-05T14:17:03Z</time>
      </trkpt>
      <trkpt lat="49.72953" lon="2.34817">
        <ele>56.5</ele>
        <time>2022-10-05T14:17:04Z</time>
      </trkpt>
      <trkpt lat="49.72953" lon="2.34816">
        <ele>56.5</ele>
        <time>2022-10-05T14:17:05Z</time>
      </trkpt>
      <trkpt lat="49.72954" lon="2.34814">
        <ele>56.5</ele>
        <time>2022-10-05T14:17:06Z</time>
      </trkpt>
      <trkpt lat="49.72954" lon="2.34813">
        <ele>56.6</ele>
        <time>2022-10-05T14:17:07Z</time>
      </trkpt>
      <trkpt lat="49.72955" lon="2.34811">
        <ele>56.6</ele>
        <time>2022-10-05T14:17:08Z</time>
      </trkpt>
      <trkpt lat="49.72956" lon="2.34809">
        <ele>56.6</ele>
        <time>2022-10-05T14:17:09Z</time>
      </trkpt>
      <trkpt lat="49.72957" lon="2.34806">
        <ele>56.7</ele>
        <time>2022-10-05T14:17:10Z</time>
      </trkpt>
      <trkpt lat="49.72958" lon="2.34804">
        <ele>56.7</ele>
        <time>2022-10-05T14:17:11Z</time>
      </trkpt>
      <trkpt lat="49.72959" lon="2.34802">
        <ele>56.8</ele>
        <time>2022-10-05T14:17:12Z</time>
      </trkpt>
      <trkpt lat="49.7296" lon="2.34801">
        <ele>56.8</ele>
        <time>2022-10-05T14:17:13Z</time>
      </trkpt>
      <trkpt lat="49.72961" lon="2.348">
        <ele>56.8</ele>
        <time>2022-10-05T14:17:14Z</time>
      </trkpt>
      <trkpt lat="49.72961" lon="2.34798">
        <ele>56.9</ele>
        <time>2022-10-05T14:17:15Z</time>
      </trkpt>
      <trkpt lat="49.72962" lon="2.34797">
        <ele>56.9</ele>
        <time>2022-10-05T14:17:17Z</time>
      </trkpt>
      <trkpt lat="49.72963" lon="2.34795">
        <ele>56.9</ele>
        <time>2022-10-05T14:17:18Z</time>
      </trkpt>
      <trkpt lat="49.72964" lon="2.34793">
        <ele>57</ele>
        <time>2022-10-05T14:17:19Z</time>
      </trkpt>
      <trkpt lat="49.72965" lon="2.34792">
        <ele>57</ele>
        <time>2022-10-05T14:17:20Z</time>
      </trkpt>
      <trkpt lat="49.72966" lon="2.3479">
        <ele>57.1</ele>
        <time>2022-10-05T14:17:21Z</time>
      </trkpt>
      <trkpt lat="49.72967" lon="2.34789">
        <ele>57.2</ele>
        <time>2022-10-05T14:17:22Z</time>
      </trkpt>
      <trkpt lat="49.72968" lon="2.34787">
        <ele>57.2</ele>
        <time>2022-10-05T14:17:23Z</time>
      </trkpt>
      <trkpt lat="49.7297" lon="2.34786">
        <ele>57.3</ele>
        <time>2022-10-05T14:17:24Z</time>
      </trkpt>
      <trkpt lat="49.72971" lon="2.34784">
        <ele>57.4</ele>
        <time>2022-10-05T14:17:25Z</time>
      </trkpt>
      <trkpt lat="49.72972" lon="2.34783">
        <ele>57.4</ele>
        <time>2022-10-05T14:17:26Z</time>
      </trkpt>
      <trkpt lat="49.72974" lon="2.34781">
        <ele>57.5</ele>
        <time>2022-10-05T14:17:28Z</time>
      </trkpt>
      <trkpt lat="49.72976" lon="2.34781">
        <ele>57.6</ele>
        <time>2022-10-05T14:17:29Z</time>
      </trkpt>
      <trkpt lat="49.72978" lon="2.34781">
        <ele>57.7</ele>
        <time>2022-10-05T14:17:30Z</time>
      </trkpt>
      <trkpt lat="49.72979" lon="2.34781">
        <ele>57.8</ele>
        <time>2022-10-05T14:17:31Z</time>
      </trkpt>
      <trkpt lat="49.7298" lon="2.3478">
        <ele>57.8</ele>
        <time>2022-10-05T14:17:32Z</time>
      </trkpt>
      <trkpt lat="49.72982" lon="2.3478">
        <ele>57.9</ele>
        <time>2022-10-05T14:17:34Z</time>
      </trkpt>
      <trkpt lat="49.72983" lon="2.34781">
        <ele>57.9</ele>
        <time>2022-10-05T14:17:35Z</time>
      </trkpt>
      <trkpt lat="49.72985" lon="2.34782">
        <ele>58</ele>
        <time>2022-10-05T14:17:36Z</time>
      </trkpt>
      <trkpt lat="49.72985" lon="2.34782">
        <ele>58.1</ele>
        <time>2022-10-05T14:17:37Z</time>
      </trkpt>
      <trkpt lat="49.72986" lon="2.34782">
        <ele>58.1</ele>
        <time>2022-10-05T14:17:38Z</time>
      </trkpt>
      <trkpt lat="49.72988" lon="2.34783">
        <ele>58.2</ele>
        <time>2022-10-05T14:17:39Z</time>
      </trkpt>
      <trkpt lat="49.72989" lon="2.34783">
        <ele>58.3</ele>
        <time>2022-10-05T14:17:40Z</time>
      </trkpt>
      <trkpt lat="49.72991" lon="2.34784">
        <ele>58.4</ele>
        <time>2022-10-05T14:17:41Z</time>
      </trkpt>
      <trkpt lat="49.72992" lon="2.34784">
        <ele>58.4</ele>
        <time>2022-10-05T14:17:42Z</time>
      </trkpt>
      <trkpt lat="49.72992" lon="2.34784">
        <ele>58.4</ele>
        <time>2022-10-05T14:17:43Z</time>
      </trkpt>
      <trkpt lat="49.72992" lon="2.34784">
        <ele>58.5</ele>
        <time>2022-10-05T14:17:45Z</time>
      </trkpt>
      <trkpt lat="49.72994" lon="2.34783">
        <ele>58.6</ele>
        <time>2022-10-05T14:17:47Z</time>
      </trkpt>
      <trkpt lat="49.72995" lon="2.34783">
        <ele>58.7</ele>
        <time>2022-10-05T14:17:48Z</time>
      </trkpt>
      <trkpt lat="49.72996" lon="2.34782">
        <ele>58.7</ele>
        <time>2022-10-05T14:17:49Z</time>
      </trkpt>
      <trkpt lat="49.72997" lon="2.34781">
        <ele>58.8</ele>
        <time>2022-10-05T14:17:51Z</time>
      </trkpt>
      <trkpt lat="49.72998" lon="2.3478">
        <ele>58.8</ele>
        <time>2022-10-05T14:17:52Z</time>
      </trkpt>
      <trkpt lat="49.72999" lon="2.34778">
        <ele>58.9</ele>
        <time>2022-10-05T14:17:53Z</time>
      </trkpt>
      <trkpt lat="49.73" lon="2.34777">
        <ele>59</ele>
        <time>2022-10-05T14:17:54Z</time>
      </trkpt>
      <trkpt lat="49.73" lon="2.34775">
        <ele>59</ele>
        <time>2022-10-05T14:17:55Z</time>
      </trkpt>
      <trkpt lat="49.73001" lon="2.34775">
        <ele>59.1</ele>
        <time>2022-10-05T14:17:56Z</time>
      </trkpt>
      <trkpt lat="49.73002" lon="2.34774">
        <ele>59.1</ele>
        <time>2022-10-05T14:17:57Z</time>
      </trkpt>
      <trkpt lat="49.73003" lon="2.34773">
        <ele>59.2</ele>
        <time>2022-10-05T14:17:58Z</time>
      </trkpt>
      <trkpt lat="49.73004" lon="2.34772">
        <ele>59.3</ele>
        <time>2022-10-05T14:17:59Z</time>
      </trkpt>
      <trkpt lat="49.73006" lon="2.3477">
        <ele>59.4</ele>
        <time>2022-10-05T14:18:01Z</time>
      </trkpt>
      <trkpt lat="49.73007" lon="2.3477">
        <ele>59.5</ele>
        <time>2022-10-05T14:18:02Z</time>
      </trkpt>
      <trkpt lat="49.73008" lon="2.3477">
        <ele>59.5</ele>
        <time>2022-10-05T14:18:03Z</time>
      </trkpt>
      <trkpt lat="49.73009" lon="2.34769">
        <ele>59.6</ele>
        <time>2022-10-05T14:18:05Z</time>
      </trkpt>
      <trkpt lat="49.73011" lon="2.34767">
        <ele>59.7</ele>
        <time>2022-10-05T14:18:07Z</time>
      </trkpt>
      <trkpt lat="49.73012" lon="2.34765">
        <ele>59.7</ele>
        <time>2022-10-05T14:18:08Z</time>
      </trkpt>
      <trkpt lat="49.73013" lon="2.34764">
        <ele>59.8</ele>
        <time>2022-10-05T14:18:09Z</time>
      </trkpt>
      <trkpt lat="49.73014" lon="2.34762">
        <ele>59.9</ele>
        <time>2022-10-05T14:18:10Z</time>
      </trkpt>
      <trkpt lat="49.73016" lon="2.34758">
        <ele>60</ele>
        <time>2022-10-05T14:18:11Z</time>
      </trkpt>
      <trkpt lat="49.73017" lon="2.34757">
        <ele>60</ele>
        <time>2022-10-05T14:18:12Z</time>
      </trkpt>
      <trkpt lat="49.73018" lon="2.34755">
        <ele>60.1</ele>
        <time>2022-10-05T14:18:13Z</time>
      </trkpt>
      <trkpt lat="49.73019" lon="2.34753">
        <ele>60.1</ele>
        <time>2022-10-05T14:18:14Z</time>
      </trkpt>
      <trkpt lat="49.7302" lon="2.34751">
        <ele>60.2</ele>
        <time>2022-10-05T14:18:15Z</time>
      </trkpt>
      <trkpt lat="49.7302" lon="2.3475">
        <ele>60.2</ele>
        <time>2022-10-05T14:18:16Z</time>
      </trkpt>
      <trkpt lat="49.73021" lon="2.34747">
        <ele>60.3</ele>
        <time>2022-10-05T14:18:18Z</time>
      </trkpt>
      <trkpt lat="49.73022" lon="2.34746">
        <ele>60.3</ele>
        <time>2022-10-05T14:18:19Z</time>
      </trkpt>
      <trkpt lat="49.73022" lon="2.34744">
        <ele>60.4</ele>
        <time>2022-10-05T14:18:20Z</time>
      </trkpt>
      <trkpt lat="49.73023" lon="2.34743">
        <ele>60.4</ele>
        <time>2022-10-05T14:18:21Z</time>
      </trkpt>
      <trkpt lat="49.73023" lon="2.34742">
        <ele>60.4</ele>
        <time>2022-10-05T14:18:22Z</time>
      </trkpt>
      <trkpt lat="49.73024" lon="2.3474">
        <ele>60.5</ele>
        <time>2022-10-05T14:18:23Z</time>
      </trkpt>
      <trkpt lat="49.73024" lon="2.34738">
        <ele>60.5</ele>
        <time>2022-10-05T14:18:24Z</time>
      </trkpt>
      <trkpt lat="49.73025" lon="2.34736">
        <ele>60.5</ele>
        <time>2022-10-05T14:18:26Z</time>
      </trkpt>
      <trkpt lat="49.73025" lon="2.34734">
        <ele>60.6</ele>
        <time>2022-10-05T14:18:27Z</time>
      </trkpt>
      <trkpt lat="49.73024" lon="2.34733">
        <ele>60.6</ele>
        <time>2022-10-05T14:18:28Z</time>
      </trkpt>
      <trkpt lat="49.73024" lon="2.34731">
        <ele>60.6</ele>
        <time>2022-10-05T14:18:29Z</time>
      </trkpt>
      <trkpt lat="49.73024" lon="2.34729">
        <ele>60.7</ele>
        <time>2022-10-05T14:18:30Z</time>
      </trkpt>
      <trkpt lat="49.73025" lon="2.34727">
        <ele>60.7</ele>
        <time>2022-10-05T14:18:31Z</time>
      </trkpt>
      <trkpt lat="49.73025" lon="2.34725">
        <ele>60.7</ele>
        <time>2022-10-05T14:18:32Z</time>
      </trkpt>
      <trkpt lat="49.73025" lon="2.34723">
        <ele>60.8</ele>
        <time>2022-10-05T14:18:33Z</time>
      </trkpt>
      <trkpt lat="49.73026" lon="2.34722">
        <ele>60.3</ele>
        <time>2022-10-05T14:18:35Z</time>
      </trkpt>
      <trkpt lat="49.73026" lon="2.3472">
        <ele>60.3</ele>
        <time>2022-10-05T14:18:36Z</time>
      </trkpt>
      <trkpt lat="49.73027" lon="2.34721">
        <ele>60.2</ele>
        <time>2022-10-05T14:18:37Z</time>
      </trkpt>
      <trkpt lat="49.73028" lon="2.3472">
        <ele>60.1</ele>
        <time>2022-10-05T14:18:38Z</time>
      </trkpt>
      <trkpt lat="49.7303" lon="2.34721">
        <ele>60</ele>
        <time>2022-10-05T14:18:39Z</time>
      </trkpt>
      <trkpt lat="49.73031" lon="2.34721">
        <ele>60</ele>
        <time>2022-10-05T14:18:40Z</time>
      </trkpt>
      <trkpt lat="49.73032" lon="2.34722">
        <ele>59.9</ele>
        <time>2022-10-05T14:18:42Z</time>
      </trkpt>
      <trkpt lat="49.73033" lon="2.34722">
        <ele>59.9</ele>
        <time>2022-10-05T14:18:43Z</time>
      </trkpt>
      <trkpt lat="49.73034" lon="2.34722">
        <ele>59.8</ele>
        <time>2022-10-05T14:18:44Z</time>
      </trkpt>
      <trkpt lat="49.73035" lon="2.34723">
        <ele>59.7</ele>
        <time>2022-10-05T14:18:45Z</time>
      </trkpt>
      <trkpt lat="49.73036" lon="2.34723">
        <ele>59.7</ele>
        <time>2022-10-05T14:18:46Z</time>
      </trkpt>
      <trkpt lat="49.73038" lon="2.34723">
        <ele>59.6</ele>
        <time>2022-10-05T14:18:47Z</time>
      </trkpt>
      <trkpt lat="49.7304" lon="2.34723">
        <ele>59.5</ele>
        <time>2022-10-05T14:18:49Z</time>
      </trkpt>
      <trkpt lat="49.73041" lon="2.34724">
        <ele>59.4</ele>
        <time>2022-10-05T14:18:50Z</time>
      </trkpt>
      <trkpt lat="49.73042" lon="2.34724">
        <ele>59.4</ele>
        <time>2022-10-05T14:18:51Z</time>
      </trkpt>
      <trkpt lat="49.73044" lon="2.34725">
        <ele>59.3</ele>
        <time>2022-10-05T14:18:52Z</time>
      </trkpt>
      <trkpt lat="49.73046" lon="2.34726">
        <ele>59.2</ele>
        <time>2022-10-05T14:18:54Z</time>
      </trkpt>
      <trkpt lat="49.73047" lon="2.34728">
        <ele>59.1</ele>
        <time>2022-10-05T14:18:55Z</time>
      </trkpt>
      <trkpt lat="49.73048" lon="2.34731">
        <ele>59</ele>
        <time>2022-10-05T14:18:56Z</time>
      </trkpt>
      <trkpt lat="49.73047" lon="2.34733">
        <ele>58.9</ele>
        <time>2022-10-05T14:18:57Z</time>
      </trkpt>
      <trkpt lat="49.73047" lon="2.34735">
        <ele>58.9</ele>
        <time>2022-10-05T14:18:58Z</time>
      </trkpt>
      <trkpt lat="49.73047" lon="2.34736">
        <ele>58.9</ele>
        <time>2022-10-05T14:18:59Z</time>
      </trkpt>
      <trkpt lat="49.73048" lon="2.34737">
        <ele>58.8</ele>
        <time>2022-10-05T14:19:01Z</time>
      </trkpt>
      <trkpt lat="49.73049" lon="2.34738">
        <ele>58.8</ele>
        <time>2022-10-05T14:19:02Z</time>
      </trkpt>
      <trkpt lat="49.7305" lon="2.34739">
        <ele>58.7</ele>
        <time>2022-10-05T14:19:03Z</time>
      </trkpt>
      <trkpt lat="49.73051" lon="2.34739">
        <ele>58.7</ele>
        <time>2022-10-05T14:19:04Z</time>
      </trkpt>
      <trkpt lat="49.73053" lon="2.34739">
        <ele>58.6</ele>
        <time>2022-10-05T14:19:05Z</time>
      </trkpt>
      <trkpt lat="49.73054" lon="2.34739">
        <ele>58.6</ele>
        <time>2022-10-05T14:19:06Z</time>
      </trkpt>
      <trkpt lat="49.73055" lon="2.34739">
        <ele>58.5</ele>
        <time>2022-10-05T14:19:07Z</time>
      </trkpt>
      <trkpt lat="49.73058" lon="2.3474">
        <ele>58.4</ele>
        <time>2022-10-05T14:19:08Z</time>
      </trkpt>
      <trkpt lat="49.73059" lon="2.3474">
        <ele>58.4</ele>
        <time>2022-10-05T14:19:10Z</time>
      </trkpt>
      <trkpt lat="49.7306" lon="2.3474">
        <ele>58.4</ele>
        <time>2022-10-05T14:19:11Z</time>
      </trkpt>
      <trkpt lat="49.73061" lon="2.3474">
        <ele>58.3</ele>
        <time>2022-10-05T14:19:12Z</time>
      </trkpt>
      <trkpt lat="49.73062" lon="2.3474">
        <ele>58.3</ele>
        <time>2022-10-05T14:19:13Z</time>
      </trkpt>
      <trkpt lat="49.73064" lon="2.3474">
        <ele>58.2</ele>
        <time>2022-10-05T14:19:14Z</time>
      </trkpt>
      <trkpt lat="49.73065" lon="2.34741">
        <ele>58.2</ele>
        <time>2022-10-05T14:19:15Z</time>
      </trkpt>
      <trkpt lat="49.73066" lon="2.34742">
        <ele>58.2</ele>
        <time>2022-10-05T14:19:16Z</time>
      </trkpt>
      <trkpt lat="49.73067" lon="2.34743">
        <ele>58.1</ele>
        <time>2022-10-05T14:19:18Z</time>
      </trkpt>
      <trkpt lat="49.73068" lon="2.34744">
        <ele>58.1</ele>
        <time>2022-10-05T14:19:19Z</time>
      </trkpt>
      <trkpt lat="49.73069" lon="2.34746">
        <ele>58</ele>
        <time>2022-10-05T14:19:20Z</time>
      </trkpt>
      <trkpt lat="49.7307" lon="2.34748">
        <ele>58</ele>
        <time>2022-10-05T14:19:21Z</time>
      </trkpt>
      <trkpt lat="49.73071" lon="2.3475">
        <ele>57.9</ele>
        <time>2022-10-05T14:19:22Z</time>
      </trkpt>
      <trkpt lat="49.73072" lon="2.34751">
        <ele>57.9</ele>
        <time>2022-10-05T14:19:23Z</time>
      </trkpt>
      <trkpt lat="49.73073" lon="2.34752">
        <ele>57.9</ele>
        <time>2022-10-05T14:19:24Z</time>
      </trkpt>
      <trkpt lat="49.73074" lon="2.34753">
        <ele>57.9</ele>
        <time>2022-10-05T14:19:25Z</time>
      </trkpt>
      <trkpt lat="49.73075" lon="2.34755">
        <ele>57.8</ele>
        <time>2022-10-05T14:19:26Z</time>
      </trkpt>
      <trkpt lat="49.73076" lon="2.34757">
        <ele>57.8</ele>
        <time>2022-10-05T14:19:27Z</time>
      </trkpt>
      <trkpt lat="49.73077" lon="2.3476">
        <ele>57.7</ele>
        <time>2022-10-05T14:19:28Z</time>
      </trkpt>
      <trkpt lat="49.73077" lon="2.34761">
        <ele>57.7</ele>
        <time>2022-10-05T14:19:30Z</time>
      </trkpt>
      <trkpt lat="49.73078" lon="2.34762">
        <ele>57.7</ele>
        <time>2022-10-05T14:19:31Z</time>
      </trkpt>
      <trkpt lat="49.73079" lon="2.34764">
        <ele>57.6</ele>
        <time>2022-10-05T14:19:32Z</time>
      </trkpt>
      <trkpt lat="49.7308" lon="2.34766">
        <ele>57.6</ele>
        <time>2022-10-05T14:19:33Z</time>
      </trkpt>
      <trkpt lat="49.7308" lon="2.34768">
        <ele>57.5</ele>
        <time>2022-10-05T14:19:34Z</time>
      </trkpt>
      <trkpt lat="49.73082" lon="2.34771">
        <ele>57.5</ele>
        <time>2022-10-05T14:19:36Z</time>
      </trkpt>
      <trkpt lat="49.73083" lon="2.34774">
        <ele>57.4</ele>
        <time>2022-10-05T14:19:37Z</time>
      </trkpt>
      <trkpt lat="49.73083" lon="2.34775">
        <ele>57.4</ele>
        <time>2022-10-05T14:19:38Z</time>
      </trkpt>
      <trkpt lat="49.73084" lon="2.34776">
        <ele>57.4</ele>
        <time>2022-10-05T14:19:39Z</time>
      </trkpt>
      <trkpt lat="49.73085" lon="2.3478">
        <ele>57.3</ele>
        <time>2022-10-05T14:19:41Z</time>
      </trkpt>
      <trkpt lat="49.73085" lon="2.34779">
        <ele>57.3</ele>
        <time>2022-10-05T14:19:42Z</time>
      </trkpt>
      <trkpt lat="49.73085" lon="2.34779">
        <ele>57.3</ele>
        <time>2022-10-05T14:19:43Z</time>
      </trkpt>
      <trkpt lat="49.73085" lon="2.3478">
        <ele>57.2</ele>
        <time>2022-10-05T14:19:44Z</time>
      </trkpt>
      <trkpt lat="49.73085" lon="2.34781">
        <ele>57.2</ele>
        <time>2022-10-05T14:19:45Z</time>
      </trkpt>
      <trkpt lat="49.73085" lon="2.34783">
        <ele>57.2</ele>
        <time>2022-10-05T14:19:46Z</time>
      </trkpt>
      <trkpt lat="49.73086" lon="2.34785">
        <ele>57.2</ele>
        <time>2022-10-05T14:19:47Z</time>
      </trkpt>
      <trkpt lat="49.73086" lon="2.34786">
        <ele>57.1</ele>
        <time>2022-10-05T14:19:48Z</time>
      </trkpt>
      <trkpt lat="49.73086" lon="2.34788">
        <ele>57.1</ele>
        <time>2022-10-05T14:19:49Z</time>
      </trkpt>
      <trkpt lat="49.73087" lon="2.3479">
        <ele>57.1</ele>
        <time>2022-10-05T14:19:50Z</time>
      </trkpt>
      <trkpt lat="49.73087" lon="2.34792">
        <ele>57</ele>
        <time>2022-10-05T14:19:51Z</time>
      </trkpt>
      <trkpt lat="49.73088" lon="2.34793">
        <ele>57</ele>
        <time>2022-10-05T14:19:53Z</time>
      </trkpt>
      <trkpt lat="49.73088" lon="2.34795">
        <ele>57</ele>
        <time>2022-10-05T14:19:54Z</time>
      </trkpt>
      <trkpt lat="49.73088" lon="2.34798">
        <ele>56.9</ele>
        <time>2022-10-05T14:19:55Z</time>
      </trkpt>
      <trkpt lat="49.73088" lon="2.348">
        <ele>56.9</ele>
        <time>2022-10-05T14:19:56Z</time>
      </trkpt>
      <trkpt lat="49.73089" lon="2.34801">
        <ele>56.9</ele>
        <time>2022-10-05T14:19:57Z</time>
      </trkpt>
      <trkpt lat="49.73089" lon="2.34804">
        <ele>56.8</ele>
        <time>2022-10-05T14:19:58Z</time>
      </trkpt>
      <trkpt lat="49.73089" lon="2.34806">
        <ele>56.8</ele>
        <time>2022-10-05T14:19:59Z</time>
      </trkpt>
      <trkpt lat="49.7309" lon="2.34809">
        <ele>56.7</ele>
        <time>2022-10-05T14:20:00Z</time>
      </trkpt>
      <trkpt lat="49.7309" lon="2.34811">
        <ele>56.7</ele>
        <time>2022-10-05T14:20:01Z</time>
      </trkpt>
      <trkpt lat="49.73091" lon="2.34815">
        <ele>56.6</ele>
        <time>2022-10-05T14:20:02Z</time>
      </trkpt>
      <trkpt lat="49.73091" lon="2.34817">
        <ele>56.6</ele>
        <time>2022-10-05T14:20:04Z</time>
      </trkpt>
      <trkpt lat="49.73092" lon="2.34819">
        <ele>56.5</ele>
        <time>2022-10-05T14:20:05Z</time>
      </trkpt>
      <trkpt lat="49.73092" lon="2.34821">
        <ele>56.5</ele>
        <time>2022-10-05T14:20:06Z</time>
      </trkpt>
      <trkpt lat="49.73093" lon="2.34823">
        <ele>56.4</ele>
        <time>2022-10-05T14:20:07Z</time>
      </trkpt>
      <trkpt lat="49.73094" lon="2.34825">
        <ele>56.4</ele>
        <time>2022-10-05T14:20:08Z</time>
      </trkpt>
      <trkpt lat="49.73094" lon="2.34827">
        <ele>56.4</ele>
        <time>2022-10-05T14:20:10Z</time>
      </trkpt>
      <trkpt lat="49.73095" lon="2.3483">
        <ele>56.3</ele>
        <time>2022-10-05T14:20:11Z</time>
      </trkpt>
      <trkpt lat="49.73095" lon="2.34831">
        <ele>56.3</ele>
        <time>2022-10-05T14:20:12Z</time>
      </trkpt>
      <trkpt lat="49.73096" lon="2.34832">
        <ele>56.3</ele>
        <time>2022-10-05T14:20:13Z</time>
      </trkpt>
      <trkpt lat="49.73096" lon="2.34834">
        <ele>56.2</ele>
        <time>2022-10-05T14:20:14Z</time>
      </trkpt>
      <trkpt lat="49.73097" lon="2.34835">
        <ele>56.2</ele>
        <time>2022-10-05T14:20:15Z</time>
      </trkpt>
      <trkpt lat="49.73098" lon="2.34837">
        <ele>56.2</ele>
        <time>2022-10-05T14:20:16Z</time>
      </trkpt>
      <trkpt lat="49.73099" lon="2.34839">
        <ele>56.1</ele>
        <time>2022-10-05T14:20:17Z</time>
      </trkpt>
      <trkpt lat="49.73099" lon="2.3484">
        <ele>56.1</ele>
        <time>2022-10-05T14:20:18Z</time>
      </trkpt>
      <trkpt lat="49.731" lon="2.34842">
        <ele>56.1</ele>
        <time>2022-10-05T14:20:19Z</time>
      </trkpt>
      <trkpt lat="49.73101" lon="2.34845">
        <ele>56</ele>
        <time>2022-10-05T14:20:20Z</time>
      </trkpt>
      <trkpt lat="49.73102" lon="2.34846">
        <ele>56</ele>
        <time>2022-10-05T14:20:21Z</time>
      </trkpt>
      <trkpt lat="49.73103" lon="2.34848">
        <ele>56</ele>
        <time>2022-10-05T14:20:23Z</time>
      </trkpt>
      <trkpt lat="49.73104" lon="2.34849">
        <ele>55.9</ele>
        <time>2022-10-05T14:20:24Z</time>
      </trkpt>
      <trkpt lat="49.73104" lon="2.3485">
        <ele>55.9</ele>
        <time>2022-10-05T14:20:25Z</time>
      </trkpt>
      <trkpt lat="49.73106" lon="2.34851">
        <ele>55.9</ele>
        <time>2022-10-05T14:20:26Z</time>
      </trkpt>
      <trkpt lat="49.73107" lon="2.34852">
        <ele>55.9</ele>
        <time>2022-10-05T14:20:27Z</time>
      </trkpt>
      <trkpt lat="49.73109" lon="2.34852">
        <ele>55.8</ele>
        <time>2022-10-05T14:20:28Z</time>
      </trkpt>
      <trkpt lat="49.7311" lon="2.34853">
        <ele>55.8</ele>
        <time>2022-10-05T14:20:29Z</time>
      </trkpt>
      <trkpt lat="49.73111" lon="2.34853">
        <ele>55.8</ele>
        <time>2022-10-05T14:20:30Z</time>
      </trkpt>
      <trkpt lat="49.73112" lon="2.34855">
        <ele>55.8</ele>
        <time>2022-10-05T14:20:31Z</time>
      </trkpt>
      <trkpt lat="49.73113" lon="2.34856">
        <ele>55.8</ele>
        <time>2022-10-05T14:20:32Z</time>
      </trkpt>
      <trkpt lat="49.73115" lon="2.34857">
        <ele>55.7</ele>
        <time>2022-10-05T14:20:33Z</time>
      </trkpt>
      <trkpt lat="49.73116" lon="2.34857">
        <ele>55.7</ele>
        <time>2022-10-05T14:20:34Z</time>
      </trkpt>
      <trkpt lat="49.73117" lon="2.34858">
        <ele>55.7</ele>
        <time>2022-10-05T14:20:36Z</time>
      </trkpt>
      <trkpt lat="49.73118" lon="2.34858">
        <ele>55.7</ele>
        <time>2022-10-05T14:20:37Z</time>
      </trkpt>
      <trkpt lat="49.73119" lon="2.34859">
        <ele>55.7</ele>
        <time>2022-10-05T14:20:38Z</time>
      </trkpt>
      <trkpt lat="49.7312" lon="2.34859">
        <ele>55.7</ele>
        <time>2022-10-05T14:20:39Z</time>
      </trkpt>
      <trkpt lat="49.73122" lon="2.34859">
        <ele>55.6</ele>
        <time>2022-10-05T14:20:40Z</time>
      </trkpt>
      <trkpt lat="49.73123" lon="2.3486">
        <ele>55.6</ele>
        <time>2022-10-05T14:20:41Z</time>
      </trkpt>
      <trkpt lat="49.73124" lon="2.3486">
        <ele>55.6</ele>
        <time>2022-10-05T14:20:42Z</time>
      </trkpt>
      <trkpt lat="49.73125" lon="2.3486">
        <ele>55.6</ele>
        <time>2022-10-05T14:20:44Z</time>
      </trkpt>
      <trkpt lat="49.73127" lon="2.3486">
        <ele>55.6</ele>
        <time>2022-10-05T14:20:45Z</time>
      </trkpt>
      <trkpt lat="49.73128" lon="2.3486">
        <ele>55.6</ele>
        <time>2022-10-05T14:20:46Z</time>
      </trkpt>
      <trkpt lat="49.73128" lon="2.3486">
        <ele>55.6</ele>
        <time>2022-10-05T14:20:47Z</time>
      </trkpt>
      <trkpt lat="49.73131" lon="2.3486">
        <ele>55.5</ele>
        <time>2022-10-05T14:20:49Z</time>
      </trkpt>
      <trkpt lat="49.73132" lon="2.34859">
        <ele>55.5</ele>
        <time>2022-10-05T14:20:50Z</time>
      </trkpt>
      <trkpt lat="49.73133" lon="2.34859">
        <ele>55.5</ele>
        <time>2022-10-05T14:20:51Z</time>
      </trkpt>
      <trkpt lat="49.73133" lon="2.34859">
        <ele>55.5</ele>
        <time>2022-10-05T14:20:52Z</time>
      </trkpt>
      <trkpt lat="49.73134" lon="2.34859">
        <ele>55.5</ele>
        <time>2022-10-05T14:20:53Z</time>
      </trkpt>
      <trkpt lat="49.73136" lon="2.34859">
        <ele>55.5</ele>
        <time>2022-10-05T14:20:54Z</time>
      </trkpt>
      <trkpt lat="49.73137" lon="2.3486">
        <ele>55.5</ele>
        <time>2022-10-05T14:20:55Z</time>
      </trkpt>
      <trkpt lat="49.73139" lon="2.34861">
        <ele>55.5</ele>
        <time>2022-10-05T14:20:57Z</time>
      </trkpt>
      <trkpt lat="49.7314" lon="2.34861">
        <ele>55.5</ele>
        <time>2022-10-05T14:20:58Z</time>
      </trkpt>
      <trkpt lat="49.73141" lon="2.34862">
        <ele>55.5</ele>
        <time>2022-10-05T14:20:59Z</time>
      </trkpt>
      <trkpt lat="49.73142" lon="2.34863">
        <ele>55.5</ele>
        <time>2022-10-05T14:21:00Z</time>
      </trkpt>
      <trkpt lat="49.73143" lon="2.34863">
        <ele>55.4</ele>
        <time>2022-10-05T14:21:01Z</time>
      </trkpt>
      <trkpt lat="49.73144" lon="2.34864">
        <ele>55.4</ele>
        <time>2022-10-05T14:21:02Z</time>
      </trkpt>
      <trkpt lat="49.73146" lon="2.34866">
        <ele>55.4</ele>
        <time>2022-10-05T14:21:03Z</time>
      </trkpt>
      <trkpt lat="49.73147" lon="2.34866">
        <ele>55.4</ele>
        <time>2022-10-05T14:21:04Z</time>
      </trkpt>
      <trkpt lat="49.73148" lon="2.34867">
        <ele>55.4</ele>
        <time>2022-10-05T14:21:05Z</time>
      </trkpt>
      <trkpt lat="49.7315" lon="2.34868">
        <ele>55.4</ele>
        <time>2022-10-05T14:21:07Z</time>
      </trkpt>
      <trkpt lat="49.73151" lon="2.34868">
        <ele>55.4</ele>
        <time>2022-10-05T14:21:08Z</time>
      </trkpt>
      <trkpt lat="49.73152" lon="2.34869">
        <ele>55.4</ele>
        <time>2022-10-05T14:21:09Z</time>
      </trkpt>
      <trkpt lat="49.73153" lon="2.3487">
        <ele>55.4</ele>
        <time>2022-10-05T14:21:10Z</time>
      </trkpt>
      <trkpt lat="49.73155" lon="2.34871">
        <ele>55.4</ele>
        <time>2022-10-05T14:21:11Z</time>
      </trkpt>
      <trkpt lat="49.73155" lon="2.34871">
        <ele>55.4</ele>
        <time>2022-10-05T14:21:12Z</time>
      </trkpt>
      <trkpt lat="49.73156" lon="2.34871">
        <ele>55.4</ele>
        <time>2022-10-05T14:21:13Z</time>
      </trkpt>
      <trkpt lat="49.73157" lon="2.34871">
        <ele>55.3</ele>
        <time>2022-10-05T14:21:14Z</time>
      </trkpt>
      <trkpt lat="49.73158" lon="2.34871">
        <ele>55.3</ele>
        <time>2022-10-05T14:21:15Z</time>
      </trkpt>
      <trkpt lat="49.7316" lon="2.34872">
        <ele>55.3</ele>
        <time>2022-10-05T14:21:16Z</time>
      </trkpt>
      <trkpt lat="49.73161" lon="2.34872">
        <ele>55.3</ele>
        <time>2022-10-05T14:21:17Z</time>
      </trkpt>
      <trkpt lat="49.73162" lon="2.34873">
        <ele>55.3</ele>
        <time>2022-10-05T14:21:18Z</time>
      </trkpt>
      <trkpt lat="49.73163" lon="2.34873">
        <ele>55.3</ele>
        <time>2022-10-05T14:21:19Z</time>
      </trkpt>
      <trkpt lat="49.73164" lon="2.34874">
        <ele>55.3</ele>
        <time>2022-10-05T14:21:20Z</time>
      </trkpt>
      <trkpt lat="49.73165" lon="2.34874">
        <ele>55.3</ele>
        <time>2022-10-05T14:21:21Z</time>
      </trkpt>
      <trkpt lat="49.73166" lon="2.34874">
        <ele>55.3</ele>
        <time>2022-10-05T14:21:22Z</time>
      </trkpt>
      <trkpt lat="49.73167" lon="2.34874">
        <ele>55.3</ele>
        <time>2022-10-05T14:21:23Z</time>
      </trkpt>
      <trkpt lat="49.73168" lon="2.34875">
        <ele>55.3</ele>
        <time>2022-10-05T14:21:24Z</time>
      </trkpt>
      <trkpt lat="49.7317" lon="2.34875">
        <ele>55.3</ele>
        <time>2022-10-05T14:21:25Z</time>
      </trkpt>
      <trkpt lat="49.73171" lon="2.34875">
        <ele>55.3</ele>
        <time>2022-10-05T14:21:27Z</time>
      </trkpt>
      <trkpt lat="49.73172" lon="2.34876">
        <ele>55.2</ele>
        <time>2022-10-05T14:21:28Z</time>
      </trkpt>
      <trkpt lat="49.73174" lon="2.34877">
        <ele>55.2</ele>
        <time>2022-10-05T14:21:29Z</time>
      </trkpt>
      <trkpt lat="49.73175" lon="2.34877">
        <ele>55.2</ele>
        <time>2022-10-05T14:21:30Z</time>
      </trkpt>
      <trkpt lat="49.73176" lon="2.34878">
        <ele>55.2</ele>
        <time>2022-10-05T14:21:31Z</time>
      </trkpt>
      <trkpt lat="49.73177" lon="2.34879">
        <ele>55.2</ele>
        <time>2022-10-05T14:21:32Z</time>
      </trkpt>
      <trkpt lat="49.73178" lon="2.34879">
        <ele>55.2</ele>
        <time>2022-10-05T14:21:33Z</time>
      </trkpt>
      <trkpt lat="49.7318" lon="2.3488">
        <ele>55.2</ele>
        <time>2022-10-05T14:21:35Z</time>
      </trkpt>
      <trkpt lat="49.73181" lon="2.3488">
        <ele>55.2</ele>
        <time>2022-10-05T14:21:36Z</time>
      </trkpt>
      <trkpt lat="49.73182" lon="2.3488">
        <ele>55.2</ele>
        <time>2022-10-05T14:21:37Z</time>
      </trkpt>
      <trkpt lat="49.73183" lon="2.34881">
        <ele>55.2</ele>
        <time>2022-10-05T14:21:38Z</time>
      </trkpt>
      <trkpt lat="49.73185" lon="2.3488">
        <ele>55.2</ele>
        <time>2022-10-05T14:21:39Z</time>
      </trkpt>
      <trkpt lat="49.73186" lon="2.3488">
        <ele>55.2</ele>
        <time>2022-10-05T14:21:40Z</time>
      </trkpt>
      <trkpt lat="49.73187" lon="2.34879">
        <ele>55.1</ele>
        <time>2022-10-05T14:21:41Z</time>
      </trkpt>
      <trkpt lat="49.73188" lon="2.34879">
        <ele>55.1</ele>
        <time>2022-10-05T14:21:43Z</time>
      </trkpt>
      <trkpt lat="49.73189" lon="2.34879">
        <ele>55.1</ele>
        <time>2022-10-05T14:21:44Z</time>
      </trkpt>
      <trkpt lat="49.7319" lon="2.34879">
        <ele>55.1</ele>
        <time>2022-10-05T14:21:45Z</time>
      </trkpt>
      <trkpt lat="49.73192" lon="2.34879">
        <ele>55.1</ele>
        <time>2022-10-05T14:21:46Z</time>
      </trkpt>
      <trkpt lat="49.73193" lon="2.34879">
        <ele>55.1</ele>
        <time>2022-10-05T14:21:47Z</time>
      </trkpt>
      <trkpt lat="49.73194" lon="2.34879">
        <ele>55.1</ele>
        <time>2022-10-05T14:21:48Z</time>
      </trkpt>
      <trkpt lat="49.73195" lon="2.34879">
        <ele>55.1</ele>
        <time>2022-10-05T14:21:49Z</time>
      </trkpt>
      <trkpt lat="49.73196" lon="2.34878">
        <ele>55.1</ele>
        <time>2022-10-05T14:21:50Z</time>
      </trkpt>
      <trkpt lat="49.73197" lon="2.34878">
        <ele>55.1</ele>
        <time>2022-10-05T14:21:51Z</time>
      </trkpt>
      <trkpt lat="49.73198" lon="2.34878">
        <ele>55.1</ele>
        <time>2022-10-05T14:21:52Z</time>
      </trkpt>
      <trkpt lat="49.73198" lon="2.34877">
        <ele>55.1</ele>
        <time>2022-10-05T14:21:53Z</time>
      </trkpt>
      <trkpt lat="49.73199" lon="2.34876">
        <ele>55.1</ele>
        <time>2022-10-05T14:21:54Z</time>
      </trkpt>
      <trkpt lat="49.732" lon="2.34876">
        <ele>55.1</ele>
        <time>2022-10-05T14:21:56Z</time>
      </trkpt>
      <trkpt lat="49.732" lon="2.34875">
        <ele>55.1</ele>
        <time>2022-10-05T14:21:57Z</time>
      </trkpt>
      <trkpt lat="49.73201" lon="2.34875">
        <ele>55.1</ele>
        <time>2022-10-05T14:21:58Z</time>
      </trkpt>
      <trkpt lat="49.73201" lon="2.34875">
        <ele>55.1</ele>
        <time>2022-10-05T14:21:59Z</time>
      </trkpt>
      <trkpt lat="49.73201" lon="2.34874">
        <ele>55.1</ele>
        <time>2022-10-05T14:22:00Z</time>
      </trkpt>
      <trkpt lat="49.73201" lon="2.34874">
        <ele>55.1</ele>
        <time>2022-10-05T14:22:01Z</time>
      </trkpt>
      <trkpt lat="49.73201" lon="2.34874">
        <ele>55.1</ele>
        <time>2022-10-05T14:22:02Z</time>
      </trkpt>
      <trkpt lat="49.732" lon="2.34874">
        <ele>55.1</ele>
        <time>2022-10-05T14:22:03Z</time>
      </trkpt>
      <trkpt lat="49.732" lon="2.34874">
        <ele>55.1</ele>
        <time>2022-10-05T14:22:04Z</time>
      </trkpt>
      <trkpt lat="49.732" lon="2.34874">
        <ele>55.1</ele>
        <time>2022-10-05T14:22:05Z</time>
      </trkpt>
      <trkpt lat="49.73199" lon="2.34874">
        <ele>55.1</ele>
        <time>2022-10-05T14:22:06Z</time>
      </trkpt>
      <trkpt lat="49.73199" lon="2.34874">
        <ele>55.1</ele>
        <time>2022-10-05T14:22:07Z</time>
      </trkpt>
      <trkpt lat="49.73199" lon="2.34874">
        <ele>55.1</ele>
        <time>2022-10-05T14:22:08Z</time>
      </trkpt>
      <trkpt lat="49.73199" lon="2.34874">
        <ele>55.1</ele>
        <time>2022-10-05T14:22:09Z</time>
      </trkpt>
      <trkpt lat="49.73199" lon="2.34874">
        <ele>55.1</ele>
        <time>2022-10-05T14:22:10Z</time>
      </trkpt>
      <trkpt lat="49.73199" lon="2.34874">
        <ele>55.1</ele>
        <time>2022-10-05T14:22:11Z</time>
      </trkpt>
      <trkpt lat="49.73198" lon="2.34874">
        <ele>55.1</ele>
        <time>2022-10-05T14:22:12Z</time>
      </trkpt>
      <trkpt lat="49.73198" lon="2.34874">
        <ele>55.1</ele>
        <time>2022-10-05T14:22:13Z</time>
      </trkpt>
      <trkpt lat="49.73198" lon="2.34874">
        <ele>55.1</ele>
        <time>2022-10-05T14:22:14Z</time>
      </trkpt>
      <trkpt lat="49.73198" lon="2.34874">
        <ele>55.1</ele>
        <time>2022-10-05T14:22:15Z</time>
      </trkpt>
      <trkpt lat="49.73197" lon="2.34875">
        <ele>55.1</ele>
        <time>2022-10-05T14:22:16Z</time>
      </trkpt>
      <trkpt lat="49.73197" lon="2.34875">
        <ele>55.1</ele>
        <time>2022-10-05T14:22:17Z</time>
      </trkpt>
      <trkpt lat="49.73197" lon="2.34875">
        <ele>55.1</ele>
        <time>2022-10-05T14:22:18Z</time>
      </trkpt>
      <trkpt lat="49.73197" lon="2.34875">
        <ele>55.1</ele>
        <time>2022-10-05T14:22:19Z</time>
      </trkpt>
      <trkpt lat="49.73197" lon="2.34875">
        <ele>55.1</ele>
        <time>2022-10-05T14:22:20Z</time>
      </trkpt>
      <trkpt lat="49.73197" lon="2.34875">
        <ele>55.1</ele>
        <time>2022-10-05T14:22:21Z</time>
      </trkpt>
      <trkpt lat="49.73197" lon="2.34875">
        <ele>55.1</ele>
        <time>2022-10-05T14:22:22Z</time>
      </trkpt>
      <trkpt lat="49.73197" lon="2.34875">
        <ele>55.1</ele>
        <time>2022-10-05T14:22:23Z</time>
      </trkpt>
      <trkpt lat="49.73197" lon="2.34875">
        <ele>55.1</ele>
        <time>2022-10-05T14:22:24Z</time>
      </trkpt>
      <trkpt lat="49.73197" lon="2.34875">
        <ele>55.1</ele>
        <time>2022-10-05T14:22:25Z</time>
      </trkpt>
      <trkpt lat="49.73197" lon="2.34875">
        <ele>55.1</ele>
        <time>2022-10-05T14:22:26Z</time>
      </trkpt>
      <trkpt lat="49.73197" lon="2.34875">
        <ele>55.1</ele>
        <time>2022-10-05T14:22:27Z</time>
      </trkpt>
      <trkpt lat="49.73197" lon="2.34875">
        <ele>55.1</ele>
        <time>2022-10-05T14:22:28Z</time>
      </trkpt>
      <trkpt lat="49.73197" lon="2.34875">
        <ele>55.1</ele>
        <time>2022-10-05T14:22:29Z</time>
      </trkpt>
      <trkpt lat="49.73197" lon="2.34875">
        <ele>55.1</ele>
        <time>2022-10-05T14:22:30Z</time>
      </trkpt>
      <trkpt lat="49.73197" lon="2.34875">
        <ele>55.1</ele>
        <time>2022-10-05T14:22:31Z</time>
      </trkpt>
      <trkpt lat="49.73197" lon="2.34875">
        <ele>55.1</ele>
        <time>2022-10-05T14:22:32Z</time>
      </trkpt>
      <trkpt lat="49.73197" lon="2.34875">
        <ele>55.1</ele>
        <time>2022-10-05T14:22:33Z</time>
      </trkpt>
      <trkpt lat="49.73197" lon="2.34875">
        <ele>55.1</ele>
        <time>2022-10-05T14:22:34Z</time>
      </trkpt>
      <trkpt lat="49.73197" lon="2.34875">
        <ele>55.1</ele>
        <time>2022-10-05T14:22:35Z</time>
      </trkpt>
      <trkpt lat="49.73197" lon="2.34875">
        <ele>55.1</ele>
        <time>2022-10-05T14:22:36Z</time>
      </trkpt>
      <trkpt lat="49.73197" lon="2.34875">
        <ele>55.1</ele>
        <time>2022-10-05T14:22:37Z</time>
      </trkpt>
      <trkpt lat="49.73197" lon="2.34875">
        <ele>55.1</ele>
        <time>2022-10-05T14:22:38Z</time>
      </trkpt>
      <trkpt lat="49.73197" lon="2.34875">
        <ele>55.1</ele>
        <time>2022-10-05T14:22:39Z</time>
      </trkpt>
      <trkpt lat="49.73197" lon="2.34875">
        <ele>55.1</ele>
        <time>2022-10-05T14:22:40Z</time>
      </trkpt>
      <trkpt lat="49.73197" lon="2.34875">
        <ele>55.1</ele>
        <time>2022-10-05T14:22:41Z</time>
      </trkpt>
      <trkpt lat="49.73197" lon="2.34875">
        <ele>55.1</ele>
        <time>2022-10-05T14:22:42Z</time>
      </trkpt>
      <trkpt lat="49.73197" lon="2.34875">
        <ele>55.1</ele>
        <time>2022-10-05T14:22:43Z</time>
      </trkpt>
      <trkpt lat="49.73197" lon="2.34875">
        <ele>55.1</ele>
        <time>2022-10-05T14:22:44Z</time>
      </trkpt>
      <trkpt lat="49.73197" lon="2.34875">
        <ele>55.1</ele>
        <time>2022-10-05T14:22:45Z</time>
      </trkpt>
      <trkpt lat="49.73197" lon="2.34875">
        <ele>55.1</ele>
        <time>2022-10-05T14:22:46Z</time>
      </trkpt>
      <trkpt lat="49.73197" lon="2.34875">
        <ele>55.1</ele>
        <time>2022-10-05T14:22:47Z</time>
      </trkpt>
      <trkpt lat="49.73197" lon="2.34875">
        <ele>55.1</ele>
        <time>2022-10-05T14:22:48Z</time>
      </trkpt>
      <trkpt lat="49.73197" lon="2.34875">
        <ele>55.1</ele>
        <time>2022-10-05T14:22:49Z</time>
      </trkpt>
      <trkpt lat="49.73197" lon="2.34875">
        <ele>55.1</ele>
        <time>2022-10-05T14:22:50Z</time>
      </trkpt>
      <trkpt lat="49.73197" lon="2.34875">
        <ele>55.1</ele>
        <time>2022-10-05T14:22:51Z</time>
      </trkpt>
      <trkpt lat="49.73197" lon="2.34875">
        <ele>55.1</ele>
        <time>2022-10-05T14:22:52Z</time>
      </trkpt>
      <trkpt lat="49.73197" lon="2.34875">
        <ele>55.1</ele>
        <time>2022-10-05T14:22:53Z</time>
      </trkpt>
      <trkpt lat="49.73197" lon="2.34875">
        <ele>55.1</ele>
        <time>2022-10-05T14:22:54Z</time>
      </trkpt>
      <trkpt lat="49.73197" lon="2.34875">
        <ele>55.1</ele>
        <time>2022-10-05T14:22:55Z</time>
      </trkpt>
      <trkpt lat="49.73197" lon="2.34875">
        <ele>55.1</ele>
        <time>2022-10-05T14:22:56Z</time>
      </trkpt>
      <trkpt lat="49.73197" lon="2.34875">
        <ele>55.1</ele>
        <time>2022-10-05T14:22:57Z</time>
      </trkpt>
      <trkpt lat="49.73197" lon="2.34875">
        <ele>55.1</ele>
        <time>2022-10-05T14:22:58Z</time>
      </trkpt>
      <trkpt lat="49.73197" lon="2.34875">
        <ele>55.1</ele>
        <time>2022-10-05T14:22:59Z</time>
      </trkpt>
      <trkpt lat="49.73197" lon="2.34875">
        <ele>55.1</ele>
        <time>2022-10-05T14:23:00Z</time>
      </trkpt>
      <trkpt lat="49.73197" lon="2.34875">
        <ele>55.1</ele>
        <time>2022-10-05T14:23:01Z</time>
      </trkpt>
      <trkpt lat="49.73197" lon="2.34875">
        <ele>55.1</ele>
        <time>2022-10-05T14:23:02Z</time>
      </trkpt>
      <trkpt lat="49.73197" lon="2.34875">
        <ele>55.1</ele>
        <time>2022-10-05T14:23:03Z</time>
      </trkpt>
      <trkpt lat="49.73197" lon="2.34875">
        <ele>55.1</ele>
        <time>2022-10-05T14:23:04Z</time>
      </trkpt>
      <trkpt lat="49.73197" lon="2.34875">
        <ele>55.1</ele>
        <time>2022-10-05T14:23:05Z</time>
      </trkpt>
      <trkpt lat="49.73197" lon="2.34875">
        <ele>55.1</ele>
        <time>2022-10-05T14:23:06Z</time>
      </trkpt>
      <trkpt lat="49.73197" lon="2.34875">
        <ele>55.1</ele>
        <time>2022-10-05T14:23:07Z</time>
      </trkpt>
      <trkpt lat="49.73197" lon="2.34875">
        <ele>55.1</ele>
        <time>2022-10-05T14:23:08Z</time>
      </trkpt>
      <trkpt lat="49.73197" lon="2.34875">
        <ele>55.1</ele>
        <time>2022-10-05T14:23:09Z</time>
      </trkpt>
      <trkpt lat="49.73197" lon="2.34875">
        <ele>55.1</ele>
        <time>2022-10-05T14:23:10Z</time>
      </trkpt>
      <trkpt lat="49.73197" lon="2.34875">
        <ele>55.1</ele>
        <time>2022-10-05T14:23:11Z</time>
      </trkpt>
      <trkpt lat="49.73197" lon="2.34875">
        <ele>55.1</ele>
        <time>2022-10-05T14:23:12Z</time>
      </trkpt>
      <trkpt lat="49.73197" lon="2.34875">
        <ele>55.1</ele>
        <time>2022-10-05T14:23:13Z</time>
      </trkpt>
      <trkpt lat="49.73197" lon="2.34875">
        <ele>55.1</ele>
        <time>2022-10-05T14:23:14Z</time>
      </trkpt>
      <trkpt lat="49.73197" lon="2.34875">
        <ele>55.1</ele>
        <time>2022-10-05T14:23:15Z</time>
      </trkpt>
      <trkpt lat="49.73197" lon="2.34875">
        <ele>55.1</ele>
        <time>2022-10-05T14:23:16Z</time>
      </trkpt>
      <trkpt lat="49.73197" lon="2.34875">
        <ele>55.1</ele>
        <time>2022-10-05T14:23:17Z</time>
      </trkpt>
      <trkpt lat="49.73197" lon="2.34875">
        <ele>55.1</ele>
        <time>2022-10-05T14:23:18Z</time>
      </trkpt>
      <trkpt lat="49.73197" lon="2.34875">
        <ele>55.1</ele>
        <time>2022-10-05T14:23:19Z</time>
      </trkpt>
      <trkpt lat="49.73197" lon="2.34875">
        <ele>55.1</ele>
        <time>2022-10-05T14:23:20Z</time>
      </trkpt>
      <trkpt lat="49.73197" lon="2.34875">
        <ele>55.1</ele>
        <time>2022-10-05T14:23:21Z</time>
      </trkpt>
      <trkpt lat="49.73197" lon="2.34875">
        <ele>55.1</ele>
        <time>2022-10-05T14:23:22Z</time>
      </trkpt>
      <trkpt lat="49.73197" lon="2.34875">
        <ele>55.1</ele>
        <time>2022-10-05T14:23:23Z</time>
      </trkpt>
      <trkpt lat="49.73197" lon="2.34875">
        <ele>55.1</ele>
        <time>2022-10-05T14:23:24Z</time>
      </trkpt>
      <trkpt lat="49.73197" lon="2.34875">
        <ele>55.1</ele>
        <time>2022-10-05T14:23:25Z</time>
      </trkpt>
      <trkpt lat="49.73197" lon="2.34875">
        <ele>55.1</ele>
        <time>2022-10-05T14:23:26Z</time>
      </trkpt>
      <trkpt lat="49.73197" lon="2.34875">
        <ele>55.1</ele>
        <time>2022-10-05T14:23:27Z</time>
      </trkpt>
      <trkpt lat="49.73197" lon="2.34875">
        <ele>55.1</ele>
        <time>2022-10-05T14:23:28Z</time>
      </trkpt>
      <trkpt lat="49.73197" lon="2.34875">
        <ele>55.1</ele>
        <time>2022-10-05T14:23:29Z</time>
      </trkpt>
      <trkpt lat="49.73197" lon="2.34875">
        <ele>55.1</ele>
        <time>2022-10-05T14:23:30Z</time>
      </trkpt>
      <trkpt lat="49.73197" lon="2.34875">
        <ele>55.1</ele>
        <time>2022-10-05T14:23:31Z</time>
      </trkpt>
      <trkpt lat="49.73197" lon="2.34875">
        <ele>55.1</ele>
        <time>2022-10-05T14:23:32Z</time>
      </trkpt>
      <trkpt lat="49.73197" lon="2.34875">
        <ele>55.1</ele>
        <time>2022-10-05T14:23:33Z</time>
      </trkpt>
      <trkpt lat="49.73197" lon="2.34875">
        <ele>55.1</ele>
        <time>2022-10-05T14:23:34Z</time>
      </trkpt>
      <trkpt lat="49.73197" lon="2.34874">
        <ele>55.1</ele>
        <time>2022-10-05T14:23:35Z</time>
      </trkpt>
      <trkpt lat="49.73198" lon="2.34874">
        <ele>55.1</ele>
        <time>2022-10-05T14:23:36Z</time>
      </trkpt>
      <trkpt lat="49.73198" lon="2.34873">
        <ele>55.1</ele>
        <time>2022-10-05T14:23:37Z</time>
      </trkpt>
      <trkpt lat="49.73198" lon="2.34872">
        <ele>55.1</ele>
        <time>2022-10-05T14:23:38Z</time>
      </trkpt>
      <trkpt lat="49.73197" lon="2.34871">
        <ele>55.1</ele>
        <time>2022-10-05T14:23:39Z</time>
      </trkpt>
      <trkpt lat="49.73197" lon="2.34872">
        <ele>55.1</ele>
        <time>2022-10-05T14:23:41Z</time>
      </trkpt>
      <trkpt lat="49.73196" lon="2.34871">
        <ele>55.1</ele>
        <time>2022-10-05T14:23:42Z</time>
      </trkpt>
      <trkpt lat="49.73196" lon="2.34871">
        <ele>55.1</ele>
        <time>2022-10-05T14:23:43Z</time>
      </trkpt>
      <trkpt lat="49.73196" lon="2.34871">
        <ele>55.1</ele>
        <time>2022-10-05T14:23:44Z</time>
      </trkpt>
      <trkpt lat="49.73195" lon="2.34872">
        <ele>55.1</ele>
        <time>2022-10-05T14:23:45Z</time>
      </trkpt>
      <trkpt lat="49.73195" lon="2.34872">
        <ele>55.1</ele>
        <time>2022-10-05T14:23:46Z</time>
      </trkpt>
      <trkpt lat="49.73195" lon="2.34872">
        <ele>55.1</ele>
        <time>2022-10-05T14:23:47Z</time>
      </trkpt>
      <trkpt lat="49.73195" lon="2.34873">
        <ele>55.1</ele>
        <time>2022-10-05T14:23:48Z</time>
      </trkpt>
      <trkpt lat="49.73195" lon="2.34873">
        <ele>55.1</ele>
        <time>2022-10-05T14:23:49Z</time>
      </trkpt>
      <trkpt lat="49.73195" lon="2.34873">
        <ele>55.1</ele>
        <time>2022-10-05T14:23:50Z</time>
      </trkpt>
      <trkpt lat="49.73195" lon="2.34873">
        <ele>55.1</ele>
        <time>2022-10-05T14:23:51Z</time>
      </trkpt>
      <trkpt lat="49.73195" lon="2.34874">
        <ele>55.1</ele>
        <time>2022-10-05T14:23:52Z</time>
      </trkpt>
      <trkpt lat="49.73195" lon="2.34874">
        <ele>55.1</ele>
        <time>2022-10-05T14:23:53Z</time>
      </trkpt>
      <trkpt lat="49.73195" lon="2.34874">
        <ele>55.1</ele>
        <time>2022-10-05T14:23:54Z</time>
      </trkpt>
      <trkpt lat="49.73195" lon="2.34874">
        <ele>55.1</ele>
        <time>2022-10-05T14:23:55Z</time>
      </trkpt>
      <trkpt lat="49.73195" lon="2.34874">
        <ele>55.1</ele>
        <time>2022-10-05T14:23:56Z</time>
      </trkpt>
      <trkpt lat="49.73195" lon="2.34874">
        <ele>55.1</ele>
        <time>2022-10-05T14:23:57Z</time>
      </trkpt>
      <trkpt lat="49.73195" lon="2.34875">
        <ele>55.1</ele>
        <time>2022-10-05T14:23:58Z</time>
      </trkpt>
      <trkpt lat="49.73195" lon="2.34875">
        <ele>55.1</ele>
        <time>2022-10-05T14:23:59Z</time>
      </trkpt>
      <trkpt lat="49.73195" lon="2.34876">
        <ele>55.1</ele>
        <time>2022-10-05T14:24:00Z</time>
      </trkpt>
      <trkpt lat="49.73196" lon="2.34876">
        <ele>55.1</ele>
        <time>2022-10-05T14:24:01Z</time>
      </trkpt>
      <trkpt lat="49.73196" lon="2.34877">
        <ele>55.1</ele>
        <time>2022-10-05T14:24:02Z</time>
      </trkpt>
      <trkpt lat="49.73196" lon="2.34877">
        <ele>55.1</ele>
        <time>2022-10-05T14:24:03Z</time>
      </trkpt>
      <trkpt lat="49.73196" lon="2.34877">
        <ele>55.1</ele>
        <time>2022-10-05T14:24:04Z</time>
      </trkpt>
      <trkpt lat="49.73196" lon="2.34877">
        <ele>55.1</ele>
        <time>2022-10-05T14:24:05Z</time>
      </trkpt>
      <trkpt lat="49.73196" lon="2.34877">
        <ele>55.1</ele>
        <time>2022-10-05T14:24:06Z</time>
      </trkpt>
      <trkpt lat="49.73196" lon="2.34877">
        <ele>55.1</ele>
        <time>2022-10-05T14:24:07Z</time>
      </trkpt>
      <trkpt lat="49.73196" lon="2.34877">
        <ele>55.1</ele>
        <time>2022-10-05T14:24:08Z</time>
      </trkpt>
      <trkpt lat="49.73196" lon="2.34877">
        <ele>55.1</ele>
        <time>2022-10-05T14:24:09Z</time>
      </trkpt>
      <trkpt lat="49.73196" lon="2.34877">
        <ele>55.1</ele>
        <time>2022-10-05T14:24:10Z</time>
      </trkpt>
      <trkpt lat="49.73196" lon="2.34877">
        <ele>55.1</ele>
        <time>2022-10-05T14:24:11Z</time>
      </trkpt>
      <trkpt lat="49.73196" lon="2.34877">
        <ele>55.1</ele>
        <time>2022-10-05T14:24:12Z</time>
      </trkpt>
      <trkpt lat="49.73196" lon="2.34877">
        <ele>55.1</ele>
        <time>2022-10-05T14:24:13Z</time>
      </trkpt>
      <trkpt lat="49.73196" lon="2.34877">
        <ele>55.1</ele>
        <time>2022-10-05T14:24:14Z</time>
      </trkpt>
      <trkpt lat="49.73196" lon="2.34877">
        <ele>55.1</ele>
        <time>2022-10-05T14:24:15Z</time>
      </trkpt>
      <trkpt lat="49.73196" lon="2.34877">
        <ele>55.1</ele>
        <time>2022-10-05T14:24:16Z</time>
      </trkpt>
      <trkpt lat="49.73196" lon="2.34877">
        <ele>55.1</ele>
        <time>2022-10-05T14:24:17Z</time>
      </trkpt>
      <trkpt lat="49.73197" lon="2.34877">
        <ele>55.1</ele>
        <time>2022-10-05T14:24:18Z</time>
      </trkpt>
      <trkpt lat="49.73197" lon="2.34877">
        <ele>55.1</ele>
        <time>2022-10-05T14:24:19Z</time>
      </trkpt>
      <trkpt lat="49.73198" lon="2.34877">
        <ele>55.1</ele>
        <time>2022-10-05T14:24:21Z</time>
      </trkpt>
      <trkpt lat="49.73199" lon="2.34878">
        <ele>55.1</ele>
        <time>2022-10-05T14:24:23Z</time>
      </trkpt>
      <trkpt lat="49.73201" lon="2.34878">
        <ele>55.1</ele>
        <time>2022-10-05T14:24:24Z</time>
      </trkpt>
      <trkpt lat="49.73202" lon="2.34878">
        <ele>55.1</ele>
        <time>2022-10-05T14:24:25Z</time>
      </trkpt>
      <trkpt lat="49.73202" lon="2.34877">
        <ele>55.1</ele>
        <time>2022-10-05T14:24:26Z</time>
      </trkpt>
      <trkpt lat="49.73203" lon="2.34876">
        <ele>55.1</ele>
        <time>2022-10-05T14:24:28Z</time>
      </trkpt>
      <trkpt lat="49.73203" lon="2.34876">
        <ele>55.1</ele>
        <time>2022-10-05T14:24:29Z</time>
      </trkpt>
      <trkpt lat="49.73203" lon="2.34876">
        <ele>55.1</ele>
        <time>2022-10-05T14:24:30Z</time>
      </trkpt>
      <trkpt lat="49.73203" lon="2.34876">
        <ele>55.1</ele>
        <time>2022-10-05T14:24:31Z</time>
      </trkpt>
      <trkpt lat="49.73204" lon="2.34876">
        <ele>55.1</ele>
        <time>2022-10-05T14:24:32Z</time>
      </trkpt>
      <trkpt lat="49.73204" lon="2.34875">
        <ele>55.1</ele>
        <time>2022-10-05T14:24:33Z</time>
      </trkpt>
      <trkpt lat="49.73204" lon="2.34875">
        <ele>55.1</ele>
        <time>2022-10-05T14:24:34Z</time>
      </trkpt>
      <trkpt lat="49.73205" lon="2.34875">
        <ele>55.1</ele>
        <time>2022-10-05T14:24:35Z</time>
      </trkpt>
      <trkpt lat="49.73205" lon="2.34875">
        <ele>55.1</ele>
        <time>2022-10-05T14:24:36Z</time>
      </trkpt>
      <trkpt lat="49.73205" lon="2.34875">
        <ele>55.1</ele>
        <time>2022-10-05T14:24:38Z</time>
      </trkpt>
      <trkpt lat="49.73205" lon="2.34875">
        <ele>55.1</ele>
        <time>2022-10-05T14:24:39Z</time>
      </trkpt>
      <trkpt lat="49.73205" lon="2.34876">
        <ele>55.1</ele>
        <time>2022-10-05T14:24:41Z</time>
      </trkpt>
      <trkpt lat="49.73205" lon="2.34876">
        <ele>55.1</ele>
        <time>2022-10-05T14:24:42Z</time>
      </trkpt>
      <trkpt lat="49.73206" lon="2.34877">
        <ele>55.1</ele>
        <time>2022-10-05T14:24:43Z</time>
      </trkpt>
      <trkpt lat="49.73206" lon="2.34878">
        <ele>55.1</ele>
        <time>2022-10-05T14:24:44Z</time>
      </trkpt>
      <trkpt lat="49.73206" lon="2.34877">
        <ele>55.1</ele>
        <time>2022-10-05T14:24:45Z</time>
      </trkpt>
      <trkpt lat="49.73207" lon="2.34878">
        <ele>55.1</ele>
        <time>2022-10-05T14:24:46Z</time>
      </trkpt>
      <trkpt lat="49.73208" lon="2.34878">
        <ele>55.1</ele>
        <time>2022-10-05T14:24:47Z</time>
      </trkpt>
      <trkpt lat="49.73208" lon="2.34878">
        <ele>55.1</ele>
        <time>2022-10-05T14:24:48Z</time>
      </trkpt>
      <trkpt lat="49.73209" lon="2.34878">
        <ele>55.1</ele>
        <time>2022-10-05T14:24:50Z</time>
      </trkpt>
      <trkpt lat="49.7321" lon="2.34878">
        <ele>55.1</ele>
        <time>2022-10-05T14:24:52Z</time>
      </trkpt>
      <trkpt lat="49.73211" lon="2.34877">
        <ele>55.1</ele>
        <time>2022-10-05T14:24:53Z</time>
      </trkpt>
      <trkpt lat="49.73211" lon="2.34876">
        <ele>55.1</ele>
        <time>2022-10-05T14:24:55Z</time>
      </trkpt>
      <trkpt lat="49.73212" lon="2.34875">
        <ele>55.1</ele>
        <time>2022-10-05T14:24:56Z</time>
      </trkpt>
      <trkpt lat="49.73213" lon="2.34874">
        <ele>55.1</ele>
        <time>2022-10-05T14:24:57Z</time>
      </trkpt>
      <trkpt lat="49.73214" lon="2.34874">
        <ele>55.1</ele>
        <time>2022-10-05T14:24:58Z</time>
      </trkpt>
      <trkpt lat="49.73215" lon="2.34873">
        <ele>55.1</ele>
        <time>2022-10-05T14:25:00Z</time>
      </trkpt>
      <trkpt lat="49.73216" lon="2.34873">
        <ele>55.1</ele>
        <time>2022-10-05T14:25:01Z</time>
      </trkpt>
      <trkpt lat="49.73217" lon="2.34873">
        <ele>55.1</ele>
        <time>2022-10-05T14:25:02Z</time>
      </trkpt>
      <trkpt lat="49.73218" lon="2.34873">
        <ele>55.1</ele>
        <time>2022-10-05T14:25:03Z</time>
      </trkpt>
      <trkpt lat="49.73219" lon="2.34873">
        <ele>55.1</ele>
        <time>2022-10-05T14:25:05Z</time>
      </trkpt>
      <trkpt lat="49.7322" lon="2.34873">
        <ele>55.1</ele>
        <time>2022-10-05T14:25:06Z</time>
      </trkpt>
      <trkpt lat="49.73221" lon="2.34873">
        <ele>55.1</ele>
        <time>2022-10-05T14:25:07Z</time>
      </trkpt>
      <trkpt lat="49.73222" lon="2.34873">
        <ele>55.1</ele>
        <time>2022-10-05T14:25:08Z</time>
      </trkpt>
      <trkpt lat="49.73224" lon="2.34872">
        <ele>55.1</ele>
        <time>2022-10-05T14:25:09Z</time>
      </trkpt>
      <trkpt lat="49.73225" lon="2.34871">
        <ele>55.1</ele>
        <time>2022-10-05T14:25:11Z</time>
      </trkpt>
      <trkpt lat="49.73226" lon="2.34871">
        <ele>55.1</ele>
        <time>2022-10-05T14:25:12Z</time>
      </trkpt>
      <trkpt lat="49.73226" lon="2.34871">
        <ele>55.1</ele>
        <time>2022-10-05T14:25:13Z</time>
      </trkpt>
      <trkpt lat="49.73227" lon="2.34871">
        <ele>55.1</ele>
        <time>2022-10-05T14:25:14Z</time>
      </trkpt>
      <trkpt lat="49.73227" lon="2.3487">
        <ele>55.1</ele>
        <time>2022-10-05T14:25:15Z</time>
      </trkpt>
      <trkpt lat="49.73227" lon="2.34869">
        <ele>55.1</ele>
        <time>2022-10-05T14:25:16Z</time>
      </trkpt>
      <trkpt lat="49.73226" lon="2.34869">
        <ele>55.1</ele>
        <time>2022-10-05T14:25:17Z</time>
      </trkpt>
      <trkpt lat="49.73225" lon="2.3487">
        <ele>55.1</ele>
        <time>2022-10-05T14:25:18Z</time>
      </trkpt>
      <trkpt lat="49.73224" lon="2.3487">
        <ele>55.1</ele>
        <time>2022-10-05T14:25:19Z</time>
      </trkpt>
      <trkpt lat="49.73223" lon="2.3487">
        <ele>55.1</ele>
        <time>2022-10-05T14:25:20Z</time>
      </trkpt>
      <trkpt lat="49.73223" lon="2.3487">
        <ele>55.1</ele>
        <time>2022-10-05T14:25:21Z</time>
      </trkpt>
      <trkpt lat="49.73222" lon="2.3487">
        <ele>55.1</ele>
        <time>2022-10-05T14:25:22Z</time>
      </trkpt>
      <trkpt lat="49.73221" lon="2.34869">
        <ele>55.1</ele>
        <time>2022-10-05T14:25:23Z</time>
      </trkpt>
      <trkpt lat="49.7322" lon="2.34869">
        <ele>55.1</ele>
        <time>2022-10-05T14:25:24Z</time>
      </trkpt>
      <trkpt lat="49.73219" lon="2.34869">
        <ele>55.1</ele>
        <time>2022-10-05T14:25:25Z</time>
      </trkpt>
      <trkpt lat="49.73218" lon="2.34869">
        <ele>55.1</ele>
        <time>2022-10-05T14:25:26Z</time>
      </trkpt>
      <trkpt lat="49.73216" lon="2.34869">
        <ele>55.1</ele>
        <time>2022-10-05T14:25:27Z</time>
      </trkpt>
      <trkpt lat="49.73215" lon="2.3487">
        <ele>55.1</ele>
        <time>2022-10-05T14:25:28Z</time>
      </trkpt>
      <trkpt lat="49.73214" lon="2.3487">
        <ele>55.1</ele>
        <time>2022-10-05T14:25:30Z</time>
      </trkpt>
      <trkpt lat="49.73213" lon="2.34871">
        <ele>55.1</ele>
        <time>2022-10-05T14:25:31Z</time>
      </trkpt>
      <trkpt lat="49.73212" lon="2.34871">
        <ele>55.1</ele>
        <time>2022-10-05T14:25:32Z</time>
      </trkpt>
      <trkpt lat="49.73211" lon="2.34872">
        <ele>55.1</ele>
        <time>2022-10-05T14:25:33Z</time>
      </trkpt>
      <trkpt lat="49.7321" lon="2.34872">
        <ele>55.1</ele>
        <time>2022-10-05T14:25:34Z</time>
      </trkpt>
      <trkpt lat="49.7321" lon="2.34872">
        <ele>55.1</ele>
        <time>2022-10-05T14:25:35Z</time>
      </trkpt>
      <trkpt lat="49.73209" lon="2.34872">
        <ele>55.1</ele>
        <time>2022-10-05T14:25:36Z</time>
      </trkpt>
      <trkpt lat="49.73208" lon="2.34872">
        <ele>55.1</ele>
        <time>2022-10-05T14:25:37Z</time>
      </trkpt>
      <trkpt lat="49.73206" lon="2.34872">
        <ele>55.1</ele>
        <time>2022-10-05T14:25:38Z</time>
      </trkpt>
      <trkpt lat="49.73205" lon="2.34872">
        <ele>55.1</ele>
        <time>2022-10-05T14:25:40Z</time>
      </trkpt>
      <trkpt lat="49.73204" lon="2.34873">
        <ele>55.1</ele>
        <time>2022-10-05T14:25:41Z</time>
      </trkpt>
      <trkpt lat="49.73203" lon="2.34873">
        <ele>55.1</ele>
        <time>2022-10-05T14:25:42Z</time>
      </trkpt>
      <trkpt lat="49.73203" lon="2.34872">
        <ele>55.1</ele>
        <time>2022-10-05T14:25:43Z</time>
      </trkpt>
      <trkpt lat="49.73202" lon="2.34872">
        <ele>55.1</ele>
        <time>2022-10-05T14:25:44Z</time>
      </trkpt>
      <trkpt lat="49.73202" lon="2.34872">
        <ele>55.1</ele>
        <time>2022-10-05T14:25:45Z</time>
      </trkpt>
      <trkpt lat="49.73202" lon="2.34872">
        <ele>55.1</ele>
        <time>2022-10-05T14:25:46Z</time>
      </trkpt>
      <trkpt lat="49.73202" lon="2.34872">
        <ele>55.1</ele>
        <time>2022-10-05T14:25:47Z</time>
      </trkpt>
      <trkpt lat="49.73201" lon="2.34871">
        <ele>55.1</ele>
        <time>2022-10-05T14:25:48Z</time>
      </trkpt>
      <trkpt lat="49.73201" lon="2.34872">
        <ele>55.1</ele>
        <time>2022-10-05T14:25:49Z</time>
      </trkpt>
      <trkpt lat="49.73201" lon="2.34872">
        <ele>55.1</ele>
        <time>2022-10-05T14:25:50Z</time>
      </trkpt>
      <trkpt lat="49.73201" lon="2.34872">
        <ele>55.1</ele>
        <time>2022-10-05T14:25:51Z</time>
      </trkpt>
      <trkpt lat="49.73201" lon="2.34872">
        <ele>55.1</ele>
        <time>2022-10-05T14:25:52Z</time>
      </trkpt>
      <trkpt lat="49.73201" lon="2.34872">
        <ele>55.1</ele>
        <time>2022-10-05T14:25:53Z</time>
      </trkpt>
      <trkpt lat="49.73201" lon="2.34873">
        <ele>55.1</ele>
        <time>2022-10-05T14:25:54Z</time>
      </trkpt>
      <trkpt lat="49.732" lon="2.34873">
        <ele>55.1</ele>
        <time>2022-10-05T14:25:55Z</time>
      </trkpt>
      <trkpt lat="49.73201" lon="2.34873">
        <ele>55.1</ele>
        <time>2022-10-05T14:25:56Z</time>
      </trkpt>
      <trkpt lat="49.73201" lon="2.34873">
        <ele>55.1</ele>
        <time>2022-10-05T14:25:57Z</time>
      </trkpt>
      <trkpt lat="49.73201" lon="2.34873">
        <ele>55.1</ele>
        <time>2022-10-05T14:25:58Z</time>
      </trkpt>
      <trkpt lat="49.73201" lon="2.34873">
        <ele>55.1</ele>
        <time>2022-10-05T14:25:59Z</time>
      </trkpt>
      <trkpt lat="49.73201" lon="2.34873">
        <ele>55.1</ele>
        <time>2022-10-05T14:26:00Z</time>
      </trkpt>
      <trkpt lat="49.73201" lon="2.34873">
        <ele>55.1</ele>
        <time>2022-10-05T14:26:01Z</time>
      </trkpt>
      <trkpt lat="49.73201" lon="2.34873">
        <ele>55.1</ele>
        <time>2022-10-05T14:26:02Z</time>
      </trkpt>
      <trkpt lat="49.73201" lon="2.34873">
        <ele>55.1</ele>
        <time>2022-10-05T14:26:03Z</time>
      </trkpt>
      <trkpt lat="49.73201" lon="2.34873">
        <ele>55.1</ele>
        <time>2022-10-05T14:26:04Z</time>
      </trkpt>
      <trkpt lat="49.73201" lon="2.34873">
        <ele>55.1</ele>
        <time>2022-10-05T14:26:05Z</time>
      </trkpt>
      <trkpt lat="49.73201" lon="2.34873">
        <ele>55.1</ele>
        <time>2022-10-05T14:26:06Z</time>
      </trkpt>
      <trkpt lat="49.73201" lon="2.34873">
        <ele>55.1</ele>
        <time>2022-10-05T14:26:07Z</time>
      </trkpt>
      <trkpt lat="49.73201" lon="2.34873">
        <ele>55.1</ele>
        <time>2022-10-05T14:26:08Z</time>
      </trkpt>
      <trkpt lat="49.73201" lon="2.34873">
        <ele>55.1</ele>
        <time>2022-10-05T14:26:09Z</time>
      </trkpt>
      <trkpt lat="49.73201" lon="2.34873">
        <ele>55.1</ele>
        <time>2022-10-05T14:26:10Z</time>
      </trkpt>
      <trkpt lat="49.73201" lon="2.34873">
        <ele>55.1</ele>
        <time>2022-10-05T14:26:11Z</time>
      </trkpt>
      <trkpt lat="49.73201" lon="2.34873">
        <ele>55.1</ele>
        <time>2022-10-05T14:26:12Z</time>
      </trkpt>
      <trkpt lat="49.73201" lon="2.34873">
        <ele>55.1</ele>
        <time>2022-10-05T14:26:13Z</time>
      </trkpt>
      <trkpt lat="49.73201" lon="2.34873">
        <ele>55.1</ele>
        <time>2022-10-05T14:26:14Z</time>
      </trkpt>
      <trkpt lat="49.73201" lon="2.34873">
        <ele>55.1</ele>
        <time>2022-10-05T14:26:15Z</time>
      </trkpt>
      <trkpt lat="49.73201" lon="2.34873">
        <ele>55.1</ele>
        <time>2022-10-05T14:26:16Z</time>
      </trkpt>
      <trkpt lat="49.73201" lon="2.34873">
        <ele>55.1</ele>
        <time>2022-10-05T14:26:17Z</time>
      </trkpt>
      <trkpt lat="49.73201" lon="2.34873">
        <ele>55.1</ele>
        <time>2022-10-05T14:26:18Z</time>
      </trkpt>
      <trkpt lat="49.73201" lon="2.34873">
        <ele>55.1</ele>
        <time>2022-10-05T14:26:19Z</time>
      </trkpt>
      <trkpt lat="49.73201" lon="2.34873">
        <ele>55.1</ele>
        <time>2022-10-05T14:26:20Z</time>
      </trkpt>
      <trkpt lat="49.73201" lon="2.34873">
        <ele>55.1</ele>
        <time>2022-10-05T14:26:21Z</time>
      </trkpt>
      <trkpt lat="49.73201" lon="2.34873">
        <ele>55.1</ele>
        <time>2022-10-05T14:26:22Z</time>
      </trkpt>
      <trkpt lat="49.73201" lon="2.34873">
        <ele>55.1</ele>
        <time>2022-10-05T14:26:23Z</time>
      </trkpt>
      <trkpt lat="49.73201" lon="2.34873">
        <ele>55.1</ele>
        <time>2022-10-05T14:26:24Z</time>
      </trkpt>
      <trkpt lat="49.73201" lon="2.34873">
        <ele>55.1</ele>
        <time>2022-10-05T14:26:25Z</time>
      </trkpt>
      <trkpt lat="49.73201" lon="2.34873">
        <ele>55.1</ele>
        <time>2022-10-05T14:26:26Z</time>
      </trkpt>
      <trkpt lat="49.73201" lon="2.34873">
        <ele>55.1</ele>
        <time>2022-10-05T14:26:27Z</time>
      </trkpt>
      <trkpt lat="49.73201" lon="2.34873">
        <ele>55.1</ele>
        <time>2022-10-05T14:26:28Z</time>
      </trkpt>
      <trkpt lat="49.73201" lon="2.34873">
        <ele>55.1</ele>
        <time>2022-10-05T14:26:29Z</time>
      </trkpt>
      <trkpt lat="49.73201" lon="2.34873">
        <ele>55.1</ele>
        <time>2022-10-05T14:26:30Z</time>
      </trkpt>
      <trkpt lat="49.73201" lon="2.34873">
        <ele>55.1</ele>
        <time>2022-10-05T14:26:31Z</time>
      </trkpt>
      <trkpt lat="49.73201" lon="2.34873">
        <ele>55.1</ele>
        <time>2022-10-05T14:26:32Z</time>
      </trkpt>
      <trkpt lat="49.73201" lon="2.34873">
        <ele>55.1</ele>
        <time>2022-10-05T14:26:33Z</time>
      </trkpt>
      <trkpt lat="49.73201" lon="2.34873">
        <ele>55.1</ele>
        <time>2022-10-05T14:26:34Z</time>
      </trkpt>
      <trkpt lat="49.73201" lon="2.34873">
        <ele>55.1</ele>
        <time>2022-10-05T14:26:35Z</time>
      </trkpt>
      <trkpt lat="49.73201" lon="2.34873">
        <ele>55.1</ele>
        <time>2022-10-05T14:26:36Z</time>
      </trkpt>
      <trkpt lat="49.73201" lon="2.34873">
        <ele>55.1</ele>
        <time>2022-10-05T14:26:37Z</time>
      </trkpt>
      <trkpt lat="49.73201" lon="2.34873">
        <ele>55.1</ele>
        <time>2022-10-05T14:26:38Z</time>
      </trkpt>
      <trkpt lat="49.73201" lon="2.34873">
        <ele>55.1</ele>
        <time>2022-10-05T14:26:39Z</time>
      </trkpt>
      <trkpt lat="49.73201" lon="2.34873">
        <ele>55.1</ele>
        <time>2022-10-05T14:26:40Z</time>
      </trkpt>
      <trkpt lat="49.73201" lon="2.34873">
        <ele>55.1</ele>
        <time>2022-10-05T14:26:41Z</time>
      </trkpt>
      <trkpt lat="49.73201" lon="2.34873">
        <ele>55.1</ele>
        <time>2022-10-05T14:26:42Z</time>
      </trkpt>
      <trkpt lat="49.73201" lon="2.34873">
        <ele>55.1</ele>
        <time>2022-10-05T14:26:43Z</time>
      </trkpt>
      <trkpt lat="49.73201" lon="2.34873">
        <ele>55.1</ele>
        <time>2022-10-05T14:26:44Z</time>
      </trkpt>
      <trkpt lat="49.73201" lon="2.34873">
        <ele>55.1</ele>
        <time>2022-10-05T14:26:45Z</time>
      </trkpt>
      <trkpt lat="49.73201" lon="2.34873">
        <ele>55.1</ele>
        <time>2022-10-05T14:26:46Z</time>
      </trkpt>
      <trkpt lat="49.73201" lon="2.34873">
        <ele>55.1</ele>
        <time>2022-10-05T14:26:47Z</time>
      </trkpt>
      <trkpt lat="49.73201" lon="2.34873">
        <ele>55.1</ele>
        <time>2022-10-05T14:26:48Z</time>
      </trkpt>
      <trkpt lat="49.73201" lon="2.34873">
        <ele>55.1</ele>
        <time>2022-10-05T14:26:49Z</time>
      </trkpt>
      <trkpt lat="49.73201" lon="2.34873">
        <ele>55.1</ele>
        <time>2022-10-05T14:26:50Z</time>
      </trkpt>
      <trkpt lat="49.73201" lon="2.34873">
        <ele>55.1</ele>
        <time>2022-10-05T14:26:51Z</time>
      </trkpt>
      <trkpt lat="49.73201" lon="2.34873">
        <ele>55.1</ele>
        <time>2022-10-05T14:26:52Z</time>
      </trkpt>
      <trkpt lat="49.73201" lon="2.34873">
        <ele>55.1</ele>
        <time>2022-10-05T14:26:53Z</time>
      </trkpt>
      <trkpt lat="49.73201" lon="2.34873">
        <ele>55.1</ele>
        <time>2022-10-05T14:26:54Z</time>
      </trkpt>
      <trkpt lat="49.73201" lon="2.34873">
        <ele>55.1</ele>
        <time>2022-10-05T14:26:55Z</time>
      </trkpt>
      <trkpt lat="49.73201" lon="2.34873">
        <ele>55.1</ele>
        <time>2022-10-05T14:26:56Z</time>
      </trkpt>
      <trkpt lat="49.73201" lon="2.34872">
        <ele>55.1</ele>
        <time>2022-10-05T14:26:57Z</time>
      </trkpt>
      <trkpt lat="49.73202" lon="2.34872">
        <ele>55.1</ele>
        <time>2022-10-05T14:26:58Z</time>
      </trkpt>
      <trkpt lat="49.73202" lon="2.34872">
        <ele>55.1</ele>
        <time>2022-10-05T14:27:00Z</time>
      </trkpt>
      <trkpt lat="49.73203" lon="2.34871">
        <ele>55.1</ele>
        <time>2022-10-05T14:27:01Z</time>
      </trkpt>
      <trkpt lat="49.73204" lon="2.34872">
        <ele>55.1</ele>
        <time>2022-10-05T14:27:02Z</time>
      </trkpt>
      <trkpt lat="49.73205" lon="2.34872">
        <ele>55.1</ele>
        <time>2022-10-05T14:27:04Z</time>
      </trkpt>
      <trkpt lat="49.73206" lon="2.34872">
        <ele>55.1</ele>
        <time>2022-10-05T14:27:05Z</time>
      </trkpt>
      <trkpt lat="49.73207" lon="2.34872">
        <ele>55.1</ele>
        <time>2022-10-05T14:27:06Z</time>
      </trkpt>
      <trkpt lat="49.73207" lon="2.34872">
        <ele>55.1</ele>
        <time>2022-10-05T14:27:07Z</time>
      </trkpt>
      <trkpt lat="49.73208" lon="2.34872">
        <ele>55.1</ele>
        <time>2022-10-05T14:27:08Z</time>
      </trkpt>
      <trkpt lat="49.73208" lon="2.34872">
        <ele>55.1</ele>
        <time>2022-10-05T14:27:09Z</time>
      </trkpt>
      <trkpt lat="49.73208" lon="2.34871">
        <ele>55.1</ele>
        <time>2022-10-05T14:27:10Z</time>
      </trkpt>
      <trkpt lat="49.73209" lon="2.3487">
        <ele>55.1</ele>
        <time>2022-10-05T14:27:12Z</time>
      </trkpt>
      <trkpt lat="49.73209" lon="2.34869">
        <ele>55.1</ele>
        <time>2022-10-05T14:27:13Z</time>
      </trkpt>
      <trkpt lat="49.7321" lon="2.34869">
        <ele>55.1</ele>
        <time>2022-10-05T14:27:14Z</time>
      </trkpt>
      <trkpt lat="49.7321" lon="2.34869">
        <ele>55.1</ele>
        <time>2022-10-05T14:27:15Z</time>
      </trkpt>
      <trkpt lat="49.7321" lon="2.34868">
        <ele>55.1</ele>
        <time>2022-10-05T14:27:16Z</time>
      </trkpt>
      <trkpt lat="49.7321" lon="2.34868">
        <ele>55.1</ele>
        <time>2022-10-05T14:27:17Z</time>
      </trkpt>
      <trkpt lat="49.7321" lon="2.34869">
        <ele>55.1</ele>
        <time>2022-10-05T14:27:18Z</time>
      </trkpt>
      <trkpt lat="49.7321" lon="2.34869">
        <ele>55.1</ele>
        <time>2022-10-05T14:27:19Z</time>
      </trkpt>
      <trkpt lat="49.7321" lon="2.34869">
        <ele>55.1</ele>
        <time>2022-10-05T14:27:20Z</time>
      </trkpt>
      <trkpt lat="49.73209" lon="2.34869">
        <ele>55.1</ele>
        <time>2022-10-05T14:27:21Z</time>
      </trkpt>
      <trkpt lat="49.73209" lon="2.34869">
        <ele>55.1</ele>
        <time>2022-10-05T14:27:22Z</time>
      </trkpt>
      <trkpt lat="49.73209" lon="2.34869">
        <ele>55.1</ele>
        <time>2022-10-05T14:27:23Z</time>
      </trkpt>
      <trkpt lat="49.73209" lon="2.34869">
        <ele>55.1</ele>
        <time>2022-10-05T14:27:24Z</time>
      </trkpt>
      <trkpt lat="49.73209" lon="2.34869">
        <ele>55.1</ele>
        <time>2022-10-05T14:27:25Z</time>
      </trkpt>
      <trkpt lat="49.73209" lon="2.34869">
        <ele>55.1</ele>
        <time>2022-10-05T14:27:26Z</time>
      </trkpt>
      <trkpt lat="49.73209" lon="2.34869">
        <ele>55.1</ele>
        <time>2022-10-05T14:27:27Z</time>
      </trkpt>
      <trkpt lat="49.73209" lon="2.34869">
        <ele>55.1</ele>
        <time>2022-10-05T14:27:28Z</time>
      </trkpt>
      <trkpt lat="49.73209" lon="2.34869">
        <ele>55.1</ele>
        <time>2022-10-05T14:27:29Z</time>
      </trkpt>
      <trkpt lat="49.73209" lon="2.34869">
        <ele>55.1</ele>
        <time>2022-10-05T14:27:30Z</time>
      </trkpt>
      <trkpt lat="49.73209" lon="2.3487">
        <ele>55.1</ele>
        <time>2022-10-05T14:27:31Z</time>
      </trkpt>
      <trkpt lat="49.73208" lon="2.3487">
        <ele>55.1</ele>
        <time>2022-10-05T14:27:32Z</time>
      </trkpt>
      <trkpt lat="49.73208" lon="2.3487">
        <ele>55.1</ele>
        <time>2022-10-05T14:27:33Z</time>
      </trkpt>
      <trkpt lat="49.73208" lon="2.3487">
        <ele>55.1</ele>
        <time>2022-10-05T14:27:34Z</time>
      </trkpt>
      <trkpt lat="49.73208" lon="2.3487">
        <ele>55.1</ele>
        <time>2022-10-05T14:27:35Z</time>
      </trkpt>
      <trkpt lat="49.73208" lon="2.3487">
        <ele>55.1</ele>
        <time>2022-10-05T14:27:36Z</time>
      </trkpt>
      <trkpt lat="49.73208" lon="2.3487">
        <ele>55.1</ele>
        <time>2022-10-05T14:27:37Z</time>
      </trkpt>
      <trkpt lat="49.73208" lon="2.3487">
        <ele>55.1</ele>
        <time>2022-10-05T14:27:38Z</time>
      </trkpt>
      <trkpt lat="49.73208" lon="2.3487">
        <ele>55.1</ele>
        <time>2022-10-05T14:27:39Z</time>
      </trkpt>
      <trkpt lat="49.73208" lon="2.3487">
        <ele>55.1</ele>
        <time>2022-10-05T14:27:40Z</time>
      </trkpt>
      <trkpt lat="49.73208" lon="2.3487">
        <ele>55.1</ele>
        <time>2022-10-05T14:27:41Z</time>
      </trkpt>
      <trkpt lat="49.73208" lon="2.3487">
        <ele>55.1</ele>
        <time>2022-10-05T14:27:42Z</time>
      </trkpt>
      <trkpt lat="49.73208" lon="2.3487">
        <ele>55.1</ele>
        <time>2022-10-05T14:27:43Z</time>
      </trkpt>
    </trkseg>
  </trk>
</gpx>